<?xml version='1.0' encoding='UTF-8'?><gpx version="1.1" creator="JPX - https://github.com/jenetics/jpx" xmlns="http://www.topografix.com/GPX/1/1"><trk><trkseg><trkpt lat="45.83786478923592" lon="12.25025451939943"><ele>65.0</ele><time>2026-04-25T04:00:40.999Z</time></trkpt><trkpt lat="45.83793627504742" lon="12.250212374194314"><ele>65.0</ele><time>2026-04-25T04:00:44.999Z</time></trkpt><trkpt lat="45.83800171010217" lon="12.250179398432495"><ele>65.0</ele><time>2026-04-25T04:00:47.998Z</time></trkpt><trkpt lat="45.838079151844475" lon="12.25013522084309"><ele>65.0</ele><time>2026-04-25T04:00:50.998Z</time></trkpt><trkpt lat="45.83814927340627" lon="12.25008009814414"><ele>65.0</ele><time>2026-04-25T04:00:53.998Z</time></trkpt><trkpt lat="45.838225858329366" lon="12.250028909908934"><ele>65.0</ele><time>2026-04-25T04:00:57.998Z</time></trkpt><trkpt lat="45.83829205535007" lon="12.249973986667031"><ele>65.0</ele><time>2026-04-25T04:01:01.998Z</time></trkpt><trkpt lat="45.83835666132978" lon="12.249928888465254"><ele>65.0</ele><time>2026-04-25T04:01:05.998Z</time></trkpt><trkpt lat="45.83842011114626" lon="12.249900498965193"><ele>65.0</ele><time>2026-04-25T04:01:52.998Z</time></trkpt><trkpt lat="45.838484139874446" lon="12.249852649298326"><ele>65.0</ele><time>2026-04-25T04:01:57.997Z</time></trkpt><trkpt lat="45.838545338332" lon="12.249796514340503"><ele>65.0</ele><time>2026-04-25T04:02:00.997Z</time></trkpt><trkpt lat="45.83862862398921" lon="12.249738548340966"><ele>65.0</ele><time>2026-04-25T04:02:03.997Z</time></trkpt><trkpt lat="45.83869870085263" lon="12.249692882389077"><ele>65.2</ele><time>2026-04-25T04:02:05.997Z</time></trkpt><trkpt lat="45.8387790934688" lon="12.249642594114812"><ele>65.4</ele><time>2026-04-25T04:02:07.997Z</time></trkpt><trkpt lat="45.8388577697989" lon="12.249589573607524"><ele>65.6</ele><time>2026-04-25T04:02:09.997Z</time></trkpt><trkpt lat="45.838943283029614" lon="12.249535039603712"><ele>65.8</ele><time>2026-04-25T04:02:11.997Z</time></trkpt><trkpt lat="45.83903054861419" lon="12.249470585695109"><ele>66.0</ele><time>2026-04-25T04:02:13.997Z</time></trkpt><trkpt lat="45.839119893302254" lon="12.249409222517263"><ele>66.0</ele><time>2026-04-25T04:02:15.997Z</time></trkpt><trkpt lat="45.83921524914676" lon="12.249347074325813"><ele>66.0</ele><time>2026-04-25T04:02:17.997Z</time></trkpt><trkpt lat="45.839306382739295" lon="12.24928396681941"><ele>66.0</ele><time>2026-04-25T04:02:19.997Z</time></trkpt><trkpt lat="45.83940336325797" lon="12.24921386386714"><ele>66.0</ele><time>2026-04-25T04:02:21.997Z</time></trkpt><trkpt lat="45.83950118855549" lon="12.249138081193353"><ele>66.0</ele><time>2026-04-25T04:02:23.997Z</time></trkpt><trkpt lat="45.839600110120195" lon="12.249073843075058"><ele>66.2</ele><time>2026-04-25T04:02:25.997Z</time></trkpt><trkpt lat="45.83969718854553" lon="12.249002309385803"><ele>66.39999999999999</ele><time>2026-04-25T04:02:27.997Z</time></trkpt><trkpt lat="45.83979685370782" lon="12.248926150246724"><ele>66.6</ele><time>2026-04-25T04:02:29.997Z</time></trkpt><trkpt lat="45.83985276334058" lon="12.248882815530926"><ele>66.8</ele><time>2026-04-25T04:02:30.997Z</time></trkpt><trkpt lat="45.839966911501804" lon="12.248799424358197"><ele>67.0</ele><time>2026-04-25T04:02:32.997Z</time></trkpt><trkpt lat="45.84003272766097" lon="12.248765832335438"><ele>67.0</ele><time>2026-04-25T04:02:33.997Z</time></trkpt><trkpt lat="45.8400943752281" lon="12.248725369365278"><ele>67.0</ele><time>2026-04-25T04:02:34.997Z</time></trkpt><trkpt lat="45.840216381298696" lon="12.248648348821602"><ele>67.0</ele><time>2026-04-25T04:02:36.997Z</time></trkpt><trkpt lat="45.84028056705346" lon="12.248601133119438"><ele>67.0</ele><time>2026-04-25T04:02:37.997Z</time></trkpt><trkpt lat="45.840347877779465" lon="12.248559562066697"><ele>67.0</ele><time>2026-04-25T04:02:38.997Z</time></trkpt><trkpt lat="45.84041363240409" lon="12.248515177451445"><ele>67.0</ele><time>2026-04-25T04:02:39.997Z</time></trkpt><trkpt lat="45.840479836380034" lon="12.248471573881877"><ele>67.0</ele><time>2026-04-25T04:02:40.997Z</time></trkpt><trkpt lat="45.84054500430533" lon="12.2484239734334"><ele>67.0</ele><time>2026-04-25T04:02:41.997Z</time></trkpt><trkpt lat="45.84060686767704" lon="12.248376067883152"><ele>67.0</ele><time>2026-04-25T04:02:42.997Z</time></trkpt><trkpt lat="45.840670062951475" lon="12.248327359439768"><ele>67.0</ele><time>2026-04-25T04:02:43.997Z</time></trkpt><trkpt lat="45.84073671096314" lon="12.248290049675647"><ele>67.0</ele><time>2026-04-25T04:02:44.997Z</time></trkpt><trkpt lat="45.84079687017234" lon="12.248246951469689"><ele>67.0</ele><time>2026-04-25T04:02:45.997Z</time></trkpt><trkpt lat="45.84085975941699" lon="12.248208020763915"><ele>67.0</ele><time>2026-04-25T04:02:46.997Z</time></trkpt><trkpt lat="45.84091743586054" lon="12.248168995431847"><ele>67.16666666666666</ele><time>2026-04-25T04:02:47.997Z</time></trkpt><trkpt lat="45.840981329225336" lon="12.24812437086133"><ele>67.33333333333333</ele><time>2026-04-25T04:02:48.997Z</time></trkpt><trkpt lat="45.841044495096995" lon="12.248079648919324"><ele>67.5</ele><time>2026-04-25T04:02:49.997Z</time></trkpt><trkpt lat="45.8411029822279" lon="12.248037951421264"><ele>67.66666666666667</ele><time>2026-04-25T04:02:50.997Z</time></trkpt><trkpt lat="45.84116218188278" lon="12.247998176166345"><ele>67.83333333333334</ele><time>2026-04-25T04:02:51.997Z</time></trkpt><trkpt lat="45.84127227267258" lon="12.2479200880646"><ele>68.0</ele><time>2026-04-25T04:02:53.997Z</time></trkpt><trkpt lat="45.84133358748536" lon="12.247884224400606"><ele>67.99999999999999</ele><time>2026-04-25T04:02:54.997Z</time></trkpt><trkpt lat="45.84139018326234" lon="12.247841450110792"><ele>68.0</ele><time>2026-04-25T04:02:55.997Z</time></trkpt><trkpt lat="45.84144890460489" lon="12.247801663251566"><ele>68.0</ele><time>2026-04-25T04:02:56.997Z</time></trkpt><trkpt lat="45.84155747985686" lon="12.24772160840573"><ele>68.0</ele><time>2026-04-25T04:02:58.997Z</time></trkpt><trkpt lat="45.841616034001724" lon="12.247685005551896"><ele>68.0</ele><time>2026-04-25T04:02:59.997Z</time></trkpt><trkpt lat="45.84167703880228" lon="12.247647100415252"><ele>67.99999999999999</ele><time>2026-04-25T04:03:00.997Z</time></trkpt><trkpt lat="45.84173682364079" lon="12.247610646172982"><ele>68.0</ele><time>2026-04-25T04:03:01.997Z</time></trkpt><trkpt lat="45.84179793714634" lon="12.247566304811702"><ele>68.14285714285714</ele><time>2026-04-25T04:03:02.996Z</time></trkpt><trkpt lat="45.84185791377256" lon="12.247525771120099"><ele>68.28571428571428</ele><time>2026-04-25T04:03:03.996Z</time></trkpt><trkpt lat="45.841918211432976" lon="12.247483871010253"><ele>68.42857142857143</ele><time>2026-04-25T04:03:04.996Z</time></trkpt><trkpt lat="45.841979321828106" lon="12.247445212097933"><ele>68.57142857142857</ele><time>2026-04-25T04:03:05.996Z</time></trkpt><trkpt lat="45.842046646553165" lon="12.247405450367557"><ele>68.71428571428572</ele><time>2026-04-25T04:03:06.996Z</time></trkpt><trkpt lat="45.84210730170811" lon="12.247365215319608"><ele>68.85714285714286</ele><time>2026-04-25T04:03:07.996Z</time></trkpt><trkpt lat="45.84217116025258" lon="12.247323042143872"><ele>69.0</ele><time>2026-04-25T04:03:08.996Z</time></trkpt><trkpt lat="45.842229764152506" lon="12.247281542056712"><ele>69.0</ele><time>2026-04-25T04:03:09.996Z</time></trkpt><trkpt lat="45.84234280790897" lon="12.247198832157261"><ele>69.0</ele><time>2026-04-25T04:03:11.996Z</time></trkpt><trkpt lat="45.84240324145633" lon="12.247153601046803"><ele>69.0</ele><time>2026-04-25T04:03:12.996Z</time></trkpt><trkpt lat="45.84246795144135" lon="12.247108515871298"><ele>69.0</ele><time>2026-04-25T04:03:13.996Z</time></trkpt><trkpt lat="45.842534101333506" lon="12.247064694672234"><ele>69.0</ele><time>2026-04-25T04:03:14.996Z</time></trkpt><trkpt lat="45.84260312425647" lon="12.24702175519723"><ele>69.0</ele><time>2026-04-25T04:03:15.996Z</time></trkpt><trkpt lat="45.84266756156978" lon="12.246971942069731"><ele>69.14285714285714</ele><time>2026-04-25T04:03:16.996Z</time></trkpt><trkpt lat="45.84273078405" lon="12.246925982286715"><ele>69.28571428571429</ele><time>2026-04-25T04:03:17.996Z</time></trkpt><trkpt lat="45.842790844708496" lon="12.246882905146565"><ele>69.42857142857143</ele><time>2026-04-25T04:03:18.996Z</time></trkpt><trkpt lat="45.84285581055842" lon="12.246838524066819"><ele>69.57142857142857</ele><time>2026-04-25T04:03:19.996Z</time></trkpt><trkpt lat="45.84292039256125" lon="12.246798494005455"><ele>69.71428571428572</ele><time>2026-04-25T04:03:20.996Z</time></trkpt><trkpt lat="45.84298214931517" lon="12.246754168844902"><ele>69.85714285714286</ele><time>2026-04-25T04:03:21.996Z</time></trkpt><trkpt lat="45.84304626138622" lon="12.246705975670613"><ele>70.0</ele><time>2026-04-25T04:03:22.996Z</time></trkpt><trkpt lat="45.843111056511106" lon="12.246661055747925"><ele>70.0</ele><time>2026-04-25T04:03:23.996Z</time></trkpt><trkpt lat="45.84317641151875" lon="12.24661627919908"><ele>70.0</ele><time>2026-04-25T04:03:24.996Z</time></trkpt><trkpt lat="45.843243315608404" lon="12.246574451532302"><ele>70.0</ele><time>2026-04-25T04:03:25.996Z</time></trkpt><trkpt lat="45.84330519695299" lon="12.246532653600307"><ele>70.0</ele><time>2026-04-25T04:03:26.996Z</time></trkpt><trkpt lat="45.84336519654349" lon="12.246489378989647"><ele>70.0</ele><time>2026-04-25T04:03:27.996Z</time></trkpt><trkpt lat="45.84343007513967" lon="12.246440024526724"><ele>70.0</ele><time>2026-04-25T04:03:28.996Z</time></trkpt><trkpt lat="45.84349408089764" lon="12.246395350970982"><ele>70.0</ele><time>2026-04-25T04:03:29.996Z</time></trkpt><trkpt lat="45.84356173802223" lon="12.24634375107719"><ele>70.28571428571429</ele><time>2026-04-25T04:03:30.996Z</time></trkpt><trkpt lat="45.843632362522975" lon="12.246293623555621"><ele>70.57142857142857</ele><time>2026-04-25T04:03:31.996Z</time></trkpt><trkpt lat="45.84369636517604" lon="12.246248607043471"><ele>70.85714285714286</ele><time>2026-04-25T04:03:32.996Z</time></trkpt><trkpt lat="45.843763914227935" lon="12.246199381554417"><ele>71.14285714285714</ele><time>2026-04-25T04:03:33.996Z</time></trkpt><trkpt lat="45.843828410688694" lon="12.246158679666097"><ele>71.42857142857143</ele><time>2026-04-25T04:03:34.996Z</time></trkpt><trkpt lat="45.84389657625544" lon="12.246113569192845"><ele>71.71428571428572</ele><time>2026-04-25T04:03:35.996Z</time></trkpt><trkpt lat="45.84395973619811" lon="12.246065201452618"><ele>72.0</ele><time>2026-04-25T04:03:36.996Z</time></trkpt><trkpt lat="45.84402694510664" lon="12.246017905283828"><ele>72.00000000000001</ele><time>2026-04-25T04:03:37.996Z</time></trkpt><trkpt lat="45.8440940303614" lon="12.24597264139646"><ele>72.0</ele><time>2026-04-25T04:03:38.996Z</time></trkpt><trkpt lat="45.844158687986585" lon="12.245926180735289"><ele>72.0</ele><time>2026-04-25T04:03:39.996Z</time></trkpt><trkpt lat="45.84422342313288" lon="12.245876965640255"><ele>72.0</ele><time>2026-04-25T04:03:40.996Z</time></trkpt><trkpt lat="45.844289166960614" lon="12.245834695150483"><ele>72.0</ele><time>2026-04-25T04:03:41.996Z</time></trkpt><trkpt lat="45.84435900486993" lon="12.24578843155904"><ele>72.00000000000001</ele><time>2026-04-25T04:03:42.996Z</time></trkpt><trkpt lat="45.84442900545974" lon="12.2457425438005"><ele>72.0</ele><time>2026-04-25T04:03:43.996Z</time></trkpt><trkpt lat="45.84449434786607" lon="12.245700129605362"><ele>71.85714285714286</ele><time>2026-04-25T04:03:44.996Z</time></trkpt><trkpt lat="45.84455727287187" lon="12.24565489528945"><ele>71.71428571428572</ele><time>2026-04-25T04:03:45.996Z</time></trkpt><trkpt lat="45.84462487817576" lon="12.245609008035096"><ele>71.57142857142857</ele><time>2026-04-25T04:03:46.996Z</time></trkpt><trkpt lat="45.844688996722404" lon="12.24556500653706"><ele>71.42857142857143</ele><time>2026-04-25T04:03:47.996Z</time></trkpt><trkpt lat="45.84475512419702" lon="12.245521187965311"><ele>71.28571428571428</ele><time>2026-04-25T04:03:48.996Z</time></trkpt><trkpt lat="45.84481712364863" lon="12.245477206062224"><ele>71.14285714285714</ele><time>2026-04-25T04:03:49.996Z</time></trkpt><trkpt lat="45.84488623754174" lon="12.24543099282229"><ele>71.0</ele><time>2026-04-25T04:03:50.996Z</time></trkpt><trkpt lat="45.84495177330934" lon="12.245387659481054"><ele>71.28571428571428</ele><time>2026-04-25T04:03:51.996Z</time></trkpt><trkpt lat="45.84501712691215" lon="12.245343446621522"><ele>71.57142857142857</ele><time>2026-04-25T04:03:52.996Z</time></trkpt><trkpt lat="45.84507535428669" lon="12.245303518770125"><ele>71.85714285714286</ele><time>2026-04-25T04:03:53.996Z</time></trkpt><trkpt lat="45.84514248308484" lon="12.24526043322359"><ele>72.14285714285714</ele><time>2026-04-25T04:03:54.996Z</time></trkpt><trkpt lat="45.84520473524392" lon="12.245218730962943"><ele>72.42857142857143</ele><time>2026-04-25T04:03:55.996Z</time></trkpt><trkpt lat="45.845267421884145" lon="12.245172189830914"><ele>72.71428571428571</ele><time>2026-04-25T04:03:56.996Z</time></trkpt><trkpt lat="45.845327499269196" lon="12.245130419129701"><ele>73.0</ele><time>2026-04-25T04:03:57.996Z</time></trkpt><trkpt lat="45.84539145188474" lon="12.24509018452699"><ele>73.5</ele><time>2026-04-25T04:03:58.996Z</time></trkpt><trkpt lat="45.84545230112009" lon="12.245053251027377"><ele>74.0</ele><time>2026-04-25T04:03:59.996Z</time></trkpt><trkpt lat="45.84551103453901" lon="12.245017813975219"><ele>74.5</ele><time>2026-04-25T04:04:00.996Z</time></trkpt><trkpt lat="45.84557114604451" lon="12.24498122137588"><ele>75.0</ele><time>2026-04-25T04:04:01.996Z</time></trkpt><trkpt lat="45.84568941110032" lon="12.24490628865403"><ele>75.5</ele><time>2026-04-25T04:04:03.996Z</time></trkpt><trkpt lat="45.84579861597122" lon="12.244838417882903"><ele>76.0</ele><time>2026-04-25T04:04:05.996Z</time></trkpt><trkpt lat="45.84588064639815" lon="12.244755528359947"><ele>76.0</ele><time>2026-04-25T04:04:07.996Z</time></trkpt><trkpt lat="45.84588854138907" lon="12.244628322785205"><ele>76.0</ele><time>2026-04-25T04:04:09.996Z</time></trkpt><trkpt lat="45.84578972506758" lon="12.24456468751442"><ele>76.0</ele><time>2026-04-25T04:04:11.995Z</time></trkpt><trkpt lat="45.84567090804248" lon="12.24454958423886"><ele>76.0</ele><time>2026-04-25T04:04:13.995Z</time></trkpt><trkpt lat="45.845546935402396" lon="12.2445179357264"><ele>76.0</ele><time>2026-04-25T04:04:15.995Z</time></trkpt><trkpt lat="45.84548189842951" lon="12.244500377316662"><ele>76.0</ele><time>2026-04-25T04:04:16.995Z</time></trkpt><trkpt lat="45.845378439629805" lon="12.24445005182736"><ele>76.0</ele><time>2026-04-25T04:04:18.995Z</time></trkpt><trkpt lat="45.84530854946908" lon="12.244343401482237"><ele>76.0</ele><time>2026-04-25T04:04:20.995Z</time></trkpt><trkpt lat="45.84522220891592" lon="12.244312984103662"><ele>76.0</ele><time>2026-04-25T04:04:22.995Z</time></trkpt><trkpt lat="45.845155233563084" lon="12.244313770266977"><ele>76.0</ele><time>2026-04-25T04:04:23.995Z</time></trkpt><trkpt lat="45.845087267185406" lon="12.244295245796756"><ele>76.0</ele><time>2026-04-25T04:04:24.995Z</time></trkpt><trkpt lat="45.845021389502456" lon="12.244277542997917"><ele>75.66666666666666</ele><time>2026-04-25T04:04:25.995Z</time></trkpt><trkpt lat="45.84494569807578" lon="12.244251668744365"><ele>75.33333333333333</ele><time>2026-04-25T04:04:26.995Z</time></trkpt><trkpt lat="45.84487219517242" lon="12.244234705706239"><ele>75.0</ele><time>2026-04-25T04:04:27.995Z</time></trkpt><trkpt lat="45.8447959291512" lon="12.244214763934487"><ele>74.66666666666667</ele><time>2026-04-25T04:04:28.995Z</time></trkpt><trkpt lat="45.84472508019354" lon="12.244195445598915"><ele>74.33333333333334</ele><time>2026-04-25T04:04:29.995Z</time></trkpt><trkpt lat="45.844649366462626" lon="12.244171375375654"><ele>74.0</ele><time>2026-04-25T04:04:30.995Z</time></trkpt><trkpt lat="45.844568117619346" lon="12.244147752560261"><ele>74.0</ele><time>2026-04-25T04:04:31.995Z</time></trkpt><trkpt lat="45.84449386824628" lon="12.244129241236656"><ele>74.0</ele><time>2026-04-25T04:04:32.995Z</time></trkpt><trkpt lat="45.84441260079221" lon="12.24410010255383"><ele>74.0</ele><time>2026-04-25T04:04:33.995Z</time></trkpt><trkpt lat="45.844338289266815" lon="12.244078745319008"><ele>74.0</ele><time>2026-04-25T04:04:34.995Z</time></trkpt><trkpt lat="45.84425456479294" lon="12.244053061095704"><ele>74.0</ele><time>2026-04-25T04:04:35.995Z</time></trkpt><trkpt lat="45.84417938920689" lon="12.244033336298122"><ele>74.0</ele><time>2026-04-25T04:04:36.995Z</time></trkpt><trkpt lat="45.84410301918199" lon="12.244011149551092"><ele>73.66666666666667</ele><time>2026-04-25T04:04:37.995Z</time></trkpt><trkpt lat="45.84402003934216" lon="12.243985788152385"><ele>73.33333333333334</ele><time>2026-04-25T04:04:38.995Z</time></trkpt><trkpt lat="45.84393334673239" lon="12.243958027360657"><ele>73.0</ele><time>2026-04-25T04:04:39.995Z</time></trkpt><trkpt lat="45.84385915829724" lon="12.243936820598297"><ele>72.66666666666667</ele><time>2026-04-25T04:04:40.995Z</time></trkpt><trkpt lat="45.843779962458335" lon="12.243917380563502"><ele>72.33333333333333</ele><time>2026-04-25T04:04:41.995Z</time></trkpt><trkpt lat="45.84370750435549" lon="12.243897314213598"><ele>72.0</ele><time>2026-04-25T04:04:42.995Z</time></trkpt><trkpt lat="45.84362623325841" lon="12.243875018344774"><ele>71.66666666666667</ele><time>2026-04-25T04:04:43.995Z</time></trkpt><trkpt lat="45.843549913453465" lon="12.243857395738903"><ele>71.33333333333333</ele><time>2026-04-25T04:04:44.995Z</time></trkpt><trkpt lat="45.84346781042972" lon="12.243831833009887"><ele>71.0</ele><time>2026-04-25T04:04:45.995Z</time></trkpt><trkpt lat="45.8433880508947" lon="12.243807365711419"><ele>70.66666666666666</ele><time>2026-04-25T04:04:46.995Z</time></trkpt><trkpt lat="45.843303592102885" lon="12.243781553114552"><ele>70.33333333333333</ele><time>2026-04-25T04:04:47.995Z</time></trkpt><trkpt lat="45.84322106125352" lon="12.243758805128268"><ele>70.0</ele><time>2026-04-25T04:04:48.995Z</time></trkpt><trkpt lat="45.843138860229175" lon="12.24373707044731"><ele>70.0</ele><time>2026-04-25T04:04:49.995Z</time></trkpt><trkpt lat="45.843061200827734" lon="12.24371575683853"><ele>70.0</ele><time>2026-04-25T04:04:50.995Z</time></trkpt><trkpt lat="45.84297822383032" lon="12.24368912023558"><ele>70.0</ele><time>2026-04-25T04:04:51.995Z</time></trkpt><trkpt lat="45.84281746513864" lon="12.243645334792355"><ele>70.0</ele><time>2026-04-25T04:04:53.995Z</time></trkpt><trkpt lat="45.842737892620235" lon="12.24362693750423"><ele>70.0</ele><time>2026-04-25T04:04:54.995Z</time></trkpt><trkpt lat="45.84265694857991" lon="12.243598313749217"><ele>70.16666666666666</ele><time>2026-04-25T04:04:55.995Z</time></trkpt><trkpt lat="45.84257692160699" lon="12.243575647601665"><ele>70.33333333333333</ele><time>2026-04-25T04:04:56.995Z</time></trkpt><trkpt lat="45.842498759231994" lon="12.243554467726815"><ele>70.5</ele><time>2026-04-25T04:04:57.995Z</time></trkpt><trkpt lat="45.842418408941676" lon="12.243529541197558"><ele>70.66666666666667</ele><time>2026-04-25T04:04:58.995Z</time></trkpt><trkpt lat="45.84234043172752" lon="12.243506277060947"><ele>70.83333333333334</ele><time>2026-04-25T04:04:59.995Z</time></trkpt><trkpt lat="45.84225861671385" lon="12.243482441044568"><ele>71.0</ele><time>2026-04-25T04:05:00.995Z</time></trkpt><trkpt lat="45.8421816438713" lon="12.243457599836205"><ele>71.0</ele><time>2026-04-25T04:05:01.995Z</time></trkpt><trkpt lat="45.84210395863051" lon="12.243430377636919"><ele>71.0</ele><time>2026-04-25T04:05:02.995Z</time></trkpt><trkpt lat="45.84203071126675" lon="12.24341318583034"><ele>71.0</ele><time>2026-04-25T04:05:03.995Z</time></trkpt><trkpt lat="45.841951346613406" lon="12.243391362036595"><ele>71.0</ele><time>2026-04-25T04:05:04.995Z</time></trkpt><trkpt lat="45.84187775526335" lon="12.243372231341434"><ele>71.0</ele><time>2026-04-25T04:05:05.995Z</time></trkpt><trkpt lat="45.84180598085395" lon="12.243346827156254"><ele>71.0</ele><time>2026-04-25T04:05:06.995Z</time></trkpt><trkpt lat="45.841726259757785" lon="12.243330184622922"><ele>71.33333333333334</ele><time>2026-04-25T04:05:07.995Z</time></trkpt><trkpt lat="45.841646193027536" lon="12.243317003245663"><ele>71.66666666666667</ele><time>2026-04-25T04:05:08.995Z</time></trkpt><trkpt lat="45.84155835222905" lon="12.243296332768706"><ele>72.0</ele><time>2026-04-25T04:05:09.995Z</time></trkpt><trkpt lat="45.84147844921334" lon="12.243264305400656"><ele>72.33333333333333</ele><time>2026-04-25T04:05:10.995Z</time></trkpt><trkpt lat="45.841394577363324" lon="12.243223092601927"><ele>72.66666666666666</ele><time>2026-04-25T04:05:11.995Z</time></trkpt><trkpt lat="45.841318795223316" lon="12.243168867726714"><ele>73.0</ele><time>2026-04-25T04:05:12.995Z</time></trkpt><trkpt lat="45.841244860356355" lon="12.243106603346547"><ele>73.16666666666666</ele><time>2026-04-25T04:05:13.995Z</time></trkpt><trkpt lat="45.84117395933017" lon="12.24304580159717"><ele>73.33333333333333</ele><time>2026-04-25T04:05:14.995Z</time></trkpt><trkpt lat="45.841107239714674" lon="12.242976920102848"><ele>73.5</ele><time>2026-04-25T04:05:15.995Z</time></trkpt><trkpt lat="45.84103958600783" lon="12.242903470012813"><ele>73.66666666666667</ele><time>2026-04-25T04:05:16.995Z</time></trkpt><trkpt lat="45.84097685927278" lon="12.242830594987353"><ele>73.83333333333334</ele><time>2026-04-25T04:05:17.995Z</time></trkpt><trkpt lat="45.840916871555315" lon="12.242756184282037"><ele>74.0</ele><time>2026-04-25T04:05:18.995Z</time></trkpt><trkpt lat="45.84086349880685" lon="12.2426836967738"><ele>73.66666666666667</ele><time>2026-04-25T04:05:19.994Z</time></trkpt><trkpt lat="45.840814919006476" lon="12.242606149276147"><ele>73.33333333333334</ele><time>2026-04-25T04:05:20.994Z</time></trkpt><trkpt lat="45.84076304801668" lon="12.24252541781868"><ele>73.0</ele><time>2026-04-25T04:05:21.994Z</time></trkpt><trkpt lat="45.84070717338465" lon="12.242445280154852"><ele>72.66666666666667</ele><time>2026-04-25T04:05:22.994Z</time></trkpt><trkpt lat="45.84065132516052" lon="12.242365571106426"><ele>72.33333333333333</ele><time>2026-04-25T04:05:23.994Z</time></trkpt><trkpt lat="45.84059937030205" lon="12.242294055257506"><ele>72.0</ele><time>2026-04-25T04:05:24.994Z</time></trkpt><trkpt lat="45.840542082568994" lon="12.242215234084886"><ele>72.00000000000001</ele><time>2026-04-25T04:05:25.994Z</time></trkpt><trkpt lat="45.84048902896658" lon="12.242143742610693"><ele>72.0</ele><time>2026-04-25T04:05:26.994Z</time></trkpt><trkpt lat="45.84043655088199" lon="12.242071760138716"><ele>72.0</ele><time>2026-04-25T04:05:27.994Z</time></trkpt><trkpt lat="45.84038394588907" lon="12.241998453037185"><ele>72.0</ele><time>2026-04-25T04:05:28.994Z</time></trkpt><trkpt lat="45.840339689045074" lon="12.241932544266236"><ele>72.0</ele><time>2026-04-25T04:05:29.994Z</time></trkpt><trkpt lat="45.84027175639117" lon="12.241873458843516"><ele>72.00000000000001</ele><time>2026-04-25T04:05:30.994Z</time></trkpt><trkpt lat="45.84021373448572" lon="12.241820483739353"><ele>72.0</ele><time>2026-04-25T04:05:31.994Z</time></trkpt><trkpt lat="45.84016549226548" lon="12.241756104966049"><ele>72.5</ele><time>2026-04-25T04:05:32.994Z</time></trkpt><trkpt lat="45.84011626897057" lon="12.241673139493344"><ele>73.0</ele><time>2026-04-25T04:05:33.994Z</time></trkpt><trkpt lat="45.84006279365983" lon="12.241591279389255"><ele>73.5</ele><time>2026-04-25T04:05:34.994Z</time></trkpt><trkpt lat="45.84001674359997" lon="12.241501291936142"><ele>74.0</ele><time>2026-04-25T04:05:35.994Z</time></trkpt><trkpt lat="45.839966343613476" lon="12.24141021105735"><ele>74.5</ele><time>2026-04-25T04:05:36.994Z</time></trkpt><trkpt lat="45.8399231101816" lon="12.241318652269001"><ele>75.0</ele><time>2026-04-25T04:05:37.994Z</time></trkpt><trkpt lat="45.83988275555436" lon="12.241219520827732"><ele>75.0</ele><time>2026-04-25T04:05:38.994Z</time></trkpt><trkpt lat="45.8398475407242" lon="12.241119207962631"><ele>75.0</ele><time>2026-04-25T04:05:39.994Z</time></trkpt><trkpt lat="45.83981321540846" lon="12.241017138597805"><ele>75.0</ele><time>2026-04-25T04:05:40.994Z</time></trkpt><trkpt lat="45.83977350836684" lon="12.240916203748498"><ele>75.0</ele><time>2026-04-25T04:05:41.994Z</time></trkpt><trkpt lat="45.839736963231374" lon="12.240812121651178"><ele>75.0</ele><time>2026-04-25T04:05:42.994Z</time></trkpt><trkpt lat="45.83969771114602" lon="12.2407154964727"><ele>75.0</ele><time>2026-04-25T04:05:43.994Z</time></trkpt><trkpt lat="45.83965928209965" lon="12.24061398238889"><ele>74.83333333333333</ele><time>2026-04-25T04:05:44.994Z</time></trkpt><trkpt lat="45.83962629047864" lon="12.240504986386687"><ele>74.66666666666667</ele><time>2026-04-25T04:05:45.994Z</time></trkpt><trkpt lat="45.839590680861406" lon="12.240398475001202"><ele>74.5</ele><time>2026-04-25T04:05:46.994Z</time></trkpt><trkpt lat="45.839552761082274" lon="12.240290897224897"><ele>74.33333333333334</ele><time>2026-04-25T04:05:47.994Z</time></trkpt><trkpt lat="45.839514729744025" lon="12.240183241324043"><ele>74.16666666666667</ele><time>2026-04-25T04:05:48.994Z</time></trkpt><trkpt lat="45.83947772091448" lon="12.240076009839784"><ele>74.0</ele><time>2026-04-25T04:05:49.994Z</time></trkpt><trkpt lat="45.83944258962848" lon="12.239970028112767"><ele>74.0</ele><time>2026-04-25T04:05:50.994Z</time></trkpt><trkpt lat="45.839403678604235" lon="12.239861125321534"><ele>74.0</ele><time>2026-04-25T04:05:51.994Z</time></trkpt><trkpt lat="45.8393640071363" lon="12.239758659286492"><ele>74.0</ele><time>2026-04-25T04:05:52.994Z</time></trkpt><trkpt lat="45.839330804035285" lon="12.239651359292498"><ele>74.0</ele><time>2026-04-25T04:05:53.994Z</time></trkpt><trkpt lat="45.83929507411614" lon="12.239542074204987"><ele>74.0</ele><time>2026-04-25T04:05:54.994Z</time></trkpt><trkpt lat="45.83925774522821" lon="12.239425733214356"><ele>74.0</ele><time>2026-04-25T04:05:55.994Z</time></trkpt><trkpt lat="45.83922115959398" lon="12.239320336829504"><ele>74.0</ele><time>2026-04-25T04:05:56.994Z</time></trkpt><trkpt lat="45.839179681491345" lon="12.239224382548164"><ele>74.0</ele><time>2026-04-25T04:05:57.994Z</time></trkpt><trkpt lat="45.839143395962935" lon="12.239130077245157"><ele>74.0</ele><time>2026-04-25T04:05:58.994Z</time></trkpt><trkpt lat="45.83910791340404" lon="12.23903137872761"><ele>74.0</ele><time>2026-04-25T04:05:59.994Z</time></trkpt><trkpt lat="45.83907328375684" lon="12.238926494351643"><ele>74.0</ele><time>2026-04-25T04:06:00.994Z</time></trkpt><trkpt lat="45.83903881823171" lon="12.238815103304141"><ele>74.0</ele><time>2026-04-25T04:06:01.994Z</time></trkpt><trkpt lat="45.8389978300188" lon="12.238709760638155"><ele>74.16666666666667</ele><time>2026-04-25T04:06:02.994Z</time></trkpt><trkpt lat="45.8389611048561" lon="12.238602825942106"><ele>74.33333333333334</ele><time>2026-04-25T04:06:03.994Z</time></trkpt><trkpt lat="45.83892390950879" lon="12.23850076053662"><ele>74.5</ele><time>2026-04-25T04:06:04.994Z</time></trkpt><trkpt lat="45.83888694071344" lon="12.238400100161568"><ele>74.66666666666667</ele><time>2026-04-25T04:06:05.994Z</time></trkpt><trkpt lat="45.83884757864528" lon="12.238294091762222"><ele>74.83333333333333</ele><time>2026-04-25T04:06:06.994Z</time></trkpt><trkpt lat="45.83881289684534" lon="12.23819425533633"><ele>75.0</ele><time>2026-04-25T04:06:07.994Z</time></trkpt><trkpt lat="45.83877731036411" lon="12.238097653067248"><ele>74.66666666666667</ele><time>2026-04-25T04:06:08.994Z</time></trkpt><trkpt lat="45.83874458637565" lon="12.237993067992521"><ele>74.33333333333333</ele><time>2026-04-25T04:06:09.994Z</time></trkpt><trkpt lat="45.83870928799955" lon="12.23789146692425"><ele>74.0</ele><time>2026-04-25T04:06:10.994Z</time></trkpt><trkpt lat="45.83867201730096" lon="12.237792824715926"><ele>73.66666666666666</ele><time>2026-04-25T04:06:11.994Z</time></trkpt><trkpt lat="45.838637211000965" lon="12.2376888264137"><ele>73.33333333333333</ele><time>2026-04-25T04:06:12.994Z</time></trkpt><trkpt lat="45.83860694730624" lon="12.237581146564267"><ele>73.0</ele><time>2026-04-25T04:06:13.994Z</time></trkpt><trkpt lat="45.838574445370675" lon="12.237481272047342"><ele>73.0</ele><time>2026-04-25T04:06:14.994Z</time></trkpt><trkpt lat="45.83854151001155" lon="12.237387800869586"><ele>73.0</ele><time>2026-04-25T04:06:15.994Z</time></trkpt><trkpt lat="45.83850601176701" lon="12.237290022446368"><ele>73.0</ele><time>2026-04-25T04:06:16.994Z</time></trkpt><trkpt lat="45.83847169560162" lon="12.23719363296958"><ele>73.0</ele><time>2026-04-25T04:06:17.994Z</time></trkpt><trkpt lat="45.838432158875065" lon="12.237098952026878"><ele>73.0</ele><time>2026-04-25T04:06:18.994Z</time></trkpt><trkpt lat="45.83839367333151" lon="12.23699460417701"><ele>73.0</ele><time>2026-04-25T04:06:19.994Z</time></trkpt><trkpt lat="45.838361098246345" lon="12.236897077957158"><ele>72.83333333333333</ele><time>2026-04-25T04:06:20.994Z</time></trkpt><trkpt lat="45.83832650447888" lon="12.23679546556448"><ele>72.66666666666666</ele><time>2026-04-25T04:06:21.994Z</time></trkpt><trkpt lat="45.838294679328435" lon="12.236694425971173"><ele>72.5</ele><time>2026-04-25T04:06:22.994Z</time></trkpt><trkpt lat="45.83825696491276" lon="12.236594008133027"><ele>72.33333333333333</ele><time>2026-04-25T04:06:23.994Z</time></trkpt><trkpt lat="45.83822282334935" lon="12.236497992154456"><ele>72.16666666666667</ele><time>2026-04-25T04:06:24.994Z</time></trkpt><trkpt lat="45.838186680876476" lon="12.23640146288992"><ele>72.0</ele><time>2026-04-25T04:06:25.994Z</time></trkpt><trkpt lat="45.838148849231416" lon="12.23630110161967"><ele>72.5</ele><time>2026-04-25T04:06:26.994Z</time></trkpt><trkpt lat="45.83811108061331" lon="12.236210220731156"><ele>73.0</ele><time>2026-04-25T04:06:27.993Z</time></trkpt><trkpt lat="45.8380714382984" lon="12.236112420137674"><ele>73.5</ele><time>2026-04-25T04:06:28.993Z</time></trkpt><trkpt lat="45.838033492866955" lon="12.236015715107738"><ele>74.0</ele><time>2026-04-25T04:06:29.993Z</time></trkpt><trkpt lat="45.83799155074059" lon="12.23592291897597"><ele>74.5</ele><time>2026-04-25T04:06:30.993Z</time></trkpt><trkpt lat="45.837951065271994" lon="12.23582840296528"><ele>75.0</ele><time>2026-04-25T04:06:31.993Z</time></trkpt><trkpt lat="45.8379105879189" lon="12.235734440321473"><ele>75.0</ele><time>2026-04-25T04:06:32.993Z</time></trkpt><trkpt lat="45.83787101420529" lon="12.235642146782592"><ele>75.0</ele><time>2026-04-25T04:06:33.993Z</time></trkpt><trkpt lat="45.83783500043957" lon="12.235555157049943"><ele>75.0</ele><time>2026-04-25T04:06:34.993Z</time></trkpt><trkpt lat="45.8377889182131" lon="12.235457575930795"><ele>75.0</ele><time>2026-04-25T04:06:35.993Z</time></trkpt><trkpt lat="45.83775104871921" lon="12.23536119273012"><ele>75.0</ele><time>2026-04-25T04:06:36.993Z</time></trkpt><trkpt lat="45.83770883625832" lon="12.235270214664329"><ele>75.0</ele><time>2026-04-25T04:06:37.993Z</time></trkpt><trkpt lat="45.837669313035335" lon="12.235176717021861"><ele>75.0</ele><time>2026-04-25T04:06:38.993Z</time></trkpt><trkpt lat="45.837629168394635" lon="12.235086041351616"><ele>75.0</ele><time>2026-04-25T04:06:39.993Z</time></trkpt><trkpt lat="45.837585632967134" lon="12.234993542127274"><ele>75.0</ele><time>2026-04-25T04:06:40.993Z</time></trkpt><trkpt lat="45.83754439695949" lon="12.234896912661116"><ele>75.0</ele><time>2026-04-25T04:06:41.993Z</time></trkpt><trkpt lat="45.83749847581165" lon="12.234799574380894"><ele>75.0</ele><time>2026-04-25T04:06:42.993Z</time></trkpt><trkpt lat="45.83745694383029" lon="12.234704134497086"><ele>75.0</ele><time>2026-04-25T04:06:43.993Z</time></trkpt><trkpt lat="45.83741749484118" lon="12.23461057975482"><ele>75.16666666666667</ele><time>2026-04-25T04:06:44.993Z</time></trkpt><trkpt lat="45.837378165831076" lon="12.23451661263285"><ele>75.33333333333333</ele><time>2026-04-25T04:06:45.993Z</time></trkpt><trkpt lat="45.837339828564005" lon="12.234430555201467"><ele>75.5</ele><time>2026-04-25T04:06:46.993Z</time></trkpt><trkpt lat="45.837301010721774" lon="12.23434286532088"><ele>75.66666666666666</ele><time>2026-04-25T04:06:47.993Z</time></trkpt><trkpt lat="45.83726513809145" lon="12.234266984267288"><ele>75.83333333333333</ele><time>2026-04-25T04:06:48.993Z</time></trkpt><trkpt lat="45.837233966950684" lon="12.234118204432837"><ele>76.0</ele><time>2026-04-25T04:06:50.993Z</time></trkpt><trkpt lat="45.83730669566931" lon="12.234010984509183"><ele>76.0</ele><time>2026-04-25T04:06:52.993Z</time></trkpt><trkpt lat="45.83736693001773" lon="12.233974174145338"><ele>76.0</ele><time>2026-04-25T04:06:53.993Z</time></trkpt><trkpt lat="45.83742661622999" lon="12.23392131967811"><ele>76.0</ele><time>2026-04-25T04:06:54.993Z</time></trkpt><trkpt lat="45.83754773606827" lon="12.23382372110173"><ele>76.0</ele><time>2026-04-25T04:06:56.993Z</time></trkpt><trkpt lat="45.83761469756591" lon="12.233764887046188"><ele>76.0</ele><time>2026-04-25T04:06:57.993Z</time></trkpt><trkpt lat="45.837679234273274" lon="12.233701878352807"><ele>76.0</ele><time>2026-04-25T04:06:58.993Z</time></trkpt><trkpt lat="45.83773528385863" lon="12.233639875289661"><ele>76.71428571428571</ele><time>2026-04-25T04:06:59.993Z</time></trkpt><trkpt lat="45.83778978617072" lon="12.233585258677529"><ele>77.42857142857143</ele><time>2026-04-25T04:07:00.993Z</time></trkpt><trkpt lat="45.83784744387082" lon="12.233523283353682"><ele>78.14285714285714</ele><time>2026-04-25T04:07:01.993Z</time></trkpt><trkpt lat="45.837909513524025" lon="12.233463382726333"><ele>78.85714285714286</ele><time>2026-04-25T04:07:02.993Z</time></trkpt><trkpt lat="45.83796939118866" lon="12.233402246325143"><ele>79.57142857142857</ele><time>2026-04-25T04:07:03.993Z</time></trkpt><trkpt lat="45.83802820965622" lon="12.23333714473405"><ele>80.28571428571429</ele><time>2026-04-25T04:07:04.993Z</time></trkpt><trkpt lat="45.8380844828612" lon="12.233270270946626"><ele>81.0</ele><time>2026-04-25T04:07:05.993Z</time></trkpt><trkpt lat="45.838139535346585" lon="12.233206580764605"><ele>81.0</ele><time>2026-04-25T04:07:06.993Z</time></trkpt><trkpt lat="45.83819544519056" lon="12.233128946773814"><ele>81.0</ele><time>2026-04-25T04:07:07.993Z</time></trkpt><trkpt lat="45.8382436209248" lon="12.233053884119698"><ele>81.0</ele><time>2026-04-25T04:07:08.993Z</time></trkpt><trkpt lat="45.838297227350054" lon="12.232977507249439"><ele>81.0</ele><time>2026-04-25T04:07:09.993Z</time></trkpt><trkpt lat="45.83835212518663" lon="12.232911312204683"><ele>81.0</ele><time>2026-04-25T04:07:10.993Z</time></trkpt><trkpt lat="45.83841030876118" lon="12.23283921190163"><ele>81.0</ele><time>2026-04-25T04:07:11.993Z</time></trkpt><trkpt lat="45.83845310267079" lon="12.232772016347987"><ele>81.0</ele><time>2026-04-25T04:07:12.993Z</time></trkpt><trkpt lat="45.83849597578649" lon="12.232693925335763"><ele>81.0</ele><time>2026-04-25T04:07:13.993Z</time></trkpt><trkpt lat="45.83853261763042" lon="12.23261768321769"><ele>81.0</ele><time>2026-04-25T04:07:14.993Z</time></trkpt><trkpt lat="45.83856503602361" lon="12.232533212226622"><ele>81.0</ele><time>2026-04-25T04:07:15.993Z</time></trkpt><trkpt lat="45.83859321081883" lon="12.232446896827794"><ele>81.0</ele><time>2026-04-25T04:07:16.993Z</time></trkpt><trkpt lat="45.83861821312158" lon="12.232357220838391"><ele>81.0</ele><time>2026-04-25T04:07:17.993Z</time></trkpt><trkpt lat="45.838682753575426" lon="12.232207536182226"><ele>81.0</ele><time>2026-04-25T04:07:19.993Z</time></trkpt><trkpt lat="45.83874367043372" lon="12.232059806937066"><ele>81.6</ele><time>2026-04-25T04:07:21.993Z</time></trkpt><trkpt lat="45.838799359191334" lon="12.231916357082874"><ele>82.19999999999999</ele><time>2026-04-25T04:07:23.993Z</time></trkpt><trkpt lat="45.83884799684286" lon="12.231783900788091"><ele>82.80000000000001</ele><time>2026-04-25T04:07:25.993Z</time></trkpt><trkpt lat="45.83889877396208" lon="12.231652204068007"><ele>83.4</ele><time>2026-04-25T04:07:27.993Z</time></trkpt><trkpt lat="45.83897716446564" lon="12.231549142546086"><ele>84.0</ele><time>2026-04-25T04:07:29.993Z</time></trkpt><trkpt lat="45.83907091785502" lon="12.231496000526326"><ele>84.6</ele><time>2026-04-25T04:07:31.993Z</time></trkpt><trkpt lat="45.83917279081942" lon="12.231429286310977"><ele>85.2</ele><time>2026-04-25T04:07:33.993Z</time></trkpt><trkpt lat="45.839277072768546" lon="12.231366648916584"><ele>85.8</ele><time>2026-04-25T04:07:35.993Z</time></trkpt><trkpt lat="45.83937157632102" lon="12.231301671820344"><ele>86.39999999999999</ele><time>2026-04-25T04:07:37.992Z</time></trkpt><trkpt lat="45.83946395979917" lon="12.231242004762413"><ele>87.0</ele><time>2026-04-25T04:07:39.992Z</time></trkpt><trkpt lat="45.83955643376677" lon="12.231181515632661"><ele>87.6</ele><time>2026-04-25T04:07:41.992Z</time></trkpt><trkpt lat="45.83964912826577" lon="12.231127010466617"><ele>88.19999999999999</ele><time>2026-04-25T04:07:43.992Z</time></trkpt><trkpt lat="45.839731877904356" lon="12.231074943232317"><ele>88.8</ele><time>2026-04-25T04:07:45.992Z</time></trkpt><trkpt lat="45.839818438876016" lon="12.231022178592497"><ele>89.4</ele><time>2026-04-25T04:07:47.992Z</time></trkpt><trkpt lat="45.8399032064471" lon="12.230972820631452"><ele>90.0</ele><time>2026-04-25T04:07:49.992Z</time></trkpt><trkpt lat="45.839982653019305" lon="12.230914544386568"><ele>90.0</ele><time>2026-04-25T04:07:51.992Z</time></trkpt><trkpt lat="45.84006626060408" lon="12.230863537194848"><ele>90.0</ele><time>2026-04-25T04:07:53.992Z</time></trkpt><trkpt lat="45.84015227199751" lon="12.230807436730379"><ele>90.0</ele><time>2026-04-25T04:07:55.992Z</time></trkpt><trkpt lat="45.8402374794485" lon="12.230754662971394"><ele>90.0</ele><time>2026-04-25T04:07:57.992Z</time></trkpt><trkpt lat="45.84032356844333" lon="12.23069561313258"><ele>90.0</ele><time>2026-04-25T04:07:59.992Z</time></trkpt><trkpt lat="45.84042320749025" lon="12.230634489233939"><ele>90.6</ele><time>2026-04-25T04:08:01.992Z</time></trkpt><trkpt lat="45.840517681878076" lon="12.23056462413544"><ele>91.2</ele><time>2026-04-25T04:08:03.992Z</time></trkpt><trkpt lat="45.840608011286314" lon="12.230497801738503"><ele>91.80000000000001</ele><time>2026-04-25T04:08:05.992Z</time></trkpt><trkpt lat="45.84070905145011" lon="12.230450872139027"><ele>92.4</ele><time>2026-04-25T04:08:07.992Z</time></trkpt><trkpt lat="45.84080693018771" lon="12.23046786572064"><ele>93.0</ele><time>2026-04-25T04:08:09.992Z</time></trkpt><trkpt lat="45.84088648608444" lon="12.230592862737353"><ele>92.83333333333333</ele><time>2026-04-25T04:08:11.992Z</time></trkpt><trkpt lat="45.84097880145793" lon="12.230679284552876"><ele>92.66666666666667</ele><time>2026-04-25T04:08:13.992Z</time></trkpt><trkpt lat="45.841088125198965" lon="12.2306549704332"><ele>92.5</ele><time>2026-04-25T04:08:15.992Z</time></trkpt><trkpt lat="45.841142426236075" lon="12.230580839378511"><ele>92.33333333333334</ele><time>2026-04-25T04:08:16.992Z</time></trkpt><trkpt lat="45.841188424800585" lon="12.230510914071044"><ele>92.16666666666667</ele><time>2026-04-25T04:08:17.992Z</time></trkpt><trkpt lat="45.841233772058374" lon="12.230439385516354"><ele>92.0</ele><time>2026-04-25T04:08:18.992Z</time></trkpt><trkpt lat="45.84128691109836" lon="12.23036870337878"><ele>92.33333333333334</ele><time>2026-04-25T04:08:19.992Z</time></trkpt><trkpt lat="45.84134599866295" lon="12.230306242564495"><ele>92.66666666666667</ele><time>2026-04-25T04:08:20.992Z</time></trkpt><trkpt lat="45.84141989135627" lon="12.230262606461876"><ele>93.0</ele><time>2026-04-25T04:08:21.992Z</time></trkpt><trkpt lat="45.841494010279916" lon="12.230236631442635"><ele>93.33333333333333</ele><time>2026-04-25T04:08:22.992Z</time></trkpt><trkpt lat="45.84157645871247" lon="12.230236607886063"><ele>93.66666666666666</ele><time>2026-04-25T04:08:23.992Z</time></trkpt><trkpt lat="45.84165175519569" lon="12.23024608224797"><ele>94.0</ele><time>2026-04-25T04:08:24.992Z</time></trkpt><trkpt lat="45.84173319243993" lon="12.23027284106495"><ele>93.83333333333333</ele><time>2026-04-25T04:08:25.992Z</time></trkpt><trkpt lat="45.84181440617389" lon="12.23029349357415"><ele>93.66666666666666</ele><time>2026-04-25T04:08:26.992Z</time></trkpt><trkpt lat="45.84189632835926" lon="12.230311594148823"><ele>93.5</ele><time>2026-04-25T04:08:27.992Z</time></trkpt><trkpt lat="45.84197705346627" lon="12.230330672006684"><ele>93.33333333333333</ele><time>2026-04-25T04:08:28.992Z</time></trkpt><trkpt lat="45.84205692608954" lon="12.230353161637453"><ele>93.16666666666667</ele><time>2026-04-25T04:08:29.992Z</time></trkpt><trkpt lat="45.84213174540155" lon="12.230386654317888"><ele>93.0</ele><time>2026-04-25T04:08:30.992Z</time></trkpt><trkpt lat="45.842196559703666" lon="12.230425693304571"><ele>93.0</ele><time>2026-04-25T04:08:31.992Z</time></trkpt><trkpt lat="45.84230382719756" lon="12.23044695183386"><ele>93.0</ele><time>2026-04-25T04:08:33.992Z</time></trkpt><trkpt lat="45.84235495616641" lon="12.230340079576157"><ele>93.0</ele><time>2026-04-25T04:08:35.992Z</time></trkpt><trkpt lat="45.8423634162362" lon="12.230186854539278"><ele>93.0</ele><time>2026-04-25T04:08:37.992Z</time></trkpt><trkpt lat="45.84236736436316" lon="12.23007202259212"><ele>93.0</ele><time>2026-04-25T04:08:39.992Z</time></trkpt><trkpt lat="45.84237900127309" lon="12.22997436062389"><ele>93.00000000000001</ele><time>2026-04-25T04:08:41.992Z</time></trkpt><trkpt lat="45.84239950708392" lon="12.22988122239962"><ele>93.0</ele><time>2026-04-25T04:08:43.992Z</time></trkpt><trkpt lat="45.84243075662576" lon="12.22979288569523"><ele>93.0</ele><time>2026-04-25T04:08:45.991Z</time></trkpt><trkpt lat="45.84248012296533" lon="12.229720169511278"><ele>93.0</ele><time>2026-04-25T04:08:47.991Z</time></trkpt><trkpt lat="45.842543644400244" lon="12.229675245819676"><ele>93.0</ele><time>2026-04-25T04:08:49.991Z</time></trkpt><trkpt lat="45.842598467631554" lon="12.229629381722868"><ele>93.00000000000001</ele><time>2026-04-25T04:08:51.991Z</time></trkpt><trkpt lat="45.84266032241856" lon="12.229600951976703"><ele>93.0</ele><time>2026-04-25T04:08:54.991Z</time></trkpt><trkpt lat="45.84273796331062" lon="12.22956535691398"><ele>94.85714285714286</ele><time>2026-04-25T04:08:57.991Z</time></trkpt><trkpt lat="45.84281142756398" lon="12.229550582727033"><ele>96.71428571428572</ele><time>2026-04-25T04:09:00.991Z</time></trkpt><trkpt lat="45.842886828615335" lon="12.229548874575915"><ele>98.57142857142858</ele><time>2026-04-25T04:09:03.991Z</time></trkpt><trkpt lat="45.84297087910073" lon="12.229540777460171"><ele>100.42857142857143</ele><time>2026-04-25T04:09:06.991Z</time></trkpt><trkpt lat="45.843043659545245" lon="12.229538764713222"><ele>102.28571428571428</ele><time>2026-04-25T04:09:09.991Z</time></trkpt><trkpt lat="45.843113002039054" lon="12.22953585787069"><ele>104.14285714285715</ele><time>2026-04-25T04:09:12.991Z</time></trkpt><trkpt lat="45.84318316108851" lon="12.229536212099331"><ele>106.0</ele><time>2026-04-25T04:09:15.991Z</time></trkpt><trkpt lat="45.84325468694268" lon="12.229526646765077"><ele>106.0</ele><time>2026-04-25T04:09:18.991Z</time></trkpt><trkpt lat="45.843323743061454" lon="12.229522144899539"><ele>106.0</ele><time>2026-04-25T04:09:21.991Z</time></trkpt><trkpt lat="45.84339601556893" lon="12.229520902367632"><ele>106.0</ele><time>2026-04-25T04:09:24.991Z</time></trkpt><trkpt lat="45.84346932581998" lon="12.229513979412996"><ele>106.0</ele><time>2026-04-25T04:09:27.991Z</time></trkpt><trkpt lat="45.84354407081209" lon="12.229508530376561"><ele>106.0</ele><time>2026-04-25T04:09:30.991Z</time></trkpt><trkpt lat="45.843605983622005" lon="12.229491564960142"><ele>106.0</ele><time>2026-04-25T04:09:35.991Z</time></trkpt><trkpt lat="45.84369228306027" lon="12.229497250486373"><ele>106.0</ele><time>2026-04-25T04:09:39.991Z</time></trkpt><trkpt lat="45.84375845186345" lon="12.22949885947444"><ele>107.83333333333334</ele><time>2026-04-25T04:09:41.991Z</time></trkpt><trkpt lat="45.8438353358293" lon="12.229471732198018"><ele>109.66666666666667</ele><time>2026-04-25T04:09:44.991Z</time></trkpt><trkpt lat="45.84388824763997" lon="12.229336187429404"><ele>111.5</ele><time>2026-04-25T04:09:47.991Z</time></trkpt><trkpt lat="45.84390748767557" lon="12.229219620639004"><ele>113.33333333333334</ele><time>2026-04-25T04:09:49.991Z</time></trkpt><trkpt lat="45.84393372666967" lon="12.229113036604035"><ele>115.16666666666667</ele><time>2026-04-25T04:09:51.991Z</time></trkpt><trkpt lat="45.843964538325" lon="12.229006880023416"><ele>117.0</ele><time>2026-04-25T04:09:53.99Z</time></trkpt><trkpt lat="45.84399625987627" lon="12.228868898547843"><ele>117.39999999999999</ele><time>2026-04-25T04:09:55.99Z</time></trkpt><trkpt lat="45.84403564319977" lon="12.228742529953342"><ele>117.79999999999998</ele><time>2026-04-25T04:09:57.99Z</time></trkpt><trkpt lat="45.844066206456624" lon="12.228570614395261"><ele>118.2</ele><time>2026-04-25T04:10:02.99Z</time></trkpt><trkpt lat="45.84409436723463" lon="12.228446769907036"><ele>118.6</ele><time>2026-04-25T04:10:03.99Z</time></trkpt><trkpt lat="45.84414290937652" lon="12.228339938764528"><ele>119.0</ele><time>2026-04-25T04:10:04.99Z</time></trkpt><trkpt lat="45.84419459950186" lon="12.228258727736014"><ele>118.99999999999999</ele><time>2026-04-25T04:10:05.99Z</time></trkpt><trkpt lat="45.844250358127255" lon="12.22819094018822"><ele>119.0</ele><time>2026-04-25T04:10:06.99Z</time></trkpt><trkpt lat="45.84431839132462" lon="12.228155896207559"><ele>119.0</ele><time>2026-04-25T04:10:07.99Z</time></trkpt><trkpt lat="45.84438051450133" lon="12.2281337733761"><ele>119.0</ele><time>2026-04-25T04:10:08.99Z</time></trkpt><trkpt lat="45.84447938690155" lon="12.228143613330053"><ele>118.99999999999999</ele><time>2026-04-25T04:10:10.99Z</time></trkpt><trkpt lat="45.8445658635009" lon="12.228117937661647"><ele>119.0</ele><time>2026-04-25T04:10:12.99Z</time></trkpt><trkpt lat="45.84464431072281" lon="12.22804772714098"><ele>119.80000000000001</ele><time>2026-04-25T04:10:14.99Z</time></trkpt><trkpt lat="45.84471575179731" lon="12.22792469934562"><ele>120.60000000000001</ele><time>2026-04-25T04:10:16.99Z</time></trkpt><trkpt lat="45.844774447259596" lon="12.227805343573884"><ele>121.4</ele><time>2026-04-25T04:10:18.99Z</time></trkpt><trkpt lat="45.844830312197786" lon="12.22765172913805"><ele>122.2</ele><time>2026-04-25T04:10:20.99Z</time></trkpt><trkpt lat="45.84486453656548" lon="12.227569481459765"><ele>123.0</ele><time>2026-04-25T04:10:21.99Z</time></trkpt><trkpt lat="45.8449240637848" lon="12.227425688100752"><ele>123.0</ele><time>2026-04-25T04:10:23.99Z</time></trkpt><trkpt lat="45.84495805940943" lon="12.227342557432511"><ele>123.0</ele><time>2026-04-25T04:10:24.99Z</time></trkpt><trkpt lat="45.84501472203072" lon="12.227179481789005"><ele>123.0</ele><time>2026-04-25T04:10:26.99Z</time></trkpt><trkpt lat="45.84504285162518" lon="12.227097544115454"><ele>123.0</ele><time>2026-04-25T04:10:27.99Z</time></trkpt><trkpt lat="45.84508785314731" lon="12.227007087835313"><ele>123.0</ele><time>2026-04-25T04:10:29.99Z</time></trkpt><trkpt lat="45.84512974876444" lon="12.226934035395205"><ele>123.0</ele><time>2026-04-25T04:10:31.99Z</time></trkpt><trkpt lat="45.845148860440375" lon="12.226830347442768"><ele>123.66666666666667</ele><time>2026-04-25T04:10:33.99Z</time></trkpt><trkpt lat="45.84517587458385" lon="12.22670250537772"><ele>124.33333333333334</ele><time>2026-04-25T04:10:36.99Z</time></trkpt><trkpt lat="45.8452419043683" lon="12.226624226050385"><ele>125.0</ele><time>2026-04-25T04:10:39.99Z</time></trkpt><trkpt lat="45.84529602369154" lon="12.226564178736265"><ele>125.66666666666667</ele><time>2026-04-25T04:10:41.99Z</time></trkpt><trkpt lat="45.845372564517156" lon="12.226510663127504"><ele>126.33333333333334</ele><time>2026-04-25T04:10:44.99Z</time></trkpt><trkpt lat="45.84542295860264" lon="12.226446514469751"><ele>127.0</ele><time>2026-04-25T04:10:46.99Z</time></trkpt><trkpt lat="45.845487792953364" lon="12.226390329047844"><ele>127.33333333333334</ele><time>2026-04-25T04:10:49.99Z</time></trkpt><trkpt lat="45.84556061327527" lon="12.22637627521445"><ele>127.66666666666667</ele><time>2026-04-25T04:10:52.99Z</time></trkpt><trkpt lat="45.845636757821524" lon="12.226366393049537"><ele>128.0</ele><time>2026-04-25T04:10:55.99Z</time></trkpt><trkpt lat="45.845724162253994" lon="12.226349281907446"><ele>128.33333333333334</ele><time>2026-04-25T04:10:58.99Z</time></trkpt><trkpt lat="45.84580928050088" lon="12.226312501158386"><ele>128.66666666666666</ele><time>2026-04-25T04:11:01.989Z</time></trkpt><trkpt lat="45.84586865509105" lon="12.22626778143638"><ele>129.0</ele><time>2026-04-25T04:11:03.989Z</time></trkpt><trkpt lat="45.84592595061948" lon="12.226210308938759"><ele>128.83333333333334</ele><time>2026-04-25T04:11:05.989Z</time></trkpt><trkpt lat="45.84597862331609" lon="12.22613809218979"><ele>128.66666666666666</ele><time>2026-04-25T04:11:07.989Z</time></trkpt><trkpt lat="45.84603635503545" lon="12.22605906574852"><ele>128.5</ele><time>2026-04-25T04:11:09.989Z</time></trkpt><trkpt lat="45.84609857039456" lon="12.225984986861237"><ele>128.33333333333331</ele><time>2026-04-25T04:11:11.989Z</time></trkpt><trkpt lat="45.84615845668073" lon="12.225908937486347"><ele>128.16666666666666</ele><time>2026-04-25T04:11:13.989Z</time></trkpt><trkpt lat="45.84622107369656" lon="12.2258398461024"><ele>128.0</ele><time>2026-04-25T04:11:15.989Z</time></trkpt><trkpt lat="45.8462866952006" lon="12.225760212365428"><ele>127.99999999999999</ele><time>2026-04-25T04:11:17.989Z</time></trkpt><trkpt lat="45.84635741436478" lon="12.225674735791602"><ele>128.0</ele><time>2026-04-25T04:11:19.989Z</time></trkpt><trkpt lat="45.84641856961097" lon="12.225590019533481"><ele>128.0</ele><time>2026-04-25T04:11:21.989Z</time></trkpt><trkpt lat="45.84645808043073" lon="12.225495720914557"><ele>128.0</ele><time>2026-04-25T04:11:23.989Z</time></trkpt><trkpt lat="45.84647401532912" lon="12.225378098343663"><ele>127.99999999999999</ele><time>2026-04-25T04:11:25.989Z</time></trkpt><trkpt lat="45.84644678038506" lon="12.225265453157617"><ele>128.0</ele><time>2026-04-25T04:11:27.989Z</time></trkpt><trkpt lat="45.84640768876586" lon="12.225174352526713"><ele>129.14285714285714</ele><time>2026-04-25T04:11:29.989Z</time></trkpt><trkpt lat="45.84637439104706" lon="12.225092226175997"><ele>130.28571428571428</ele><time>2026-04-25T04:11:31.989Z</time></trkpt><trkpt lat="45.84632350871336" lon="12.224979501840032"><ele>131.42857142857142</ele><time>2026-04-25T04:11:34.989Z</time></trkpt><trkpt lat="45.84630128800159" lon="12.224892602862333"><ele>132.57142857142856</ele><time>2026-04-25T04:11:36.989Z</time></trkpt><trkpt lat="45.846317701723414" lon="12.224801039862369"><ele>133.71428571428572</ele><time>2026-04-25T04:11:38.989Z</time></trkpt><trkpt lat="45.84636765002733" lon="12.224729534671589"><ele>134.85714285714283</ele><time>2026-04-25T04:11:40.989Z</time></trkpt><trkpt lat="45.846421267538126" lon="12.224653387280313"><ele>136.0</ele><time>2026-04-25T04:11:42.989Z</time></trkpt><trkpt lat="45.84648267564762" lon="12.22456903006962"><ele>135.83333333333334</ele><time>2026-04-25T04:11:44.989Z</time></trkpt><trkpt lat="45.846562261221905" lon="12.224469573730799"><ele>135.66666666666669</ele><time>2026-04-25T04:11:46.989Z</time></trkpt><trkpt lat="45.8466581805237" lon="12.224356670765413"><ele>135.5</ele><time>2026-04-25T04:11:48.989Z</time></trkpt><trkpt lat="45.84670940069466" lon="12.224290045469425"><ele>135.33333333333334</ele><time>2026-04-25T04:11:49.989Z</time></trkpt><trkpt lat="45.846761392017314" lon="12.224224387370603"><ele>135.16666666666666</ele><time>2026-04-25T04:11:50.989Z</time></trkpt><trkpt lat="45.84681381172676" lon="12.224155229752428"><ele>135.0</ele><time>2026-04-25T04:11:51.989Z</time></trkpt><trkpt lat="45.846871460902335" lon="12.22407860029288"><ele>135.0</ele><time>2026-04-25T04:11:52.989Z</time></trkpt><trkpt lat="45.84693193171615" lon="12.224004211394552"><ele>135.0</ele><time>2026-04-25T04:11:53.989Z</time></trkpt><trkpt lat="45.8469919106875" lon="12.223926157180054"><ele>135.0</ele><time>2026-04-25T04:11:54.989Z</time></trkpt><trkpt lat="45.84705425942182" lon="12.223850567070237"><ele>135.0</ele><time>2026-04-25T04:11:55.989Z</time></trkpt><trkpt lat="45.8471195136765" lon="12.223772542437555"><ele>135.0</ele><time>2026-04-25T04:11:56.989Z</time></trkpt><trkpt lat="45.847181740395825" lon="12.223691500015704"><ele>135.0</ele><time>2026-04-25T04:11:57.989Z</time></trkpt><trkpt lat="45.84724960880821" lon="12.223607826411845"><ele>135.0</ele><time>2026-04-25T04:11:58.989Z</time></trkpt><trkpt lat="45.84731749503756" lon="12.223524449201642"><ele>135.0</ele><time>2026-04-25T04:11:59.989Z</time></trkpt><trkpt lat="45.8473821671497" lon="12.22344123597445"><ele>135.0</ele><time>2026-04-25T04:12:00.989Z</time></trkpt><trkpt lat="45.847449688252226" lon="12.223355974693472"><ele>135.0</ele><time>2026-04-25T04:12:01.989Z</time></trkpt><trkpt lat="45.847517874048314" lon="12.223271585259129"><ele>135.0</ele><time>2026-04-25T04:12:02.989Z</time></trkpt><trkpt lat="45.84758710488785" lon="12.22318334751078"><ele>135.0</ele><time>2026-04-25T04:12:03.989Z</time></trkpt><trkpt lat="45.847653234120415" lon="12.223093858605356"><ele>135.5</ele><time>2026-04-25T04:12:04.989Z</time></trkpt><trkpt lat="45.84771620576108" lon="12.223010798948506"><ele>136.0</ele><time>2026-04-25T04:12:05.989Z</time></trkpt><trkpt lat="45.847778693684404" lon="12.222926951864537"><ele>136.5</ele><time>2026-04-25T04:12:06.989Z</time></trkpt><trkpt lat="45.84783856947514" lon="12.22284940238039"><ele>137.0</ele><time>2026-04-25T04:12:07.989Z</time></trkpt><trkpt lat="45.84790072470192" lon="12.222774753354196"><ele>137.5</ele><time>2026-04-25T04:12:08.989Z</time></trkpt><trkpt lat="45.84795996509432" lon="12.222698100597954"><ele>138.0</ele><time>2026-04-25T04:12:09.989Z</time></trkpt><trkpt lat="45.848015285949685" lon="12.222626756603864"><ele>138.0</ele><time>2026-04-25T04:12:10.988Z</time></trkpt><trkpt lat="45.8480710796092" lon="12.222560734427566"><ele>138.0</ele><time>2026-04-25T04:12:11.988Z</time></trkpt><trkpt lat="45.848124827832734" lon="12.222494724183106"><ele>138.0</ele><time>2026-04-25T04:12:12.988Z</time></trkpt><trkpt lat="45.84817702255654" lon="12.222427407837129"><ele>138.0</ele><time>2026-04-25T04:12:13.988Z</time></trkpt><trkpt lat="45.848229810591015" lon="12.222368001667549"><ele>138.0</ele><time>2026-04-25T04:12:14.988Z</time></trkpt><trkpt lat="45.848281359334" lon="12.222299492359493"><ele>138.0</ele><time>2026-04-25T04:12:15.988Z</time></trkpt><trkpt lat="45.848328950445854" lon="12.222236784464704"><ele>138.0</ele><time>2026-04-25T04:12:16.988Z</time></trkpt><trkpt lat="45.848422103850154" lon="12.222164372518279"><ele>140.33333333333334</ele><time>2026-04-25T04:12:18.988Z</time></trkpt><trkpt lat="45.8484815880305" lon="12.222072471498588"><ele>142.66666666666666</ele><time>2026-04-25T04:12:20.988Z</time></trkpt><trkpt lat="45.848527446863045" lon="12.221998701806749"><ele>145.0</ele><time>2026-04-25T04:12:22.988Z</time></trkpt><trkpt lat="45.8485795099987" lon="12.221935606278882"><ele>147.33333333333331</ele><time>2026-04-25T04:12:24.988Z</time></trkpt><trkpt lat="45.848650424179866" lon="12.221844417274832"><ele>149.66666666666666</ele><time>2026-04-25T04:12:27.988Z</time></trkpt><trkpt lat="45.848702335848444" lon="12.221766864173048"><ele>152.0</ele><time>2026-04-25T04:12:29.988Z</time></trkpt><trkpt lat="45.84875682166969" lon="12.221711020946007"><ele>152.0</ele><time>2026-04-25T04:12:31.988Z</time></trkpt><trkpt lat="45.848835894750245" lon="12.221654491995455"><ele>152.0</ele><time>2026-04-25T04:12:34.988Z</time></trkpt><trkpt lat="45.84891243072777" lon="12.221615630748717"><ele>152.0</ele><time>2026-04-25T04:12:37.988Z</time></trkpt><trkpt lat="45.84899208675562" lon="12.22156727724484"><ele>152.0</ele><time>2026-04-25T04:12:40.988Z</time></trkpt><trkpt lat="45.849062281357035" lon="12.221512535341533"><ele>152.0</ele><time>2026-04-25T04:12:43.988Z</time></trkpt><trkpt lat="45.849124038007766" lon="12.22145886458798"><ele>152.0</ele><time>2026-04-25T04:12:46.988Z</time></trkpt><trkpt lat="45.84919510216306" lon="12.221375801697162"><ele>152.0</ele><time>2026-04-25T04:12:49.988Z</time></trkpt><trkpt lat="45.849266814887436" lon="12.221300722300862"><ele>152.0</ele><time>2026-04-25T04:12:52.988Z</time></trkpt><trkpt lat="45.84935330993384" lon="12.22125877456405"><ele>152.0</ele><time>2026-04-25T04:12:55.988Z</time></trkpt><trkpt lat="45.84942258823496" lon="12.22122976079432"><ele>152.0</ele><time>2026-04-25T04:12:57.988Z</time></trkpt><trkpt lat="45.84948867962501" lon="12.221208200620923"><ele>152.0</ele><time>2026-04-25T04:12:59.988Z</time></trkpt><trkpt lat="45.849551350623415" lon="12.221181662359443"><ele>152.0</ele><time>2026-04-25T04:13:01.988Z</time></trkpt><trkpt lat="45.84961565498683" lon="12.221150945002249"><ele>153.16666666666666</ele><time>2026-04-25T04:13:03.988Z</time></trkpt><trkpt lat="45.84970519239423" lon="12.221116871755799"><ele>154.33333333333331</ele><time>2026-04-25T04:13:06.988Z</time></trkpt><trkpt lat="45.84976429768712" lon="12.221078944120118"><ele>155.5</ele><time>2026-04-25T04:13:08.988Z</time></trkpt><trkpt lat="45.84982556511575" lon="12.221041847464656"><ele>156.66666666666666</ele><time>2026-04-25T04:13:10.988Z</time></trkpt><trkpt lat="45.84991408899588" lon="12.221009217729566"><ele>157.83333333333334</ele><time>2026-04-25T04:13:13.988Z</time></trkpt><trkpt lat="45.8499963937184" lon="12.220978219347503"><ele>159.0</ele><time>2026-04-25T04:13:16.988Z</time></trkpt><trkpt lat="45.850074759551006" lon="12.220946917131277"><ele>160.42857142857142</ele><time>2026-04-25T04:13:19.987Z</time></trkpt><trkpt lat="45.85014756037087" lon="12.220924488824837"><ele>161.85714285714286</ele><time>2026-04-25T04:13:22.987Z</time></trkpt><trkpt lat="45.85021291633305" lon="12.22090302322296"><ele>163.28571428571428</ele><time>2026-04-25T04:13:25.987Z</time></trkpt><trkpt lat="45.8502781005852" lon="12.220885636955167"><ele>164.71428571428572</ele><time>2026-04-25T04:13:28.987Z</time></trkpt><trkpt lat="45.85035058674885" lon="12.220854496152201"><ele>166.14285714285714</ele><time>2026-04-25T04:13:31.987Z</time></trkpt><trkpt lat="45.850420726392194" lon="12.220821819453354"><ele>167.57142857142858</ele><time>2026-04-25T04:13:36.987Z</time></trkpt><trkpt lat="45.85050119566156" lon="12.220796106516259"><ele>169.0</ele><time>2026-04-25T04:13:40.987Z</time></trkpt><trkpt lat="45.850570210723205" lon="12.220758997036004"><ele>169.0</ele><time>2026-04-25T04:13:44.987Z</time></trkpt><trkpt lat="45.85063483783374" lon="12.220736570349509"><ele>169.0</ele><time>2026-04-25T04:13:47.987Z</time></trkpt><trkpt lat="45.850718643293085" lon="12.220710566860786"><ele>169.0</ele><time>2026-04-25T04:13:51.987Z</time></trkpt><trkpt lat="45.85078171433082" lon="12.220678541850496"><ele>169.0</ele><time>2026-04-25T04:13:54.987Z</time></trkpt><trkpt lat="45.85085705236428" lon="12.220637395421868"><ele>169.0</ele><time>2026-04-25T04:13:57.987Z</time></trkpt><trkpt lat="45.850941864662325" lon="12.220606635095727"><ele>169.0</ele><time>2026-04-25T04:14:01.987Z</time></trkpt><trkpt lat="45.85100801538273" lon="12.220580718055725"><ele>170.5</ele><time>2026-04-25T04:14:04.987Z</time></trkpt><trkpt lat="45.851096084831134" lon="12.220559983598964"><ele>172.0</ele><time>2026-04-25T04:14:07.987Z</time></trkpt><trkpt lat="45.851164934127134" lon="12.220570511781146"><ele>173.5</ele><time>2026-04-25T04:14:10.987Z</time></trkpt><trkpt lat="45.85120423664924" lon="12.22064974197287"><ele>175.0</ele><time>2026-04-25T04:14:13.987Z</time></trkpt><trkpt lat="45.85123060684895" lon="12.22073335624253"><ele>176.5</ele><time>2026-04-25T04:14:15.987Z</time></trkpt><trkpt lat="45.85125687858371" lon="12.220827104584835"><ele>178.0</ele><time>2026-04-25T04:14:17.987Z</time></trkpt><trkpt lat="45.851316685118285" lon="12.221011548169134"><ele>178.0</ele><time>2026-04-25T04:14:19.987Z</time></trkpt><trkpt lat="45.8513495118739" lon="12.221127426582884"><ele>178.0</ele><time>2026-04-25T04:14:20.987Z</time></trkpt><trkpt lat="45.851383550488094" lon="12.221241615614897"><ele>178.0</ele><time>2026-04-25T04:14:21.987Z</time></trkpt><trkpt lat="45.851412580951326" lon="12.221349432933518"><ele>178.0</ele><time>2026-04-25T04:14:22.987Z</time></trkpt><trkpt lat="45.851445022425736" lon="12.221464164529989"><ele>178.0</ele><time>2026-04-25T04:14:23.987Z</time></trkpt><trkpt lat="45.851471532695975" lon="12.221578109496255"><ele>178.0</ele><time>2026-04-25T04:14:24.987Z</time></trkpt><trkpt lat="45.85149664508621" lon="12.221700229766078"><ele>177.66666666666669</ele><time>2026-04-25T04:14:25.987Z</time></trkpt><trkpt lat="45.85152098963081" lon="12.221813819436056"><ele>177.33333333333334</ele><time>2026-04-25T04:14:26.987Z</time></trkpt><trkpt lat="45.851545409586386" lon="12.221926300850447"><ele>177.0</ele><time>2026-04-25T04:14:27.986Z</time></trkpt><trkpt lat="45.85156844093049" lon="12.222033704718571"><ele>176.66666666666666</ele><time>2026-04-25T04:14:28.986Z</time></trkpt><trkpt lat="45.85159228363598" lon="12.222142045071243"><ele>176.33333333333331</ele><time>2026-04-25T04:14:29.986Z</time></trkpt><trkpt lat="45.85161497515438" lon="12.222241837544368"><ele>176.0</ele><time>2026-04-25T04:14:30.986Z</time></trkpt><trkpt lat="45.85164599082036" lon="12.22233071904745"><ele>176.0</ele><time>2026-04-25T04:14:31.986Z</time></trkpt><trkpt lat="45.85169400721384" lon="12.222408377999333"><ele>176.0</ele><time>2026-04-25T04:14:32.986Z</time></trkpt><trkpt lat="45.851757104915634" lon="12.22246219291626"><ele>176.0</ele><time>2026-04-25T04:14:33.986Z</time></trkpt><trkpt lat="45.851830908755666" lon="12.222478951006298"><ele>176.0</ele><time>2026-04-25T04:14:34.986Z</time></trkpt><trkpt lat="45.85194917385373" lon="12.222436899516447"><ele>176.0</ele><time>2026-04-25T04:14:36.986Z</time></trkpt><trkpt lat="45.85206110532396" lon="12.222398495467983"><ele>176.0</ele><time>2026-04-25T04:14:38.986Z</time></trkpt><trkpt lat="45.852125078010644" lon="12.222429458700175"><ele>176.0</ele><time>2026-04-25T04:14:39.986Z</time></trkpt><trkpt lat="45.852183572798936" lon="12.22248072277379"><ele>176.0</ele><time>2026-04-25T04:14:40.986Z</time></trkpt><trkpt lat="45.85222469067521" lon="12.222555119498757"><ele>176.0</ele><time>2026-04-25T04:14:41.986Z</time></trkpt><trkpt lat="45.852252898368135" lon="12.222654470452998"><ele>176.0</ele><time>2026-04-25T04:14:42.986Z</time></trkpt><trkpt lat="45.85226915648735" lon="12.222769691043732"><ele>176.0</ele><time>2026-04-25T04:14:43.986Z</time></trkpt><trkpt lat="45.852289554642105" lon="12.22288661762119"><ele>176.0</ele><time>2026-04-25T04:14:44.986Z</time></trkpt><trkpt lat="45.85231583211868" lon="12.223010521083523"><ele>176.0</ele><time>2026-04-25T04:14:45.986Z</time></trkpt><trkpt lat="45.85234388381093" lon="12.223140826372083"><ele>176.0</ele><time>2026-04-25T04:14:46.986Z</time></trkpt><trkpt lat="45.852381596964435" lon="12.223275023276631"><ele>176.0</ele><time>2026-04-25T04:14:47.986Z</time></trkpt><trkpt lat="45.85241547062508" lon="12.22340815905651"><ele>176.0</ele><time>2026-04-25T04:14:48.986Z</time></trkpt><trkpt lat="45.85245506846194" lon="12.223545757003826"><ele>176.0</ele><time>2026-04-25T04:14:49.986Z</time></trkpt><trkpt lat="45.85248639839967" lon="12.22369461430263"><ele>174.5</ele><time>2026-04-25T04:14:50.986Z</time></trkpt><trkpt lat="45.85249600578169" lon="12.223848287312974"><ele>173.0</ele><time>2026-04-25T04:14:51.986Z</time></trkpt><trkpt lat="45.85248733425418" lon="12.224006302196555"><ele>171.5</ele><time>2026-04-25T04:14:52.986Z</time></trkpt><trkpt lat="45.85246803739994" lon="12.22417253342306"><ele>170.0</ele><time>2026-04-25T04:14:53.986Z</time></trkpt><trkpt lat="45.8524428380078" lon="12.224336575306994"><ele>169.75</ele><time>2026-04-25T04:14:54.986Z</time></trkpt><trkpt lat="45.85240001239329" lon="12.224498601498828"><ele>169.5</ele><time>2026-04-25T04:14:55.986Z</time></trkpt><trkpt lat="45.85234209704177" lon="12.224649247927312"><ele>169.25</ele><time>2026-04-25T04:14:56.986Z</time></trkpt><trkpt lat="45.85232174092544" lon="12.224826183047057"><ele>169.0</ele><time>2026-04-25T04:14:57.986Z</time></trkpt><trkpt lat="45.85228411053898" lon="12.22499885217562"><ele>167.5</ele><time>2026-04-25T04:14:58.986Z</time></trkpt><trkpt lat="45.85224271657542" lon="12.225175300902777"><ele>166.0</ele><time>2026-04-25T04:14:59.986Z</time></trkpt><trkpt lat="45.85219322297943" lon="12.225350287011862"><ele>164.5</ele><time>2026-04-25T04:15:00.986Z</time></trkpt><trkpt lat="45.85212908519298" lon="12.225519329685103"><ele>163.0</ele><time>2026-04-25T04:15:01.986Z</time></trkpt><trkpt lat="45.852056570896664" lon="12.225684397693648"><ele>161.5</ele><time>2026-04-25T04:15:02.986Z</time></trkpt><trkpt lat="45.85196923752721" lon="12.22584399295357"><ele>160.0</ele><time>2026-04-25T04:15:03.986Z</time></trkpt><trkpt lat="45.85188302484153" lon="12.22600067721776"><ele>158.5</ele><time>2026-04-25T04:15:04.986Z</time></trkpt><trkpt lat="45.85179194574913" lon="12.226158157362368"><ele>157.0</ele><time>2026-04-25T04:15:05.986Z</time></trkpt><trkpt lat="45.85170946239292" lon="12.22632360272417"><ele>156.4</ele><time>2026-04-25T04:15:06.986Z</time></trkpt><trkpt lat="45.85163576847801" lon="12.226464933539184"><ele>155.79999999999998</ele><time>2026-04-25T04:15:07.986Z</time></trkpt><trkpt lat="45.85156992037766" lon="12.226589556719004"><ele>155.2</ele><time>2026-04-25T04:15:08.986Z</time></trkpt><trkpt lat="45.85151761302018" lon="12.226690640972123"><ele>154.6</ele><time>2026-04-25T04:15:09.986Z</time></trkpt><trkpt lat="45.85147384115408" lon="12.22678152411032"><ele>154.0</ele><time>2026-04-25T04:15:10.986Z</time></trkpt><trkpt lat="45.85144199509971" lon="12.226882469624268"><ele>153.66666666666669</ele><time>2026-04-25T04:15:11.986Z</time></trkpt><trkpt lat="45.851435473678485" lon="12.226986450105196"><ele>153.33333333333334</ele><time>2026-04-25T04:15:12.986Z</time></trkpt><trkpt lat="45.851463158973246" lon="12.227086219562565"><ele>153.0</ele><time>2026-04-25T04:15:13.986Z</time></trkpt><trkpt lat="45.85150961610812" lon="12.227176500225053"><ele>152.66666666666666</ele><time>2026-04-25T04:15:14.986Z</time></trkpt><trkpt lat="45.85158727085093" lon="12.227240310226906"><ele>152.33333333333331</ele><time>2026-04-25T04:15:15.986Z</time></trkpt><trkpt lat="45.85167649324225" lon="12.227291899663689"><ele>152.0</ele><time>2026-04-25T04:15:16.986Z</time></trkpt><trkpt lat="45.851766421615125" lon="12.227334463283862"><ele>150.0</ele><time>2026-04-25T04:15:17.986Z</time></trkpt><trkpt lat="45.851857996716106" lon="12.227380198361283"><ele>148.0</ele><time>2026-04-25T04:15:18.986Z</time></trkpt><trkpt lat="45.85194586156646" lon="12.227443920946689"><ele>146.0</ele><time>2026-04-25T04:15:19.986Z</time></trkpt><trkpt lat="45.852014837598595" lon="12.22754936866475"><ele>144.0</ele><time>2026-04-25T04:15:20.986Z</time></trkpt><trkpt lat="45.852063689215605" lon="12.227688275701565"><ele>142.0</ele><time>2026-04-25T04:15:21.986Z</time></trkpt><trkpt lat="45.85205692914422" lon="12.227838638958882"><ele>142.0</ele><time>2026-04-25T04:15:22.986Z</time></trkpt><trkpt lat="45.85206215795606" lon="12.228004676951059"><ele>142.0</ele><time>2026-04-25T04:15:23.986Z</time></trkpt><trkpt lat="45.85206630797999" lon="12.228174253231197"><ele>142.0</ele><time>2026-04-25T04:15:24.986Z</time></trkpt><trkpt lat="45.85207300324705" lon="12.228348065483324"><ele>142.0</ele><time>2026-04-25T04:15:25.986Z</time></trkpt><trkpt lat="45.85207290762897" lon="12.228520197147388"><ele>139.25</ele><time>2026-04-25T04:15:26.986Z</time></trkpt><trkpt lat="45.852075475329656" lon="12.228696325502918"><ele>136.5</ele><time>2026-04-25T04:15:27.986Z</time></trkpt><trkpt lat="45.8520842638094" lon="12.228871876783433"><ele>133.75</ele><time>2026-04-25T04:15:28.986Z</time></trkpt><trkpt lat="45.852092315524736" lon="12.229053775709465"><ele>131.0</ele><time>2026-04-25T04:15:29.986Z</time></trkpt><trkpt lat="45.85210468967621" lon="12.229239341398173"><ele>129.5</ele><time>2026-04-25T04:15:30.986Z</time></trkpt><trkpt lat="45.852114380980176" lon="12.229424608016444"><ele>128.0</ele><time>2026-04-25T04:15:31.986Z</time></trkpt><trkpt lat="45.852119956579756" lon="12.229609589285925"><ele>126.5</ele><time>2026-04-25T04:15:32.986Z</time></trkpt><trkpt lat="45.85211725324253" lon="12.229789457186873"><ele>125.0</ele><time>2026-04-25T04:15:33.986Z</time></trkpt><trkpt lat="45.85210201186953" lon="12.22996385746876"><ele>123.75</ele><time>2026-04-25T04:15:34.986Z</time></trkpt><trkpt lat="45.85205616423811" lon="12.230140328682822"><ele>122.5</ele><time>2026-04-25T04:15:35.985Z</time></trkpt><trkpt lat="45.85199655636977" lon="12.230306719546135"><ele>121.25</ele><time>2026-04-25T04:15:36.985Z</time></trkpt><trkpt lat="45.851927460439136" lon="12.230473855747896"><ele>120.0</ele><time>2026-04-25T04:15:37.986Z</time></trkpt><trkpt lat="45.85185602567311" lon="12.230638479216244"><ele>121.5</ele><time>2026-04-25T04:15:38.985Z</time></trkpt><trkpt lat="45.85177913594206" lon="12.230802977784615"><ele>123.0</ele><time>2026-04-25T04:15:39.985Z</time></trkpt><trkpt lat="45.851696520214894" lon="12.230968272192234"><ele>124.5</ele><time>2026-04-25T04:15:40.985Z</time></trkpt><trkpt lat="45.85161199841471" lon="12.231129932005937"><ele>126.0</ele><time>2026-04-25T04:15:41.985Z</time></trkpt><trkpt lat="45.85151564054912" lon="12.231285319850935"><ele>126.0</ele><time>2026-04-25T04:15:42.985Z</time></trkpt><trkpt lat="45.851428087828154" lon="12.231416815383481"><ele>126.0</ele><time>2026-04-25T04:15:43.985Z</time></trkpt><trkpt lat="45.851340134563" lon="12.231512240694808"><ele>126.0</ele><time>2026-04-25T04:15:44.985Z</time></trkpt><trkpt lat="45.851268567215655" lon="12.231586855078566"><ele>126.0</ele><time>2026-04-25T04:15:45.985Z</time></trkpt><trkpt lat="45.851176633224" lon="12.231668881405675"><ele>126.0</ele><time>2026-04-25T04:15:47.985Z</time></trkpt><trkpt lat="45.851163803831845" lon="12.231782965121763"><ele>126.0</ele><time>2026-04-25T04:15:49.985Z</time></trkpt><trkpt lat="45.85123697616534" lon="12.23191547996041"><ele>126.0</ele><time>2026-04-25T04:15:51.985Z</time></trkpt><trkpt lat="45.85129870498127" lon="12.231976127244387"><ele>126.0</ele><time>2026-04-25T04:15:52.985Z</time></trkpt><trkpt lat="45.851367893356624" lon="12.23204424374222"><ele>126.0</ele><time>2026-04-25T04:15:53.985Z</time></trkpt><trkpt lat="45.851437747861574" lon="12.232109179952358"><ele>126.0</ele><time>2026-04-25T04:15:54.985Z</time></trkpt><trkpt lat="45.8515112413513" lon="12.232154029925553"><ele>126.0</ele><time>2026-04-25T04:15:55.985Z</time></trkpt><trkpt lat="45.85159782157387" lon="12.232183245335737"><ele>126.0</ele><time>2026-04-25T04:15:56.985Z</time></trkpt><trkpt lat="45.851677225879634" lon="12.232187153622794"><ele>126.0</ele><time>2026-04-25T04:15:57.985Z</time></trkpt><trkpt lat="45.851748944572115" lon="12.23216920997202"><ele>126.0</ele><time>2026-04-25T04:15:58.985Z</time></trkpt><trkpt lat="45.8518248253862" lon="12.232124392001364"><ele>126.0</ele><time>2026-04-25T04:15:59.985Z</time></trkpt><trkpt lat="45.851896158355665" lon="12.232082180301981"><ele>126.0</ele><time>2026-04-25T04:16:00.985Z</time></trkpt><trkpt lat="45.85196240509827" lon="12.232043560360847"><ele>126.0</ele><time>2026-04-25T04:16:01.985Z</time></trkpt><trkpt lat="45.852023510872094" lon="12.231998275544052"><ele>123.19999999999999</ele><time>2026-04-25T04:16:02.985Z</time></trkpt><trkpt lat="45.85209899768652" lon="12.231906921981068"><ele>120.39999999999999</ele><time>2026-04-25T04:16:03.985Z</time></trkpt><trkpt lat="45.852167964506314" lon="12.231813957608624"><ele>117.6</ele><time>2026-04-25T04:16:04.985Z</time></trkpt><trkpt lat="45.85223338142999" lon="12.231724263927333"><ele>114.8</ele><time>2026-04-25T04:16:05.985Z</time></trkpt><trkpt lat="45.852313643660295" lon="12.231626519520763"><ele>112.0</ele><time>2026-04-25T04:16:06.985Z</time></trkpt><trkpt lat="45.85240239885469" lon="12.231535104462035"><ele>113.25</ele><time>2026-04-25T04:16:07.985Z</time></trkpt><trkpt lat="45.852477883071174" lon="12.231417038266903"><ele>114.5</ele><time>2026-04-25T04:16:08.985Z</time></trkpt><trkpt lat="45.852570073768796" lon="12.231274602524866"><ele>115.75</ele><time>2026-04-25T04:16:09.985Z</time></trkpt><trkpt lat="45.8526467501314" lon="12.23114485133548"><ele>117.0</ele><time>2026-04-25T04:16:10.985Z</time></trkpt><trkpt lat="45.852709806918156" lon="12.231031837704442"><ele>112.19999999999999</ele><time>2026-04-25T04:16:11.985Z</time></trkpt><trkpt lat="45.85275283191093" lon="12.23091956890687"><ele>107.39999999999999</ele><time>2026-04-25T04:16:12.985Z</time></trkpt><trkpt lat="45.85279815172753" lon="12.230824082896335"><ele>102.6</ele><time>2026-04-25T04:16:13.985Z</time></trkpt><trkpt lat="45.852846184975355" lon="12.23074650853386"><ele>97.80000000000001</ele><time>2026-04-25T04:16:14.985Z</time></trkpt><trkpt lat="45.85298306909141" lon="12.230631108887065"><ele>93.0</ele><time>2026-04-25T04:16:16.985Z</time></trkpt><trkpt lat="45.853051083312806" lon="12.230586948946994"><ele>93.0</ele><time>2026-04-25T04:16:17.985Z</time></trkpt><trkpt lat="45.853111238826244" lon="12.230549412938954"><ele>93.0</ele><time>2026-04-25T04:16:18.985Z</time></trkpt><trkpt lat="45.85316978002989" lon="12.2304746909825"><ele>93.0</ele><time>2026-04-25T04:16:20.985Z</time></trkpt><trkpt lat="45.85320405608529" lon="12.230317170077182"><ele>93.0</ele><time>2026-04-25T04:16:22.985Z</time></trkpt><trkpt lat="45.85320022916187" lon="12.230120647983242"><ele>93.0</ele><time>2026-04-25T04:16:24.985Z</time></trkpt><trkpt lat="45.853183324901025" lon="12.229999301155067"><ele>93.0</ele><time>2026-04-25T04:16:25.985Z</time></trkpt><trkpt lat="45.853202925917834" lon="12.229906248623907"><ele>93.0</ele><time>2026-04-25T04:16:26.985Z</time></trkpt><trkpt lat="45.85325337563649" lon="12.229837842449149"><ele>93.0</ele><time>2026-04-25T04:16:27.985Z</time></trkpt><trkpt lat="45.85332278956912" lon="12.229799026417083"><ele>93.0</ele><time>2026-04-25T04:16:28.985Z</time></trkpt><trkpt lat="45.85340026791155" lon="12.22978157544921"><ele>93.0</ele><time>2026-04-25T04:16:29.985Z</time></trkpt><trkpt lat="45.853483037881055" lon="12.22976193863299"><ele>93.0</ele><time>2026-04-25T04:16:30.985Z</time></trkpt><trkpt lat="45.85356119825624" lon="12.229729970308174"><ele>93.33333333333333</ele><time>2026-04-25T04:16:31.985Z</time></trkpt><trkpt lat="45.85364349413535" lon="12.229673460442669"><ele>93.66666666666667</ele><time>2026-04-25T04:16:32.985Z</time></trkpt><trkpt lat="45.85371156505611" lon="12.229597411440393"><ele>94.0</ele><time>2026-04-25T04:16:33.985Z</time></trkpt><trkpt lat="45.853782511073675" lon="12.22951857319454"><ele>94.33333333333334</ele><time>2026-04-25T04:16:34.985Z</time></trkpt><trkpt lat="45.853849914955525" lon="12.229435342089179"><ele>94.66666666666667</ele><time>2026-04-25T04:16:35.985Z</time></trkpt><trkpt lat="45.853913052447" lon="12.229349859952876"><ele>95.0</ele><time>2026-04-25T04:16:36.985Z</time></trkpt><trkpt lat="45.85396686355804" lon="12.229264317317343"><ele>95.0</ele><time>2026-04-25T04:16:37.985Z</time></trkpt><trkpt lat="45.85402312011789" lon="12.229175847115052"><ele>95.0</ele><time>2026-04-25T04:16:38.985Z</time></trkpt><trkpt lat="45.854086441958145" lon="12.229094243409875"><ele>95.0</ele><time>2026-04-25T04:16:39.985Z</time></trkpt><trkpt lat="45.85415214972816" lon="12.229015995503355"><ele>95.0</ele><time>2026-04-25T04:16:40.985Z</time></trkpt><trkpt lat="45.854209845702435" lon="12.228936605185854"><ele>95.0</ele><time>2026-04-25T04:16:41.985Z</time></trkpt><trkpt lat="45.854267649185424" lon="12.228856149888347"><ele>95.0</ele><time>2026-04-25T04:16:42.985Z</time></trkpt><trkpt lat="45.85432330422258" lon="12.228777819767366"><ele>95.5</ele><time>2026-04-25T04:16:43.985Z</time></trkpt><trkpt lat="45.854381031717324" lon="12.228702620289114"><ele>96.0</ele><time>2026-04-25T04:16:44.984Z</time></trkpt><trkpt lat="45.854442099988276" lon="12.228628359387761"><ele>96.5</ele><time>2026-04-25T04:16:45.984Z</time></trkpt><trkpt lat="45.85450013678116" lon="12.22855456973076"><ele>97.0</ele><time>2026-04-25T04:16:46.984Z</time></trkpt><trkpt lat="45.85455923530634" lon="12.228481199766872"><ele>97.49999999999999</ele><time>2026-04-25T04:16:47.984Z</time></trkpt><trkpt lat="45.85461667137616" lon="12.228403189603574"><ele>98.0</ele><time>2026-04-25T04:16:48.984Z</time></trkpt><trkpt lat="45.8546734414314" lon="12.228326061413572"><ele>98.0</ele><time>2026-04-25T04:16:49.984Z</time></trkpt><trkpt lat="45.85472328025691" lon="12.228252135333102"><ele>98.0</ele><time>2026-04-25T04:16:50.984Z</time></trkpt><trkpt lat="45.854774235540155" lon="12.228179537761855"><ele>98.0</ele><time>2026-04-25T04:16:51.984Z</time></trkpt><trkpt lat="45.85482536050277" lon="12.228103547457433"><ele>98.0</ele><time>2026-04-25T04:16:52.984Z</time></trkpt><trkpt lat="45.85487961194438" lon="12.2280333390187"><ele>98.0</ele><time>2026-04-25T04:16:53.984Z</time></trkpt><trkpt lat="45.854931950185545" lon="12.227966875937094"><ele>98.0</ele><time>2026-04-25T04:16:54.984Z</time></trkpt><trkpt lat="45.85497666824185" lon="12.227893851939667"><ele>98.0</ele><time>2026-04-25T04:16:55.984Z</time></trkpt><trkpt lat="45.85501893849677" lon="12.22781480717968"><ele>98.28571428571429</ele><time>2026-04-25T04:16:56.984Z</time></trkpt><trkpt lat="45.855060619979135" lon="12.227734351983738"><ele>98.57142857142857</ele><time>2026-04-25T04:16:57.984Z</time></trkpt><trkpt lat="45.855110596738555" lon="12.227663526022978"><ele>98.85714285714286</ele><time>2026-04-25T04:16:58.984Z</time></trkpt><trkpt lat="45.855155962975644" lon="12.227596867020946"><ele>99.14285714285714</ele><time>2026-04-25T04:16:59.984Z</time></trkpt><trkpt lat="45.85520334123033" lon="12.227528785881335"><ele>99.42857142857143</ele><time>2026-04-25T04:17:00.984Z</time></trkpt><trkpt lat="45.85525080664114" lon="12.227458889201563"><ele>99.71428571428572</ele><time>2026-04-25T04:17:01.984Z</time></trkpt><trkpt lat="45.855293974194026" lon="12.22739128953431"><ele>100.0</ele><time>2026-04-25T04:17:02.984Z</time></trkpt><trkpt lat="45.855339132636104" lon="12.22731899384794"><ele>100.14285714285715</ele><time>2026-04-25T04:17:03.984Z</time></trkpt><trkpt lat="45.855383572964065" lon="12.227245451263375"><ele>100.28571428571429</ele><time>2026-04-25T04:17:04.984Z</time></trkpt><trkpt lat="45.855428080074596" lon="12.227173511906315"><ele>100.42857142857143</ele><time>2026-04-25T04:17:05.984Z</time></trkpt><trkpt lat="45.85547439778305" lon="12.227104063021535"><ele>100.57142857142858</ele><time>2026-04-25T04:17:06.984Z</time></trkpt><trkpt lat="45.855521412194705" lon="12.227022681424803"><ele>100.71428571428571</ele><time>2026-04-25T04:17:07.984Z</time></trkpt><trkpt lat="45.855562547744015" lon="12.226951445108877"><ele>100.85714285714286</ele><time>2026-04-25T04:17:08.984Z</time></trkpt><trkpt lat="45.855606634591815" lon="12.226885803494165"><ele>101.0</ele><time>2026-04-25T04:17:09.984Z</time></trkpt><trkpt lat="45.85569755741444" lon="12.226742878843949"><ele>101.0</ele><time>2026-04-25T04:17:11.984Z</time></trkpt><trkpt lat="45.85574177207854" lon="12.226667140505038"><ele>101.0</ele><time>2026-04-25T04:17:12.984Z</time></trkpt><trkpt lat="45.855786697268236" lon="12.226597571692379"><ele>101.0</ele><time>2026-04-25T04:17:13.984Z</time></trkpt><trkpt lat="45.855832415742505" lon="12.226528823678079"><ele>101.0</ele><time>2026-04-25T04:17:14.984Z</time></trkpt><trkpt lat="45.85587892900127" lon="12.22645919954131"><ele>101.0</ele><time>2026-04-25T04:17:15.984Z</time></trkpt><trkpt lat="45.8559253613022" lon="12.226389921334478"><ele>101.0</ele><time>2026-04-25T04:17:16.984Z</time></trkpt><trkpt lat="45.855968187396705" lon="12.226319939780591"><ele>101.0</ele><time>2026-04-25T04:17:17.984Z</time></trkpt><trkpt lat="45.856052363988944" lon="12.226197297509666"><ele>100.66666666666666</ele><time>2026-04-25T04:17:19.984Z</time></trkpt><trkpt lat="45.85612958511538" lon="12.226080981481013"><ele>100.33333333333333</ele><time>2026-04-25T04:17:21.984Z</time></trkpt><trkpt lat="45.85621234398614" lon="12.225965537663829"><ele>100.0</ele><time>2026-04-25T04:17:23.984Z</time></trkpt><trkpt lat="45.856256520198095" lon="12.225901101310688"><ele>99.66666666666666</ele><time>2026-04-25T04:17:24.984Z</time></trkpt><trkpt lat="45.85630083312071" lon="12.225826807661504"><ele>99.33333333333333</ele><time>2026-04-25T04:17:25.984Z</time></trkpt><trkpt lat="45.85633334599882" lon="12.225735817297084"><ele>99.0</ele><time>2026-04-25T04:17:26.984Z</time></trkpt><trkpt lat="45.856354612781494" lon="12.225636723298594"><ele>100.6</ele><time>2026-04-25T04:17:27.984Z</time></trkpt><trkpt lat="45.85633987889819" lon="12.225497072089441"><ele>102.2</ele><time>2026-04-25T04:17:29.984Z</time></trkpt><trkpt lat="45.8562531135856" lon="12.225403489635816"><ele>103.79999999999998</ele><time>2026-04-25T04:17:31.984Z</time></trkpt><trkpt lat="45.85618128704095" lon="12.225379193389342"><ele>105.39999999999999</ele><time>2026-04-25T04:17:32.984Z</time></trkpt><trkpt lat="45.85611178094605" lon="12.2253640082905"><ele>107.0</ele><time>2026-04-25T04:17:33.984Z</time></trkpt><trkpt lat="45.8560072490987" lon="12.225298237109932"><ele>107.0</ele><time>2026-04-25T04:17:35.984Z</time></trkpt><trkpt lat="45.855945126926976" lon="12.225153884275414"><ele>107.0</ele><time>2026-04-25T04:17:37.984Z</time></trkpt><trkpt lat="45.855941358749064" lon="12.224994808485421"><ele>107.0</ele><time>2026-04-25T04:17:39.984Z</time></trkpt><trkpt lat="45.855970236048655" lon="12.224836599876511"><ele>107.0</ele><time>2026-04-25T04:17:41.984Z</time></trkpt><trkpt lat="45.85598749310525" lon="12.22466635838376"><ele>108.8</ele><time>2026-04-25T04:17:43.984Z</time></trkpt><trkpt lat="45.85600835109609" lon="12.224513957108586"><ele>110.6</ele><time>2026-04-25T04:17:45.984Z</time></trkpt><trkpt lat="45.856026846112165" lon="12.224365307892125"><ele>112.39999999999999</ele><time>2026-04-25T04:17:47.984Z</time></trkpt><trkpt lat="45.856050037563456" lon="12.22420116482748"><ele>114.19999999999999</ele><time>2026-04-25T04:17:49.984Z</time></trkpt><trkpt lat="45.85606959793182" lon="12.224053693309743"><ele>116.0</ele><time>2026-04-25T04:17:51.984Z</time></trkpt><trkpt lat="45.85608471749051" lon="12.223924980634093"><ele>116.16666666666666</ele><time>2026-04-25T04:17:53.983Z</time></trkpt><trkpt lat="45.8561183194247" lon="12.223805948072972"><ele>116.33333333333333</ele><time>2026-04-25T04:17:55.983Z</time></trkpt><trkpt lat="45.85615324293069" lon="12.223691890193924"><ele>116.5</ele><time>2026-04-25T04:17:57.983Z</time></trkpt><trkpt lat="45.85620236292762" lon="12.223571723416548"><ele>116.66666666666666</ele><time>2026-04-25T04:17:59.983Z</time></trkpt><trkpt lat="45.85624586639" lon="12.223470358978748"><ele>116.83333333333333</ele><time>2026-04-25T04:18:01.983Z</time></trkpt><trkpt lat="45.85629042373726" lon="12.223373066327797"><ele>117.0</ele><time>2026-04-25T04:18:03.983Z</time></trkpt><trkpt lat="45.856333860151814" lon="12.223281684863537"><ele>117.0</ele><time>2026-04-25T04:18:05.983Z</time></trkpt><trkpt lat="45.85637500388579" lon="12.2231903636614"><ele>117.00000000000001</ele><time>2026-04-25T04:18:07.983Z</time></trkpt><trkpt lat="45.85642361526586" lon="12.223072568465929"><ele>117.0</ele><time>2026-04-25T04:18:10.983Z</time></trkpt><trkpt lat="45.856456257515894" lon="12.222994341978323"><ele>117.0</ele><time>2026-04-25T04:18:12.983Z</time></trkpt><trkpt lat="45.856495493993556" lon="12.222922117637793"><ele>117.00000000000001</ele><time>2026-04-25T04:18:14.983Z</time></trkpt><trkpt lat="45.856539630084775" lon="12.222854593712187"><ele>117.0</ele><time>2026-04-25T04:18:16.983Z</time></trkpt><trkpt lat="45.856603038090334" lon="12.222784113923757"><ele>117.0</ele><time>2026-04-25T04:18:19.983Z</time></trkpt><trkpt lat="45.85668846031882" lon="12.222744415806526"><ele>116.71428571428572</ele><time>2026-04-25T04:18:22.983Z</time></trkpt><trkpt lat="45.85677329800573" lon="12.222727039445429"><ele>116.42857142857144</ele><time>2026-04-25T04:18:25.983Z</time></trkpt><trkpt lat="45.85684117638116" lon="12.222716737148758"><ele>116.14285714285714</ele><time>2026-04-25T04:18:28.983Z</time></trkpt><trkpt lat="45.8569104499856" lon="12.222700523211696"><ele>115.85714285714286</ele><time>2026-04-25T04:18:32.983Z</time></trkpt><trkpt lat="45.8569827835128" lon="12.222683296934571"><ele>115.57142857142857</ele><time>2026-04-25T04:18:36.983Z</time></trkpt><trkpt lat="45.85706306840932" lon="12.222667717162222"><ele>115.28571428571428</ele><time>2026-04-25T04:18:41.983Z</time></trkpt><trkpt lat="45.85713169173355" lon="12.222660501029825"><ele>114.99999999999999</ele><time>2026-04-25T04:18:45.997Z</time></trkpt><trkpt lat="45.85720258904539" lon="12.222646153838257"><ele>117.7142857142857</ele><time>2026-04-25T04:18:49.997Z</time></trkpt><trkpt lat="45.85726747254318" lon="12.222613909429743"><ele>120.42857142857142</ele><time>2026-04-25T04:18:52.997Z</time></trkpt><trkpt lat="45.857317904269635" lon="12.222551856648376"><ele>123.14285714285714</ele><time>2026-04-25T04:18:56.997Z</time></trkpt><trkpt lat="45.857354204580346" lon="12.22247738702359"><ele>125.85714285714285</ele><time>2026-04-25T04:18:59.997Z</time></trkpt><trkpt lat="45.85738377701668" lon="12.22236754304821"><ele>128.57142857142856</ele><time>2026-04-25T04:19:02.997Z</time></trkpt><trkpt lat="45.857430951023666" lon="12.22226948893634"><ele>131.28571428571428</ele><time>2026-04-25T04:19:05.997Z</time></trkpt><trkpt lat="45.85745955440202" lon="12.222187181504632"><ele>134.0</ele><time>2026-04-25T04:19:07.997Z</time></trkpt><trkpt lat="45.85749558012503" lon="12.222112653433442"><ele>134.0</ele><time>2026-04-25T04:19:09.997Z</time></trkpt><trkpt lat="45.85754140893468" lon="12.222012822990559"><ele>134.0</ele><time>2026-04-25T04:19:12.997Z</time></trkpt><trkpt lat="45.857576109770676" lon="12.22192920414412"><ele>134.0</ele><time>2026-04-25T04:19:15.997Z</time></trkpt><trkpt lat="45.85761957848631" lon="12.221840556447738"><ele>134.0</ele><time>2026-04-25T04:19:19.997Z</time></trkpt><trkpt lat="45.85766286442663" lon="12.22175304296948"><ele>134.0</ele><time>2026-04-25T04:19:23.997Z</time></trkpt><trkpt lat="45.85772509287589" lon="12.221660693057899"><ele>134.0</ele><time>2026-04-25T04:19:27.997Z</time></trkpt><trkpt lat="45.85778957770189" lon="12.221578948463243"><ele>133.83333333333331</ele><time>2026-04-25T04:19:31.996Z</time></trkpt><trkpt lat="45.85784824096675" lon="12.22152856382994"><ele>133.66666666666666</ele><time>2026-04-25T04:19:34.998Z</time></trkpt><trkpt lat="45.857930759170024" lon="12.221483039059567"><ele>133.5</ele><time>2026-04-25T04:19:38.998Z</time></trkpt><trkpt lat="45.85799765837232" lon="12.221453177889655"><ele>133.33333333333334</ele><time>2026-04-25T04:19:41.998Z</time></trkpt><trkpt lat="45.85808253838153" lon="12.221372423035861"><ele>133.16666666666669</ele><time>2026-04-25T04:19:44.997Z</time></trkpt><trkpt lat="45.85813665635246" lon="12.22131851081299"><ele>133.0</ele><time>2026-04-25T04:19:45.998Z</time></trkpt><trkpt lat="45.85822916874121" lon="12.221213518539942"><ele>133.0</ele><time>2026-04-25T04:19:47.998Z</time></trkpt><trkpt lat="45.85832225658342" lon="12.221112482482884"><ele>133.0</ele><time>2026-04-25T04:19:49.998Z</time></trkpt><trkpt lat="45.858408471876984" lon="12.22101535917587"><ele>133.0</ele><time>2026-04-25T04:19:51.998Z</time></trkpt><trkpt lat="45.858466870392554" lon="12.220946911967351"><ele>133.0</ele><time>2026-04-25T04:19:52.998Z</time></trkpt><trkpt lat="45.85851704826077" lon="12.220891532940398"><ele>133.0</ele><time>2026-04-25T04:19:53.998Z</time></trkpt><trkpt lat="45.85861220882142" lon="12.22078083747399"><ele>133.4</ele><time>2026-04-25T04:19:55.998Z</time></trkpt><trkpt lat="45.85869931943066" lon="12.220674835431565"><ele>133.8</ele><time>2026-04-25T04:19:57.998Z</time></trkpt><trkpt lat="45.85880674388245" lon="12.220633610238691"><ele>134.2</ele><time>2026-04-25T04:19:59.998Z</time></trkpt><trkpt lat="45.858908310155186" lon="12.220689315972129"><ele>134.6</ele><time>2026-04-25T04:20:01.998Z</time></trkpt><trkpt lat="45.8589787098791" lon="12.220813219864432"><ele>135.0</ele><time>2026-04-25T04:20:03.998Z</time></trkpt><trkpt lat="45.85907393652396" lon="12.220895246068066"><ele>135.16666666666666</ele><time>2026-04-25T04:20:05.998Z</time></trkpt><trkpt lat="45.8591392772035" lon="12.220862517665866"><ele>135.33333333333334</ele><time>2026-04-25T04:20:06.998Z</time></trkpt><trkpt lat="45.85918706012676" lon="12.220800362132502"><ele>135.5</ele><time>2026-04-25T04:20:07.998Z</time></trkpt><trkpt lat="45.85922821549264" lon="12.220726159053278"><ele>135.66666666666669</ele><time>2026-04-25T04:20:08.998Z</time></trkpt><trkpt lat="45.85931051016166" lon="12.220593903815129"><ele>135.83333333333334</ele><time>2026-04-25T04:20:10.997Z</time></trkpt><trkpt lat="45.859396817228834" lon="12.220471272144664"><ele>136.0</ele><time>2026-04-25T04:20:12.997Z</time></trkpt><trkpt lat="45.859487751440255" lon="12.220344340337034"><ele>136.75</ele><time>2026-04-25T04:20:14.997Z</time></trkpt><trkpt lat="45.85957580498345" lon="12.220220325305911"><ele>137.5</ele><time>2026-04-25T04:20:16.997Z</time></trkpt><trkpt lat="45.85965708436661" lon="12.220104584967807"><ele>138.25</ele><time>2026-04-25T04:20:18.997Z</time></trkpt><trkpt lat="45.85974063898542" lon="12.219993236795547"><ele>139.0</ele><time>2026-04-25T04:20:20.997Z</time></trkpt><trkpt lat="45.85981129500384" lon="12.219884270999321"><ele>139.83333333333334</ele><time>2026-04-25T04:20:22.997Z</time></trkpt><trkpt lat="45.859875804645995" lon="12.219790907804155"><ele>140.66666666666669</ele><time>2026-04-25T04:20:24.997Z</time></trkpt><trkpt lat="45.85993739468382" lon="12.219714695653837"><ele>141.5</ele><time>2026-04-25T04:20:26.997Z</time></trkpt><trkpt lat="45.86000331073367" lon="12.219660933353609"><ele>142.33333333333334</ele><time>2026-04-25T04:20:28.997Z</time></trkpt><trkpt lat="45.860068685901396" lon="12.219623895182703"><ele>143.16666666666666</ele><time>2026-04-25T04:20:30.997Z</time></trkpt><trkpt lat="45.86013308237374" lon="12.219593264021016"><ele>144.0</ele><time>2026-04-25T04:20:32.997Z</time></trkpt><trkpt lat="45.86019604254522" lon="12.21957038720604"><ele>145.5</ele><time>2026-04-25T04:20:34.997Z</time></trkpt><trkpt lat="45.86027962308117" lon="12.2195419725602"><ele>147.0</ele><time>2026-04-25T04:20:37.997Z</time></trkpt><trkpt lat="45.86035732598022" lon="12.219497764655785"><ele>148.5</ele><time>2026-04-25T04:20:40.997Z</time></trkpt><trkpt lat="45.86043461632229" lon="12.219466306268528"><ele>150.0</ele><time>2026-04-25T04:20:43.997Z</time></trkpt><trkpt lat="45.860515905025714" lon="12.219446176522295"><ele>151.5</ele><time>2026-04-25T04:20:46.997Z</time></trkpt><trkpt lat="45.86059687433888" lon="12.219431803028453"><ele>153.0</ele><time>2026-04-25T04:20:49.997Z</time></trkpt><trkpt lat="45.860660285409956" lon="12.21943784896415"><ele>153.0</ele><time>2026-04-25T04:20:51.997Z</time></trkpt><trkpt lat="45.86075017455337" lon="12.219448748812757"><ele>153.0</ele><time>2026-04-25T04:20:54.997Z</time></trkpt><trkpt lat="45.860839081977" lon="12.219452330853915"><ele>153.0</ele><time>2026-04-25T04:20:57.997Z</time></trkpt><trkpt lat="45.860927558393044" lon="12.219451819494475"><ele>153.0</ele><time>2026-04-25T04:21:00.997Z</time></trkpt><trkpt lat="45.86099731671616" lon="12.219451061273942"><ele>153.0</ele><time>2026-04-25T04:21:03.997Z</time></trkpt><trkpt lat="45.86106714019358" lon="12.219443974341685"><ele>153.0</ele><time>2026-04-25T04:21:06.997Z</time></trkpt><trkpt lat="45.861143278980286" lon="12.21943076202616"><ele>154.0</ele><time>2026-04-25T04:21:09.997Z</time></trkpt><trkpt lat="45.86122838579918" lon="12.219414746999842"><ele>155.0</ele><time>2026-04-25T04:21:13.997Z</time></trkpt><trkpt lat="45.86129508514325" lon="12.219426290977802"><ele>156.0</ele><time>2026-04-25T04:21:17.997Z</time></trkpt><trkpt lat="45.86136391330708" lon="12.219436760176116"><ele>157.0</ele><time>2026-04-25T04:21:20.996Z</time></trkpt><trkpt lat="45.86143258922777" lon="12.219454091018424"><ele>158.0</ele><time>2026-04-25T04:21:23.996Z</time></trkpt><trkpt lat="45.861500180407646" lon="12.219487061341475"><ele>159.0</ele><time>2026-04-25T04:21:27.996Z</time></trkpt><trkpt lat="45.8615856986524" lon="12.219477379219617"><ele>160.0</ele><time>2026-04-25T04:21:31.996Z</time></trkpt><trkpt lat="45.86166153292798" lon="12.219507924146974"><ele>160.0</ele><time>2026-04-25T04:21:36.996Z</time></trkpt><trkpt lat="45.86172872800853" lon="12.219536999056777"><ele>160.0</ele><time>2026-04-25T04:21:39.997Z</time></trkpt><trkpt lat="45.861794915726655" lon="12.219564090875474"><ele>160.0</ele><time>2026-04-25T04:21:43.997Z</time></trkpt><trkpt lat="45.86185600354834" lon="12.219587537484754"><ele>160.0</ele><time>2026-04-25T04:21:46.997Z</time></trkpt><trkpt lat="45.861923010746175" lon="12.219605538453116"><ele>160.0</ele><time>2026-04-25T04:21:49.997Z</time></trkpt><trkpt lat="45.861986498168726" lon="12.21963860368216"><ele>160.0</ele><time>2026-04-25T04:21:52.997Z</time></trkpt><trkpt lat="45.862062148120366" lon="12.219645019901131"><ele>160.0</ele><time>2026-04-25T04:21:56.997Z</time></trkpt><trkpt lat="45.8621292179797" lon="12.21962252821335"><ele>160.71428571428572</ele><time>2026-04-25T04:22:00.997Z</time></trkpt><trkpt lat="45.86220354486166" lon="12.219619039411954"><ele>161.42857142857144</ele><time>2026-04-25T04:22:03.997Z</time></trkpt><trkpt lat="45.862271117182054" lon="12.219597679912049"><ele>162.14285714285717</ele><time>2026-04-25T04:22:07.997Z</time></trkpt><trkpt lat="45.86234222468506" lon="12.219595130209532"><ele>162.85714285714286</ele><time>2026-04-25T04:22:11.997Z</time></trkpt><trkpt lat="45.86241351581087" lon="12.219613691518132"><ele>163.57142857142858</ele><time>2026-04-25T04:22:14.997Z</time></trkpt><trkpt lat="45.86247324987182" lon="12.219584753775543"><ele>164.2857142857143</ele><time>2026-04-25T04:22:18.997Z</time></trkpt><trkpt lat="45.86253742931304" lon="12.219557736547177"><ele>165.0</ele><time>2026-04-25T04:22:21.997Z</time></trkpt><trkpt lat="45.86261670987085" lon="12.21953067090939"><ele>167.0</ele><time>2026-04-25T04:22:24.997Z</time></trkpt><trkpt lat="45.86267706256871" lon="12.219494950664282"><ele>169.0</ele><time>2026-04-25T04:22:26.997Z</time></trkpt><trkpt lat="45.86275051035116" lon="12.219481329223994"><ele>171.0</ele><time>2026-04-25T04:22:29.997Z</time></trkpt><trkpt lat="45.86283614875743" lon="12.219452963327814"><ele>173.0</ele><time>2026-04-25T04:22:32.996Z</time></trkpt><trkpt lat="45.86291479540853" lon="12.219419111651668"><ele>175.0</ele><time>2026-04-25T04:22:35.996Z</time></trkpt><trkpt lat="45.86299268937639" lon="12.219384163831862"><ele>177.0</ele><time>2026-04-25T04:22:38.996Z</time></trkpt><trkpt lat="45.86307272323948" lon="12.219373169688236"><ele>177.0</ele><time>2026-04-25T04:22:42.996Z</time></trkpt><trkpt lat="45.86315213943659" lon="12.219366642896933"><ele>177.0</ele><time>2026-04-25T04:22:45.996Z</time></trkpt><trkpt lat="45.8632293909166" lon="12.21933520327561"><ele>177.0</ele><time>2026-04-25T04:22:48.996Z</time></trkpt><trkpt lat="45.86329247271166" lon="12.219316019152167"><ele>177.0</ele><time>2026-04-25T04:22:51.996Z</time></trkpt><trkpt lat="45.86335945389855" lon="12.219314965519631"><ele>177.0</ele><time>2026-04-25T04:22:54.996Z</time></trkpt><trkpt lat="45.86360119966323" lon="12.219317778465202"><ele>179.16666666666666</ele><time>2026-04-25T04:23:06.996Z</time></trkpt><trkpt lat="45.86372597824366" lon="12.219293658161217"><ele>181.33333333333334</ele><time>2026-04-25T04:23:11.996Z</time></trkpt><trkpt lat="45.8637970546087" lon="12.219288658597264"><ele>183.5</ele><time>2026-04-25T04:23:14.996Z</time></trkpt><trkpt lat="45.86386505674639" lon="12.219282469344968"><ele>185.66666666666669</ele><time>2026-04-25T04:23:17.996Z</time></trkpt><trkpt lat="45.8639467014364" lon="12.219262812734458"><ele>187.83333333333334</ele><time>2026-04-25T04:23:20.996Z</time></trkpt><trkpt lat="45.86402352984793" lon="12.219263610560695"><ele>190.0</ele><time>2026-04-25T04:23:24.996Z</time></trkpt><trkpt lat="45.86409687834793" lon="12.219258813265279"><ele>190.0</ele><time>2026-04-25T04:23:27.996Z</time></trkpt><trkpt lat="45.86416498037345" lon="12.219245537311703"><ele>190.0</ele><time>2026-04-25T04:23:30.996Z</time></trkpt><trkpt lat="45.8642342791951" lon="12.219236320380425"><ele>190.0</ele><time>2026-04-25T04:23:33.996Z</time></trkpt><trkpt lat="45.86430999492962" lon="12.21922169554703"><ele>190.0</ele><time>2026-04-25T04:23:36.996Z</time></trkpt><trkpt lat="45.86451444051523" lon="12.219213189973972"><ele>190.0</ele><time>2026-04-25T04:23:44.997Z</time></trkpt><trkpt lat="45.86458421876009" lon="12.219173270332199"><ele>191.66666666666669</ele><time>2026-04-25T04:23:47.997Z</time></trkpt><trkpt lat="45.864642798027724" lon="12.21906554055589"><ele>193.33333333333334</ele><time>2026-04-25T04:23:50.997Z</time></trkpt><trkpt lat="45.86468167486443" lon="12.218976553450737"><ele>195.0</ele><time>2026-04-25T04:23:52.997Z</time></trkpt><trkpt lat="45.864731062106706" lon="12.218913588861836"><ele>196.66666666666669</ele><time>2026-04-25T04:23:54.997Z</time></trkpt><trkpt lat="45.8648128374509" lon="12.218861418843998"><ele>198.33333333333334</ele><time>2026-04-25T04:23:57.997Z</time></trkpt><trkpt lat="45.86489606411795" lon="12.218820115805798"><ele>200.0</ele><time>2026-04-25T04:24:00.997Z</time></trkpt><trkpt lat="45.86498358391953" lon="12.218779868492549"><ele>200.00000000000003</ele><time>2026-04-25T04:24:03.997Z</time></trkpt><trkpt lat="45.8650629549795" lon="12.218786495894163"><ele>200.0</ele><time>2026-04-25T04:24:07.997Z</time></trkpt><trkpt lat="45.86514781835104" lon="12.218785849868643"><ele>200.0</ele><time>2026-04-25T04:24:10.997Z</time></trkpt><trkpt lat="45.86521900187237" lon="12.21877506495778"><ele>200.0</ele><time>2026-04-25T04:24:14.997Z</time></trkpt><trkpt lat="45.86528998013099" lon="12.218780101745962"><ele>200.00000000000003</ele><time>2026-04-25T04:24:17.997Z</time></trkpt><trkpt lat="45.8653565743764" lon="12.218771579342752"><ele>200.0</ele><time>2026-04-25T04:24:20.997Z</time></trkpt><trkpt lat="45.86543625537464" lon="12.218762841332474"><ele>202.50000000000003</ele><time>2026-04-25T04:24:24.997Z</time></trkpt><trkpt lat="45.86551571277269" lon="12.218762240805342"><ele>205.0</ele><time>2026-04-25T04:24:27.997Z</time></trkpt><trkpt lat="45.86560025366415" lon="12.218717103827872"><ele>207.5</ele><time>2026-04-25T04:24:30.997Z</time></trkpt><trkpt lat="45.86566922722541" lon="12.218660612985966"><ele>210.0</ele><time>2026-04-25T04:24:34.997Z</time></trkpt><trkpt lat="45.8657402644155" lon="12.218615625745418"><ele>212.50000000000003</ele><time>2026-04-25T04:24:38.996Z</time></trkpt><trkpt lat="45.86582421639735" lon="12.218568789470435"><ele>215.0</ele><time>2026-04-25T04:24:42.996Z</time></trkpt><trkpt lat="45.86589393284034" lon="12.218531853319124"><ele>216.42857142857142</ele><time>2026-04-25T04:24:45.996Z</time></trkpt><trkpt lat="45.86595097723735" lon="12.2184689323904"><ele>217.8571428571429</ele><time>2026-04-25T04:24:48.996Z</time></trkpt><trkpt lat="45.865987819021306" lon="12.21838411814871"><ele>219.2857142857143</ele><time>2026-04-25T04:24:51.996Z</time></trkpt><trkpt lat="45.86604634324077" lon="12.218285088924752"><ele>220.71428571428572</ele><time>2026-04-25T04:24:54.996Z</time></trkpt><trkpt lat="45.86610769032179" lon="12.218212857994303"><ele>222.14285714285717</ele><time>2026-04-25T04:24:58.996Z</time></trkpt><trkpt lat="45.86615762003235" lon="12.218152342054292"><ele>223.5714285714286</ele><time>2026-04-25T04:25:01.996Z</time></trkpt><trkpt lat="45.86621641985497" lon="12.218117673258472"><ele>225.00000000000003</ele><time>2026-04-25T04:25:04.996Z</time></trkpt><trkpt lat="45.86626732379427" lon="12.218061239556057"><ele>225.00000000000003</ele><time>2026-04-25T04:25:07.996Z</time></trkpt><trkpt lat="45.86633362740211" lon="12.218013257790707"><ele>225.0</ele><time>2026-04-25T04:25:10.996Z</time></trkpt><trkpt lat="45.86638974417781" lon="12.21796467412236"><ele>225.00000000000003</ele><time>2026-04-25T04:25:13.996Z</time></trkpt><trkpt lat="45.86644753550526" lon="12.217923355735604"><ele>225.00000000000003</ele><time>2026-04-25T04:25:16.996Z</time></trkpt><trkpt lat="45.86649522951094" lon="12.217859945142774"><ele>225.0</ele><time>2026-04-25T04:25:19.996Z</time></trkpt><trkpt lat="45.86654624524194" lon="12.217787405733542"><ele>225.00000000000003</ele><time>2026-04-25T04:25:22.996Z</time></trkpt><trkpt lat="45.866597971682594" lon="12.21772448855276"><ele>225.00000000000003</ele><time>2026-04-25T04:25:25.996Z</time></trkpt><trkpt lat="45.866659016625" lon="12.217651491760453"><ele>225.0</ele><time>2026-04-25T04:25:28.996Z</time></trkpt><trkpt lat="45.86672490257653" lon="12.217571065681877"><ele>225.0</ele><time>2026-04-25T04:25:31.996Z</time></trkpt><trkpt lat="45.86678260519515" lon="12.217484949795445"><ele>225.0</ele><time>2026-04-25T04:25:34.996Z</time></trkpt><trkpt lat="45.86682547613051" lon="12.217407160342157"><ele>225.0</ele><time>2026-04-25T04:25:37.996Z</time></trkpt><trkpt lat="45.86687849350975" lon="12.217345706010452"><ele>225.0</ele><time>2026-04-25T04:25:40.996Z</time></trkpt><trkpt lat="45.86690600373061" lon="12.217234796049823"><ele>225.0</ele><time>2026-04-25T04:25:43.996Z</time></trkpt><trkpt lat="45.866941367371965" lon="12.217108465935922"><ele>225.5</ele><time>2026-04-25T04:25:46.995Z</time></trkpt><trkpt lat="45.86699353516316" lon="12.217046803586065"><ele>226.0</ele><time>2026-04-25T04:25:48.995Z</time></trkpt><trkpt lat="45.86705443051704" lon="12.216960698552683"><ele>226.5</ele><time>2026-04-25T04:25:51.997Z</time></trkpt><trkpt lat="45.86711955547753" lon="12.216867789548273"><ele>227.0</ele><time>2026-04-25T04:25:54.997Z</time></trkpt><trkpt lat="45.867155152862715" lon="12.216786758219756"><ele>227.5</ele><time>2026-04-25T04:25:56.997Z</time></trkpt><trkpt lat="45.86718395065679" lon="12.216686455468858"><ele>228.0</ele><time>2026-04-25T04:25:59.997Z</time></trkpt><trkpt lat="45.867170864163654" lon="12.21657163483029"><ele>229.33333333333334</ele><time>2026-04-25T04:26:02.996Z</time></trkpt><trkpt lat="45.867171074317696" lon="12.216438818491136"><ele>230.66666666666669</ele><time>2026-04-25T04:26:05.996Z</time></trkpt><trkpt lat="45.86716913581875" lon="12.216340505612116"><ele>232.0</ele><time>2026-04-25T04:26:07.996Z</time></trkpt><trkpt lat="45.86715513703656" lon="12.216225982182925"><ele>233.33333333333334</ele><time>2026-04-25T04:26:09.996Z</time></trkpt><trkpt lat="45.86715153341301" lon="12.216098103766193"><ele>234.66666666666669</ele><time>2026-04-25T04:26:11.996Z</time></trkpt><trkpt lat="45.867205876146365" lon="12.215978612303864"><ele>236.0</ele><time>2026-04-25T04:26:13.996Z</time></trkpt><trkpt lat="45.8672213631046" lon="12.215882536707525"><ele>236.00000000000003</ele><time>2026-04-25T04:26:15.996Z</time></trkpt><trkpt lat="45.867240725456774" lon="12.215722442616537"><ele>236.0</ele><time>2026-04-25T04:26:17.996Z</time></trkpt><trkpt lat="45.86726193137777" lon="12.215616112146709"><ele>236.0</ele><time>2026-04-25T04:26:19.996Z</time></trkpt><trkpt lat="45.86731287799254" lon="12.21552217225252"><ele>236.0</ele><time>2026-04-25T04:26:21.996Z</time></trkpt><trkpt lat="45.86731423706305" lon="12.215430525788681"><ele>236.00000000000003</ele><time>2026-04-25T04:26:23.996Z</time></trkpt><trkpt lat="45.867371494609934" lon="12.215336139602353"><ele>236.0</ele><time>2026-04-25T04:26:25.996Z</time></trkpt><trkpt lat="45.867417454468665" lon="12.215236503429033"><ele>236.4</ele><time>2026-04-25T04:26:27.996Z</time></trkpt><trkpt lat="45.86742531153156" lon="12.215130615020115"><ele>236.8</ele><time>2026-04-25T04:26:29.996Z</time></trkpt><trkpt lat="45.86747010569749" lon="12.215052144950732"><ele>237.20000000000002</ele><time>2026-04-25T04:26:31.996Z</time></trkpt><trkpt lat="45.8675607037097" lon="12.214911963948271"><ele>237.60000000000002</ele><time>2026-04-25T04:26:33.996Z</time></trkpt><trkpt lat="45.86761863081913" lon="12.214715744489997"><ele>238.0</ele><time>2026-04-25T04:26:34.996Z</time></trkpt><trkpt lat="45.86766092841536" lon="12.214551948766523"><ele>235.0</ele><time>2026-04-25T04:26:35.996Z</time></trkpt><trkpt lat="45.867703666450275" lon="12.214402795153433"><ele>232.0</ele><time>2026-04-25T04:26:36.996Z</time></trkpt><trkpt lat="45.867763171424414" lon="12.214269608504356"><ele>229.0</ele><time>2026-04-25T04:26:37.996Z</time></trkpt><trkpt lat="45.86782753955022" lon="12.214153583750763"><ele>226.0</ele><time>2026-04-25T04:26:38.996Z</time></trkpt><trkpt lat="45.86788798788817" lon="12.21402698694984"><ele>223.0</ele><time>2026-04-25T04:26:39.996Z</time></trkpt><trkpt lat="45.86794175625648" lon="12.213859777822973"><ele>223.0</ele><time>2026-04-25T04:26:40.996Z</time></trkpt><trkpt lat="45.868025225126786" lon="12.21371584921107"><ele>223.0</ele><time>2026-04-25T04:26:41.996Z</time></trkpt><trkpt lat="45.86813337265355" lon="12.213565399317908"><ele>223.0</ele><time>2026-04-25T04:26:42.996Z</time></trkpt><trkpt lat="45.868224917413734" lon="12.213433988639373"><ele>223.0</ele><time>2026-04-25T04:26:43.996Z</time></trkpt><trkpt lat="45.86830660012933" lon="12.213315607508754"><ele>223.0</ele><time>2026-04-25T04:26:44.996Z</time></trkpt><trkpt lat="45.86837801899861" lon="12.213206901889999"><ele>223.0</ele><time>2026-04-25T04:26:45.996Z</time></trkpt><trkpt lat="45.86844700244878" lon="12.213099803042583"><ele>223.0</ele><time>2026-04-25T04:26:46.996Z</time></trkpt><trkpt lat="45.868519120372305" lon="12.213003608894802"><ele>223.0</ele><time>2026-04-25T04:26:47.996Z</time></trkpt><trkpt lat="45.86859127513355" lon="12.212905240998195"><ele>223.0</ele><time>2026-04-25T04:26:48.996Z</time></trkpt><trkpt lat="45.86865715747119" lon="12.212805438205395"><ele>224.33333333333331</ele><time>2026-04-25T04:26:49.996Z</time></trkpt><trkpt lat="45.868718431757685" lon="12.212700584980109"><ele>225.66666666666666</ele><time>2026-04-25T04:26:50.995Z</time></trkpt><trkpt lat="45.86877746981106" lon="12.212620870551037"><ele>227.0</ele><time>2026-04-25T04:26:51.995Z</time></trkpt><trkpt lat="45.86882548594602" lon="12.212543616241962"><ele>228.33333333333331</ele><time>2026-04-25T04:26:52.995Z</time></trkpt><trkpt lat="45.868884740484575" lon="12.212471363758926"><ele>229.66666666666666</ele><time>2026-04-25T04:26:53.995Z</time></trkpt><trkpt lat="45.86894382813174" lon="12.212385514635871"><ele>231.0</ele><time>2026-04-25T04:26:54.995Z</time></trkpt><trkpt lat="45.868993922373384" lon="12.212299272255173"><ele>231.0</ele><time>2026-04-25T04:26:55.995Z</time></trkpt><trkpt lat="45.869050160003454" lon="12.212228272724957"><ele>231.0</ele><time>2026-04-25T04:26:56.995Z</time></trkpt><trkpt lat="45.869114397684676" lon="12.212164539942945"><ele>231.0</ele><time>2026-04-25T04:26:57.995Z</time></trkpt><trkpt lat="45.869169282783254" lon="12.21209277621026"><ele>231.0</ele><time>2026-04-25T04:26:58.995Z</time></trkpt><trkpt lat="45.86922382334745" lon="12.212018621804226"><ele>231.0</ele><time>2026-04-25T04:26:59.995Z</time></trkpt><trkpt lat="45.86927354199921" lon="12.211946510326372"><ele>231.0</ele><time>2026-04-25T04:27:00.995Z</time></trkpt><trkpt lat="45.86936683678438" lon="12.211859237162871"><ele>233.0</ele><time>2026-04-25T04:27:02.995Z</time></trkpt><trkpt lat="45.8694468620208" lon="12.211757379320618"><ele>235.00000000000003</ele><time>2026-04-25T04:27:04.995Z</time></trkpt><trkpt lat="45.86950056098628" lon="12.211703114586122"><ele>237.00000000000003</ele><time>2026-04-25T04:27:05.995Z</time></trkpt><trkpt lat="45.86956352574375" lon="12.211669342239265"><ele>239.0</ele><time>2026-04-25T04:27:06.995Z</time></trkpt><trkpt lat="45.86968398064886" lon="12.21162411132555"><ele>241.0</ele><time>2026-04-25T04:27:08.995Z</time></trkpt><trkpt lat="45.8698069256956" lon="12.211586319020716"><ele>241.0</ele><time>2026-04-25T04:27:10.995Z</time></trkpt><trkpt lat="45.86987045674968" lon="12.211570605089358"><ele>241.00000000000003</ele><time>2026-04-25T04:27:11.995Z</time></trkpt><trkpt lat="45.86993635161433" lon="12.211565623365246"><ele>241.0</ele><time>2026-04-25T04:27:12.995Z</time></trkpt><trkpt lat="45.87000748611892" lon="12.211555272200178"><ele>241.0</ele><time>2026-04-25T04:27:13.995Z</time></trkpt><trkpt lat="45.87007637131185" lon="12.211533822538957"><ele>241.00000000000003</ele><time>2026-04-25T04:27:14.995Z</time></trkpt><trkpt lat="45.87014314175313" lon="12.211510414051766"><ele>241.0</ele><time>2026-04-25T04:27:15.995Z</time></trkpt><trkpt lat="45.87021743404102" lon="12.21149472698807"><ele>241.0</ele><time>2026-04-25T04:27:16.995Z</time></trkpt><trkpt lat="45.87028710852205" lon="12.211470253147642"><ele>238.99999999999997</ele><time>2026-04-25T04:27:17.995Z</time></trkpt><trkpt lat="45.87035940331828" lon="12.211454863052406"><ele>237.0</ele><time>2026-04-25T04:27:18.995Z</time></trkpt><trkpt lat="45.87042878562026" lon="12.211438799909535"><ele>235.0</ele><time>2026-04-25T04:27:19.995Z</time></trkpt><trkpt lat="45.87050422130537" lon="12.2114279698498"><ele>233.0</ele><time>2026-04-25T04:27:20.995Z</time></trkpt><trkpt lat="45.87057677284392" lon="12.211413024618869"><ele>230.99999999999997</ele><time>2026-04-25T04:27:21.995Z</time></trkpt><trkpt lat="45.87065931412782" lon="12.211411395393483"><ele>229.0</ele><time>2026-04-25T04:27:22.995Z</time></trkpt><trkpt lat="45.87073290795401" lon="12.211393247985171"><ele>228.99999999999997</ele><time>2026-04-25T04:27:23.995Z</time></trkpt><trkpt lat="45.87079723456483" lon="12.21133525252137"><ele>229.0</ele><time>2026-04-25T04:27:24.995Z</time></trkpt><trkpt lat="45.87084445788339" lon="12.211262350191666"><ele>229.0</ele><time>2026-04-25T04:27:25.995Z</time></trkpt><trkpt lat="45.87088149755289" lon="12.211160108489933"><ele>229.0</ele><time>2026-04-25T04:27:26.995Z</time></trkpt><trkpt lat="45.870913088062736" lon="12.211053458035018"><ele>228.99999999999997</ele><time>2026-04-25T04:27:27.995Z</time></trkpt><trkpt lat="45.8709551081105" lon="12.21095408272961"><ele>229.0</ele><time>2026-04-25T04:27:28.995Z</time></trkpt><trkpt lat="45.87099752677868" lon="12.210853932268627"><ele>231.49999999999997</ele><time>2026-04-25T04:27:29.995Z</time></trkpt><trkpt lat="45.8710438534005" lon="12.21076249376734"><ele>234.0</ele><time>2026-04-25T04:27:30.995Z</time></trkpt><trkpt lat="45.87109248874153" lon="12.210671251889643"><ele>236.5</ele><time>2026-04-25T04:27:31.995Z</time></trkpt><trkpt lat="45.87114294623949" lon="12.210581541073648"><ele>239.0</ele><time>2026-04-25T04:27:32.995Z</time></trkpt><trkpt lat="45.871182936991524" lon="12.210496791117775"><ele>241.49999999999997</ele><time>2026-04-25T04:27:33.995Z</time></trkpt><trkpt lat="45.87122705513028" lon="12.210401123391144"><ele>244.0</ele><time>2026-04-25T04:27:34.995Z</time></trkpt><trkpt lat="45.87126289924488" lon="12.210306452544087"><ele>243.99999999999997</ele><time>2026-04-25T04:27:35.995Z</time></trkpt><trkpt lat="45.87128656951387" lon="12.210206194980733"><ele>244.0</ele><time>2026-04-25T04:27:36.995Z</time></trkpt><trkpt lat="45.87128606219849" lon="12.210099046519325"><ele>244.0</ele><time>2026-04-25T04:27:37.995Z</time></trkpt><trkpt lat="45.87126552087142" lon="12.209994778883722"><ele>244.0</ele><time>2026-04-25T04:27:38.995Z</time></trkpt><trkpt lat="45.87121288105039" lon="12.209903235214457"><ele>243.99999999999997</ele><time>2026-04-25T04:27:39.995Z</time></trkpt><trkpt lat="45.871141634729014" lon="12.209826345762261"><ele>244.0</ele><time>2026-04-25T04:27:40.995Z</time></trkpt><trkpt lat="45.87108621068669" lon="12.209747901447503"><ele>243.33333333333331</ele><time>2026-04-25T04:27:41.995Z</time></trkpt><trkpt lat="45.8710519269689" lon="12.209658681206083"><ele>242.66666666666666</ele><time>2026-04-25T04:27:42.995Z</time></trkpt><trkpt lat="45.87103188288576" lon="12.20955899858472"><ele>242.0</ele><time>2026-04-25T04:27:43.995Z</time></trkpt><trkpt lat="45.871018287115156" lon="12.209450100067384"><ele>241.33333333333331</ele><time>2026-04-25T04:27:44.995Z</time></trkpt><trkpt lat="45.87101735482568" lon="12.209328223108452"><ele>240.66666666666666</ele><time>2026-04-25T04:27:45.995Z</time></trkpt><trkpt lat="45.871012451987454" lon="12.209202573390435"><ele>240.0</ele><time>2026-04-25T04:27:46.995Z</time></trkpt><trkpt lat="45.871020444038486" lon="12.209080041277947"><ele>240.16666666666666</ele><time>2026-04-25T04:27:47.995Z</time></trkpt><trkpt lat="45.871016990663584" lon="12.208968851288382"><ele>240.33333333333331</ele><time>2026-04-25T04:27:48.995Z</time></trkpt><trkpt lat="45.87101169232973" lon="12.208842980011143"><ele>240.5</ele><time>2026-04-25T04:27:49.995Z</time></trkpt><trkpt lat="45.87098056730622" lon="12.208716226147699"><ele>240.66666666666666</ele><time>2026-04-25T04:27:50.995Z</time></trkpt><trkpt lat="45.870938292906494" lon="12.20859692949841"><ele>240.83333333333331</ele><time>2026-04-25T04:27:51.995Z</time></trkpt><trkpt lat="45.870886624400576" lon="12.208487532886979"><ele>241.0</ele><time>2026-04-25T04:27:52.995Z</time></trkpt><trkpt lat="45.87084600860925" lon="12.2083623369909"><ele>238.60000000000002</ele><time>2026-04-25T04:27:53.995Z</time></trkpt><trkpt lat="45.8708026082542" lon="12.208237823753139"><ele>236.20000000000002</ele><time>2026-04-25T04:27:54.995Z</time></trkpt><trkpt lat="45.870763528733065" lon="12.208109683340144"><ele>233.79999999999998</ele><time>2026-04-25T04:27:55.995Z</time></trkpt><trkpt lat="45.87072832089328" lon="12.207972865362006"><ele>231.39999999999998</ele><time>2026-04-25T04:27:56.996Z</time></trkpt><trkpt lat="45.87068835623793" lon="12.207839353784701"><ele>229.0</ele><time>2026-04-25T04:27:57.996Z</time></trkpt><trkpt lat="45.87064982683804" lon="12.207700562832999"><ele>228.99999999999997</ele><time>2026-04-25T04:27:58.996Z</time></trkpt><trkpt lat="45.87059691329984" lon="12.207581329804414"><ele>229.0</ele><time>2026-04-25T04:27:59.996Z</time></trkpt><trkpt lat="45.87055160946512" lon="12.20745959061707"><ele>229.0</ele><time>2026-04-25T04:28:00.997Z</time></trkpt><trkpt lat="45.87051691573169" lon="12.207349250112642"><ele>229.0</ele><time>2026-04-25T04:28:01.997Z</time></trkpt><trkpt lat="45.870485357114" lon="12.207260192358916"><ele>228.99999999999997</ele><time>2026-04-25T04:28:02.996Z</time></trkpt><trkpt lat="45.870469783128854" lon="12.20717054586529"><ele>229.0</ele><time>2026-04-25T04:28:03.996Z</time></trkpt><trkpt lat="45.870465029972515" lon="12.207073392748145"><ele>228.99999999999997</ele><time>2026-04-25T04:28:04.996Z</time></trkpt><trkpt lat="45.870475480971116" lon="12.206965723760511"><ele>229.0</ele><time>2026-04-25T04:28:05.996Z</time></trkpt><trkpt lat="45.8705005331503" lon="12.206850533886223"><ele>229.0</ele><time>2026-04-25T04:28:06.997Z</time></trkpt><trkpt lat="45.8705385016007" lon="12.206743270427413"><ele>229.0</ele><time>2026-04-25T04:28:07.997Z</time></trkpt><trkpt lat="45.870573379579966" lon="12.206628891422625"><ele>228.99999999999997</ele><time>2026-04-25T04:28:08.996Z</time></trkpt><trkpt lat="45.870603720134035" lon="12.206506216798525"><ele>229.0</ele><time>2026-04-25T04:28:09.996Z</time></trkpt><trkpt lat="45.870648331175225" lon="12.206382512301301"><ele>227.66666666666666</ele><time>2026-04-25T04:28:10.996Z</time></trkpt><trkpt lat="45.87068932121533" lon="12.206248973903461"><ele>226.33333333333331</ele><time>2026-04-25T04:28:11.996Z</time></trkpt><trkpt lat="45.870730974588945" lon="12.206127606427582"><ele>225.0</ele><time>2026-04-25T04:28:12.996Z</time></trkpt><trkpt lat="45.87076599596791" lon="12.206009654064275"><ele>223.66666666666669</ele><time>2026-04-25T04:28:13.996Z</time></trkpt><trkpt lat="45.8707824455151" lon="12.205900819330683"><ele>222.33333333333334</ele><time>2026-04-25T04:28:14.996Z</time></trkpt><trkpt lat="45.870776889957305" lon="12.205786741222555"><ele>221.0</ele><time>2026-04-25T04:28:15.996Z</time></trkpt><trkpt lat="45.87076499767793" lon="12.205680380672312"><ele>221.66666666666669</ele><time>2026-04-25T04:28:16.996Z</time></trkpt><trkpt lat="45.87073444275993" lon="12.205580274084562"><ele>222.33333333333334</ele><time>2026-04-25T04:28:17.996Z</time></trkpt><trkpt lat="45.87069121663086" lon="12.205483101791023"><ele>223.0</ele><time>2026-04-25T04:28:18.996Z</time></trkpt><trkpt lat="45.870641030835294" lon="12.205397291154416"><ele>223.66666666666669</ele><time>2026-04-25T04:28:19.996Z</time></trkpt><trkpt lat="45.87058354245455" lon="12.205291990516336"><ele>224.33333333333334</ele><time>2026-04-25T04:28:20.996Z</time></trkpt><trkpt lat="45.87052143675504" lon="12.205201998792463"><ele>225.0</ele><time>2026-04-25T04:28:21.996Z</time></trkpt><trkpt lat="45.87046170654808" lon="12.205106865169121"><ele>225.0</ele><time>2026-04-25T04:28:22.996Z</time></trkpt><trkpt lat="45.87040862881246" lon="12.205007826499497"><ele>225.0</ele><time>2026-04-25T04:28:23.996Z</time></trkpt><trkpt lat="45.87034350177315" lon="12.204914757942209"><ele>225.0</ele><time>2026-04-25T04:28:24.996Z</time></trkpt><trkpt lat="45.87028138158489" lon="12.20483038470469"><ele>225.0</ele><time>2026-04-25T04:28:25.996Z</time></trkpt><trkpt lat="45.8702139113838" lon="12.2047654562991"><ele>225.0</ele><time>2026-04-25T04:28:26.996Z</time></trkpt><trkpt lat="45.87014610533934" lon="12.204696178408055"><ele>225.0</ele><time>2026-04-25T04:28:27.996Z</time></trkpt><trkpt lat="45.87008122485965" lon="12.204610727195641"><ele>224.16666666666666</ele><time>2026-04-25T04:28:28.996Z</time></trkpt><trkpt lat="45.87002485859774" lon="12.204523017843732"><ele>223.33333333333331</ele><time>2026-04-25T04:28:29.996Z</time></trkpt><trkpt lat="45.869966207736255" lon="12.204433750398675"><ele>222.5</ele><time>2026-04-25T04:28:30.996Z</time></trkpt><trkpt lat="45.869900814404915" lon="12.204363182150972"><ele>221.66666666666666</ele><time>2026-04-25T04:28:31.996Z</time></trkpt><trkpt lat="45.86982828761896" lon="12.204313791914407"><ele>220.83333333333331</ele><time>2026-04-25T04:28:32.996Z</time></trkpt><trkpt lat="45.8697489811861" lon="12.204283185789645"><ele>220.0</ele><time>2026-04-25T04:28:33.996Z</time></trkpt><trkpt lat="45.86966301187172" lon="12.204284479519371"><ele>219.99999999999997</ele><time>2026-04-25T04:28:34.996Z</time></trkpt><trkpt lat="45.86957625953759" lon="12.204309953164016"><ele>220.0</ele><time>2026-04-25T04:28:35.996Z</time></trkpt><trkpt lat="45.869492573998116" lon="12.204350572799564"><ele>220.0</ele><time>2026-04-25T04:28:36.996Z</time></trkpt><trkpt lat="45.86941545029752" lon="12.204405780414561"><ele>220.0</ele><time>2026-04-25T04:28:37.996Z</time></trkpt><trkpt lat="45.869340280682025" lon="12.204462241196357"><ele>219.99999999999997</ele><time>2026-04-25T04:28:38.996Z</time></trkpt><trkpt lat="45.86926294018913" lon="12.20450690738628"><ele>220.0</ele><time>2026-04-25T04:28:39.996Z</time></trkpt><trkpt lat="45.869190786707826" lon="12.204548204751518"><ele>220.57142857142856</ele><time>2026-04-25T04:28:40.995Z</time></trkpt><trkpt lat="45.86912321165256" lon="12.204581996640885"><ele>221.14285714285714</ele><time>2026-04-25T04:28:41.995Z</time></trkpt><trkpt lat="45.86904962991742" lon="12.204622279682807"><ele>221.71428571428572</ele><time>2026-04-25T04:28:42.995Z</time></trkpt><trkpt lat="45.8689809813334" lon="12.204671506877897"><ele>222.28571428571428</ele><time>2026-04-25T04:28:43.995Z</time></trkpt><trkpt lat="45.86892037444695" lon="12.20471056109881"><ele>222.85714285714286</ele><time>2026-04-25T04:28:44.995Z</time></trkpt><trkpt lat="45.86885744850486" lon="12.20474759936821"><ele>223.42857142857142</ele><time>2026-04-25T04:28:45.995Z</time></trkpt><trkpt lat="45.868796065840364" lon="12.204784484967872"><ele>224.0</ele><time>2026-04-25T04:28:46.995Z</time></trkpt><trkpt lat="45.86867368294776" lon="12.204837224725022"><ele>224.00000000000003</ele><time>2026-04-25T04:28:48.995Z</time></trkpt><trkpt lat="45.868600532317465" lon="12.204843524013585"><ele>224.0</ele><time>2026-04-25T04:28:49.995Z</time></trkpt><trkpt lat="45.868527905910206" lon="12.20482075742549"><ele>224.0</ele><time>2026-04-25T04:28:50.995Z</time></trkpt><trkpt lat="45.86847414265649" lon="12.204773169843914"><ele>224.0</ele><time>2026-04-25T04:28:51.995Z</time></trkpt><trkpt lat="45.868382970277715" lon="12.20465910946541"><ele>224.00000000000003</ele><time>2026-04-25T04:28:53.995Z</time></trkpt><trkpt lat="45.868356279144585" lon="12.204566834552905"><ele>224.0</ele><time>2026-04-25T04:28:54.995Z</time></trkpt><trkpt lat="45.86834581548844" lon="12.204462770910203"><ele>222.33333333333334</ele><time>2026-04-25T04:28:55.995Z</time></trkpt><trkpt lat="45.86833679042767" lon="12.204352096024609"><ele>220.66666666666669</ele><time>2026-04-25T04:28:56.995Z</time></trkpt><trkpt lat="45.86832480197165" lon="12.204234098697818"><ele>219.0</ele><time>2026-04-25T04:28:57.995Z</time></trkpt><trkpt lat="45.868314026786216" lon="12.204114713459623"><ele>217.33333333333331</ele><time>2026-04-25T04:28:58.995Z</time></trkpt><trkpt lat="45.86830562462742" lon="12.203987626514248"><ele>215.66666666666666</ele><time>2026-04-25T04:28:59.995Z</time></trkpt><trkpt lat="45.86830263658487" lon="12.20385642339493"><ele>214.0</ele><time>2026-04-25T04:29:00.995Z</time></trkpt><trkpt lat="45.86831663657417" lon="12.203711318188425"><ele>212.79999999999998</ele><time>2026-04-25T04:29:01.995Z</time></trkpt><trkpt lat="45.86834120988442" lon="12.203578337447132"><ele>211.59999999999997</ele><time>2026-04-25T04:29:02.995Z</time></trkpt><trkpt lat="45.86836338774782" lon="12.203450811622144"><ele>210.4</ele><time>2026-04-25T04:29:03.995Z</time></trkpt><trkpt lat="45.86838858109042" lon="12.203322658563462"><ele>209.2</ele><time>2026-04-25T04:29:04.995Z</time></trkpt><trkpt lat="45.86840961830546" lon="12.203197220729443"><ele>208.0</ele><time>2026-04-25T04:29:05.995Z</time></trkpt><trkpt lat="45.86843499602069" lon="12.203064990970011"><ele>210.2</ele><time>2026-04-25T04:29:06.995Z</time></trkpt><trkpt lat="45.86846379616292" lon="12.202936441737606"><ele>212.4</ele><time>2026-04-25T04:29:07.995Z</time></trkpt><trkpt lat="45.868485262818275" lon="12.202806060917876"><ele>214.59999999999997</ele><time>2026-04-25T04:29:08.995Z</time></trkpt><trkpt lat="45.86850181059172" lon="12.202673197281348"><ele>216.79999999999998</ele><time>2026-04-25T04:29:09.995Z</time></trkpt><trkpt lat="45.868512819779276" lon="12.202544182445196"><ele>219.0</ele><time>2026-04-25T04:29:10.995Z</time></trkpt><trkpt lat="45.868520229432086" lon="12.202406547697286"><ele>216.79999999999998</ele><time>2026-04-25T04:29:11.995Z</time></trkpt><trkpt lat="45.868534964823446" lon="12.202272254226548"><ele>214.59999999999997</ele><time>2026-04-25T04:29:12.995Z</time></trkpt><trkpt lat="45.868551495896625" lon="12.202142636080971"><ele>212.4</ele><time>2026-04-25T04:29:13.995Z</time></trkpt><trkpt lat="45.868570225345685" lon="12.202011812989443"><ele>210.2</ele><time>2026-04-25T04:29:14.995Z</time></trkpt><trkpt lat="45.868587903570344" lon="12.20188181606006"><ele>208.0</ele><time>2026-04-25T04:29:15.995Z</time></trkpt><trkpt lat="45.86861469178876" lon="12.201759092533912"><ele>208.0</ele><time>2026-04-25T04:29:16.995Z</time></trkpt><trkpt lat="45.8686461921291" lon="12.201633029061266"><ele>208.0</ele><time>2026-04-25T04:29:17.995Z</time></trkpt><trkpt lat="45.86867912537462" lon="12.201507857781667"><ele>208.0</ele><time>2026-04-25T04:29:18.995Z</time></trkpt><trkpt lat="45.868710413914954" lon="12.201381768777212"><ele>208.0</ele><time>2026-04-25T04:29:19.995Z</time></trkpt><trkpt lat="45.868724761062175" lon="12.201258876915661"><ele>208.0</ele><time>2026-04-25T04:29:20.995Z</time></trkpt><trkpt lat="45.86875435100027" lon="12.201130715948594"><ele>207.33333333333331</ele><time>2026-04-25T04:29:21.995Z</time></trkpt><trkpt lat="45.868782071619066" lon="12.201015004934023"><ele>206.66666666666666</ele><time>2026-04-25T04:29:22.995Z</time></trkpt><trkpt lat="45.86881585340379" lon="12.200896931213281"><ele>206.0</ele><time>2026-04-25T04:29:23.995Z</time></trkpt><trkpt lat="45.86885094261066" lon="12.20077835102761"><ele>205.33333333333331</ele><time>2026-04-25T04:29:24.995Z</time></trkpt><trkpt lat="45.86888723302889" lon="12.200665069747927"><ele>204.66666666666666</ele><time>2026-04-25T04:29:25.995Z</time></trkpt><trkpt lat="45.86892889210554" lon="12.200552031190146"><ele>204.0</ele><time>2026-04-25T04:29:26.995Z</time></trkpt><trkpt lat="45.86897437150272" lon="12.200438230020922"><ele>204.0</ele><time>2026-04-25T04:29:27.995Z</time></trkpt><trkpt lat="45.869040050133826" lon="12.200340699401968"><ele>204.0</ele><time>2026-04-25T04:29:28.995Z</time></trkpt><trkpt lat="45.869099372306756" lon="12.200244772227219"><ele>204.0</ele><time>2026-04-25T04:29:29.995Z</time></trkpt><trkpt lat="45.86915964947695" lon="12.20015658443856"><ele>204.0</ele><time>2026-04-25T04:29:30.995Z</time></trkpt><trkpt lat="45.86922933638786" lon="12.200066410806132"><ele>204.0</ele><time>2026-04-25T04:29:31.995Z</time></trkpt><trkpt lat="45.8692996473582" lon="12.199960361911023"><ele>202.0</ele><time>2026-04-25T04:29:32.995Z</time></trkpt><trkpt lat="45.86938392091889" lon="12.199883325659478"><ele>200.0</ele><time>2026-04-25T04:29:33.995Z</time></trkpt><trkpt lat="45.869468281260566" lon="12.199840778466141"><ele>198.0</ele><time>2026-04-25T04:29:34.995Z</time></trkpt><trkpt lat="45.86953222792637" lon="12.199830019295199"><ele>196.0</ele><time>2026-04-25T04:29:35.995Z</time></trkpt><trkpt lat="45.86961037817383" lon="12.199730641850584"><ele>194.0</ele><time>2026-04-25T04:29:37.995Z</time></trkpt><trkpt lat="45.86962280468443" lon="12.19963328873437"><ele>192.0</ele><time>2026-04-25T04:29:38.995Z</time></trkpt><trkpt lat="45.86960781906122" lon="12.199521120942368"><ele>191.14285714285714</ele><time>2026-04-25T04:29:39.995Z</time></trkpt><trkpt lat="45.869595740573" lon="12.199420197901688"><ele>190.28571428571428</ele><time>2026-04-25T04:29:40.995Z</time></trkpt><trkpt lat="45.86958203505666" lon="12.19931445829869"><ele>189.42857142857144</ele><time>2026-04-25T04:29:41.995Z</time></trkpt><trkpt lat="45.8695737983953" lon="12.199212582375837"><ele>188.57142857142856</ele><time>2026-04-25T04:29:42.995Z</time></trkpt><trkpt lat="45.86956896044467" lon="12.199103402236487"><ele>187.71428571428572</ele><time>2026-04-25T04:29:43.995Z</time></trkpt><trkpt lat="45.86955700029787" lon="12.19899764633435"><ele>186.85714285714286</ele><time>2026-04-25T04:29:44.995Z</time></trkpt><trkpt lat="45.869551156166835" lon="12.198894780805194"><ele>186.0</ele><time>2026-04-25T04:29:45.995Z</time></trkpt><trkpt lat="45.869541471983226" lon="12.198780382678333"><ele>185.57142857142858</ele><time>2026-04-25T04:29:46.995Z</time></trkpt><trkpt lat="45.86953901326057" lon="12.198674234164379"><ele>185.14285714285714</ele><time>2026-04-25T04:29:47.995Z</time></trkpt><trkpt lat="45.86953280432976" lon="12.198554979355086"><ele>184.71428571428572</ele><time>2026-04-25T04:29:48.995Z</time></trkpt><trkpt lat="45.86952985292479" lon="12.198442789915653"><ele>184.28571428571428</ele><time>2026-04-25T04:29:49.994Z</time></trkpt><trkpt lat="45.869521729368586" lon="12.198338601273667"><ele>183.85714285714286</ele><time>2026-04-25T04:29:50.994Z</time></trkpt><trkpt lat="45.869502296329344" lon="12.19825047246582"><ele>183.42857142857144</ele><time>2026-04-25T04:29:51.994Z</time></trkpt><trkpt lat="45.86946838068621" lon="12.198152175982186"><ele>183.0</ele><time>2026-04-25T04:29:52.994Z</time></trkpt><trkpt lat="45.86942301437287" lon="12.198049382568131"><ele>182.33333333333334</ele><time>2026-04-25T04:29:53.994Z</time></trkpt><trkpt lat="45.8693958762722" lon="12.197949304586523"><ele>181.66666666666666</ele><time>2026-04-25T04:29:54.994Z</time></trkpt><trkpt lat="45.86936043369525" lon="12.197850156368592"><ele>181.0</ele><time>2026-04-25T04:29:55.994Z</time></trkpt><trkpt lat="45.8693255034594" lon="12.197744809884908"><ele>180.33333333333331</ele><time>2026-04-25T04:29:56.994Z</time></trkpt><trkpt lat="45.86928836641917" lon="12.197638752293804"><ele>179.66666666666666</ele><time>2026-04-25T04:29:57.994Z</time></trkpt><trkpt lat="45.86923794410441" lon="12.197495648602933"><ele>179.0</ele><time>2026-04-25T04:29:59.994Z</time></trkpt><trkpt lat="45.86915920799919" lon="12.197402543856168"><ele>180.83333333333331</ele><time>2026-04-25T04:30:01.994Z</time></trkpt><trkpt lat="45.86907900961848" lon="12.19737945633035"><ele>182.66666666666666</ele><time>2026-04-25T04:30:03.996Z</time></trkpt><trkpt lat="45.86900926065092" lon="12.19735121448842"><ele>184.5</ele><time>2026-04-25T04:30:05.996Z</time></trkpt><trkpt lat="45.868938576378554" lon="12.197335238165806"><ele>186.33333333333334</ele><time>2026-04-25T04:30:07.996Z</time></trkpt><trkpt lat="45.86884821390731" lon="12.197308668381657"><ele>188.16666666666669</ele><time>2026-04-25T04:30:09.996Z</time></trkpt><trkpt lat="45.86878179285115" lon="12.197295471495492"><ele>190.0</ele><time>2026-04-25T04:30:10.996Z</time></trkpt><trkpt lat="45.86871056004271" lon="12.1972736238426"><ele>190.0</ele><time>2026-04-25T04:30:12.996Z</time></trkpt><trkpt lat="45.868619219654754" lon="12.197248419191586"><ele>190.0</ele><time>2026-04-25T04:30:14.996Z</time></trkpt><trkpt lat="45.86853523941707" lon="12.197238730633027"><ele>190.0</ele><time>2026-04-25T04:30:16.996Z</time></trkpt><trkpt lat="45.86843176346173" lon="12.197225210884344"><ele>190.0</ele><time>2026-04-25T04:30:18.996Z</time></trkpt><trkpt lat="45.8683463506499" lon="12.197199973651989"><ele>190.0</ele><time>2026-04-25T04:30:20.996Z</time></trkpt><trkpt lat="45.86827045839898" lon="12.197176674541652"><ele>190.0</ele><time>2026-04-25T04:30:22.996Z</time></trkpt><trkpt lat="45.86819760048753" lon="12.197159918681894"><ele>190.6</ele><time>2026-04-25T04:30:24.996Z</time></trkpt><trkpt lat="45.86807692441026" lon="12.197153246401372"><ele>191.2</ele><time>2026-04-25T04:30:26.996Z</time></trkpt><trkpt lat="45.86800460597596" lon="12.197155782731343"><ele>191.8</ele><time>2026-04-25T04:30:27.996Z</time></trkpt><trkpt lat="45.867883489372716" lon="12.197118279780097"><ele>192.4</ele><time>2026-04-25T04:30:29.996Z</time></trkpt><trkpt lat="45.86777262457468" lon="12.197086524309917"><ele>193.0</ele><time>2026-04-25T04:30:31.996Z</time></trkpt><trkpt lat="45.867658301194325" lon="12.197062919720352"><ele>193.4</ele><time>2026-04-25T04:30:33.996Z</time></trkpt><trkpt lat="45.867557045260035" lon="12.19703752956515"><ele>193.8</ele><time>2026-04-25T04:30:35.996Z</time></trkpt><trkpt lat="45.867460317026136" lon="12.197025209490743"><ele>194.2</ele><time>2026-04-25T04:30:37.996Z</time></trkpt><trkpt lat="45.867366673525794" lon="12.196998311655072"><ele>194.6</ele><time>2026-04-25T04:30:39.996Z</time></trkpt><trkpt lat="45.86727604015797" lon="12.196975767509322"><ele>195.0</ele><time>2026-04-25T04:30:41.996Z</time></trkpt><trkpt lat="45.86719635978419" lon="12.196954987709828"><ele>195.0</ele><time>2026-04-25T04:30:43.996Z</time></trkpt><trkpt lat="45.867112205871095" lon="12.196933908633625"><ele>195.0</ele><time>2026-04-25T04:30:45.996Z</time></trkpt><trkpt lat="45.867032980772514" lon="12.196914956263617"><ele>195.0</ele><time>2026-04-25T04:30:47.996Z</time></trkpt><trkpt lat="45.86694997124758" lon="12.196892739625389"><ele>195.0</ele><time>2026-04-25T04:30:49.996Z</time></trkpt><trkpt lat="45.86686247203427" lon="12.196876557699428"><ele>195.0</ele><time>2026-04-25T04:30:51.996Z</time></trkpt><trkpt lat="45.86676468171505" lon="12.196869124614206"><ele>195.0</ele><time>2026-04-25T04:30:53.996Z</time></trkpt><trkpt lat="45.866672110765165" lon="12.1968581979186"><ele>196.8</ele><time>2026-04-25T04:30:55.996Z</time></trkpt><trkpt lat="45.866565006295765" lon="12.196861046013458"><ele>198.6</ele><time>2026-04-25T04:30:57.995Z</time></trkpt><trkpt lat="45.86644537031518" lon="12.196885255955918"><ele>200.39999999999998</ele><time>2026-04-25T04:30:59.995Z</time></trkpt><trkpt lat="45.866320329272995" lon="12.196902971711857"><ele>202.2</ele><time>2026-04-25T04:31:01.995Z</time></trkpt><trkpt lat="45.86625762109655" lon="12.196921210279408"><ele>204.0</ele><time>2026-04-25T04:31:02.995Z</time></trkpt><trkpt lat="45.866130950833515" lon="12.196985334169273"><ele>204.0</ele><time>2026-04-25T04:31:04.995Z</time></trkpt><trkpt lat="45.8660574874519" lon="12.197010130482763"><ele>204.0</ele><time>2026-04-25T04:31:05.995Z</time></trkpt><trkpt lat="45.86598829381929" lon="12.197035047429194"><ele>204.0</ele><time>2026-04-25T04:31:06.995Z</time></trkpt><trkpt lat="45.86591233862609" lon="12.197059827755025"><ele>204.0</ele><time>2026-04-25T04:31:07.995Z</time></trkpt><trkpt lat="45.865838268973796" lon="12.19708022805481"><ele>204.0</ele><time>2026-04-25T04:31:08.995Z</time></trkpt><trkpt lat="45.86576893384878" lon="12.197095323318976"><ele>204.0</ele><time>2026-04-25T04:31:09.995Z</time></trkpt><trkpt lat="45.86569562514944" lon="12.197124424201993"><ele>204.0</ele><time>2026-04-25T04:31:10.995Z</time></trkpt><trkpt lat="45.86561616531996" lon="12.19715549145381"><ele>204.0</ele><time>2026-04-25T04:31:11.995Z</time></trkpt><trkpt lat="45.86554065969479" lon="12.197188082655714"><ele>204.0</ele><time>2026-04-25T04:31:12.995Z</time></trkpt><trkpt lat="45.86546333473985" lon="12.1972154667245"><ele>204.0</ele><time>2026-04-25T04:31:13.995Z</time></trkpt><trkpt lat="45.86538166342" lon="12.197245710738686"><ele>204.0</ele><time>2026-04-25T04:31:14.995Z</time></trkpt><trkpt lat="45.865298538026394" lon="12.197273913363277"><ele>204.0</ele><time>2026-04-25T04:31:15.995Z</time></trkpt><trkpt lat="45.865212971779215" lon="12.197309458080996"><ele>204.0</ele><time>2026-04-25T04:31:16.995Z</time></trkpt><trkpt lat="45.86512825498131" lon="12.197337941758626"><ele>203.83333333333334</ele><time>2026-04-25T04:31:17.995Z</time></trkpt><trkpt lat="45.86505201174782" lon="12.197367589091904"><ele>203.66666666666669</ele><time>2026-04-25T04:31:18.995Z</time></trkpt><trkpt lat="45.86497825309163" lon="12.197398502305532"><ele>203.5</ele><time>2026-04-25T04:31:19.995Z</time></trkpt><trkpt lat="45.86489503965774" lon="12.197430598618338"><ele>203.33333333333334</ele><time>2026-04-25T04:31:20.995Z</time></trkpt><trkpt lat="45.86480799271773" lon="12.197454825639046"><ele>203.16666666666669</ele><time>2026-04-25T04:31:21.995Z</time></trkpt><trkpt lat="45.864722467580336" lon="12.19748086655163"><ele>203.0</ele><time>2026-04-25T04:31:22.995Z</time></trkpt><trkpt lat="45.864643534024474" lon="12.197513808749912"><ele>203.00000000000003</ele><time>2026-04-25T04:31:23.995Z</time></trkpt><trkpt lat="45.86456156093694" lon="12.197552471978309"><ele>203.0</ele><time>2026-04-25T04:31:24.995Z</time></trkpt><trkpt lat="45.86448304098429" lon="12.197586062800026"><ele>203.0</ele><time>2026-04-25T04:31:25.995Z</time></trkpt><trkpt lat="45.864399155167725" lon="12.197621903985608"><ele>203.0</ele><time>2026-04-25T04:31:26.995Z</time></trkpt><trkpt lat="45.86431030696843" lon="12.197652474308141"><ele>203.00000000000003</ele><time>2026-04-25T04:31:27.995Z</time></trkpt><trkpt lat="45.864217632942456" lon="12.19766191433609"><ele>203.0</ele><time>2026-04-25T04:31:28.995Z</time></trkpt><trkpt lat="45.864130595693204" lon="12.197637113838933"><ele>201.2</ele><time>2026-04-25T04:31:29.995Z</time></trkpt><trkpt lat="45.86404258097158" lon="12.19760033525401"><ele>199.4</ele><time>2026-04-25T04:31:30.995Z</time></trkpt><trkpt lat="45.86396487499818" lon="12.197536840724023"><ele>197.6</ele><time>2026-04-25T04:31:31.995Z</time></trkpt><trkpt lat="45.86388250490929" lon="12.197449639338917"><ele>195.79999999999998</ele><time>2026-04-25T04:31:32.995Z</time></trkpt><trkpt lat="45.863801072896244" lon="12.19735440595288"><ele>194.0</ele><time>2026-04-25T04:31:33.995Z</time></trkpt><trkpt lat="45.86371911086406" lon="12.197256440705946"><ele>194.0</ele><time>2026-04-25T04:31:34.995Z</time></trkpt><trkpt lat="45.863662892030696" lon="12.197161542239352"><ele>194.0</ele><time>2026-04-25T04:31:35.995Z</time></trkpt><trkpt lat="45.863592179624625" lon="12.197071611151785"><ele>194.0</ele><time>2026-04-25T04:31:36.995Z</time></trkpt><trkpt lat="45.86351899013778" lon="12.196974273955615"><ele>194.0</ele><time>2026-04-25T04:31:37.995Z</time></trkpt><trkpt lat="45.863447531107056" lon="12.196888047551692"><ele>194.0</ele><time>2026-04-25T04:31:38.995Z</time></trkpt><trkpt lat="45.86337598299658" lon="12.196807195898746"><ele>194.39999999999998</ele><time>2026-04-25T04:31:39.995Z</time></trkpt><trkpt lat="45.863309901700006" lon="12.196717719723614"><ele>194.8</ele><time>2026-04-25T04:31:40.995Z</time></trkpt><trkpt lat="45.86323458746652" lon="12.196633854577966"><ele>195.2</ele><time>2026-04-25T04:31:41.995Z</time></trkpt><trkpt lat="45.863154987469024" lon="12.196572400136098"><ele>195.60000000000002</ele><time>2026-04-25T04:31:42.995Z</time></trkpt><trkpt lat="45.86306569540029" lon="12.196538237929667"><ele>196.0</ele><time>2026-04-25T04:31:43.995Z</time></trkpt><trkpt lat="45.86296958730049" lon="12.196525097503061"><ele>196.0</ele><time>2026-04-25T04:31:44.995Z</time></trkpt><trkpt lat="45.86288441747986" lon="12.19653292160356"><ele>196.0</ele><time>2026-04-25T04:31:45.995Z</time></trkpt><trkpt lat="45.86279585569544" lon="12.196554258506529"><ele>196.0</ele><time>2026-04-25T04:31:46.995Z</time></trkpt><trkpt lat="45.862709567620925" lon="12.196588680554395"><ele>196.0</ele><time>2026-04-25T04:31:47.995Z</time></trkpt><trkpt lat="45.8626144617945" lon="12.196616046213173"><ele>196.0</ele><time>2026-04-25T04:31:48.995Z</time></trkpt><trkpt lat="45.86251551195627" lon="12.196653317361067"><ele>195.60000000000002</ele><time>2026-04-25T04:31:49.995Z</time></trkpt><trkpt lat="45.86242318144859" lon="12.196702978409546"><ele>195.2</ele><time>2026-04-25T04:31:50.995Z</time></trkpt><trkpt lat="45.86233216759303" lon="12.196765902333485"><ele>194.8</ele><time>2026-04-25T04:31:51.995Z</time></trkpt><trkpt lat="45.86224183088559" lon="12.19683140037133"><ele>194.39999999999998</ele><time>2026-04-25T04:31:52.995Z</time></trkpt><trkpt lat="45.86214932946999" lon="12.19689468440997"><ele>194.0</ele><time>2026-04-25T04:31:53.995Z</time></trkpt><trkpt lat="45.86205198034234" lon="12.196961114101258"><ele>194.0</ele><time>2026-04-25T04:31:54.995Z</time></trkpt><trkpt lat="45.86195884840611" lon="12.19702552985845"><ele>194.0</ele><time>2026-04-25T04:31:55.995Z</time></trkpt><trkpt lat="45.861863178454804" lon="12.19709453716155"><ele>194.0</ele><time>2026-04-25T04:31:56.995Z</time></trkpt><trkpt lat="45.86177055237183" lon="12.19716310124806"><ele>194.0</ele><time>2026-04-25T04:31:57.995Z</time></trkpt><trkpt lat="45.861675844040946" lon="12.197227669111188"><ele>194.0</ele><time>2026-04-25T04:31:58.995Z</time></trkpt><trkpt lat="45.86158312517309" lon="12.197291932445976"><ele>193.6</ele><time>2026-04-25T04:31:59.995Z</time></trkpt><trkpt lat="45.86148787002566" lon="12.1973531462213"><ele>193.2</ele><time>2026-04-25T04:32:00.995Z</time></trkpt><trkpt lat="45.86139567042434" lon="12.197423162231418"><ele>192.79999999999998</ele><time>2026-04-25T04:32:01.995Z</time></trkpt><trkpt lat="45.86130798603647" lon="12.197486223778359"><ele>192.39999999999998</ele><time>2026-04-25T04:32:02.995Z</time></trkpt><trkpt lat="45.86121785492445" lon="12.197555596187687"><ele>192.0</ele><time>2026-04-25T04:32:03.995Z</time></trkpt><trkpt lat="45.86112837072526" lon="12.197617677500597"><ele>192.0</ele><time>2026-04-25T04:32:04.995Z</time></trkpt><trkpt lat="45.861039246106955" lon="12.19768118367559"><ele>192.0</ele><time>2026-04-25T04:32:05.994Z</time></trkpt><trkpt lat="45.86095677628584" lon="12.197736914279448"><ele>192.0</ele><time>2026-04-25T04:32:06.994Z</time></trkpt><trkpt lat="45.860872783998694" lon="12.197795049908818"><ele>192.0</ele><time>2026-04-25T04:32:07.994Z</time></trkpt><trkpt lat="45.8607865056194" lon="12.197857085452029"><ele>192.0</ele><time>2026-04-25T04:32:08.995Z</time></trkpt><trkpt lat="45.8606961465371" lon="12.197921532055485"><ele>191.39999999999998</ele><time>2026-04-25T04:32:09.996Z</time></trkpt><trkpt lat="45.86060820641828" lon="12.197995068505692"><ele>190.79999999999998</ele><time>2026-04-25T04:32:10.996Z</time></trkpt><trkpt lat="45.86052261967987" lon="12.198056530600578"><ele>190.2</ele><time>2026-04-25T04:32:11.995Z</time></trkpt><trkpt lat="45.8604372260831" lon="12.198132948149347"><ele>189.6</ele><time>2026-04-25T04:32:12.995Z</time></trkpt><trkpt lat="45.86034556747682" lon="12.198194704667033"><ele>189.0</ele><time>2026-04-25T04:32:13.995Z</time></trkpt><trkpt lat="45.860271391937765" lon="12.19827356487279"><ele>188.6</ele><time>2026-04-25T04:32:14.995Z</time></trkpt><trkpt lat="45.860187958646115" lon="12.19835421302296"><ele>188.2</ele><time>2026-04-25T04:32:15.995Z</time></trkpt><trkpt lat="45.860104720999374" lon="12.198418546852865"><ele>187.79999999999998</ele><time>2026-04-25T04:32:16.995Z</time></trkpt><trkpt lat="45.86002618088436" lon="12.198484233060613"><ele>187.39999999999998</ele><time>2026-04-25T04:32:17.995Z</time></trkpt><trkpt lat="45.859942278360926" lon="12.198546656333953"><ele>187.0</ele><time>2026-04-25T04:32:18.995Z</time></trkpt><trkpt lat="45.85985417854919" lon="12.198611183370954"><ele>187.0</ele><time>2026-04-25T04:32:19.995Z</time></trkpt><trkpt lat="45.85977313820055" lon="12.198669878851168"><ele>187.0</ele><time>2026-04-25T04:32:20.996Z</time></trkpt><trkpt lat="45.859682443974165" lon="12.19873417969137"><ele>187.0</ele><time>2026-04-25T04:32:21.995Z</time></trkpt><trkpt lat="45.859598394374004" lon="12.198775041028835"><ele>187.0</ele><time>2026-04-25T04:32:22.995Z</time></trkpt><trkpt lat="45.85951761462236" lon="12.198818627587972"><ele>187.0</ele><time>2026-04-25T04:32:23.995Z</time></trkpt><trkpt lat="45.85943465727095" lon="12.19886604387959"><ele>187.0</ele><time>2026-04-25T04:32:24.995Z</time></trkpt><trkpt lat="45.85935562600436" lon="12.19891559299571"><ele>187.0</ele><time>2026-04-25T04:32:25.995Z</time></trkpt><trkpt lat="45.85926627665814" lon="12.198975228965208"><ele>187.0</ele><time>2026-04-25T04:32:26.995Z</time></trkpt><trkpt lat="45.859173907172284" lon="12.199039948706668"><ele>187.0</ele><time>2026-04-25T04:32:27.995Z</time></trkpt><trkpt lat="45.85907872993145" lon="12.199101259786694"><ele>187.0</ele><time>2026-04-25T04:32:28.995Z</time></trkpt><trkpt lat="45.85899621162455" lon="12.199177831497112"><ele>187.0</ele><time>2026-04-25T04:32:29.995Z</time></trkpt><trkpt lat="45.858917583032806" lon="12.199260405323207"><ele>187.0</ele><time>2026-04-25T04:32:30.995Z</time></trkpt><trkpt lat="45.85884283167757" lon="12.199330145855654"><ele>187.0</ele><time>2026-04-25T04:32:31.995Z</time></trkpt><trkpt lat="45.858774221026536" lon="12.199395202338717"><ele>187.0</ele><time>2026-04-25T04:32:32.995Z</time></trkpt><trkpt lat="45.85871154847495" lon="12.19946722968604"><ele>187.0</ele><time>2026-04-25T04:32:33.995Z</time></trkpt><trkpt lat="45.85864647029711" lon="12.199537184814083"><ele>187.0</ele><time>2026-04-25T04:32:34.995Z</time></trkpt><trkpt lat="45.858582467852926" lon="12.199605477157247"><ele>187.0</ele><time>2026-04-25T04:32:35.995Z</time></trkpt><trkpt lat="45.85851729620909" lon="12.199681870043419"><ele>187.0</ele><time>2026-04-25T04:32:36.995Z</time></trkpt><trkpt lat="45.85846552540085" lon="12.199739809629289"><ele>187.0</ele><time>2026-04-25T04:32:37.995Z</time></trkpt><trkpt lat="45.858420608906556" lon="12.19981935030917"><ele>187.0</ele><time>2026-04-25T04:32:38.995Z</time></trkpt><trkpt lat="45.858379953574264" lon="12.199924777482767"><ele>187.0</ele><time>2026-04-25T04:32:39.995Z</time></trkpt><trkpt lat="45.858367930173564" lon="12.200045249790598"><ele>187.0</ele><time>2026-04-25T04:32:40.995Z</time></trkpt><trkpt lat="45.85835675411262" lon="12.200163721516509"><ele>187.33333333333334</ele><time>2026-04-25T04:32:41.995Z</time></trkpt><trkpt lat="45.85836650290205" lon="12.200292676182038"><ele>187.66666666666669</ele><time>2026-04-25T04:32:42.995Z</time></trkpt><trkpt lat="45.85834725077115" lon="12.200404894911877"><ele>188.0</ele><time>2026-04-25T04:32:43.995Z</time></trkpt><trkpt lat="45.85832673597303" lon="12.200538772108542"><ele>188.33333333333334</ele><time>2026-04-25T04:32:44.995Z</time></trkpt><trkpt lat="45.85828053728081" lon="12.200655433186611"><ele>188.66666666666666</ele><time>2026-04-25T04:32:45.995Z</time></trkpt><trkpt lat="45.85822774249799" lon="12.200758312723412"><ele>189.0</ele><time>2026-04-25T04:32:46.995Z</time></trkpt><trkpt lat="45.85817508334748" lon="12.200852698620897"><ele>189.66666666666666</ele><time>2026-04-25T04:32:47.995Z</time></trkpt><trkpt lat="45.85811835620572" lon="12.200957712292483"><ele>190.33333333333331</ele><time>2026-04-25T04:32:48.995Z</time></trkpt><trkpt lat="45.858058246972135" lon="12.201037063996148"><ele>191.0</ele><time>2026-04-25T04:32:49.995Z</time></trkpt><trkpt lat="45.858010064401874" lon="12.201139244082675"><ele>191.66666666666666</ele><time>2026-04-25T04:32:50.995Z</time></trkpt><trkpt lat="45.85794451532926" lon="12.201233261760459"><ele>192.33333333333331</ele><time>2026-04-25T04:32:51.995Z</time></trkpt><trkpt lat="45.85787341668541" lon="12.201300351677913"><ele>193.0</ele><time>2026-04-25T04:32:52.995Z</time></trkpt><trkpt lat="45.85778502137422" lon="12.201377005600609"><ele>192.99999999999997</ele><time>2026-04-25T04:32:53.995Z</time></trkpt><trkpt lat="45.85770619071462" lon="12.201438075738304"><ele>193.0</ele><time>2026-04-25T04:32:54.995Z</time></trkpt><trkpt lat="45.85764103539498" lon="12.201493321118267"><ele>193.0</ele><time>2026-04-25T04:32:55.995Z</time></trkpt><trkpt lat="45.8575621219516" lon="12.201545003660367"><ele>193.0</ele><time>2026-04-25T04:32:56.995Z</time></trkpt><trkpt lat="45.85747272392832" lon="12.201596260714808"><ele>192.99999999999997</ele><time>2026-04-25T04:32:57.995Z</time></trkpt><trkpt lat="45.85738667761546" lon="12.201638629023549"><ele>193.0</ele><time>2026-04-25T04:32:58.995Z</time></trkpt><trkpt lat="45.85730555995661" lon="12.201682304878556"><ele>192.16666666666666</ele><time>2026-04-25T04:32:59.995Z</time></trkpt><trkpt lat="45.85722697164208" lon="12.201738210360322"><ele>191.33333333333331</ele><time>2026-04-25T04:33:00.995Z</time></trkpt><trkpt lat="45.85714208494693" lon="12.201791886337238"><ele>190.5</ele><time>2026-04-25T04:33:01.995Z</time></trkpt><trkpt lat="45.857072587794256" lon="12.201845390835837"><ele>189.66666666666666</ele><time>2026-04-25T04:33:02.995Z</time></trkpt><trkpt lat="45.857012350470725" lon="12.201907923818615"><ele>188.83333333333331</ele><time>2026-04-25T04:33:03.995Z</time></trkpt><trkpt lat="45.8569254822189" lon="12.202006143606104"><ele>188.0</ele><time>2026-04-25T04:33:05.995Z</time></trkpt><trkpt lat="45.856844236104344" lon="12.202090842477565"><ele>188.0</ele><time>2026-04-25T04:33:07.995Z</time></trkpt><trkpt lat="45.85677573929453" lon="12.20205665581459"><ele>188.0</ele><time>2026-04-25T04:33:14.994Z</time></trkpt><trkpt lat="45.856841412512516" lon="12.20192101306033"><ele>188.0</ele><time>2026-04-25T04:33:17.994Z</time></trkpt><trkpt lat="45.85693814243625" lon="12.201835071973782"><ele>188.0</ele><time>2026-04-25T04:33:19.994Z</time></trkpt><trkpt lat="45.85699382096785" lon="12.20178948226661"><ele>188.0</ele><time>2026-04-25T04:33:20.994Z</time></trkpt><trkpt lat="45.85705887898325" lon="12.201727716695048"><ele>188.0</ele><time>2026-04-25T04:33:21.994Z</time></trkpt><trkpt lat="45.85712834770836" lon="12.201661645915692"><ele>188.0</ele><time>2026-04-25T04:33:22.994Z</time></trkpt><trkpt lat="45.85718112574215" lon="12.201584030687936"><ele>188.0</ele><time>2026-04-25T04:33:23.994Z</time></trkpt><trkpt lat="45.85722930933969" lon="12.201494618846167"><ele>188.0</ele><time>2026-04-25T04:33:24.994Z</time></trkpt><trkpt lat="45.8572669938836" lon="12.201415819395958"><ele>188.0</ele><time>2026-04-25T04:33:25.994Z</time></trkpt><trkpt lat="45.857296602910864" lon="12.201296386560648"><ele>188.0</ele><time>2026-04-25T04:33:27.994Z</time></trkpt><trkpt lat="45.85729356621587" lon="12.201184393721144"><ele>188.0</ele><time>2026-04-25T04:33:29.994Z</time></trkpt><trkpt lat="45.85722004457254" lon="12.201095149843946"><ele>186.33333333333331</ele><time>2026-04-25T04:33:31.994Z</time></trkpt><trkpt lat="45.857105562132986" lon="12.201133872021012"><ele>184.66666666666666</ele><time>2026-04-25T04:33:33.994Z</time></trkpt><trkpt lat="45.857051937076825" lon="12.201187164272838"><ele>183.0</ele><time>2026-04-25T04:33:34.994Z</time></trkpt><trkpt lat="45.85698872138223" lon="12.20124535006953"><ele>181.33333333333334</ele><time>2026-04-25T04:33:35.994Z</time></trkpt><trkpt lat="45.85690869340977" lon="12.20128603248195"><ele>179.66666666666669</ele><time>2026-04-25T04:33:36.994Z</time></trkpt><trkpt lat="45.85681286239006" lon="12.201337862599539"><ele>178.0</ele><time>2026-04-25T04:33:37.994Z</time></trkpt><trkpt lat="45.856719701515836" lon="12.20137818401088"><ele>175.2</ele><time>2026-04-25T04:33:38.994Z</time></trkpt><trkpt lat="45.856619201564165" lon="12.201410823164515"><ele>172.4</ele><time>2026-04-25T04:33:39.994Z</time></trkpt><trkpt lat="45.85652790501178" lon="12.201434014789097"><ele>169.6</ele><time>2026-04-25T04:33:40.994Z</time></trkpt><trkpt lat="45.856445213856276" lon="12.201445978436118"><ele>166.79999999999998</ele><time>2026-04-25T04:33:41.994Z</time></trkpt><trkpt lat="45.85635550047587" lon="12.201451545598841"><ele>164.0</ele><time>2026-04-25T04:33:42.994Z</time></trkpt><trkpt lat="45.856266646276076" lon="12.20146534674654"><ele>164.0</ele><time>2026-04-25T04:33:43.994Z</time></trkpt><trkpt lat="45.856191423183645" lon="12.201478841287372"><ele>164.0</ele><time>2026-04-25T04:33:44.994Z</time></trkpt><trkpt lat="45.85612393344072" lon="12.201492635073507"><ele>164.0</ele><time>2026-04-25T04:33:45.994Z</time></trkpt><trkpt lat="45.85602222844" lon="12.201500691418643"><ele>164.0</ele><time>2026-04-25T04:33:47.994Z</time></trkpt><trkpt lat="45.85590817048094" lon="12.201448037023715"><ele>164.0</ele><time>2026-04-25T04:33:49.994Z</time></trkpt><trkpt lat="45.855852527123346" lon="12.201382930977658"><ele>164.0</ele><time>2026-04-25T04:33:50.994Z</time></trkpt><trkpt lat="45.85579482719215" lon="12.201299853867534"><ele>163.5</ele><time>2026-04-25T04:33:51.994Z</time></trkpt><trkpt lat="45.85574196519488" lon="12.201190288496878"><ele>163.0</ele><time>2026-04-25T04:33:52.994Z</time></trkpt><trkpt lat="45.85568753586837" lon="12.201080911748099"><ele>162.5</ele><time>2026-04-25T04:33:53.994Z</time></trkpt><trkpt lat="45.8556370385447" lon="12.201001040665092"><ele>162.0</ele><time>2026-04-25T04:33:54.994Z</time></trkpt><trkpt lat="45.85556460452928" lon="12.20091799527528"><ele>161.5</ele><time>2026-04-25T04:33:55.994Z</time></trkpt><trkpt lat="45.85549633754852" lon="12.200840584441998"><ele>161.0</ele><time>2026-04-25T04:33:56.994Z</time></trkpt><trkpt lat="45.85542474293919" lon="12.20078947709183"><ele>161.0</ele><time>2026-04-25T04:33:57.994Z</time></trkpt><trkpt lat="45.85533919309521" lon="12.200748707535977"><ele>161.0</ele><time>2026-04-25T04:33:58.994Z</time></trkpt><trkpt lat="45.85525651894734" lon="12.200699551333717"><ele>161.0</ele><time>2026-04-25T04:33:59.994Z</time></trkpt><trkpt lat="45.85517377669248" lon="12.200652345547756"><ele>161.0</ele><time>2026-04-25T04:34:00.994Z</time></trkpt><trkpt lat="45.85509063521445" lon="12.200612237584561"><ele>161.0</ele><time>2026-04-25T04:34:01.994Z</time></trkpt><trkpt lat="45.855014861176265" lon="12.200564799377007"><ele>161.0</ele><time>2026-04-25T04:34:02.994Z</time></trkpt><trkpt lat="45.85492215298292" lon="12.200551322718095"><ele>160.33333333333331</ele><time>2026-04-25T04:34:03.994Z</time></trkpt><trkpt lat="45.85482883650581" lon="12.20055392308759"><ele>159.66666666666666</ele><time>2026-04-25T04:34:04.994Z</time></trkpt><trkpt lat="45.85474790603968" lon="12.200571628803742"><ele>159.0</ele><time>2026-04-25T04:34:05.994Z</time></trkpt><trkpt lat="45.854668345195115" lon="12.200573610170318"><ele>158.33333333333334</ele><time>2026-04-25T04:34:06.994Z</time></trkpt><trkpt lat="45.85460388050001" lon="12.200549998889455"><ele>157.66666666666669</ele><time>2026-04-25T04:34:07.994Z</time></trkpt><trkpt lat="45.85454113600268" lon="12.200506310732807"><ele>157.0</ele><time>2026-04-25T04:34:08.994Z</time></trkpt><trkpt lat="45.85448349270068" lon="12.200445371594974"><ele>157.0</ele><time>2026-04-25T04:34:09.994Z</time></trkpt><trkpt lat="45.854421021237584" lon="12.200289643052546"><ele>157.0</ele><time>2026-04-25T04:34:11.994Z</time></trkpt><trkpt lat="45.85437480681635" lon="12.200153117212421"><ele>157.0</ele><time>2026-04-25T04:34:13.993Z</time></trkpt><trkpt lat="45.85432657949507" lon="12.20001589146109"><ele>157.0</ele><time>2026-04-25T04:34:15.995Z</time></trkpt><trkpt lat="45.854286349380175" lon="12.199932188048667"><ele>157.0</ele><time>2026-04-25T04:34:16.995Z</time></trkpt><trkpt lat="45.85423826777905" lon="12.199846849803933"><ele>158.16666666666669</ele><time>2026-04-25T04:34:17.994Z</time></trkpt><trkpt lat="45.854200619994685" lon="12.199747598408782"><ele>159.33333333333334</ele><time>2026-04-25T04:34:18.994Z</time></trkpt><trkpt lat="45.85416082003876" lon="12.199649413083424"><ele>160.5</ele><time>2026-04-25T04:34:19.994Z</time></trkpt><trkpt lat="45.854115650277144" lon="12.199567348897263"><ele>161.66666666666666</ele><time>2026-04-25T04:34:20.995Z</time></trkpt><trkpt lat="45.85408037450703" lon="12.199477344241599"><ele>162.83333333333331</ele><time>2026-04-25T04:34:21.995Z</time></trkpt><trkpt lat="45.85404302323659" lon="12.199381567910862"><ele>164.0</ele><time>2026-04-25T04:34:22.995Z</time></trkpt><trkpt lat="45.85400310185953" lon="12.199287544128262"><ele>164.0</ele><time>2026-04-25T04:34:23.995Z</time></trkpt><trkpt lat="45.853968749003705" lon="12.199188077381336"><ele>164.0</ele><time>2026-04-25T04:34:24.995Z</time></trkpt><trkpt lat="45.8539461123677" lon="12.199093542195595"><ele>164.0</ele><time>2026-04-25T04:34:25.995Z</time></trkpt><trkpt lat="45.85390095649769" lon="12.199007524920644"><ele>164.0</ele><time>2026-04-25T04:34:26.995Z</time></trkpt><trkpt lat="45.85385184776513" lon="12.198922479546622"><ele>164.0</ele><time>2026-04-25T04:34:27.994Z</time></trkpt><trkpt lat="45.85380932491647" lon="12.19880609064133"><ele>164.0</ele><time>2026-04-25T04:34:28.994Z</time></trkpt><trkpt lat="45.85375580564397" lon="12.198696287668632"><ele>162.2</ele><time>2026-04-25T04:34:29.994Z</time></trkpt><trkpt lat="45.85369959889253" lon="12.198577471817137"><ele>160.39999999999998</ele><time>2026-04-25T04:34:30.994Z</time></trkpt><trkpt lat="45.853633874194614" lon="12.198449423567865"><ele>158.6</ele><time>2026-04-25T04:34:31.994Z</time></trkpt><trkpt lat="45.85357480001408" lon="12.198320779999218"><ele>156.8</ele><time>2026-04-25T04:34:32.994Z</time></trkpt><trkpt lat="45.853525911279824" lon="12.19818662428791"><ele>155.0</ele><time>2026-04-25T04:34:33.994Z</time></trkpt><trkpt lat="45.85347178424271" lon="12.198066114498982"><ele>154.66666666666666</ele><time>2026-04-25T04:34:34.994Z</time></trkpt><trkpt lat="45.853421805713644" lon="12.197961084733182"><ele>154.33333333333331</ele><time>2026-04-25T04:34:35.994Z</time></trkpt><trkpt lat="45.85336876786209" lon="12.197877282580102"><ele>154.0</ele><time>2026-04-25T04:34:36.994Z</time></trkpt><trkpt lat="45.85331693259185" lon="12.197784469305397"><ele>153.66666666666666</ele><time>2026-04-25T04:34:37.994Z</time></trkpt><trkpt lat="45.85325098580892" lon="12.197697005666903"><ele>153.33333333333334</ele><time>2026-04-25T04:34:38.994Z</time></trkpt><trkpt lat="45.85318208232888" lon="12.197604831331661"><ele>153.0</ele><time>2026-04-25T04:34:39.994Z</time></trkpt><trkpt lat="45.853138283529155" lon="12.197512768211618"><ele>153.0</ele><time>2026-04-25T04:34:40.994Z</time></trkpt><trkpt lat="45.85309127046318" lon="12.197419611825591"><ele>153.0</ele><time>2026-04-25T04:34:41.994Z</time></trkpt><trkpt lat="45.853033232995166" lon="12.197346359017848"><ele>153.0</ele><time>2026-04-25T04:34:42.994Z</time></trkpt><trkpt lat="45.8529711772294" lon="12.19730292733446"><ele>153.0</ele><time>2026-04-25T04:34:43.994Z</time></trkpt><trkpt lat="45.852864360781915" lon="12.197325526001983"><ele>153.0</ele><time>2026-04-25T04:34:45.994Z</time></trkpt><trkpt lat="45.85279036552982" lon="12.197342956260963"><ele>153.0</ele><time>2026-04-25T04:34:47.994Z</time></trkpt><trkpt lat="45.85271264769942" lon="12.197341524113428"><ele>150.66666666666666</ele><time>2026-04-25T04:34:48.994Z</time></trkpt><trkpt lat="45.85262392252276" lon="12.197311467172623"><ele>148.33333333333334</ele><time>2026-04-25T04:34:49.994Z</time></trkpt><trkpt lat="45.852537112863864" lon="12.19726662037208"><ele>146.0</ele><time>2026-04-25T04:34:50.994Z</time></trkpt><trkpt lat="45.852457269361864" lon="12.197222673393242"><ele>143.66666666666669</ele><time>2026-04-25T04:34:51.994Z</time></trkpt><trkpt lat="45.85238958346588" lon="12.197182640955486"><ele>141.33333333333334</ele><time>2026-04-25T04:34:52.994Z</time></trkpt><trkpt lat="45.85230454642612" lon="12.197145437909638"><ele>139.0</ele><time>2026-04-25T04:34:53.994Z</time></trkpt><trkpt lat="45.85222439900429" lon="12.19711784845119"><ele>139.0</ele><time>2026-04-25T04:34:54.994Z</time></trkpt><trkpt lat="45.852156471554245" lon="12.197099854528117"><ele>139.0</ele><time>2026-04-25T04:34:55.994Z</time></trkpt><trkpt lat="45.85204995107168" lon="12.197020568309442"><ele>139.0</ele><time>2026-04-25T04:34:57.994Z</time></trkpt><trkpt lat="45.851991642138074" lon="12.196921368753053"><ele>139.0</ele><time>2026-04-25T04:34:59.994Z</time></trkpt><trkpt lat="45.85195140773382" lon="12.196756212127458"><ele>139.0</ele><time>2026-04-25T04:35:01.994Z</time></trkpt><trkpt lat="45.851939806539725" lon="12.196653557031484"><ele>139.0</ele><time>2026-04-25T04:35:02.994Z</time></trkpt><trkpt lat="45.85190326612323" lon="12.196540868651512"><ele>139.0</ele><time>2026-04-25T04:35:03.994Z</time></trkpt><trkpt lat="45.851844905762334" lon="12.19643426710776"><ele>139.0</ele><time>2026-04-25T04:35:04.994Z</time></trkpt><trkpt lat="45.85179423303499" lon="12.196359203913401"><ele>139.0</ele><time>2026-04-25T04:35:05.994Z</time></trkpt><trkpt lat="45.85175860789995" lon="12.196280755198348"><ele>139.0</ele><time>2026-04-25T04:35:06.994Z</time></trkpt><trkpt lat="45.85171841474063" lon="12.196210331211883"><ele>139.0</ele><time>2026-04-25T04:35:07.994Z</time></trkpt><trkpt lat="45.85166293700291" lon="12.196124792306385"><ele>138.4</ele><time>2026-04-25T04:35:09.994Z</time></trkpt><trkpt lat="45.85161481820775" lon="12.19603293840515"><ele>137.8</ele><time>2026-04-25T04:35:12.994Z</time></trkpt><trkpt lat="45.85156120285125" lon="12.195953261070606"><ele>137.2</ele><time>2026-04-25T04:35:18.993Z</time></trkpt><trkpt lat="45.85150476741465" lon="12.19586022709538"><ele>136.6</ele><time>2026-04-25T04:35:20.993Z</time></trkpt><trkpt lat="45.85141779113207" lon="12.195733720340405"><ele>136.0</ele><time>2026-04-25T04:35:22.993Z</time></trkpt><trkpt lat="45.85132109855834" lon="12.195679691031414"><ele>137.33333333333334</ele><time>2026-04-25T04:35:23.993Z</time></trkpt><trkpt lat="45.85121849818377" lon="12.195639069600423"><ele>138.66666666666669</ele><time>2026-04-25T04:35:24.993Z</time></trkpt><trkpt lat="45.8511342224422" lon="12.195612923136418"><ele>140.0</ele><time>2026-04-25T04:35:25.993Z</time></trkpt><trkpt lat="45.851059165152606" lon="12.195595360288774"><ele>141.33333333333334</ele><time>2026-04-25T04:35:26.993Z</time></trkpt><trkpt lat="45.85097997861324" lon="12.195604359728664"><ele>142.66666666666666</ele><time>2026-04-25T04:35:27.993Z</time></trkpt><trkpt lat="45.85090656427141" lon="12.195624451654744"><ele>144.0</ele><time>2026-04-25T04:35:28.993Z</time></trkpt><trkpt lat="45.85079573784643" lon="12.195673803202764"><ele>144.00000000000003</ele><time>2026-04-25T04:35:30.993Z</time></trkpt><trkpt lat="45.85073589837293" lon="12.195715928503297"><ele>144.0</ele><time>2026-04-25T04:35:31.993Z</time></trkpt><trkpt lat="45.850682803595916" lon="12.195776947251145"><ele>144.0</ele><time>2026-04-25T04:35:33.993Z</time></trkpt><trkpt lat="45.850613308534314" lon="12.195819053497807"><ele>144.0</ele><time>2026-04-25T04:35:37.993Z</time></trkpt><trkpt lat="45.85055512565036" lon="12.19578448804948"><ele>144.0</ele><time>2026-04-25T04:36:05.993Z</time></trkpt><trkpt lat="45.850524004069484" lon="12.19569287422769"><ele>144.00000000000003</ele><time>2026-04-25T04:36:14.993Z</time></trkpt><trkpt lat="45.850472756433746" lon="12.195630050567733"><ele>144.0</ele><time>2026-04-25T04:36:19.993Z</time></trkpt><trkpt lat="45.850509794177206" lon="12.195536289987574"><ele>138.6</ele><time>2026-04-25T04:36:29.995Z</time></trkpt><trkpt lat="45.85061526244302" lon="12.195432719745115"><ele>133.2</ele><time>2026-04-25T04:36:33.994Z</time></trkpt><trkpt lat="45.85066775050159" lon="12.195332644209087"><ele>127.79999999999998</ele><time>2026-04-25T04:36:35.994Z</time></trkpt><trkpt lat="45.85073285753701" lon="12.195280910410768"><ele>122.39999999999999</ele><time>2026-04-25T04:36:37.994Z</time></trkpt><trkpt lat="45.85079276951407" lon="12.195215058846324"><ele>117.0</ele><time>2026-04-25T04:36:39.994Z</time></trkpt><trkpt lat="45.85087332258671" lon="12.195161588069451"><ele>117.0</ele><time>2026-04-25T04:36:42.994Z</time></trkpt><trkpt lat="45.85092307165737" lon="12.195072838798609"><ele>117.00000000000001</ele><time>2026-04-25T04:36:44.994Z</time></trkpt><trkpt lat="45.85096194464971" lon="12.194998432751811"><ele>117.0</ele><time>2026-04-25T04:36:46.994Z</time></trkpt><trkpt lat="45.851004744636704" lon="12.194889393369936"><ele>117.0</ele><time>2026-04-25T04:36:49.994Z</time></trkpt><trkpt lat="45.85100955520004" lon="12.19479278552228"><ele>117.00000000000001</ele><time>2026-04-25T04:36:53.994Z</time></trkpt><trkpt lat="45.850995021555214" lon="12.194673628131213"><ele>117.0</ele><time>2026-04-25T04:36:57.994Z</time></trkpt><trkpt lat="45.85095883878512" lon="12.194596973187414"><ele>117.0</ele><time>2026-04-25T04:37:00.994Z</time></trkpt><trkpt lat="45.85087270377307" lon="12.194555252126518"><ele>115.85714285714286</ele><time>2026-04-25T04:37:03.994Z</time></trkpt><trkpt lat="45.8507961932357" lon="12.19454422161688"><ele>114.71428571428572</ele><time>2026-04-25T04:37:05.993Z</time></trkpt><trkpt lat="45.85072734210776" lon="12.194551867630665"><ele>113.57142857142858</ele><time>2026-04-25T04:37:07.993Z</time></trkpt><trkpt lat="45.85065741967907" lon="12.19455899024455"><ele>112.42857142857143</ele><time>2026-04-25T04:37:11.993Z</time></trkpt><trkpt lat="45.850590691691316" lon="12.1945754131646"><ele>111.28571428571429</ele><time>2026-04-25T04:37:13.993Z</time></trkpt><trkpt lat="45.850515890469914" lon="12.194588238332322"><ele>110.14285714285714</ele><time>2026-04-25T04:37:16.993Z</time></trkpt><trkpt lat="45.85043027533931" lon="12.194567675407193"><ele>109.0</ele><time>2026-04-25T04:37:18.993Z</time></trkpt><trkpt lat="45.85035524488078" lon="12.194579750069886"><ele>109.0</ele><time>2026-04-25T04:37:20.993Z</time></trkpt><trkpt lat="45.850283917280336" lon="12.19459646677643"><ele>109.0</ele><time>2026-04-25T04:37:25.993Z</time></trkpt><trkpt lat="45.85019262536926" lon="12.194642627793153"><ele>109.0</ele><time>2026-04-25T04:37:29.993Z</time></trkpt><trkpt lat="45.85013003056673" lon="12.194672811673291"><ele>109.0</ele><time>2026-04-25T04:37:31.993Z</time></trkpt><trkpt lat="45.85005682718503" lon="12.194717979891243"><ele>109.0</ele><time>2026-04-25T04:37:34.993Z</time></trkpt><trkpt lat="45.85000424896017" lon="12.194775855439143"><ele>109.0</ele><time>2026-04-25T04:37:37.993Z</time></trkpt><trkpt lat="45.84994616905494" lon="12.194811000676681"><ele>109.0</ele><time>2026-04-25T04:37:40.993Z</time></trkpt><trkpt lat="45.849874748797724" lon="12.194855708759826"><ele>108.66666666666667</ele><time>2026-04-25T04:37:46.993Z</time></trkpt><trkpt lat="45.849801224308464" lon="12.194868802224303"><ele>108.33333333333334</ele><time>2026-04-25T04:37:53.993Z</time></trkpt><trkpt lat="45.84968736688629" lon="12.194804953593867"><ele>108.0</ele><time>2026-04-25T04:38:04.993Z</time></trkpt><trkpt lat="45.849355693145995" lon="12.1945895765552"><ele>106.71428571428571</ele><time>2026-04-25T04:38:05.993Z</time></trkpt><trkpt lat="45.849312274729236" lon="12.19448545420986"><ele>105.42857142857142</ele><time>2026-04-25T04:38:06.993Z</time></trkpt><trkpt lat="45.849316164783" lon="12.194390492543086"><ele>104.14285714285714</ele><time>2026-04-25T04:38:09.993Z</time></trkpt><trkpt lat="45.84928182047062" lon="12.194299083611954"><ele>102.85714285714286</ele><time>2026-04-25T04:38:12.992Z</time></trkpt><trkpt lat="45.84924098341963" lon="12.194227572877084"><ele>101.57142857142857</ele><time>2026-04-25T04:38:15.992Z</time></trkpt><trkpt lat="45.84920282151384" lon="12.19415160104288"><ele>100.28571428571429</ele><time>2026-04-25T04:38:19.992Z</time></trkpt><trkpt lat="45.84914526341864" lon="12.19410155118187"><ele>99.0</ele><time>2026-04-25T04:38:24.992Z</time></trkpt><trkpt lat="45.84910653942636" lon="12.194029597694763"><ele>98.0</ele><time>2026-04-25T04:38:27.994Z</time></trkpt><trkpt lat="45.849049711098736" lon="12.193931032315813"><ele>97.0</ele><time>2026-04-25T04:38:31.994Z</time></trkpt><trkpt lat="45.8490369090338" lon="12.193824022422454"><ele>96.0</ele><time>2026-04-25T04:38:34.994Z</time></trkpt><trkpt lat="45.849043261074584" lon="12.193727521408142"><ele>95.0</ele><time>2026-04-25T04:38:37.993Z</time></trkpt><trkpt lat="45.84906392891907" lon="12.193621089818677"><ele>94.0</ele><time>2026-04-25T04:38:41.994Z</time></trkpt><trkpt lat="45.849120581329565" lon="12.193542741040105"><ele>93.0</ele><time>2026-04-25T04:38:44.994Z</time></trkpt><trkpt lat="45.84918048852138" lon="12.19342510450233"><ele>93.0</ele><time>2026-04-25T04:38:47.994Z</time></trkpt><trkpt lat="45.84923062099829" lon="12.193351121128414"><ele>93.0</ele><time>2026-04-25T04:38:49.994Z</time></trkpt><trkpt lat="45.84927510498413" lon="12.193247518033706"><ele>93.0</ele><time>2026-04-25T04:38:52.994Z</time></trkpt><trkpt lat="45.84929924215021" lon="12.19314474705668"><ele>93.0</ele><time>2026-04-25T04:38:54.994Z</time></trkpt><trkpt lat="45.84932183184495" lon="12.193054751506"><ele>93.0</ele><time>2026-04-25T04:38:56.994Z</time></trkpt><trkpt lat="45.84939480624616" lon="12.19290659231936"><ele>93.0</ele><time>2026-04-25T04:38:58.994Z</time></trkpt><trkpt lat="45.84945241965224" lon="12.192776965897814"><ele>92.60000000000001</ele><time>2026-04-25T04:39:00.994Z</time></trkpt><trkpt lat="45.84947069430979" lon="12.192671622387538"><ele>92.2</ele><time>2026-04-25T04:39:05.994Z</time></trkpt><trkpt lat="45.84949668544832" lon="12.192536886276686"><ele>91.8</ele><time>2026-04-25T04:39:07.994Z</time></trkpt><trkpt lat="45.84954482583297" lon="12.192431949979749"><ele>91.4</ele><time>2026-04-25T04:39:09.994Z</time></trkpt><trkpt lat="45.84960415132506" lon="12.192343456675108"><ele>91.0</ele><time>2026-04-25T04:39:11.994Z</time></trkpt><trkpt lat="45.84971154637162" lon="12.19226819416301"><ele>90.6</ele><time>2026-04-25T04:39:13.994Z</time></trkpt><trkpt lat="45.84982196331592" lon="12.192216637424432"><ele>90.19999999999999</ele><time>2026-04-25T04:39:15.994Z</time></trkpt><trkpt lat="45.849871284903024" lon="12.192089742121254"><ele>89.80000000000001</ele><time>2026-04-25T04:39:17.994Z</time></trkpt><trkpt lat="45.84991120688139" lon="12.191950673005444"><ele>89.4</ele><time>2026-04-25T04:39:19.994Z</time></trkpt><trkpt lat="45.84995131164537" lon="12.191871223430523"><ele>89.0</ele><time>2026-04-25T04:39:20.994Z</time></trkpt><trkpt lat="45.8500011052966" lon="12.191737198735966"><ele>89.0</ele><time>2026-04-25T04:39:22.994Z</time></trkpt><trkpt lat="45.85004594756142" lon="12.191630241326497"><ele>89.0</ele><time>2026-04-25T04:39:24.994Z</time></trkpt><trkpt lat="45.85009181938755" lon="12.191540825687321"><ele>89.0</ele><time>2026-04-25T04:39:27.994Z</time></trkpt><trkpt lat="45.85015289688186" lon="12.191421667876718"><ele>89.0</ele><time>2026-04-25T04:39:29.993Z</time></trkpt><trkpt lat="45.85020036673738" lon="12.19134370451435"><ele>89.0</ele><time>2026-04-25T04:39:32.993Z</time></trkpt><trkpt lat="45.85022797937839" lon="12.191254446069399"><ele>89.0</ele><time>2026-04-25T04:39:36.993Z</time></trkpt><trkpt lat="45.850229799134425" lon="12.19114768071899"><ele>90.5</ele><time>2026-04-25T04:39:39.993Z</time></trkpt><trkpt lat="45.850282342807866" lon="12.1910377263255"><ele>92.0</ele><time>2026-04-25T04:39:42.993Z</time></trkpt><trkpt lat="45.850307328940694" lon="12.190954368925194"><ele>93.5</ele><time>2026-04-25T04:39:44.993Z</time></trkpt><trkpt lat="45.85034607722286" lon="12.190867277599313"><ele>95.0</ele><time>2026-04-25T04:39:46.993Z</time></trkpt><trkpt lat="45.8503842327929" lon="12.1907871228096"><ele>96.49999999999999</ele><time>2026-04-25T04:39:47.993Z</time></trkpt><trkpt lat="45.850422569708044" lon="12.190674288956556"><ele>98.0</ele><time>2026-04-25T04:39:49.993Z</time></trkpt><trkpt lat="45.85046771466435" lon="12.190589087049991"><ele>97.99999999999999</ele><time>2026-04-25T04:39:51.993Z</time></trkpt><trkpt lat="45.85050623423409" lon="12.190481925539535"><ele>98.0</ele><time>2026-04-25T04:39:52.993Z</time></trkpt><trkpt lat="45.850543849868906" lon="12.190406156759524"><ele>98.0</ele><time>2026-04-25T04:39:54.993Z</time></trkpt><trkpt lat="45.85056931045039" lon="12.190303210016431"><ele>98.0</ele><time>2026-04-25T04:39:56.993Z</time></trkpt><trkpt lat="45.85064633207765" lon="12.190200913338563"><ele>97.99999999999999</ele><time>2026-04-25T04:39:58.993Z</time></trkpt><trkpt lat="45.85070526920829" lon="12.190143259756463"><ele>98.0</ele><time>2026-04-25T04:40:00.993Z</time></trkpt><trkpt lat="45.85077141616916" lon="12.190064187698384"><ele>98.0</ele><time>2026-04-25T04:40:01.993Z</time></trkpt><trkpt lat="45.85084919664034" lon="12.189944174358606"><ele>98.0</ele><time>2026-04-25T04:40:03.993Z</time></trkpt><trkpt lat="45.85087919325037" lon="12.189807632693443"><ele>98.0</ele><time>2026-04-25T04:40:05.993Z</time></trkpt><trkpt lat="45.85095328667086" lon="12.189690774668815"><ele>98.0</ele><time>2026-04-25T04:40:09.993Z</time></trkpt><trkpt lat="45.85101743424889" lon="12.1895977559432"><ele>98.0</ele><time>2026-04-25T04:40:11.993Z</time></trkpt><trkpt lat="45.85108580862347" lon="12.189528708240582"><ele>98.99999999999999</ele><time>2026-04-25T04:40:13.993Z</time></trkpt><trkpt lat="45.85113645084982" lon="12.189463575215735"><ele>100.0</ele><time>2026-04-25T04:40:15.993Z</time></trkpt><trkpt lat="45.85118505282483" lon="12.189381202185112"><ele>101.0</ele><time>2026-04-25T04:40:18.993Z</time></trkpt><trkpt lat="45.8512365021882" lon="12.18932484737425"><ele>102.0</ele><time>2026-04-25T04:40:19.993Z</time></trkpt><trkpt lat="45.851266225566086" lon="12.189185005562742"><ele>102.99999999999999</ele><time>2026-04-25T04:40:22.993Z</time></trkpt><trkpt lat="45.85133022681232" lon="12.189094921404285"><ele>104.0</ele><time>2026-04-25T04:40:25.993Z</time></trkpt><trkpt lat="45.85137841945392" lon="12.189035757353105"><ele>102.2</ele><time>2026-04-25T04:40:26.993Z</time></trkpt><trkpt lat="45.85143383574097" lon="12.18894576867799"><ele>100.4</ele><time>2026-04-25T04:40:27.993Z</time></trkpt><trkpt lat="45.85149078985039" lon="12.188852992296795"><ele>98.6</ele><time>2026-04-25T04:40:28.993Z</time></trkpt><trkpt lat="45.85155947237852" lon="12.188771447352947"><ele>96.8</ele><time>2026-04-25T04:40:29.993Z</time></trkpt><trkpt lat="45.85165805678144" lon="12.188687018415367"><ele>95.0</ele><time>2026-04-25T04:40:30.993Z</time></trkpt><trkpt lat="45.85176881886905" lon="12.188628417569348"><ele>97.4</ele><time>2026-04-25T04:40:31.993Z</time></trkpt><trkpt lat="45.851852681191964" lon="12.188570930842518"><ele>99.8</ele><time>2026-04-25T04:40:32.993Z</time></trkpt><trkpt lat="45.85194341623686" lon="12.188521437991739"><ele>102.19999999999999</ele><time>2026-04-25T04:40:33.993Z</time></trkpt><trkpt lat="45.852033270369134" lon="12.18850355511203"><ele>104.6</ele><time>2026-04-25T04:40:34.993Z</time></trkpt><trkpt lat="45.85215360883216" lon="12.188416795010633"><ele>107.0</ele><time>2026-04-25T04:40:36.994Z</time></trkpt><trkpt lat="45.85220509771803" lon="12.188354887013697"><ele>106.99999999999999</ele><time>2026-04-25T04:40:37.994Z</time></trkpt><trkpt lat="45.852240010694125" lon="12.188278422555529"><ele>107.0</ele><time>2026-04-25T04:40:38.994Z</time></trkpt><trkpt lat="45.852283226762054" lon="12.188178845030428"><ele>107.0</ele><time>2026-04-25T04:40:39.993Z</time></trkpt><trkpt lat="45.85236556855947" lon="12.188065428588118"><ele>107.0</ele><time>2026-04-25T04:40:40.993Z</time></trkpt><trkpt lat="45.85242045955445" lon="12.187997274300331"><ele>106.99999999999999</ele><time>2026-04-25T04:40:41.993Z</time></trkpt><trkpt lat="45.85246191104146" lon="12.187865005129726"><ele>107.0</ele><time>2026-04-25T04:40:42.993Z</time></trkpt><trkpt lat="45.85248210976454" lon="12.187728441844314"><ele>105.75</ele><time>2026-04-25T04:40:43.993Z</time></trkpt><trkpt lat="45.85250680860323" lon="12.187549115903904"><ele>104.5</ele><time>2026-04-25T04:40:44.993Z</time></trkpt><trkpt lat="45.85258642943772" lon="12.18737709299173"><ele>103.25</ele><time>2026-04-25T04:40:45.994Z</time></trkpt><trkpt lat="45.85266245757173" lon="12.18723221343503"><ele>102.0</ele><time>2026-04-25T04:40:46.994Z</time></trkpt><trkpt lat="45.85276871115628" lon="12.187091536120786"><ele>102.0</ele><time>2026-04-25T04:40:47.994Z</time></trkpt><trkpt lat="45.8528668206379" lon="12.18693116672981"><ele>102.0</ele><time>2026-04-25T04:40:48.994Z</time></trkpt><trkpt lat="45.85294418031839" lon="12.18681945734151"><ele>102.0</ele><time>2026-04-25T04:40:49.994Z</time></trkpt><trkpt lat="45.85299426595127" lon="12.186656603778015"><ele>102.0</ele><time>2026-04-25T04:40:50.994Z</time></trkpt><trkpt lat="45.85311729856225" lon="12.18646808749046"><ele>100.0</ele><time>2026-04-25T04:40:52.994Z</time></trkpt><trkpt lat="45.85321134220652" lon="12.186274673428894"><ele>98.0</ele><time>2026-04-25T04:40:53.994Z</time></trkpt><trkpt lat="45.853277115933665" lon="12.186157609964111"><ele>96.0</ele><time>2026-04-25T04:40:54.994Z</time></trkpt><trkpt lat="45.85336028324274" lon="12.185986330129225"><ele>94.0</ele><time>2026-04-25T04:40:55.994Z</time></trkpt><trkpt lat="45.853430306434966" lon="12.1858617563039"><ele>94.80000000000001</ele><time>2026-04-25T04:40:56.994Z</time></trkpt><trkpt lat="45.85349755034827" lon="12.185766868783476"><ele>95.60000000000001</ele><time>2026-04-25T04:40:57.994Z</time></trkpt><trkpt lat="45.85356909402392" lon="12.185686759977829"><ele>96.4</ele><time>2026-04-25T04:40:58.994Z</time></trkpt><trkpt lat="45.85363286350104" lon="12.185594516435433"><ele>97.2</ele><time>2026-04-25T04:40:59.994Z</time></trkpt><trkpt lat="45.85369683143242" lon="12.185485359438053"><ele>98.0</ele><time>2026-04-25T04:41:00.994Z</time></trkpt><trkpt lat="45.85374261774284" lon="12.185385930286643"><ele>97.99999999999999</ele><time>2026-04-25T04:41:01.994Z</time></trkpt><trkpt lat="45.85379115784703" lon="12.185316065292465"><ele>98.0</ele><time>2026-04-25T04:41:02.994Z</time></trkpt><trkpt lat="45.85384512976226" lon="12.185207571974647"><ele>98.0</ele><time>2026-04-25T04:41:03.993Z</time></trkpt><trkpt lat="45.85390131735465" lon="12.185102826386004"><ele>98.0</ele><time>2026-04-25T04:41:04.993Z</time></trkpt><trkpt lat="45.853961823774554" lon="12.185030413137326"><ele>97.99999999999999</ele><time>2026-04-25T04:41:05.993Z</time></trkpt><trkpt lat="45.85406013267537" lon="12.184946770150237"><ele>98.0</ele><time>2026-04-25T04:41:07.993Z</time></trkpt><trkpt lat="45.85413579735363" lon="12.184889214544734"><ele>97.57142857142857</ele><time>2026-04-25T04:41:08.993Z</time></trkpt><trkpt lat="45.85419062978866" lon="12.184831416975257"><ele>97.14285714285714</ele><time>2026-04-25T04:41:09.993Z</time></trkpt><trkpt lat="45.85424481762201" lon="12.18475594018243"><ele>96.71428571428572</ele><time>2026-04-25T04:41:10.993Z</time></trkpt><trkpt lat="45.854293575624794" lon="12.184688817471468"><ele>96.28571428571428</ele><time>2026-04-25T04:41:11.993Z</time></trkpt><trkpt lat="45.85435066465268" lon="12.184636036038343"><ele>95.85714285714286</ele><time>2026-04-25T04:41:12.993Z</time></trkpt><trkpt lat="45.854402569451175" lon="12.184567957390986"><ele>95.42857142857143</ele><time>2026-04-25T04:41:13.993Z</time></trkpt><trkpt lat="45.854467031696466" lon="12.184505803336865"><ele>95.0</ele><time>2026-04-25T04:41:14.993Z</time></trkpt><trkpt lat="45.8545205035192" lon="12.184425396703954"><ele>94.66666666666667</ele><time>2026-04-25T04:41:15.993Z</time></trkpt><trkpt lat="45.85458768542438" lon="12.18436651602285"><ele>94.33333333333334</ele><time>2026-04-25T04:41:16.993Z</time></trkpt><trkpt lat="45.85464091751885" lon="12.184304569670617"><ele>94.0</ele><time>2026-04-25T04:41:17.993Z</time></trkpt><trkpt lat="45.85468771562627" lon="12.184234429648136"><ele>93.66666666666667</ele><time>2026-04-25T04:41:18.993Z</time></trkpt><trkpt lat="45.854779039528765" lon="12.18411402190003"><ele>93.33333333333333</ele><time>2026-04-25T04:41:20.993Z</time></trkpt><trkpt lat="45.8548386291648" lon="12.184023426073194"><ele>93.0</ele><time>2026-04-25T04:41:21.993Z</time></trkpt><trkpt lat="45.85489942308251" lon="12.183935197736323"><ele>93.00000000000001</ele><time>2026-04-25T04:41:22.993Z</time></trkpt><trkpt lat="45.854955743425" lon="12.183867658943587"><ele>93.0</ele><time>2026-04-25T04:41:23.993Z</time></trkpt><trkpt lat="45.85502562976006" lon="12.183801386308964"><ele>93.0</ele><time>2026-04-25T04:41:24.993Z</time></trkpt><trkpt lat="45.85508850652619" lon="12.18375352976239"><ele>93.0</ele><time>2026-04-25T04:41:25.993Z</time></trkpt><trkpt lat="45.85515517175597" lon="12.183709856079465"><ele>93.0</ele><time>2026-04-25T04:41:26.993Z</time></trkpt><trkpt lat="45.855213895896725" lon="12.183668034046448"><ele>93.00000000000001</ele><time>2026-04-25T04:41:27.993Z</time></trkpt><trkpt lat="45.8552693497926" lon="12.183617574656774"><ele>93.0</ele><time>2026-04-25T04:41:28.993Z</time></trkpt><trkpt lat="45.855320483286434" lon="12.183553886744953"><ele>94.4</ele><time>2026-04-25T04:41:29.993Z</time></trkpt><trkpt lat="45.8553807981963" lon="12.183499721251138"><ele>95.80000000000001</ele><time>2026-04-25T04:41:30.993Z</time></trkpt><trkpt lat="45.85550132183183" lon="12.18339371607167"><ele>97.2</ele><time>2026-04-25T04:41:32.993Z</time></trkpt><trkpt lat="45.8555702668177" lon="12.183338513604676"><ele>98.6</ele><time>2026-04-25T04:41:33.993Z</time></trkpt><trkpt lat="45.85567569649521" lon="12.183273735112612"><ele>100.0</ele><time>2026-04-25T04:41:35.993Z</time></trkpt><trkpt lat="45.85576278203751" lon="12.183205706920146"><ele>100.16666666666667</ele><time>2026-04-25T04:41:37.993Z</time></trkpt><trkpt lat="45.85588135047699" lon="12.183157312940825"><ele>100.33333333333334</ele><time>2026-04-25T04:41:39.993Z</time></trkpt><trkpt lat="45.85597132191256" lon="12.183123325016949"><ele>100.5</ele><time>2026-04-25T04:41:41.993Z</time></trkpt><trkpt lat="45.856032159882076" lon="12.183066320449248"><ele>100.66666666666666</ele><time>2026-04-25T04:41:44.993Z</time></trkpt><trkpt lat="45.856122603837356" lon="12.183046236615649"><ele>100.83333333333333</ele><time>2026-04-25T04:41:48.993Z</time></trkpt><trkpt lat="45.85618339321433" lon="12.18300142874448"><ele>101.0</ele><time>2026-04-25T04:41:50.993Z</time></trkpt><trkpt lat="45.85625230280203" lon="12.182946344983456"><ele>101.0</ele><time>2026-04-25T04:41:52.993Z</time></trkpt><trkpt lat="45.85635598521043" lon="12.182867748647142"><ele>101.0</ele><time>2026-04-25T04:41:54.993Z</time></trkpt><trkpt lat="45.85643468207829" lon="12.18282408118694"><ele>101.0</ele><time>2026-04-25T04:41:55.993Z</time></trkpt><trkpt lat="45.8565070968732" lon="12.182792905588252"><ele>101.0</ele><time>2026-04-25T04:41:56.993Z</time></trkpt><trkpt lat="45.85662260609114" lon="12.182732417949284"><ele>101.0</ele><time>2026-04-25T04:41:58.993Z</time></trkpt><trkpt lat="45.8566864323526" lon="12.182694818905862"><ele>100.99999999999999</ele><time>2026-04-25T04:41:59.993Z</time></trkpt><trkpt lat="45.856761451274835" lon="12.18266154181058"><ele>101.0</ele><time>2026-04-25T04:42:00.993Z</time></trkpt><trkpt lat="45.856835614039355" lon="12.182644465526776"><ele>101.0</ele><time>2026-04-25T04:42:01.993Z</time></trkpt><trkpt lat="45.85690257037092" lon="12.182623561896492"><ele>101.0</ele><time>2026-04-25T04:42:02.993Z</time></trkpt><trkpt lat="45.856984789491285" lon="12.18261061838919"><ele>100.99999999999999</ele><time>2026-04-25T04:42:03.993Z</time></trkpt><trkpt lat="45.857079361770495" lon="12.182602514275105"><ele>101.0</ele><time>2026-04-25T04:42:04.993Z</time></trkpt><trkpt lat="45.85714609008791" lon="12.182576237774128"><ele>101.0</ele><time>2026-04-25T04:42:05.993Z</time></trkpt><trkpt lat="45.857263174468656" lon="12.182467564921575"><ele>101.0</ele><time>2026-04-25T04:42:07.992Z</time></trkpt><trkpt lat="45.857337600535715" lon="12.18238474299457"><ele>101.0</ele><time>2026-04-25T04:42:08.992Z</time></trkpt><trkpt lat="45.85742410289578" lon="12.182320268970518"><ele>101.0</ele><time>2026-04-25T04:42:09.992Z</time></trkpt><trkpt lat="45.85750718696872" lon="12.182254489263366"><ele>101.0</ele><time>2026-04-25T04:42:10.992Z</time></trkpt><trkpt lat="45.857580046177425" lon="12.182188495780201"><ele>99.66666666666666</ele><time>2026-04-25T04:42:11.992Z</time></trkpt><trkpt lat="45.857647707579055" lon="12.18214648844525"><ele>98.33333333333333</ele><time>2026-04-25T04:42:12.992Z</time></trkpt><trkpt lat="45.85771133336862" lon="12.182114166647812"><ele>97.0</ele><time>2026-04-25T04:42:13.992Z</time></trkpt><trkpt lat="45.857788743351136" lon="12.182043447527484"><ele>95.66666666666666</ele><time>2026-04-25T04:42:15.992Z</time></trkpt><trkpt lat="45.85783163447743" lon="12.18197427261939"><ele>94.33333333333333</ele><time>2026-04-25T04:42:17.992Z</time></trkpt><trkpt lat="45.857847809095375" lon="12.18184586610224"><ele>93.0</ele><time>2026-04-25T04:42:20.992Z</time></trkpt><trkpt lat="45.857861485157414" lon="12.181737558784066"><ele>93.00000000000001</ele><time>2026-04-25T04:42:22.992Z</time></trkpt><trkpt lat="45.85787797872585" lon="12.181604550017125"><ele>93.0</ele><time>2026-04-25T04:42:24.992Z</time></trkpt><trkpt lat="45.8578968733455" lon="12.181512877058553"><ele>93.0</ele><time>2026-04-25T04:42:25.992Z</time></trkpt><trkpt lat="45.85791503598876" lon="12.181420850481476"><ele>93.0</ele><time>2026-04-25T04:42:26.992Z</time></trkpt><trkpt lat="45.85792086408566" lon="12.181328425820661"><ele>93.0</ele><time>2026-04-25T04:42:27.992Z</time></trkpt><trkpt lat="45.85791173988572" lon="12.181228068467409"><ele>93.00000000000001</ele><time>2026-04-25T04:42:28.992Z</time></trkpt><trkpt lat="45.857885152388974" lon="12.181118114921718"><ele>93.0</ele><time>2026-04-25T04:42:29.992Z</time></trkpt><trkpt lat="45.857860094421845" lon="12.181026330819314"><ele>93.0</ele><time>2026-04-25T04:42:30.992Z</time></trkpt><trkpt lat="45.85783073035889" lon="12.18092735145754"><ele>93.0</ele><time>2026-04-25T04:42:32.992Z</time></trkpt><trkpt lat="45.85778622780079" lon="12.18084610937725"><ele>93.0</ele><time>2026-04-25T04:42:34.992Z</time></trkpt><trkpt lat="45.85773472391404" lon="12.180713269447608"><ele>93.0</ele><time>2026-04-25T04:42:36.992Z</time></trkpt><trkpt lat="45.8577280487273" lon="12.180589742370605"><ele>93.0</ele><time>2026-04-25T04:42:37.992Z</time></trkpt><trkpt lat="45.857739251714264" lon="12.180452822885956"><ele>93.0</ele><time>2026-04-25T04:42:38.993Z</time></trkpt><trkpt lat="45.857766028986134" lon="12.180352281161332"><ele>92.83333333333333</ele><time>2026-04-25T04:42:39.993Z</time></trkpt><trkpt lat="45.85779571611105" lon="12.180245605853978"><ele>92.66666666666667</ele><time>2026-04-25T04:42:40.993Z</time></trkpt><trkpt lat="45.85783784597566" lon="12.180130960387642"><ele>92.5</ele><time>2026-04-25T04:42:41.993Z</time></trkpt><trkpt lat="45.85788596801739" lon="12.180016210969443"><ele>92.33333333333334</ele><time>2026-04-25T04:42:42.993Z</time></trkpt><trkpt lat="45.857935970488384" lon="12.179903833476532"><ele>92.16666666666667</ele><time>2026-04-25T04:42:43.993Z</time></trkpt><trkpt lat="45.85798037553931" lon="12.179795468309862"><ele>92.0</ele><time>2026-04-25T04:42:44.993Z</time></trkpt><trkpt lat="45.85802781758545" lon="12.179698118965828"><ele>92.33333333333334</ele><time>2026-04-25T04:42:45.993Z</time></trkpt><trkpt lat="45.85807623897556" lon="12.179598372027579"><ele>92.66666666666667</ele><time>2026-04-25T04:42:46.993Z</time></trkpt><trkpt lat="45.858112300174824" lon="12.179500711180047"><ele>93.0</ele><time>2026-04-25T04:42:47.993Z</time></trkpt><trkpt lat="45.85815449734618" lon="12.179414453254202"><ele>93.33333333333333</ele><time>2026-04-25T04:42:48.993Z</time></trkpt><trkpt lat="45.85819289026909" lon="12.179316893153812"><ele>93.66666666666666</ele><time>2026-04-25T04:42:49.993Z</time></trkpt><trkpt lat="45.8582410801926" lon="12.179220188466449"><ele>94.0</ele><time>2026-04-25T04:42:50.993Z</time></trkpt><trkpt lat="45.858279097451884" lon="12.179133704921231"><ele>94.0</ele><time>2026-04-25T04:42:51.993Z</time></trkpt><trkpt lat="45.85831311013417" lon="12.179033423344553"><ele>94.0</ele><time>2026-04-25T04:42:52.993Z</time></trkpt><trkpt lat="45.85835780456799" lon="12.178937224611094"><ele>94.0</ele><time>2026-04-25T04:42:53.993Z</time></trkpt><trkpt lat="45.858398644226675" lon="12.17884772448236"><ele>94.0</ele><time>2026-04-25T04:42:54.993Z</time></trkpt><trkpt lat="45.85845574392748" lon="12.178752380236388"><ele>94.0</ele><time>2026-04-25T04:42:55.992Z</time></trkpt><trkpt lat="45.858515940222134" lon="12.178669380750543"><ele>94.0</ele><time>2026-04-25T04:42:56.992Z</time></trkpt><trkpt lat="45.85857315931073" lon="12.178586207657904"><ele>94.14285714285714</ele><time>2026-04-25T04:42:57.992Z</time></trkpt><trkpt lat="45.85861568475946" lon="12.178506974696656"><ele>94.28571428571428</ele><time>2026-04-25T04:42:58.992Z</time></trkpt><trkpt lat="45.85865647109786" lon="12.178432793501178"><ele>94.42857142857143</ele><time>2026-04-25T04:42:59.992Z</time></trkpt><trkpt lat="45.85870327132681" lon="12.178349738394282"><ele>94.57142857142857</ele><time>2026-04-25T04:43:00.992Z</time></trkpt><trkpt lat="45.85875124171849" lon="12.17826164984139"><ele>94.71428571428572</ele><time>2026-04-25T04:43:01.992Z</time></trkpt><trkpt lat="45.858796361587586" lon="12.178170926234662"><ele>94.85714285714286</ele><time>2026-04-25T04:43:02.992Z</time></trkpt><trkpt lat="45.85883491398185" lon="12.178080014778255"><ele>95.0</ele><time>2026-04-25T04:43:03.992Z</time></trkpt><trkpt lat="45.85886590199182" lon="12.177995224802476"><ele>95.0</ele><time>2026-04-25T04:43:04.992Z</time></trkpt><trkpt lat="45.85889097542851" lon="12.17790848141666"><ele>95.0</ele><time>2026-04-25T04:43:05.992Z</time></trkpt><trkpt lat="45.85891038046462" lon="12.177811134145326"><ele>95.0</ele><time>2026-04-25T04:43:06.992Z</time></trkpt><trkpt lat="45.858926112425046" lon="12.177717751467014"><ele>95.0</ele><time>2026-04-25T04:43:07.992Z</time></trkpt><trkpt lat="45.85893283810349" lon="12.17762121949875"><ele>95.0</ele><time>2026-04-25T04:43:08.992Z</time></trkpt><trkpt lat="45.85892560334349" lon="12.17746025606071"><ele>95.0</ele><time>2026-04-25T04:43:10.992Z</time></trkpt><trkpt lat="45.85892917725297" lon="12.177362015996298"><ele>95.28571428571429</ele><time>2026-04-25T04:43:11.992Z</time></trkpt><trkpt lat="45.85894708263248" lon="12.177268464887304"><ele>95.57142857142858</ele><time>2026-04-25T04:43:12.992Z</time></trkpt><trkpt lat="45.85897830980278" lon="12.177180497529852"><ele>95.85714285714286</ele><time>2026-04-25T04:43:13.992Z</time></trkpt><trkpt lat="45.85900975999621" lon="12.177082472883498"><ele>96.14285714285714</ele><time>2026-04-25T04:43:14.992Z</time></trkpt><trkpt lat="45.859034425466355" lon="12.176981577439454"><ele>96.42857142857143</ele><time>2026-04-25T04:43:15.992Z</time></trkpt><trkpt lat="45.85905458773576" lon="12.17687001492501"><ele>96.71428571428571</ele><time>2026-04-25T04:43:16.992Z</time></trkpt><trkpt lat="45.8590555481006" lon="12.176765278539081"><ele>97.0</ele><time>2026-04-25T04:43:17.992Z</time></trkpt><trkpt lat="45.85904943469888" lon="12.17666706064205"><ele>97.0</ele><time>2026-04-25T04:43:18.992Z</time></trkpt><trkpt lat="45.85904760344664" lon="12.176563224418306"><ele>97.0</ele><time>2026-04-25T04:43:19.992Z</time></trkpt><trkpt lat="45.859038924841464" lon="12.176458598451223"><ele>97.0</ele><time>2026-04-25T04:43:20.992Z</time></trkpt><trkpt lat="45.85902644790705" lon="12.176356723016024"><ele>97.0</ele><time>2026-04-25T04:43:21.992Z</time></trkpt><trkpt lat="45.85902122035875" lon="12.176263066711856"><ele>97.0</ele><time>2026-04-25T04:43:22.992Z</time></trkpt><trkpt lat="45.8590153177439" lon="12.176153338492561"><ele>97.0</ele><time>2026-04-25T04:43:23.992Z</time></trkpt><trkpt lat="45.85902185695732" lon="12.17603961257005"><ele>97.0</ele><time>2026-04-25T04:43:24.992Z</time></trkpt><trkpt lat="45.85902851395629" lon="12.175927087517849"><ele>97.50000000000001</ele><time>2026-04-25T04:43:25.992Z</time></trkpt><trkpt lat="45.859031607227905" lon="12.175817504953823"><ele>98.0</ele><time>2026-04-25T04:43:26.992Z</time></trkpt><trkpt lat="45.85904080102329" lon="12.175698980741377"><ele>98.5</ele><time>2026-04-25T04:43:27.992Z</time></trkpt><trkpt lat="45.859055661722" lon="12.175575934324224"><ele>99.0</ele><time>2026-04-25T04:43:28.992Z</time></trkpt><trkpt lat="45.85905729971727" lon="12.175450914047858"><ele>99.50000000000001</ele><time>2026-04-25T04:43:29.992Z</time></trkpt><trkpt lat="45.85904379476245" lon="12.175327420327893"><ele>100.0</ele><time>2026-04-25T04:43:30.992Z</time></trkpt><trkpt lat="45.85904010918375" lon="12.175211407561521"><ele>100.50000000000001</ele><time>2026-04-25T04:43:31.992Z</time></trkpt><trkpt lat="45.859031136670346" lon="12.175108051135139"><ele>101.0</ele><time>2026-04-25T04:43:32.992Z</time></trkpt><trkpt lat="45.85902331447064" lon="12.175001323324265"><ele>101.5</ele><time>2026-04-25T04:43:33.992Z</time></trkpt><trkpt lat="45.85901096835551" lon="12.174882074418294"><ele>102.0</ele><time>2026-04-25T04:43:34.992Z</time></trkpt><trkpt lat="45.85900137466761" lon="12.174778393256654"><ele>102.50000000000001</ele><time>2026-04-25T04:43:35.992Z</time></trkpt><trkpt lat="45.858997377301705" lon="12.17467336035691"><ele>103.0</ele><time>2026-04-25T04:43:36.992Z</time></trkpt><trkpt lat="45.85898558870357" lon="12.174569938474619"><ele>103.00000000000001</ele><time>2026-04-25T04:43:37.992Z</time></trkpt><trkpt lat="45.858968623624556" lon="12.174461334477414"><ele>103.0</ele><time>2026-04-25T04:43:38.992Z</time></trkpt><trkpt lat="45.8589546751808" lon="12.1743498355338"><ele>103.0</ele><time>2026-04-25T04:43:39.992Z</time></trkpt><trkpt lat="45.85894106856629" lon="12.17423497795796"><ele>103.0</ele><time>2026-04-25T04:43:40.992Z</time></trkpt><trkpt lat="45.85892351951156" lon="12.174126084586346"><ele>103.00000000000001</ele><time>2026-04-25T04:43:41.992Z</time></trkpt><trkpt lat="45.85890876055577" lon="12.174013700973987"><ele>103.0</ele><time>2026-04-25T04:43:42.992Z</time></trkpt><trkpt lat="45.85889647524446" lon="12.173907898880683"><ele>102.85714285714285</ele><time>2026-04-25T04:43:43.992Z</time></trkpt><trkpt lat="45.85888502185046" lon="12.17379966849389"><ele>102.71428571428571</ele><time>2026-04-25T04:43:44.992Z</time></trkpt><trkpt lat="45.85888306791516" lon="12.173691818582101"><ele>102.57142857142857</ele><time>2026-04-25T04:43:45.992Z</time></trkpt><trkpt lat="45.85887842418733" lon="12.173585814360479"><ele>102.42857142857142</ele><time>2026-04-25T04:43:46.992Z</time></trkpt><trkpt lat="45.85886255523339" lon="12.17348213568315"><ele>102.28571428571429</ele><time>2026-04-25T04:43:47.992Z</time></trkpt><trkpt lat="45.85884555774569" lon="12.173379514367664"><ele>102.14285714285714</ele><time>2026-04-25T04:43:48.992Z</time></trkpt><trkpt lat="45.85883014444975" lon="12.173284566949377"><ele>102.0</ele><time>2026-04-25T04:43:49.992Z</time></trkpt><trkpt lat="45.858807267295084" lon="12.173193975190388"><ele>101.66666666666667</ele><time>2026-04-25T04:43:50.992Z</time></trkpt><trkpt lat="45.858771334222496" lon="12.173099421172191"><ele>101.33333333333334</ele><time>2026-04-25T04:43:51.992Z</time></trkpt><trkpt lat="45.85868620622189" lon="12.172975832284703"><ele>101.0</ele><time>2026-04-25T04:43:53.992Z</time></trkpt><trkpt lat="45.85859475304913" lon="12.172899231013185"><ele>100.66666666666667</ele><time>2026-04-25T04:43:55.992Z</time></trkpt><trkpt lat="45.858527129620825" lon="12.172856181018712"><ele>100.33333333333334</ele><time>2026-04-25T04:43:56.992Z</time></trkpt><trkpt lat="45.85846210986824" lon="12.172846884915936"><ele>100.0</ele><time>2026-04-25T04:43:57.992Z</time></trkpt><trkpt lat="45.858391946691555" lon="12.172818978105257"><ele>99.66666666666667</ele><time>2026-04-25T04:43:58.992Z</time></trkpt><trkpt lat="45.858269978342925" lon="12.172738333210392"><ele>99.33333333333334</ele><time>2026-04-25T04:44:00.992Z</time></trkpt><trkpt lat="45.85821961234546" lon="12.172667195403239"><ele>99.0</ele><time>2026-04-25T04:44:01.992Z</time></trkpt><trkpt lat="45.85817695232117" lon="12.172581377441245"><ele>98.66666666666666</ele><time>2026-04-25T04:44:02.992Z</time></trkpt><trkpt lat="45.858142315567115" lon="12.172493475336447"><ele>98.33333333333333</ele><time>2026-04-25T04:44:03.991Z</time></trkpt><trkpt lat="45.858108444899436" lon="12.172398637649106"><ele>98.0</ele><time>2026-04-25T04:44:04.991Z</time></trkpt><trkpt lat="45.85807851723978" lon="12.1722777889016"><ele>97.83333333333333</ele><time>2026-04-25T04:44:05.991Z</time></trkpt><trkpt lat="45.858064140090825" lon="12.17217542673183"><ele>97.66666666666666</ele><time>2026-04-25T04:44:06.991Z</time></trkpt><trkpt lat="45.85804484444901" lon="12.172075039838646"><ele>97.5</ele><time>2026-04-25T04:44:07.991Z</time></trkpt><trkpt lat="45.85803615667438" lon="12.17196228403556"><ele>97.33333333333334</ele><time>2026-04-25T04:44:08.991Z</time></trkpt><trkpt lat="45.85804282295676" lon="12.171850837119202"><ele>97.16666666666667</ele><time>2026-04-25T04:44:09.991Z</time></trkpt><trkpt lat="45.858030646351736" lon="12.17173795583967"><ele>97.0</ele><time>2026-04-25T04:44:10.991Z</time></trkpt><trkpt lat="45.858018528215744" lon="12.171629137717499"><ele>97.0</ele><time>2026-04-25T04:44:11.991Z</time></trkpt><trkpt lat="45.857995849878655" lon="12.171534428855106"><ele>97.0</ele><time>2026-04-25T04:44:12.991Z</time></trkpt><trkpt lat="45.85792671515238" lon="12.171386863161072"><ele>97.0</ele><time>2026-04-25T04:44:14.991Z</time></trkpt><trkpt lat="45.85784595229118" lon="12.171253744773209"><ele>97.0</ele><time>2026-04-25T04:44:16.991Z</time></trkpt><trkpt lat="45.85777186342028" lon="12.171090838657298"><ele>96.50000000000001</ele><time>2026-04-25T04:44:18.991Z</time></trkpt><trkpt lat="45.857749345821716" lon="12.17099762523653"><ele>96.0</ele><time>2026-04-25T04:44:19.991Z</time></trkpt><trkpt lat="45.857721346573925" lon="12.170902898790422"><ele>95.5</ele><time>2026-04-25T04:44:20.991Z</time></trkpt><trkpt lat="45.85766325547792" lon="12.17082489708566"><ele>95.0</ele><time>2026-04-25T04:44:22.991Z</time></trkpt><trkpt lat="45.85754943817386" lon="12.170690872542249"><ele>94.5</ele><time>2026-04-25T04:44:24.991Z</time></trkpt><trkpt lat="45.85747726405571" lon="12.170649344436796"><ele>94.0</ele><time>2026-04-25T04:44:25.991Z</time></trkpt><trkpt lat="45.85740848298196" lon="12.170620923528187"><ele>94.0</ele><time>2026-04-25T04:44:26.991Z</time></trkpt><trkpt lat="45.857344279418754" lon="12.170543842661735"><ele>94.0</ele><time>2026-04-25T04:44:27.991Z</time></trkpt><trkpt lat="45.857280974288244" lon="12.170460183952603"><ele>94.0</ele><time>2026-04-25T04:44:28.991Z</time></trkpt><trkpt lat="45.85722412263851" lon="12.170363246875787"><ele>94.0</ele><time>2026-04-25T04:44:29.991Z</time></trkpt><trkpt lat="45.85716655857978" lon="12.170288193461138"><ele>94.0</ele><time>2026-04-25T04:44:30.991Z</time></trkpt><trkpt lat="45.85711146852195" lon="12.17020679493458"><ele>94.0</ele><time>2026-04-25T04:44:31.991Z</time></trkpt><trkpt lat="45.857052259282675" lon="12.17011607362174"><ele>94.0</ele><time>2026-04-25T04:44:32.991Z</time></trkpt><trkpt lat="45.857001378215486" lon="12.170016509655174"><ele>94.0</ele><time>2026-04-25T04:44:33.991Z</time></trkpt><trkpt lat="45.85695696169239" lon="12.169916459449976"><ele>94.0</ele><time>2026-04-25T04:44:34.991Z</time></trkpt><trkpt lat="45.856938073008685" lon="12.16978460170379"><ele>94.0</ele><time>2026-04-25T04:44:35.991Z</time></trkpt><trkpt lat="45.85692983299968" lon="12.169650331278259"><ele>94.0</ele><time>2026-04-25T04:44:36.991Z</time></trkpt><trkpt lat="45.856908910318666" lon="12.169527894841918"><ele>94.0</ele><time>2026-04-25T04:44:37.991Z</time></trkpt><trkpt lat="45.85688910703147" lon="12.169410559594544"><ele>93.83333333333333</ele><time>2026-04-25T04:44:38.991Z</time></trkpt><trkpt lat="45.85687705298264" lon="12.169299276178384"><ele>93.66666666666666</ele><time>2026-04-25T04:44:39.991Z</time></trkpt><trkpt lat="45.856854256938746" lon="12.169189468785756"><ele>93.5</ele><time>2026-04-25T04:44:40.991Z</time></trkpt><trkpt lat="45.856833459386955" lon="12.169086973002429"><ele>93.33333333333333</ele><time>2026-04-25T04:44:41.991Z</time></trkpt><trkpt lat="45.85683525509039" lon="12.168970978240692"><ele>93.16666666666667</ele><time>2026-04-25T04:44:42.991Z</time></trkpt><trkpt lat="45.85684129698895" lon="12.168857521539563"><ele>93.0</ele><time>2026-04-25T04:44:43.991Z</time></trkpt><trkpt lat="45.8568383746239" lon="12.168748234786198"><ele>93.0</ele><time>2026-04-25T04:44:44.993Z</time></trkpt><trkpt lat="45.85681369933338" lon="12.16856135123653"><ele>93.0</ele><time>2026-04-25T04:44:46.992Z</time></trkpt><trkpt lat="45.85677622720381" lon="12.168453008905233"><ele>93.0</ele><time>2026-04-25T04:44:47.992Z</time></trkpt><trkpt lat="45.856745449617506" lon="12.168355383136772"><ele>93.0</ele><time>2026-04-25T04:44:48.993Z</time></trkpt><trkpt lat="45.85672230491467" lon="12.16825702746395"><ele>93.0</ele><time>2026-04-25T04:44:49.993Z</time></trkpt><trkpt lat="45.8567174100047" lon="12.168166587867013"><ele>93.0</ele><time>2026-04-25T04:44:50.993Z</time></trkpt><trkpt lat="45.85672115054163" lon="12.168062435011903"><ele>93.16666666666667</ele><time>2026-04-25T04:44:51.993Z</time></trkpt><trkpt lat="45.85671933200983" lon="12.16796258627176"><ele>93.33333333333333</ele><time>2026-04-25T04:44:52.993Z</time></trkpt><trkpt lat="45.85672039656738" lon="12.167871916048101"><ele>93.5</ele><time>2026-04-25T04:44:53.992Z</time></trkpt><trkpt lat="45.85671411977662" lon="12.167736542128537"><ele>93.66666666666666</ele><time>2026-04-25T04:44:55.992Z</time></trkpt><trkpt lat="45.85665369808698" lon="12.167629187058365"><ele>93.83333333333333</ele><time>2026-04-25T04:44:57.993Z</time></trkpt><trkpt lat="45.85664395964011" lon="12.16748768346358"><ele>94.0</ele><time>2026-04-25T04:45:00.993Z</time></trkpt><trkpt lat="45.856605705858" lon="12.16736328315242"><ele>93.83333333333333</ele><time>2026-04-25T04:45:03.993Z</time></trkpt><trkpt lat="45.85653468106" lon="12.167279416224149"><ele>93.66666666666666</ele><time>2026-04-25T04:45:05.993Z</time></trkpt><trkpt lat="45.85646820526873" lon="12.16716815116288"><ele>93.5</ele><time>2026-04-25T04:45:07.993Z</time></trkpt><trkpt lat="45.85643150229659" lon="12.167068901853053"><ele>93.33333333333333</ele><time>2026-04-25T04:45:08.993Z</time></trkpt><trkpt lat="45.85639919831013" lon="12.16697946253067"><ele>93.16666666666667</ele><time>2026-04-25T04:45:09.993Z</time></trkpt><trkpt lat="45.856371898373645" lon="12.16688522109226"><ele>93.0</ele><time>2026-04-25T04:45:10.993Z</time></trkpt><trkpt lat="45.85634868018778" lon="12.166794077801496"><ele>93.0</ele><time>2026-04-25T04:45:11.992Z</time></trkpt><trkpt lat="45.85632438393291" lon="12.166702445448196"><ele>93.0</ele><time>2026-04-25T04:45:12.992Z</time></trkpt><trkpt lat="45.85630431355627" lon="12.166615589820307"><ele>93.0</ele><time>2026-04-25T04:45:13.992Z</time></trkpt><trkpt lat="45.85628261394043" lon="12.16652937267089"><ele>93.0</ele><time>2026-04-25T04:45:14.992Z</time></trkpt><trkpt lat="45.85625826504136" lon="12.166433356833648"><ele>93.0</ele><time>2026-04-25T04:45:15.992Z</time></trkpt><trkpt lat="45.85621767606288" lon="12.1662751400186"><ele>93.0</ele><time>2026-04-25T04:45:17.992Z</time></trkpt><trkpt lat="45.85616513976712" lon="12.1661170063054"><ele>93.4</ele><time>2026-04-25T04:45:19.992Z</time></trkpt><trkpt lat="45.856133228116946" lon="12.165949233882744"><ele>93.80000000000001</ele><time>2026-04-25T04:45:21.992Z</time></trkpt><trkpt lat="45.856126345419796" lon="12.165857851924141"><ele>94.2</ele><time>2026-04-25T04:45:22.992Z</time></trkpt><trkpt lat="45.85611687270723" lon="12.165763463755495"><ele>94.6</ele><time>2026-04-25T04:45:23.992Z</time></trkpt><trkpt lat="45.856113317717984" lon="12.165594146636543"><ele>95.0</ele><time>2026-04-25T04:45:25.992Z</time></trkpt><trkpt lat="45.85610156593279" lon="12.16542226899643"><ele>95.6</ele><time>2026-04-25T04:45:27.992Z</time></trkpt><trkpt lat="45.85606102822731" lon="12.165249471083179"><ele>96.2</ele><time>2026-04-25T04:45:29.992Z</time></trkpt><trkpt lat="45.85606780574398" lon="12.165158449397211"><ele>96.80000000000001</ele><time>2026-04-25T04:45:30.992Z</time></trkpt><trkpt lat="45.85607900711569" lon="12.165054445347012"><ele>97.4</ele><time>2026-04-25T04:45:31.992Z</time></trkpt><trkpt lat="45.85605810594135" lon="12.164888773389608"><ele>98.0</ele><time>2026-04-25T04:45:33.992Z</time></trkpt><trkpt lat="45.856057468943035" lon="12.164730770073408"><ele>98.80000000000001</ele><time>2026-04-25T04:45:35.992Z</time></trkpt><trkpt lat="45.856050003431065" lon="12.164572677533625"><ele>99.6</ele><time>2026-04-25T04:45:37.992Z</time></trkpt><trkpt lat="45.856051327597335" lon="12.164430611577183"><ele>100.4</ele><time>2026-04-25T04:45:39.992Z</time></trkpt><trkpt lat="45.85605333548468" lon="12.164260331184927"><ele>101.19999999999999</ele><time>2026-04-25T04:45:41.992Z</time></trkpt><trkpt lat="45.85604649728779" lon="12.164157615632936"><ele>102.0</ele><time>2026-04-25T04:45:42.992Z</time></trkpt><trkpt lat="45.85602613369954" lon="12.164058764171909"><ele>102.33333333333333</ele><time>2026-04-25T04:45:43.992Z</time></trkpt><trkpt lat="45.856006341832334" lon="12.163966045958292"><ele>102.66666666666666</ele><time>2026-04-25T04:45:44.992Z</time></trkpt><trkpt lat="45.856002123713644" lon="12.16380658710087"><ele>103.0</ele><time>2026-04-25T04:45:46.992Z</time></trkpt><trkpt lat="45.85599861092554" lon="12.163714898312346"><ele>103.33333333333333</ele><time>2026-04-25T04:45:50.992Z</time></trkpt><trkpt lat="45.855977923490336" lon="12.163625206744259"><ele>103.66666666666666</ele><time>2026-04-25T04:45:53.992Z</time></trkpt><trkpt lat="45.85593870573881" lon="12.163502313846154"><ele>104.0</ele><time>2026-04-25T04:45:55.992Z</time></trkpt><trkpt lat="45.855930412196805" lon="12.163407703627795"><ele>102.33333333333333</ele><time>2026-04-25T04:45:56.992Z</time></trkpt><trkpt lat="45.855917296364034" lon="12.163316028890907"><ele>100.66666666666666</ele><time>2026-04-25T04:45:57.992Z</time></trkpt><trkpt lat="45.85590551508882" lon="12.163222753458149"><ele>99.0</ele><time>2026-04-25T04:45:58.992Z</time></trkpt><trkpt lat="45.85589031618123" lon="12.163128456200996"><ele>97.33333333333333</ele><time>2026-04-25T04:45:59.992Z</time></trkpt><trkpt lat="45.855888159490036" lon="12.16302731777701"><ele>95.66666666666666</ele><time>2026-04-25T04:46:00.992Z</time></trkpt><trkpt lat="45.855876663520114" lon="12.162888213503836"><ele>94.0</ele><time>2026-04-25T04:46:01.992Z</time></trkpt><trkpt lat="45.85588400490776" lon="12.162746502610986"><ele>94.0</ele><time>2026-04-25T04:46:02.992Z</time></trkpt><trkpt lat="45.85590299222822" lon="12.16260964364606"><ele>94.0</ele><time>2026-04-25T04:46:03.992Z</time></trkpt><trkpt lat="45.85591525853552" lon="12.16249179010028"><ele>94.0</ele><time>2026-04-25T04:46:04.992Z</time></trkpt><trkpt lat="45.855917126997255" lon="12.162384084605602"><ele>94.0</ele><time>2026-04-25T04:46:05.992Z</time></trkpt><trkpt lat="45.85591354131914" lon="12.162201454802133"><ele>94.0</ele><time>2026-04-25T04:46:07.992Z</time></trkpt><trkpt lat="45.85587097548187" lon="12.1621078818216"><ele>94.5</ele><time>2026-04-25T04:46:09.992Z</time></trkpt><trkpt lat="45.85580907827294" lon="12.161999610225648"><ele>95.0</ele><time>2026-04-25T04:46:11.992Z</time></trkpt><trkpt lat="45.85578692757968" lon="12.161914189974599"><ele>95.5</ele><time>2026-04-25T04:46:12.992Z</time></trkpt><trkpt lat="45.855789486943706" lon="12.16180770876902"><ele>96.0</ele><time>2026-04-25T04:46:13.992Z</time></trkpt><trkpt lat="45.85579759952272" lon="12.161705346141108"><ele>96.50000000000001</ele><time>2026-04-25T04:46:14.992Z</time></trkpt><trkpt lat="45.85580049313724" lon="12.161605525732817"><ele>97.0</ele><time>2026-04-25T04:46:15.992Z</time></trkpt><trkpt lat="45.855812013043206" lon="12.161471493427124"><ele>97.33333333333334</ele><time>2026-04-25T04:46:16.992Z</time></trkpt><trkpt lat="45.85582227422481" lon="12.161330539372505"><ele>97.66666666666667</ele><time>2026-04-25T04:46:17.992Z</time></trkpt><trkpt lat="45.85581709943872" lon="12.161222855224052"><ele>98.0</ele><time>2026-04-25T04:46:18.992Z</time></trkpt><trkpt lat="45.85581699197217" lon="12.161122404035567"><ele>98.33333333333334</ele><time>2026-04-25T04:46:19.991Z</time></trkpt><trkpt lat="45.85576948873768" lon="12.160943313851273"><ele>98.66666666666667</ele><time>2026-04-25T04:46:21.991Z</time></trkpt><trkpt lat="45.855736097719884" lon="12.160859873561307"><ele>99.0</ele><time>2026-04-25T04:46:22.991Z</time></trkpt><trkpt lat="45.85566097532955" lon="12.160753579949533"><ele>99.80000000000001</ele><time>2026-04-25T04:46:24.991Z</time></trkpt><trkpt lat="45.85559241571805" lon="12.16065450877981"><ele>100.60000000000001</ele><time>2026-04-25T04:46:26.991Z</time></trkpt><trkpt lat="45.85551957718442" lon="12.160512681913572"><ele>101.4</ele><time>2026-04-25T04:46:28.991Z</time></trkpt><trkpt lat="45.85551150456118" lon="12.160383781080109"><ele>102.2</ele><time>2026-04-25T04:46:29.991Z</time></trkpt><trkpt lat="45.85550738328106" lon="12.160262381674908"><ele>103.0</ele><time>2026-04-25T04:46:30.991Z</time></trkpt><trkpt lat="45.85551186423457" lon="12.16014347614103"><ele>103.00000000000001</ele><time>2026-04-25T04:46:31.991Z</time></trkpt><trkpt lat="45.8555063183675" lon="12.160028472697666"><ele>103.0</ele><time>2026-04-25T04:46:32.991Z</time></trkpt><trkpt lat="45.85549531376923" lon="12.159920025382103"><ele>103.0</ele><time>2026-04-25T04:46:33.991Z</time></trkpt><trkpt lat="45.85549280277548" lon="12.159822092329177"><ele>103.0</ele><time>2026-04-25T04:46:34.991Z</time></trkpt><trkpt lat="45.85552008082343" lon="12.159710678216152"><ele>103.00000000000001</ele><time>2026-04-25T04:46:35.991Z</time></trkpt><trkpt lat="45.855537809404126" lon="12.15960548876019"><ele>103.0</ele><time>2026-04-25T04:46:36.991Z</time></trkpt><trkpt lat="45.85554779174656" lon="12.159499817666552"><ele>102.80000000000001</ele><time>2026-04-25T04:46:37.991Z</time></trkpt><trkpt lat="45.855564229277526" lon="12.159339140705063"><ele>102.6</ele><time>2026-04-25T04:46:39.991Z</time></trkpt><trkpt lat="45.855586341981244" lon="12.159177503657226"><ele>102.4</ele><time>2026-04-25T04:46:41.991Z</time></trkpt><trkpt lat="45.855620704779334" lon="12.15905328743163"><ele>102.19999999999999</ele><time>2026-04-25T04:46:43.991Z</time></trkpt><trkpt lat="45.85563448972233" lon="12.158936617192913"><ele>102.0</ele><time>2026-04-25T04:46:48.991Z</time></trkpt><trkpt lat="45.85568053106135" lon="12.158859408416514"><ele>102.0</ele><time>2026-04-25T04:46:51.992Z</time></trkpt><trkpt lat="45.855725539779726" lon="12.15875730465274"><ele>102.0</ele><time>2026-04-25T04:46:53.993Z</time></trkpt><trkpt lat="45.855750437576866" lon="12.158644184061899"><ele>102.0</ele><time>2026-04-25T04:46:55.992Z</time></trkpt><trkpt lat="45.85578986602088" lon="12.1585074580387"><ele>102.0</ele><time>2026-04-25T04:46:57.992Z</time></trkpt><trkpt lat="45.85585489437319" lon="12.158340931042575"><ele>102.0</ele><time>2026-04-25T04:46:59.992Z</time></trkpt><trkpt lat="45.8558793460941" lon="12.158245524094173"><ele>101.19999999999999</ele><time>2026-04-25T04:47:00.993Z</time></trkpt><trkpt lat="45.85591000779871" lon="12.158160245792011"><ele>100.4</ele><time>2026-04-25T04:47:01.993Z</time></trkpt><trkpt lat="45.855973742033875" lon="12.158025375716305"><ele>99.6</ele><time>2026-04-25T04:47:03.992Z</time></trkpt><trkpt lat="45.856011130193025" lon="12.15790866555311"><ele>98.80000000000001</ele><time>2026-04-25T04:47:05.992Z</time></trkpt><trkpt lat="45.856044459842806" lon="12.157753244110523"><ele>98.0</ele><time>2026-04-25T04:47:07.992Z</time></trkpt><trkpt lat="45.85605965042649" lon="12.157660247735496"><ele>99.66666666666666</ele><time>2026-04-25T04:47:08.992Z</time></trkpt><trkpt lat="45.85611998930292" lon="12.157515084067057"><ele>101.33333333333333</ele><time>2026-04-25T04:47:10.992Z</time></trkpt><trkpt lat="45.85613057961893" lon="12.157424580685628"><ele>103.0</ele><time>2026-04-25T04:47:11.992Z</time></trkpt><trkpt lat="45.85614534365392" lon="12.157331405914686"><ele>104.66666666666666</ele><time>2026-04-25T04:47:12.992Z</time></trkpt><trkpt lat="45.8561549288205" lon="12.157201864467797"><ele>106.33333333333333</ele><time>2026-04-25T04:47:14.992Z</time></trkpt><trkpt lat="45.85614815938268" lon="12.157109123860788"><ele>108.0</ele><time>2026-04-25T04:47:15.992Z</time></trkpt><trkpt lat="45.85616883565363" lon="12.157018584985574"><ele>108.16666666666667</ele><time>2026-04-25T04:47:16.992Z</time></trkpt><trkpt lat="45.85617885311067" lon="12.15690861226728"><ele>108.33333333333334</ele><time>2026-04-25T04:47:17.992Z</time></trkpt><trkpt lat="45.85619851904678" lon="12.156791672427412"><ele>108.5</ele><time>2026-04-25T04:47:18.992Z</time></trkpt><trkpt lat="45.85621747386206" lon="12.156682038332947"><ele>108.66666666666667</ele><time>2026-04-25T04:47:19.992Z</time></trkpt><trkpt lat="45.85622886432827" lon="12.156580110306514"><ele>108.83333333333334</ele><time>2026-04-25T04:47:20.992Z</time></trkpt><trkpt lat="45.85623687081758" lon="12.156478763155596"><ele>109.0</ele><time>2026-04-25T04:47:21.992Z</time></trkpt><trkpt lat="45.85624179669378" lon="12.156349675277896"><ele>109.0</ele><time>2026-04-25T04:47:22.992Z</time></trkpt><trkpt lat="45.856254259414904" lon="12.156243549553839"><ele>109.0</ele><time>2026-04-25T04:47:23.992Z</time></trkpt><trkpt lat="45.85627063505331" lon="12.156141196086166"><ele>109.0</ele><time>2026-04-25T04:47:24.992Z</time></trkpt><trkpt lat="45.85627487923709" lon="12.156046552368622"><ele>109.0</ele><time>2026-04-25T04:47:25.992Z</time></trkpt><trkpt lat="45.85629088205712" lon="12.155939429573797"><ele>109.0</ele><time>2026-04-25T04:47:26.992Z</time></trkpt><trkpt lat="45.85631257338055" lon="12.155821874699411"><ele>109.0</ele><time>2026-04-25T04:47:27.992Z</time></trkpt><trkpt lat="45.85631772315722" lon="12.15572010987772"><ele>109.0</ele><time>2026-04-25T04:47:28.992Z</time></trkpt><trkpt lat="45.85633563912718" lon="12.155623596903007"><ele>108.50000000000001</ele><time>2026-04-25T04:47:29.992Z</time></trkpt><trkpt lat="45.85635698924821" lon="12.155537390487506"><ele>108.0</ele><time>2026-04-25T04:47:30.992Z</time></trkpt><trkpt lat="45.8563745177938" lon="12.155450248621598"><ele>107.5</ele><time>2026-04-25T04:47:31.992Z</time></trkpt><trkpt lat="45.85639329219858" lon="12.155356903984217"><ele>107.0</ele><time>2026-04-25T04:47:32.992Z</time></trkpt><trkpt lat="45.85638868824747" lon="12.155189470155461"><ele>106.50000000000001</ele><time>2026-04-25T04:47:34.992Z</time></trkpt><trkpt lat="45.85636803391122" lon="12.155103786689184"><ele>106.0</ele><time>2026-04-25T04:47:35.992Z</time></trkpt><trkpt lat="45.85629447528205" lon="12.154989644960672"><ele>106.00000000000001</ele><time>2026-04-25T04:47:37.992Z</time></trkpt><trkpt lat="45.85627357019027" lon="12.154904324234744"><ele>106.0</ele><time>2026-04-25T04:47:38.992Z</time></trkpt><trkpt lat="45.856242156027974" lon="12.154796194826911"><ele>106.0</ele><time>2026-04-25T04:47:40.992Z</time></trkpt><trkpt lat="45.85622270142171" lon="12.154633615479371"><ele>106.0</ele><time>2026-04-25T04:47:42.992Z</time></trkpt><trkpt lat="45.85624546119421" lon="12.154522038949583"><ele>106.00000000000001</ele><time>2026-04-25T04:47:43.992Z</time></trkpt><trkpt lat="45.85626704930643" lon="12.154421150129606"><ele>106.0</ele><time>2026-04-25T04:47:44.992Z</time></trkpt><trkpt lat="45.85626555315075" lon="12.154326131713203"><ele>106.00000000000001</ele><time>2026-04-25T04:47:45.992Z</time></trkpt><trkpt lat="45.85625310116846" lon="12.15423627094812"><ele>106.0</ele><time>2026-04-25T04:47:46.992Z</time></trkpt><trkpt lat="45.85624468861614" lon="12.15412557713975"><ele>106.0</ele><time>2026-04-25T04:47:48.992Z</time></trkpt><trkpt lat="45.85624907576249" lon="12.154006195961022"><ele>106.0</ele><time>2026-04-25T04:47:50.992Z</time></trkpt><trkpt lat="45.85627903818075" lon="12.153820104226366"><ele>106.00000000000001</ele><time>2026-04-25T04:47:52.992Z</time></trkpt><trkpt lat="45.85631942166953" lon="12.153739956212647"><ele>106.0</ele><time>2026-04-25T04:47:53.991Z</time></trkpt><trkpt lat="45.856372435380685" lon="12.153640028613404"><ele>106.0</ele><time>2026-04-25T04:47:55.991Z</time></trkpt><trkpt lat="45.85638571505441" lon="12.153483927593578"><ele>106.0</ele><time>2026-04-25T04:47:57.991Z</time></trkpt><trkpt lat="45.85639614926139" lon="12.153380750505692"><ele>106.0</ele><time>2026-04-25T04:47:58.991Z</time></trkpt><trkpt lat="45.85642980966071" lon="12.153174985459007"><ele>106.0</ele><time>2026-04-25T04:48:00.991Z</time></trkpt><trkpt lat="45.85646177769669" lon="12.153078492114012"><ele>106.0</ele><time>2026-04-25T04:48:01.991Z</time></trkpt><trkpt lat="45.856510938644085" lon="12.152936528905327"><ele>105.50000000000001</ele><time>2026-04-25T04:48:03.991Z</time></trkpt><trkpt lat="45.85652309213718" lon="12.1528285001599"><ele>105.0</ele><time>2026-04-25T04:48:05.991Z</time></trkpt><trkpt lat="45.85658047927544" lon="12.152745739068065"><ele>104.5</ele><time>2026-04-25T04:48:07.991Z</time></trkpt><trkpt lat="45.85665314862636" lon="12.152662727268995"><ele>104.0</ele><time>2026-04-25T04:48:09.991Z</time></trkpt><trkpt lat="45.85671113518287" lon="12.152556260457482"><ele>103.50000000000001</ele><time>2026-04-25T04:48:11.991Z</time></trkpt><trkpt lat="45.85674292246357" lon="12.152434993112381"><ele>103.0</ele><time>2026-04-25T04:48:13.991Z</time></trkpt><trkpt lat="45.856773695787965" lon="12.152290795599798"><ele>103.99999999999999</ele><time>2026-04-25T04:48:15.991Z</time></trkpt><trkpt lat="45.85680414445563" lon="12.152180922216253"><ele>105.0</ele><time>2026-04-25T04:48:17.991Z</time></trkpt><trkpt lat="45.85683534217072" lon="12.152100791522736"><ele>106.0</ele><time>2026-04-25T04:48:18.991Z</time></trkpt><trkpt lat="45.85688936696869" lon="12.152015451045168"><ele>107.0</ele><time>2026-04-25T04:48:19.991Z</time></trkpt><trkpt lat="45.85694771775869" lon="12.151923096119399"><ele>108.0</ele><time>2026-04-25T04:48:20.991Z</time></trkpt><trkpt lat="45.85698437811179" lon="12.15184167959453"><ele>108.99999999999999</ele><time>2026-04-25T04:48:21.991Z</time></trkpt><trkpt lat="45.857011682000326" lon="12.151759291106341"><ele>110.0</ele><time>2026-04-25T04:48:22.991Z</time></trkpt><trkpt lat="45.857032703504146" lon="12.151630986754551"><ele>109.8</ele><time>2026-04-25T04:48:24.991Z</time></trkpt><trkpt lat="45.85703264292055" lon="12.15150839120749"><ele>109.6</ele><time>2026-04-25T04:48:26.991Z</time></trkpt><trkpt lat="45.85703004596987" lon="12.15138082458947"><ele>109.4</ele><time>2026-04-25T04:48:28.991Z</time></trkpt><trkpt lat="45.85706333190277" lon="12.151248526495499"><ele>109.2</ele><time>2026-04-25T04:48:30.991Z</time></trkpt><trkpt lat="45.85711536096356" lon="12.151140782733199"><ele>109.0</ele><time>2026-04-25T04:48:31.991Z</time></trkpt><trkpt lat="45.857144736594066" lon="12.151009494984152"><ele>109.00000000000001</ele><time>2026-04-25T04:48:33.991Z</time></trkpt><trkpt lat="45.85718611365829" lon="12.15087309303527"><ele>109.0</ele><time>2026-04-25T04:48:35.991Z</time></trkpt><trkpt lat="45.85721743214674" lon="12.150780723012032"><ele>109.0</ele><time>2026-04-25T04:48:37.991Z</time></trkpt><trkpt lat="45.85723432838846" lon="12.150677915870572"><ele>109.0</ele><time>2026-04-25T04:48:39.991Z</time></trkpt><trkpt lat="45.85725730350674" lon="12.15059372269592"><ele>109.00000000000001</ele><time>2026-04-25T04:48:40.991Z</time></trkpt><trkpt lat="45.85729417661275" lon="12.150512895254977"><ele>109.0</ele><time>2026-04-25T04:48:41.991Z</time></trkpt><trkpt lat="45.85733739928867" lon="12.150431520471184"><ele>108.33333333333334</ele><time>2026-04-25T04:48:42.991Z</time></trkpt><trkpt lat="45.8573865797599" lon="12.150365730482234"><ele>107.66666666666667</ele><time>2026-04-25T04:48:43.991Z</time></trkpt><trkpt lat="45.8574281468103" lon="12.150268769635055"><ele>107.0</ele><time>2026-04-25T04:48:46.991Z</time></trkpt><trkpt lat="45.857465469362296" lon="12.150157656844364"><ele>106.33333333333334</ele><time>2026-04-25T04:48:48.991Z</time></trkpt><trkpt lat="45.85751001493491" lon="12.150063893873263"><ele>105.66666666666667</ele><time>2026-04-25T04:48:49.991Z</time></trkpt><trkpt lat="45.857557874937115" lon="12.149966639979382"><ele>105.0</ele><time>2026-04-25T04:48:50.991Z</time></trkpt><trkpt lat="45.857603778517976" lon="12.149853123179119"><ele>105.33333333333333</ele><time>2026-04-25T04:48:52.991Z</time></trkpt><trkpt lat="45.8576746670021" lon="12.14974588406488"><ele>105.66666666666666</ele><time>2026-04-25T04:48:54.991Z</time></trkpt><trkpt lat="45.85772523780237" lon="12.149645626287153"><ele>106.0</ele><time>2026-04-25T04:48:57.992Z</time></trkpt><trkpt lat="45.85778806141282" lon="12.149564920640183"><ele>106.33333333333333</ele><time>2026-04-25T04:49:00.992Z</time></trkpt><trkpt lat="45.857844634726035" lon="12.149517904308256"><ele>106.66666666666666</ele><time>2026-04-25T04:49:02.992Z</time></trkpt><trkpt lat="45.85790924221794" lon="12.149417891064813"><ele>107.0</ele><time>2026-04-25T04:49:05.992Z</time></trkpt><trkpt lat="45.85799303506606" lon="12.149333744061401"><ele>106.99999999999999</ele><time>2026-04-25T04:49:07.992Z</time></trkpt><trkpt lat="45.858032356714965" lon="12.14922789986374"><ele>107.0</ele><time>2026-04-25T04:49:09.992Z</time></trkpt><trkpt lat="45.858090439577374" lon="12.149172215470102"><ele>107.0</ele><time>2026-04-25T04:49:11.992Z</time></trkpt><trkpt lat="45.85803188106938" lon="12.149083079790953"><ele>107.0</ele><time>2026-04-25T04:49:14.992Z</time></trkpt><trkpt lat="45.85798805867772" lon="12.148997174396142"><ele>106.99999999999999</ele><time>2026-04-25T04:49:17.992Z</time></trkpt><trkpt lat="45.85797899186745" lon="12.148897535505217"><ele>107.0</ele><time>2026-04-25T04:49:18.992Z</time></trkpt><trkpt lat="45.857983904336336" lon="12.148790781864294"><ele>106.49999999999999</ele><time>2026-04-25T04:49:19.992Z</time></trkpt><trkpt lat="45.8579917277436" lon="12.148664557998183"><ele>106.0</ele><time>2026-04-25T04:49:20.992Z</time></trkpt><trkpt lat="45.8580076632132" lon="12.14856135698662"><ele>105.5</ele><time>2026-04-25T04:49:21.992Z</time></trkpt><trkpt lat="45.85802904062033" lon="12.14846689868189"><ele>105.0</ele><time>2026-04-25T04:49:22.992Z</time></trkpt><trkpt lat="45.85807165757113" lon="12.148384366792"><ele>104.49999999999999</ele><time>2026-04-25T04:49:23.992Z</time></trkpt><trkpt lat="45.8581262000772" lon="12.148300886557397"><ele>104.0</ele><time>2026-04-25T04:49:24.992Z</time></trkpt><trkpt lat="45.85819731064397" lon="12.148227376673923"><ele>103.66666666666666</ele><time>2026-04-25T04:49:25.992Z</time></trkpt><trkpt lat="45.85826219635444" lon="12.148169772217289"><ele>103.33333333333333</ele><time>2026-04-25T04:49:26.992Z</time></trkpt><trkpt lat="45.85832435432769" lon="12.148117618482573"><ele>103.0</ele><time>2026-04-25T04:49:27.992Z</time></trkpt><trkpt lat="45.858393309311964" lon="12.148073225934006"><ele>102.66666666666666</ele><time>2026-04-25T04:49:28.992Z</time></trkpt><trkpt lat="45.858459189695566" lon="12.148026481501853"><ele>102.33333333333333</ele><time>2026-04-25T04:49:29.992Z</time></trkpt><trkpt lat="45.85853113267065" lon="12.147960866913674"><ele>102.0</ele><time>2026-04-25T04:49:30.992Z</time></trkpt><trkpt lat="45.85859435958491" lon="12.147909532139611"><ele>102.0</ele><time>2026-04-25T04:49:31.992Z</time></trkpt><trkpt lat="45.85865752556632" lon="12.147869910084076"><ele>102.0</ele><time>2026-04-25T04:49:32.992Z</time></trkpt><trkpt lat="45.85872288201449" lon="12.147815598004742"><ele>102.0</ele><time>2026-04-25T04:49:33.992Z</time></trkpt><trkpt lat="45.85879771963725" lon="12.14776761893992"><ele>102.0</ele><time>2026-04-25T04:49:34.991Z</time></trkpt><trkpt lat="45.858865675159926" lon="12.14772881285873"><ele>102.0</ele><time>2026-04-25T04:49:35.991Z</time></trkpt><trkpt lat="45.85893308935792" lon="12.14770885783385"><ele>102.0</ele><time>2026-04-25T04:49:36.991Z</time></trkpt><trkpt lat="45.85899825411815" lon="12.147716977991283"><ele>102.0</ele><time>2026-04-25T04:49:37.991Z</time></trkpt><trkpt lat="45.85908396356042" lon="12.147752545782405"><ele>102.0</ele><time>2026-04-25T04:49:38.991Z</time></trkpt><trkpt lat="45.85916256867545" lon="12.147764606510144"><ele>102.0</ele><time>2026-04-25T04:49:39.991Z</time></trkpt><trkpt lat="45.85923151046068" lon="12.1477674099138"><ele>102.0</ele><time>2026-04-25T04:49:40.991Z</time></trkpt><trkpt lat="45.85937030844923" lon="12.147787767287115"><ele>102.0</ele><time>2026-04-25T04:49:42.991Z</time></trkpt><trkpt lat="45.85943766871854" lon="12.147794701057151"><ele>102.0</ele><time>2026-04-25T04:49:43.991Z</time></trkpt><trkpt lat="45.85950303520313" lon="12.14780019320762"><ele>102.0</ele><time>2026-04-25T04:49:44.991Z</time></trkpt><trkpt lat="45.85956678975237" lon="12.147812435022756"><ele>102.8</ele><time>2026-04-25T04:49:45.991Z</time></trkpt><trkpt lat="45.85966037335871" lon="12.147831220717595"><ele>103.6</ele><time>2026-04-25T04:49:47.991Z</time></trkpt><trkpt lat="45.85973945900475" lon="12.147781799443358"><ele>104.39999999999999</ele><time>2026-04-25T04:49:50.991Z</time></trkpt><trkpt lat="45.85983061865125" lon="12.147768212383172"><ele>105.19999999999999</ele><time>2026-04-25T04:49:53.991Z</time></trkpt><trkpt lat="45.85991936299026" lon="12.147789731010084"><ele>106.0</ele><time>2026-04-25T04:49:55.991Z</time></trkpt><trkpt lat="45.860028925489864" lon="12.14785061536395"><ele>106.0</ele><time>2026-04-25T04:49:57.991Z</time></trkpt><trkpt lat="45.86007689660159" lon="12.14790943322656"><ele>106.0</ele><time>2026-04-25T04:49:58.991Z</time></trkpt><trkpt lat="45.86012375511369" lon="12.147971329324509"><ele>106.0</ele><time>2026-04-25T04:49:59.991Z</time></trkpt><trkpt lat="45.860164061553036" lon="12.148058575587964"><ele>106.0</ele><time>2026-04-25T04:50:01.991Z</time></trkpt><trkpt lat="45.86020452929669" lon="12.14815075887396"><ele>106.0</ele><time>2026-04-25T04:50:04.991Z</time></trkpt><trkpt lat="45.86027531289287" lon="12.14823757806201"><ele>106.0</ele><time>2026-04-25T04:50:07.991Z</time></trkpt><trkpt lat="45.86033060408989" lon="12.14828632898067"><ele>106.0</ele><time>2026-04-25T04:50:10.991Z</time></trkpt><trkpt lat="45.86040536609896" lon="12.14835414086215"><ele>107.50000000000001</ele><time>2026-04-25T04:50:13.991Z</time></trkpt><trkpt lat="45.86046951713084" lon="12.14839081333306"><ele>109.0</ele><time>2026-04-25T04:50:16.991Z</time></trkpt><trkpt lat="45.86054057143264" lon="12.148428617729676"><ele>110.5</ele><time>2026-04-25T04:50:19.991Z</time></trkpt><trkpt lat="45.86060434108063" lon="12.148447241286204"><ele>112.0</ele><time>2026-04-25T04:50:21.991Z</time></trkpt><trkpt lat="45.860685058355315" lon="12.148443210795897"><ele>113.50000000000001</ele><time>2026-04-25T04:50:23.991Z</time></trkpt><trkpt lat="45.860772072181426" lon="12.14840086262612"><ele>115.0</ele><time>2026-04-25T04:50:25.991Z</time></trkpt><trkpt lat="45.86082254770464" lon="12.1483331948185"><ele>115.00000000000001</ele><time>2026-04-25T04:50:26.991Z</time></trkpt><trkpt lat="45.86092356719514" lon="12.148245089488588"><ele>115.0</ele><time>2026-04-25T04:50:28.991Z</time></trkpt><trkpt lat="45.86098148289424" lon="12.148203816758345"><ele>115.0</ele><time>2026-04-25T04:50:29.991Z</time></trkpt><trkpt lat="45.86105497411177" lon="12.148176869303787"><ele>115.0</ele><time>2026-04-25T04:50:30.991Z</time></trkpt><trkpt lat="45.86112302446114" lon="12.148153354171832"><ele>115.00000000000001</ele><time>2026-04-25T04:50:31.991Z</time></trkpt><trkpt lat="45.861190957237916" lon="12.148117886122442"><ele>115.0</ele><time>2026-04-25T04:50:32.991Z</time></trkpt><trkpt lat="45.86125300294218" lon="12.148080898226908"><ele>114.66666666666667</ele><time>2026-04-25T04:50:33.991Z</time></trkpt><trkpt lat="45.86131512179758" lon="12.148042363600544"><ele>114.33333333333334</ele><time>2026-04-25T04:50:34.991Z</time></trkpt><trkpt lat="45.86137807827727" lon="12.148015279949446"><ele>114.0</ele><time>2026-04-25T04:50:35.991Z</time></trkpt><trkpt lat="45.86144000235936" lon="12.147986430123373"><ele>113.66666666666666</ele><time>2026-04-25T04:50:36.991Z</time></trkpt><trkpt lat="45.86150113262293" lon="12.14794969941016"><ele>113.33333333333333</ele><time>2026-04-25T04:50:37.991Z</time></trkpt><trkpt lat="45.86156758166999" lon="12.147914234246045"><ele>113.0</ele><time>2026-04-25T04:50:38.991Z</time></trkpt><trkpt lat="45.8616867169999" lon="12.147857370670867"><ele>112.99999999999999</ele><time>2026-04-25T04:50:40.991Z</time></trkpt><trkpt lat="45.86175206118017" lon="12.147821958604387"><ele>113.0</ele><time>2026-04-25T04:50:41.991Z</time></trkpt><trkpt lat="45.86185143018729" lon="12.147770741536306"><ele>113.0</ele><time>2026-04-25T04:50:43.99Z</time></trkpt><trkpt lat="45.86190513587078" lon="12.147710014405156"><ele>113.0</ele><time>2026-04-25T04:50:44.99Z</time></trkpt><trkpt lat="45.8619349864091" lon="12.147622088924907"><ele>112.99999999999999</ele><time>2026-04-25T04:50:45.99Z</time></trkpt><trkpt lat="45.86194953873601" lon="12.14753316919334"><ele>113.0</ele><time>2026-04-25T04:50:46.99Z</time></trkpt><trkpt lat="45.86195165394603" lon="12.147381246807496"><ele>112.80000000000001</ele><time>2026-04-25T04:50:48.99Z</time></trkpt><trkpt lat="45.861927797453156" lon="12.147274372196495"><ele>112.60000000000001</ele><time>2026-04-25T04:50:50.99Z</time></trkpt><trkpt lat="45.86188215967097" lon="12.14716711454504"><ele>112.39999999999999</ele><time>2026-04-25T04:50:52.99Z</time></trkpt><trkpt lat="45.86185137012133" lon="12.147044423644294"><ele>112.19999999999999</ele><time>2026-04-25T04:50:54.99Z</time></trkpt><trkpt lat="45.861832419355004" lon="12.14689611605513"><ele>112.0</ele><time>2026-04-25T04:50:56.99Z</time></trkpt><trkpt lat="45.861825886984455" lon="12.146759555932789"><ele>112.0</ele><time>2026-04-25T04:50:58.99Z</time></trkpt><trkpt lat="45.86182959537807" lon="12.146625415418178"><ele>111.99999999999999</ele><time>2026-04-25T04:51:00.99Z</time></trkpt><trkpt lat="45.8619041306754" lon="12.146517161668966"><ele>111.99999999999999</ele><time>2026-04-25T04:51:02.991Z</time></trkpt><trkpt lat="45.8619575630955" lon="12.146459834690583"><ele>112.0</ele><time>2026-04-25T04:51:03.992Z</time></trkpt><trkpt lat="45.862058006111944" lon="12.146339231470822"><ele>112.0</ele><time>2026-04-25T04:51:05.992Z</time></trkpt><trkpt lat="45.86211565478059" lon="12.146259328444703"><ele>111.33333333333334</ele><time>2026-04-25T04:51:06.992Z</time></trkpt><trkpt lat="45.86218879491509" lon="12.14617472425781"><ele>110.66666666666667</ele><time>2026-04-25T04:51:07.992Z</time></trkpt><trkpt lat="45.86225247387244" lon="12.146085232515398"><ele>110.0</ele><time>2026-04-25T04:51:08.992Z</time></trkpt><trkpt lat="45.862304108174435" lon="12.145975778479146"><ele>109.33333333333334</ele><time>2026-04-25T04:51:09.992Z</time></trkpt><trkpt lat="45.862346105571085" lon="12.145861922976843"><ele>108.66666666666667</ele><time>2026-04-25T04:51:10.992Z</time></trkpt><trkpt lat="45.862375259621764" lon="12.145772593823043"><ele>108.0</ele><time>2026-04-25T04:51:11.992Z</time></trkpt><trkpt lat="45.86236200112801" lon="12.145664931538557"><ele>107.33333333333333</ele><time>2026-04-25T04:51:13.992Z</time></trkpt><trkpt lat="45.86227918504587" lon="12.145582510418729"><ele>106.66666666666666</ele><time>2026-04-25T04:51:15.991Z</time></trkpt><trkpt lat="45.862220534045704" lon="12.145530262190823"><ele>106.0</ele><time>2026-04-25T04:51:16.991Z</time></trkpt><trkpt lat="45.86217000667562" lon="12.145458479584136"><ele>105.33333333333333</ele><time>2026-04-25T04:51:17.991Z</time></trkpt><trkpt lat="45.862124404031015" lon="12.145379555662837"><ele>104.66666666666666</ele><time>2026-04-25T04:51:18.991Z</time></trkpt><trkpt lat="45.86207631973395" lon="12.145297499470583"><ele>104.0</ele><time>2026-04-25T04:51:19.991Z</time></trkpt><trkpt lat="45.86202203197729" lon="12.145213027716014"><ele>104.0</ele><time>2026-04-25T04:51:20.991Z</time></trkpt><trkpt lat="45.86197285044535" lon="12.14513029502864"><ele>104.0</ele><time>2026-04-25T04:51:21.991Z</time></trkpt><trkpt lat="45.861926975128945" lon="12.145058525318513"><ele>104.0</ele><time>2026-04-25T04:51:22.991Z</time></trkpt><trkpt lat="45.86187767621084" lon="12.14499738460631"><ele>104.0</ele><time>2026-04-25T04:51:23.991Z</time></trkpt><trkpt lat="45.861786684763786" lon="12.144898078508069"><ele>104.0</ele><time>2026-04-25T04:51:25.991Z</time></trkpt><trkpt lat="45.86169491912173" lon="12.144766846246203"><ele>103.66666666666666</ele><time>2026-04-25T04:51:27.991Z</time></trkpt><trkpt lat="45.86164908808104" lon="12.144700617061833"><ele>103.33333333333333</ele><time>2026-04-25T04:51:28.991Z</time></trkpt><trkpt lat="45.861605487030324" lon="12.14462895294078"><ele>103.0</ele><time>2026-04-25T04:51:29.991Z</time></trkpt><trkpt lat="45.86156499145388" lon="12.144552575888763"><ele>102.66666666666666</ele><time>2026-04-25T04:51:30.991Z</time></trkpt><trkpt lat="45.86148005560275" lon="12.144416556461097"><ele>102.33333333333333</ele><time>2026-04-25T04:51:32.991Z</time></trkpt><trkpt lat="45.86143563215372" lon="12.144340801924416"><ele>102.0</ele><time>2026-04-25T04:51:33.991Z</time></trkpt><trkpt lat="45.86139837290191" lon="12.144261933447655"><ele>102.0</ele><time>2026-04-25T04:51:34.991Z</time></trkpt><trkpt lat="45.86137226208177" lon="12.14417666734116"><ele>102.0</ele><time>2026-04-25T04:51:35.991Z</time></trkpt><trkpt lat="45.86134133177831" lon="12.144089999604011"><ele>102.0</ele><time>2026-04-25T04:51:36.991Z</time></trkpt><trkpt lat="45.86130239415581" lon="12.144006775157838"><ele>102.0</ele><time>2026-04-25T04:51:37.991Z</time></trkpt><trkpt lat="45.8612606259447" lon="12.14392428984262"><ele>102.0</ele><time>2026-04-25T04:51:38.991Z</time></trkpt><trkpt lat="45.8612174959968" lon="12.143748453031757"><ele>102.0</ele><time>2026-04-25T04:51:40.991Z</time></trkpt><trkpt lat="45.86120459881188" lon="12.143658376842993"><ele>102.0</ele><time>2026-04-25T04:51:41.991Z</time></trkpt><trkpt lat="45.861197303550426" lon="12.143557136361354"><ele>102.0</ele><time>2026-04-25T04:51:42.991Z</time></trkpt><trkpt lat="45.86119363891143" lon="12.143460077613074"><ele>102.0</ele><time>2026-04-25T04:51:43.991Z</time></trkpt><trkpt lat="45.861192598693684" lon="12.143359220111247"><ele>102.0</ele><time>2026-04-25T04:51:44.991Z</time></trkpt><trkpt lat="45.86120219980932" lon="12.143257152268417"><ele>102.0</ele><time>2026-04-25T04:51:45.991Z</time></trkpt><trkpt lat="45.86122433698247" lon="12.14316239657955"><ele>102.0</ele><time>2026-04-25T04:51:46.991Z</time></trkpt><trkpt lat="45.86124705129978" lon="12.143074012376763"><ele>102.0</ele><time>2026-04-25T04:51:47.991Z</time></trkpt><trkpt lat="45.86127954660438" lon="12.142989998019214"><ele>102.39999999999999</ele><time>2026-04-25T04:51:48.991Z</time></trkpt><trkpt lat="45.86131279165349" lon="12.142909822438002"><ele>102.8</ele><time>2026-04-25T04:51:49.991Z</time></trkpt><trkpt lat="45.86136940883363" lon="12.142774097406644"><ele>103.2</ele><time>2026-04-25T04:51:51.991Z</time></trkpt><trkpt lat="45.86142336703626" lon="12.142628264334906"><ele>103.6</ele><time>2026-04-25T04:51:53.991Z</time></trkpt><trkpt lat="45.86147801073058" lon="12.142469959785123"><ele>104.0</ele><time>2026-04-25T04:51:55.991Z</time></trkpt><trkpt lat="45.86150602298318" lon="12.142387481366258"><ele>104.16666666666666</ele><time>2026-04-25T04:51:56.991Z</time></trkpt><trkpt lat="45.86155065934867" lon="12.142236575807765"><ele>104.33333333333333</ele><time>2026-04-25T04:51:58.991Z</time></trkpt><trkpt lat="45.86155582286668" lon="12.14213099182921"><ele>104.5</ele><time>2026-04-25T04:51:59.991Z</time></trkpt><trkpt lat="45.86155153889252" lon="12.14203358173698"><ele>104.66666666666666</ele><time>2026-04-25T04:52:00.991Z</time></trkpt><trkpt lat="45.86153942747579" lon="12.141940257784455"><ele>104.83333333333333</ele><time>2026-04-25T04:52:01.991Z</time></trkpt><trkpt lat="45.861513807599174" lon="12.141845841515728"><ele>105.0</ele><time>2026-04-25T04:52:02.991Z</time></trkpt><trkpt lat="45.86149399829803" lon="12.14175841735233"><ele>105.0</ele><time>2026-04-25T04:52:03.991Z</time></trkpt><trkpt lat="45.861486843748224" lon="12.141587512045682"><ele>105.0</ele><time>2026-04-25T04:52:05.991Z</time></trkpt><trkpt lat="45.86150143130164" lon="12.141415405390092"><ele>105.0</ele><time>2026-04-25T04:52:07.991Z</time></trkpt><trkpt lat="45.86151507551529" lon="12.14132255670213"><ele>105.0</ele><time>2026-04-25T04:52:08.991Z</time></trkpt><trkpt lat="45.86148055647798" lon="12.141183764832142"><ele>105.0</ele><time>2026-04-25T04:52:10.991Z</time></trkpt><trkpt lat="45.861433548083546" lon="12.141121135737519"><ele>105.0</ele><time>2026-04-25T04:52:12.991Z</time></trkpt><trkpt lat="45.86138437761114" lon="12.141031676318812"><ele>105.0</ele><time>2026-04-25T04:52:14.991Z</time></trkpt><trkpt lat="45.861304266303776" lon="12.141075853997249"><ele>105.0</ele><time>2026-04-25T04:52:16.991Z</time></trkpt><trkpt lat="45.861207720916525" lon="12.141154027379606"><ele>105.0</ele><time>2026-04-25T04:52:18.99Z</time></trkpt><trkpt lat="45.861123437847" lon="12.141234001103857"><ele>105.0</ele><time>2026-04-25T04:52:20.99Z</time></trkpt><trkpt lat="45.86102277984931" lon="12.14131872912322"><ele>105.0</ele><time>2026-04-25T04:52:22.99Z</time></trkpt><trkpt lat="45.86094527525947" lon="12.141392277389013"><ele>105.0</ele><time>2026-04-25T04:52:24.99Z</time></trkpt><trkpt lat="45.860852829482795" lon="12.141412388704737"><ele>105.0</ele><time>2026-04-25T04:52:26.99Z</time></trkpt><trkpt lat="45.86074549347337" lon="12.141413468795676"><ele>105.0</ele><time>2026-04-25T04:52:28.99Z</time></trkpt><trkpt lat="45.860679852913954" lon="12.141387075582488"><ele>105.0</ele><time>2026-04-25T04:52:29.99Z</time></trkpt><trkpt lat="45.86056311891429" lon="12.141362693294461"><ele>105.0</ele><time>2026-04-25T04:52:31.99Z</time></trkpt><trkpt lat="45.86048826440391" lon="12.141376665276198"><ele>105.0</ele><time>2026-04-25T04:52:32.99Z</time></trkpt><trkpt lat="45.86041588151742" lon="12.141391756942733"><ele>105.0</ele><time>2026-04-25T04:52:33.99Z</time></trkpt><trkpt lat="45.86034206315423" lon="12.141414650175674"><ele>105.0</ele><time>2026-04-25T04:52:34.99Z</time></trkpt><trkpt lat="45.86027943965806" lon="12.141453411101448"><ele>105.0</ele><time>2026-04-25T04:52:35.99Z</time></trkpt><trkpt lat="45.860213278400785" lon="12.141489114327433"><ele>105.0</ele><time>2026-04-25T04:52:36.99Z</time></trkpt><trkpt lat="45.8601490084386" lon="12.141528559266723"><ele>105.0</ele><time>2026-04-25T04:52:37.99Z</time></trkpt><trkpt lat="45.860075195916906" lon="12.141576204726842"><ele>104.33333333333333</ele><time>2026-04-25T04:52:38.99Z</time></trkpt><trkpt lat="45.86000404969107" lon="12.141628408974244"><ele>103.66666666666666</ele><time>2026-04-25T04:52:39.99Z</time></trkpt><trkpt lat="45.85991595801364" lon="12.141670964714516"><ele>103.0</ele><time>2026-04-25T04:52:40.99Z</time></trkpt><trkpt lat="45.859837393756415" lon="12.141712086953678"><ele>102.33333333333333</ele><time>2026-04-25T04:52:41.99Z</time></trkpt><trkpt lat="45.859760953909" lon="12.141753065351327"><ele>101.66666666666666</ele><time>2026-04-25T04:52:42.99Z</time></trkpt><trkpt lat="45.85968098314015" lon="12.141788627889307"><ele>101.0</ele><time>2026-04-25T04:52:43.99Z</time></trkpt><trkpt lat="45.859608743814334" lon="12.141823309755473"><ele>100.99999999999999</ele><time>2026-04-25T04:52:44.99Z</time></trkpt><trkpt lat="45.8595464470441" lon="12.141871621262561"><ele>101.0</ele><time>2026-04-25T04:52:45.99Z</time></trkpt><trkpt lat="45.8594558299415" lon="12.141925262536985"><ele>101.0</ele><time>2026-04-25T04:52:46.99Z</time></trkpt><trkpt lat="45.8593727624017" lon="12.141975210201926"><ele>101.0</ele><time>2026-04-25T04:52:47.99Z</time></trkpt><trkpt lat="45.859298864532576" lon="12.142020682323114"><ele>100.99999999999999</ele><time>2026-04-25T04:52:48.99Z</time></trkpt><trkpt lat="45.859220871863386" lon="12.142064997573852"><ele>101.0</ele><time>2026-04-25T04:52:49.99Z</time></trkpt><trkpt lat="45.85914272242687" lon="12.142102382754834"><ele>101.49999999999999</ele><time>2026-04-25T04:52:50.99Z</time></trkpt><trkpt lat="45.85906360477401" lon="12.142124864030546"><ele>102.0</ele><time>2026-04-25T04:52:51.99Z</time></trkpt><trkpt lat="45.859001421940654" lon="12.142139467934934"><ele>102.5</ele><time>2026-04-25T04:52:52.99Z</time></trkpt><trkpt lat="45.858902376202664" lon="12.142105118609187"><ele>103.0</ele><time>2026-04-25T04:52:54.99Z</time></trkpt><trkpt lat="45.8588179146763" lon="12.14206480662408"><ele>103.49999999999999</ele><time>2026-04-25T04:52:55.99Z</time></trkpt><trkpt lat="45.85871842757441" lon="12.14202681855657"><ele>104.0</ele><time>2026-04-25T04:52:56.99Z</time></trkpt><trkpt lat="45.85863158009418" lon="12.141995568535345"><ele>104.0</ele><time>2026-04-25T04:52:57.99Z</time></trkpt><trkpt lat="45.85854102605272" lon="12.142005891200737"><ele>104.0</ele><time>2026-04-25T04:52:58.99Z</time></trkpt><trkpt lat="45.85844532038874" lon="12.142019524331948"><ele>104.0</ele><time>2026-04-25T04:52:59.99Z</time></trkpt><trkpt lat="45.85836077979393" lon="12.142033652754401"><ele>104.0</ele><time>2026-04-25T04:53:00.99Z</time></trkpt><trkpt lat="45.85826831662493" lon="12.142051349941042"><ele>104.0</ele><time>2026-04-25T04:53:01.99Z</time></trkpt><trkpt lat="45.85816959145639" lon="12.14207555755458"><ele>103.4</ele><time>2026-04-25T04:53:02.99Z</time></trkpt><trkpt lat="45.858079967264814" lon="12.142093608571212"><ele>102.80000000000001</ele><time>2026-04-25T04:53:03.99Z</time></trkpt><trkpt lat="45.85799220568377" lon="12.142104242297778"><ele>102.19999999999999</ele><time>2026-04-25T04:53:04.99Z</time></trkpt><trkpt lat="45.857899216957726" lon="12.142114734782268"><ele>101.6</ele><time>2026-04-25T04:53:05.99Z</time></trkpt><trkpt lat="45.85780716466819" lon="12.14212749189654"><ele>101.0</ele><time>2026-04-25T04:53:06.99Z</time></trkpt><trkpt lat="45.85771664200962" lon="12.142137883290943"><ele>100.99999999999999</ele><time>2026-04-25T04:53:07.99Z</time></trkpt><trkpt lat="45.85763155063057" lon="12.14215274793436"><ele>101.0</ele><time>2026-04-25T04:53:08.991Z</time></trkpt><trkpt lat="45.85754534054128" lon="12.142178155105329"><ele>101.0</ele><time>2026-04-25T04:53:09.992Z</time></trkpt><trkpt lat="45.85746078336598" lon="12.142200117590097"><ele>101.0</ele><time>2026-04-25T04:53:10.992Z</time></trkpt><trkpt lat="45.85738243315091" lon="12.14221712884989"><ele>100.99999999999999</ele><time>2026-04-25T04:53:11.991Z</time></trkpt><trkpt lat="45.8573031917714" lon="12.142236963007045"><ele>101.0</ele><time>2026-04-25T04:53:12.992Z</time></trkpt><trkpt lat="45.85722858866501" lon="12.142259981307335"><ele>100.83333333333333</ele><time>2026-04-25T04:53:13.992Z</time></trkpt><trkpt lat="45.85716600750568" lon="12.142277324561196"><ele>100.66666666666666</ele><time>2026-04-25T04:53:14.991Z</time></trkpt><trkpt lat="45.857057835057574" lon="12.142243269031297"><ele>100.5</ele><time>2026-04-25T04:53:16.992Z</time></trkpt><trkpt lat="45.85700092674665" lon="12.142122815294838"><ele>100.33333333333334</ele><time>2026-04-25T04:53:18.991Z</time></trkpt><trkpt lat="45.85699230643735" lon="12.141992009122411"><ele>100.16666666666667</ele><time>2026-04-25T04:53:20.991Z</time></trkpt><trkpt lat="45.85697819515964" lon="12.141882673950459"><ele>100.0</ele><time>2026-04-25T04:53:22.992Z</time></trkpt><trkpt lat="45.856968011309334" lon="12.141697999875875"><ele>100.00000000000001</ele><time>2026-04-25T04:53:24.992Z</time></trkpt><trkpt lat="45.85695216399258" lon="12.141583003752812"><ele>100.0</ele><time>2026-04-25T04:53:25.992Z</time></trkpt><trkpt lat="45.85693449088687" lon="12.141483349073022"><ele>100.0</ele><time>2026-04-25T04:53:26.992Z</time></trkpt><trkpt lat="45.8569168451227" lon="12.141378207701909"><ele>100.0</ele><time>2026-04-25T04:53:27.992Z</time></trkpt><trkpt lat="45.85690350494545" lon="12.141268800585404"><ele>100.00000000000001</ele><time>2026-04-25T04:53:28.992Z</time></trkpt><trkpt lat="45.85689595586626" lon="12.141161238450072"><ele>100.0</ele><time>2026-04-25T04:53:29.992Z</time></trkpt><trkpt lat="45.85687668742072" lon="12.141053550142006"><ele>100.00000000000001</ele><time>2026-04-25T04:53:30.992Z</time></trkpt><trkpt lat="45.856864731588466" lon="12.140942501012292"><ele>100.0</ele><time>2026-04-25T04:53:31.992Z</time></trkpt><trkpt lat="45.85684287260377" lon="12.140826748613136"><ele>100.0</ele><time>2026-04-25T04:53:32.992Z</time></trkpt><trkpt lat="45.85683032468379" lon="12.140713651492135"><ele>100.0</ele><time>2026-04-25T04:53:33.992Z</time></trkpt><trkpt lat="45.856816138774946" lon="12.140604930591376"><ele>100.00000000000001</ele><time>2026-04-25T04:53:34.992Z</time></trkpt><trkpt lat="45.85679517682179" lon="12.140485428190049"><ele>100.0</ele><time>2026-04-25T04:53:35.992Z</time></trkpt><trkpt lat="45.85678585326271" lon="12.140376226806058"><ele>100.50000000000001</ele><time>2026-04-25T04:53:36.992Z</time></trkpt><trkpt lat="45.85678087275097" lon="12.140260166093155"><ele>101.0</ele><time>2026-04-25T04:53:37.992Z</time></trkpt><trkpt lat="45.85677540729154" lon="12.140156155380112"><ele>101.5</ele><time>2026-04-25T04:53:38.991Z</time></trkpt><trkpt lat="45.856757784148016" lon="12.140051293393496"><ele>102.0</ele><time>2026-04-25T04:53:39.991Z</time></trkpt><trkpt lat="45.85671575998157" lon="12.139887571329096"><ele>102.50000000000001</ele><time>2026-04-25T04:53:41.991Z</time></trkpt><trkpt lat="45.8566890289152" lon="12.139761562692694"><ele>103.0</ele><time>2026-04-25T04:53:43.991Z</time></trkpt><trkpt lat="45.85666231615805" lon="12.139675167235312"><ele>102.99999999999999</ele><time>2026-04-25T04:53:46.991Z</time></trkpt><trkpt lat="45.85664577419011" lon="12.139576269807428"><ele>103.0</ele><time>2026-04-25T04:53:49.991Z</time></trkpt><trkpt lat="45.85664122792552" lon="12.139483810057072"><ele>103.0</ele><time>2026-04-25T04:53:52.991Z</time></trkpt><trkpt lat="45.85664173424523" lon="12.139393078349224"><ele>103.0</ele><time>2026-04-25T04:53:56.991Z</time></trkpt><trkpt lat="45.8566261967282" lon="12.139303816001817"><ele>103.0</ele><time>2026-04-25T04:54:01.991Z</time></trkpt><trkpt lat="45.85663148934264" lon="12.13919971251831"><ele>102.99999999999999</ele><time>2026-04-25T04:54:05.991Z</time></trkpt><trkpt lat="45.856627903964245" lon="12.139069590364818"><ele>103.0</ele><time>2026-04-25T04:54:08.991Z</time></trkpt><trkpt lat="45.85660353156076" lon="12.138959296575335"><ele>102.66666666666667</ele><time>2026-04-25T04:54:10.991Z</time></trkpt><trkpt lat="45.85658078997133" lon="12.138804127673051"><ele>102.33333333333334</ele><time>2026-04-25T04:54:12.991Z</time></trkpt><trkpt lat="45.856565523375615" lon="12.138627239369576"><ele>102.0</ele><time>2026-04-25T04:54:14.991Z</time></trkpt><trkpt lat="45.85656009187886" lon="12.138535737226093"><ele>101.66666666666666</ele><time>2026-04-25T04:54:15.991Z</time></trkpt><trkpt lat="45.85654678720197" lon="12.138441269364952"><ele>101.33333333333333</ele><time>2026-04-25T04:54:16.991Z</time></trkpt><trkpt lat="45.856540649762884" lon="12.13834138720369"><ele>101.0</ele><time>2026-04-25T04:54:17.991Z</time></trkpt><trkpt lat="45.85653778753495" lon="12.138234144048118"><ele>101.16666666666666</ele><time>2026-04-25T04:54:18.991Z</time></trkpt><trkpt lat="45.85653358539994" lon="12.138132349109345"><ele>101.33333333333333</ele><time>2026-04-25T04:54:19.991Z</time></trkpt><trkpt lat="45.856523890953504" lon="12.138022905564176"><ele>101.5</ele><time>2026-04-25T04:54:20.991Z</time></trkpt><trkpt lat="45.85652250731907" lon="12.137887222301853"><ele>101.66666666666666</ele><time>2026-04-25T04:54:21.991Z</time></trkpt><trkpt lat="45.85651273692638" lon="12.13776921892928"><ele>101.83333333333333</ele><time>2026-04-25T04:54:22.991Z</time></trkpt><trkpt lat="45.856507419155" lon="12.137656638231784"><ele>102.0</ele><time>2026-04-25T04:54:23.991Z</time></trkpt><trkpt lat="45.85650028821007" lon="12.137547623351649"><ele>102.0</ele><time>2026-04-25T04:54:24.991Z</time></trkpt><trkpt lat="45.85648965063727" lon="12.137453821889885"><ele>102.0</ele><time>2026-04-25T04:54:25.991Z</time></trkpt><trkpt lat="45.856484960144805" lon="12.137353016104475"><ele>102.0</ele><time>2026-04-25T04:54:26.991Z</time></trkpt><trkpt lat="45.8564794466452" lon="12.137251920499725"><ele>102.0</ele><time>2026-04-25T04:54:27.991Z</time></trkpt><trkpt lat="45.85647314218722" lon="12.137150090040079"><ele>102.0</ele><time>2026-04-25T04:54:28.991Z</time></trkpt><trkpt lat="45.85645951906495" lon="12.13705500968093"><ele>102.0</ele><time>2026-04-25T04:54:29.991Z</time></trkpt><trkpt lat="45.856422854541044" lon="12.136971697954737"><ele>102.0</ele><time>2026-04-25T04:54:30.991Z</time></trkpt><trkpt lat="45.85636745624929" lon="12.136913802761832"><ele>101.85714285714286</ele><time>2026-04-25T04:54:31.991Z</time></trkpt><trkpt lat="45.85630581930193" lon="12.136874944979287"><ele>101.71428571428572</ele><time>2026-04-25T04:54:32.991Z</time></trkpt><trkpt lat="45.85623725311718" lon="12.136865044235982"><ele>101.57142857142857</ele><time>2026-04-25T04:54:33.991Z</time></trkpt><trkpt lat="45.8561750668452" lon="12.13688538066756"><ele>101.42857142857143</ele><time>2026-04-25T04:54:34.991Z</time></trkpt><trkpt lat="45.856103978270866" lon="12.136926646896862"><ele>101.28571428571428</ele><time>2026-04-25T04:54:35.991Z</time></trkpt><trkpt lat="45.85604035727179" lon="12.136970037265826"><ele>101.14285714285714</ele><time>2026-04-25T04:54:36.991Z</time></trkpt><trkpt lat="45.855973118366954" lon="12.13701106383621"><ele>101.0</ele><time>2026-04-25T04:54:37.991Z</time></trkpt><trkpt lat="45.85590935932948" lon="12.137050468255753"><ele>101.66666666666666</ele><time>2026-04-25T04:54:38.991Z</time></trkpt><trkpt lat="45.85584369281073" lon="12.137080419302128"><ele>102.33333333333333</ele><time>2026-04-25T04:54:39.991Z</time></trkpt><trkpt lat="45.85577404109814" lon="12.137097480536124"><ele>103.0</ele><time>2026-04-25T04:54:40.991Z</time></trkpt><trkpt lat="45.85565419978978" lon="12.137080480358996"><ele>103.66666666666666</ele><time>2026-04-25T04:54:42.991Z</time></trkpt><trkpt lat="45.85558412684988" lon="12.137005027837164"><ele>104.33333333333333</ele><time>2026-04-25T04:54:44.991Z</time></trkpt><trkpt lat="45.85556199113801" lon="12.136871137715232"><ele>105.0</ele><time>2026-04-25T04:54:46.99Z</time></trkpt><trkpt lat="45.85550121727264" lon="12.136793854434677"><ele>105.0</ele><time>2026-04-25T04:54:48.99Z</time></trkpt><trkpt lat="45.85537761895484" lon="12.136747994084368"><ele>105.0</ele><time>2026-04-25T04:54:50.99Z</time></trkpt><trkpt lat="45.85526548070118" lon="12.136697621147066"><ele>105.0</ele><time>2026-04-25T04:54:52.99Z</time></trkpt><trkpt lat="45.855220441406104" lon="12.136611510339723"><ele>105.0</ele><time>2026-04-25T04:54:53.99Z</time></trkpt><trkpt lat="45.855188549625396" lon="12.136517289451142"><ele>105.0</ele><time>2026-04-25T04:54:54.99Z</time></trkpt><trkpt lat="45.85515874746231" lon="12.136425719917261"><ele>104.57142857142857</ele><time>2026-04-25T04:54:55.99Z</time></trkpt><trkpt lat="45.8551346048687" lon="12.136330283632176"><ele>104.14285714285714</ele><time>2026-04-25T04:54:56.99Z</time></trkpt><trkpt lat="45.855116151523646" lon="12.136228898466353"><ele>103.71428571428572</ele><time>2026-04-25T04:54:57.99Z</time></trkpt><trkpt lat="45.85511021974069" lon="12.136122761063088"><ele>103.28571428571428</ele><time>2026-04-25T04:54:58.99Z</time></trkpt><trkpt lat="45.855115188321626" lon="12.136018052127715"><ele>102.85714285714286</ele><time>2026-04-25T04:54:59.99Z</time></trkpt><trkpt lat="45.8551335306446" lon="12.135916552110432"><ele>102.42857142857143</ele><time>2026-04-25T04:55:00.99Z</time></trkpt><trkpt lat="45.855153139690636" lon="12.135816889861935"><ele>102.0</ele><time>2026-04-25T04:55:01.99Z</time></trkpt><trkpt lat="45.855167036865986" lon="12.1357160268858"><ele>101.8</ele><time>2026-04-25T04:55:02.99Z</time></trkpt><trkpt lat="45.855176774476455" lon="12.13561127282623"><ele>101.6</ele><time>2026-04-25T04:55:03.99Z</time></trkpt><trkpt lat="45.85517685890586" lon="12.135506102901129"><ele>101.39999999999999</ele><time>2026-04-25T04:55:04.99Z</time></trkpt><trkpt lat="45.85517001998548" lon="12.135409055399064"><ele>101.19999999999999</ele><time>2026-04-25T04:55:05.99Z</time></trkpt><trkpt lat="45.85516137115454" lon="12.135235751308867"><ele>101.0</ele><time>2026-04-25T04:55:07.99Z</time></trkpt><trkpt lat="45.8552344487679" lon="12.135105867492298"><ele>101.0</ele><time>2026-04-25T04:55:09.99Z</time></trkpt><trkpt lat="45.85534335176808" lon="12.135041184095764"><ele>101.0</ele><time>2026-04-25T04:55:11.99Z</time></trkpt><trkpt lat="45.85540506180091" lon="12.13489443624568"><ele>101.0</ele><time>2026-04-25T04:55:13.99Z</time></trkpt><trkpt lat="45.855392279628504" lon="12.134802644912988"><ele>101.0</ele><time>2026-04-25T04:55:14.991Z</time></trkpt><trkpt lat="45.855360949131686" lon="12.134720439554405"><ele>101.0</ele><time>2026-04-25T04:55:15.991Z</time></trkpt><trkpt lat="45.85530825835593" lon="12.134556252697067"><ele>101.0</ele><time>2026-04-25T04:55:17.991Z</time></trkpt><trkpt lat="45.855285781333656" lon="12.134455678405411"><ele>101.0</ele><time>2026-04-25T04:55:18.991Z</time></trkpt><trkpt lat="45.85526096055273" lon="12.134356199933357"><ele>101.0</ele><time>2026-04-25T04:55:19.991Z</time></trkpt><trkpt lat="45.85523358521692" lon="12.134258980803658"><ele>101.0</ele><time>2026-04-25T04:55:20.991Z</time></trkpt><trkpt lat="45.85520418195175" lon="12.13416663095256"><ele>101.0</ele><time>2026-04-25T04:55:21.991Z</time></trkpt><trkpt lat="45.85517331033613" lon="12.134076492210989"><ele>101.0</ele><time>2026-04-25T04:55:22.991Z</time></trkpt><trkpt lat="45.85513456986903" lon="12.133987507009879"><ele>101.0</ele><time>2026-04-25T04:55:23.991Z</time></trkpt><trkpt lat="45.855104177735036" lon="12.133893700023618"><ele>100.99999999999999</ele><time>2026-04-25T04:55:24.991Z</time></trkpt><trkpt lat="45.85507661276691" lon="12.13380566056486"><ele>101.0</ele><time>2026-04-25T04:55:25.991Z</time></trkpt><trkpt lat="45.85504813241392" lon="12.133716731024787"><ele>101.0</ele><time>2026-04-25T04:55:26.991Z</time></trkpt><trkpt lat="45.855017633246945" lon="12.133628660618555"><ele>101.0</ele><time>2026-04-25T04:55:27.991Z</time></trkpt><trkpt lat="45.85499059103202" lon="12.133545916681896"><ele>100.99999999999999</ele><time>2026-04-25T04:55:28.991Z</time></trkpt><trkpt lat="45.85500000249698" lon="12.133374764622953"><ele>101.0</ele><time>2026-04-25T04:55:30.991Z</time></trkpt><trkpt lat="45.85504737596323" lon="12.133308812432814"><ele>100.99999999999999</ele><time>2026-04-25T04:55:31.991Z</time></trkpt><trkpt lat="45.85510338225968" lon="12.1332652206172"><ele>101.0</ele><time>2026-04-25T04:55:32.991Z</time></trkpt><trkpt lat="45.855169064285874" lon="12.133248817204029"><ele>101.0</ele><time>2026-04-25T04:55:33.991Z</time></trkpt><trkpt lat="45.85528351691525" lon="12.13320875709209"><ele>101.0</ele><time>2026-04-25T04:55:35.991Z</time></trkpt><trkpt lat="45.85534026471311" lon="12.133163708111502"><ele>100.99999999999999</ele><time>2026-04-25T04:55:36.991Z</time></trkpt><trkpt lat="45.855381898828085" lon="12.133025647762567"><ele>101.0</ele><time>2026-04-25T04:55:38.991Z</time></trkpt><trkpt lat="45.855309698612864" lon="12.132916709318948"><ele>101.66666666666666</ele><time>2026-04-25T04:55:40.991Z</time></trkpt><trkpt lat="45.85524452532196" lon="12.132786979420473"><ele>102.33333333333333</ele><time>2026-04-25T04:55:42.991Z</time></trkpt><trkpt lat="45.855213713364414" lon="12.1327047651727"><ele>103.0</ele><time>2026-04-25T04:55:43.991Z</time></trkpt><trkpt lat="45.85517924496199" lon="12.132624378602316"><ele>103.66666666666666</ele><time>2026-04-25T04:55:44.991Z</time></trkpt><trkpt lat="45.85515178113777" lon="12.132522458642692"><ele>104.33333333333333</ele><time>2026-04-25T04:55:45.991Z</time></trkpt><trkpt lat="45.85511579782559" lon="12.132424919652232"><ele>105.0</ele><time>2026-04-25T04:55:46.991Z</time></trkpt><trkpt lat="45.855092150537565" lon="12.13232786868999"><ele>105.16666666666667</ele><time>2026-04-25T04:55:47.991Z</time></trkpt><trkpt lat="45.85505362770526" lon="12.132221548048891"><ele>105.33333333333334</ele><time>2026-04-25T04:55:48.991Z</time></trkpt><trkpt lat="45.855017825706476" lon="12.132125437416175"><ele>105.5</ele><time>2026-04-25T04:55:49.991Z</time></trkpt><trkpt lat="45.854988436912045" lon="12.132029251365923"><ele>105.66666666666667</ele><time>2026-04-25T04:55:50.991Z</time></trkpt><trkpt lat="45.85495976570912" lon="12.131923635362257"><ele>105.83333333333334</ele><time>2026-04-25T04:55:51.991Z</time></trkpt><trkpt lat="45.85493128253116" lon="12.1318204446464"><ele>106.0</ele><time>2026-04-25T04:55:52.991Z</time></trkpt><trkpt lat="45.854903686442036" lon="12.131721165813802"><ele>106.00000000000001</ele><time>2026-04-25T04:55:53.991Z</time></trkpt><trkpt lat="45.85487678927041" lon="12.13162140727641"><ele>106.0</ele><time>2026-04-25T04:55:54.99Z</time></trkpt><trkpt lat="45.85486549892336" lon="12.131527439284211"><ele>106.0</ele><time>2026-04-25T04:55:55.99Z</time></trkpt><trkpt lat="45.85487863888301" lon="12.131426138911104"><ele>106.0</ele><time>2026-04-25T04:55:56.99Z</time></trkpt><trkpt lat="45.85491523097667" lon="12.131346019018201"><ele>106.00000000000001</ele><time>2026-04-25T04:55:57.99Z</time></trkpt><trkpt lat="45.85501964289901" lon="12.131247438923443"><ele>106.0</ele><time>2026-04-25T04:55:59.99Z</time></trkpt><trkpt lat="45.855086363102956" lon="12.131219020365917"><ele>105.57142857142857</ele><time>2026-04-25T04:56:00.99Z</time></trkpt><trkpt lat="45.855153164629556" lon="12.131183730205883"><ele>105.14285714285714</ele><time>2026-04-25T04:56:01.99Z</time></trkpt><trkpt lat="45.85521972607766" lon="12.131136286119066"><ele>104.71428571428571</ele><time>2026-04-25T04:56:02.99Z</time></trkpt><trkpt lat="45.85528511646576" lon="12.131083525324161"><ele>104.28571428571428</ele><time>2026-04-25T04:56:03.99Z</time></trkpt><trkpt lat="45.85535258252709" lon="12.131023053116111"><ele>103.85714285714286</ele><time>2026-04-25T04:56:04.99Z</time></trkpt><trkpt lat="45.85540245187374" lon="12.130948948838524"><ele>103.42857142857142</ele><time>2026-04-25T04:56:05.99Z</time></trkpt><trkpt lat="45.8554548032838" lon="12.130881086894364"><ele>103.0</ele><time>2026-04-25T04:56:06.99Z</time></trkpt><trkpt lat="45.85549857544182" lon="12.13079822329076"><ele>102.99999999999999</ele><time>2026-04-25T04:56:07.99Z</time></trkpt><trkpt lat="45.855546125536655" lon="12.130725003028912"><ele>103.0</ele><time>2026-04-25T04:56:08.99Z</time></trkpt><trkpt lat="45.85557342478272" lon="12.130639257869612"><ele>103.0</ele><time>2026-04-25T04:56:09.99Z</time></trkpt><trkpt lat="45.8555851985304" lon="12.13054691317304"><ele>103.0</ele><time>2026-04-25T04:56:10.99Z</time></trkpt><trkpt lat="45.85556287951393" lon="12.13045315155739"><ele>103.0</ele><time>2026-04-25T04:56:11.99Z</time></trkpt><trkpt lat="45.85554145345622" lon="12.130362064689642"><ele>102.99999999999999</ele><time>2026-04-25T04:56:12.99Z</time></trkpt><trkpt lat="45.8555077438663" lon="12.130276483964067"><ele>103.0</ele><time>2026-04-25T04:56:13.99Z</time></trkpt><trkpt lat="45.85546508085611" lon="12.130194712391159"><ele>103.50000000000001</ele><time>2026-04-25T04:56:14.99Z</time></trkpt><trkpt lat="45.855423383803455" lon="12.13010520386237"><ele>104.0</ele><time>2026-04-25T04:56:15.99Z</time></trkpt><trkpt lat="45.855381292827786" lon="12.130006786766915"><ele>104.5</ele><time>2026-04-25T04:56:16.99Z</time></trkpt><trkpt lat="45.85534533020347" lon="12.129912874895835"><ele>105.0</ele><time>2026-04-25T04:56:17.99Z</time></trkpt><trkpt lat="45.855308574850284" lon="12.129829921233963"><ele>105.50000000000001</ele><time>2026-04-25T04:56:18.99Z</time></trkpt><trkpt lat="45.855263762857156" lon="12.129735289736406"><ele>106.0</ele><time>2026-04-25T04:56:19.99Z</time></trkpt><trkpt lat="45.85523137705078" lon="12.129642171044429"><ele>106.0</ele><time>2026-04-25T04:56:20.99Z</time></trkpt><trkpt lat="45.85515881568335" lon="12.129462022644326"><ele>106.0</ele><time>2026-04-25T04:56:22.99Z</time></trkpt><trkpt lat="45.85512168437692" lon="12.129363184628364"><ele>106.0</ele><time>2026-04-25T04:56:23.99Z</time></trkpt><trkpt lat="45.85508222555254" lon="12.129265763246416"><ele>106.0</ele><time>2026-04-25T04:56:24.99Z</time></trkpt><trkpt lat="45.855045994306" lon="12.129162401999688"><ele>106.0</ele><time>2026-04-25T04:56:25.99Z</time></trkpt><trkpt lat="45.855016819442156" lon="12.129057087796976"><ele>106.00000000000001</ele><time>2026-04-25T04:56:26.99Z</time></trkpt><trkpt lat="45.85498032528897" lon="12.128953485446331"><ele>106.0</ele><time>2026-04-25T04:56:27.99Z</time></trkpt><trkpt lat="45.854958770068" lon="12.12886086394632"><ele>106.0</ele><time>2026-04-25T04:56:28.99Z</time></trkpt><trkpt lat="45.854918889614794" lon="12.128771634936875"><ele>106.0</ele><time>2026-04-25T04:56:29.99Z</time></trkpt><trkpt lat="45.854844983234784" lon="12.128660521723798"><ele>106.00000000000001</ele><time>2026-04-25T04:56:31.99Z</time></trkpt><trkpt lat="45.85477991447135" lon="12.128679997034958"><ele>106.0</ele><time>2026-04-25T04:56:32.99Z</time></trkpt><trkpt lat="45.85472363835473" lon="12.128735207038302"><ele>106.0</ele><time>2026-04-25T04:56:33.99Z</time></trkpt><trkpt lat="45.85466739298532" lon="12.128777051753337"><ele>106.0</ele><time>2026-04-25T04:56:34.99Z</time></trkpt><trkpt lat="45.85460449255485" lon="12.128823892248835"><ele>106.0</ele><time>2026-04-25T04:56:35.99Z</time></trkpt><trkpt lat="45.8545421059777" lon="12.128870002056301"><ele>106.0</ele><time>2026-04-25T04:56:36.99Z</time></trkpt><trkpt lat="45.8544750302652" lon="12.128913952360463"><ele>106.0</ele><time>2026-04-25T04:56:37.99Z</time></trkpt><trkpt lat="45.85441242672385" lon="12.128960284585249"><ele>106.0</ele><time>2026-04-25T04:56:38.99Z</time></trkpt><trkpt lat="45.85434018777668" lon="12.129004161460426"><ele>106.0</ele><time>2026-04-25T04:56:39.99Z</time></trkpt><trkpt lat="45.85427549150053" lon="12.129037098152068"><ele>106.0</ele><time>2026-04-25T04:56:40.99Z</time></trkpt><trkpt lat="45.85420417835024" lon="12.129073683407595"><ele>106.0</ele><time>2026-04-25T04:56:41.99Z</time></trkpt><trkpt lat="45.854140323409226" lon="12.129111725643885"><ele>106.0</ele><time>2026-04-25T04:56:42.99Z</time></trkpt><trkpt lat="45.85407177617362" lon="12.12915356128097"><ele>106.0</ele><time>2026-04-25T04:56:43.99Z</time></trkpt><trkpt lat="45.854002970797325" lon="12.129196988119388"><ele>106.0</ele><time>2026-04-25T04:56:44.99Z</time></trkpt><trkpt lat="45.85393361562894" lon="12.129239784140218"><ele>106.0</ele><time>2026-04-25T04:56:45.99Z</time></trkpt><trkpt lat="45.853865374878275" lon="12.129283066810485"><ele>106.0</ele><time>2026-04-25T04:56:46.99Z</time></trkpt><trkpt lat="45.853791189584605" lon="12.12933288059903"><ele>106.00000000000001</ele><time>2026-04-25T04:56:47.99Z</time></trkpt><trkpt lat="45.85372692225629" lon="12.129376131828764"><ele>106.0</ele><time>2026-04-25T04:56:48.99Z</time></trkpt><trkpt lat="45.85366074712607" lon="12.129420779212314"><ele>106.0</ele><time>2026-04-25T04:56:49.99Z</time></trkpt><trkpt lat="45.85358792240472" lon="12.129465226200624"><ele>106.0</ele><time>2026-04-25T04:56:50.99Z</time></trkpt><trkpt lat="45.85351561147542" lon="12.12949776295165"><ele>106.00000000000001</ele><time>2026-04-25T04:56:51.99Z</time></trkpt><trkpt lat="45.85343841785364" lon="12.129542211044027"><ele>106.0</ele><time>2026-04-25T04:56:52.99Z</time></trkpt><trkpt lat="45.85336807755427" lon="12.129583142194903"><ele>105.66666666666667</ele><time>2026-04-25T04:56:53.99Z</time></trkpt><trkpt lat="45.85329438775546" lon="12.129621770218515"><ele>105.33333333333334</ele><time>2026-04-25T04:56:54.99Z</time></trkpt><trkpt lat="45.85321964515873" lon="12.129658548498027"><ele>105.0</ele><time>2026-04-25T04:56:55.99Z</time></trkpt><trkpt lat="45.85314649717547" lon="12.129695524838537"><ele>104.66666666666666</ele><time>2026-04-25T04:56:56.99Z</time></trkpt><trkpt lat="45.85307126595911" lon="12.129735027288413"><ele>104.33333333333333</ele><time>2026-04-25T04:56:57.99Z</time></trkpt><trkpt lat="45.853000871538114" lon="12.12977254051374"><ele>104.0</ele><time>2026-04-25T04:56:58.99Z</time></trkpt><trkpt lat="45.85293062680599" lon="12.129810320480718"><ele>104.0</ele><time>2026-04-25T04:56:59.99Z</time></trkpt><trkpt lat="45.85286230750394" lon="12.12984894496692"><ele>104.0</ele><time>2026-04-25T04:57:00.99Z</time></trkpt><trkpt lat="45.8527945342936" lon="12.129885255895532"><ele>104.0</ele><time>2026-04-25T04:57:01.99Z</time></trkpt><trkpt lat="45.85273061860234" lon="12.129927777781353"><ele>104.0</ele><time>2026-04-25T04:57:02.99Z</time></trkpt><trkpt lat="45.85266427691573" lon="12.129975417929197"><ele>104.0</ele><time>2026-04-25T04:57:03.989Z</time></trkpt><trkpt lat="45.85259883631634" lon="12.130017671539267"><ele>104.0</ele><time>2026-04-25T04:57:04.989Z</time></trkpt><trkpt lat="45.85253436965694" lon="12.130050508585418"><ele>104.0</ele><time>2026-04-25T04:57:05.989Z</time></trkpt><trkpt lat="45.8524639230229" lon="12.130063293570021"><ele>103.80000000000001</ele><time>2026-04-25T04:57:06.989Z</time></trkpt><trkpt lat="45.85235098050452" lon="12.129997711221325"><ele>103.60000000000001</ele><time>2026-04-25T04:57:08.989Z</time></trkpt><trkpt lat="45.85230958618075" lon="12.12991867744038"><ele>103.4</ele><time>2026-04-25T04:57:09.989Z</time></trkpt><trkpt lat="45.85227693113871" lon="12.129747518797979"><ele>103.2</ele><time>2026-04-25T04:57:11.989Z</time></trkpt><trkpt lat="45.852185472520766" lon="12.129631841595689"><ele>103.0</ele><time>2026-04-25T04:57:13.989Z</time></trkpt><trkpt lat="45.85211069715629" lon="12.129617865577169"><ele>103.00000000000001</ele><time>2026-04-25T04:57:14.989Z</time></trkpt><trkpt lat="45.85203632825547" lon="12.129600255622428"><ele>103.0</ele><time>2026-04-25T04:57:15.989Z</time></trkpt><trkpt lat="45.851957769488585" lon="12.1295695890808"><ele>103.0</ele><time>2026-04-25T04:57:16.989Z</time></trkpt><trkpt lat="45.85188316553334" lon="12.129530274502118"><ele>103.0</ele><time>2026-04-25T04:57:17.989Z</time></trkpt><trkpt lat="45.85180742815119" lon="12.129495441318106"><ele>103.00000000000001</ele><time>2026-04-25T04:57:18.989Z</time></trkpt><trkpt lat="45.85172989122908" lon="12.129461711340507"><ele>103.0</ele><time>2026-04-25T04:57:19.989Z</time></trkpt><trkpt lat="45.85165227923493" lon="12.129432909553346"><ele>102.85714285714285</ele><time>2026-04-25T04:57:20.991Z</time></trkpt><trkpt lat="45.85158065450479" lon="12.129404551371184"><ele>102.71428571428571</ele><time>2026-04-25T04:57:21.991Z</time></trkpt><trkpt lat="45.85150468620639" lon="12.129371311475706"><ele>102.57142857142857</ele><time>2026-04-25T04:57:22.991Z</time></trkpt><trkpt lat="45.85142560413903" lon="12.129341556940776"><ele>102.42857142857142</ele><time>2026-04-25T04:57:23.991Z</time></trkpt><trkpt lat="45.85135506553468" lon="12.129308741810766"><ele>102.28571428571429</ele><time>2026-04-25T04:57:24.991Z</time></trkpt><trkpt lat="45.8512888695914" lon="12.129279398816756"><ele>102.14285714285714</ele><time>2026-04-25T04:57:25.991Z</time></trkpt><trkpt lat="45.85122258889963" lon="12.12925744607927"><ele>102.0</ele><time>2026-04-25T04:57:26.991Z</time></trkpt><trkpt lat="45.851099200054485" lon="12.129292416024139"><ele>102.0</ele><time>2026-04-25T04:57:28.991Z</time></trkpt><trkpt lat="45.851038497158285" lon="12.129437862773276"><ele>102.0</ele><time>2026-04-25T04:57:30.99Z</time></trkpt><trkpt lat="45.85105434618343" lon="12.129532824918774"><ele>102.0</ele><time>2026-04-25T04:57:31.99Z</time></trkpt><trkpt lat="45.851085101700384" lon="12.129619248404701"><ele>102.0</ele><time>2026-04-25T04:57:32.991Z</time></trkpt><trkpt lat="45.85105517697374" lon="12.1297833459826"><ele>102.0</ele><time>2026-04-25T04:57:34.991Z</time></trkpt><trkpt lat="45.85096308853003" lon="12.129856627403894"><ele>102.0</ele><time>2026-04-25T04:57:36.991Z</time></trkpt><trkpt lat="45.85087447504255" lon="12.129779433857866"><ele>102.0</ele><time>2026-04-25T04:57:38.991Z</time></trkpt><trkpt lat="45.850812108559325" lon="12.129644887772951"><ele>102.0</ele><time>2026-04-25T04:57:40.991Z</time></trkpt><trkpt lat="45.85079217185984" lon="12.129552953154649"><ele>102.0</ele><time>2026-04-25T04:57:41.991Z</time></trkpt><trkpt lat="45.85076600649647" lon="12.12945134531124"><ele>102.0</ele><time>2026-04-25T04:57:42.991Z</time></trkpt><trkpt lat="45.850740653418605" lon="12.129343886903957"><ele>102.0</ele><time>2026-04-25T04:57:43.991Z</time></trkpt><trkpt lat="45.85071602049273" lon="12.1292354219105"><ele>102.0</ele><time>2026-04-25T04:57:44.991Z</time></trkpt><trkpt lat="45.850693401958026" lon="12.129135499233884"><ele>102.0</ele><time>2026-04-25T04:57:45.991Z</time></trkpt><trkpt lat="45.850644751719535" lon="12.128968426512275"><ele>102.0</ele><time>2026-04-25T04:57:47.991Z</time></trkpt><trkpt lat="45.85064837400359" lon="12.12885163363717"><ele>102.0</ele><time>2026-04-25T04:57:48.991Z</time></trkpt><trkpt lat="45.85067012304686" lon="12.128732022012446"><ele>102.0</ele><time>2026-04-25T04:57:49.991Z</time></trkpt><trkpt lat="45.85068860616932" lon="12.128621932080135"><ele>102.0</ele><time>2026-04-25T04:57:50.991Z</time></trkpt><trkpt lat="45.850692098434926" lon="12.128516631764162"><ele>102.5</ele><time>2026-04-25T04:57:51.991Z</time></trkpt><trkpt lat="45.85068332336471" lon="12.128407579532553"><ele>103.0</ele><time>2026-04-25T04:57:52.991Z</time></trkpt><trkpt lat="45.85066386633807" lon="12.128284954724425"><ele>103.5</ele><time>2026-04-25T04:57:53.991Z</time></trkpt><trkpt lat="45.85063943077754" lon="12.128182986510502"><ele>104.0</ele><time>2026-04-25T04:57:54.991Z</time></trkpt><trkpt lat="45.85061685185988" lon="12.128067507023474"><ele>104.5</ele><time>2026-04-25T04:57:55.991Z</time></trkpt><trkpt lat="45.85059672365796" lon="12.127951966729764"><ele>105.0</ele><time>2026-04-25T04:57:56.991Z</time></trkpt><trkpt lat="45.85057684836887" lon="12.127844386731624"><ele>105.0</ele><time>2026-04-25T04:57:57.991Z</time></trkpt><trkpt lat="45.85054392902686" lon="12.127743131634091"><ele>105.0</ele><time>2026-04-25T04:57:58.991Z</time></trkpt><trkpt lat="45.850503140185545" lon="12.127655378971077"><ele>105.0</ele><time>2026-04-25T04:57:59.991Z</time></trkpt><trkpt lat="45.850457401867445" lon="12.12758185886852"><ele>105.0</ele><time>2026-04-25T04:58:00.991Z</time></trkpt><trkpt lat="45.85040690961176" lon="12.127500353709046"><ele>105.0</ele><time>2026-04-25T04:58:01.991Z</time></trkpt><trkpt lat="45.850361077926436" lon="12.127413602043642"><ele>105.0</ele><time>2026-04-25T04:58:02.991Z</time></trkpt><trkpt lat="45.85033649083527" lon="12.127328035515035"><ele>105.0</ele><time>2026-04-25T04:58:03.991Z</time></trkpt><trkpt lat="45.85032763367508" lon="12.127233130461985"><ele>104.83333333333333</ele><time>2026-04-25T04:58:04.991Z</time></trkpt><trkpt lat="45.85032456817518" lon="12.127125174769693"><ele>104.66666666666666</ele><time>2026-04-25T04:58:05.991Z</time></trkpt><trkpt lat="45.850330708319504" lon="12.12701461402369"><ele>104.5</ele><time>2026-04-25T04:58:06.991Z</time></trkpt><trkpt lat="45.850338987640775" lon="12.126905566784163"><ele>104.33333333333333</ele><time>2026-04-25T04:58:07.991Z</time></trkpt><trkpt lat="45.8503417768976" lon="12.12679302184213"><ele>104.16666666666666</ele><time>2026-04-25T04:58:08.991Z</time></trkpt><trkpt lat="45.85034389437944" lon="12.126679007483592"><ele>104.0</ele><time>2026-04-25T04:58:09.991Z</time></trkpt><trkpt lat="45.85034833368193" lon="12.126574185523056"><ele>104.0</ele><time>2026-04-25T04:58:10.991Z</time></trkpt><trkpt lat="45.85035551710203" lon="12.126469853554527"><ele>104.0</ele><time>2026-04-25T04:58:11.991Z</time></trkpt><trkpt lat="45.850358966857975" lon="12.126367609704253"><ele>104.0</ele><time>2026-04-25T04:58:12.991Z</time></trkpt><trkpt lat="45.85036203841257" lon="12.126260949580699"><ele>104.0</ele><time>2026-04-25T04:58:13.991Z</time></trkpt><trkpt lat="45.85036523547684" lon="12.126157492637107"><ele>104.0</ele><time>2026-04-25T04:58:14.991Z</time></trkpt><trkpt lat="45.850366904985556" lon="12.126053685262995"><ele>104.0</ele><time>2026-04-25T04:58:15.991Z</time></trkpt><trkpt lat="45.850364513114265" lon="12.125954767391338"><ele>104.0</ele><time>2026-04-25T04:58:16.991Z</time></trkpt><trkpt lat="45.85036300743893" lon="12.125851771609149"><ele>104.0</ele><time>2026-04-25T04:58:17.99Z</time></trkpt><trkpt lat="45.850356722713" lon="12.125753826515554"><ele>104.0</ele><time>2026-04-25T04:58:18.99Z</time></trkpt><trkpt lat="45.85034102610366" lon="12.125655890060651"><ele>104.0</ele><time>2026-04-25T04:58:19.99Z</time></trkpt><trkpt lat="45.850322056120966" lon="12.125562021209536"><ele>104.0</ele><time>2026-04-25T04:58:20.99Z</time></trkpt><trkpt lat="45.85030882773295" lon="12.125462086775308"><ele>104.0</ele><time>2026-04-25T04:58:21.99Z</time></trkpt><trkpt lat="45.85029191170952" lon="12.12536807336063"><ele>104.0</ele><time>2026-04-25T04:58:22.99Z</time></trkpt><trkpt lat="45.85026863277179" lon="12.125276379415023"><ele>104.0</ele><time>2026-04-25T04:58:23.99Z</time></trkpt><trkpt lat="45.85025142051042" lon="12.125183439949552"><ele>104.14285714285714</ele><time>2026-04-25T04:58:24.99Z</time></trkpt><trkpt lat="45.850234276626345" lon="12.125088276326332"><ele>104.28571428571429</ele><time>2026-04-25T04:58:25.99Z</time></trkpt><trkpt lat="45.85020668405121" lon="12.12500507754822"><ele>104.42857142857143</ele><time>2026-04-25T04:58:26.99Z</time></trkpt><trkpt lat="45.85015915011072" lon="12.124930757558069"><ele>104.57142857142857</ele><time>2026-04-25T04:58:27.99Z</time></trkpt><trkpt lat="45.850105755655115" lon="12.124876286033272"><ele>104.71428571428572</ele><time>2026-04-25T04:58:28.99Z</time></trkpt><trkpt lat="45.85004596072042" lon="12.1248388691108"><ele>104.85714285714286</ele><time>2026-04-25T04:58:29.99Z</time></trkpt><trkpt lat="45.849984765280176" lon="12.124802665486708"><ele>105.0</ele><time>2026-04-25T04:58:30.99Z</time></trkpt><trkpt lat="45.849877134643194" lon="12.124744413891095"><ele>105.0</ele><time>2026-04-25T04:58:32.99Z</time></trkpt><trkpt lat="45.849814322762306" lon="12.12471724128209"><ele>105.0</ele><time>2026-04-25T04:58:33.99Z</time></trkpt><trkpt lat="45.849739977807666" lon="12.124690438614259"><ele>105.0</ele><time>2026-04-25T04:58:34.99Z</time></trkpt><trkpt lat="45.84964266668384" lon="12.12466015893212"><ele>105.0</ele><time>2026-04-25T04:58:36.99Z</time></trkpt><trkpt lat="45.849573263318334" lon="12.12455351047678"><ele>105.0</ele><time>2026-04-25T04:58:38.99Z</time></trkpt><trkpt lat="45.849547695548125" lon="12.124395693985049"><ele>105.0</ele><time>2026-04-25T04:58:40.99Z</time></trkpt><trkpt lat="45.849517049494004" lon="12.124255864902569"><ele>105.0</ele><time>2026-04-25T04:58:42.99Z</time></trkpt><trkpt lat="45.849503326285785" lon="12.12409562058709"><ele>105.0</ele><time>2026-04-25T04:58:44.99Z</time></trkpt><trkpt lat="45.84943157180545" lon="12.123938381288664"><ele>105.0</ele><time>2026-04-25T04:58:46.99Z</time></trkpt><trkpt lat="45.84940585519154" lon="12.123855364884822"><ele>105.0</ele><time>2026-04-25T04:58:47.99Z</time></trkpt><trkpt lat="45.84939159664723" lon="12.123759257875884"><ele>105.0</ele><time>2026-04-25T04:58:48.99Z</time></trkpt><trkpt lat="45.84936821647924" lon="12.123644693318203"><ele>105.0</ele><time>2026-04-25T04:58:49.99Z</time></trkpt><trkpt lat="45.84933651283145" lon="12.1235512678468"><ele>105.0</ele><time>2026-04-25T04:58:50.99Z</time></trkpt><trkpt lat="45.849310492217576" lon="12.123456519124046"><ele>105.0</ele><time>2026-04-25T04:58:51.99Z</time></trkpt><trkpt lat="45.84929042974733" lon="12.123354810042118"><ele>105.0</ele><time>2026-04-25T04:58:52.99Z</time></trkpt><trkpt lat="45.84926792058251" lon="12.123258404720705"><ele>105.0</ele><time>2026-04-25T04:58:53.99Z</time></trkpt><trkpt lat="45.8492515910543" lon="12.123154419197625"><ele>105.0</ele><time>2026-04-25T04:58:54.99Z</time></trkpt><trkpt lat="45.849225282717576" lon="12.123052598520928"><ele>105.28571428571429</ele><time>2026-04-25T04:58:55.99Z</time></trkpt><trkpt lat="45.84919980149321" lon="12.122959307938132"><ele>105.57142857142857</ele><time>2026-04-25T04:58:56.99Z</time></trkpt><trkpt lat="45.849183027331755" lon="12.122861984853841"><ele>105.85714285714286</ele><time>2026-04-25T04:58:57.99Z</time></trkpt><trkpt lat="45.84916397290832" lon="12.122765188472643"><ele>106.14285714285714</ele><time>2026-04-25T04:58:58.99Z</time></trkpt><trkpt lat="45.84914035835428" lon="12.122672116405916"><ele>106.42857142857143</ele><time>2026-04-25T04:58:59.99Z</time></trkpt><trkpt lat="45.84912412115288" lon="12.122575970912454"><ele>106.71428571428572</ele><time>2026-04-25T04:59:00.99Z</time></trkpt><trkpt lat="45.84910758051698" lon="12.122475552479695"><ele>107.0</ele><time>2026-04-25T04:59:01.99Z</time></trkpt><trkpt lat="45.84908656409122" lon="12.122382824088524"><ele>107.28571428571429</ele><time>2026-04-25T04:59:02.99Z</time></trkpt><trkpt lat="45.84905656509717" lon="12.122292597333573"><ele>107.57142857142857</ele><time>2026-04-25T04:59:03.99Z</time></trkpt><trkpt lat="45.849035032549345" lon="12.122198464516993"><ele>107.85714285714286</ele><time>2026-04-25T04:59:04.99Z</time></trkpt><trkpt lat="45.84901744770875" lon="12.122103563985146"><ele>108.14285714285714</ele><time>2026-04-25T04:59:05.99Z</time></trkpt><trkpt lat="45.8489916373088" lon="12.122018139377563"><ele>108.42857142857143</ele><time>2026-04-25T04:59:06.99Z</time></trkpt><trkpt lat="45.848962313650794" lon="12.121928604174732"><ele>108.71428571428572</ele><time>2026-04-25T04:59:07.99Z</time></trkpt><trkpt lat="45.848925604022256" lon="12.121839095804136"><ele>109.0</ele><time>2026-04-25T04:59:08.99Z</time></trkpt><trkpt lat="45.848894643466075" lon="12.121748784417488"><ele>109.0</ele><time>2026-04-25T04:59:09.99Z</time></trkpt><trkpt lat="45.84886682649369" lon="12.121658313036317"><ele>109.0</ele><time>2026-04-25T04:59:10.99Z</time></trkpt><trkpt lat="45.84883484472005" lon="12.12156685408923"><ele>109.0</ele><time>2026-04-25T04:59:11.99Z</time></trkpt><trkpt lat="45.84879865864096" lon="12.121473233495525"><ele>109.0</ele><time>2026-04-25T04:59:12.99Z</time></trkpt><trkpt lat="45.84876429983043" lon="12.121377530996087"><ele>109.0</ele><time>2026-04-25T04:59:13.99Z</time></trkpt><trkpt lat="45.84872540084286" lon="12.121293006465262"><ele>109.0</ele><time>2026-04-25T04:59:14.99Z</time></trkpt><trkpt lat="45.84868813408655" lon="12.121204488737222"><ele>109.0</ele><time>2026-04-25T04:59:15.99Z</time></trkpt><trkpt lat="45.84864574820949" lon="12.121118047031322"><ele>109.0</ele><time>2026-04-25T04:59:16.99Z</time></trkpt><trkpt lat="45.84861188283417" lon="12.121032265463455"><ele>109.0</ele><time>2026-04-25T04:59:17.99Z</time></trkpt><trkpt lat="45.848566167096024" lon="12.120857716807773"><ele>109.0</ele><time>2026-04-25T04:59:19.99Z</time></trkpt><trkpt lat="45.84852980630756" lon="12.120694885906063"><ele>109.0</ele><time>2026-04-25T04:59:21.99Z</time></trkpt><trkpt lat="45.84848385926668" lon="12.120524594446831"><ele>109.0</ele><time>2026-04-25T04:59:23.99Z</time></trkpt><trkpt lat="45.848436768356244" lon="12.120353693594666"><ele>109.00000000000001</ele><time>2026-04-25T04:59:25.99Z</time></trkpt><trkpt lat="45.84841349456278" lon="12.120265574248693"><ele>109.0</ele><time>2026-04-25T04:59:26.991Z</time></trkpt><trkpt lat="45.84838884095744" lon="12.120178476879309"><ele>109.0</ele><time>2026-04-25T04:59:27.99Z</time></trkpt><trkpt lat="45.84836229113638" lon="12.120091070895887"><ele>109.0</ele><time>2026-04-25T04:59:28.99Z</time></trkpt><trkpt lat="45.848297781181344" lon="12.119911965141855"><ele>109.00000000000001</ele><time>2026-04-25T04:59:30.991Z</time></trkpt><trkpt lat="45.848259239425346" lon="12.119811649160313"><ele>109.0</ele><time>2026-04-25T04:59:31.991Z</time></trkpt><trkpt lat="45.848214268850825" lon="12.119725686569065"><ele>109.0</ele><time>2026-04-25T04:59:32.991Z</time></trkpt><trkpt lat="45.84816904637582" lon="12.119635982805788"><ele>109.0</ele><time>2026-04-25T04:59:33.991Z</time></trkpt><trkpt lat="45.84813051907849" lon="12.119552425115069"><ele>109.0</ele><time>2026-04-25T04:59:34.991Z</time></trkpt><trkpt lat="45.84808855986676" lon="12.119466056446475"><ele>109.0</ele><time>2026-04-25T04:59:35.99Z</time></trkpt><trkpt lat="45.848035509855066" lon="12.119391707335772"><ele>109.0</ele><time>2026-04-25T04:59:36.991Z</time></trkpt><trkpt lat="45.84797548164592" lon="12.11932697744821"><ele>109.0</ele><time>2026-04-25T04:59:37.991Z</time></trkpt><trkpt lat="45.84791940160774" lon="12.119256624132914"><ele>109.0</ele><time>2026-04-25T04:59:38.991Z</time></trkpt><trkpt lat="45.84782231418968" lon="12.119118410134053"><ele>109.0</ele><time>2026-04-25T04:59:40.99Z</time></trkpt><trkpt lat="45.84776697802406" lon="12.119040744605405"><ele>109.0</ele><time>2026-04-25T04:59:41.99Z</time></trkpt><trkpt lat="45.84772268261926" lon="12.118966764704217"><ele>109.0</ele><time>2026-04-25T04:59:42.99Z</time></trkpt><trkpt lat="45.84768802951338" lon="12.118879641158479"><ele>109.0</ele><time>2026-04-25T04:59:43.99Z</time></trkpt><trkpt lat="45.84766000456741" lon="12.118787172306854"><ele>109.0</ele><time>2026-04-25T04:59:44.99Z</time></trkpt><trkpt lat="45.847637800555404" lon="12.118688229574637"><ele>109.0</ele><time>2026-04-25T04:59:45.99Z</time></trkpt><trkpt lat="45.8476075560228" lon="12.11858666236602"><ele>109.0</ele><time>2026-04-25T04:59:46.99Z</time></trkpt><trkpt lat="45.847575426050064" lon="12.118487143653303"><ele>109.0</ele><time>2026-04-25T04:59:47.99Z</time></trkpt><trkpt lat="45.84754502207047" lon="12.118395674054819"><ele>109.0</ele><time>2026-04-25T04:59:48.99Z</time></trkpt><trkpt lat="45.847516384562795" lon="12.118303230227193"><ele>109.0</ele><time>2026-04-25T04:59:49.99Z</time></trkpt><trkpt lat="45.84749027169088" lon="12.118209742491427"><ele>109.0</ele><time>2026-04-25T04:59:50.99Z</time></trkpt><trkpt lat="45.84746308363347" lon="12.11812022961991"><ele>109.0</ele><time>2026-04-25T04:59:51.99Z</time></trkpt><trkpt lat="45.84742739790271" lon="12.118033669499889"><ele>109.0</ele><time>2026-04-25T04:59:52.99Z</time></trkpt><trkpt lat="45.84739722175498" lon="12.117945081691236"><ele>109.0</ele><time>2026-04-25T04:59:53.99Z</time></trkpt><trkpt lat="45.84736976144742" lon="12.1178528605247"><ele>109.2</ele><time>2026-04-25T04:59:54.99Z</time></trkpt><trkpt lat="45.847301609273224" lon="12.117699131287115"><ele>109.4</ele><time>2026-04-25T04:59:56.99Z</time></trkpt><trkpt lat="45.847260248801696" lon="12.117628557045181"><ele>109.6</ele><time>2026-04-25T04:59:57.99Z</time></trkpt><trkpt lat="45.84720974176629" lon="12.117568058138138"><ele>109.8</ele><time>2026-04-25T04:59:58.99Z</time></trkpt><trkpt lat="45.84709075651983" lon="12.117512948964158"><ele>110.0</ele><time>2026-04-25T05:00:00.99Z</time></trkpt><trkpt lat="45.847016753590616" lon="12.117522228732414"><ele>109.99999999999999</ele><time>2026-04-25T05:00:01.99Z</time></trkpt><trkpt lat="45.84688421471372" lon="12.117542955440491"><ele>110.0</ele><time>2026-04-25T05:00:03.99Z</time></trkpt><trkpt lat="45.84681638576114" lon="12.117541673043469"><ele>110.0</ele><time>2026-04-25T05:00:04.99Z</time></trkpt><trkpt lat="45.846736324843036" lon="12.117524527209962"><ele>110.0</ele><time>2026-04-25T05:00:05.99Z</time></trkpt><trkpt lat="45.84666486495573" lon="12.117486848143452"><ele>109.99999999999999</ele><time>2026-04-25T05:00:06.99Z</time></trkpt><trkpt lat="45.8465899813191" lon="12.11745313206911"><ele>110.0</ele><time>2026-04-25T05:00:07.99Z</time></trkpt><trkpt lat="45.84651640065072" lon="12.117421206001922"><ele>109.85714285714285</ele><time>2026-04-25T05:00:08.99Z</time></trkpt><trkpt lat="45.84644267938228" lon="12.117396618887776"><ele>109.71428571428571</ele><time>2026-04-25T05:00:09.99Z</time></trkpt><trkpt lat="45.84637274375413" lon="12.117362689315241"><ele>109.57142857142857</ele><time>2026-04-25T05:00:10.99Z</time></trkpt><trkpt lat="45.84630572024817" lon="12.11731777976671"><ele>109.42857142857142</ele><time>2026-04-25T05:00:11.99Z</time></trkpt><trkpt lat="45.846241005961744" lon="12.117260686040005"><ele>109.28571428571429</ele><time>2026-04-25T05:00:12.99Z</time></trkpt><trkpt lat="45.846184912637355" lon="12.117192674999767"><ele>109.14285714285714</ele><time>2026-04-25T05:00:13.99Z</time></trkpt><trkpt lat="45.846139100267706" lon="12.117119543942067"><ele>109.0</ele><time>2026-04-25T05:00:14.99Z</time></trkpt><trkpt lat="45.846084372955175" lon="12.11704781715981"><ele>109.0</ele><time>2026-04-25T05:00:15.99Z</time></trkpt><trkpt lat="45.846030742975955" lon="12.116970406184565"><ele>109.0</ele><time>2026-04-25T05:00:16.99Z</time></trkpt><trkpt lat="45.84597717884619" lon="12.116898531479203"><ele>109.0</ele><time>2026-04-25T05:00:17.99Z</time></trkpt><trkpt lat="45.84592664971485" lon="12.116836622987428"><ele>109.0</ele><time>2026-04-25T05:00:18.99Z</time></trkpt><trkpt lat="45.84588016375252" lon="12.116768337291198"><ele>109.0</ele><time>2026-04-25T05:00:19.989Z</time></trkpt><trkpt lat="45.845828947481934" lon="12.116692846823545"><ele>109.0</ele><time>2026-04-25T05:00:20.989Z</time></trkpt><trkpt lat="45.84577587728988" lon="12.116617995810108"><ele>109.0</ele><time>2026-04-25T05:00:21.989Z</time></trkpt><trkpt lat="45.84573508397302" lon="12.116547353113432"><ele>109.14285714285714</ele><time>2026-04-25T05:00:22.989Z</time></trkpt><trkpt lat="45.84569028765848" lon="12.11646995429642"><ele>109.28571428571429</ele><time>2026-04-25T05:00:23.989Z</time></trkpt><trkpt lat="45.84564311001569" lon="12.11638741629097"><ele>109.42857142857142</ele><time>2026-04-25T05:00:24.989Z</time></trkpt><trkpt lat="45.845598904111895" lon="12.11631427072394"><ele>109.57142857142857</ele><time>2026-04-25T05:00:25.989Z</time></trkpt><trkpt lat="45.84556140716422" lon="12.11623206222726"><ele>109.71428571428571</ele><time>2026-04-25T05:00:26.989Z</time></trkpt><trkpt lat="45.845523284650874" lon="12.116140465370849"><ele>109.85714285714285</ele><time>2026-04-25T05:00:27.989Z</time></trkpt><trkpt lat="45.84548396066529" lon="12.11605547710976"><ele>110.0</ele><time>2026-04-25T05:00:28.989Z</time></trkpt><trkpt lat="45.84544960383555" lon="12.115969377705744"><ele>109.99999999999999</ele><time>2026-04-25T05:00:29.989Z</time></trkpt><trkpt lat="45.84540291866308" lon="12.115795540226054"><ele>110.0</ele><time>2026-04-25T05:00:31.989Z</time></trkpt><trkpt lat="45.84537818206382" lon="12.115706269421912"><ele>110.0</ele><time>2026-04-25T05:00:32.989Z</time></trkpt><trkpt lat="45.84534944647222" lon="12.115620769766299"><ele>110.0</ele><time>2026-04-25T05:00:33.989Z</time></trkpt><trkpt lat="45.8453006022257" lon="12.11548477884269"><ele>109.99999999999999</ele><time>2026-04-25T05:00:35.989Z</time></trkpt><trkpt lat="45.845287575713115" lon="12.115388255555274"><ele>110.0</ele><time>2026-04-25T05:00:37.989Z</time></trkpt><trkpt lat="45.845277365771864" lon="12.115299002977142"><ele>110.49999999999999</ele><time>2026-04-25T05:01:02.989Z</time></trkpt><trkpt lat="45.84524238640404" lon="12.115218760835493"><ele>111.0</ele><time>2026-04-25T05:01:08.989Z</time></trkpt><trkpt lat="45.845202974893034" lon="12.115120913409644"><ele>111.5</ele><time>2026-04-25T05:01:14.989Z</time></trkpt><trkpt lat="45.8451629791399" lon="12.115031922107395"><ele>112.0</ele><time>2026-04-25T05:01:17.989Z</time></trkpt><trkpt lat="45.84513662573638" lon="12.114943287542431"><ele>112.49999999999999</ele><time>2026-04-25T05:01:19.989Z</time></trkpt><trkpt lat="45.84508256956177" lon="12.114813528151762"><ele>113.0</ele><time>2026-04-25T05:01:21.989Z</time></trkpt><trkpt lat="45.84503272035451" lon="12.11467379362449"><ele>113.0</ele><time>2026-04-25T05:01:23.989Z</time></trkpt><trkpt lat="45.84497524084137" lon="12.114554009417876"><ele>113.00000000000001</ele><time>2026-04-25T05:01:25.988Z</time></trkpt><trkpt lat="45.844933809172794" lon="12.11443194403194"><ele>113.00000000000001</ele><time>2026-04-25T05:01:27.988Z</time></trkpt><trkpt lat="45.84488102715867" lon="12.114284177754538"><ele>113.0</ele><time>2026-04-25T05:01:29.988Z</time></trkpt><trkpt lat="45.84483576344127" lon="12.114182717259895"><ele>113.0</ele><time>2026-04-25T05:01:31.988Z</time></trkpt><trkpt lat="45.84479216955927" lon="12.114061218293633"><ele>113.33333333333333</ele><time>2026-04-25T05:01:33.99Z</time></trkpt><trkpt lat="45.844728133649625" lon="12.113993788799645"><ele>113.66666666666666</ele><time>2026-04-25T05:01:35.99Z</time></trkpt><trkpt lat="45.844684543688494" lon="12.11389889049993"><ele>114.0</ele><time>2026-04-25T05:01:37.99Z</time></trkpt><trkpt lat="45.844651408021086" lon="12.113781309698481"><ele>114.33333333333334</ele><time>2026-04-25T05:01:39.99Z</time></trkpt><trkpt lat="45.844610502359416" lon="12.113690765113581"><ele>114.66666666666667</ele><time>2026-04-25T05:01:41.99Z</time></trkpt><trkpt lat="45.844569349980304" lon="12.113546712588546"><ele>115.0</ele><time>2026-04-25T05:01:43.99Z</time></trkpt><trkpt lat="45.844545489837635" lon="12.113453325602833"><ele>115.0</ele><time>2026-04-25T05:01:44.991Z</time></trkpt><trkpt lat="45.84451193538732" lon="12.113369207934076"><ele>115.0</ele><time>2026-04-25T05:01:45.99Z</time></trkpt><trkpt lat="45.84444249463444" lon="12.113169879572057"><ele>115.0</ele><time>2026-04-25T05:01:47.99Z</time></trkpt><trkpt lat="45.84440776573494" lon="12.113030282162114"><ele>115.0</ele><time>2026-04-25T05:01:48.99Z</time></trkpt><trkpt lat="45.844377942400264" lon="12.112904743703767"><ele>115.0</ele><time>2026-04-25T05:01:49.99Z</time></trkpt><trkpt lat="45.8443352536325" lon="12.11278410667241"><ele>114.8</ele><time>2026-04-25T05:01:50.99Z</time></trkpt><trkpt lat="45.84428890659074" lon="12.112641511854262"><ele>114.6</ele><time>2026-04-25T05:01:51.99Z</time></trkpt><trkpt lat="45.84424421699882" lon="12.112511275830208"><ele>114.4</ele><time>2026-04-25T05:01:52.99Z</time></trkpt><trkpt lat="45.84419811555714" lon="12.112380741271746"><ele>114.2</ele><time>2026-04-25T05:01:53.99Z</time></trkpt><trkpt lat="45.844152824356016" lon="12.112273973261424"><ele>114.0</ele><time>2026-04-25T05:01:54.99Z</time></trkpt><trkpt lat="45.84411441141657" lon="12.11216301975198"><ele>114.0</ele><time>2026-04-25T05:01:55.99Z</time></trkpt><trkpt lat="45.84406889618571" lon="12.11206163310554"><ele>113.99999999999999</ele><time>2026-04-25T05:01:56.99Z</time></trkpt><trkpt lat="45.84402940544789" lon="12.111972402731977"><ele>114.0</ele><time>2026-04-25T05:01:57.99Z</time></trkpt><trkpt lat="45.84399446114125" lon="12.1118888676005"><ele>114.0</ele><time>2026-04-25T05:01:58.99Z</time></trkpt><trkpt lat="45.84395871145039" lon="12.111809081924637"><ele>113.99999999999999</ele><time>2026-04-25T05:01:59.99Z</time></trkpt><trkpt lat="45.843925234857736" lon="12.111722934404197"><ele>114.0</ele><time>2026-04-25T05:02:00.99Z</time></trkpt><trkpt lat="45.84389829012475" lon="12.111625903507765"><ele>114.0</ele><time>2026-04-25T05:02:01.99Z</time></trkpt><trkpt lat="45.843863594829784" lon="12.111459919760343"><ele>114.0</ele><time>2026-04-25T05:02:03.99Z</time></trkpt><trkpt lat="45.8438672851703" lon="12.111351923454876"><ele>114.0</ele><time>2026-04-25T05:02:04.99Z</time></trkpt><trkpt lat="45.843866266505195" lon="12.111245496095087"><ele>114.0</ele><time>2026-04-25T05:02:07.99Z</time></trkpt><trkpt lat="45.84381436773949" lon="12.111189919467115"><ele>114.0</ele><time>2026-04-25T05:02:10.99Z</time></trkpt><trkpt lat="45.843769383432196" lon="12.111096271982097"><ele>114.0</ele><time>2026-04-25T05:02:12.99Z</time></trkpt><trkpt lat="45.84371237010377" lon="12.110993272930193"><ele>114.0</ele><time>2026-04-25T05:02:14.99Z</time></trkpt><trkpt lat="45.843639416714055" lon="12.11086842530441"><ele>114.0</ele><time>2026-04-25T05:02:16.99Z</time></trkpt><trkpt lat="45.84362155673127" lon="12.11076301416099"><ele>114.0</ele><time>2026-04-25T05:02:17.99Z</time></trkpt><trkpt lat="45.8435711621153" lon="12.110604944550365"><ele>114.0</ele><time>2026-04-25T05:02:19.99Z</time></trkpt><trkpt lat="45.84354117300812" lon="12.110520981072177"><ele>114.0</ele><time>2026-04-25T05:02:20.99Z</time></trkpt><trkpt lat="45.84348264097852" lon="12.110404567500598"><ele>114.0</ele><time>2026-04-25T05:02:22.99Z</time></trkpt><trkpt lat="45.84343464012167" lon="12.110319735826605"><ele>114.0</ele><time>2026-04-25T05:02:23.99Z</time></trkpt><trkpt lat="45.84339781526782" lon="12.11023312757856"><ele>114.6</ele><time>2026-04-25T05:02:24.99Z</time></trkpt><trkpt lat="45.843364909634374" lon="12.110147523516893"><ele>115.2</ele><time>2026-04-25T05:02:25.99Z</time></trkpt><trkpt lat="45.84332970273241" lon="12.110059702360317"><ele>115.79999999999998</ele><time>2026-04-25T05:02:26.989Z</time></trkpt><trkpt lat="45.84325927382388" lon="12.109904427939084"><ele>116.39999999999999</ele><time>2026-04-25T05:02:28.989Z</time></trkpt><trkpt lat="45.84323030396924" lon="12.109805869801551"><ele>117.0</ele><time>2026-04-25T05:02:29.989Z</time></trkpt><trkpt lat="45.84316264035273" lon="12.109660712426589"><ele>117.28571428571429</ele><time>2026-04-25T05:02:31.989Z</time></trkpt><trkpt lat="45.84312656830673" lon="12.109549408915457"><ele>117.57142857142858</ele><time>2026-04-25T05:02:32.989Z</time></trkpt><trkpt lat="45.843100638655585" lon="12.109448623824989"><ele>117.85714285714286</ele><time>2026-04-25T05:02:33.989Z</time></trkpt><trkpt lat="45.84307342549472" lon="12.109364224624628"><ele>118.14285714285714</ele><time>2026-04-25T05:02:34.989Z</time></trkpt><trkpt lat="45.84304877184814" lon="12.109271198692092"><ele>118.42857142857143</ele><time>2026-04-25T05:02:35.989Z</time></trkpt><trkpt lat="45.84301649415593" lon="12.109179988828611"><ele>118.71428571428572</ele><time>2026-04-25T05:02:36.989Z</time></trkpt><trkpt lat="45.84298829835765" lon="12.109091338092872"><ele>119.0</ele><time>2026-04-25T05:02:37.989Z</time></trkpt><trkpt lat="45.842919567616455" lon="12.108950862527196"><ele>118.99999999999999</ele><time>2026-04-25T05:02:39.989Z</time></trkpt><trkpt lat="45.84283942206841" lon="12.10884629763234"><ele>119.0</ele><time>2026-04-25T05:02:41.989Z</time></trkpt><trkpt lat="45.84279518445119" lon="12.108770453164542"><ele>119.0</ele><time>2026-04-25T05:02:42.989Z</time></trkpt><trkpt lat="45.84273071535919" lon="12.108638040505081"><ele>119.0</ele><time>2026-04-25T05:02:44.989Z</time></trkpt><trkpt lat="45.84270044918131" lon="12.10855120360654"><ele>118.99999999999999</ele><time>2026-04-25T05:02:45.989Z</time></trkpt><trkpt lat="45.84266128814904" lon="12.108457620570414"><ele>119.0</ele><time>2026-04-25T05:02:46.989Z</time></trkpt><trkpt lat="45.84262395256979" lon="12.108375134285048"><ele>118.49999999999999</ele><time>2026-04-25T05:02:47.989Z</time></trkpt><trkpt lat="45.842582386714255" lon="12.108272486951645"><ele>118.0</ele><time>2026-04-25T05:02:48.989Z</time></trkpt><trkpt lat="45.84255786686777" lon="12.108171529405302"><ele>117.5</ele><time>2026-04-25T05:02:49.989Z</time></trkpt><trkpt lat="45.84250426980908" lon="12.10799039332133"><ele>117.0</ele><time>2026-04-25T05:02:51.989Z</time></trkpt><trkpt lat="45.842476080194636" lon="12.107896131793382"><ele>116.49999999999999</ele><time>2026-04-25T05:02:52.989Z</time></trkpt><trkpt lat="45.842451780499154" lon="12.10780889905502"><ele>116.0</ele><time>2026-04-25T05:02:53.989Z</time></trkpt><trkpt lat="45.842417720234074" lon="12.107710738256541"><ele>115.99999999999999</ele><time>2026-04-25T05:02:54.989Z</time></trkpt><trkpt lat="45.842385931613556" lon="12.107621172911529"><ele>116.0</ele><time>2026-04-25T05:02:55.989Z</time></trkpt><trkpt lat="45.8423540514087" lon="12.107528959113779"><ele>116.0</ele><time>2026-04-25T05:02:56.989Z</time></trkpt><trkpt lat="45.84231984208112" lon="12.10743693946807"><ele>116.0</ele><time>2026-04-25T05:02:57.989Z</time></trkpt><trkpt lat="45.842296171754356" lon="12.1073258885201"><ele>115.99999999999999</ele><time>2026-04-25T05:02:58.989Z</time></trkpt><trkpt lat="45.84227113029472" lon="12.107242791064813"><ele>116.0</ele><time>2026-04-25T05:02:59.989Z</time></trkpt><trkpt lat="45.842213235439566" lon="12.107087399337738"><ele>116.00000000000001</ele><time>2026-04-25T05:03:01.989Z</time></trkpt><trkpt lat="45.84218883757949" lon="12.106993255934762"><ele>116.0</ele><time>2026-04-25T05:03:02.989Z</time></trkpt><trkpt lat="45.84215236641253" lon="12.106904651854304"><ele>116.00000000000001</ele><time>2026-04-25T05:03:03.989Z</time></trkpt><trkpt lat="45.84212198540764" lon="12.106815743786788"><ele>116.00000000000001</ele><time>2026-04-25T05:03:04.989Z</time></trkpt><trkpt lat="45.84209316369978" lon="12.106733783351679"><ele>116.0</ele><time>2026-04-25T05:03:05.989Z</time></trkpt><trkpt lat="45.842064599819395" lon="12.10664063569065"><ele>116.00000000000001</ele><time>2026-04-25T05:03:06.989Z</time></trkpt><trkpt lat="45.842041690596105" lon="12.106528556653663"><ele>116.00000000000001</ele><time>2026-04-25T05:03:07.989Z</time></trkpt><trkpt lat="45.84200188823868" lon="12.106356582575746"><ele>115.99999999999999</ele><time>2026-04-25T05:03:09.989Z</time></trkpt><trkpt lat="45.84197791742019" lon="12.106244479874178"><ele>116.0</ele><time>2026-04-25T05:03:10.989Z</time></trkpt><trkpt lat="45.84196050398317" lon="12.106149729946521"><ele>116.0</ele><time>2026-04-25T05:03:11.989Z</time></trkpt><trkpt lat="45.84193987595595" lon="12.106053332775783"><ele>116.0</ele><time>2026-04-25T05:03:12.989Z</time></trkpt><trkpt lat="45.84193088597857" lon="12.105947450574096"><ele>115.99999999999999</ele><time>2026-04-25T05:03:13.989Z</time></trkpt><trkpt lat="45.84192685735093" lon="12.105843474876675"><ele>116.0</ele><time>2026-04-25T05:03:14.989Z</time></trkpt><trkpt lat="45.84196736726899" lon="12.105676713443726"><ele>116.19999999999999</ele><time>2026-04-25T05:03:16.989Z</time></trkpt><trkpt lat="45.842005605770524" lon="12.10559955347659"><ele>116.39999999999999</ele><time>2026-04-25T05:03:17.989Z</time></trkpt><trkpt lat="45.842062312660566" lon="12.105553511164143"><ele>116.6</ele><time>2026-04-25T05:03:18.989Z</time></trkpt><trkpt lat="45.84217852044105" lon="12.105494641204633"><ele>116.8</ele><time>2026-04-25T05:03:20.989Z</time></trkpt><trkpt lat="45.842283920652484" lon="12.105468617508377"><ele>117.0</ele><time>2026-04-25T05:03:22.989Z</time></trkpt><trkpt lat="45.84238081972659" lon="12.105418449411955"><ele>117.0</ele><time>2026-04-25T05:03:24.989Z</time></trkpt><trkpt lat="45.84246621434163" lon="12.105344561217613"><ele>116.99999999999999</ele><time>2026-04-25T05:03:26.989Z</time></trkpt><trkpt lat="45.84253020352727" lon="12.105216641525685"><ele>116.99999999999999</ele><time>2026-04-25T05:03:28.989Z</time></trkpt><trkpt lat="45.84255384890296" lon="12.105078720511948"><ele>117.0</ele><time>2026-04-25T05:03:30.989Z</time></trkpt><trkpt lat="45.842588384015244" lon="12.104913671174128"><ele>117.0</ele><time>2026-04-25T05:03:32.989Z</time></trkpt><trkpt lat="45.84262873198246" lon="12.104751022482326"><ele>117.0</ele><time>2026-04-25T05:03:34.988Z</time></trkpt><trkpt lat="45.842654700251586" lon="12.104575590112525"><ele>116.99999999999999</ele><time>2026-04-25T05:03:36.988Z</time></trkpt><trkpt lat="45.842663219269575" lon="12.104483916412057"><ele>116.99999999999999</ele><time>2026-04-25T05:03:37.988Z</time></trkpt><trkpt lat="45.84269428943035" lon="12.104337245091552"><ele>117.0</ele><time>2026-04-25T05:03:39.99Z</time></trkpt><trkpt lat="45.84272604477407" lon="12.104152814228408"><ele>117.0</ele><time>2026-04-25T05:03:41.99Z</time></trkpt><trkpt lat="45.842741181979235" lon="12.104062909111933"><ele>117.0</ele><time>2026-04-25T05:03:42.99Z</time></trkpt><trkpt lat="45.84275534449118" lon="12.103973608524202"><ele>116.99999999999999</ele><time>2026-04-25T05:03:43.99Z</time></trkpt><trkpt lat="45.84278704918584" lon="12.103807779493977"><ele>116.99999999999999</ele><time>2026-04-25T05:03:45.99Z</time></trkpt><trkpt lat="45.84280359423528" lon="12.103717891419617"><ele>117.0</ele><time>2026-04-25T05:03:46.99Z</time></trkpt><trkpt lat="45.84284169701712" lon="12.103533279277707"><ele>117.0</ele><time>2026-04-25T05:03:48.99Z</time></trkpt><trkpt lat="45.842869672554805" lon="12.103438557448017"><ele>117.0</ele><time>2026-04-25T05:03:49.99Z</time></trkpt><trkpt lat="45.84288626507776" lon="12.103349335315512"><ele>117.0</ele><time>2026-04-25T05:03:50.99Z</time></trkpt><trkpt lat="45.8429032727949" lon="12.103179800392178"><ele>117.0</ele><time>2026-04-25T05:03:52.99Z</time></trkpt><trkpt lat="45.84291723917267" lon="12.103078720366938"><ele>117.0</ele><time>2026-04-25T05:03:53.99Z</time></trkpt><trkpt lat="45.842936859952594" lon="12.102970595426733"><ele>117.0</ele><time>2026-04-25T05:03:54.99Z</time></trkpt><trkpt lat="45.84295900150324" lon="12.102864010896283"><ele>117.0</ele><time>2026-04-25T05:03:55.99Z</time></trkpt><trkpt lat="45.842984322880234" lon="12.102755451952396"><ele>117.28571428571429</ele><time>2026-04-25T05:03:56.99Z</time></trkpt><trkpt lat="45.84300155609395" lon="12.102653448524347"><ele>117.57142857142858</ele><time>2026-04-25T05:03:57.99Z</time></trkpt><trkpt lat="45.84301443552554" lon="12.102555126545552"><ele>117.85714285714286</ele><time>2026-04-25T05:03:58.99Z</time></trkpt><trkpt lat="45.843041469087275" lon="12.102460168787553"><ele>118.14285714285714</ele><time>2026-04-25T05:03:59.99Z</time></trkpt><trkpt lat="45.843057223504644" lon="12.102354460378896"><ele>118.42857142857143</ele><time>2026-04-25T05:04:00.99Z</time></trkpt><trkpt lat="45.84307265794776" lon="12.102254876053934"><ele>118.71428571428572</ele><time>2026-04-25T05:04:01.99Z</time></trkpt><trkpt lat="45.84308913663351" lon="12.102155763763452"><ele>119.0</ele><time>2026-04-25T05:04:02.99Z</time></trkpt><trkpt lat="45.84309746141134" lon="12.1020643243788"><ele>119.0</ele><time>2026-04-25T05:04:03.99Z</time></trkpt><trkpt lat="45.84311586238333" lon="12.101895652328903"><ele>119.0</ele><time>2026-04-25T05:04:05.99Z</time></trkpt><trkpt lat="45.84313650285873" lon="12.101802435886395"><ele>119.0</ele><time>2026-04-25T05:04:06.99Z</time></trkpt><trkpt lat="45.843162906782574" lon="12.101705339626626"><ele>119.0</ele><time>2026-04-25T05:04:07.99Z</time></trkpt><trkpt lat="45.84317054429919" lon="12.10161068826975"><ele>119.0</ele><time>2026-04-25T05:04:08.99Z</time></trkpt><trkpt lat="45.84319148967474" lon="12.101432044487183"><ele>119.0</ele><time>2026-04-25T05:04:10.99Z</time></trkpt><trkpt lat="45.84321115340871" lon="12.101321149358391"><ele>119.0</ele><time>2026-04-25T05:04:11.99Z</time></trkpt><trkpt lat="45.84323402153049" lon="12.101228716969922"><ele>119.0</ele><time>2026-04-25T05:04:12.99Z</time></trkpt><trkpt lat="45.843260224510566" lon="12.101125581601469"><ele>119.0</ele><time>2026-04-25T05:04:13.99Z</time></trkpt><trkpt lat="45.84328180697492" lon="12.10102799691726"><ele>119.0</ele><time>2026-04-25T05:04:14.99Z</time></trkpt><trkpt lat="45.84329995813552" lon="12.10092586396216"><ele>119.0</ele><time>2026-04-25T05:04:15.99Z</time></trkpt><trkpt lat="45.84331881411024" lon="12.100829542225295"><ele>119.0</ele><time>2026-04-25T05:04:16.99Z</time></trkpt><trkpt lat="45.84333621462525" lon="12.10072680978067"><ele>118.83333333333333</ele><time>2026-04-25T05:04:17.99Z</time></trkpt><trkpt lat="45.843355565198394" lon="12.100630488278657"><ele>118.66666666666666</ele><time>2026-04-25T05:04:18.99Z</time></trkpt><trkpt lat="45.843381526000215" lon="12.100524595622696"><ele>118.5</ele><time>2026-04-25T05:04:19.99Z</time></trkpt><trkpt lat="45.843395192872904" lon="12.100425771145373"><ele>118.33333333333334</ele><time>2026-04-25T05:04:20.99Z</time></trkpt><trkpt lat="45.84340704964999" lon="12.100329011289148"><ele>118.16666666666667</ele><time>2026-04-25T05:04:21.99Z</time></trkpt><trkpt lat="45.84343797435321" lon="12.100157692426802"><ele>118.0</ele><time>2026-04-25T05:04:23.99Z</time></trkpt><trkpt lat="45.84344421369747" lon="12.100061932690513"><ele>117.80000000000001</ele><time>2026-04-25T05:04:24.99Z</time></trkpt><trkpt lat="45.8434666403056" lon="12.099962138364065"><ele>117.60000000000001</ele><time>2026-04-25T05:04:25.99Z</time></trkpt><trkpt lat="45.84348738720261" lon="12.09979001894095"><ele>117.39999999999999</ele><time>2026-04-25T05:04:27.99Z</time></trkpt><trkpt lat="45.84351266693839" lon="12.099610149608306"><ele>117.19999999999999</ele><time>2026-04-25T05:04:29.99Z</time></trkpt><trkpt lat="45.843526253034504" lon="12.099520508384483"><ele>117.0</ele><time>2026-04-25T05:04:30.99Z</time></trkpt><trkpt lat="45.8435599283969" lon="12.09935831365724"><ele>117.0</ele><time>2026-04-25T05:04:32.99Z</time></trkpt><trkpt lat="45.84357383414232" lon="12.099261449718544"><ele>117.0</ele><time>2026-04-25T05:04:33.99Z</time></trkpt><trkpt lat="45.84359054637237" lon="12.099173579542445"><ele>117.0</ele><time>2026-04-25T05:04:34.99Z</time></trkpt><trkpt lat="45.84360504995918" lon="12.099012600648733"><ele>117.0</ele><time>2026-04-25T05:04:36.99Z</time></trkpt><trkpt lat="45.84360579253057" lon="12.098919846651398"><ele>117.0</ele><time>2026-04-25T05:04:37.989Z</time></trkpt><trkpt lat="45.843539148959714" lon="12.09882346404503"><ele>117.0</ele><time>2026-04-25T05:04:39.989Z</time></trkpt><trkpt lat="45.84342667219776" lon="12.098804488930321"><ele>117.33333333333333</ele><time>2026-04-25T05:04:41.989Z</time></trkpt><trkpt lat="45.843364103414885" lon="12.098828339437127"><ele>117.66666666666666</ele><time>2026-04-25T05:04:42.989Z</time></trkpt><trkpt lat="45.84328874825314" lon="12.098889036948018"><ele>118.0</ele><time>2026-04-25T05:04:44.989Z</time></trkpt><trkpt lat="45.84319613650249" lon="12.098978558512115"><ele>118.33333333333333</ele><time>2026-04-25T05:04:46.989Z</time></trkpt><trkpt lat="45.84314700368577" lon="12.099039347654395"><ele>118.66666666666666</ele><time>2026-04-25T05:04:47.989Z</time></trkpt><trkpt lat="45.84310181980042" lon="12.099105232108903"><ele>119.0</ele><time>2026-04-25T05:04:48.989Z</time></trkpt><trkpt lat="45.843047824434386" lon="12.099167266638434"><ele>119.0</ele><time>2026-04-25T05:04:49.989Z</time></trkpt><trkpt lat="45.84300162481996" lon="12.099231640266634"><ele>119.0</ele><time>2026-04-25T05:04:50.989Z</time></trkpt><trkpt lat="45.842913417366994" lon="12.099356982964064"><ele>119.0</ele><time>2026-04-25T05:04:52.989Z</time></trkpt><trkpt lat="45.84282126112152" lon="12.09938227676523"><ele>119.0</ele><time>2026-04-25T05:04:54.989Z</time></trkpt><trkpt lat="45.84275785304439" lon="12.09928669976098"><ele>119.0</ele><time>2026-04-25T05:04:56.989Z</time></trkpt><trkpt lat="45.84274985509491" lon="12.099134752088705"><ele>119.0</ele><time>2026-04-25T05:04:58.989Z</time></trkpt><trkpt lat="45.84275927784554" lon="12.099035822361914"><ele>119.0</ele><time>2026-04-25T05:04:59.989Z</time></trkpt><trkpt lat="45.84275851308686" lon="12.098932850234572"><ele>119.0</ele><time>2026-04-25T05:05:00.989Z</time></trkpt><trkpt lat="45.84275266241371" lon="12.09883016783161"><ele>119.0</ele><time>2026-04-25T05:05:01.989Z</time></trkpt><trkpt lat="45.84275436974759" lon="12.098729265716873"><ele>119.0</ele><time>2026-04-25T05:05:02.989Z</time></trkpt><trkpt lat="45.8427482510364" lon="12.098638398835233"><ele>119.0</ele><time>2026-04-25T05:05:03.989Z</time></trkpt><trkpt lat="45.84274522231652" lon="12.098546313259682"><ele>119.0</ele><time>2026-04-25T05:05:04.989Z</time></trkpt><trkpt lat="45.842730342291496" lon="12.098368326781245"><ele>119.0</ele><time>2026-04-25T05:05:06.989Z</time></trkpt><trkpt lat="45.84275864682361" lon="12.098189331639192"><ele>119.0</ele><time>2026-04-25T05:05:08.989Z</time></trkpt><trkpt lat="45.842794492541884" lon="12.098112012652466"><ele>119.0</ele><time>2026-04-25T05:05:09.989Z</time></trkpt><trkpt lat="45.84288537682138" lon="12.09800530583146"><ele>119.0</ele><time>2026-04-25T05:05:11.989Z</time></trkpt><trkpt lat="45.84294698098391" lon="12.097955632064302"><ele>119.0</ele><time>2026-04-25T05:05:12.989Z</time></trkpt><trkpt lat="45.843093688335635" lon="12.097796904361246"><ele>119.0</ele><time>2026-04-25T05:05:15.989Z</time></trkpt><trkpt lat="45.84315026047504" lon="12.097745856302332"><ele>119.0</ele><time>2026-04-25T05:05:16.989Z</time></trkpt><trkpt lat="45.843210973339666" lon="12.097676655393062"><ele>119.0</ele><time>2026-04-25T05:05:17.989Z</time></trkpt><trkpt lat="45.84325366398845" lon="12.097599035170655"><ele>119.0</ele><time>2026-04-25T05:05:18.989Z</time></trkpt><trkpt lat="45.843297896787014" lon="12.097520401987351"><ele>119.0</ele><time>2026-04-25T05:05:19.989Z</time></trkpt><trkpt lat="45.843332583329754" lon="12.097428407136396"><ele>119.0</ele><time>2026-04-25T05:05:20.989Z</time></trkpt><trkpt lat="45.8433560303986" lon="12.097323975361101"><ele>119.0</ele><time>2026-04-25T05:05:21.989Z</time></trkpt><trkpt lat="45.84337879126044" lon="12.097217608861271"><ele>119.14285714285714</ele><time>2026-04-25T05:05:22.989Z</time></trkpt><trkpt lat="45.84341038634821" lon="12.097108255934348"><ele>119.28571428571428</ele><time>2026-04-25T05:05:23.989Z</time></trkpt><trkpt lat="45.84344232552845" lon="12.09701488545671"><ele>119.42857142857143</ele><time>2026-04-25T05:05:24.989Z</time></trkpt><trkpt lat="45.84348412759269" lon="12.09692800549803"><ele>119.57142857142857</ele><time>2026-04-25T05:05:25.989Z</time></trkpt><trkpt lat="45.843513839338975" lon="12.096838715418672"><ele>119.71428571428571</ele><time>2026-04-25T05:05:26.989Z</time></trkpt><trkpt lat="45.843544062028634" lon="12.096739281708905"><ele>119.85714285714286</ele><time>2026-04-25T05:05:27.989Z</time></trkpt><trkpt lat="45.843577300741686" lon="12.096649456407118"><ele>120.0</ele><time>2026-04-25T05:05:28.989Z</time></trkpt><trkpt lat="45.843612100770684" lon="12.096555097052827"><ele>120.14285714285714</ele><time>2026-04-25T05:05:29.989Z</time></trkpt><trkpt lat="45.84362656298674" lon="12.096463839142057"><ele>120.28571428571428</ele><time>2026-04-25T05:05:30.989Z</time></trkpt><trkpt lat="45.84364318705793" lon="12.096363807509995"><ele>120.42857142857142</ele><time>2026-04-25T05:05:31.989Z</time></trkpt><trkpt lat="45.84367591046009" lon="12.096263440312919"><ele>120.57142857142857</ele><time>2026-04-25T05:05:32.989Z</time></trkpt><trkpt lat="45.84370778659222" lon="12.096170212616883"><ele>120.7142857142857</ele><time>2026-04-25T05:05:33.989Z</time></trkpt><trkpt lat="45.84374664145461" lon="12.096067759838359"><ele>120.85714285714285</ele><time>2026-04-25T05:05:34.989Z</time></trkpt><trkpt lat="45.84377777648693" lon="12.095966399548626"><ele>121.0</ele><time>2026-04-25T05:05:35.989Z</time></trkpt><trkpt lat="45.84381297668796" lon="12.095874527488316"><ele>121.0</ele><time>2026-04-25T05:05:36.989Z</time></trkpt><trkpt lat="45.84385176931706" lon="12.095781247762378"><ele>120.99999999999999</ele><time>2026-04-25T05:05:37.989Z</time></trkpt><trkpt lat="45.84388574549392" lon="12.095690165242914"><ele>121.0</ele><time>2026-04-25T05:05:38.989Z</time></trkpt><trkpt lat="45.84391664181059" lon="12.095608294908443"><ele>121.0</ele><time>2026-04-25T05:05:39.989Z</time></trkpt><trkpt lat="45.8439575071808" lon="12.095524399858364"><ele>120.99999999999999</ele><time>2026-04-25T05:05:40.989Z</time></trkpt><trkpt lat="45.8439964341173" lon="12.095437808975067"><ele>121.0</ele><time>2026-04-25T05:05:41.989Z</time></trkpt><trkpt lat="45.844034875835156" lon="12.095344712049386"><ele>121.0</ele><time>2026-04-25T05:05:42.989Z</time></trkpt><trkpt lat="45.84405958023801" lon="12.095246212803753"><ele>120.83333333333334</ele><time>2026-04-25T05:05:43.989Z</time></trkpt><trkpt lat="45.844057044332615" lon="12.095152889562844"><ele>120.66666666666667</ele><time>2026-04-25T05:05:44.99Z</time></trkpt><trkpt lat="45.84405048834828" lon="12.095060478115315"><ele>120.5</ele><time>2026-04-25T05:05:45.99Z</time></trkpt><trkpt lat="45.844022268787235" lon="12.094954657524747"><ele>120.33333333333334</ele><time>2026-04-25T05:05:46.99Z</time></trkpt><trkpt lat="45.84399859543271" lon="12.094779610297957"><ele>120.16666666666667</ele><time>2026-04-25T05:05:48.989Z</time></trkpt><trkpt lat="45.8439861180965" lon="12.094625188004416"><ele>120.0</ele><time>2026-04-25T05:05:50.99Z</time></trkpt><trkpt lat="45.84397098286165" lon="12.094461735911214"><ele>119.83333333333333</ele><time>2026-04-25T05:05:52.99Z</time></trkpt><trkpt lat="45.84394485627207" lon="12.094358212323336"><ele>119.66666666666666</ele><time>2026-04-25T05:05:54.99Z</time></trkpt><trkpt lat="45.84395429801819" lon="12.094192655631808"><ele>119.5</ele><time>2026-04-25T05:05:56.989Z</time></trkpt><trkpt lat="45.843952416093586" lon="12.094100542716921"><ele>119.33333333333333</ele><time>2026-04-25T05:05:57.99Z</time></trkpt><trkpt lat="45.84393887573854" lon="12.094005577996867"><ele>119.16666666666666</ele><time>2026-04-25T05:05:58.99Z</time></trkpt><trkpt lat="45.843926970683256" lon="12.093900181507397"><ele>119.0</ele><time>2026-04-25T05:05:59.99Z</time></trkpt><trkpt lat="45.8439224439324" lon="12.093784746976409"><ele>119.0</ele><time>2026-04-25T05:06:00.99Z</time></trkpt><trkpt lat="45.84393241000529" lon="12.09365907753153"><ele>119.0</ele><time>2026-04-25T05:06:01.99Z</time></trkpt><trkpt lat="45.84394219407181" lon="12.093567061064345"><ele>119.0</ele><time>2026-04-25T05:06:02.99Z</time></trkpt><trkpt lat="45.84394676736031" lon="12.093462097725112"><ele>119.0</ele><time>2026-04-25T05:06:03.99Z</time></trkpt><trkpt lat="45.84395152013949" lon="12.093364959436084"><ele>119.0</ele><time>2026-04-25T05:06:04.99Z</time></trkpt><trkpt lat="45.843957504525115" lon="12.093264285683542"><ele>119.0</ele><time>2026-04-25T05:06:05.99Z</time></trkpt><trkpt lat="45.8439701734868" lon="12.093160648803291"><ele>119.0</ele><time>2026-04-25T05:06:06.99Z</time></trkpt><trkpt lat="45.843987265542616" lon="12.093059238010643"><ele>118.83333333333333</ele><time>2026-04-25T05:06:07.99Z</time></trkpt><trkpt lat="45.8440101629408" lon="12.09297023554367"><ele>118.66666666666666</ele><time>2026-04-25T05:06:08.99Z</time></trkpt><trkpt lat="45.844046798988536" lon="12.09288801326332"><ele>118.5</ele><time>2026-04-25T05:06:09.99Z</time></trkpt><trkpt lat="45.8440863251556" lon="12.092796321157406"><ele>118.33333333333334</ele><time>2026-04-25T05:06:10.99Z</time></trkpt><trkpt lat="45.84411810120872" lon="12.092710323528859"><ele>118.16666666666667</ele><time>2026-04-25T05:06:11.99Z</time></trkpt><trkpt lat="45.84418211788889" lon="12.092545739536531"><ele>118.0</ele><time>2026-04-25T05:06:13.99Z</time></trkpt><trkpt lat="45.84422279880123" lon="12.092458766315278"><ele>118.28571428571428</ele><time>2026-04-25T05:06:14.99Z</time></trkpt><trkpt lat="45.844248948928694" lon="12.09237287010162"><ele>118.57142857142858</ele><time>2026-04-25T05:06:15.99Z</time></trkpt><trkpt lat="45.84427176670794" lon="12.092284895779398"><ele>118.85714285714286</ele><time>2026-04-25T05:06:16.99Z</time></trkpt><trkpt lat="45.844311684518516" lon="12.092167650377498"><ele>119.14285714285714</ele><time>2026-04-25T05:06:17.99Z</time></trkpt><trkpt lat="45.844349682070046" lon="12.092072232474397"><ele>119.42857142857142</ele><time>2026-04-25T05:06:18.99Z</time></trkpt><trkpt lat="45.84438302627144" lon="12.091976960057831"><ele>119.71428571428572</ele><time>2026-04-25T05:06:19.99Z</time></trkpt><trkpt lat="45.844421573625624" lon="12.09188263984192"><ele>120.0</ele><time>2026-04-25T05:06:20.99Z</time></trkpt><trkpt lat="45.844465954360444" lon="12.091783436969804"><ele>120.0</ele><time>2026-04-25T05:06:21.99Z</time></trkpt><trkpt lat="45.84450551379438" lon="12.091690527956949"><ele>120.0</ele><time>2026-04-25T05:06:22.99Z</time></trkpt><trkpt lat="45.844541617279745" lon="12.091589764569907"><ele>120.0</ele><time>2026-04-25T05:06:23.99Z</time></trkpt><trkpt lat="45.84457913384129" lon="12.091493345933742"><ele>120.0</ele><time>2026-04-25T05:06:24.99Z</time></trkpt><trkpt lat="45.844614560757144" lon="12.09139981909948"><ele>120.0</ele><time>2026-04-25T05:06:25.99Z</time></trkpt><trkpt lat="45.844653150025614" lon="12.091307375140302"><ele>120.0</ele><time>2026-04-25T05:06:26.99Z</time></trkpt><trkpt lat="45.844686575266216" lon="12.091215734782862"><ele>120.0</ele><time>2026-04-25T05:06:27.99Z</time></trkpt><trkpt lat="45.84471943656398" lon="12.091117673322692"><ele>120.0</ele><time>2026-04-25T05:06:28.99Z</time></trkpt><trkpt lat="45.844782367701555" lon="12.09096028756688"><ele>120.0</ele><time>2026-04-25T05:06:30.99Z</time></trkpt><trkpt lat="45.84480688902995" lon="12.090863171829328"><ele>120.0</ele><time>2026-04-25T05:06:31.989Z</time></trkpt><trkpt lat="45.84485996997771" lon="12.09069106667277"><ele>120.0</ele><time>2026-04-25T05:06:33.989Z</time></trkpt><trkpt lat="45.84490736907068" lon="12.090593692716595"><ele>120.0</ele><time>2026-04-25T05:06:34.989Z</time></trkpt><trkpt lat="45.84494567490705" lon="12.090494862769422"><ele>120.0</ele><time>2026-04-25T05:06:35.989Z</time></trkpt><trkpt lat="45.84498364244104" lon="12.090403172839604"><ele>120.0</ele><time>2026-04-25T05:06:36.989Z</time></trkpt><trkpt lat="45.84502066082822" lon="12.090307772108158"><ele>120.0</ele><time>2026-04-25T05:06:37.989Z</time></trkpt><trkpt lat="45.84505809242937" lon="12.090217834996324"><ele>120.0</ele><time>2026-04-25T05:06:38.989Z</time></trkpt><trkpt lat="45.845093050627256" lon="12.090125234697927"><ele>120.0</ele><time>2026-04-25T05:06:39.989Z</time></trkpt><trkpt lat="45.845129567381456" lon="12.090031824457748"><ele>119.85714285714286</ele><time>2026-04-25T05:06:40.989Z</time></trkpt><trkpt lat="45.84516091097853" lon="12.089939394526896"><ele>119.71428571428571</ele><time>2026-04-25T05:06:41.989Z</time></trkpt><trkpt lat="45.84519696443287" lon="12.08984866336447"><ele>119.57142857142857</ele><time>2026-04-25T05:06:42.989Z</time></trkpt><trkpt lat="45.845233689250236" lon="12.089756758448974"><ele>119.42857142857143</ele><time>2026-04-25T05:06:43.989Z</time></trkpt><trkpt lat="45.84527017698482" lon="12.089666908422293"><ele>119.28571428571428</ele><time>2026-04-25T05:06:44.989Z</time></trkpt><trkpt lat="45.8453059776504" lon="12.089575662670132"><ele>119.14285714285714</ele><time>2026-04-25T05:06:45.989Z</time></trkpt><trkpt lat="45.845338763235375" lon="12.089489632871176"><ele>119.0</ele><time>2026-04-25T05:06:46.989Z</time></trkpt><trkpt lat="45.84536823258979" lon="12.089404761873276"><ele>118.99999999999999</ele><time>2026-04-25T05:06:47.989Z</time></trkpt><trkpt lat="45.845397337867695" lon="12.089321253733596"><ele>119.0</ele><time>2026-04-25T05:06:48.989Z</time></trkpt><trkpt lat="45.845481687643336" lon="12.089185727845072"><ele>119.0</ele><time>2026-04-25T05:06:50.989Z</time></trkpt><trkpt lat="45.84553687378376" lon="12.08910126899444"><ele>119.0</ele><time>2026-04-25T05:06:51.989Z</time></trkpt><trkpt lat="45.845565959006095" lon="12.089010703910787"><ele>118.99999999999999</ele><time>2026-04-25T05:06:52.989Z</time></trkpt><trkpt lat="45.84558551985169" lon="12.08890297127033"><ele>119.0</ele><time>2026-04-25T05:06:53.989Z</time></trkpt><trkpt lat="45.845598809594364" lon="12.08880798454712"><ele>119.49999999999999</ele><time>2026-04-25T05:06:54.989Z</time></trkpt><trkpt lat="45.84561708994033" lon="12.088716844947689"><ele>120.0</ele><time>2026-04-25T05:06:55.989Z</time></trkpt><trkpt lat="45.84564067671782" lon="12.088534367631238"><ele>120.5</ele><time>2026-04-25T05:06:57.989Z</time></trkpt><trkpt lat="45.84565306435156" lon="12.088436954198903"><ele>121.0</ele><time>2026-04-25T05:06:58.989Z</time></trkpt><trkpt lat="45.845667430013606" lon="12.088341166079207"><ele>121.49999999999999</ele><time>2026-04-25T05:06:59.989Z</time></trkpt><trkpt lat="45.84568005714905" lon="12.088247368909572"><ele>122.0</ele><time>2026-04-25T05:07:00.989Z</time></trkpt><trkpt lat="45.84569568667559" lon="12.088158442397962"><ele>121.99999999999999</ele><time>2026-04-25T05:07:01.989Z</time></trkpt><trkpt lat="45.84571211157281" lon="12.08806430153401"><ele>122.0</ele><time>2026-04-25T05:07:02.989Z</time></trkpt><trkpt lat="45.845730787592146" lon="12.087962749381548"><ele>121.99999999999999</ele><time>2026-04-25T05:07:03.989Z</time></trkpt><trkpt lat="45.845746721929956" lon="12.0878548499597"><ele>121.99999999999999</ele><time>2026-04-25T05:07:04.989Z</time></trkpt><trkpt lat="45.84575179337638" lon="12.087752154066123"><ele>122.0</ele><time>2026-04-25T05:07:05.989Z</time></trkpt><trkpt lat="45.845760583348664" lon="12.087654850975104"><ele>121.99999999999999</ele><time>2026-04-25T05:07:06.989Z</time></trkpt><trkpt lat="45.84577285984884" lon="12.087558681887323"><ele>121.99999999999999</ele><time>2026-04-25T05:07:07.989Z</time></trkpt><trkpt lat="45.845789592973674" lon="12.087456768431403"><ele>121.6</ele><time>2026-04-25T05:07:08.989Z</time></trkpt><trkpt lat="45.84580315179015" lon="12.087361155752033"><ele>121.19999999999999</ele><time>2026-04-25T05:07:09.989Z</time></trkpt><trkpt lat="45.845817497075245" lon="12.087259873051835"><ele>120.8</ele><time>2026-04-25T05:07:10.989Z</time></trkpt><trkpt lat="45.8458312429154" lon="12.087082325820617"><ele>120.4</ele><time>2026-04-25T05:07:12.989Z</time></trkpt><trkpt lat="45.84584396046354" lon="12.086884312538164"><ele>120.0</ele><time>2026-04-25T05:07:14.989Z</time></trkpt><trkpt lat="45.845855357397795" lon="12.08678968039132"><ele>120.0</ele><time>2026-04-25T05:07:15.989Z</time></trkpt><trkpt lat="45.84586433836756" lon="12.086606691721569"><ele>120.0</ele><time>2026-04-25T05:07:17.989Z</time></trkpt><trkpt lat="45.84587357633941" lon="12.086511710743295"><ele>120.0</ele><time>2026-04-25T05:07:18.989Z</time></trkpt><trkpt lat="45.845882534126424" lon="12.086412744657105"><ele>120.0</ele><time>2026-04-25T05:07:19.989Z</time></trkpt><trkpt lat="45.84589488256783" lon="12.086312160000839"><ele>120.0</ele><time>2026-04-25T05:07:20.989Z</time></trkpt><trkpt lat="45.84590899024346" lon="12.086204714247204"><ele>120.0</ele><time>2026-04-25T05:07:21.989Z</time></trkpt><trkpt lat="45.84591733498677" lon="12.086103901828979"><ele>120.14285714285714</ele><time>2026-04-25T05:07:22.989Z</time></trkpt><trkpt lat="45.84592590512684" lon="12.085999308240103"><ele>120.28571428571428</ele><time>2026-04-25T05:07:23.989Z</time></trkpt><trkpt lat="45.84593948657374" lon="12.085905248964385"><ele>120.42857142857142</ele><time>2026-04-25T05:07:24.989Z</time></trkpt><trkpt lat="45.84594707025773" lon="12.08580162255034"><ele>120.57142857142857</ele><time>2026-04-25T05:07:25.989Z</time></trkpt><trkpt lat="45.84597141610783" lon="12.085692237506924"><ele>120.7142857142857</ele><time>2026-04-25T05:07:26.989Z</time></trkpt><trkpt lat="45.84599642634121" lon="12.085595106362971"><ele>120.85714285714285</ele><time>2026-04-25T05:07:27.989Z</time></trkpt><trkpt lat="45.84601867258828" lon="12.085498535291562"><ele>121.0</ele><time>2026-04-25T05:07:28.989Z</time></trkpt><trkpt lat="45.84603950928517" lon="12.085403768350075"><ele>121.0</ele><time>2026-04-25T05:07:29.989Z</time></trkpt><trkpt lat="45.846062823614986" lon="12.08530817076216"><ele>120.99999999999999</ele><time>2026-04-25T05:07:30.989Z</time></trkpt><trkpt lat="45.84608259303213" lon="12.085206681433148"><ele>121.0</ele><time>2026-04-25T05:07:31.989Z</time></trkpt><trkpt lat="45.84610105455783" lon="12.085109737281046"><ele>121.0</ele><time>2026-04-25T05:07:32.989Z</time></trkpt><trkpt lat="45.846119662676706" lon="12.085010604643891"><ele>120.99999999999999</ele><time>2026-04-25T05:07:33.989Z</time></trkpt><trkpt lat="45.84613484232196" lon="12.0849103688581"><ele>121.0</ele><time>2026-04-25T05:07:34.989Z</time></trkpt><trkpt lat="45.8461518134456" lon="12.084809505903973"><ele>121.0</ele><time>2026-04-25T05:07:35.989Z</time></trkpt><trkpt lat="45.84617915645518" lon="12.084717668454084"><ele>121.0</ele><time>2026-04-25T05:07:36.989Z</time></trkpt><trkpt lat="45.846208942444086" lon="12.084630964772536"><ele>120.99999999999999</ele><time>2026-04-25T05:07:37.989Z</time></trkpt><trkpt lat="45.846233243880135" lon="12.084539069180009"><ele>121.0</ele><time>2026-04-25T05:07:38.989Z</time></trkpt><trkpt lat="45.84625971162057" lon="12.084445419085258"><ele>121.0</ele><time>2026-04-25T05:07:39.988Z</time></trkpt><trkpt lat="45.84628162299306" lon="12.084347036686415"><ele>120.99999999999999</ele><time>2026-04-25T05:07:40.988Z</time></trkpt><trkpt lat="45.84630851209973" lon="12.084257985065534"><ele>121.0</ele><time>2026-04-25T05:07:41.988Z</time></trkpt><trkpt lat="45.846333956865514" lon="12.084161052297677"><ele>121.0</ele><time>2026-04-25T05:07:42.988Z</time></trkpt><trkpt lat="45.84635047748353" lon="12.084068857094149"><ele>121.0</ele><time>2026-04-25T05:07:43.988Z</time></trkpt><trkpt lat="45.84636389526065" lon="12.083979470569737"><ele>120.99999999999999</ele><time>2026-04-25T05:07:44.988Z</time></trkpt><trkpt lat="45.84637431722817" lon="12.083878932212583"><ele>121.0</ele><time>2026-04-25T05:07:45.988Z</time></trkpt><trkpt lat="45.84638450590071" lon="12.083779070438057"><ele>121.0</ele><time>2026-04-25T05:07:46.988Z</time></trkpt><trkpt lat="45.84639795436601" lon="12.083682518466668"><ele>120.99999999999999</ele><time>2026-04-25T05:07:47.988Z</time></trkpt><trkpt lat="45.846416972002174" lon="12.083595482951546"><ele>121.0</ele><time>2026-04-25T05:07:48.988Z</time></trkpt><trkpt lat="45.84644325580887" lon="12.083510278604146"><ele>121.0</ele><time>2026-04-25T05:07:49.988Z</time></trkpt><trkpt lat="45.84647529894047" lon="12.083423620954946"><ele>121.00000000000001</ele><time>2026-04-25T05:07:50.989Z</time></trkpt><trkpt lat="45.84650435489354" lon="12.083335903078957"><ele>121.0</ele><time>2026-04-25T05:07:51.99Z</time></trkpt><trkpt lat="45.84651481634995" lon="12.08322950301185"><ele>121.0</ele><time>2026-04-25T05:07:52.99Z</time></trkpt><trkpt lat="45.846522478961184" lon="12.08312544707897"><ele>121.0</ele><time>2026-04-25T05:07:53.989Z</time></trkpt><trkpt lat="45.846544956336146" lon="12.083038341967612"><ele>121.00000000000001</ele><time>2026-04-25T05:07:54.989Z</time></trkpt><trkpt lat="45.84658821200372" lon="12.082863345916403"><ele>121.0</ele><time>2026-04-25T05:07:56.989Z</time></trkpt><trkpt lat="45.846611646416875" lon="12.082766997690271"><ele>121.42857142857142</ele><time>2026-04-25T05:07:57.989Z</time></trkpt><trkpt lat="45.84662962611471" lon="12.082675341615362"><ele>121.85714285714285</ele><time>2026-04-25T05:07:58.989Z</time></trkpt><trkpt lat="45.84665161294455" lon="12.082575331971253"><ele>122.28571428571428</ele><time>2026-04-25T05:07:59.989Z</time></trkpt><trkpt lat="45.84666379574015" lon="12.082467128489817"><ele>122.71428571428572</ele><time>2026-04-25T05:08:00.989Z</time></trkpt><trkpt lat="45.846670406465286" lon="12.082365314251286"><ele>123.14285714285715</ele><time>2026-04-25T05:08:01.989Z</time></trkpt><trkpt lat="45.84667545212652" lon="12.082266936052198"><ele>123.57142857142858</ele><time>2026-04-25T05:08:02.989Z</time></trkpt><trkpt lat="45.8466921937103" lon="12.082161249098162"><ele>124.0</ele><time>2026-04-25T05:08:03.989Z</time></trkpt><trkpt lat="45.84670430756836" lon="12.082064039619764"><ele>124.2</ele><time>2026-04-25T05:08:04.989Z</time></trkpt><trkpt lat="45.84672472550622" lon="12.08188071625452"><ele>124.4</ele><time>2026-04-25T05:08:06.989Z</time></trkpt><trkpt lat="45.84674525516599" lon="12.081791099505061"><ele>124.6</ele><time>2026-04-25T05:08:07.989Z</time></trkpt><trkpt lat="45.84679114829771" lon="12.08164559489342"><ele>124.8</ele><time>2026-04-25T05:08:09.989Z</time></trkpt><trkpt lat="45.84686634215373" lon="12.081513531649613"><ele>125.0</ele><time>2026-04-25T05:08:11.989Z</time></trkpt><trkpt lat="45.8469766378468" lon="12.08143949645192"><ele>125.2</ele><time>2026-04-25T05:08:13.989Z</time></trkpt><trkpt lat="45.84709177657856" lon="12.081416591090061"><ele>125.4</ele><time>2026-04-25T05:08:15.989Z</time></trkpt><trkpt lat="45.84720441124189" lon="12.081344661109382"><ele>125.6</ele><time>2026-04-25T05:08:17.989Z</time></trkpt><trkpt lat="45.84724825002561" lon="12.081277770259481"><ele>125.8</ele><time>2026-04-25T05:08:18.989Z</time></trkpt><trkpt lat="45.84732860567358" lon="12.081198258159421"><ele>126.0</ele><time>2026-04-25T05:08:20.989Z</time></trkpt><trkpt lat="45.847378209055194" lon="12.081131634371724"><ele>126.0</ele><time>2026-04-25T05:08:21.989Z</time></trkpt><trkpt lat="45.847430282648624" lon="12.081071459396526"><ele>126.0</ele><time>2026-04-25T05:08:22.989Z</time></trkpt><trkpt lat="45.84748232844971" lon="12.081004602805681"><ele>126.0</ele><time>2026-04-25T05:08:23.989Z</time></trkpt><trkpt lat="45.84753681586349" lon="12.080940395587024"><ele>126.0</ele><time>2026-04-25T05:08:24.989Z</time></trkpt><trkpt lat="45.847578093811684" lon="12.08086763009877"><ele>126.0</ele><time>2026-04-25T05:08:25.989Z</time></trkpt><trkpt lat="45.847635610094684" lon="12.080714666432952"><ele>126.0</ele><time>2026-04-25T05:08:27.989Z</time></trkpt><trkpt lat="45.84760042466591" lon="12.08054874012899"><ele>125.5</ele><time>2026-04-25T05:08:29.989Z</time></trkpt><trkpt lat="45.847516132096565" lon="12.080420010582133"><ele>125.0</ele><time>2026-04-25T05:08:31.989Z</time></trkpt><trkpt lat="45.84748017067808" lon="12.080342491829025"><ele>124.5</ele><time>2026-04-25T05:08:32.989Z</time></trkpt><trkpt lat="45.847467471923295" lon="12.080249406259265"><ele>124.0</ele><time>2026-04-25T05:08:33.989Z</time></trkpt><trkpt lat="45.84746921745888" lon="12.080146069276255"><ele>123.5</ele><time>2026-04-25T05:08:34.989Z</time></trkpt><trkpt lat="45.84748925853725" lon="12.080040032218232"><ele>123.0</ele><time>2026-04-25T05:08:35.989Z</time></trkpt><trkpt lat="45.84752476643745" lon="12.079940249340765"><ele>123.0</ele><time>2026-04-25T05:08:36.989Z</time></trkpt><trkpt lat="45.847570713693266" lon="12.079850165026071"><ele>123.0</ele><time>2026-04-25T05:08:37.989Z</time></trkpt><trkpt lat="45.847623488885674" lon="12.07976874622219"><ele>123.0</ele><time>2026-04-25T05:08:38.989Z</time></trkpt><trkpt lat="45.847679024192814" lon="12.079684032233873"><ele>123.0</ele><time>2026-04-25T05:08:39.989Z</time></trkpt><trkpt lat="45.84773211940107" lon="12.0795964267842"><ele>123.0</ele><time>2026-04-25T05:08:40.989Z</time></trkpt><trkpt lat="45.847779002856086" lon="12.079507669390035"><ele>123.0</ele><time>2026-04-25T05:08:41.989Z</time></trkpt><trkpt lat="45.84782273815698" lon="12.079417649240392"><ele>123.14285714285717</ele><time>2026-04-25T05:08:42.989Z</time></trkpt><trkpt lat="45.84786429859317" lon="12.079325521084195"><ele>123.28571428571429</ele><time>2026-04-25T05:08:43.989Z</time></trkpt><trkpt lat="45.84790624447702" lon="12.079238200200727"><ele>123.42857142857144</ele><time>2026-04-25T05:08:44.989Z</time></trkpt><trkpt lat="45.847950132410844" lon="12.079158119535526"><ele>123.57142857142858</ele><time>2026-04-25T05:08:45.989Z</time></trkpt><trkpt lat="45.847996946631916" lon="12.079078208018153"><ele>123.71428571428572</ele><time>2026-04-25T05:08:46.989Z</time></trkpt><trkpt lat="45.84804817092552" lon="12.079007672630095"><ele>123.85714285714286</ele><time>2026-04-25T05:08:47.989Z</time></trkpt><trkpt lat="45.848104593423045" lon="12.078935955926713"><ele>124.0</ele><time>2026-04-25T05:08:48.989Z</time></trkpt><trkpt lat="45.84815068083946" lon="12.078853154385223"><ele>124.00000000000001</ele><time>2026-04-25T05:08:49.989Z</time></trkpt><trkpt lat="45.84818158859796" lon="12.078753145677563"><ele>124.0</ele><time>2026-04-25T05:08:50.989Z</time></trkpt><trkpt lat="45.848228595262555" lon="12.07867399909513"><ele>124.0</ele><time>2026-04-25T05:08:51.989Z</time></trkpt><trkpt lat="45.84828980625358" lon="12.078617524556693"><ele>124.0</ele><time>2026-04-25T05:08:52.989Z</time></trkpt><trkpt lat="45.84835108411041" lon="12.078552019635762"><ele>124.00000000000001</ele><time>2026-04-25T05:08:53.989Z</time></trkpt><trkpt lat="45.84841680662234" lon="12.0784856377385"><ele>124.0</ele><time>2026-04-25T05:08:54.989Z</time></trkpt><trkpt lat="45.84847329630572" lon="12.078409488704947"><ele>124.0</ele><time>2026-04-25T05:08:55.988Z</time></trkpt><trkpt lat="45.84851653958196" lon="12.078324916645592"><ele>124.00000000000001</ele><time>2026-04-25T05:08:56.988Z</time></trkpt><trkpt lat="45.848547649471804" lon="12.07823044036139"><ele>124.0</ele><time>2026-04-25T05:08:57.988Z</time></trkpt><trkpt lat="45.84856087914778" lon="12.07813229075717"><ele>124.0</ele><time>2026-04-25T05:08:58.988Z</time></trkpt><trkpt lat="45.848553975130784" lon="12.078029627763893"><ele>124.00000000000001</ele><time>2026-04-25T05:08:59.988Z</time></trkpt><trkpt lat="45.84853010435822" lon="12.077939961138854"><ele>124.0</ele><time>2026-04-25T05:09:00.988Z</time></trkpt><trkpt lat="45.84849485729721" lon="12.07785524860668"><ele>124.0</ele><time>2026-04-25T05:09:01.988Z</time></trkpt><trkpt lat="45.848463508034285" lon="12.077764055914173"><ele>124.14285714285715</ele><time>2026-04-25T05:09:02.988Z</time></trkpt><trkpt lat="45.84846392984832" lon="12.077669633260584"><ele>124.2857142857143</ele><time>2026-04-25T05:09:03.988Z</time></trkpt><trkpt lat="45.84849263122423" lon="12.0775765557862"><ele>124.42857142857143</ele><time>2026-04-25T05:09:04.988Z</time></trkpt><trkpt lat="45.84852786679022" lon="12.077480651558414"><ele>124.57142857142858</ele><time>2026-04-25T05:09:05.988Z</time></trkpt><trkpt lat="45.84856181027478" lon="12.077379910380138"><ele>124.71428571428572</ele><time>2026-04-25T05:09:06.988Z</time></trkpt><trkpt lat="45.84859096964415" lon="12.077280222060875"><ele>124.85714285714286</ele><time>2026-04-25T05:09:07.988Z</time></trkpt><trkpt lat="45.84862610372109" lon="12.077193258190773"><ele>125.0</ele><time>2026-04-25T05:09:08.988Z</time></trkpt><trkpt lat="45.84866227641751" lon="12.077108178559232"><ele>125.14285714285714</ele><time>2026-04-25T05:09:09.988Z</time></trkpt><trkpt lat="45.8486998885749" lon="12.077016617485718"><ele>125.28571428571429</ele><time>2026-04-25T05:09:10.988Z</time></trkpt><trkpt lat="45.84872486501299" lon="12.076923538915219"><ele>125.42857142857143</ele><time>2026-04-25T05:09:11.988Z</time></trkpt><trkpt lat="45.848744873881934" lon="12.076821390572713"><ele>125.57142857142857</ele><time>2026-04-25T05:09:12.988Z</time></trkpt><trkpt lat="45.84874905056611" lon="12.076722888160269"><ele>125.71428571428572</ele><time>2026-04-25T05:09:13.988Z</time></trkpt><trkpt lat="45.84874199476628" lon="12.076625025647616"><ele>125.85714285714286</ele><time>2026-04-25T05:09:14.988Z</time></trkpt><trkpt lat="45.84872504606529" lon="12.076530213836268"><ele>126.0</ele><time>2026-04-25T05:09:15.988Z</time></trkpt><trkpt lat="45.8486952162542" lon="12.076442266173357"><ele>126.0</ele><time>2026-04-25T05:09:16.988Z</time></trkpt><trkpt lat="45.84865934547173" lon="12.076355774246013"><ele>126.0</ele><time>2026-04-25T05:09:17.988Z</time></trkpt><trkpt lat="45.848623824690875" lon="12.076276954926543"><ele>126.0</ele><time>2026-04-25T05:09:18.988Z</time></trkpt><trkpt lat="45.84858731890332" lon="12.076199684887106"><ele>126.0</ele><time>2026-04-25T05:09:19.988Z</time></trkpt><trkpt lat="45.848538573741855" lon="12.076125815652528"><ele>126.0</ele><time>2026-04-25T05:09:20.988Z</time></trkpt><trkpt lat="45.848490049560915" lon="12.076055005132966"><ele>126.0</ele><time>2026-04-25T05:09:21.988Z</time></trkpt><trkpt lat="45.84845092608714" lon="12.075975311367532"><ele>126.0</ele><time>2026-04-25T05:09:22.988Z</time></trkpt><trkpt lat="45.84841828708467" lon="12.075895952895394"><ele>126.19999999999999</ele><time>2026-04-25T05:09:23.988Z</time></trkpt><trkpt lat="45.84839176724796" lon="12.075710909455108"><ele>126.39999999999999</ele><time>2026-04-25T05:09:25.988Z</time></trkpt><trkpt lat="45.84842894567667" lon="12.075588435000713"><ele>126.6</ele><time>2026-04-25T05:09:26.988Z</time></trkpt><trkpt lat="45.84847552097728" lon="12.07550086714595"><ele>126.8</ele><time>2026-04-25T05:09:27.988Z</time></trkpt><trkpt lat="45.84852727073934" lon="12.075412519459004"><ele>127.0</ele><time>2026-04-25T05:09:28.988Z</time></trkpt><trkpt lat="45.84857228344165" lon="12.075324951120665"><ele>127.0</ele><time>2026-04-25T05:09:29.988Z</time></trkpt><trkpt lat="45.84860941712646" lon="12.075233094606219"><ele>127.0</ele><time>2026-04-25T05:09:30.988Z</time></trkpt><trkpt lat="45.84864654191373" lon="12.0751361953866"><ele>127.0</ele><time>2026-04-25T05:09:31.988Z</time></trkpt><trkpt lat="45.84867769134627" lon="12.07503795723219"><ele>127.0</ele><time>2026-04-25T05:09:32.988Z</time></trkpt><trkpt lat="45.84870526199167" lon="12.074943643193198"><ele>127.0</ele><time>2026-04-25T05:09:33.988Z</time></trkpt><trkpt lat="45.84874214773052" lon="12.07484903079771"><ele>127.0</ele><time>2026-04-25T05:09:34.988Z</time></trkpt><trkpt lat="45.84878008829497" lon="12.074760882358724"><ele>127.0</ele><time>2026-04-25T05:09:35.988Z</time></trkpt><trkpt lat="45.848867125334465" lon="12.074663388587775"><ele>127.00000000000001</ele><time>2026-04-25T05:09:37.988Z</time></trkpt><trkpt lat="45.8489664425693" lon="12.074643204101138"><ele>127.0</ele><time>2026-04-25T05:09:39.988Z</time></trkpt><trkpt lat="45.84907739839938" lon="12.074711872683094"><ele>127.0</ele><time>2026-04-25T05:09:41.988Z</time></trkpt><trkpt lat="45.84913690088316" lon="12.074765354253882"><ele>127.0</ele><time>2026-04-25T05:09:42.988Z</time></trkpt><trkpt lat="45.84919800028577" lon="12.074810263568304"><ele>127.00000000000001</ele><time>2026-04-25T05:09:43.988Z</time></trkpt><trkpt lat="45.84926935546" lon="12.074841755651617"><ele>127.0</ele><time>2026-04-25T05:09:44.988Z</time></trkpt><trkpt lat="45.84933385182356" lon="12.074859369639736"><ele>127.00000000000001</ele><time>2026-04-25T05:09:45.988Z</time></trkpt><trkpt lat="45.84941712968768" lon="12.074886401477167"><ele>127.0</ele><time>2026-04-25T05:09:46.988Z</time></trkpt><trkpt lat="45.84948866005806" lon="12.074904430596645"><ele>127.0</ele><time>2026-04-25T05:09:47.988Z</time></trkpt><trkpt lat="45.84960558952301" lon="12.074858496708503"><ele>127.0</ele><time>2026-04-25T05:09:49.988Z</time></trkpt><trkpt lat="45.84965125364328" lon="12.074784560431004"><ele>127.00000000000001</ele><time>2026-04-25T05:09:50.988Z</time></trkpt><trkpt lat="45.849704193282456" lon="12.07469054825059"><ele>127.0</ele><time>2026-04-25T05:09:51.988Z</time></trkpt><trkpt lat="45.84973544713544" lon="12.0745936457977"><ele>127.00000000000001</ele><time>2026-04-25T05:09:52.988Z</time></trkpt><trkpt lat="45.84975422750392" lon="12.074494080764001"><ele>127.0</ele><time>2026-04-25T05:09:53.988Z</time></trkpt><trkpt lat="45.84976781960371" lon="12.074395228375131"><ele>127.0</ele><time>2026-04-25T05:09:54.988Z</time></trkpt><trkpt lat="45.84978148692732" lon="12.074301483035569"><ele>127.0</ele><time>2026-04-25T05:09:55.988Z</time></trkpt><trkpt lat="45.84979848557482" lon="12.074201211829338"><ele>127.00000000000001</ele><time>2026-04-25T05:09:56.989Z</time></trkpt><trkpt lat="45.84980998803581" lon="12.074100699572483"><ele>127.0</ele><time>2026-04-25T05:09:57.989Z</time></trkpt><trkpt lat="45.849855897446986" lon="12.07393609053431"><ele>127.0</ele><time>2026-04-25T05:09:59.989Z</time></trkpt><trkpt lat="45.84989078533152" lon="12.073853833480285"><ele>127.0</ele><time>2026-04-25T05:10:00.989Z</time></trkpt><trkpt lat="45.84994057753855" lon="12.073793699569933"><ele>127.0</ele><time>2026-04-25T05:10:01.989Z</time></trkpt><trkpt lat="45.84998527462713" lon="12.073722314263165"><ele>127.0</ele><time>2026-04-25T05:10:02.989Z</time></trkpt><trkpt lat="45.850027558265744" lon="12.073646845889455"><ele>127.0</ele><time>2026-04-25T05:10:03.989Z</time></trkpt><trkpt lat="45.85006936728714" lon="12.073564834565328"><ele>127.0</ele><time>2026-04-25T05:10:04.989Z</time></trkpt><trkpt lat="45.85011667931671" lon="12.073496161562552"><ele>127.0</ele><time>2026-04-25T05:10:05.99Z</time></trkpt><trkpt lat="45.85017462031739" lon="12.073435700290858"><ele>127.0</ele><time>2026-04-25T05:10:06.989Z</time></trkpt><trkpt lat="45.85022813986874" lon="12.073382174236835"><ele>127.0</ele><time>2026-04-25T05:10:07.989Z</time></trkpt><trkpt lat="45.850286776161866" lon="12.0733303699457"><ele>127.0</ele><time>2026-04-25T05:10:08.989Z</time></trkpt><trkpt lat="45.85034570878294" lon="12.073281573518997"><ele>127.0</ele><time>2026-04-25T05:10:09.989Z</time></trkpt><trkpt lat="45.850407390256336" lon="12.073243335548069"><ele>127.0</ele><time>2026-04-25T05:10:10.989Z</time></trkpt><trkpt lat="45.85046799812916" lon="12.073202256825885"><ele>127.0</ele><time>2026-04-25T05:10:11.989Z</time></trkpt><trkpt lat="45.85052917432792" lon="12.073154448522674"><ele>127.0</ele><time>2026-04-25T05:10:12.989Z</time></trkpt><trkpt lat="45.85059452906678" lon="12.073091172842213"><ele>127.14285714285714</ele><time>2026-04-25T05:10:13.989Z</time></trkpt><trkpt lat="45.85065091965327" lon="12.073034658209604"><ele>127.28571428571428</ele><time>2026-04-25T05:10:14.989Z</time></trkpt><trkpt lat="45.85069970094836" lon="12.07297009782479"><ele>127.42857142857142</ele><time>2026-04-25T05:10:15.989Z</time></trkpt><trkpt lat="45.85074651586088" lon="12.072906197508047"><ele>127.57142857142857</ele><time>2026-04-25T05:10:16.989Z</time></trkpt><trkpt lat="45.850790751855456" lon="12.072831231176526"><ele>127.7142857142857</ele><time>2026-04-25T05:10:17.989Z</time></trkpt><trkpt lat="45.85082636634056" lon="12.072756652778724"><ele>127.85714285714285</ele><time>2026-04-25T05:10:18.989Z</time></trkpt><trkpt lat="45.85085708940268" lon="12.07267168238661"><ele>128.0</ele><time>2026-04-25T05:10:19.989Z</time></trkpt><trkpt lat="45.850898925647535" lon="12.072597452316886"><ele>128.0</ele><time>2026-04-25T05:10:20.989Z</time></trkpt><trkpt lat="45.850941613381345" lon="12.07250498193461"><ele>127.99999999999999</ele><time>2026-04-25T05:10:21.989Z</time></trkpt><trkpt lat="45.850979556025045" lon="12.072418979599696"><ele>128.0</ele><time>2026-04-25T05:10:22.989Z</time></trkpt><trkpt lat="45.851017240261335" lon="12.072328718342616"><ele>128.0</ele><time>2026-04-25T05:10:23.989Z</time></trkpt><trkpt lat="45.85105389268513" lon="12.072250668491892"><ele>127.99999999999999</ele><time>2026-04-25T05:10:24.989Z</time></trkpt><trkpt lat="45.85109975735492" lon="12.072168127130151"><ele>128.0</ele><time>2026-04-25T05:10:25.989Z</time></trkpt><trkpt lat="45.85113825342486" lon="12.072089485450325"><ele>128.0</ele><time>2026-04-25T05:10:26.989Z</time></trkpt><trkpt lat="45.85117571455255" lon="12.071999795452836"><ele>128.0</ele><time>2026-04-25T05:10:27.989Z</time></trkpt><trkpt lat="45.851207495632124" lon="12.071913074260038"><ele>127.99999999999999</ele><time>2026-04-25T05:10:28.989Z</time></trkpt><trkpt lat="45.85124160396663" lon="12.071827832563926"><ele>128.0</ele><time>2026-04-25T05:10:29.989Z</time></trkpt><trkpt lat="45.8512824679854" lon="12.071740480744516"><ele>128.0</ele><time>2026-04-25T05:10:30.989Z</time></trkpt><trkpt lat="45.85132834857947" lon="12.071654186758852"><ele>127.99999999999999</ele><time>2026-04-25T05:10:31.989Z</time></trkpt><trkpt lat="45.85137609461801" lon="12.07159087231275"><ele>128.0</ele><time>2026-04-25T05:10:32.989Z</time></trkpt><trkpt lat="45.8514347847104" lon="12.071545613105435"><ele>128.0</ele><time>2026-04-25T05:10:33.989Z</time></trkpt><trkpt lat="45.851500482873654" lon="12.071513102297542"><ele>128.0</ele><time>2026-04-25T05:10:34.989Z</time></trkpt><trkpt lat="45.85162869597572" lon="12.071467839346223"><ele>128.0</ele><time>2026-04-25T05:10:36.989Z</time></trkpt><trkpt lat="45.85169711712121" lon="12.071432151116152"><ele>128.0</ele><time>2026-04-25T05:10:37.989Z</time></trkpt><trkpt lat="45.85176988757545" lon="12.071412983950925"><ele>128.0</ele><time>2026-04-25T05:10:38.989Z</time></trkpt><trkpt lat="45.85183276241751" lon="12.071403140437218"><ele>128.0</ele><time>2026-04-25T05:10:39.989Z</time></trkpt><trkpt lat="45.8519526892119" lon="12.071421506092099"><ele>128.0</ele><time>2026-04-25T05:10:41.989Z</time></trkpt><trkpt lat="45.85203201374061" lon="12.071459674213743"><ele>128.0</ele><time>2026-04-25T05:10:42.989Z</time></trkpt><trkpt lat="45.85214250719256" lon="12.071432722579987"><ele>128.0</ele><time>2026-04-25T05:10:44.989Z</time></trkpt><trkpt lat="45.852195376353436" lon="12.071312443499895"><ele>128.0</ele><time>2026-04-25T05:10:46.989Z</time></trkpt><trkpt lat="45.852207002606825" lon="12.071137317185578"><ele>128.0</ele><time>2026-04-25T05:10:48.989Z</time></trkpt><trkpt lat="45.85218664065758" lon="12.071048937486728"><ele>127.99999999999999</ele><time>2026-04-25T05:10:49.989Z</time></trkpt><trkpt lat="45.8521802079445" lon="12.070889346923272"><ele>128.0</ele><time>2026-04-25T05:10:51.989Z</time></trkpt><trkpt lat="45.852195714594465" lon="12.070796263798373"><ele>128.0</ele><time>2026-04-25T05:10:52.989Z</time></trkpt><trkpt lat="45.85221345870551" lon="12.07070766733756"><ele>128.0</ele><time>2026-04-25T05:10:53.989Z</time></trkpt><trkpt lat="45.85224587131104" lon="12.07061941222446"><ele>127.99999999999999</ele><time>2026-04-25T05:10:54.989Z</time></trkpt><trkpt lat="45.852285765275745" lon="12.070527790210724"><ele>128.0</ele><time>2026-04-25T05:10:55.989Z</time></trkpt><trkpt lat="45.85232557066735" lon="12.070457308085915"><ele>127.83333333333333</ele><time>2026-04-25T05:10:56.989Z</time></trkpt><trkpt lat="45.852379511465294" lon="12.07039668349318"><ele>127.66666666666666</ele><time>2026-04-25T05:10:57.989Z</time></trkpt><trkpt lat="45.85244891404417" lon="12.070253441264772"><ele>127.5</ele><time>2026-04-25T05:10:59.989Z</time></trkpt><trkpt lat="45.85247499914484" lon="12.070163854439423"><ele>127.33333333333334</ele><time>2026-04-25T05:11:00.988Z</time></trkpt><trkpt lat="45.85249934948867" lon="12.070055574311306"><ele>127.16666666666667</ele><time>2026-04-25T05:11:01.988Z</time></trkpt><trkpt lat="45.8525245376927" lon="12.069954833689984"><ele>127.0</ele><time>2026-04-25T05:11:02.988Z</time></trkpt><trkpt lat="45.85253893096208" lon="12.069857201088638"><ele>127.33333333333334</ele><time>2026-04-25T05:11:03.988Z</time></trkpt><trkpt lat="45.8525528718861" lon="12.069766403373666"><ele>127.66666666666667</ele><time>2026-04-25T05:11:04.988Z</time></trkpt><trkpt lat="45.85257301739925" lon="12.06959490742237"><ele>128.0</ele><time>2026-04-25T05:11:06.988Z</time></trkpt><trkpt lat="45.85258140018545" lon="12.06948802864472"><ele>128.33333333333334</ele><time>2026-04-25T05:11:07.988Z</time></trkpt><trkpt lat="45.85258589689148" lon="12.069397254197728"><ele>128.66666666666666</ele><time>2026-04-25T05:11:08.988Z</time></trkpt><trkpt lat="45.852598193150754" lon="12.069300349487229"><ele>129.0</ele><time>2026-04-25T05:11:09.988Z</time></trkpt><trkpt lat="45.85260694139499" lon="12.069193706966162"><ele>129.0</ele><time>2026-04-25T05:11:10.988Z</time></trkpt><trkpt lat="45.852618802542224" lon="12.069085236267252"><ele>129.0</ele><time>2026-04-25T05:11:11.988Z</time></trkpt><trkpt lat="45.852637220914104" lon="12.068976219279108"><ele>129.0</ele><time>2026-04-25T05:11:12.988Z</time></trkpt><trkpt lat="45.85265085983967" lon="12.068876270344907"><ele>129.0</ele><time>2026-04-25T05:11:13.988Z</time></trkpt><trkpt lat="45.85266249877051" lon="12.068717764908007"><ele>129.0</ele><time>2026-04-25T05:11:15.988Z</time></trkpt><trkpt lat="45.852665207611324" lon="12.068626134361654"><ele>129.0</ele><time>2026-04-25T05:11:16.988Z</time></trkpt><trkpt lat="45.852673787755855" lon="12.068532220204897"><ele>129.0</ele><time>2026-04-25T05:11:17.988Z</time></trkpt><trkpt lat="45.852703782161775" lon="12.06834598936125"><ele>129.0</ele><time>2026-04-25T05:11:19.988Z</time></trkpt><trkpt lat="45.85271112829585" lon="12.068251631563276"><ele>129.0</ele><time>2026-04-25T05:11:20.988Z</time></trkpt><trkpt lat="45.852731538809145" lon="12.068146892851306"><ele>129.0</ele><time>2026-04-25T05:11:21.988Z</time></trkpt><trkpt lat="45.852754883443524" lon="12.068046727850255"><ele>129.0</ele><time>2026-04-25T05:11:22.988Z</time></trkpt><trkpt lat="45.85277371055314" lon="12.067923745259046"><ele>129.0</ele><time>2026-04-25T05:11:23.988Z</time></trkpt><trkpt lat="45.85277854219931" lon="12.067813022316138"><ele>129.0</ele><time>2026-04-25T05:11:24.988Z</time></trkpt><trkpt lat="45.852796629702254" lon="12.06770720782248"><ele>129.0</ele><time>2026-04-25T05:11:25.988Z</time></trkpt><trkpt lat="45.85281352902156" lon="12.067598047748081"><ele>129.0</ele><time>2026-04-25T05:11:26.988Z</time></trkpt><trkpt lat="45.85282806798125" lon="12.067487501627218"><ele>129.0</ele><time>2026-04-25T05:11:27.988Z</time></trkpt><trkpt lat="45.8528391254559" lon="12.06737962193726"><ele>129.0</ele><time>2026-04-25T05:11:28.988Z</time></trkpt><trkpt lat="45.85284261855601" lon="12.067273303789557"><ele>129.0</ele><time>2026-04-25T05:11:29.988Z</time></trkpt><trkpt lat="45.85285258869983" lon="12.067166045459281"><ele>128.99999999999997</ele><time>2026-04-25T05:11:30.988Z</time></trkpt><trkpt lat="45.85285461074545" lon="12.067063656785708"><ele>129.0</ele><time>2026-04-25T05:11:31.988Z</time></trkpt><trkpt lat="45.85287075295233" lon="12.066961013745814"><ele>129.0</ele><time>2026-04-25T05:11:32.988Z</time></trkpt><trkpt lat="45.85288698908468" lon="12.066857914487658"><ele>129.0</ele><time>2026-04-25T05:11:33.988Z</time></trkpt><trkpt lat="45.85289764645994" lon="12.066749168459097"><ele>129.0</ele><time>2026-04-25T05:11:34.988Z</time></trkpt><trkpt lat="45.85291787410532" lon="12.066648251002611"><ele>128.99999999999997</ele><time>2026-04-25T05:11:35.988Z</time></trkpt><trkpt lat="45.85293344140354" lon="12.066540684962488"><ele>129.0</ele><time>2026-04-25T05:11:36.988Z</time></trkpt><trkpt lat="45.852947583416565" lon="12.066436220791413"><ele>129.28571428571428</ele><time>2026-04-25T05:11:37.988Z</time></trkpt><trkpt lat="45.85295680167107" lon="12.066330975602938"><ele>129.57142857142856</ele><time>2026-04-25T05:11:38.988Z</time></trkpt><trkpt lat="45.852968319693126" lon="12.066232271929588"><ele>129.85714285714286</ele><time>2026-04-25T05:11:39.988Z</time></trkpt><trkpt lat="45.8529818866933" lon="12.066135653557032"><ele>130.14285714285714</ele><time>2026-04-25T05:11:40.988Z</time></trkpt><trkpt lat="45.85299376233903" lon="12.066040803691122"><ele>130.42857142857144</ele><time>2026-04-25T05:11:41.988Z</time></trkpt><trkpt lat="45.853005230114086" lon="12.06594805760257"><ele>130.71428571428572</ele><time>2026-04-25T05:11:42.988Z</time></trkpt><trkpt lat="45.853014238168846" lon="12.06585669615311"><ele>131.0</ele><time>2026-04-25T05:11:43.988Z</time></trkpt><trkpt lat="45.85308079642647" lon="12.065714815749333"><ele>131.2</ele><time>2026-04-25T05:11:45.988Z</time></trkpt><trkpt lat="45.85317844138356" lon="12.065685386886178"><ele>131.39999999999998</ele><time>2026-04-25T05:11:47.988Z</time></trkpt><trkpt lat="45.85325541364319" lon="12.065713913188802"><ele>131.6</ele><time>2026-04-25T05:11:49.988Z</time></trkpt><trkpt lat="45.853370940642094" lon="12.065724235772318"><ele>131.79999999999998</ele><time>2026-04-25T05:11:51.988Z</time></trkpt><trkpt lat="45.8534494790576" lon="12.065745730894392"><ele>132.0</ele><time>2026-04-25T05:11:52.988Z</time></trkpt><trkpt lat="45.85353039461383" lon="12.065758861867904"><ele>131.66666666666666</ele><time>2026-04-25T05:11:53.988Z</time></trkpt><trkpt lat="45.85359975518257" lon="12.065760914520412"><ele>131.33333333333334</ele><time>2026-04-25T05:11:54.988Z</time></trkpt><trkpt lat="45.853671440423284" lon="12.065767843210491"><ele>131.0</ele><time>2026-04-25T05:11:55.988Z</time></trkpt><trkpt lat="45.85374318215486" lon="12.065765934790123"><ele>130.66666666666669</ele><time>2026-04-25T05:11:56.988Z</time></trkpt><trkpt lat="45.85381069790011" lon="12.065774362060406"><ele>130.33333333333334</ele><time>2026-04-25T05:11:57.988Z</time></trkpt><trkpt lat="45.85387705830049" lon="12.065793052183727"><ele>130.0</ele><time>2026-04-25T05:11:58.988Z</time></trkpt><trkpt lat="45.85400160904543" lon="12.065815408329717"><ele>130.0</ele><time>2026-04-25T05:12:00.988Z</time></trkpt><trkpt lat="45.85408053836511" lon="12.065816775092234"><ele>130.0</ele><time>2026-04-25T05:12:01.988Z</time></trkpt><trkpt lat="45.85421874643177" lon="12.06580446370759"><ele>130.0</ele><time>2026-04-25T05:12:03.989Z</time></trkpt><trkpt lat="45.85428719809362" lon="12.065791922952691"><ele>130.0</ele><time>2026-04-25T05:12:04.989Z</time></trkpt><trkpt lat="45.85435920988848" lon="12.06578613901558"><ele>130.0</ele><time>2026-04-25T05:12:05.989Z</time></trkpt><trkpt lat="45.854432679878535" lon="12.065783763407238"><ele>130.0</ele><time>2026-04-25T05:12:06.989Z</time></trkpt><trkpt lat="45.85450724952181" lon="12.065779320229218"><ele>130.14285714285717</ele><time>2026-04-25T05:12:07.989Z</time></trkpt><trkpt lat="45.854577114035905" lon="12.065765467771495"><ele>130.28571428571428</ele><time>2026-04-25T05:12:08.989Z</time></trkpt><trkpt lat="45.85464386005859" lon="12.065763062768667"><ele>130.42857142857144</ele><time>2026-04-25T05:12:09.989Z</time></trkpt><trkpt lat="45.854716749977236" lon="12.065759780488264"><ele>130.57142857142858</ele><time>2026-04-25T05:12:10.989Z</time></trkpt><trkpt lat="45.85478434980781" lon="12.065765140658755"><ele>130.71428571428572</ele><time>2026-04-25T05:12:11.989Z</time></trkpt><trkpt lat="45.854847859341305" lon="12.065771861703523"><ele>130.85714285714286</ele><time>2026-04-25T05:12:12.989Z</time></trkpt><trkpt lat="45.85492268974883" lon="12.065763141334559"><ele>131.0</ele><time>2026-04-25T05:12:13.989Z</time></trkpt><trkpt lat="45.854991888107214" lon="12.065755868879268"><ele>131.0</ele><time>2026-04-25T05:12:14.989Z</time></trkpt><trkpt lat="45.85511579771384" lon="12.065731248298503"><ele>131.0</ele><time>2026-04-25T05:12:16.989Z</time></trkpt><trkpt lat="45.855202854440506" lon="12.0656786689085"><ele>131.0</ele><time>2026-04-25T05:12:18.989Z</time></trkpt><trkpt lat="45.85523070093352" lon="12.065560656518224"><ele>131.0</ele><time>2026-04-25T05:12:20.989Z</time></trkpt><trkpt lat="45.855212368954994" lon="12.065394724944921"><ele>131.0</ele><time>2026-04-25T05:12:22.989Z</time></trkpt><trkpt lat="45.855206839817825" lon="12.065218371921942"><ele>131.66666666666666</ele><time>2026-04-25T05:12:24.989Z</time></trkpt><trkpt lat="45.855204491076776" lon="12.065125342814017"><ele>132.33333333333331</ele><time>2026-04-25T05:12:25.989Z</time></trkpt><trkpt lat="45.85519904916405" lon="12.065025844798841"><ele>133.0</ele><time>2026-04-25T05:12:26.989Z</time></trkpt><trkpt lat="45.85520415652191" lon="12.064914278054928"><ele>133.66666666666666</ele><time>2026-04-25T05:12:27.989Z</time></trkpt><trkpt lat="45.85520615497663" lon="12.06481063986366"><ele>134.33333333333334</ele><time>2026-04-25T05:12:28.989Z</time></trkpt><trkpt lat="45.85519678531495" lon="12.064631349035785"><ele>135.0</ele><time>2026-04-25T05:12:30.989Z</time></trkpt><trkpt lat="45.855195286903864" lon="12.064538714684053"><ele>135.0</ele><time>2026-04-25T05:12:31.989Z</time></trkpt><trkpt lat="45.855199714020515" lon="12.06443106839515"><ele>135.0</ele><time>2026-04-25T05:12:32.989Z</time></trkpt><trkpt lat="45.85519804576279" lon="12.06434048153165"><ele>135.0</ele><time>2026-04-25T05:12:33.989Z</time></trkpt><trkpt lat="45.8551920703311" lon="12.064243701030058"><ele>135.0</ele><time>2026-04-25T05:12:34.989Z</time></trkpt><trkpt lat="45.855190265533224" lon="12.064150768232967"><ele>135.0</ele><time>2026-04-25T05:12:35.989Z</time></trkpt><trkpt lat="45.855183934527965" lon="12.064056012765414"><ele>135.0</ele><time>2026-04-25T05:12:36.989Z</time></trkpt><trkpt lat="45.85516328351435" lon="12.063888030684865"><ele>134.83333333333334</ele><time>2026-04-25T05:12:38.989Z</time></trkpt><trkpt lat="45.85515229540633" lon="12.06379433773183"><ele>134.66666666666666</ele><time>2026-04-25T05:12:39.989Z</time></trkpt><trkpt lat="45.85512789424121" lon="12.063646957077847"><ele>134.5</ele><time>2026-04-25T05:12:41.989Z</time></trkpt><trkpt lat="45.85510694333923" lon="12.063477053003918"><ele>134.33333333333331</ele><time>2026-04-25T05:12:43.989Z</time></trkpt><trkpt lat="45.8550891142071" lon="12.063385848972217"><ele>134.16666666666666</ele><time>2026-04-25T05:12:45.989Z</time></trkpt><trkpt lat="45.855025828758734" lon="12.06333461754717"><ele>134.0</ele><time>2026-04-25T05:12:48.988Z</time></trkpt><trkpt lat="45.854991775067674" lon="12.063244667766858"><ele>134.0</ele><time>2026-04-25T05:12:53.988Z</time></trkpt><trkpt lat="45.855045214767706" lon="12.06317192990703"><ele>134.0</ele><time>2026-04-25T05:12:56.988Z</time></trkpt><trkpt lat="45.855005608061546" lon="12.063090910574125"><ele>134.0</ele><time>2026-04-25T05:13:02.988Z</time></trkpt><trkpt lat="45.854926479633626" lon="12.063089559045736"><ele>134.0</ele><time>2026-04-25T05:13:05.988Z</time></trkpt><trkpt lat="45.854819574363646" lon="12.063065019500208"><ele>134.0</ele><time>2026-04-25T05:13:07.988Z</time></trkpt><trkpt lat="45.85474906813679" lon="12.063029083217428"><ele>134.0</ele><time>2026-04-25T05:13:08.988Z</time></trkpt><trkpt lat="45.85466643935547" lon="12.06296132928853"><ele>134.0</ele><time>2026-04-25T05:13:10.988Z</time></trkpt><trkpt lat="45.85461293733927" lon="12.062885887614106"><ele>134.0</ele><time>2026-04-25T05:13:12.988Z</time></trkpt><trkpt lat="45.85456766921973" lon="12.062811209895592"><ele>134.0</ele><time>2026-04-25T05:13:14.988Z</time></trkpt><trkpt lat="45.85450425266732" lon="12.06271224435415"><ele>134.0</ele><time>2026-04-25T05:13:16.988Z</time></trkpt><trkpt lat="45.8544649554575" lon="12.062540364513357"><ele>134.0</ele><time>2026-04-25T05:13:18.988Z</time></trkpt><trkpt lat="45.85445136323325" lon="12.062441955877407"><ele>134.0</ele><time>2026-04-25T05:13:19.988Z</time></trkpt><trkpt lat="45.85443653748616" lon="12.062341239527646"><ele>134.33333333333331</ele><time>2026-04-25T05:13:20.988Z</time></trkpt><trkpt lat="45.85442881581135" lon="12.06222570598483"><ele>134.66666666666666</ele><time>2026-04-25T05:13:21.988Z</time></trkpt><trkpt lat="45.854418324352295" lon="12.062111540780748"><ele>135.0</ele><time>2026-04-25T05:13:22.988Z</time></trkpt><trkpt lat="45.854401122280514" lon="12.06200299587631"><ele>135.33333333333334</ele><time>2026-04-25T05:13:23.988Z</time></trkpt><trkpt lat="45.85437067518925" lon="12.061912593974892"><ele>135.66666666666669</ele><time>2026-04-25T05:13:24.988Z</time></trkpt><trkpt lat="45.85432285901775" lon="12.061832187619128"><ele>136.0</ele><time>2026-04-25T05:13:25.988Z</time></trkpt><trkpt lat="45.85427257127632" lon="12.061765350364654"><ele>135.0</ele><time>2026-04-25T05:13:26.988Z</time></trkpt><trkpt lat="45.85421833999802" lon="12.061607309833901"><ele>134.0</ele><time>2026-04-25T05:13:28.988Z</time></trkpt><trkpt lat="45.85421294021196" lon="12.061510843943449"><ele>133.0</ele><time>2026-04-25T05:13:29.988Z</time></trkpt><trkpt lat="45.85421468743329" lon="12.061405315309864"><ele>132.0</ele><time>2026-04-25T05:13:30.988Z</time></trkpt><trkpt lat="45.85422490288769" lon="12.061306043680878"><ele>131.0</ele><time>2026-04-25T05:13:31.988Z</time></trkpt><trkpt lat="45.85424898451557" lon="12.061191336906942"><ele>130.0</ele><time>2026-04-25T05:13:32.988Z</time></trkpt><trkpt lat="45.85428117362459" lon="12.061081435289427"><ele>130.66666666666669</ele><time>2026-04-25T05:13:33.988Z</time></trkpt><trkpt lat="45.8543133894453" lon="12.06097320834152"><ele>131.33333333333334</ele><time>2026-04-25T05:13:34.988Z</time></trkpt><trkpt lat="45.85434199084714" lon="12.060870519438556"><ele>132.0</ele><time>2026-04-25T05:13:35.988Z</time></trkpt><trkpt lat="45.8543778043281" lon="12.060772890549092"><ele>132.66666666666666</ele><time>2026-04-25T05:13:36.988Z</time></trkpt><trkpt lat="45.854408049619" lon="12.060678647787771"><ele>133.33333333333331</ele><time>2026-04-25T05:13:37.988Z</time></trkpt><trkpt lat="45.85443443224266" lon="12.060577794113001"><ele>134.0</ele><time>2026-04-25T05:13:38.988Z</time></trkpt><trkpt lat="45.854449279917354" lon="12.060478237416998"><ele>134.16666666666666</ele><time>2026-04-25T05:13:39.988Z</time></trkpt><trkpt lat="45.85446428329635" lon="12.06037275139543"><ele>134.33333333333331</ele><time>2026-04-25T05:13:40.988Z</time></trkpt><trkpt lat="45.854477826609205" lon="12.060271938178857"><ele>134.5</ele><time>2026-04-25T05:13:41.988Z</time></trkpt><trkpt lat="45.8544795069853" lon="12.060168536476837"><ele>134.66666666666666</ele><time>2026-04-25T05:13:42.988Z</time></trkpt><trkpt lat="45.85448081752206" lon="12.060058080535095"><ele>134.83333333333334</ele><time>2026-04-25T05:13:43.988Z</time></trkpt><trkpt lat="45.85450176932907" lon="12.059945895605996"><ele>135.0</ele><time>2026-04-25T05:13:44.988Z</time></trkpt><trkpt lat="45.85452146632252" lon="12.059835976794952"><ele>135.0</ele><time>2026-04-25T05:13:45.988Z</time></trkpt><trkpt lat="45.854547795872804" lon="12.059727435293535"><ele>135.0</ele><time>2026-04-25T05:13:46.988Z</time></trkpt><trkpt lat="45.85456743750279" lon="12.059633297787373"><ele>135.0</ele><time>2026-04-25T05:13:47.988Z</time></trkpt><trkpt lat="45.85459069366111" lon="12.059537201418628"><ele>135.0</ele><time>2026-04-25T05:13:48.988Z</time></trkpt><trkpt lat="45.85462585034932" lon="12.059417739114787"><ele>135.0</ele><time>2026-04-25T05:13:49.988Z</time></trkpt><trkpt lat="45.854655441316154" lon="12.059300896954568"><ele>135.0</ele><time>2026-04-25T05:13:50.988Z</time></trkpt><trkpt lat="45.85467863166404" lon="12.05918403685189"><ele>135.16666666666666</ele><time>2026-04-25T05:13:51.988Z</time></trkpt><trkpt lat="45.85470872505082" lon="12.059071748924055"><ele>135.33333333333334</ele><time>2026-04-25T05:13:52.988Z</time></trkpt><trkpt lat="45.85473880147153" lon="12.058979387204422"><ele>135.5</ele><time>2026-04-25T05:13:53.988Z</time></trkpt><trkpt lat="45.854777181530174" lon="12.058886739638194"><ele>135.66666666666669</ele><time>2026-04-25T05:13:54.988Z</time></trkpt><trkpt lat="45.854812861064836" lon="12.058794378940904"><ele>135.83333333333334</ele><time>2026-04-25T05:13:55.988Z</time></trkpt><trkpt lat="45.85485577446332" lon="12.058693579472617"><ele>136.0</ele><time>2026-04-25T05:13:56.987Z</time></trkpt><trkpt lat="45.85488722480446" lon="12.058602141682027"><ele>136.0</ele><time>2026-04-25T05:13:57.987Z</time></trkpt><trkpt lat="45.8549197798229" lon="12.058511630969456"><ele>136.0</ele><time>2026-04-25T05:13:58.987Z</time></trkpt><trkpt lat="45.85496068820091" lon="12.058404893720118"><ele>136.0</ele><time>2026-04-25T05:13:59.987Z</time></trkpt><trkpt lat="45.85499406093813" lon="12.058293065475592"><ele>136.0</ele><time>2026-04-25T05:14:00.987Z</time></trkpt><trkpt lat="45.855022457106855" lon="12.058184349066881"><ele>136.0</ele><time>2026-04-25T05:14:01.987Z</time></trkpt><trkpt lat="45.855045467566754" lon="12.058075442838907"><ele>136.0</ele><time>2026-04-25T05:14:02.987Z</time></trkpt><trkpt lat="45.8550667159174" lon="12.057965340381934"><ele>136.16666666666669</ele><time>2026-04-25T05:14:03.987Z</time></trkpt><trkpt lat="45.85508054986941" lon="12.05784728417059"><ele>136.33333333333334</ele><time>2026-04-25T05:14:04.987Z</time></trkpt><trkpt lat="45.85509932794649" lon="12.057739676012915"><ele>136.5</ele><time>2026-04-25T05:14:05.987Z</time></trkpt><trkpt lat="45.85512201212376" lon="12.057634638196465"><ele>136.66666666666666</ele><time>2026-04-25T05:14:06.987Z</time></trkpt><trkpt lat="45.85515023505346" lon="12.057532643179659"><ele>136.83333333333331</ele><time>2026-04-25T05:14:07.987Z</time></trkpt><trkpt lat="45.85518396849448" lon="12.057424722706445"><ele>137.0</ele><time>2026-04-25T05:14:08.989Z</time></trkpt><trkpt lat="45.85520917999837" lon="12.05732807179238"><ele>137.16666666666666</ele><time>2026-04-25T05:14:09.988Z</time></trkpt><trkpt lat="45.855234402167866" lon="12.057229660191188"><ele>137.33333333333331</ele><time>2026-04-25T05:14:10.988Z</time></trkpt><trkpt lat="45.8552568336956" lon="12.05713116269037"><ele>137.5</ele><time>2026-04-25T05:14:11.988Z</time></trkpt><trkpt lat="45.85528340727675" lon="12.05703640977938"><ele>137.66666666666666</ele><time>2026-04-25T05:14:12.988Z</time></trkpt><trkpt lat="45.855301410237715" lon="12.056925177514566"><ele>137.83333333333334</ele><time>2026-04-25T05:14:13.988Z</time></trkpt><trkpt lat="45.85532144301725" lon="12.056818856842291"><ele>138.0</ele><time>2026-04-25T05:14:14.989Z</time></trkpt><trkpt lat="45.8553283763126" lon="12.056700336608076"><ele>138.0</ele><time>2026-04-25T05:14:15.989Z</time></trkpt><trkpt lat="45.855321088608584" lon="12.05658164824298"><ele>138.0</ele><time>2026-04-25T05:14:16.989Z</time></trkpt><trkpt lat="45.85531022912786" lon="12.056472356501047"><ele>138.0</ele><time>2026-04-25T05:14:17.989Z</time></trkpt><trkpt lat="45.855291115903704" lon="12.05636246363966"><ele>138.0</ele><time>2026-04-25T05:14:18.988Z</time></trkpt><trkpt lat="45.855277317455446" lon="12.056256685393548"><ele>138.0</ele><time>2026-04-25T05:14:19.988Z</time></trkpt><trkpt lat="45.85525869619453" lon="12.056154315016785"><ele>138.0</ele><time>2026-04-25T05:14:20.988Z</time></trkpt><trkpt lat="45.85524386742962" lon="12.056042195135381"><ele>138.0</ele><time>2026-04-25T05:14:21.989Z</time></trkpt><trkpt lat="45.855239628664656" lon="12.055934897680622"><ele>138.0</ele><time>2026-04-25T05:14:22.989Z</time></trkpt><trkpt lat="45.855239428091195" lon="12.05582007740432"><ele>138.0</ele><time>2026-04-25T05:14:23.989Z</time></trkpt><trkpt lat="45.85524324526915" lon="12.05570832621652"><ele>138.0</ele><time>2026-04-25T05:14:24.989Z</time></trkpt><trkpt lat="45.8552468264001" lon="12.055592889403133"><ele>138.0</ele><time>2026-04-25T05:14:25.989Z</time></trkpt><trkpt lat="45.855248555464044" lon="12.05548790400808"><ele>138.0</ele><time>2026-04-25T05:14:26.989Z</time></trkpt><trkpt lat="45.855249618670456" lon="12.05537661278961"><ele>137.71428571428572</ele><time>2026-04-25T05:14:27.989Z</time></trkpt><trkpt lat="45.85525711759398" lon="12.055268156794881"><ele>137.42857142857144</ele><time>2026-04-25T05:14:28.989Z</time></trkpt><trkpt lat="45.8552677411964" lon="12.055167245133003"><ele>137.14285714285714</ele><time>2026-04-25T05:14:29.989Z</time></trkpt><trkpt lat="45.85527407507555" lon="12.055062044630018"><ele>136.85714285714286</ele><time>2026-04-25T05:14:30.989Z</time></trkpt><trkpt lat="45.85527333058369" lon="12.054956670403312"><ele>136.57142857142856</ele><time>2026-04-25T05:14:31.989Z</time></trkpt><trkpt lat="45.85527331139267" lon="12.054856960434565"><ele>136.28571428571428</ele><time>2026-04-25T05:14:32.989Z</time></trkpt><trkpt lat="45.85527824039076" lon="12.054741942052457"><ele>136.0</ele><time>2026-04-25T05:14:33.989Z</time></trkpt><trkpt lat="45.85528665857678" lon="12.054643140889638"><ele>135.85714285714283</ele><time>2026-04-25T05:14:34.989Z</time></trkpt><trkpt lat="45.85529450382886" lon="12.054544321393019"><ele>135.71428571428572</ele><time>2026-04-25T05:14:35.989Z</time></trkpt><trkpt lat="45.85531311193136" lon="12.054437990874844"><ele>135.57142857142856</ele><time>2026-04-25T05:14:36.989Z</time></trkpt><trkpt lat="45.85532645986171" lon="12.05433235327674"><ele>135.42857142857142</ele><time>2026-04-25T05:14:37.989Z</time></trkpt><trkpt lat="45.855329071782165" lon="12.054228530084039"><ele>135.28571428571428</ele><time>2026-04-25T05:14:38.989Z</time></trkpt><trkpt lat="45.8553317786262" lon="12.054120506918203"><ele>135.14285714285714</ele><time>2026-04-25T05:14:39.989Z</time></trkpt><trkpt lat="45.855330516769634" lon="12.054013650626151"><ele>135.0</ele><time>2026-04-25T05:14:40.989Z</time></trkpt><trkpt lat="45.85532680369545" lon="12.053900427840263"><ele>134.85714285714286</ele><time>2026-04-25T05:14:41.989Z</time></trkpt><trkpt lat="45.855316913760085" lon="12.053801600548294"><ele>134.7142857142857</ele><time>2026-04-25T05:14:42.989Z</time></trkpt><trkpt lat="45.85530581437134" lon="12.053702574569947"><ele>134.57142857142856</ele><time>2026-04-25T05:14:43.989Z</time></trkpt><trkpt lat="45.855292340121" lon="12.05361350063547"><ele>134.42857142857142</ele><time>2026-04-25T05:14:44.989Z</time></trkpt><trkpt lat="45.85527085909944" lon="12.053509472461272"><ele>134.28571428571428</ele><time>2026-04-25T05:14:45.989Z</time></trkpt><trkpt lat="45.855239033748234" lon="12.053416921917574"><ele>134.14285714285714</ele><time>2026-04-25T05:14:46.989Z</time></trkpt><trkpt lat="45.85519952882217" lon="12.053325642155897"><ele>134.0</ele><time>2026-04-25T05:14:47.989Z</time></trkpt><trkpt lat="45.85515973844684" lon="12.053244505971112"><ele>134.0</ele><time>2026-04-25T05:14:48.989Z</time></trkpt><trkpt lat="45.85511850405115" lon="12.053169984967127"><ele>134.0</ele><time>2026-04-25T05:14:49.989Z</time></trkpt><trkpt lat="45.85507803497786" lon="12.05308791691693"><ele>134.0</ele><time>2026-04-25T05:14:50.989Z</time></trkpt><trkpt lat="45.855060191136005" lon="12.05289569364411"><ele>134.0</ele><time>2026-04-25T05:14:52.989Z</time></trkpt><trkpt lat="45.85508205369362" lon="12.052779600059072"><ele>134.0</ele><time>2026-04-25T05:14:53.989Z</time></trkpt><trkpt lat="45.85512094999959" lon="12.0526647302003"><ele>134.0</ele><time>2026-04-25T05:14:54.989Z</time></trkpt><trkpt lat="45.85516860780373" lon="12.052570155324876"><ele>134.0</ele><time>2026-04-25T05:14:55.989Z</time></trkpt><trkpt lat="45.855208858775896" lon="12.052477097566372"><ele>134.0</ele><time>2026-04-25T05:14:56.989Z</time></trkpt><trkpt lat="45.85524164458208" lon="12.052375422258367"><ele>134.0</ele><time>2026-04-25T05:14:57.989Z</time></trkpt><trkpt lat="45.85526129615383" lon="12.052277574507757"><ele>134.0</ele><time>2026-04-25T05:14:58.989Z</time></trkpt><trkpt lat="45.855279818328746" lon="12.052178995976933"><ele>134.0</ele><time>2026-04-25T05:14:59.989Z</time></trkpt><trkpt lat="45.85530750079918" lon="12.052091699943585"><ele>134.0</ele><time>2026-04-25T05:15:00.989Z</time></trkpt><trkpt lat="45.85534994149702" lon="12.052012482513087"><ele>134.0</ele><time>2026-04-25T05:15:01.989Z</time></trkpt><trkpt lat="45.85540148408917" lon="12.051959113702901"><ele>134.6</ele><time>2026-04-25T05:15:02.989Z</time></trkpt><trkpt lat="45.85552885308743" lon="12.051959810453274"><ele>135.2</ele><time>2026-04-25T05:15:04.989Z</time></trkpt><trkpt lat="45.85565864661958" lon="12.05194128068622"><ele>135.79999999999998</ele><time>2026-04-25T05:15:06.989Z</time></trkpt><trkpt lat="45.855721080759515" lon="12.051898566489845"><ele>136.4</ele><time>2026-04-25T05:15:07.988Z</time></trkpt><trkpt lat="45.85577688526274" lon="12.05182775160768"><ele>137.0</ele><time>2026-04-25T05:15:08.988Z</time></trkpt><trkpt lat="45.85580852332009" lon="12.051734739525163"><ele>137.00000000000003</ele><time>2026-04-25T05:15:09.988Z</time></trkpt><trkpt lat="45.85583292853415" lon="12.05163323083265"><ele>137.0</ele><time>2026-04-25T05:15:10.988Z</time></trkpt><trkpt lat="45.85585239423164" lon="12.05152740288167"><ele>137.0</ele><time>2026-04-25T05:15:11.988Z</time></trkpt><trkpt lat="45.85587718399907" lon="12.051421511718761"><ele>137.0</ele><time>2026-04-25T05:15:12.988Z</time></trkpt><trkpt lat="45.85589618876675" lon="12.051321861801698"><ele>137.0</ele><time>2026-04-25T05:15:13.988Z</time></trkpt><trkpt lat="45.85590491417191" lon="12.051221064245087"><ele>137.00000000000003</ele><time>2026-04-25T05:15:14.988Z</time></trkpt><trkpt lat="45.85589542903032" lon="12.051115951146798"><ele>137.0</ele><time>2026-04-25T05:15:15.988Z</time></trkpt><trkpt lat="45.85587408225759" lon="12.051013381484106"><ele>137.00000000000003</ele><time>2026-04-25T05:15:16.988Z</time></trkpt><trkpt lat="45.8558483665932" lon="12.050917438567938"><ele>137.0</ele><time>2026-04-25T05:15:17.988Z</time></trkpt><trkpt lat="45.8558176733377" lon="12.050836695660092"><ele>137.0</ele><time>2026-04-25T05:15:18.988Z</time></trkpt><trkpt lat="45.85579773528738" lon="12.050740998574456"><ele>137.0</ele><time>2026-04-25T05:15:19.988Z</time></trkpt><trkpt lat="45.855789578253045" lon="12.050647294260681"><ele>137.0</ele><time>2026-04-25T05:15:20.988Z</time></trkpt><trkpt lat="45.85578459246525" lon="12.050547575022327"><ele>137.00000000000003</ele><time>2026-04-25T05:15:21.988Z</time></trkpt><trkpt lat="45.85577712069504" lon="12.050445836133143"><ele>137.0</ele><time>2026-04-25T05:15:22.988Z</time></trkpt><trkpt lat="45.85577092797091" lon="12.05035121059977"><ele>137.0</ele><time>2026-04-25T05:15:23.988Z</time></trkpt><trkpt lat="45.855746823831005" lon="12.050159872859327"><ele>137.0</ele><time>2026-04-25T05:15:25.988Z</time></trkpt><trkpt lat="45.85573710534759" lon="12.050053342976277"><ele>137.0</ele><time>2026-04-25T05:15:26.988Z</time></trkpt><trkpt lat="45.85574528398545" lon="12.049939920631246"><ele>137.0</ele><time>2026-04-25T05:15:27.988Z</time></trkpt><trkpt lat="45.85575416888719" lon="12.049833862685913"><ele>137.0</ele><time>2026-04-25T05:15:28.988Z</time></trkpt><trkpt lat="45.85574713172822" lon="12.04972896147286"><ele>137.0</ele><time>2026-04-25T05:15:29.988Z</time></trkpt><trkpt lat="45.85574063625797" lon="12.049616318885386"><ele>137.0</ele><time>2026-04-25T05:15:30.988Z</time></trkpt><trkpt lat="45.855735488495796" lon="12.049508632520594"><ele>137.0</ele><time>2026-04-25T05:15:31.988Z</time></trkpt><trkpt lat="45.85574131977941" lon="12.049393484306243"><ele>137.0</ele><time>2026-04-25T05:15:32.988Z</time></trkpt><trkpt lat="45.85575207616815" lon="12.049275472506174"><ele>137.0</ele><time>2026-04-25T05:15:33.988Z</time></trkpt><trkpt lat="45.85575507338183" lon="12.049153841090995"><ele>137.0</ele><time>2026-04-25T05:15:34.988Z</time></trkpt><trkpt lat="45.85574366799857" lon="12.049042363100456"><ele>137.0</ele><time>2026-04-25T05:15:35.988Z</time></trkpt><trkpt lat="45.8557309488353" lon="12.04893567231079"><ele>137.14285714285717</ele><time>2026-04-25T05:15:36.988Z</time></trkpt><trkpt lat="45.85571299581411" lon="12.048833102878676"><ele>137.28571428571428</ele><time>2026-04-25T05:15:37.988Z</time></trkpt><trkpt lat="45.855702381651504" lon="12.048730172565852"><ele>137.42857142857144</ele><time>2026-04-25T05:15:38.988Z</time></trkpt><trkpt lat="45.85567954317432" lon="12.048632078097906"><ele>137.57142857142858</ele><time>2026-04-25T05:15:39.988Z</time></trkpt><trkpt lat="45.85565798094284" lon="12.048531432051764"><ele>137.71428571428572</ele><time>2026-04-25T05:15:40.988Z</time></trkpt><trkpt lat="45.85564294880286" lon="12.04842980360307"><ele>137.85714285714286</ele><time>2026-04-25T05:15:41.988Z</time></trkpt><trkpt lat="45.85562569352009" lon="12.048326391152163"><ele>138.0</ele><time>2026-04-25T05:15:42.988Z</time></trkpt><trkpt lat="45.85560638151341" lon="12.048224661460267"><ele>138.28571428571428</ele><time>2026-04-25T05:15:43.988Z</time></trkpt><trkpt lat="45.85558925531468" lon="12.048119797491683"><ele>138.57142857142858</ele><time>2026-04-25T05:15:44.988Z</time></trkpt><trkpt lat="45.85557382045177" lon="12.048016081848283"><ele>138.85714285714286</ele><time>2026-04-25T05:15:45.988Z</time></trkpt><trkpt lat="45.8555601418478" lon="12.047912678426353"><ele>139.14285714285714</ele><time>2026-04-25T05:15:46.988Z</time></trkpt><trkpt lat="45.855547355256" lon="12.0478117312844"><ele>139.42857142857144</ele><time>2026-04-25T05:15:47.988Z</time></trkpt><trkpt lat="45.855538535951055" lon="12.04770627263961"><ele>139.71428571428572</ele><time>2026-04-25T05:15:48.988Z</time></trkpt><trkpt lat="45.85552787118317" lon="12.047607069907896"><ele>140.0</ele><time>2026-04-25T05:15:49.988Z</time></trkpt><trkpt lat="45.8555200300863" lon="12.047500471360943"><ele>140.42857142857142</ele><time>2026-04-25T05:15:50.988Z</time></trkpt><trkpt lat="45.85550608693208" lon="12.047396683230373"><ele>140.85714285714286</ele><time>2026-04-25T05:15:51.988Z</time></trkpt><trkpt lat="45.855487653776976" lon="12.047290641287521"><ele>141.28571428571428</ele><time>2026-04-25T05:15:52.988Z</time></trkpt><trkpt lat="45.85546634267897" lon="12.047184525964271"><ele>141.71428571428572</ele><time>2026-04-25T05:15:53.988Z</time></trkpt><trkpt lat="45.8554445108156" lon="12.04708287833912"><ele>142.14285714285714</ele><time>2026-04-25T05:15:54.988Z</time></trkpt><trkpt lat="45.855422304938095" lon="12.046987196093102"><ele>142.57142857142856</ele><time>2026-04-25T05:15:55.988Z</time></trkpt><trkpt lat="45.85540113596631" lon="12.046892084701385"><ele>143.0</ele><time>2026-04-25T05:15:56.988Z</time></trkpt><trkpt lat="45.85538035567585" lon="12.04679444537975"><ele>143.0</ele><time>2026-04-25T05:15:57.988Z</time></trkpt><trkpt lat="45.855360337739555" lon="12.046698058638539"><ele>143.0</ele><time>2026-04-25T05:15:58.988Z</time></trkpt><trkpt lat="45.85528868754705" lon="12.046539851031632"><ele>143.0</ele><time>2026-04-25T05:16:00.988Z</time></trkpt><trkpt lat="45.855242576411875" lon="12.046460169932853"><ele>143.0</ele><time>2026-04-25T05:16:01.988Z</time></trkpt><trkpt lat="45.855198523014444" lon="12.046381376443893"><ele>143.0</ele><time>2026-04-25T05:16:02.988Z</time></trkpt><trkpt lat="45.855160510848975" lon="12.046295986484337"><ele>143.0</ele><time>2026-04-25T05:16:03.988Z</time></trkpt><trkpt lat="45.855128332626535" lon="12.04620627386162"><ele>142.57142857142856</ele><time>2026-04-25T05:16:04.988Z</time></trkpt><trkpt lat="45.85510037282973" lon="12.046111974662379"><ele>142.14285714285714</ele><time>2026-04-25T05:16:05.988Z</time></trkpt><trkpt lat="45.855070073023356" lon="12.046016363408926"><ele>141.71428571428572</ele><time>2026-04-25T05:16:06.988Z</time></trkpt><trkpt lat="45.85503836191868" lon="12.04592543394154"><ele>141.28571428571428</ele><time>2026-04-25T05:16:07.988Z</time></trkpt><trkpt lat="45.85501253378449" lon="12.045829733095536"><ele>140.85714285714286</ele><time>2026-04-25T05:16:08.988Z</time></trkpt><trkpt lat="45.85497544911785" lon="12.045743209347865"><ele>140.42857142857142</ele><time>2026-04-25T05:16:09.988Z</time></trkpt><trkpt lat="45.854935625018584" lon="12.045657813286367"><ele>140.0</ele><time>2026-04-25T05:16:10.988Z</time></trkpt><trkpt lat="45.85490012495859" lon="12.045562611391055"><ele>140.0</ele><time>2026-04-25T05:16:11.988Z</time></trkpt><trkpt lat="45.854871221667025" lon="12.04546942712652"><ele>140.0</ele><time>2026-04-25T05:16:12.988Z</time></trkpt><trkpt lat="45.85485154441614" lon="12.045361816465578"><ele>140.0</ele><time>2026-04-25T05:16:13.988Z</time></trkpt><trkpt lat="45.854831942364925" lon="12.04525728215885"><ele>140.0</ele><time>2026-04-25T05:16:14.988Z</time></trkpt><trkpt lat="45.854825783464705" lon="12.045147276050047"><ele>140.0</ele><time>2026-04-25T05:16:15.988Z</time></trkpt><trkpt lat="45.85481529890604" lon="12.0450389909541"><ele>140.0</ele><time>2026-04-25T05:16:16.988Z</time></trkpt><trkpt lat="45.85480840971994" lon="12.0449472767584"><ele>140.0</ele><time>2026-04-25T05:16:17.988Z</time></trkpt><trkpt lat="45.8547851643454" lon="12.04486216084586"><ele>140.4</ele><time>2026-04-25T05:16:18.989Z</time></trkpt><trkpt lat="45.85469984946972" lon="12.044758287493355"><ele>140.8</ele><time>2026-04-25T05:16:20.989Z</time></trkpt><trkpt lat="45.854563761029894" lon="12.044783995196692"><ele>141.2</ele><time>2026-04-25T05:16:22.988Z</time></trkpt><trkpt lat="45.85449626408545" lon="12.044775598393224"><ele>141.6</ele><time>2026-04-25T05:16:23.988Z</time></trkpt><trkpt lat="45.85438205453726" lon="12.044718755990502"><ele>142.0</ele><time>2026-04-25T05:16:25.988Z</time></trkpt><trkpt lat="45.854315924458234" lon="12.044567420068265"><ele>141.16666666666669</ele><time>2026-04-25T05:16:27.988Z</time></trkpt><trkpt lat="45.8542861784267" lon="12.04448140772182"><ele>140.33333333333334</ele><time>2026-04-25T05:16:28.988Z</time></trkpt><trkpt lat="45.85422887088495" lon="12.044406965861848"><ele>139.5</ele><time>2026-04-25T05:16:29.988Z</time></trkpt><trkpt lat="45.8541657671713" lon="12.044370699866718"><ele>138.66666666666666</ele><time>2026-04-25T05:16:30.988Z</time></trkpt><trkpt lat="45.85409564816843" lon="12.044352023251871"><ele>137.83333333333331</ele><time>2026-04-25T05:16:31.988Z</time></trkpt><trkpt lat="45.85400052825285" lon="12.044270264281286"><ele>137.0</ele><time>2026-04-25T05:16:33.988Z</time></trkpt><trkpt lat="45.85394880686136" lon="12.044114979781844"><ele>137.00000000000003</ele><time>2026-04-25T05:16:35.988Z</time></trkpt><trkpt lat="45.85393648948116" lon="12.044022387829726"><ele>137.0</ele><time>2026-04-25T05:16:36.988Z</time></trkpt><trkpt lat="45.85395671246082" lon="12.043909925608354"><ele>137.0</ele><time>2026-04-25T05:16:37.988Z</time></trkpt><trkpt lat="45.85398948199085" lon="12.043818756589014"><ele>137.0</ele><time>2026-04-25T05:16:38.988Z</time></trkpt><trkpt lat="45.854027969118896" lon="12.043746268494218"><ele>137.0</ele><time>2026-04-25T05:16:39.988Z</time></trkpt><trkpt lat="45.85408000587017" lon="12.043676962644355"><ele>137.00000000000003</ele><time>2026-04-25T05:16:40.988Z</time></trkpt><trkpt lat="45.85413177782227" lon="12.043616476292456"><ele>137.0</ele><time>2026-04-25T05:16:41.988Z</time></trkpt><trkpt lat="45.85424752066177" lon="12.043536673012111"><ele>138.0</ele><time>2026-04-25T05:16:43.988Z</time></trkpt><trkpt lat="45.854299483943805" lon="12.043483539677288"><ele>139.0</ele><time>2026-04-25T05:16:44.988Z</time></trkpt><trkpt lat="45.85433749621068" lon="12.043405151509013"><ele>140.0</ele><time>2026-04-25T05:16:45.988Z</time></trkpt><trkpt lat="45.854365748957555" lon="12.043306879804241"><ele>141.0</ele><time>2026-04-25T05:16:46.988Z</time></trkpt><trkpt lat="45.854368482815055" lon="12.043198224419953"><ele>142.0</ele><time>2026-04-25T05:16:47.988Z</time></trkpt><trkpt lat="45.85437181169611" lon="12.043099805497729"><ele>143.0</ele><time>2026-04-25T05:16:48.988Z</time></trkpt><trkpt lat="45.85439526939038" lon="12.042916626624908"><ele>142.99999999999997</ele><time>2026-04-25T05:16:50.988Z</time></trkpt><trkpt lat="45.854421026950476" lon="12.042830875188436"><ele>143.0</ele><time>2026-04-25T05:16:51.988Z</time></trkpt><trkpt lat="45.85446225749304" lon="12.042749814573735"><ele>143.0</ele><time>2026-04-25T05:16:52.988Z</time></trkpt><trkpt lat="45.8544915825205" lon="12.042665743773282"><ele>143.0</ele><time>2026-04-25T05:16:53.988Z</time></trkpt><trkpt lat="45.854505454714285" lon="12.042566098149564"><ele>143.0</ele><time>2026-04-25T05:16:54.988Z</time></trkpt><trkpt lat="45.854482851035456" lon="12.042468912419265"><ele>142.99999999999997</ele><time>2026-04-25T05:16:55.988Z</time></trkpt><trkpt lat="45.85447179635195" lon="12.042376723516382"><ele>143.0</ele><time>2026-04-25T05:16:56.988Z</time></trkpt><trkpt lat="45.85447696534612" lon="12.04228586820947"><ele>143.0</ele><time>2026-04-25T05:16:57.988Z</time></trkpt><trkpt lat="45.85450406624146" lon="12.042189671764206"><ele>143.0</ele><time>2026-04-25T05:16:58.988Z</time></trkpt><trkpt lat="45.85452623674289" lon="12.042096479772155"><ele>143.0</ele><time>2026-04-25T05:16:59.988Z</time></trkpt><trkpt lat="45.85454367026745" lon="12.042004078336413"><ele>143.0</ele><time>2026-04-25T05:17:00.988Z</time></trkpt><trkpt lat="45.85455129298376" lon="12.041811001460758"><ele>143.0</ele><time>2026-04-25T05:17:02.988Z</time></trkpt><trkpt lat="45.854551239705486" lon="12.041714436862975"><ele>143.0</ele><time>2026-04-25T05:17:03.988Z</time></trkpt><trkpt lat="45.854569733077106" lon="12.04162050745952"><ele>142.8</ele><time>2026-04-25T05:17:04.988Z</time></trkpt><trkpt lat="45.85460023972809" lon="12.041475775890623"><ele>142.60000000000002</ele><time>2026-04-25T05:17:06.988Z</time></trkpt><trkpt lat="45.85462462025539" lon="12.041306592947105"><ele>142.39999999999998</ele><time>2026-04-25T05:17:08.988Z</time></trkpt><trkpt lat="45.85462411808971" lon="12.04113004140036"><ele>142.2</ele><time>2026-04-25T05:17:10.988Z</time></trkpt><trkpt lat="45.85460580403823" lon="12.040999008905512"><ele>142.0</ele><time>2026-04-25T05:17:12.988Z</time></trkpt><trkpt lat="45.85460941242205" lon="12.04090125517164"><ele>142.6</ele><time>2026-04-25T05:17:13.988Z</time></trkpt><trkpt lat="45.854614371338656" lon="12.040734296624443"><ele>143.2</ele><time>2026-04-25T05:17:15.987Z</time></trkpt><trkpt lat="45.85462765962712" lon="12.040639989383687"><ele>143.8</ele><time>2026-04-25T05:17:16.987Z</time></trkpt><trkpt lat="45.85465539769641" lon="12.040528486664483"><ele>144.4</ele><time>2026-04-25T05:17:17.987Z</time></trkpt><trkpt lat="45.854685751593365" lon="12.040428249803133"><ele>145.0</ele><time>2026-04-25T05:17:18.987Z</time></trkpt><trkpt lat="45.854713373495024" lon="12.040268108985982"><ele>145.0</ele><time>2026-04-25T05:17:20.987Z</time></trkpt><trkpt lat="45.85470703610147" lon="12.04013648878571"><ele>145.0</ele><time>2026-04-25T05:17:22.987Z</time></trkpt><trkpt lat="45.85473976738826" lon="12.039994851477461"><ele>145.0</ele><time>2026-04-25T05:17:24.987Z</time></trkpt><trkpt lat="45.85477183105609" lon="12.039828067142237"><ele>145.0</ele><time>2026-04-25T05:17:26.987Z</time></trkpt><trkpt lat="45.85479161238134" lon="12.039678304256238"><ele>145.0</ele><time>2026-04-25T05:17:28.987Z</time></trkpt><trkpt lat="45.85484422197957" lon="12.039489139041569"><ele>144.5</ele><time>2026-04-25T05:17:30.987Z</time></trkpt><trkpt lat="45.85487286624308" lon="12.039388652441767"><ele>144.0</ele><time>2026-04-25T05:17:31.987Z</time></trkpt><trkpt lat="45.85491639584595" lon="12.039285287689145"><ele>143.5</ele><time>2026-04-25T05:17:32.987Z</time></trkpt><trkpt lat="45.8549632305606" lon="12.039195576365023"><ele>143.0</ele><time>2026-04-25T05:17:33.987Z</time></trkpt><trkpt lat="45.85505085996383" lon="12.039046244024668"><ele>142.5</ele><time>2026-04-25T05:17:35.987Z</time></trkpt><trkpt lat="45.85509899367004" lon="12.038982139348878"><ele>142.0</ele><time>2026-04-25T05:17:36.987Z</time></trkpt><trkpt lat="45.855161292417314" lon="12.038889261329038"><ele>141.5</ele><time>2026-04-25T05:17:38.987Z</time></trkpt><trkpt lat="45.855203112224146" lon="12.038817780528005"><ele>141.0</ele><time>2026-04-25T05:17:39.987Z</time></trkpt><trkpt lat="45.85523639075473" lon="12.038728945792961"><ele>140.5</ele><time>2026-04-25T05:17:40.987Z</time></trkpt><trkpt lat="45.85525995881367" lon="12.038613118546767"><ele>140.0</ele><time>2026-04-25T05:17:41.987Z</time></trkpt><trkpt lat="45.85528008266612" lon="12.038492919878237"><ele>139.5</ele><time>2026-04-25T05:17:42.987Z</time></trkpt><trkpt lat="45.855335501690696" lon="12.038364325430834"><ele>139.0</ele><time>2026-04-25T05:17:43.987Z</time></trkpt><trkpt lat="45.855384938816336" lon="12.038273143547825"><ele>139.0</ele><time>2026-04-25T05:17:44.987Z</time></trkpt><trkpt lat="45.85545814406672" lon="12.038193455137431"><ele>139.0</ele><time>2026-04-25T05:17:45.987Z</time></trkpt><trkpt lat="45.855511946558444" lon="12.038127394358328"><ele>139.0</ele><time>2026-04-25T05:17:46.987Z</time></trkpt><trkpt lat="45.85558496750662" lon="12.038082186803987"><ele>139.0</ele><time>2026-04-25T05:17:47.987Z</time></trkpt><trkpt lat="45.85563575610413" lon="12.038026183387911"><ele>139.0</ele><time>2026-04-25T05:17:48.987Z</time></trkpt><trkpt lat="45.85572150110934" lon="12.03794689114411"><ele>139.0</ele><time>2026-04-25T05:17:50.987Z</time></trkpt><trkpt lat="45.85579325386776" lon="12.037996310695846"><ele>139.0</ele><time>2026-04-25T05:17:52.987Z</time></trkpt><trkpt lat="45.8557784496239" lon="12.038091016713587"><ele>139.0</ele><time>2026-04-25T05:17:55.987Z</time></trkpt><trkpt lat="45.8557252413438" lon="12.038153548268877"><ele>139.0</ele><time>2026-04-25T05:17:58.987Z</time></trkpt><trkpt lat="45.855688788621926" lon="12.038247534579734"><ele>139.0</ele><time>2026-04-25T05:18:00.987Z</time></trkpt><trkpt lat="45.855646682207215" lon="12.038342432653254"><ele>139.0</ele><time>2026-04-25T05:18:03.987Z</time></trkpt><trkpt lat="45.85560837481548" lon="12.038444160324394"><ele>139.0</ele><time>2026-04-25T05:18:08.987Z</time></trkpt><trkpt lat="45.855544834574786" lon="12.03852828155877"><ele>140.57142857142856</ele><time>2026-04-25T05:18:11.987Z</time></trkpt><trkpt lat="45.855511073345326" lon="12.038615096581394"><ele>142.14285714285714</ele><time>2026-04-25T05:18:13.987Z</time></trkpt><trkpt lat="45.855477042820034" lon="12.038701538837232"><ele>143.71428571428572</ele><time>2026-04-25T05:18:15.987Z</time></trkpt><trkpt lat="45.8554360911692" lon="12.038773959771197"><ele>145.28571428571428</ele><time>2026-04-25T05:18:17.987Z</time></trkpt><trkpt lat="45.8553881511639" lon="12.038838875594926"><ele>146.85714285714286</ele><time>2026-04-25T05:18:19.987Z</time></trkpt><trkpt lat="45.855356544790034" lon="12.038941655802853"><ele>148.42857142857142</ele><time>2026-04-25T05:18:21.988Z</time></trkpt><trkpt lat="45.85535711091127" lon="12.03905547616217"><ele>150.0</ele><time>2026-04-25T05:18:24.988Z</time></trkpt><trkpt lat="45.855392683679064" lon="12.039138739557789"><ele>150.16666666666666</ele><time>2026-04-25T05:18:26.988Z</time></trkpt><trkpt lat="45.85541091949232" lon="12.039228588236272"><ele>150.33333333333334</ele><time>2026-04-25T05:18:29.988Z</time></trkpt><trkpt lat="45.855451452651394" lon="12.03937471941829"><ele>150.5</ele><time>2026-04-25T05:18:32.988Z</time></trkpt><trkpt lat="45.85546529301002" lon="12.039465104601826"><ele>150.66666666666669</ele><time>2026-04-25T05:18:33.988Z</time></trkpt><trkpt lat="45.855480958726076" lon="12.039559698849619"><ele>150.83333333333334</ele><time>2026-04-25T05:18:34.988Z</time></trkpt><trkpt lat="45.85552115435609" lon="12.039707419617935"><ele>151.0</ele><time>2026-04-25T05:18:36.988Z</time></trkpt><trkpt lat="45.85555526213788" lon="12.039866699743298"><ele>150.5</ele><time>2026-04-25T05:18:38.988Z</time></trkpt><trkpt lat="45.8555880562997" lon="12.0400401114555"><ele>150.0</ele><time>2026-04-25T05:18:40.988Z</time></trkpt><trkpt lat="45.855609889211586" lon="12.04016006989611"><ele>149.5</ele><time>2026-04-25T05:18:41.988Z</time></trkpt><trkpt lat="45.8556254375931" lon="12.040253091049443"><ele>149.0</ele><time>2026-04-25T05:18:42.988Z</time></trkpt><trkpt lat="45.85564805602632" lon="12.040355658842627"><ele>148.5</ele><time>2026-04-25T05:18:43.988Z</time></trkpt><trkpt lat="45.85567808409643" lon="12.040449694685154"><ele>148.0</ele><time>2026-04-25T05:18:44.988Z</time></trkpt><trkpt lat="45.85569881422522" lon="12.0405428176304"><ele>148.0</ele><time>2026-04-25T05:18:45.988Z</time></trkpt><trkpt lat="45.85571581677417" lon="12.040632302115728"><ele>148.0</ele><time>2026-04-25T05:18:46.988Z</time></trkpt><trkpt lat="45.85575163383568" lon="12.040799518263094"><ele>148.0</ele><time>2026-04-25T05:18:48.988Z</time></trkpt><trkpt lat="45.855776060785836" lon="12.040888237524625"><ele>148.0</ele><time>2026-04-25T05:18:49.988Z</time></trkpt><trkpt lat="45.85579830962351" lon="12.040980284922789"><ele>148.0</ele><time>2026-04-25T05:18:50.988Z</time></trkpt><trkpt lat="45.855814641893154" lon="12.041069556457074"><ele>148.0</ele><time>2026-04-25T05:18:51.988Z</time></trkpt><trkpt lat="45.85582977513344" lon="12.041162166650553"><ele>148.0</ele><time>2026-04-25T05:18:52.988Z</time></trkpt><trkpt lat="45.85585457863623" lon="12.041249576867955"><ele>148.0</ele><time>2026-04-25T05:18:53.988Z</time></trkpt><trkpt lat="45.855901916519166" lon="12.041317581120243"><ele>148.0</ele><time>2026-04-25T05:18:54.988Z</time></trkpt><trkpt lat="45.856013056605946" lon="12.041365553515936"><ele>148.0</ele><time>2026-04-25T05:18:56.988Z</time></trkpt><trkpt lat="45.85607624660244" lon="12.0413358634266"><ele>148.0</ele><time>2026-04-25T05:18:57.988Z</time></trkpt><trkpt lat="45.856181944450356" lon="12.04125057715361"><ele>148.0</ele><time>2026-04-25T05:18:59.988Z</time></trkpt><trkpt lat="45.856286720989424" lon="12.041205866418977"><ele>148.0</ele><time>2026-04-25T05:19:01.988Z</time></trkpt><trkpt lat="45.85639844609687" lon="12.041175392542902"><ele>148.0</ele><time>2026-04-25T05:19:03.987Z</time></trkpt><trkpt lat="45.85651136258313" lon="12.041149097653424"><ele>148.0</ele><time>2026-04-25T05:19:05.987Z</time></trkpt><trkpt lat="45.85662077428671" lon="12.041121380397596"><ele>148.0</ele><time>2026-04-25T05:19:07.987Z</time></trkpt><trkpt lat="45.85673046325118" lon="12.041098024548285"><ele>148.5</ele><time>2026-04-25T05:19:09.987Z</time></trkpt><trkpt lat="45.85684587284784" lon="12.041039704379168"><ele>149.0</ele><time>2026-04-25T05:19:11.987Z</time></trkpt><trkpt lat="45.85694748158971" lon="12.040946373779706"><ele>149.5</ele><time>2026-04-25T05:19:13.987Z</time></trkpt><trkpt lat="45.857023926857046" lon="12.040808615192022"><ele>150.0</ele><time>2026-04-25T05:19:15.987Z</time></trkpt><trkpt lat="45.85710362561263" lon="12.04067198436803"><ele>150.33333333333334</ele><time>2026-04-25T05:19:17.987Z</time></trkpt><trkpt lat="45.857148522368256" lon="12.040608551210553"><ele>150.66666666666666</ele><time>2026-04-25T05:19:18.987Z</time></trkpt><trkpt lat="45.8572326088412" lon="12.040476451430015"><ele>151.0</ele><time>2026-04-25T05:19:20.987Z</time></trkpt><trkpt lat="45.857281450701095" lon="12.040409142603153"><ele>151.33333333333331</ele><time>2026-04-25T05:19:21.987Z</time></trkpt><trkpt lat="45.857366738993214" lon="12.040278709036931"><ele>151.66666666666666</ele><time>2026-04-25T05:19:23.987Z</time></trkpt><trkpt lat="45.857413273144665" lon="12.04021339210362"><ele>152.0</ele><time>2026-04-25T05:19:24.987Z</time></trkpt><trkpt lat="45.85746031277311" lon="12.040145709262179"><ele>152.0</ele><time>2026-04-25T05:19:25.987Z</time></trkpt><trkpt lat="45.85750199494423" lon="12.04007755026122"><ele>152.0</ele><time>2026-04-25T05:19:26.987Z</time></trkpt><trkpt lat="45.85754229258325" lon="12.040005059206988"><ele>152.0</ele><time>2026-04-25T05:19:27.987Z</time></trkpt><trkpt lat="45.85762674452908" lon="12.039871192330088"><ele>152.0</ele><time>2026-04-25T05:19:29.987Z</time></trkpt><trkpt lat="45.85767168329087" lon="12.03980522502689"><ele>152.0</ele><time>2026-04-25T05:19:30.987Z</time></trkpt><trkpt lat="45.857716101401486" lon="12.039741041580008"><ele>152.0</ele><time>2026-04-25T05:19:31.987Z</time></trkpt><trkpt lat="45.85775997002608" lon="12.039675323735503"><ele>152.0</ele><time>2026-04-25T05:19:32.987Z</time></trkpt><trkpt lat="45.857847023352754" lon="12.03956274158709"><ele>155.16666666666666</ele><time>2026-04-25T05:19:34.987Z</time></trkpt><trkpt lat="45.85789960111688" lon="12.03950975455932"><ele>158.33333333333331</ele><time>2026-04-25T05:19:35.987Z</time></trkpt><trkpt lat="45.857952307471464" lon="12.03945939205858"><ele>161.5</ele><time>2026-04-25T05:19:36.987Z</time></trkpt><trkpt lat="45.85806302663162" lon="12.039394468871993"><ele>164.66666666666666</ele><time>2026-04-25T05:19:38.987Z</time></trkpt><trkpt lat="45.858127828110554" lon="12.039389026025901"><ele>167.83333333333334</ele><time>2026-04-25T05:19:39.987Z</time></trkpt><trkpt lat="45.85822351768617" lon="12.03943313114471"><ele>171.0</ele><time>2026-04-25T05:19:41.987Z</time></trkpt><trkpt lat="45.858291570858455" lon="12.03945639607756"><ele>171.0</ele><time>2026-04-25T05:19:42.987Z</time></trkpt><trkpt lat="45.85836428771561" lon="12.039463741499963"><ele>171.0</ele><time>2026-04-25T05:19:43.987Z</time></trkpt><trkpt lat="45.8584339100126" lon="12.03945870067138"><ele>171.0</ele><time>2026-04-25T05:19:44.987Z</time></trkpt><trkpt lat="45.858549261508784" lon="12.039417518291684"><ele>171.0</ele><time>2026-04-25T05:19:46.987Z</time></trkpt><trkpt lat="45.85861772264403" lon="12.039391509509947"><ele>171.0</ele><time>2026-04-25T05:19:47.987Z</time></trkpt><trkpt lat="45.85873063290059" lon="12.0393640381337"><ele>171.0</ele><time>2026-04-25T05:19:49.987Z</time></trkpt><trkpt lat="45.858838236912206" lon="12.039393728124905"><ele>170.4</ele><time>2026-04-25T05:19:51.987Z</time></trkpt><trkpt lat="45.858957046135316" lon="12.039387084207153"><ele>169.8</ele><time>2026-04-25T05:19:53.987Z</time></trkpt><trkpt lat="45.859030296808676" lon="12.039390788901688"><ele>169.20000000000002</ele><time>2026-04-25T05:19:54.987Z</time></trkpt><trkpt lat="45.859106501738204" lon="12.039405414808646"><ele>168.60000000000002</ele><time>2026-04-25T05:19:55.987Z</time></trkpt><trkpt lat="45.85919829138464" lon="12.039460024785937"><ele>168.0</ele><time>2026-04-25T05:19:57.987Z</time></trkpt><trkpt lat="45.85931109471699" lon="12.039482743565078"><ele>168.0</ele><time>2026-04-25T05:19:59.987Z</time></trkpt><trkpt lat="45.85933152916263" lon="12.039364362224097"><ele>168.0</ele><time>2026-04-25T05:20:01.987Z</time></trkpt><trkpt lat="45.85936974043131" lon="12.039216729376065"><ele>168.0</ele><time>2026-04-25T05:20:03.987Z</time></trkpt><trkpt lat="45.85940812692383" lon="12.039114826901466"><ele>168.0</ele><time>2026-04-25T05:20:05.987Z</time></trkpt><trkpt lat="45.85946802566411" lon="12.039031737109047"><ele>168.0</ele><time>2026-04-25T05:20:09.987Z</time></trkpt><trkpt lat="45.85949768223665" lon="12.038927747305928"><ele>168.0</ele><time>2026-04-25T05:20:11.986Z</time></trkpt><trkpt lat="45.85951422064404" lon="12.038825518826208"><ele>168.42857142857142</ele><time>2026-04-25T05:20:13.986Z</time></trkpt><trkpt lat="45.85954621328175" lon="12.038734839354955"><ele>168.85714285714286</ele><time>2026-04-25T05:20:16.986Z</time></trkpt><trkpt lat="45.85955958547561" lon="12.03864104890676"><ele>169.28571428571428</ele><time>2026-04-25T05:20:18.986Z</time></trkpt><trkpt lat="45.85956828615116" lon="12.038547914713341"><ele>169.71428571428572</ele><time>2026-04-25T05:20:20.986Z</time></trkpt><trkpt lat="45.85958001247064" lon="12.038437562031008"><ele>170.14285714285714</ele><time>2026-04-25T05:20:22.986Z</time></trkpt><trkpt lat="45.859615431337915" lon="12.038311912403099"><ele>170.57142857142856</ele><time>2026-04-25T05:20:25.986Z</time></trkpt><trkpt lat="45.859619031810766" lon="12.038205445071464"><ele>171.0</ele><time>2026-04-25T05:20:27.988Z</time></trkpt><trkpt lat="45.85964379652002" lon="12.038084994454763"><ele>171.0</ele><time>2026-04-25T05:20:30.988Z</time></trkpt><trkpt lat="45.859679543195774" lon="12.037972887838976"><ele>171.0</ele><time>2026-04-25T05:20:33.988Z</time></trkpt><trkpt lat="45.85970386271366" lon="12.037867972210979"><ele>171.0</ele><time>2026-04-25T05:20:36.988Z</time></trkpt><trkpt lat="45.859687472727074" lon="12.03774736607879"><ele>171.0</ele><time>2026-04-25T05:20:39.988Z</time></trkpt><trkpt lat="45.85967465829728" lon="12.037651099052939"><ele>171.0</ele><time>2026-04-25T05:20:41.988Z</time></trkpt><trkpt lat="45.859736357418235" lon="12.037559535341599"><ele>171.0</ele><time>2026-04-25T05:20:44.988Z</time></trkpt><trkpt lat="45.85969498465111" lon="12.037488097120923"><ele>168.83333333333334</ele><time>2026-04-25T05:20:49.988Z</time></trkpt><trkpt lat="45.8596970856273" lon="12.037384066528011"><ele>166.66666666666666</ele><time>2026-04-25T05:20:55.988Z</time></trkpt><trkpt lat="45.85968981208336" lon="12.037293015769569"><ele>164.5</ele><time>2026-04-25T05:20:59.988Z</time></trkpt><trkpt lat="45.85960235909734" lon="12.037275136996037"><ele>162.33333333333331</ele><time>2026-04-25T05:21:01.988Z</time></trkpt><trkpt lat="45.85955513847733" lon="12.037197780020094"><ele>160.16666666666666</ele><time>2026-04-25T05:21:05.988Z</time></trkpt><trkpt lat="45.859608752931756" lon="12.037094194385562"><ele>158.0</ele><time>2026-04-25T05:21:07.988Z</time></trkpt><trkpt lat="45.85965334016655" lon="12.036989475928282"><ele>158.0</ele><time>2026-04-25T05:21:08.988Z</time></trkpt><trkpt lat="45.859692060791296" lon="12.036896730316544"><ele>158.0</ele><time>2026-04-25T05:21:09.988Z</time></trkpt><trkpt lat="45.859718223267016" lon="12.036777518577866"><ele>158.0</ele><time>2026-04-25T05:21:10.988Z</time></trkpt><trkpt lat="45.8597360488331" lon="12.03666088063919"><ele>158.0</ele><time>2026-04-25T05:21:11.988Z</time></trkpt><trkpt lat="45.85974635237831" lon="12.036538286973252"><ele>158.0</ele><time>2026-04-25T05:21:12.988Z</time></trkpt><trkpt lat="45.85975915619119" lon="12.036413784851069"><ele>158.0</ele><time>2026-04-25T05:21:13.988Z</time></trkpt><trkpt lat="45.85975878869663" lon="12.036286418729528"><ele>156.83333333333331</ele><time>2026-04-25T05:21:14.988Z</time></trkpt><trkpt lat="45.85976587113316" lon="12.036154538022279"><ele>155.66666666666666</ele><time>2026-04-25T05:21:15.988Z</time></trkpt><trkpt lat="45.85977438025996" lon="12.036019879195939"><ele>154.5</ele><time>2026-04-25T05:21:16.988Z</time></trkpt><trkpt lat="45.85979384743288" lon="12.035892557842068"><ele>153.33333333333334</ele><time>2026-04-25T05:21:17.988Z</time></trkpt><trkpt lat="45.85979724079429" lon="12.035790897626839"><ele>152.16666666666669</ele><time>2026-04-25T05:21:18.988Z</time></trkpt><trkpt lat="45.85981160159408" lon="12.035702437117884"><ele>151.0</ele><time>2026-04-25T05:21:19.988Z</time></trkpt><trkpt lat="45.859863766762025" lon="12.035596161798319"><ele>151.0</ele><time>2026-04-25T05:21:21.988Z</time></trkpt><trkpt lat="45.8599392552359" lon="12.035582256808764"><ele>151.0</ele><time>2026-04-25T05:21:23.988Z</time></trkpt><trkpt lat="45.86006802216456" lon="12.035601455198647"><ele>151.0</ele><time>2026-04-25T05:21:26.988Z</time></trkpt><trkpt lat="45.86016742396446" lon="12.035601827146023"><ele>151.0</ele><time>2026-04-25T05:21:28.987Z</time></trkpt><trkpt lat="45.86027595236835" lon="12.035530500668244"><ele>151.0</ele><time>2026-04-25T05:21:30.987Z</time></trkpt><trkpt lat="45.86034950280263" lon="12.035502626154841"><ele>150.5</ele><time>2026-04-25T05:21:31.987Z</time></trkpt><trkpt lat="45.86042574078735" lon="12.035442454506262"><ele>150.0</ele><time>2026-04-25T05:21:32.987Z</time></trkpt><trkpt lat="45.860496877244174" lon="12.035384072013352"><ele>149.5</ele><time>2026-04-25T05:21:33.987Z</time></trkpt><trkpt lat="45.86059567127287" lon="12.035328837498017"><ele>149.0</ele><time>2026-04-25T05:21:34.987Z</time></trkpt><trkpt lat="45.860666899665816" lon="12.03528256360273"><ele>148.5</ele><time>2026-04-25T05:21:35.987Z</time></trkpt><trkpt lat="45.86073235156781" lon="12.035247654936446"><ele>148.0</ele><time>2026-04-25T05:21:36.987Z</time></trkpt><trkpt lat="45.86079940773609" lon="12.035194521916804"><ele>148.0</ele><time>2026-04-25T05:21:37.987Z</time></trkpt><trkpt lat="45.860873271541756" lon="12.035142805086622"><ele>148.0</ele><time>2026-04-25T05:21:38.987Z</time></trkpt><trkpt lat="45.860974158597976" lon="12.035119096340658"><ele>148.0</ele><time>2026-04-25T05:21:40.987Z</time></trkpt><trkpt lat="45.86107533794627" lon="12.03514360337608"><ele>148.0</ele><time>2026-04-25T05:21:42.987Z</time></trkpt><trkpt lat="45.861143466057705" lon="12.035196430710153"><ele>148.0</ele><time>2026-04-25T05:21:43.987Z</time></trkpt><trkpt lat="45.861189517710976" lon="12.03526518967089"><ele>148.0</ele><time>2026-04-25T05:21:44.985Z</time></trkpt><trkpt lat="45.86124724699109" lon="12.035367323808964"><ele>146.8</ele><time>2026-04-25T05:21:46.983Z</time></trkpt><trkpt lat="45.861290753066974" lon="12.035476583177994"><ele>145.60000000000002</ele><time>2026-04-25T05:21:48.981Z</time></trkpt><trkpt lat="45.86133207454937" lon="12.035549522366617"><ele>144.39999999999998</ele><time>2026-04-25T05:21:50.979Z</time></trkpt><trkpt lat="45.86142925102529" lon="12.035499095848222"><ele>143.2</ele><time>2026-04-25T05:21:53.976Z</time></trkpt><trkpt lat="45.86151021419804" lon="12.035351812491141"><ele>142.0</ele><time>2026-04-25T05:21:55.975Z</time></trkpt><trkpt lat="45.86155708811528" lon="12.03528204893255"><ele>142.0</ele><time>2026-04-25T05:21:56.974Z</time></trkpt><trkpt lat="45.86160977462462" lon="12.035213141823336"><ele>142.0</ele><time>2026-04-25T05:21:57.973Z</time></trkpt><trkpt lat="45.8616641511841" lon="12.035151486734428"><ele>142.0</ele><time>2026-04-25T05:21:58.973Z</time></trkpt><trkpt lat="45.86172860624043" lon="12.035101108228938"><ele>142.0</ele><time>2026-04-25T05:21:59.972Z</time></trkpt><trkpt lat="45.8617873928858" lon="12.035057992212769"><ele>142.0</ele><time>2026-04-25T05:22:00.972Z</time></trkpt><trkpt lat="45.86185764282149" lon="12.035040193575233"><ele>142.0</ele><time>2026-04-25T05:22:01.971Z</time></trkpt><trkpt lat="45.86192550804354" lon="12.03504484095216"><ele>142.0</ele><time>2026-04-25T05:22:02.971Z</time></trkpt><trkpt lat="45.862048150737635" lon="12.035097889665407"><ele>143.0</ele><time>2026-04-25T05:22:04.97Z</time></trkpt><trkpt lat="45.862113217750306" lon="12.035141081865579"><ele>144.0</ele><time>2026-04-25T05:22:05.97Z</time></trkpt><trkpt lat="45.86218480750276" lon="12.035162544492977"><ele>145.0</ele><time>2026-04-25T05:22:06.969Z</time></trkpt><trkpt lat="45.862249630983065" lon="12.035179964894182"><ele>146.0</ele><time>2026-04-25T05:22:07.969Z</time></trkpt><trkpt lat="45.862311638288865" lon="12.035205756033696"><ele>147.0</ele><time>2026-04-25T05:22:08.969Z</time></trkpt><trkpt lat="45.86239518595634" lon="12.035219184133195"><ele>148.0</ele><time>2026-04-25T05:22:09.968Z</time></trkpt><trkpt lat="45.8624925872563" lon="12.03518386161345"><ele>148.0</ele><time>2026-04-25T05:22:10.968Z</time></trkpt><trkpt lat="45.86255697053831" lon="12.035146331655797"><ele>148.0</ele><time>2026-04-25T05:22:11.968Z</time></trkpt><trkpt lat="45.86262918641297" lon="12.035105116823255"><ele>148.0</ele><time>2026-04-25T05:22:12.968Z</time></trkpt><trkpt lat="45.86269624024049" lon="12.035057585898198"><ele>148.0</ele><time>2026-04-25T05:22:13.967Z</time></trkpt><trkpt lat="45.86277730062338" lon="12.034995148814533"><ele>148.0</ele><time>2026-04-25T05:22:14.967Z</time></trkpt><trkpt lat="45.862839830648895" lon="12.034934876886647"><ele>148.0</ele><time>2026-04-25T05:22:15.967Z</time></trkpt><trkpt lat="45.86290467004262" lon="12.034878369623817"><ele>148.14285714285714</ele><time>2026-04-25T05:22:16.967Z</time></trkpt><trkpt lat="45.86297240021688" lon="12.03482262386182"><ele>148.28571428571428</ele><time>2026-04-25T05:22:17.967Z</time></trkpt><trkpt lat="45.86304012642294" lon="12.034759322822195"><ele>148.42857142857142</ele><time>2026-04-25T05:22:18.967Z</time></trkpt><trkpt lat="45.863096801749634" lon="12.034696084943405"><ele>148.57142857142856</ele><time>2026-04-25T05:22:19.966Z</time></trkpt><trkpt lat="45.86314694583813" lon="12.03463019288726"><ele>148.7142857142857</ele><time>2026-04-25T05:22:20.966Z</time></trkpt><trkpt lat="45.863195594053444" lon="12.03455326032115"><ele>148.85714285714286</ele><time>2026-04-25T05:22:21.966Z</time></trkpt><trkpt lat="45.86324706512181" lon="12.034473992296498"><ele>149.0</ele><time>2026-04-25T05:22:22.966Z</time></trkpt><trkpt lat="45.86330343016526" lon="12.034406636745304"><ele>149.0</ele><time>2026-04-25T05:22:23.966Z</time></trkpt><trkpt lat="45.863368449351746" lon="12.03435121224191"><ele>149.0</ele><time>2026-04-25T05:22:24.966Z</time></trkpt><trkpt lat="45.86342141170133" lon="12.034288133455965"><ele>149.0</ele><time>2026-04-25T05:22:25.966Z</time></trkpt><trkpt lat="45.8634819094027" lon="12.03423488703427"><ele>149.0</ele><time>2026-04-25T05:22:26.965Z</time></trkpt><trkpt lat="45.86354579433492" lon="12.03417303888133"><ele>149.0</ele><time>2026-04-25T05:22:27.965Z</time></trkpt><trkpt lat="45.86359862362954" lon="12.034119267193706"><ele>149.0</ele><time>2026-04-25T05:22:28.965Z</time></trkpt><trkpt lat="45.863669363420186" lon="12.034061749800749"><ele>149.0</ele><time>2026-04-25T05:22:30.965Z</time></trkpt><trkpt lat="45.8636409234337" lon="12.033980581752495"><ele>149.5</ele><time>2026-04-25T05:22:38.966Z</time></trkpt><trkpt lat="45.86371401910601" lon="12.033904215669732"><ele>150.0</ele><time>2026-04-25T05:22:41.965Z</time></trkpt><trkpt lat="45.86380288137803" lon="12.033815769656954"><ele>150.5</ele><time>2026-04-25T05:22:43.965Z</time></trkpt><trkpt lat="45.86385315222745" lon="12.033717585874605"><ele>151.0</ele><time>2026-04-25T05:22:45.965Z</time></trkpt><trkpt lat="45.863874622060486" lon="12.03362927872799"><ele>151.5</ele><time>2026-04-25T05:22:47.965Z</time></trkpt><trkpt lat="45.86387880778521" lon="12.033526365015225"><ele>152.0</ele><time>2026-04-25T05:22:49.965Z</time></trkpt><trkpt lat="45.86388897698566" lon="12.033398202424605"><ele>152.33333333333331</ele><time>2026-04-25T05:22:51.965Z</time></trkpt><trkpt lat="45.863897326780325" lon="12.033271274490899"><ele>152.66666666666666</ele><time>2026-04-25T05:22:53.965Z</time></trkpt><trkpt lat="45.8639196988334" lon="12.033154714628004"><ele>153.0</ele><time>2026-04-25T05:22:55.964Z</time></trkpt><trkpt lat="45.863916481281386" lon="12.033028214199462"><ele>153.33333333333334</ele><time>2026-04-25T05:22:58.964Z</time></trkpt><trkpt lat="45.86389180560614" lon="12.032940210661144"><ele>153.66666666666669</ele><time>2026-04-25T05:23:01.964Z</time></trkpt><trkpt lat="45.863853215068886" lon="12.032856127446898"><ele>154.0</ele><time>2026-04-25T05:23:04.964Z</time></trkpt><trkpt lat="45.86378413219516" lon="12.032769623610655"><ele>154.0</ele><time>2026-04-25T05:23:07.964Z</time></trkpt><trkpt lat="45.86372821188378" lon="12.032682594704719"><ele>154.0</ele><time>2026-04-25T05:23:11.964Z</time></trkpt><trkpt lat="45.86369789817931" lon="12.032584315210917"><ele>154.0</ele><time>2026-04-25T05:23:14.964Z</time></trkpt><trkpt lat="45.86363384104352" lon="12.032498349772082"><ele>154.0</ele><time>2026-04-25T05:23:18.964Z</time></trkpt><trkpt lat="45.86359649474498" lon="12.032392408527992"><ele>154.0</ele><time>2026-04-25T05:23:21.964Z</time></trkpt><trkpt lat="45.863526299121" lon="12.032450766477911"><ele>154.0</ele><time>2026-04-25T05:23:27.964Z</time></trkpt><trkpt lat="45.863528815285676" lon="12.032340805064008"><ele>154.83333333333334</ele><time>2026-04-25T05:23:32.964Z</time></trkpt><trkpt lat="45.863509467604686" lon="12.03222918553485"><ele>155.66666666666669</ele><time>2026-04-25T05:23:34.963Z</time></trkpt><trkpt lat="45.86344895259742" lon="12.032156533004969"><ele>156.5</ele><time>2026-04-25T05:23:36.963Z</time></trkpt><trkpt lat="45.863386670459725" lon="12.032067871914123"><ele>157.33333333333334</ele><time>2026-04-25T05:23:38.963Z</time></trkpt><trkpt lat="45.86334803704033" lon="12.031967021812251"><ele>158.16666666666666</ele><time>2026-04-25T05:23:40.963Z</time></trkpt><trkpt lat="45.863317007598525" lon="12.031865137136545"><ele>159.0</ele><time>2026-04-25T05:23:42.963Z</time></trkpt><trkpt lat="45.86329249030322" lon="12.031704586687946"><ele>159.6</ele><time>2026-04-25T05:23:44.963Z</time></trkpt><trkpt lat="45.86332605576808" lon="12.031575079241678"><ele>160.2</ele><time>2026-04-25T05:23:46.963Z</time></trkpt><trkpt lat="45.86340829377098" lon="12.031455887881982"><ele>160.79999999999998</ele><time>2026-04-25T05:23:48.963Z</time></trkpt><trkpt lat="45.86351738623269" lon="12.031382675866833"><ele>161.4</ele><time>2026-04-25T05:23:50.963Z</time></trkpt><trkpt lat="45.86362198917076" lon="12.031310952744857"><ele>162.0</ele><time>2026-04-25T05:23:52.963Z</time></trkpt><trkpt lat="45.86372387909394" lon="12.031236129424864"><ele>162.33333333333334</ele><time>2026-04-25T05:23:54.963Z</time></trkpt><trkpt lat="45.86378632156103" lon="12.031197237826296"><ele>162.66666666666666</ele><time>2026-04-25T05:23:55.963Z</time></trkpt><trkpt lat="45.86384719477383" lon="12.03116116830554"><ele>163.0</ele><time>2026-04-25T05:23:56.963Z</time></trkpt><trkpt lat="45.86395295107756" lon="12.031086973381774"><ele>163.33333333333331</ele><time>2026-04-25T05:23:58.963Z</time></trkpt><trkpt lat="45.864057928141015" lon="12.031018679755368"><ele>163.66666666666666</ele><time>2026-04-25T05:24:00.963Z</time></trkpt><trkpt lat="45.864122138469114" lon="12.030984434950794"><ele>164.0</ele><time>2026-04-25T05:24:01.963Z</time></trkpt><trkpt lat="45.86418417129856" lon="12.030949430421982"><ele>163.79999999999998</ele><time>2026-04-25T05:24:02.963Z</time></trkpt><trkpt lat="45.86429679072628" lon="12.030870073687211"><ele>163.6</ele><time>2026-04-25T05:24:04.963Z</time></trkpt><trkpt lat="45.864360713136755" lon="12.030821435398812"><ele>163.4</ele><time>2026-04-25T05:24:05.963Z</time></trkpt><trkpt lat="45.86442129714766" lon="12.030781851175096"><ele>163.2</ele><time>2026-04-25T05:24:06.963Z</time></trkpt><trkpt lat="45.864482883231716" lon="12.030746986461821"><ele>163.0</ele><time>2026-04-25T05:24:07.963Z</time></trkpt><trkpt lat="45.86459866225602" lon="12.030704357264733"><ele>163.0</ele><time>2026-04-25T05:24:09.963Z</time></trkpt><trkpt lat="45.8646619089004" lon="12.03067774603031"><ele>163.0</ele><time>2026-04-25T05:24:10.963Z</time></trkpt><trkpt lat="45.86472882624156" lon="12.030654220930874"><ele>163.0</ele><time>2026-04-25T05:24:11.963Z</time></trkpt><trkpt lat="45.864797056525745" lon="12.030660559173683"><ele>163.0</ele><time>2026-04-25T05:24:12.963Z</time></trkpt><trkpt lat="45.86486780616389" lon="12.030649062866948"><ele>163.0</ele><time>2026-04-25T05:24:13.963Z</time></trkpt><trkpt lat="45.86493307481614" lon="12.030618317622684"><ele>163.0</ele><time>2026-04-25T05:24:14.963Z</time></trkpt><trkpt lat="45.86500379308669" lon="12.030595034090597"><ele>163.0</ele><time>2026-04-25T05:24:15.963Z</time></trkpt><trkpt lat="45.86506517365814" lon="12.030568728075998"><ele>162.60000000000002</ele><time>2026-04-25T05:24:16.963Z</time></trkpt><trkpt lat="45.86518713306081" lon="12.030524021373044"><ele>162.20000000000002</ele><time>2026-04-25T05:24:18.963Z</time></trkpt><trkpt lat="45.865280079998655" lon="12.030500359306163"><ele>161.8</ele><time>2026-04-25T05:24:19.963Z</time></trkpt><trkpt lat="45.86536753342902" lon="12.030488095436164"><ele>161.4</ele><time>2026-04-25T05:24:20.963Z</time></trkpt><trkpt lat="45.86544016793797" lon="12.030486471660069"><ele>161.0</ele><time>2026-04-25T05:24:21.962Z</time></trkpt><trkpt lat="45.86555923279788" lon="12.030547766657834"><ele>161.0</ele><time>2026-04-25T05:24:23.962Z</time></trkpt><trkpt lat="45.86565769812417" lon="12.030649119781161"><ele>161.0</ele><time>2026-04-25T05:24:25.962Z</time></trkpt><trkpt lat="45.8657293846198" lon="12.030696134993487"><ele>161.0</ele><time>2026-04-25T05:24:27.962Z</time></trkpt><trkpt lat="45.865928793572444" lon="12.030535633792757"><ele>161.0</ele><time>2026-04-25T05:24:32.962Z</time></trkpt><trkpt lat="45.866000087093724" lon="12.030446215999977"><ele>161.4</ele><time>2026-04-25T05:24:34.962Z</time></trkpt><trkpt lat="45.86607616200202" lon="12.030365077383625"><ele>161.8</ele><time>2026-04-25T05:24:36.962Z</time></trkpt><trkpt lat="45.86614796532727" lon="12.030265054109984"><ele>162.20000000000002</ele><time>2026-04-25T05:24:38.963Z</time></trkpt><trkpt lat="45.86623409593551" lon="12.030150672037351"><ele>162.60000000000002</ele><time>2026-04-25T05:24:40.964Z</time></trkpt><trkpt lat="45.866291016498316" lon="12.030029925135425"><ele>163.0</ele><time>2026-04-25T05:24:42.964Z</time></trkpt><trkpt lat="45.866354591769245" lon="12.029918516494185"><ele>163.60000000000002</ele><time>2026-04-25T05:24:44.963Z</time></trkpt><trkpt lat="45.86639359293199" lon="12.029838072142793"><ele>164.20000000000002</ele><time>2026-04-25T05:24:45.964Z</time></trkpt><trkpt lat="45.86646146262512" lon="12.029714331740973"><ele>164.8</ele><time>2026-04-25T05:24:47.964Z</time></trkpt><trkpt lat="45.86654525524867" lon="12.029603497833062"><ele>165.4</ele><time>2026-04-25T05:24:49.964Z</time></trkpt><trkpt lat="45.86661036013316" lon="12.029550768964961"><ele>166.0</ele><time>2026-04-25T05:24:51.964Z</time></trkpt><trkpt lat="45.86667212691226" lon="12.02946044983131"><ele>166.0</ele><time>2026-04-25T05:24:53.964Z</time></trkpt><trkpt lat="45.86677189042112" lon="12.029359010950836"><ele>166.0</ele><time>2026-04-25T05:24:55.964Z</time></trkpt><trkpt lat="45.86686927573672" lon="12.029278967150073"><ele>166.0</ele><time>2026-04-25T05:24:57.964Z</time></trkpt><trkpt lat="45.866940770846576" lon="12.029201566490155"><ele>166.0</ele><time>2026-04-25T05:24:59.964Z</time></trkpt><trkpt lat="45.866986411027995" lon="12.029103780851806"><ele>166.0</ele><time>2026-04-25T05:25:01.964Z</time></trkpt><trkpt lat="45.866999032289286" lon="12.029005054292705"><ele>165.60000000000002</ele><time>2026-04-25T05:25:02.964Z</time></trkpt><trkpt lat="45.86703019849228" lon="12.028898601585151"><ele>165.2</ele><time>2026-04-25T05:25:03.964Z</time></trkpt><trkpt lat="45.86706275941443" lon="12.028800159224202"><ele>164.8</ele><time>2026-04-25T05:25:04.964Z</time></trkpt><trkpt lat="45.86712192794868" lon="12.028652507459359"><ele>164.39999999999998</ele><time>2026-04-25T05:25:06.963Z</time></trkpt><trkpt lat="45.86718341503601" lon="12.028536580253416"><ele>164.0</ele><time>2026-04-25T05:25:08.963Z</time></trkpt><trkpt lat="45.867234828952796" lon="12.028446264318823"><ele>164.0</ele><time>2026-04-25T05:25:11.963Z</time></trkpt><trkpt lat="45.86728965955165" lon="12.028376423069473"><ele>164.0</ele><time>2026-04-25T05:25:13.963Z</time></trkpt><trkpt lat="45.86734599815887" lon="12.028314570200518"><ele>164.0</ele><time>2026-04-25T05:25:16.963Z</time></trkpt><trkpt lat="45.86739934459373" lon="12.028265898823202"><ele>164.0</ele><time>2026-04-25T05:25:18.963Z</time></trkpt><trkpt lat="45.867459870323316" lon="12.028308608425695"><ele>164.0</ele><time>2026-04-25T05:25:21.963Z</time></trkpt><trkpt lat="45.867393590081946" lon="12.028409108945274"><ele>164.0</ele><time>2026-04-25T05:25:24.963Z</time></trkpt><trkpt lat="45.86736334445863" lon="12.028548433151894"><ele>164.0</ele><time>2026-04-25T05:25:26.963Z</time></trkpt><trkpt lat="45.86738042970299" lon="12.028666229112677"><ele>164.0</ele><time>2026-04-25T05:25:28.963Z</time></trkpt><trkpt lat="45.8674486913832" lon="12.028777385744416"><ele>164.0</ele><time>2026-04-25T05:25:30.963Z</time></trkpt><trkpt lat="45.867508498112755" lon="12.028827381430824"><ele>164.0</ele><time>2026-04-25T05:25:31.963Z</time></trkpt><trkpt lat="45.86758570592002" lon="12.02892883303397"><ele>164.0</ele><time>2026-04-25T05:25:33.963Z</time></trkpt><trkpt lat="45.867626292260205" lon="12.029000464011581"><ele>164.0</ele><time>2026-04-25T05:25:34.963Z</time></trkpt><trkpt lat="45.867698338650584" lon="12.029069571956889"><ele>164.16666666666666</ele><time>2026-04-25T05:25:36.963Z</time></trkpt><trkpt lat="45.86776095136704" lon="12.02915363024189"><ele>164.33333333333331</ele><time>2026-04-25T05:25:38.963Z</time></trkpt><trkpt lat="45.8678179188364" lon="12.029260457419515"><ele>164.5</ele><time>2026-04-25T05:25:40.963Z</time></trkpt><trkpt lat="45.867874853278515" lon="12.02934709861862"><ele>164.66666666666666</ele><time>2026-04-25T05:25:42.963Z</time></trkpt><trkpt lat="45.867927771300515" lon="12.029421435884288"><ele>164.83333333333334</ele><time>2026-04-25T05:25:44.963Z</time></trkpt><trkpt lat="45.86798490519981" lon="12.029489032679196"><ele>165.0</ele><time>2026-04-25T05:25:46.963Z</time></trkpt><trkpt lat="45.868047592802334" lon="12.029563381777498"><ele>165.0</ele><time>2026-04-25T05:25:48.963Z</time></trkpt><trkpt lat="45.86811762318611" lon="12.029655114589955"><ele>165.0</ele><time>2026-04-25T05:25:50.963Z</time></trkpt><trkpt lat="45.868194910186624" lon="12.029756401144034"><ele>165.0</ele><time>2026-04-25T05:25:52.963Z</time></trkpt><trkpt lat="45.86826937686362" lon="12.029871668238965"><ele>165.0</ele><time>2026-04-25T05:25:54.962Z</time></trkpt><trkpt lat="45.86834019588364" lon="12.029989798033888"><ele>165.0</ele><time>2026-04-25T05:25:56.962Z</time></trkpt><trkpt lat="45.868426604758056" lon="12.030108919738742"><ele>165.2</ele><time>2026-04-25T05:25:58.962Z</time></trkpt><trkpt lat="45.8685150348342" lon="12.030230937305996"><ele>165.4</ele><time>2026-04-25T05:26:00.962Z</time></trkpt><trkpt lat="45.86859667211531" lon="12.030355731446008"><ele>165.60000000000002</ele><time>2026-04-25T05:26:02.962Z</time></trkpt><trkpt lat="45.86864090092603" lon="12.030422415949916"><ele>165.8</ele><time>2026-04-25T05:26:03.962Z</time></trkpt><trkpt lat="45.868685437950354" lon="12.03048688427334"><ele>166.0</ele><time>2026-04-25T05:26:04.962Z</time></trkpt><trkpt lat="45.868765097816095" lon="12.030626016979875"><ele>166.0</ele><time>2026-04-25T05:26:06.962Z</time></trkpt><trkpt lat="45.8688516766895" lon="12.030755089702234"><ele>166.0</ele><time>2026-04-25T05:26:08.962Z</time></trkpt><trkpt lat="45.86890066172385" lon="12.030812971917388"><ele>166.0</ele><time>2026-04-25T05:26:09.962Z</time></trkpt><trkpt lat="45.86898923440037" lon="12.030941339555802"><ele>166.0</ele><time>2026-04-25T05:26:11.962Z</time></trkpt><trkpt lat="45.869084325531084" lon="12.03106026691753"><ele>166.0</ele><time>2026-04-25T05:26:13.962Z</time></trkpt><trkpt lat="45.86917796141214" lon="12.031182826807235"><ele>166.0</ele><time>2026-04-25T05:26:15.962Z</time></trkpt><trkpt lat="45.86922446023714" lon="12.031247770104683"><ele>166.0</ele><time>2026-04-25T05:26:16.962Z</time></trkpt><trkpt lat="45.86931868108747" lon="12.031366232750562"><ele>166.0</ele><time>2026-04-25T05:26:18.962Z</time></trkpt><trkpt lat="45.86937620261277" lon="12.03142027525563"><ele>166.0</ele><time>2026-04-25T05:26:19.962Z</time></trkpt><trkpt lat="45.86943155813253" lon="12.031467414007428"><ele>166.0</ele><time>2026-04-25T05:26:20.962Z</time></trkpt><trkpt lat="45.86948891128642" lon="12.03151908766095"><ele>166.0</ele><time>2026-04-25T05:26:21.962Z</time></trkpt><trkpt lat="45.86954456935229" lon="12.03156221383763"><ele>166.0</ele><time>2026-04-25T05:26:22.962Z</time></trkpt><trkpt lat="45.86960967170822" lon="12.031595582474175"><ele>166.0</ele><time>2026-04-25T05:26:23.962Z</time></trkpt><trkpt lat="45.86967457432303" lon="12.031626113221694"><ele>166.0</ele><time>2026-04-25T05:26:24.962Z</time></trkpt><trkpt lat="45.86973710391624" lon="12.031654912033906"><ele>166.0</ele><time>2026-04-25T05:26:25.962Z</time></trkpt><trkpt lat="45.86980153513314" lon="12.031690506108925"><ele>166.0</ele><time>2026-04-25T05:26:26.962Z</time></trkpt><trkpt lat="45.869929160335744" lon="12.031767025250753"><ele>166.0</ele><time>2026-04-25T05:26:28.962Z</time></trkpt><trkpt lat="45.869997784325584" lon="12.031812525010002"><ele>166.0</ele><time>2026-04-25T05:26:29.962Z</time></trkpt><trkpt lat="45.87006369468847" lon="12.03186304912136"><ele>166.0</ele><time>2026-04-25T05:26:30.962Z</time></trkpt><trkpt lat="45.870125737548676" lon="12.031911439626985"><ele>166.0</ele><time>2026-04-25T05:26:31.962Z</time></trkpt><trkpt lat="45.87018846956761" lon="12.03195521888376"><ele>166.0</ele><time>2026-04-25T05:26:32.962Z</time></trkpt><trkpt lat="45.87025276934948" lon="12.031985954508217"><ele>166.0</ele><time>2026-04-25T05:26:33.962Z</time></trkpt><trkpt lat="45.87032282636459" lon="12.032025779275251"><ele>166.0</ele><time>2026-04-25T05:26:34.962Z</time></trkpt><trkpt lat="45.87039505482989" lon="12.03206429186866"><ele>166.0</ele><time>2026-04-25T05:26:35.962Z</time></trkpt><trkpt lat="45.870471862285775" lon="12.032100767565927"><ele>165.83333333333334</ele><time>2026-04-25T05:26:36.962Z</time></trkpt><trkpt lat="45.87053241476837" lon="12.032136412923698"><ele>165.66666666666669</ele><time>2026-04-25T05:26:37.962Z</time></trkpt><trkpt lat="45.870604306775746" lon="12.032178572764101"><ele>165.5</ele><time>2026-04-25T05:26:38.962Z</time></trkpt><trkpt lat="45.87066987526332" lon="12.032214451869814"><ele>165.33333333333334</ele><time>2026-04-25T05:26:39.962Z</time></trkpt><trkpt lat="45.870736328798635" lon="12.03225208336054"><ele>165.16666666666666</ele><time>2026-04-25T05:26:40.962Z</time></trkpt><trkpt lat="45.870813025380095" lon="12.032296942779592"><ele>165.0</ele><time>2026-04-25T05:26:41.961Z</time></trkpt><trkpt lat="45.87093731652988" lon="12.032350078952355"><ele>165.0</ele><time>2026-04-25T05:26:43.961Z</time></trkpt><trkpt lat="45.87099581948833" lon="12.032386253240569"><ele>165.0</ele><time>2026-04-25T05:26:44.963Z</time></trkpt><trkpt lat="45.87105192406807" lon="12.032428471030686"><ele>165.0</ele><time>2026-04-25T05:26:45.962Z</time></trkpt><trkpt lat="45.87111397691337" lon="12.032472982481732"><ele>165.0</ele><time>2026-04-25T05:26:46.962Z</time></trkpt><trkpt lat="45.871227398683324" lon="12.032560223350552"><ele>165.0</ele><time>2026-04-25T05:26:48.963Z</time></trkpt><trkpt lat="45.871286117880025" lon="12.032611695013276"><ele>165.0</ele><time>2026-04-25T05:26:49.963Z</time></trkpt><trkpt lat="45.871344071926224" lon="12.032664701873351"><ele>165.0</ele><time>2026-04-25T05:26:50.962Z</time></trkpt><trkpt lat="45.871403173485945" lon="12.032714707476844"><ele>165.0</ele><time>2026-04-25T05:26:51.963Z</time></trkpt><trkpt lat="45.87147151049132" lon="12.032768290135445"><ele>165.0</ele><time>2026-04-25T05:26:52.963Z</time></trkpt><trkpt lat="45.8715842784042" lon="12.032850351464392"><ele>165.0</ele><time>2026-04-25T05:26:54.963Z</time></trkpt><trkpt lat="45.87164613926594" lon="12.032895711278766"><ele>165.0</ele><time>2026-04-25T05:26:55.963Z</time></trkpt><trkpt lat="45.87170582396126" lon="12.032936034263455"><ele>165.0</ele><time>2026-04-25T05:26:56.963Z</time></trkpt><trkpt lat="45.871764737397484" lon="12.032980272995333"><ele>164.8</ele><time>2026-04-25T05:26:57.963Z</time></trkpt><trkpt lat="45.871867221670556" lon="12.033050916691904"><ele>164.6</ele><time>2026-04-25T05:26:59.962Z</time></trkpt><trkpt lat="45.871959789108836" lon="12.03312373093543"><ele>164.39999999999998</ele><time>2026-04-25T05:27:01.962Z</time></trkpt><trkpt lat="45.87201505661662" lon="12.033170071241729"><ele>164.2</ele><time>2026-04-25T05:27:02.962Z</time></trkpt><trkpt lat="45.87205236503821" lon="12.033316322327009"><ele>164.0</ele><time>2026-04-25T05:27:04.962Z</time></trkpt><trkpt lat="45.87206582169164" lon="12.033493971719832"><ele>163.85714285714283</ele><time>2026-04-25T05:27:06.962Z</time></trkpt><trkpt lat="45.87205311077377" lon="12.033586309244031"><ele>163.71428571428572</ele><time>2026-04-25T05:27:07.962Z</time></trkpt><trkpt lat="45.87204224369225" lon="12.03368478372258"><ele>163.57142857142856</ele><time>2026-04-25T05:27:08.962Z</time></trkpt><trkpt lat="45.87202644403864" lon="12.033775958804865"><ele>163.42857142857142</ele><time>2026-04-25T05:27:09.962Z</time></trkpt><trkpt lat="45.872019538453195" lon="12.033874764823457"><ele>163.28571428571428</ele><time>2026-04-25T05:27:10.962Z</time></trkpt><trkpt lat="45.872015927202625" lon="12.033980258679716"><ele>163.14285714285714</ele><time>2026-04-25T05:27:11.962Z</time></trkpt><trkpt lat="45.87203005527062" lon="12.03409555512361"><ele>163.0</ele><time>2026-04-25T05:27:12.962Z</time></trkpt><trkpt lat="45.872070287531095" lon="12.034213747798605"><ele>162.0</ele><time>2026-04-25T05:27:13.962Z</time></trkpt><trkpt lat="45.87212969363109" lon="12.034321737421992"><ele>161.0</ele><time>2026-04-25T05:27:14.962Z</time></trkpt><trkpt lat="45.87220014630626" lon="12.034425507873426"><ele>160.0</ele><time>2026-04-25T05:27:15.962Z</time></trkpt><trkpt lat="45.87227297652959" lon="12.034538688113855"><ele>159.0</ele><time>2026-04-25T05:27:16.962Z</time></trkpt><trkpt lat="45.87234316139586" lon="12.034660960802311"><ele>158.0</ele><time>2026-04-25T05:27:17.962Z</time></trkpt><trkpt lat="45.87242157771743" lon="12.034782629640668"><ele>158.0</ele><time>2026-04-25T05:27:18.962Z</time></trkpt><trkpt lat="45.87251084864574" lon="12.034896650787585"><ele>158.0</ele><time>2026-04-25T05:27:19.962Z</time></trkpt><trkpt lat="45.87260654887945" lon="12.034995078934974"><ele>158.0</ele><time>2026-04-25T05:27:20.962Z</time></trkpt><trkpt lat="45.8726964438627" lon="12.03507656939587"><ele>158.0</ele><time>2026-04-25T05:27:21.962Z</time></trkpt><trkpt lat="45.87277945524156" lon="12.035147455485516"><ele>158.0</ele><time>2026-04-25T05:27:22.962Z</time></trkpt><trkpt lat="45.87283459725451" lon="12.03521329189113"><ele>156.66666666666666</ele><time>2026-04-25T05:27:23.962Z</time></trkpt><trkpt lat="45.87286306649163" lon="12.035297099218113"><ele>155.33333333333331</ele><time>2026-04-25T05:27:24.962Z</time></trkpt><trkpt lat="45.87288055451901" lon="12.0353897089005"><ele>154.0</ele><time>2026-04-25T05:27:25.962Z</time></trkpt><trkpt lat="45.872911873170665" lon="12.035482448834019"><ele>152.66666666666666</ele><time>2026-04-25T05:27:26.962Z</time></trkpt><trkpt lat="45.872952621454345" lon="12.035580651161926"><ele>151.33333333333334</ele><time>2026-04-25T05:27:27.962Z</time></trkpt><trkpt lat="45.87300729737016" lon="12.035683346556741"><ele>150.0</ele><time>2026-04-25T05:27:28.962Z</time></trkpt><trkpt lat="45.873057017862486" lon="12.035781972048035"><ele>150.2</ele><time>2026-04-25T05:27:29.962Z</time></trkpt><trkpt lat="45.87311834434317" lon="12.035853917056993"><ele>150.4</ele><time>2026-04-25T05:27:30.962Z</time></trkpt><trkpt lat="45.87317515315883" lon="12.035911877048568"><ele>150.6</ele><time>2026-04-25T05:27:31.962Z</time></trkpt><trkpt lat="45.87323510877787" lon="12.036052796566857"><ele>150.8</ele><time>2026-04-25T05:27:33.962Z</time></trkpt><trkpt lat="45.87323088308711" lon="12.036201263332924"><ele>151.0</ele><time>2026-04-25T05:27:35.962Z</time></trkpt><trkpt lat="45.873271269423256" lon="12.036347598866108"><ele>151.0</ele><time>2026-04-25T05:27:37.962Z</time></trkpt><trkpt lat="45.87331167461253" lon="12.036420816542341"><ele>151.0</ele><time>2026-04-25T05:27:38.962Z</time></trkpt><trkpt lat="45.87338539095336" lon="12.036549457012057"><ele>151.0</ele><time>2026-04-25T05:27:40.962Z</time></trkpt><trkpt lat="45.87346704001433" lon="12.036660980803225"><ele>151.0</ele><time>2026-04-25T05:27:42.962Z</time></trkpt><trkpt lat="45.8735425843442" lon="12.03675092351538"><ele>151.0</ele><time>2026-04-25T05:27:44.962Z</time></trkpt><trkpt lat="45.87360896008877" lon="12.03682619937536"><ele>152.0</ele><time>2026-04-25T05:27:46.962Z</time></trkpt><trkpt lat="45.87366872493103" lon="12.03689967025596"><ele>153.0</ele><time>2026-04-25T05:27:48.961Z</time></trkpt><trkpt lat="45.87372537412683" lon="12.036966118337364"><ele>154.0</ele><time>2026-04-25T05:27:50.961Z</time></trkpt><trkpt lat="45.87378870480491" lon="12.03702106528066"><ele>155.0</ele><time>2026-04-25T05:27:52.961Z</time></trkpt><trkpt lat="45.87386165805221" lon="12.03708680243545"><ele>156.0</ele><time>2026-04-25T05:27:55.961Z</time></trkpt><trkpt lat="45.873921776256736" lon="12.037124693890974"><ele>157.0</ele><time>2026-04-25T05:27:57.961Z</time></trkpt><trkpt lat="45.87400957071809" lon="12.037178565145226"><ele>157.0</ele><time>2026-04-25T05:28:00.961Z</time></trkpt><trkpt lat="45.87407382284914" lon="12.037202697297765"><ele>157.0</ele><time>2026-04-25T05:28:03.961Z</time></trkpt><trkpt lat="45.87414153563969" lon="12.037215080867563"><ele>157.0</ele><time>2026-04-25T05:28:06.961Z</time></trkpt><trkpt lat="45.87421560426052" lon="12.03724877671874"><ele>157.0</ele><time>2026-04-25T05:28:09.961Z</time></trkpt><trkpt lat="45.87426767343811" lon="12.037303107892049"><ele>157.0</ele><time>2026-04-25T05:28:11.961Z</time></trkpt><trkpt lat="45.8743204557787" lon="12.03741134960505"><ele>157.0</ele><time>2026-04-25T05:28:13.961Z</time></trkpt><trkpt lat="45.8743637304391" lon="12.037516727896735"><ele>158.2</ele><time>2026-04-25T05:28:15.961Z</time></trkpt><trkpt lat="45.874406396379214" lon="12.037625065957268"><ele>159.39999999999998</ele><time>2026-04-25T05:28:17.961Z</time></trkpt><trkpt lat="45.874460873681244" lon="12.037726963367781"><ele>160.60000000000002</ele><time>2026-04-25T05:28:19.961Z</time></trkpt><trkpt lat="45.87451541534002" lon="12.03784643641075"><ele>161.8</ele><time>2026-04-25T05:28:21.961Z</time></trkpt><trkpt lat="45.87457986252878" lon="12.037985176263083"><ele>163.0</ele><time>2026-04-25T05:28:23.961Z</time></trkpt><trkpt lat="45.874655274249164" lon="12.038103851336697"><ele>163.0</ele><time>2026-04-25T05:28:25.961Z</time></trkpt><trkpt lat="45.87474004467497" lon="12.038194022088721"><ele>163.0</ele><time>2026-04-25T05:28:27.961Z</time></trkpt><trkpt lat="45.87488509827914" lon="12.038195733177163"><ele>163.0</ele><time>2026-04-25T05:28:30.961Z</time></trkpt><trkpt lat="45.87497881326768" lon="12.038244482853246"><ele>163.0</ele><time>2026-04-25T05:28:32.961Z</time></trkpt><trkpt lat="45.875064301116524" lon="12.038347093322338"><ele>164.2</ele><time>2026-04-25T05:28:34.961Z</time></trkpt><trkpt lat="45.8751260522158" lon="12.038480598900742"><ele>165.4</ele><time>2026-04-25T05:28:36.96Z</time></trkpt><trkpt lat="45.87513384512037" lon="12.03863456319974"><ele>166.6</ele><time>2026-04-25T05:28:38.96Z</time></trkpt><trkpt lat="45.875137160669425" lon="12.038786850874477"><ele>167.79999999999998</ele><time>2026-04-25T05:28:40.96Z</time></trkpt><trkpt lat="45.87513229700557" lon="12.038931871502786"><ele>169.0</ele><time>2026-04-25T05:28:42.96Z</time></trkpt><trkpt lat="45.875135315296056" lon="12.03908614769571"><ele>167.79999999999998</ele><time>2026-04-25T05:28:44.96Z</time></trkpt><trkpt lat="45.875093290276226" lon="12.039207459611326"><ele>166.6</ele><time>2026-04-25T05:28:46.96Z</time></trkpt><trkpt lat="45.87507875072591" lon="12.039379110280148"><ele>165.4</ele><time>2026-04-25T05:28:48.96Z</time></trkpt><trkpt lat="45.87505408946651" lon="12.039560827152961"><ele>164.2</ele><time>2026-04-25T05:28:50.962Z</time></trkpt><trkpt lat="45.87504659841119" lon="12.03965156215667"><ele>163.0</ele><time>2026-04-25T05:28:51.962Z</time></trkpt><trkpt lat="45.875045253738364" lon="12.039828595366966"><ele>163.0</ele><time>2026-04-25T05:28:53.962Z</time></trkpt><trkpt lat="45.87506934035506" lon="12.039986872753538"><ele>163.0</ele><time>2026-04-25T05:28:55.962Z</time></trkpt><trkpt lat="45.875103845611804" lon="12.040140124628602"><ele>163.0</ele><time>2026-04-25T05:28:57.961Z</time></trkpt><trkpt lat="45.875128152930415" lon="12.040225804550944"><ele>163.0</ele><time>2026-04-25T05:28:58.961Z</time></trkpt><trkpt lat="45.87517441871574" lon="12.040381784140376"><ele>163.0</ele><time>2026-04-25T05:29:00.961Z</time></trkpt><trkpt lat="45.87521917171272" lon="12.040530280060935"><ele>164.5</ele><time>2026-04-25T05:29:02.962Z</time></trkpt><trkpt lat="45.875257004069105" lon="12.040659951744821"><ele>166.0</ele><time>2026-04-25T05:29:04.962Z</time></trkpt><trkpt lat="45.87527737147266" lon="12.040780942916067"><ele>167.5</ele><time>2026-04-25T05:29:06.962Z</time></trkpt><trkpt lat="45.875299232996056" lon="12.040893212863965"><ele>169.0</ele><time>2026-04-25T05:29:08.961Z</time></trkpt><trkpt lat="45.87532241977599" lon="12.041021581968305"><ele>170.5</ele><time>2026-04-25T05:29:11.961Z</time></trkpt><trkpt lat="45.87536399580926" lon="12.041125210668138"><ele>172.0</ele><time>2026-04-25T05:29:14.961Z</time></trkpt><trkpt lat="45.87540696097375" lon="12.041218094388375"><ele>172.2857142857143</ele><time>2026-04-25T05:29:17.961Z</time></trkpt><trkpt lat="45.87545860215988" lon="12.041287470398588"><ele>172.57142857142858</ele><time>2026-04-25T05:29:20.961Z</time></trkpt><trkpt lat="45.87552920348131" lon="12.041336620899639"><ele>172.85714285714286</ele><time>2026-04-25T05:29:24.961Z</time></trkpt><trkpt lat="45.87558878924259" lon="12.041367578712919"><ele>173.14285714285717</ele><time>2026-04-25T05:29:27.961Z</time></trkpt><trkpt lat="45.87565286809022" lon="12.041387041571074"><ele>173.42857142857144</ele><time>2026-04-25T05:29:31.961Z</time></trkpt><trkpt lat="45.87572825589228" lon="12.04143082612587"><ele>173.71428571428572</ele><time>2026-04-25T05:29:35.961Z</time></trkpt><trkpt lat="45.87580131449341" lon="12.041479010578367"><ele>174.0</ele><time>2026-04-25T05:29:41.961Z</time></trkpt><trkpt lat="45.8758642478833" lon="12.04150338641562"><ele>174.0</ele><time>2026-04-25T05:29:46.961Z</time></trkpt><trkpt lat="45.8759321576665" lon="12.041520869415388"><ele>174.0</ele><time>2026-04-25T05:29:50.961Z</time></trkpt><trkpt lat="45.87597763144181" lon="12.041604329347454"><ele>174.0</ele><time>2026-04-25T05:29:53.961Z</time></trkpt><trkpt lat="45.87603201360782" lon="12.041714793428264"><ele>174.0</ele><time>2026-04-25T05:29:56.96Z</time></trkpt><trkpt lat="45.87606081266079" lon="12.041810833627938"><ele>174.0</ele><time>2026-04-25T05:29:58.96Z</time></trkpt><trkpt lat="45.87614198041963" lon="12.041913789889888"><ele>174.0</ele><time>2026-04-25T05:30:00.96Z</time></trkpt><trkpt lat="45.87621363550732" lon="12.041962094565665"><ele>176.39999999999998</ele><time>2026-04-25T05:30:01.96Z</time></trkpt><trkpt lat="45.87628668671031" lon="12.042019284202414"><ele>178.8</ele><time>2026-04-25T05:30:02.96Z</time></trkpt><trkpt lat="45.87634861511381" lon="12.042075547958687"><ele>181.2</ele><time>2026-04-25T05:30:03.96Z</time></trkpt><trkpt lat="45.87641567974779" lon="12.042141872685441"><ele>183.60000000000002</ele><time>2026-04-25T05:30:04.96Z</time></trkpt><trkpt lat="45.87648848815415" lon="12.042267633059263"><ele>186.0</ele><time>2026-04-25T05:30:05.96Z</time></trkpt><trkpt lat="45.87657271607756" lon="12.042398274523121"><ele>182.0</ele><time>2026-04-25T05:30:06.96Z</time></trkpt><trkpt lat="45.87661304011365" lon="12.042546467383413"><ele>178.0</ele><time>2026-04-25T05:30:07.96Z</time></trkpt><trkpt lat="45.876644549552566" lon="12.042713448950877"><ele>174.0</ele><time>2026-04-25T05:30:08.96Z</time></trkpt><trkpt lat="45.87664926836743" lon="12.042930033346256"><ele>170.0</ele><time>2026-04-25T05:30:09.96Z</time></trkpt><trkpt lat="45.876641390698644" lon="12.043084987092298"><ele>170.0</ele><time>2026-04-25T05:30:10.96Z</time></trkpt><trkpt lat="45.87663136079852" lon="12.043240972310118"><ele>170.0</ele><time>2026-04-25T05:30:11.96Z</time></trkpt><trkpt lat="45.87662114996726" lon="12.043402274266722"><ele>170.0</ele><time>2026-04-25T05:30:12.96Z</time></trkpt><trkpt lat="45.876615399483214" lon="12.043561432038368"><ele>170.0</ele><time>2026-04-25T05:30:13.96Z</time></trkpt><trkpt lat="45.87661565372424" lon="12.043712107222444"><ele>170.0</ele><time>2026-04-25T05:30:14.96Z</time></trkpt><trkpt lat="45.876618436399795" lon="12.043847798444217"><ele>168.2</ele><time>2026-04-25T05:30:15.96Z</time></trkpt><trkpt lat="45.87662262131888" lon="12.043952667555093"><ele>166.4</ele><time>2026-04-25T05:30:16.96Z</time></trkpt><trkpt lat="45.87661783868947" lon="12.044048055414851"><ele>164.60000000000002</ele><time>2026-04-25T05:30:17.96Z</time></trkpt><trkpt lat="45.876571430586466" lon="12.044209222955967"><ele>162.8</ele><time>2026-04-25T05:30:19.96Z</time></trkpt><trkpt lat="45.87651800657982" lon="12.044353232778809"><ele>161.0</ele><time>2026-04-25T05:30:21.96Z</time></trkpt><trkpt lat="45.87651803406563" lon="12.04451350471234"><ele>160.0</ele><time>2026-04-25T05:30:23.96Z</time></trkpt><trkpt lat="45.87656495225777" lon="12.044693519816038"><ele>159.0</ele><time>2026-04-25T05:30:25.96Z</time></trkpt><trkpt lat="45.87647384454169" lon="12.044745122741217"><ele>158.0</ele><time>2026-04-25T05:30:28.96Z</time></trkpt><trkpt lat="45.87639205298622" lon="12.044799007723848"><ele>157.0</ele><time>2026-04-25T05:30:30.96Z</time></trkpt><trkpt lat="45.87631000561172" lon="12.044830953551141"><ele>156.0</ele><time>2026-04-25T05:30:32.96Z</time></trkpt><trkpt lat="45.876224746766646" lon="12.044817644864741"><ele>156.0</ele><time>2026-04-25T05:30:34.96Z</time></trkpt><trkpt lat="45.876138199245695" lon="12.044767388618466"><ele>156.0</ele><time>2026-04-25T05:30:36.96Z</time></trkpt><trkpt lat="45.876031874699315" lon="12.044776188085429"><ele>156.0</ele><time>2026-04-25T05:30:38.96Z</time></trkpt><trkpt lat="45.87596349667906" lon="12.044815937754231"><ele>156.0</ele><time>2026-04-25T05:30:39.96Z</time></trkpt><trkpt lat="45.875892415417624" lon="12.04484594132019"><ele>156.0</ele><time>2026-04-25T05:30:40.96Z</time></trkpt><trkpt lat="45.87581536314431" lon="12.044889631032731"><ele>156.0</ele><time>2026-04-25T05:30:41.96Z</time></trkpt><trkpt lat="45.87573968885493" lon="12.044920162054302"><ele>155.0</ele><time>2026-04-25T05:30:42.96Z</time></trkpt><trkpt lat="45.87565541395895" lon="12.044950853366277"><ele>154.0</ele><time>2026-04-25T05:30:43.959Z</time></trkpt><trkpt lat="45.8755761831844" lon="12.044989862183638"><ele>153.0</ele><time>2026-04-25T05:30:44.959Z</time></trkpt><trkpt lat="45.87549583648098" lon="12.045040594688013"><ele>152.0</ele><time>2026-04-25T05:30:45.959Z</time></trkpt><trkpt lat="45.87542269244535" lon="12.045107618274118"><ele>151.0</ele><time>2026-04-25T05:30:46.959Z</time></trkpt><trkpt lat="45.875355393327766" lon="12.04518291121744"><ele>150.0</ele><time>2026-04-25T05:30:47.959Z</time></trkpt><trkpt lat="45.87528746348496" lon="12.04526542838948"><ele>150.0</ele><time>2026-04-25T05:30:48.959Z</time></trkpt><trkpt lat="45.87522821223454" lon="12.045359173198305"><ele>150.0</ele><time>2026-04-25T05:30:49.959Z</time></trkpt><trkpt lat="45.87515420777894" lon="12.045440582997196"><ele>150.0</ele><time>2026-04-25T05:30:50.959Z</time></trkpt><trkpt lat="45.87509829987103" lon="12.045527452372792"><ele>150.0</ele><time>2026-04-25T05:30:51.959Z</time></trkpt><trkpt lat="45.875028384676895" lon="12.045615217520353"><ele>150.0</ele><time>2026-04-25T05:30:52.959Z</time></trkpt><trkpt lat="45.874970418981924" lon="12.045710701810608"><ele>150.0</ele><time>2026-04-25T05:30:53.959Z</time></trkpt><trkpt lat="45.87492016188532" lon="12.045805370420334"><ele>149.33333333333334</ele><time>2026-04-25T05:30:54.959Z</time></trkpt><trkpt lat="45.87485641007118" lon="12.045886020478502"><ele>148.66666666666666</ele><time>2026-04-25T05:30:55.959Z</time></trkpt><trkpt lat="45.87478799792361" lon="12.045941212477555"><ele>148.0</ele><time>2026-04-25T05:30:56.96Z</time></trkpt><trkpt lat="45.874684242782166" lon="12.045998743530037"><ele>147.33333333333331</ele><time>2026-04-25T05:30:58.96Z</time></trkpt><trkpt lat="45.87460695996979" lon="12.046008589053114"><ele>146.66666666666666</ele><time>2026-04-25T05:30:59.961Z</time></trkpt><trkpt lat="45.874524486446084" lon="12.046007570400656"><ele>146.0</ele><time>2026-04-25T05:31:00.96Z</time></trkpt><trkpt lat="45.874456315837755" lon="12.045968516415693"><ele>146.0</ele><time>2026-04-25T05:31:01.96Z</time></trkpt><trkpt lat="45.87439192497124" lon="12.04593386335687"><ele>146.0</ele><time>2026-04-25T05:31:02.96Z</time></trkpt><trkpt lat="45.87425450245816" lon="12.045884738454214"><ele>146.0</ele><time>2026-04-25T05:31:04.96Z</time></trkpt><trkpt lat="45.87417334274217" lon="12.045878869438113"><ele>146.0</ele><time>2026-04-25T05:31:05.96Z</time></trkpt><trkpt lat="45.874092322342165" lon="12.045864612200965"><ele>146.0</ele><time>2026-04-25T05:31:06.961Z</time></trkpt><trkpt lat="45.87399419300708" lon="12.045844646345524"><ele>145.83333333333331</ele><time>2026-04-25T05:31:07.961Z</time></trkpt><trkpt lat="45.87390083953653" lon="12.045833281874446"><ele>145.66666666666666</ele><time>2026-04-25T05:31:08.96Z</time></trkpt><trkpt lat="45.87381817582786" lon="12.045822816081523"><ele>145.5</ele><time>2026-04-25T05:31:09.961Z</time></trkpt><trkpt lat="45.87372889397679" lon="12.045809442944023"><ele>145.33333333333334</ele><time>2026-04-25T05:31:10.961Z</time></trkpt><trkpt lat="45.87364681849882" lon="12.045801903955347"><ele>145.16666666666669</ele><time>2026-04-25T05:31:11.961Z</time></trkpt><trkpt lat="45.87356255996629" lon="12.045803693624437"><ele>145.0</ele><time>2026-04-25T05:31:12.961Z</time></trkpt><trkpt lat="45.87347489462804" lon="12.045814233160485"><ele>144.66666666666669</ele><time>2026-04-25T05:31:13.96Z</time></trkpt><trkpt lat="45.87338738093262" lon="12.045832933130308"><ele>144.33333333333334</ele><time>2026-04-25T05:31:14.96Z</time></trkpt><trkpt lat="45.873304794071586" lon="12.045858972440122"><ele>144.0</ele><time>2026-04-25T05:31:15.96Z</time></trkpt><trkpt lat="45.87321795777492" lon="12.045884574169188"><ele>143.66666666666666</ele><time>2026-04-25T05:31:16.96Z</time></trkpt><trkpt lat="45.873142673043425" lon="12.045904804600045"><ele>143.33333333333331</ele><time>2026-04-25T05:31:17.96Z</time></trkpt><trkpt lat="45.873063154176215" lon="12.045890616455273"><ele>143.0</ele><time>2026-04-25T05:31:18.96Z</time></trkpt><trkpt lat="45.87298342854907" lon="12.04585937536143"><ele>143.0</ele><time>2026-04-25T05:31:19.96Z</time></trkpt><trkpt lat="45.87289741521736" lon="12.045834252093435"><ele>143.0</ele><time>2026-04-25T05:31:20.96Z</time></trkpt><trkpt lat="45.872822149458955" lon="12.045798481093929"><ele>143.0</ele><time>2026-04-25T05:31:21.96Z</time></trkpt><trkpt lat="45.87274580672543" lon="12.045758097879258"><ele>143.0</ele><time>2026-04-25T05:31:22.96Z</time></trkpt><trkpt lat="45.87266887550247" lon="12.045720785506674"><ele>143.0</ele><time>2026-04-25T05:31:23.96Z</time></trkpt><trkpt lat="45.87259448494254" lon="12.045673304751801"><ele>143.0</ele><time>2026-04-25T05:31:24.96Z</time></trkpt><trkpt lat="45.87252933459377" lon="12.045634200289639"><ele>142.33333333333331</ele><time>2026-04-25T05:31:25.96Z</time></trkpt><trkpt lat="45.872467010625755" lon="12.045545065466852"><ele>141.66666666666666</ele><time>2026-04-25T05:31:26.96Z</time></trkpt><trkpt lat="45.87240013760024" lon="12.045479457596901"><ele>141.0</ele><time>2026-04-25T05:31:27.96Z</time></trkpt><trkpt lat="45.87233787466769" lon="12.045404938369071"><ele>140.33333333333334</ele><time>2026-04-25T05:31:28.96Z</time></trkpt><trkpt lat="45.872274363467696" lon="12.045336501281193"><ele>139.66666666666669</ele><time>2026-04-25T05:31:29.96Z</time></trkpt><trkpt lat="45.8722082151836" lon="12.045272970419504"><ele>139.0</ele><time>2026-04-25T05:31:30.96Z</time></trkpt><trkpt lat="45.87212429088366" lon="12.045211313068252"><ele>139.0</ele><time>2026-04-25T05:31:31.96Z</time></trkpt><trkpt lat="45.87204657094577" lon="12.045169509328174"><ele>139.0</ele><time>2026-04-25T05:31:32.96Z</time></trkpt><trkpt lat="45.8719168036931" lon="12.045089614266454"><ele>139.0</ele><time>2026-04-25T05:31:34.96Z</time></trkpt><trkpt lat="45.87183651216462" lon="12.04505961808768"><ele>139.0</ele><time>2026-04-25T05:31:35.96Z</time></trkpt><trkpt lat="45.87175640717332" lon="12.04505001242211"><ele>139.0</ele><time>2026-04-25T05:31:36.96Z</time></trkpt><trkpt lat="45.871676407661" lon="12.045019076171856"><ele>139.16666666666669</ele><time>2026-04-25T05:31:37.96Z</time></trkpt><trkpt lat="45.87159648302869" lon="12.044984823260975"><ele>139.33333333333334</ele><time>2026-04-25T05:31:38.96Z</time></trkpt><trkpt lat="45.871518551471425" lon="12.044953793359454"><ele>139.5</ele><time>2026-04-25T05:31:39.96Z</time></trkpt><trkpt lat="45.87143357528205" lon="12.044926195017746"><ele>139.66666666666666</ele><time>2026-04-25T05:31:40.96Z</time></trkpt><trkpt lat="45.87135570647416" lon="12.04488797236367"><ele>139.83333333333331</ele><time>2026-04-25T05:31:41.96Z</time></trkpt><trkpt lat="45.87127289770028" lon="12.044844946652683"><ele>140.0</ele><time>2026-04-25T05:31:42.96Z</time></trkpt><trkpt lat="45.87118865796264" lon="12.04480445289799"><ele>140.33333333333331</ele><time>2026-04-25T05:31:43.96Z</time></trkpt><trkpt lat="45.871110065409404" lon="12.044748570576008"><ele>140.66666666666666</ele><time>2026-04-25T05:31:44.96Z</time></trkpt><trkpt lat="45.8710357111946" lon="12.04467806720782"><ele>141.0</ele><time>2026-04-25T05:31:45.96Z</time></trkpt><trkpt lat="45.87097175655973" lon="12.04460269081514"><ele>141.33333333333334</ele><time>2026-04-25T05:31:46.96Z</time></trkpt><trkpt lat="45.87091151412846" lon="12.044519396952962"><ele>141.66666666666669</ele><time>2026-04-25T05:31:47.96Z</time></trkpt><trkpt lat="45.87085296630764" lon="12.044433072706765"><ele>142.0</ele><time>2026-04-25T05:31:48.96Z</time></trkpt><trkpt lat="45.870803831980155" lon="12.044342850701435"><ele>142.0</ele><time>2026-04-25T05:31:49.96Z</time></trkpt><trkpt lat="45.87075318607215" lon="12.044249760225927"><ele>142.0</ele><time>2026-04-25T05:31:50.96Z</time></trkpt><trkpt lat="45.870702879918454" lon="12.04417479189141"><ele>142.0</ele><time>2026-04-25T05:31:51.96Z</time></trkpt><trkpt lat="45.87064460230292" lon="12.044084118031506"><ele>142.0</ele><time>2026-04-25T05:31:52.96Z</time></trkpt><trkpt lat="45.87059870481841" lon="12.043981588643655"><ele>142.0</ele><time>2026-04-25T05:31:53.96Z</time></trkpt><trkpt lat="45.870554882184706" lon="12.04387997239554"><ele>142.0</ele><time>2026-04-25T05:31:54.96Z</time></trkpt><trkpt lat="45.87050560842083" lon="12.043789003142244"><ele>142.16666666666669</ele><time>2026-04-25T05:31:55.96Z</time></trkpt><trkpt lat="45.87045706150072" lon="12.04370116199888"><ele>142.33333333333334</ele><time>2026-04-25T05:31:56.96Z</time></trkpt><trkpt lat="45.870406863800184" lon="12.04361061000817"><ele>142.5</ele><time>2026-04-25T05:31:57.96Z</time></trkpt><trkpt lat="45.87036197004849" lon="12.043523428054652"><ele>142.66666666666666</ele><time>2026-04-25T05:31:58.96Z</time></trkpt><trkpt lat="45.870313732610825" lon="12.043442469481512"><ele>142.83333333333331</ele><time>2026-04-25T05:31:59.96Z</time></trkpt><trkpt lat="45.87027423322208" lon="12.043349228978402"><ele>143.0</ele><time>2026-04-25T05:32:00.96Z</time></trkpt><trkpt lat="45.87022077849689" lon="12.043263480951605"><ele>142.83333333333331</ele><time>2026-04-25T05:32:01.959Z</time></trkpt><trkpt lat="45.870171498790626" lon="12.043169822503351"><ele>142.66666666666666</ele><time>2026-04-25T05:32:02.959Z</time></trkpt><trkpt lat="45.870123321808464" lon="12.043073260415218"><ele>142.5</ele><time>2026-04-25T05:32:03.959Z</time></trkpt><trkpt lat="45.87007776335499" lon="12.042981945024655"><ele>142.33333333333334</ele><time>2026-04-25T05:32:04.959Z</time></trkpt><trkpt lat="45.87001990025786" lon="12.042896691122959"><ele>142.16666666666669</ele><time>2026-04-25T05:32:05.959Z</time></trkpt><trkpt lat="45.86996821646962" lon="12.04282552588228"><ele>142.0</ele><time>2026-04-25T05:32:06.959Z</time></trkpt><trkpt lat="45.86990877197256" lon="12.0427621753561"><ele>142.0</ele><time>2026-04-25T05:32:07.959Z</time></trkpt><trkpt lat="45.86985864405221" lon="12.042696527509392"><ele>142.0</ele><time>2026-04-25T05:32:08.959Z</time></trkpt><trkpt lat="45.86980691320558" lon="12.042618747310206"><ele>142.0</ele><time>2026-04-25T05:32:09.959Z</time></trkpt><trkpt lat="45.869761252593655" lon="12.042549156889198"><ele>142.0</ele><time>2026-04-25T05:32:10.959Z</time></trkpt><trkpt lat="45.869711770492614" lon="12.04247695527114"><ele>142.0</ele><time>2026-04-25T05:32:11.959Z</time></trkpt><trkpt lat="45.869660827009525" lon="12.042408232988922"><ele>142.0</ele><time>2026-04-25T05:32:12.959Z</time></trkpt><trkpt lat="45.86961487582798" lon="12.042343384227074"><ele>142.0</ele><time>2026-04-25T05:32:13.959Z</time></trkpt><trkpt lat="45.86955958432674" lon="12.042282392989444"><ele>142.5</ele><time>2026-04-25T05:32:14.959Z</time></trkpt><trkpt lat="45.86950477476565" lon="12.042228739944594"><ele>143.0</ele><time>2026-04-25T05:32:15.959Z</time></trkpt><trkpt lat="45.869411342402216" lon="12.042180625089609"><ele>143.5</ele><time>2026-04-25T05:32:17.959Z</time></trkpt><trkpt lat="45.86931857442346" lon="12.042108457188071"><ele>144.0</ele><time>2026-04-25T05:32:19.959Z</time></trkpt><trkpt lat="45.86926076494038" lon="12.04206841851975"><ele>144.5</ele><time>2026-04-25T05:32:22.959Z</time></trkpt><trkpt lat="45.869202240231054" lon="12.042007468176786"><ele>145.0</ele><time>2026-04-25T05:32:24.959Z</time></trkpt><trkpt lat="45.869114283968315" lon="12.041927784714494"><ele>145.28571428571428</ele><time>2026-04-25T05:32:26.959Z</time></trkpt><trkpt lat="45.869065598119015" lon="12.041854530065134"><ele>145.57142857142858</ele><time>2026-04-25T05:32:27.959Z</time></trkpt><trkpt lat="45.86899977927277" lon="12.041801023029633"><ele>145.85714285714286</ele><time>2026-04-25T05:32:28.959Z</time></trkpt><trkpt lat="45.868937956770374" lon="12.041759566793031"><ele>146.14285714285714</ele><time>2026-04-25T05:32:29.959Z</time></trkpt><trkpt lat="45.868837593204496" lon="12.041736691324324"><ele>146.42857142857144</ele><time>2026-04-25T05:32:31.959Z</time></trkpt><trkpt lat="45.86877356775273" lon="12.04172846012276"><ele>146.71428571428572</ele><time>2026-04-25T05:32:32.959Z</time></trkpt><trkpt lat="45.868707540411776" lon="12.041724759078388"><ele>147.0</ele><time>2026-04-25T05:32:33.959Z</time></trkpt><trkpt lat="45.86863079776367" lon="12.041763144802252"><ele>147.0</ele><time>2026-04-25T05:32:34.959Z</time></trkpt><trkpt lat="45.868562798637726" lon="12.041823950310667"><ele>147.0</ele><time>2026-04-25T05:32:35.959Z</time></trkpt><trkpt lat="45.86850979747741" lon="12.041882454219587"><ele>147.0</ele><time>2026-04-25T05:32:36.959Z</time></trkpt><trkpt lat="45.868447482338716" lon="12.04194740119288"><ele>147.0</ele><time>2026-04-25T05:32:37.959Z</time></trkpt><trkpt lat="45.86836923937471" lon="12.0420069976862"><ele>147.0</ele><time>2026-04-25T05:32:38.959Z</time></trkpt><trkpt lat="45.868298671695" lon="12.042066939305043"><ele>147.0</ele><time>2026-04-25T05:32:39.959Z</time></trkpt><trkpt lat="45.868231301677206" lon="12.042130555600044"><ele>146.66666666666666</ele><time>2026-04-25T05:32:40.959Z</time></trkpt><trkpt lat="45.868161426409486" lon="12.042174708886801"><ele>146.33333333333334</ele><time>2026-04-25T05:32:41.959Z</time></trkpt><trkpt lat="45.86807926323225" lon="12.042185842942638"><ele>146.0</ele><time>2026-04-25T05:32:42.959Z</time></trkpt><trkpt lat="45.867958772593575" lon="12.04213189055167"><ele>145.66666666666669</ele><time>2026-04-25T05:32:44.959Z</time></trkpt><trkpt lat="45.86792264004457" lon="12.042044724865097"><ele>145.33333333333334</ele><time>2026-04-25T05:32:45.959Z</time></trkpt><trkpt lat="45.8678698212011" lon="12.041964630164241"><ele>145.0</ele><time>2026-04-25T05:32:46.959Z</time></trkpt><trkpt lat="45.867816183755004" lon="12.041900635150505"><ele>145.0</ele><time>2026-04-25T05:32:47.959Z</time></trkpt><trkpt lat="45.86774490573618" lon="12.041846490253395"><ele>145.0</ele><time>2026-04-25T05:32:48.959Z</time></trkpt><trkpt lat="45.86767168974343" lon="12.041848956906163"><ele>145.0</ele><time>2026-04-25T05:32:49.958Z</time></trkpt><trkpt lat="45.86759725732925" lon="12.041877959896231"><ele>145.0</ele><time>2026-04-25T05:32:50.958Z</time></trkpt><trkpt lat="45.86754515679785" lon="12.041933641575856"><ele>145.0</ele><time>2026-04-25T05:32:51.958Z</time></trkpt><trkpt lat="45.86748102767152" lon="12.041981732288702"><ele>145.0</ele><time>2026-04-25T05:32:52.958Z</time></trkpt><trkpt lat="45.86740629307083" lon="12.042011799225524"><ele>145.0</ele><time>2026-04-25T05:32:53.958Z</time></trkpt><trkpt lat="45.867335987884815" lon="12.042047335214033"><ele>144.83333333333334</ele><time>2026-04-25T05:32:54.958Z</time></trkpt><trkpt lat="45.86727134069117" lon="12.042080680061511"><ele>144.66666666666669</ele><time>2026-04-25T05:32:55.958Z</time></trkpt><trkpt lat="45.86720836037172" lon="12.042109772489397"><ele>144.5</ele><time>2026-04-25T05:32:56.958Z</time></trkpt><trkpt lat="45.86713884469945" lon="12.04213672977343"><ele>144.33333333333334</ele><time>2026-04-25T05:32:57.958Z</time></trkpt><trkpt lat="45.86707262958566" lon="12.0421483998669"><ele>144.16666666666666</ele><time>2026-04-25T05:32:58.958Z</time></trkpt><trkpt lat="45.86700218963134" lon="12.042156815104734"><ele>144.0</ele><time>2026-04-25T05:32:59.958Z</time></trkpt><trkpt lat="45.86689164530919" lon="12.042174287557389"><ele>144.0</ele><time>2026-04-25T05:33:01.958Z</time></trkpt><trkpt lat="45.86678120602446" lon="12.042242204308856"><ele>144.0</ele><time>2026-04-25T05:33:03.96Z</time></trkpt><trkpt lat="45.86674948676236" lon="12.04233246695309"><ele>144.0</ele><time>2026-04-25T05:33:05.959Z</time></trkpt><trkpt lat="45.866741956915824" lon="12.042451380016065"><ele>144.0</ele><time>2026-04-25T05:33:07.959Z</time></trkpt><trkpt lat="45.86674799954647" lon="12.042637500400547"><ele>144.0</ele><time>2026-04-25T05:33:09.96Z</time></trkpt><trkpt lat="45.86678044808153" lon="12.042809767253218"><ele>144.16666666666666</ele><time>2026-04-25T05:33:11.959Z</time></trkpt><trkpt lat="45.86677442403119" lon="12.04291707661124"><ele>144.33333333333334</ele><time>2026-04-25T05:33:12.959Z</time></trkpt><trkpt lat="45.86678747399861" lon="12.043024825512456"><ele>144.5</ele><time>2026-04-25T05:33:13.959Z</time></trkpt><trkpt lat="45.86678967017712" lon="12.043138570447967"><ele>144.66666666666669</ele><time>2026-04-25T05:33:14.96Z</time></trkpt><trkpt lat="45.86678535147096" lon="12.043249949335445"><ele>144.83333333333334</ele><time>2026-04-25T05:33:15.959Z</time></trkpt><trkpt lat="45.866791749638445" lon="12.043359831673195"><ele>145.0</ele><time>2026-04-25T05:33:16.959Z</time></trkpt><trkpt lat="45.866804235809646" lon="12.043458215133498"><ele>145.0</ele><time>2026-04-25T05:33:17.959Z</time></trkpt><trkpt lat="45.86681549197095" lon="12.043565390251219"><ele>145.0</ele><time>2026-04-25T05:33:18.959Z</time></trkpt><trkpt lat="45.86682996871323" lon="12.043759042338664"><ele>145.0</ele><time>2026-04-25T05:33:20.959Z</time></trkpt><trkpt lat="45.866830068081015" lon="12.043873166129321"><ele>145.0</ele><time>2026-04-25T05:33:21.959Z</time></trkpt><trkpt lat="45.86683488482565" lon="12.04397363004012"><ele>145.0</ele><time>2026-04-25T05:33:22.959Z</time></trkpt><trkpt lat="45.86684161517588" lon="12.044078692004417"><ele>145.0</ele><time>2026-04-25T05:33:23.959Z</time></trkpt><trkpt lat="45.86684105960545" lon="12.044183689842397"><ele>145.0</ele><time>2026-04-25T05:33:24.959Z</time></trkpt><trkpt lat="45.86684858165711" lon="12.04429546856697"><ele>145.0</ele><time>2026-04-25T05:33:25.959Z</time></trkpt><trkpt lat="45.86685510120181" lon="12.044402646089205"><ele>145.0</ele><time>2026-04-25T05:33:26.959Z</time></trkpt><trkpt lat="45.86686471247579" lon="12.044505404305765"><ele>145.0</ele><time>2026-04-25T05:33:27.959Z</time></trkpt><trkpt lat="45.86687468088155" lon="12.044610259188866"><ele>145.0</ele><time>2026-04-25T05:33:28.959Z</time></trkpt><trkpt lat="45.866876937338496" lon="12.044720387372559"><ele>145.0</ele><time>2026-04-25T05:33:29.959Z</time></trkpt><trkpt lat="45.8668828852422" lon="12.044823103037485"><ele>145.0</ele><time>2026-04-25T05:33:30.959Z</time></trkpt><trkpt lat="45.866892318279405" lon="12.044937705612096"><ele>145.16666666666669</ele><time>2026-04-25T05:33:31.959Z</time></trkpt><trkpt lat="45.86689578318572" lon="12.04504904814998"><ele>145.33333333333334</ele><time>2026-04-25T05:33:32.959Z</time></trkpt><trkpt lat="45.86690331775251" lon="12.045161671883841"><ele>145.5</ele><time>2026-04-25T05:33:33.959Z</time></trkpt><trkpt lat="45.86690245706962" lon="12.045275491667137"><ele>145.66666666666666</ele><time>2026-04-25T05:33:34.959Z</time></trkpt><trkpt lat="45.86690862304209" lon="12.045387402062445"><ele>145.83333333333331</ele><time>2026-04-25T05:33:35.959Z</time></trkpt><trkpt lat="45.86691262653116" lon="12.045498984622997"><ele>146.0</ele><time>2026-04-25T05:33:36.959Z</time></trkpt><trkpt lat="45.86691179517557" lon="12.045606124709456"><ele>146.0</ele><time>2026-04-25T05:33:37.959Z</time></trkpt><trkpt lat="45.86691231178335" lon="12.045722488663365"><ele>146.0</ele><time>2026-04-25T05:33:38.959Z</time></trkpt><trkpt lat="45.86690838048469" lon="12.04583507808347"><ele>146.0</ele><time>2026-04-25T05:33:39.959Z</time></trkpt><trkpt lat="45.86689909585056" lon="12.045947342878245"><ele>146.0</ele><time>2026-04-25T05:33:40.959Z</time></trkpt><trkpt lat="45.86688012741568" lon="12.046061431431593"><ele>146.0</ele><time>2026-04-25T05:33:41.959Z</time></trkpt><trkpt lat="45.86686322629181" lon="12.046174930088664"><ele>146.0</ele><time>2026-04-25T05:33:42.959Z</time></trkpt><trkpt lat="45.866847353560985" lon="12.046290718526679"><ele>145.66666666666666</ele><time>2026-04-25T05:33:43.959Z</time></trkpt><trkpt lat="45.866832497949915" lon="12.046403227771293"><ele>145.33333333333331</ele><time>2026-04-25T05:33:44.959Z</time></trkpt><trkpt lat="45.86681931761887" lon="12.046513785884683"><ele>145.0</ele><time>2026-04-25T05:33:45.959Z</time></trkpt><trkpt lat="45.86680364844739" lon="12.046623258388019"><ele>144.66666666666666</ele><time>2026-04-25T05:33:46.959Z</time></trkpt><trkpt lat="45.866793698213264" lon="12.046740646353006"><ele>144.33333333333334</ele><time>2026-04-25T05:33:47.959Z</time></trkpt><trkpt lat="45.866774363889526" lon="12.046856160403866"><ele>144.0</ele><time>2026-04-25T05:33:48.959Z</time></trkpt><trkpt lat="45.86673575633426" lon="12.046962888968604"><ele>144.0</ele><time>2026-04-25T05:33:49.959Z</time></trkpt><trkpt lat="45.86669841014144" lon="12.047063283445162"><ele>144.0</ele><time>2026-04-25T05:33:50.958Z</time></trkpt><trkpt lat="45.866654765129255" lon="12.047148820341153"><ele>144.0</ele><time>2026-04-25T05:33:51.958Z</time></trkpt><trkpt lat="45.86659559439583" lon="12.047226963870807"><ele>144.0</ele><time>2026-04-25T05:33:52.958Z</time></trkpt><trkpt lat="45.86653923739649" lon="12.047290494528008"><ele>144.0</ele><time>2026-04-25T05:33:53.958Z</time></trkpt><trkpt lat="45.86648925891575" lon="12.04736077950472"><ele>144.0</ele><time>2026-04-25T05:33:54.958Z</time></trkpt><trkpt lat="45.866440968580804" lon="12.047518047934409"><ele>144.16666666666666</ele><time>2026-04-25T05:33:56.958Z</time></trkpt><trkpt lat="45.86647275057931" lon="12.047607524588795"><ele>144.33333333333334</ele><time>2026-04-25T05:33:57.958Z</time></trkpt><trkpt lat="45.866524457517585" lon="12.047697219057634"><ele>144.5</ele><time>2026-04-25T05:33:58.958Z</time></trkpt><trkpt lat="45.86657358127454" lon="12.047774820287115"><ele>144.66666666666669</ele><time>2026-04-25T05:33:59.958Z</time></trkpt><trkpt lat="45.866610839555484" lon="12.047856575469034"><ele>144.83333333333334</ele><time>2026-04-25T05:34:00.958Z</time></trkpt><trkpt lat="45.866654858190905" lon="12.047951905944158"><ele>145.0</ele><time>2026-04-25T05:34:01.958Z</time></trkpt><trkpt lat="45.866693042334994" lon="12.048052060858735"><ele>145.0</ele><time>2026-04-25T05:34:02.958Z</time></trkpt><trkpt lat="45.8667286084987" lon="12.048149709659977"><ele>145.0</ele><time>2026-04-25T05:34:03.958Z</time></trkpt><trkpt lat="45.86676326287196" lon="12.048250273910352"><ele>145.0</ele><time>2026-04-25T05:34:04.958Z</time></trkpt><trkpt lat="45.866800158610616" lon="12.048357131129233"><ele>145.0</ele><time>2026-04-25T05:34:05.958Z</time></trkpt><trkpt lat="45.86683562470026" lon="12.048464552545717"><ele>145.0</ele><time>2026-04-25T05:34:06.958Z</time></trkpt><trkpt lat="45.86686805938796" lon="12.048568948307077"><ele>145.0</ele><time>2026-04-25T05:34:07.958Z</time></trkpt><trkpt lat="45.86690411946978" lon="12.04867669756679"><ele>145.0</ele><time>2026-04-25T05:34:08.958Z</time></trkpt><trkpt lat="45.86692873909917" lon="12.048783284430495"><ele>145.0</ele><time>2026-04-25T05:34:09.958Z</time></trkpt><trkpt lat="45.86695482661023" lon="12.048889418980433"><ele>145.0</ele><time>2026-04-25T05:34:10.958Z</time></trkpt><trkpt lat="45.866979007146696" lon="12.049002558563098"><ele>145.0</ele><time>2026-04-25T05:34:11.958Z</time></trkpt><trkpt lat="45.867007400166045" lon="12.049108066125537"><ele>145.0</ele><time>2026-04-25T05:34:12.958Z</time></trkpt><trkpt lat="45.867036081660544" lon="12.049210737288917"><ele>145.0</ele><time>2026-04-25T05:34:13.958Z</time></trkpt><trkpt lat="45.86705898284724" lon="12.04931547161304"><ele>145.0</ele><time>2026-04-25T05:34:14.958Z</time></trkpt><trkpt lat="45.86708870240456" lon="12.04941886094131"><ele>145.0</ele><time>2026-04-25T05:34:15.958Z</time></trkpt><trkpt lat="45.86711588892433" lon="12.049527061425701"><ele>145.0</ele><time>2026-04-25T05:34:16.958Z</time></trkpt><trkpt lat="45.86714625154369" lon="12.049625858942195"><ele>145.0</ele><time>2026-04-25T05:34:17.958Z</time></trkpt><trkpt lat="45.86717838358493" lon="12.04973547251436"><ele>145.0</ele><time>2026-04-25T05:34:18.958Z</time></trkpt><trkpt lat="45.867210188037895" lon="12.04983510033388"><ele>145.0</ele><time>2026-04-25T05:34:19.958Z</time></trkpt><trkpt lat="45.86723799512996" lon="12.049934233856458"><ele>144.66666666666669</ele><time>2026-04-25T05:34:20.958Z</time></trkpt><trkpt lat="45.86726397489583" lon="12.050036471974929"><ele>144.33333333333334</ele><time>2026-04-25T05:34:21.958Z</time></trkpt><trkpt lat="45.867289829384376" lon="12.0501464209435"><ele>144.0</ele><time>2026-04-25T05:34:22.958Z</time></trkpt><trkpt lat="45.86732018385936" lon="12.050251985585591"><ele>143.66666666666666</ele><time>2026-04-25T05:34:23.958Z</time></trkpt><trkpt lat="45.86735692371561" lon="12.05036074198047"><ele>143.33333333333331</ele><time>2026-04-25T05:34:24.958Z</time></trkpt><trkpt lat="45.867396697145146" lon="12.05045928621499"><ele>143.0</ele><time>2026-04-25T05:34:25.958Z</time></trkpt><trkpt lat="45.8674334706409" lon="12.050559075283923"><ele>143.0</ele><time>2026-04-25T05:34:26.958Z</time></trkpt><trkpt lat="45.867476050134705" lon="12.050663368343285"><ele>143.0</ele><time>2026-04-25T05:34:27.958Z</time></trkpt><trkpt lat="45.86751117228545" lon="12.050766254426595"><ele>143.0</ele><time>2026-04-25T05:34:28.958Z</time></trkpt><trkpt lat="45.86754218974401" lon="12.050875585508162"><ele>143.0</ele><time>2026-04-25T05:34:29.958Z</time></trkpt><trkpt lat="45.867567443693076" lon="12.0509822875622"><ele>143.0</ele><time>2026-04-25T05:34:30.958Z</time></trkpt><trkpt lat="45.86758429345532" lon="12.051091045278458"><ele>143.0</ele><time>2026-04-25T05:34:31.958Z</time></trkpt><trkpt lat="45.86759983530485" lon="12.051196287456177"><ele>142.85714285714283</ele><time>2026-04-25T05:34:32.958Z</time></trkpt><trkpt lat="45.86761597664103" lon="12.051302200362676"><ele>142.71428571428572</ele><time>2026-04-25T05:34:33.958Z</time></trkpt><trkpt lat="45.867629063025184" lon="12.051403372402797"><ele>142.57142857142856</ele><time>2026-04-25T05:34:34.958Z</time></trkpt><trkpt lat="45.86764562449266" lon="12.051503504133455"><ele>142.42857142857142</ele><time>2026-04-25T05:34:35.958Z</time></trkpt><trkpt lat="45.86765650887034" lon="12.051615725784036"><ele>142.28571428571428</ele><time>2026-04-25T05:34:36.958Z</time></trkpt><trkpt lat="45.8676641241385" lon="12.051716766647255"><ele>142.14285714285714</ele><time>2026-04-25T05:34:37.958Z</time></trkpt><trkpt lat="45.86768406695884" lon="12.051821305033478"><ele>142.0</ele><time>2026-04-25T05:34:38.957Z</time></trkpt><trkpt lat="45.86771172530558" lon="12.051908736257024"><ele>141.85714285714286</ele><time>2026-04-25T05:34:39.957Z</time></trkpt><trkpt lat="45.867733179263666" lon="12.052008407736608"><ele>141.7142857142857</ele><time>2026-04-25T05:34:40.957Z</time></trkpt><trkpt lat="45.867742532062344" lon="12.052103894932989"><ele>141.57142857142856</ele><time>2026-04-25T05:34:41.957Z</time></trkpt><trkpt lat="45.86774462461394" lon="12.052203829160952"><ele>141.42857142857142</ele><time>2026-04-25T05:34:42.957Z</time></trkpt><trkpt lat="45.867745517284" lon="12.052295893127761"><ele>141.28571428571428</ele><time>2026-04-25T05:34:43.957Z</time></trkpt><trkpt lat="45.867738479573106" lon="12.052393252883288"><ele>141.14285714285714</ele><time>2026-04-25T05:34:44.957Z</time></trkpt><trkpt lat="45.86772891994358" lon="12.052491021922334"><ele>141.0</ele><time>2026-04-25T05:34:45.957Z</time></trkpt><trkpt lat="45.86771884734799" lon="12.052583919788953"><ele>141.0</ele><time>2026-04-25T05:34:46.957Z</time></trkpt><trkpt lat="45.86769913231929" lon="12.052679748897946"><ele>141.0</ele><time>2026-04-25T05:34:47.957Z</time></trkpt><trkpt lat="45.86767899428312" lon="12.0527783881658"><ele>141.0</ele><time>2026-04-25T05:34:48.957Z</time></trkpt><trkpt lat="45.86764607115176" lon="12.052866544843194"><ele>141.0</ele><time>2026-04-25T05:34:49.957Z</time></trkpt><trkpt lat="45.867612181250706" lon="12.052955812508966"><ele>141.0</ele><time>2026-04-25T05:34:50.957Z</time></trkpt><trkpt lat="45.867579520377205" lon="12.053044887358453"><ele>141.0</ele><time>2026-04-25T05:34:51.957Z</time></trkpt><trkpt lat="45.86755507804411" lon="12.053140779170569"><ele>141.0</ele><time>2026-04-25T05:34:52.957Z</time></trkpt><trkpt lat="45.867530499484246" lon="12.053231186907249"><ele>140.57142857142858</ele><time>2026-04-25T05:34:53.957Z</time></trkpt><trkpt lat="45.86750103780637" lon="12.05332124934216"><ele>140.14285714285714</ele><time>2026-04-25T05:34:54.957Z</time></trkpt><trkpt lat="45.86746942612604" lon="12.053406867994303"><ele>139.71428571428572</ele><time>2026-04-25T05:34:55.957Z</time></trkpt><trkpt lat="45.86743734031937" lon="12.053496120290992"><ele>139.28571428571428</ele><time>2026-04-25T05:34:56.957Z</time></trkpt><trkpt lat="45.86741102822716" lon="12.053582061382423"><ele>138.85714285714286</ele><time>2026-04-25T05:34:57.957Z</time></trkpt><trkpt lat="45.86737964820705" lon="12.053670112490039"><ele>138.42857142857144</ele><time>2026-04-25T05:34:58.957Z</time></trkpt><trkpt lat="45.86735096225268" lon="12.053751053714409"><ele>138.0</ele><time>2026-04-25T05:34:59.957Z</time></trkpt><trkpt lat="45.86732437208385" lon="12.053838044225975"><ele>138.0</ele><time>2026-04-25T05:35:00.957Z</time></trkpt><trkpt lat="45.86730358572284" lon="12.053930221570331"><ele>138.0</ele><time>2026-04-25T05:35:01.957Z</time></trkpt><trkpt lat="45.86729308931306" lon="12.054025147881962"><ele>138.0</ele><time>2026-04-25T05:35:02.957Z</time></trkpt><trkpt lat="45.86729739382281" lon="12.054202435953473"><ele>138.0</ele><time>2026-04-25T05:35:04.957Z</time></trkpt><trkpt lat="45.86731437687728" lon="12.05436865637699"><ele>138.0</ele><time>2026-04-25T05:35:06.957Z</time></trkpt><trkpt lat="45.86732887155581" lon="12.054458780593169"><ele>138.0</ele><time>2026-04-25T05:35:07.957Z</time></trkpt><trkpt lat="45.867386602562924" lon="12.054617270933662"><ele>138.0</ele><time>2026-04-25T05:35:09.958Z</time></trkpt><trkpt lat="45.867423792743075" lon="12.054691816117206"><ele>138.0</ele><time>2026-04-25T05:35:10.958Z</time></trkpt><trkpt lat="45.86746313927049" lon="12.054774434245623"><ele>138.0</ele><time>2026-04-25T05:35:11.958Z</time></trkpt><trkpt lat="45.86750527431468" lon="12.054851184099443"><ele>138.0</ele><time>2026-04-25T05:35:12.959Z</time></trkpt><trkpt lat="45.86755447047975" lon="12.054926342445679"><ele>138.0</ele><time>2026-04-25T05:35:13.959Z</time></trkpt><trkpt lat="45.867603337493414" lon="12.05499660974348"><ele>138.0</ele><time>2026-04-25T05:35:14.958Z</time></trkpt><trkpt lat="45.86765539262734" lon="12.055072737721337"><ele>138.0</ele><time>2026-04-25T05:35:15.958Z</time></trkpt><trkpt lat="45.86770671093981" lon="12.055152712502512"><ele>137.71428571428572</ele><time>2026-04-25T05:35:16.958Z</time></trkpt><trkpt lat="45.867754614318564" lon="12.055231102967818"><ele>137.42857142857144</ele><time>2026-04-25T05:35:17.958Z</time></trkpt><trkpt lat="45.8678014920375" lon="12.055305728654202"><ele>137.14285714285714</ele><time>2026-04-25T05:35:18.958Z</time></trkpt><trkpt lat="45.86785398059929" lon="12.055380214205773"><ele>136.85714285714286</ele><time>2026-04-25T05:35:19.958Z</time></trkpt><trkpt lat="45.86789849310852" lon="12.055462382799002"><ele>136.57142857142856</ele><time>2026-04-25T05:35:20.958Z</time></trkpt><trkpt lat="45.86794094432588" lon="12.055536936250068"><ele>136.28571428571428</ele><time>2026-04-25T05:35:21.958Z</time></trkpt><trkpt lat="45.86798624725452" lon="12.055622749359022"><ele>136.0</ele><time>2026-04-25T05:35:22.958Z</time></trkpt><trkpt lat="45.86802727133896" lon="12.055713174261331"><ele>136.28571428571428</ele><time>2026-04-25T05:35:23.958Z</time></trkpt><trkpt lat="45.86806507631909" lon="12.055801155733695"><ele>136.57142857142856</ele><time>2026-04-25T05:35:24.958Z</time></trkpt><trkpt lat="45.86809977734695" lon="12.055893514732784"><ele>136.85714285714286</ele><time>2026-04-25T05:35:25.958Z</time></trkpt><trkpt lat="45.86812857496359" lon="12.055991506157715"><ele>137.14285714285714</ele><time>2026-04-25T05:35:26.958Z</time></trkpt><trkpt lat="45.868161332474074" lon="12.056082878635237"><ele>137.42857142857144</ele><time>2026-04-25T05:35:27.958Z</time></trkpt><trkpt lat="45.868191673555735" lon="12.056177825641589"><ele>137.71428571428572</ele><time>2026-04-25T05:35:28.958Z</time></trkpt><trkpt lat="45.868221072723806" lon="12.056279134381777"><ele>138.0</ele><time>2026-04-25T05:35:29.958Z</time></trkpt><trkpt lat="45.86824908235432" lon="12.056377266055751"><ele>138.0</ele><time>2026-04-25T05:35:30.958Z</time></trkpt><trkpt lat="45.86828084283644" lon="12.056475055175923"><ele>138.0</ele><time>2026-04-25T05:35:31.958Z</time></trkpt><trkpt lat="45.86832346985091" lon="12.056570496200553"><ele>138.0</ele><time>2026-04-25T05:35:32.958Z</time></trkpt><trkpt lat="45.86836549842425" lon="12.056653991023921"><ele>138.0</ele><time>2026-04-25T05:35:33.958Z</time></trkpt><trkpt lat="45.86841383035773" lon="12.056749566036947"><ele>138.0</ele><time>2026-04-25T05:35:34.958Z</time></trkpt><trkpt lat="45.86846539986334" lon="12.056833446685058"><ele>138.0</ele><time>2026-04-25T05:35:35.958Z</time></trkpt><trkpt lat="45.868511950551536" lon="12.056913003684512"><ele>137.83333333333334</ele><time>2026-04-25T05:35:36.958Z</time></trkpt><trkpt lat="45.86859691685952" lon="12.057087119220064"><ele>137.66666666666666</ele><time>2026-04-25T05:35:38.958Z</time></trkpt><trkpt lat="45.86863587795219" lon="12.057172180355414"><ele>137.5</ele><time>2026-04-25T05:35:39.958Z</time></trkpt><trkpt lat="45.868674022446584" lon="12.057263176793859"><ele>137.33333333333331</ele><time>2026-04-25T05:35:40.958Z</time></trkpt><trkpt lat="45.868713231003284" lon="12.057352222227808"><ele>137.16666666666666</ele><time>2026-04-25T05:35:41.958Z</time></trkpt><trkpt lat="45.86874940113759" lon="12.057449534677502"><ele>137.0</ele><time>2026-04-25T05:35:42.958Z</time></trkpt><trkpt lat="45.86878915778526" lon="12.05753714252947"><ele>137.33333333333331</ele><time>2026-04-25T05:35:43.958Z</time></trkpt><trkpt lat="45.8688243096637" lon="12.057624923572632"><ele>137.66666666666666</ele><time>2026-04-25T05:35:44.958Z</time></trkpt><trkpt lat="45.868846928629736" lon="12.057731112792382"><ele>138.0</ele><time>2026-04-25T05:35:45.958Z</time></trkpt><trkpt lat="45.8688641788089" lon="12.057840210588086"><ele>138.33333333333334</ele><time>2026-04-25T05:35:46.958Z</time></trkpt><trkpt lat="45.86887606751004" lon="12.057951238268233"><ele>138.66666666666669</ele><time>2026-04-25T05:35:47.958Z</time></trkpt><trkpt lat="45.868886841175254" lon="12.058057054749769"><ele>139.0</ele><time>2026-04-25T05:35:48.958Z</time></trkpt><trkpt lat="45.868891703010455" lon="12.058165374976882"><ele>139.0</ele><time>2026-04-25T05:35:49.958Z</time></trkpt><trkpt lat="45.868893442095924" lon="12.058269892710992"><ele>139.0</ele><time>2026-04-25T05:35:50.957Z</time></trkpt><trkpt lat="45.86889947139629" lon="12.058373849902075"><ele>139.0</ele><time>2026-04-25T05:35:51.957Z</time></trkpt><trkpt lat="45.86890818379586" lon="12.058474072583413"><ele>139.0</ele><time>2026-04-25T05:35:52.957Z</time></trkpt><trkpt lat="45.868926310516635" lon="12.058567133649449"><ele>139.0</ele><time>2026-04-25T05:35:53.957Z</time></trkpt><trkpt lat="45.86895437664498" lon="12.058674392739048"><ele>139.0</ele><time>2026-04-25T05:35:54.957Z</time></trkpt><trkpt lat="45.86898369457811" lon="12.058775042143838"><ele>139.0</ele><time>2026-04-25T05:35:55.957Z</time></trkpt><trkpt lat="45.86901131065648" lon="12.058874104926746"><ele>138.83333333333334</ele><time>2026-04-25T05:35:56.957Z</time></trkpt><trkpt lat="45.86904308278432" lon="12.05897467917804"><ele>138.66666666666669</ele><time>2026-04-25T05:35:57.957Z</time></trkpt><trkpt lat="45.86908244002371" lon="12.059065704344166"><ele>138.5</ele><time>2026-04-25T05:35:58.957Z</time></trkpt><trkpt lat="45.86911788915266" lon="12.059163813850894"><ele>138.33333333333334</ele><time>2026-04-25T05:35:59.957Z</time></trkpt><trkpt lat="45.86914906423207" lon="12.05926631638922"><ele>138.16666666666666</ele><time>2026-04-25T05:36:00.957Z</time></trkpt><trkpt lat="45.869178350296316" lon="12.059373837916844"><ele>138.0</ele><time>2026-04-25T05:36:01.957Z</time></trkpt><trkpt lat="45.86920370688729" lon="12.059476308173185"><ele>137.83333333333334</ele><time>2026-04-25T05:36:02.957Z</time></trkpt><trkpt lat="45.869221817762686" lon="12.059579856942221"><ele>137.66666666666666</ele><time>2026-04-25T05:36:03.957Z</time></trkpt><trkpt lat="45.869244356690736" lon="12.059683625122158"><ele>137.5</ele><time>2026-04-25T05:36:04.957Z</time></trkpt><trkpt lat="45.86926669473677" lon="12.059790342932569"><ele>137.33333333333331</ele><time>2026-04-25T05:36:05.957Z</time></trkpt><trkpt lat="45.86929148190718" lon="12.05989791246119"><ele>137.16666666666666</ele><time>2026-04-25T05:36:06.957Z</time></trkpt><trkpt lat="45.86931469963356" lon="12.05999537564173"><ele>137.0</ele><time>2026-04-25T05:36:07.957Z</time></trkpt><trkpt lat="45.86933899562827" lon="12.060099064006243"><ele>137.33333333333331</ele><time>2026-04-25T05:36:08.957Z</time></trkpt><trkpt lat="45.86936447119172" lon="12.060196108671057"><ele>137.66666666666666</ele><time>2026-04-25T05:36:09.957Z</time></trkpt><trkpt lat="45.86938904093729" lon="12.060294467436005"><ele>138.0</ele><time>2026-04-25T05:36:10.957Z</time></trkpt><trkpt lat="45.86941104096474" lon="12.060395419099985"><ele>138.33333333333334</ele><time>2026-04-25T05:36:11.957Z</time></trkpt><trkpt lat="45.86942276665862" lon="12.060502918886826"><ele>138.66666666666669</ele><time>2026-04-25T05:36:12.957Z</time></trkpt><trkpt lat="45.86942330775947" lon="12.06061181614061"><ele>139.0</ele><time>2026-04-25T05:36:13.957Z</time></trkpt><trkpt lat="45.869423152196006" lon="12.060726277935137"><ele>138.66666666666669</ele><time>2026-04-25T05:36:14.957Z</time></trkpt><trkpt lat="45.86942431853255" lon="12.060835652002757"><ele>138.33333333333334</ele><time>2026-04-25T05:36:15.957Z</time></trkpt><trkpt lat="45.86942152597509" lon="12.060945275192099"><ele>138.0</ele><time>2026-04-25T05:36:16.957Z</time></trkpt><trkpt lat="45.869420556213406" lon="12.061058845666649"><ele>137.66666666666666</ele><time>2026-04-25T05:36:17.957Z</time></trkpt><trkpt lat="45.86942288094004" lon="12.061170438120225"><ele>137.33333333333331</ele><time>2026-04-25T05:36:18.957Z</time></trkpt><trkpt lat="45.86942661755865" lon="12.061280950189877"><ele>137.0</ele><time>2026-04-25T05:36:19.957Z</time></trkpt><trkpt lat="45.869432265263605" lon="12.061389041587118"><ele>137.0</ele><time>2026-04-25T05:36:20.957Z</time></trkpt><trkpt lat="45.86944899630983" lon="12.061498566458681"><ele>137.0</ele><time>2026-04-25T05:36:21.957Z</time></trkpt><trkpt lat="45.86948388366313" lon="12.061605490617017"><ele>137.0</ele><time>2026-04-25T05:36:22.957Z</time></trkpt><trkpt lat="45.86952934122531" lon="12.0616938803123"><ele>137.0</ele><time>2026-04-25T05:36:23.957Z</time></trkpt><trkpt lat="45.86957602777516" lon="12.061781763928765"><ele>137.0</ele><time>2026-04-25T05:36:24.957Z</time></trkpt><trkpt lat="45.86962530742731" lon="12.061866630975967"><ele>137.0</ele><time>2026-04-25T05:36:25.957Z</time></trkpt><trkpt lat="45.869672375612176" lon="12.061948923167654"><ele>137.16666666666666</ele><time>2026-04-25T05:36:26.957Z</time></trkpt><trkpt lat="45.869724074146305" lon="12.062033986116463"><ele>137.33333333333331</ele><time>2026-04-25T05:36:27.957Z</time></trkpt><trkpt lat="45.86977221321755" lon="12.0621189776392"><ele>137.5</ele><time>2026-04-25T05:36:28.957Z</time></trkpt><trkpt lat="45.86981857391514" lon="12.062207782708478"><ele>137.66666666666666</ele><time>2026-04-25T05:36:29.957Z</time></trkpt><trkpt lat="45.86987201225043" lon="12.062292247830339"><ele>137.83333333333334</ele><time>2026-04-25T05:36:30.957Z</time></trkpt><trkpt lat="45.869922452606986" lon="12.062376402737906"><ele>138.0</ele><time>2026-04-25T05:36:31.957Z</time></trkpt><trkpt lat="45.870016743456425" lon="12.062554580181676"><ele>137.71428571428572</ele><time>2026-04-25T05:36:33.957Z</time></trkpt><trkpt lat="45.87006112161744" lon="12.06264232238255"><ele>137.42857142857144</ele><time>2026-04-25T05:36:34.957Z</time></trkpt><trkpt lat="45.87010229244353" lon="12.06272991131171"><ele>137.14285714285714</ele><time>2026-04-25T05:36:35.957Z</time></trkpt><trkpt lat="45.87014330975019" lon="12.062818695440821"><ele>136.85714285714286</ele><time>2026-04-25T05:36:36.957Z</time></trkpt><trkpt lat="45.870180511674285" lon="12.062909521914628"><ele>136.57142857142856</ele><time>2026-04-25T05:36:37.957Z</time></trkpt><trkpt lat="45.87021823872409" lon="12.063002287777351"><ele>136.28571428571428</ele><time>2026-04-25T05:36:38.956Z</time></trkpt><trkpt lat="45.87025553570529" lon="12.063090864129537"><ele>136.0</ele><time>2026-04-25T05:36:39.956Z</time></trkpt><trkpt lat="45.87029406359539" lon="12.06318728043858"><ele>135.99999999999997</ele><time>2026-04-25T05:36:40.956Z</time></trkpt><trkpt lat="45.870334787573476" lon="12.06327957818036"><ele>136.0</ele><time>2026-04-25T05:36:41.956Z</time></trkpt><trkpt lat="45.87037591827278" lon="12.063367505566342"><ele>136.0</ele><time>2026-04-25T05:36:42.956Z</time></trkpt><trkpt lat="45.87041702643722" lon="12.063455641323117"><ele>136.0</ele><time>2026-04-25T05:36:43.956Z</time></trkpt><trkpt lat="45.870458650417845" lon="12.06354526267206"><ele>136.0</ele><time>2026-04-25T05:36:44.956Z</time></trkpt><trkpt lat="45.87049496957115" lon="12.063640924586615"><ele>135.99999999999997</ele><time>2026-04-25T05:36:45.956Z</time></trkpt><trkpt lat="45.870532670169965" lon="12.063729627201473"><ele>136.0</ele><time>2026-04-25T05:36:46.956Z</time></trkpt><trkpt lat="45.87057318448316" lon="12.063816446609799"><ele>135.83333333333334</ele><time>2026-04-25T05:36:47.956Z</time></trkpt><trkpt lat="45.870618170144766" lon="12.063903311610224"><ele>135.66666666666669</ele><time>2026-04-25T05:36:48.956Z</time></trkpt><trkpt lat="45.8706633937828" lon="12.063996795190185"><ele>135.5</ele><time>2026-04-25T05:36:49.956Z</time></trkpt><trkpt lat="45.87069905578859" lon="12.064091310783377"><ele>135.33333333333334</ele><time>2026-04-25T05:36:50.956Z</time></trkpt><trkpt lat="45.87073341232661" lon="12.064190448783236"><ele>135.16666666666666</ele><time>2026-04-25T05:36:51.956Z</time></trkpt><trkpt lat="45.87076825127986" lon="12.064278575401026"><ele>135.0</ele><time>2026-04-25T05:36:52.956Z</time></trkpt><trkpt lat="45.87080918304117" lon="12.064369207031012"><ele>135.0</ele><time>2026-04-25T05:36:53.956Z</time></trkpt><trkpt lat="45.870850610842616" lon="12.06445414490641"><ele>135.0</ele><time>2026-04-25T05:36:54.956Z</time></trkpt><trkpt lat="45.87088900583222" lon="12.064540659783901"><ele>135.0</ele><time>2026-04-25T05:36:55.956Z</time></trkpt><trkpt lat="45.87092657318779" lon="12.06463013586932"><ele>135.0</ele><time>2026-04-25T05:36:56.956Z</time></trkpt><trkpt lat="45.8709627202777" lon="12.064706518241952"><ele>135.0</ele><time>2026-04-25T05:36:57.956Z</time></trkpt><trkpt lat="45.871001432525446" lon="12.064787802990208"><ele>135.0</ele><time>2026-04-25T05:36:58.954Z</time></trkpt><trkpt lat="45.871036182503936" lon="12.064870132001682"><ele>135.0</ele><time>2026-04-25T05:36:59.952Z</time></trkpt><trkpt lat="45.87107384469074" lon="12.064958357494199"><ele>134.85714285714286</ele><time>2026-04-25T05:37:00.95Z</time></trkpt><trkpt lat="45.87110386933341" lon="12.065044871551533"><ele>134.7142857142857</ele><time>2026-04-25T05:37:01.949Z</time></trkpt><trkpt lat="45.87113482334478" lon="12.065129906012904"><ele>134.57142857142856</ele><time>2026-04-25T05:37:02.947Z</time></trkpt><trkpt lat="45.87117164310576" lon="12.065216935806843"><ele>134.42857142857142</ele><time>2026-04-25T05:37:03.946Z</time></trkpt><trkpt lat="45.871206409874475" lon="12.065303510272411"><ele>134.28571428571428</ele><time>2026-04-25T05:37:04.944Z</time></trkpt><trkpt lat="45.871240886808444" lon="12.065393986448116"><ele>134.14285714285714</ele><time>2026-04-25T05:37:05.943Z</time></trkpt><trkpt lat="45.87127200508012" lon="12.065483206213424"><ele>134.0</ele><time>2026-04-25T05:37:06.942Z</time></trkpt><trkpt lat="45.87129781018659" lon="12.065576333944575"><ele>134.0</ele><time>2026-04-25T05:37:07.941Z</time></trkpt><trkpt lat="45.87132623611388" lon="12.065669337606222"><ele>134.0</ele><time>2026-04-25T05:37:08.939Z</time></trkpt><trkpt lat="45.871353812191465" lon="12.065759412579418"><ele>134.0</ele><time>2026-04-25T05:37:09.938Z</time></trkpt><trkpt lat="45.87138061515639" lon="12.065862451103689"><ele>134.0</ele><time>2026-04-25T05:37:10.938Z</time></trkpt><trkpt lat="45.87140562612104" lon="12.065961063737484"><ele>134.0</ele><time>2026-04-25T05:37:11.937Z</time></trkpt><trkpt lat="45.871429101864464" lon="12.066058107453228"><ele>134.0</ele><time>2026-04-25T05:37:12.936Z</time></trkpt><trkpt lat="45.871451356043394" lon="12.066159312531505"><ele>134.0</ele><time>2026-04-25T05:37:13.935Z</time></trkpt><trkpt lat="45.87147201931319" lon="12.066253553191991"><ele>133.85714285714286</ele><time>2026-04-25T05:37:14.935Z</time></trkpt><trkpt lat="45.871493238044295" lon="12.066348828945367"><ele>133.71428571428572</ele><time>2026-04-25T05:37:15.935Z</time></trkpt><trkpt lat="45.87151536177232" lon="12.06644767887396"><ele>133.57142857142856</ele><time>2026-04-25T05:37:16.934Z</time></trkpt><trkpt lat="45.8715420108706" lon="12.066546667022756"><ele>133.42857142857144</ele><time>2026-04-25T05:37:17.934Z</time></trkpt><trkpt lat="45.871571355067395" lon="12.066636022521394"><ele>133.28571428571428</ele><time>2026-04-25T05:37:18.933Z</time></trkpt><trkpt lat="45.87159922885144" lon="12.06672820607175"><ele>133.14285714285714</ele><time>2026-04-25T05:37:19.932Z</time></trkpt><trkpt lat="45.87162414188712" lon="12.066821009832658"><ele>133.0</ele><time>2026-04-25T05:37:20.932Z</time></trkpt><trkpt lat="45.87164750826066" lon="12.066906726261978"><ele>133.0</ele><time>2026-04-25T05:37:21.932Z</time></trkpt><trkpt lat="45.871691142983956" lon="12.067067915460296"><ele>133.0</ele><time>2026-04-25T05:37:23.931Z</time></trkpt><trkpt lat="45.871742805108894" lon="12.067238989231337"><ele>133.0</ele><time>2026-04-25T05:37:25.93Z</time></trkpt><trkpt lat="45.871772980652594" lon="12.067337760644476"><ele>133.0</ele><time>2026-04-25T05:37:26.93Z</time></trkpt><trkpt lat="45.87180202735271" lon="12.06743960757199"><ele>133.0</ele><time>2026-04-25T05:37:27.93Z</time></trkpt><trkpt lat="45.87183289860616" lon="12.067540278889712"><ele>133.0</ele><time>2026-04-25T05:37:28.929Z</time></trkpt><trkpt lat="45.87185567302148" lon="12.06764714738238"><ele>133.0</ele><time>2026-04-25T05:37:29.929Z</time></trkpt><trkpt lat="45.87188030941369" lon="12.067753765151926"><ele>133.0</ele><time>2026-04-25T05:37:30.929Z</time></trkpt><trkpt lat="45.87190129242996" lon="12.06785975032252"><ele>133.0</ele><time>2026-04-25T05:37:31.929Z</time></trkpt><trkpt lat="45.87192482272049" lon="12.067966023514336"><ele>133.0</ele><time>2026-04-25T05:37:32.928Z</time></trkpt><trkpt lat="45.87194419530401" lon="12.0680741016745"><ele>133.0</ele><time>2026-04-25T05:37:33.928Z</time></trkpt><trkpt lat="45.87195397288546" lon="12.068179559328794"><ele>133.0</ele><time>2026-04-25T05:37:34.928Z</time></trkpt><trkpt lat="45.87196536782465" lon="12.068295391696218"><ele>133.0</ele><time>2026-04-25T05:37:35.928Z</time></trkpt><trkpt lat="45.8719716812613" lon="12.068402428125152"><ele>133.0</ele><time>2026-04-25T05:37:36.927Z</time></trkpt><trkpt lat="45.87197765027171" lon="12.06851587202033"><ele>133.0</ele><time>2026-04-25T05:37:37.927Z</time></trkpt><trkpt lat="45.87199451485187" lon="12.0686223402235"><ele>133.0</ele><time>2026-04-25T05:37:38.927Z</time></trkpt><trkpt lat="45.872008789180285" lon="12.068734258884328"><ele>133.0</ele><time>2026-04-25T05:37:39.927Z</time></trkpt><trkpt lat="45.87202341576615" lon="12.068830729884365"><ele>133.0</ele><time>2026-04-25T05:37:40.927Z</time></trkpt><trkpt lat="45.87203189954225" lon="12.06893590342839"><ele>133.0</ele><time>2026-04-25T05:37:41.927Z</time></trkpt><trkpt lat="45.87205014130459" lon="12.069047864416808"><ele>133.0</ele><time>2026-04-25T05:37:42.926Z</time></trkpt><trkpt lat="45.872068564699056" lon="12.069165476307333"><ele>133.0</ele><time>2026-04-25T05:37:43.926Z</time></trkpt><trkpt lat="45.87208027124021" lon="12.06928060529662"><ele>133.0</ele><time>2026-04-25T05:37:44.926Z</time></trkpt><trkpt lat="45.87208774181051" lon="12.06939611604224"><ele>133.0</ele><time>2026-04-25T05:37:45.926Z</time></trkpt><trkpt lat="45.87209189088551" lon="12.06951282338043"><ele>132.66666666666669</ele><time>2026-04-25T05:37:46.926Z</time></trkpt><trkpt lat="45.87209760535564" lon="12.069630563379317"><ele>132.33333333333334</ele><time>2026-04-25T05:37:47.926Z</time></trkpt><trkpt lat="45.87210826688805" lon="12.06974291915318"><ele>132.0</ele><time>2026-04-25T05:37:48.926Z</time></trkpt><trkpt lat="45.872122582876756" lon="12.069852600268078"><ele>131.66666666666666</ele><time>2026-04-25T05:37:49.926Z</time></trkpt><trkpt lat="45.872134909155776" lon="12.069959548392525"><ele>131.33333333333331</ele><time>2026-04-25T05:37:50.925Z</time></trkpt><trkpt lat="45.8721449106091" lon="12.070065576928517"><ele>131.0</ele><time>2026-04-25T05:37:51.925Z</time></trkpt><trkpt lat="45.872151227744965" lon="12.070171673350172"><ele>131.0</ele><time>2026-04-25T05:37:52.925Z</time></trkpt><trkpt lat="45.872153164775895" lon="12.070283233732086"><ele>131.0</ele><time>2026-04-25T05:37:53.925Z</time></trkpt><trkpt lat="45.87214406303074" lon="12.070392780046156"><ele>131.0</ele><time>2026-04-25T05:37:54.925Z</time></trkpt><trkpt lat="45.87213974517117" lon="12.070499753041256"><ele>131.0</ele><time>2026-04-25T05:37:55.925Z</time></trkpt><trkpt lat="45.87213282524747" lon="12.07060419230705"><ele>131.0</ele><time>2026-04-25T05:37:56.925Z</time></trkpt><trkpt lat="45.872130066143235" lon="12.070712474291124"><ele>131.0</ele><time>2026-04-25T05:37:57.925Z</time></trkpt><trkpt lat="45.872124507218" lon="12.070817691290854"><ele>130.85714285714286</ele><time>2026-04-25T05:37:58.925Z</time></trkpt><trkpt lat="45.872117492331256" lon="12.07092410380377"><ele>130.71428571428572</ele><time>2026-04-25T05:37:59.925Z</time></trkpt><trkpt lat="45.8721100726284" lon="12.0710279377657"><ele>130.57142857142858</ele><time>2026-04-25T05:38:00.925Z</time></trkpt><trkpt lat="45.872098889347065" lon="12.071130417124815"><ele>130.42857142857144</ele><time>2026-04-25T05:38:01.925Z</time></trkpt><trkpt lat="45.872087630045016" lon="12.071232980952272"><ele>130.28571428571428</ele><time>2026-04-25T05:38:02.925Z</time></trkpt><trkpt lat="45.87207422775449" lon="12.07134013971474"><ele>130.14285714285717</ele><time>2026-04-25T05:38:03.924Z</time></trkpt><trkpt lat="45.87206018865932" lon="12.071438651477662"><ele>130.0</ele><time>2026-04-25T05:38:04.924Z</time></trkpt><trkpt lat="45.872049349513546" lon="12.071545872141368"><ele>129.85714285714286</ele><time>2026-04-25T05:38:05.924Z</time></trkpt><trkpt lat="45.87203881993389" lon="12.071649261064808"><ele>129.71428571428572</ele><time>2026-04-25T05:38:06.924Z</time></trkpt><trkpt lat="45.872027100238896" lon="12.071748229785033"><ele>129.57142857142856</ele><time>2026-04-25T05:38:07.924Z</time></trkpt><trkpt lat="45.872009294465656" lon="12.07184852429273"><ele>129.42857142857144</ele><time>2026-04-25T05:38:08.924Z</time></trkpt><trkpt lat="45.87199044062526" lon="12.071941757313194"><ele>129.28571428571428</ele><time>2026-04-25T05:38:09.924Z</time></trkpt><trkpt lat="45.871969964892564" lon="12.072041559484457"><ele>129.14285714285714</ele><time>2026-04-25T05:38:10.924Z</time></trkpt><trkpt lat="45.8719471928514" lon="12.072146372070538"><ele>129.0</ele><time>2026-04-25T05:38:11.924Z</time></trkpt><trkpt lat="45.87192139047304" lon="12.072248744143579"><ele>128.99999999999997</ele><time>2026-04-25T05:38:12.924Z</time></trkpt><trkpt lat="45.87189576974702" lon="12.072345515066027"><ele>129.0</ele><time>2026-04-25T05:38:13.924Z</time></trkpt><trkpt lat="45.871867599761536" lon="12.072441578775154"><ele>129.0</ele><time>2026-04-25T05:38:14.924Z</time></trkpt><trkpt lat="45.87184640134645" lon="12.072543244506624"><ele>129.0</ele><time>2026-04-25T05:38:15.924Z</time></trkpt><trkpt lat="45.871826287741534" lon="12.072643927176728"><ele>129.0</ele><time>2026-04-25T05:38:16.924Z</time></trkpt><trkpt lat="45.87180815413638" lon="12.072743837019557"><ele>128.99999999999997</ele><time>2026-04-25T05:38:17.924Z</time></trkpt><trkpt lat="45.8717960116565" lon="12.072848801071117"><ele>129.0</ele><time>2026-04-25T05:38:18.924Z</time></trkpt><trkpt lat="45.871786041803176" lon="12.07295178637781"><ele>128.99999999999997</ele><time>2026-04-25T05:38:19.924Z</time></trkpt><trkpt lat="45.871776934664396" lon="12.07305636327259"><ele>129.0</ele><time>2026-04-25T05:38:20.924Z</time></trkpt><trkpt lat="45.87176991486171" lon="12.073161540877388"><ele>129.0</ele><time>2026-04-25T05:38:21.924Z</time></trkpt><trkpt lat="45.87177056899631" lon="12.073265924736846"><ele>129.0</ele><time>2026-04-25T05:38:22.924Z</time></trkpt><trkpt lat="45.8717728635375" lon="12.073366806240852"><ele>129.0</ele><time>2026-04-25T05:38:23.924Z</time></trkpt><trkpt lat="45.87179014402898" lon="12.07345841790741"><ele>128.99999999999997</ele><time>2026-04-25T05:38:24.923Z</time></trkpt><trkpt lat="45.87181927218649" lon="12.073556475643665"><ele>129.0</ele><time>2026-04-25T05:38:25.923Z</time></trkpt><trkpt lat="45.87185877967834" lon="12.073642681014928"><ele>128.85714285714283</ele><time>2026-04-25T05:38:26.923Z</time></trkpt><trkpt lat="45.87190582915452" lon="12.073724712472186"><ele>128.71428571428572</ele><time>2026-04-25T05:38:27.923Z</time></trkpt><trkpt lat="45.87195409299467" lon="12.073802286402707"><ele>128.57142857142856</ele><time>2026-04-25T05:38:28.923Z</time></trkpt><trkpt lat="45.872006199465645" lon="12.07387924340108"><ele>128.42857142857142</ele><time>2026-04-25T05:38:29.923Z</time></trkpt><trkpt lat="45.8720615210761" lon="12.073953338822161"><ele>128.28571428571428</ele><time>2026-04-25T05:38:30.923Z</time></trkpt><trkpt lat="45.872110836811245" lon="12.07402774177024"><ele>128.14285714285714</ele><time>2026-04-25T05:38:31.923Z</time></trkpt><trkpt lat="45.87216465390663" lon="12.074104193700396"><ele>128.0</ele><time>2026-04-25T05:38:32.923Z</time></trkpt><trkpt lat="45.87222382431943" lon="12.074172919432929"><ele>128.28571428571428</ele><time>2026-04-25T05:38:33.923Z</time></trkpt><trkpt lat="45.87228524960696" lon="12.07423069447006"><ele>128.57142857142856</ele><time>2026-04-25T05:38:34.923Z</time></trkpt><trkpt lat="45.87234385938095" lon="12.074291220874462"><ele>128.85714285714286</ele><time>2026-04-25T05:38:35.923Z</time></trkpt><trkpt lat="45.87240234203494" lon="12.074352856418482"><ele>129.14285714285714</ele><time>2026-04-25T05:38:36.923Z</time></trkpt><trkpt lat="45.87245826960856" lon="12.074412488181649"><ele>129.42857142857144</ele><time>2026-04-25T05:38:37.923Z</time></trkpt><trkpt lat="45.8725171302826" lon="12.074475919886481"><ele>129.71428571428572</ele><time>2026-04-25T05:38:38.923Z</time></trkpt><trkpt lat="45.87256909064621" lon="12.0745448540373"><ele>130.0</ele><time>2026-04-25T05:38:39.923Z</time></trkpt><trkpt lat="45.8726187775202" lon="12.074610516175792"><ele>130.0</ele><time>2026-04-25T05:38:40.923Z</time></trkpt><trkpt lat="45.872673491482146" lon="12.074676719157983"><ele>130.0</ele><time>2026-04-25T05:38:41.923Z</time></trkpt><trkpt lat="45.87272785490689" lon="12.07473821299751"><ele>130.0</ele><time>2026-04-25T05:38:42.923Z</time></trkpt><trkpt lat="45.87277952477195" lon="12.074800434462835"><ele>130.0</ele><time>2026-04-25T05:38:43.923Z</time></trkpt><trkpt lat="45.87283109018055" lon="12.074854610842625"><ele>130.0</ele><time>2026-04-25T05:38:44.923Z</time></trkpt><trkpt lat="45.87290753724511" lon="12.074959622338579"><ele>130.0</ele><time>2026-04-25T05:38:46.923Z</time></trkpt><trkpt lat="45.87291487726889" lon="12.07508304311864"><ele>130.2</ele><time>2026-04-25T05:38:48.923Z</time></trkpt><trkpt lat="45.87286131368568" lon="12.075183169214128"><ele>130.4</ele><time>2026-04-25T05:38:50.923Z</time></trkpt><trkpt lat="45.87287263382267" lon="12.075310412382425"><ele>130.6</ele><time>2026-04-25T05:38:52.923Z</time></trkpt><trkpt lat="45.87296845965545" lon="12.075409587022232"><ele>130.8</ele><time>2026-04-25T05:38:54.922Z</time></trkpt><trkpt lat="45.873073462737054" lon="12.075515647867698"><ele>131.0</ele><time>2026-04-25T05:38:56.922Z</time></trkpt><trkpt lat="45.87312075255437" lon="12.075583102453662"><ele>131.0</ele><time>2026-04-25T05:38:57.922Z</time></trkpt><trkpt lat="45.87316206832301" lon="12.075654376339239"><ele>131.0</ele><time>2026-04-25T05:38:58.922Z</time></trkpt><trkpt lat="45.873211394199146" lon="12.075714824141293"><ele>131.0</ele><time>2026-04-25T05:38:59.922Z</time></trkpt><trkpt lat="45.87326226865479" lon="12.075775446314655"><ele>131.0</ele><time>2026-04-25T05:39:00.922Z</time></trkpt><trkpt lat="45.87331822569371" lon="12.075821112167024"><ele>131.0</ele><time>2026-04-25T05:39:01.922Z</time></trkpt><trkpt lat="45.873377667831704" lon="12.075882111978371"><ele>131.0</ele><time>2026-04-25T05:39:02.922Z</time></trkpt><trkpt lat="45.87342916951373" lon="12.075943076527272"><ele>131.0</ele><time>2026-04-25T05:39:03.922Z</time></trkpt><trkpt lat="45.87348967347969" lon="12.076005960993742"><ele>130.85714285714286</ele><time>2026-04-25T05:39:04.922Z</time></trkpt><trkpt lat="45.87353964398018" lon="12.07606610882368"><ele>130.71428571428572</ele><time>2026-04-25T05:39:05.922Z</time></trkpt><trkpt lat="45.8736000918338" lon="12.076127736691323"><ele>130.57142857142858</ele><time>2026-04-25T05:39:06.922Z</time></trkpt><trkpt lat="45.87365768451342" lon="12.076178740442163"><ele>130.42857142857144</ele><time>2026-04-25T05:39:07.922Z</time></trkpt><trkpt lat="45.87371379112432" lon="12.07625106289685"><ele>130.28571428571428</ele><time>2026-04-25T05:39:08.922Z</time></trkpt><trkpt lat="45.873767451022914" lon="12.076307290886787"><ele>130.14285714285717</ele><time>2026-04-25T05:39:09.922Z</time></trkpt><trkpt lat="45.87382316287309" lon="12.076375060734756"><ele>130.0</ele><time>2026-04-25T05:39:10.922Z</time></trkpt><trkpt lat="45.8738799308313" lon="12.07643925520846"><ele>130.00000000000003</ele><time>2026-04-25T05:39:11.922Z</time></trkpt><trkpt lat="45.87393675283087" lon="12.076478386649443"><ele>130.0</ele><time>2026-04-25T05:39:12.922Z</time></trkpt><trkpt lat="45.87401935028218" lon="12.076587521666692"><ele>130.0</ele><time>2026-04-25T05:39:14.922Z</time></trkpt><trkpt lat="45.87407239420898" lon="12.076639337918904"><ele>130.0</ele><time>2026-04-25T05:39:15.922Z</time></trkpt><trkpt lat="45.8741400027016" lon="12.076663116651753"><ele>130.0</ele><time>2026-04-25T05:39:16.922Z</time></trkpt><trkpt lat="45.874207656998614" lon="12.076657331252033"><ele>130.00000000000003</ele><time>2026-04-25T05:39:17.922Z</time></trkpt><trkpt lat="45.87427174707772" lon="12.076656204594885"><ele>130.0</ele><time>2026-04-25T05:39:18.922Z</time></trkpt><trkpt lat="45.87434172647369" lon="12.076657215646245"><ele>130.0</ele><time>2026-04-25T05:39:19.922Z</time></trkpt><trkpt lat="45.87440477367873" lon="12.07665709495388"><ele>130.0</ele><time>2026-04-25T05:39:20.923Z</time></trkpt><trkpt lat="45.87447506978971" lon="12.076663367405938"><ele>130.0</ele><time>2026-04-25T05:39:21.923Z</time></trkpt><trkpt lat="45.87458414486332" lon="12.076738407561425"><ele>130.0</ele><time>2026-04-25T05:39:23.922Z</time></trkpt><trkpt lat="45.87464050783582" lon="12.076800837650659"><ele>130.0</ele><time>2026-04-25T05:39:24.923Z</time></trkpt><trkpt lat="45.87469806830371" lon="12.07686824412316"><ele>130.0</ele><time>2026-04-25T05:39:25.923Z</time></trkpt><trkpt lat="45.87475843400588" lon="12.076927692893436"><ele>130.0</ele><time>2026-04-25T05:39:26.922Z</time></trkpt><trkpt lat="45.87481704328818" lon="12.076982771555091"><ele>130.0</ele><time>2026-04-25T05:39:27.923Z</time></trkpt><trkpt lat="45.874939513547474" lon="12.077048145258653"><ele>130.0</ele><time>2026-04-25T05:39:29.922Z</time></trkpt><trkpt lat="45.87500059865477" lon="12.077081998527651"><ele>130.0</ele><time>2026-04-25T05:39:30.922Z</time></trkpt><trkpt lat="45.875071503945506" lon="12.07711614104425"><ele>130.0</ele><time>2026-04-25T05:39:31.922Z</time></trkpt><trkpt lat="45.875135187300586" lon="12.077166500161646"><ele>130.0</ele><time>2026-04-25T05:39:32.923Z</time></trkpt><trkpt lat="45.87518906915602" lon="12.077224849926905"><ele>129.83333333333334</ele><time>2026-04-25T05:39:33.923Z</time></trkpt><trkpt lat="45.8752542921398" lon="12.077282013875836"><ele>129.66666666666669</ele><time>2026-04-25T05:39:34.923Z</time></trkpt><trkpt lat="45.87531607481857" lon="12.077343493968206"><ele>129.5</ele><time>2026-04-25T05:39:35.923Z</time></trkpt><trkpt lat="45.87537891766177" lon="12.077400985485138"><ele>129.33333333333334</ele><time>2026-04-25T05:39:36.923Z</time></trkpt><trkpt lat="45.87543653093736" lon="12.077441495636192"><ele>129.16666666666666</ele><time>2026-04-25T05:39:37.923Z</time></trkpt><trkpt lat="45.87551750124973" lon="12.077418771481378"><ele>129.0</ele><time>2026-04-25T05:39:38.923Z</time></trkpt><trkpt lat="45.87561529121116" lon="12.077378202983612"><ele>129.0</ele><time>2026-04-25T05:39:39.923Z</time></trkpt><trkpt lat="45.87567974845128" lon="12.077306267906135"><ele>129.0</ele><time>2026-04-25T05:39:40.923Z</time></trkpt><trkpt lat="45.875741422945346" lon="12.077239820824529"><ele>129.0</ele><time>2026-04-25T05:39:41.923Z</time></trkpt><trkpt lat="45.875812660793606" lon="12.077188628482043"><ele>129.0</ele><time>2026-04-25T05:39:42.923Z</time></trkpt><trkpt lat="45.87587411483718" lon="12.077137149874197"><ele>129.0</ele><time>2026-04-25T05:39:43.923Z</time></trkpt><trkpt lat="45.87594178954231" lon="12.077093573085001"><ele>129.0</ele><time>2026-04-25T05:39:44.922Z</time></trkpt><trkpt lat="45.87601312107716" lon="12.077051097236764"><ele>128.99999999999997</ele><time>2026-04-25T05:39:45.922Z</time></trkpt><trkpt lat="45.876074870150504" lon="12.077012223386303"><ele>129.0</ele><time>2026-04-25T05:39:46.922Z</time></trkpt><trkpt lat="45.876136420374834" lon="12.076981722968066"><ele>129.0</ele><time>2026-04-25T05:39:47.922Z</time></trkpt><trkpt lat="45.87621052352221" lon="12.076952184068247"><ele>129.0</ele><time>2026-04-25T05:39:48.922Z</time></trkpt><trkpt lat="45.876272866027136" lon="12.076921070270185"><ele>129.0</ele><time>2026-04-25T05:39:49.922Z</time></trkpt><trkpt lat="45.87633679816003" lon="12.076883434437578"><ele>128.99999999999997</ele><time>2026-04-25T05:39:50.922Z</time></trkpt><trkpt lat="45.8764033097297" lon="12.076837481023546"><ele>129.0</ele><time>2026-04-25T05:39:51.922Z</time></trkpt><trkpt lat="45.87646627984306" lon="12.07678407767248"><ele>128.99999999999997</ele><time>2026-04-25T05:39:52.922Z</time></trkpt><trkpt lat="45.87653076188527" lon="12.076735981283797"><ele>129.0</ele><time>2026-04-25T05:39:53.922Z</time></trkpt><trkpt lat="45.876595612554226" lon="12.07668588960587"><ele>129.0</ele><time>2026-04-25T05:39:54.922Z</time></trkpt><trkpt lat="45.87665798899174" lon="12.076634782666561"><ele>129.0</ele><time>2026-04-25T05:39:55.922Z</time></trkpt><trkpt lat="45.876718704394996" lon="12.076584754205639"><ele>129.0</ele><time>2026-04-25T05:39:56.922Z</time></trkpt><trkpt lat="45.876781100958134" lon="12.076539931255988"><ele>128.99999999999997</ele><time>2026-04-25T05:39:57.922Z</time></trkpt><trkpt lat="45.87684818130037" lon="12.07649510806902"><ele>129.0</ele><time>2026-04-25T05:39:58.922Z</time></trkpt><trkpt lat="45.87691509695018" lon="12.07645466268367"><ele>129.42857142857142</ele><time>2026-04-25T05:39:59.922Z</time></trkpt><trkpt lat="45.8769730204905" lon="12.076402314400605"><ele>129.85714285714286</ele><time>2026-04-25T05:40:00.922Z</time></trkpt><trkpt lat="45.87704301869296" lon="12.076345606172751"><ele>130.28571428571428</ele><time>2026-04-25T05:40:01.922Z</time></trkpt><trkpt lat="45.877093136302676" lon="12.07627015090081"><ele>130.71428571428572</ele><time>2026-04-25T05:40:02.922Z</time></trkpt><trkpt lat="45.87713464284818" lon="12.076182270901183"><ele>131.14285714285714</ele><time>2026-04-25T05:40:03.922Z</time></trkpt><trkpt lat="45.877173941012586" lon="12.076090595882647"><ele>131.57142857142856</ele><time>2026-04-25T05:40:04.922Z</time></trkpt><trkpt lat="45.877210311370945" lon="12.076000958992024"><ele>132.0</ele><time>2026-04-25T05:40:05.922Z</time></trkpt><trkpt lat="45.87724570037504" lon="12.07591396364875"><ele>132.0</ele><time>2026-04-25T05:40:06.922Z</time></trkpt><trkpt lat="45.877289420205585" lon="12.075825831724215"><ele>132.0</ele><time>2026-04-25T05:40:07.922Z</time></trkpt><trkpt lat="45.87733748154318" lon="12.075744615406293"><ele>132.0</ele><time>2026-04-25T05:40:08.922Z</time></trkpt><trkpt lat="45.87738438407971" lon="12.075666750136415"><ele>132.0</ele><time>2026-04-25T05:40:09.922Z</time></trkpt><trkpt lat="45.87743580243449" lon="12.07559988055675"><ele>132.0</ele><time>2026-04-25T05:40:10.922Z</time></trkpt><trkpt lat="45.877500884863245" lon="12.075537360039114"><ele>132.0</ele><time>2026-04-25T05:40:11.922Z</time></trkpt><trkpt lat="45.877563031955695" lon="12.075468690734084"><ele>132.0</ele><time>2026-04-25T05:40:12.922Z</time></trkpt><trkpt lat="45.8776259462318" lon="12.075398648280505"><ele>132.14285714285714</ele><time>2026-04-25T05:40:13.922Z</time></trkpt><trkpt lat="45.87768864842858" lon="12.075330777343853"><ele>132.28571428571428</ele><time>2026-04-25T05:40:14.922Z</time></trkpt><trkpt lat="45.877747568176" lon="12.075264862851814"><ele>132.42857142857144</ele><time>2026-04-25T05:40:15.922Z</time></trkpt><trkpt lat="45.87780620223525" lon="12.075193952599406"><ele>132.57142857142856</ele><time>2026-04-25T05:40:16.922Z</time></trkpt><trkpt lat="45.877859565959106" lon="12.075121732375134"><ele>132.71428571428572</ele><time>2026-04-25T05:40:17.922Z</time></trkpt><trkpt lat="45.87791730755969" lon="12.075050823628565"><ele>132.85714285714286</ele><time>2026-04-25T05:40:18.921Z</time></trkpt><trkpt lat="45.877968626204385" lon="12.074986785042967"><ele>133.0</ele><time>2026-04-25T05:40:19.921Z</time></trkpt><trkpt lat="45.87808015799121" lon="12.074885494925532"><ele>133.0</ele><time>2026-04-25T05:40:21.921Z</time></trkpt><trkpt lat="45.87814788988679" lon="12.074848608012534"><ele>133.0</ele><time>2026-04-25T05:40:22.921Z</time></trkpt><trkpt lat="45.87820916017444" lon="12.074809951164053"><ele>133.0</ele><time>2026-04-25T05:40:23.921Z</time></trkpt><trkpt lat="45.87826986992495" lon="12.07477331441651"><ele>133.0</ele><time>2026-04-25T05:40:24.921Z</time></trkpt><trkpt lat="45.87836834314241" lon="12.074689388847302"><ele>133.0</ele><time>2026-04-25T05:40:26.921Z</time></trkpt><trkpt lat="45.87840092749874" lon="12.07460460579296"><ele>133.0</ele><time>2026-04-25T05:40:27.921Z</time></trkpt><trkpt lat="45.878405446642944" lon="12.074429698502277"><ele>133.0</ele><time>2026-04-25T05:40:29.921Z</time></trkpt><trkpt lat="45.878383524526974" lon="12.074251060359066"><ele>133.0</ele><time>2026-04-25T05:40:31.921Z</time></trkpt><trkpt lat="45.878387831247224" lon="12.074153701946347"><ele>133.0</ele><time>2026-04-25T05:40:32.921Z</time></trkpt><trkpt lat="45.878408881144274" lon="12.074061465047395"><ele>133.0</ele><time>2026-04-25T05:40:33.921Z</time></trkpt><trkpt lat="45.87848494590513" lon="12.073915658105902"><ele>133.0</ele><time>2026-04-25T05:40:35.921Z</time></trkpt><trkpt lat="45.87854743069136" lon="12.07385968722856"><ele>133.14285714285714</ele><time>2026-04-25T05:40:36.921Z</time></trkpt><trkpt lat="45.87861353699074" lon="12.073824456399915"><ele>133.28571428571428</ele><time>2026-04-25T05:40:37.921Z</time></trkpt><trkpt lat="45.8786821869391" lon="12.073800222677068"><ele>133.42857142857144</ele><time>2026-04-25T05:40:38.921Z</time></trkpt><trkpt lat="45.8787513200182" lon="12.073770375572334"><ele>133.57142857142856</ele><time>2026-04-25T05:40:39.921Z</time></trkpt><trkpt lat="45.8788196844888" lon="12.073741569068707"><ele>133.71428571428572</ele><time>2026-04-25T05:40:40.921Z</time></trkpt><trkpt lat="45.87888610402458" lon="12.073700247552772"><ele>133.85714285714286</ele><time>2026-04-25T05:40:41.921Z</time></trkpt><trkpt lat="45.87894432866125" lon="12.073663541628841"><ele>134.0</ele><time>2026-04-25T05:40:42.921Z</time></trkpt><trkpt lat="45.879001722472495" lon="12.073624534287838"><ele>134.0</ele><time>2026-04-25T05:40:43.921Z</time></trkpt><trkpt lat="45.87910654219618" lon="12.073539261241782"><ele>134.0</ele><time>2026-04-25T05:40:45.921Z</time></trkpt><trkpt lat="45.87915922777121" lon="12.073480017984428"><ele>134.0</ele><time>2026-04-25T05:40:46.921Z</time></trkpt><trkpt lat="45.879220571519504" lon="12.073454352832576"><ele>134.0</ele><time>2026-04-25T05:40:47.921Z</time></trkpt><trkpt lat="45.87929091900869" lon="12.07343828362539"><ele>134.0</ele><time>2026-04-25T05:40:48.921Z</time></trkpt><trkpt lat="45.8794288800194" lon="12.073451299306438"><ele>134.16666666666666</ele><time>2026-04-25T05:40:50.921Z</time></trkpt><trkpt lat="45.879505342004" lon="12.073504925294673"><ele>134.33333333333331</ele><time>2026-04-25T05:40:51.921Z</time></trkpt><trkpt lat="45.87956986563553" lon="12.07355240659307"><ele>134.5</ele><time>2026-04-25T05:40:52.921Z</time></trkpt><trkpt lat="45.87969566094164" lon="12.073616317192256"><ele>134.66666666666666</ele><time>2026-04-25T05:40:54.92Z</time></trkpt><trkpt lat="45.87976074472327" lon="12.073642528103154"><ele>134.83333333333334</ele><time>2026-04-25T05:40:55.92Z</time></trkpt><trkpt lat="45.879823908584434" lon="12.073649201567958"><ele>135.0</ele><time>2026-04-25T05:40:56.92Z</time></trkpt><trkpt lat="45.87995940632268" lon="12.073671364042225"><ele>135.0</ele><time>2026-04-25T05:40:58.92Z</time></trkpt><trkpt lat="45.880036688362416" lon="12.073688866992862"><ele>135.0</ele><time>2026-04-25T05:40:59.92Z</time></trkpt><trkpt lat="45.88011193412551" lon="12.073699363600708"><ele>135.0</ele><time>2026-04-25T05:41:00.92Z</time></trkpt><trkpt lat="45.88017852359844" lon="12.073727253398024"><ele>135.0</ele><time>2026-04-25T05:41:01.92Z</time></trkpt><trkpt lat="45.880298067289495" lon="12.073765822818785"><ele>135.0</ele><time>2026-04-25T05:41:03.92Z</time></trkpt><trkpt lat="45.88042056930168" lon="12.073796422091267"><ele>135.28571428571428</ele><time>2026-04-25T05:41:05.92Z</time></trkpt><trkpt lat="45.88051422840538" lon="12.073811899339027"><ele>135.57142857142856</ele><time>2026-04-25T05:41:07.92Z</time></trkpt><trkpt lat="45.880577244840175" lon="12.073817243712027"><ele>135.85714285714286</ele><time>2026-04-25T05:41:08.92Z</time></trkpt><trkpt lat="45.88064728353065" lon="12.073841753979508"><ele>136.14285714285714</ele><time>2026-04-25T05:41:09.92Z</time></trkpt><trkpt lat="45.88071117348381" lon="12.073849338125461"><ele>136.42857142857144</ele><time>2026-04-25T05:41:10.92Z</time></trkpt><trkpt lat="45.88077486081565" lon="12.073845251502892"><ele>136.71428571428572</ele><time>2026-04-25T05:41:11.92Z</time></trkpt><trkpt lat="45.88085223123411" lon="12.07382281709547"><ele>137.0</ele><time>2026-04-25T05:41:12.92Z</time></trkpt><trkpt lat="45.880923198299925" lon="12.07377297349499"><ele>137.0</ele><time>2026-04-25T05:41:13.92Z</time></trkpt><trkpt lat="45.8809915438105" lon="12.073744242535424"><ele>137.0</ele><time>2026-04-25T05:41:14.92Z</time></trkpt><trkpt lat="45.88111535542195" lon="12.073732856548052"><ele>137.0</ele><time>2026-04-25T05:41:16.92Z</time></trkpt><trkpt lat="45.881179758499805" lon="12.07372187041531"><ele>137.0</ele><time>2026-04-25T05:41:17.92Z</time></trkpt><trkpt lat="45.88125061684893" lon="12.073715953867156"><ele>137.0</ele><time>2026-04-25T05:41:18.92Z</time></trkpt><trkpt lat="45.88131563819907" lon="12.073708237458797"><ele>137.0</ele><time>2026-04-25T05:41:19.92Z</time></trkpt><trkpt lat="45.88141545038724" lon="12.073718224704477"><ele>137.0</ele><time>2026-04-25T05:41:21.92Z</time></trkpt><trkpt lat="45.88162491554499" lon="12.073742020143055"><ele>137.0</ele><time>2026-04-25T05:41:24.92Z</time></trkpt><trkpt lat="45.881694835092695" lon="12.073744703968735"><ele>137.0</ele><time>2026-04-25T05:41:25.92Z</time></trkpt><trkpt lat="45.881755709129926" lon="12.073770464133613"><ele>137.0</ele><time>2026-04-25T05:41:26.921Z</time></trkpt><trkpt lat="45.881851510259885" lon="12.073855877403599"><ele>137.16666666666666</ele><time>2026-04-25T05:41:28.92Z</time></trkpt><trkpt lat="45.88190342211532" lon="12.073936821841741"><ele>137.33333333333331</ele><time>2026-04-25T05:41:29.921Z</time></trkpt><trkpt lat="45.881939369402225" lon="12.074045788387682"><ele>137.5</ele><time>2026-04-25T05:41:30.92Z</time></trkpt><trkpt lat="45.8819447945778" lon="12.074149412835018"><ele>137.66666666666666</ele><time>2026-04-25T05:41:31.92Z</time></trkpt><trkpt lat="45.881956331514516" lon="12.074250610907203"><ele>137.83333333333334</ele><time>2026-04-25T05:41:32.92Z</time></trkpt><trkpt lat="45.881976452010406" lon="12.074355804490155"><ele>138.0</ele><time>2026-04-25T05:41:33.921Z</time></trkpt><trkpt lat="45.88201595340568" lon="12.074444562155618"><ele>138.0</ele><time>2026-04-25T05:41:34.921Z</time></trkpt><trkpt lat="45.88205315027364" lon="12.074536649044676"><ele>138.0</ele><time>2026-04-25T05:41:35.921Z</time></trkpt><trkpt lat="45.88207143932126" lon="12.07463052318241"><ele>138.0</ele><time>2026-04-25T05:41:36.92Z</time></trkpt><trkpt lat="45.88208415914393" lon="12.074728826322268"><ele>138.0</ele><time>2026-04-25T05:41:37.92Z</time></trkpt><trkpt lat="45.88208590220503" lon="12.074833606686111"><ele>138.0</ele><time>2026-04-25T05:41:38.92Z</time></trkpt><trkpt lat="45.88209966609831" lon="12.074944132001624"><ele>138.0</ele><time>2026-04-25T05:41:39.92Z</time></trkpt><trkpt lat="45.88211493976652" lon="12.075044177612611"><ele>138.0</ele><time>2026-04-25T05:41:40.92Z</time></trkpt><trkpt lat="45.88213442076054" lon="12.07514137520637"><ele>138.0</ele><time>2026-04-25T05:41:41.92Z</time></trkpt><trkpt lat="45.882167807688994" lon="12.075234579500666"><ele>138.0</ele><time>2026-04-25T05:41:42.92Z</time></trkpt><trkpt lat="45.88221273054751" lon="12.075315972488783"><ele>138.0</ele><time>2026-04-25T05:41:43.92Z</time></trkpt><trkpt lat="45.88225835931536" lon="12.075386284158622"><ele>138.0</ele><time>2026-04-25T05:41:44.92Z</time></trkpt><trkpt lat="45.88231093863461" lon="12.07544473892513"><ele>138.0</ele><time>2026-04-25T05:41:45.92Z</time></trkpt><trkpt lat="45.88236312599411" lon="12.07550258325015"><ele>138.0</ele><time>2026-04-25T05:41:46.92Z</time></trkpt><trkpt lat="45.882420811545515" lon="12.075566892530427"><ele>138.0</ele><time>2026-04-25T05:41:47.92Z</time></trkpt><trkpt lat="45.8825314879993" lon="12.075633021652123"><ele>138.0</ele><time>2026-04-25T05:41:49.92Z</time></trkpt><trkpt lat="45.882627068806194" lon="12.075658858558572"><ele>138.0</ele><time>2026-04-25T05:41:51.92Z</time></trkpt><trkpt lat="45.8827409866801" lon="12.075672425205154"><ele>138.0</ele><time>2026-04-25T05:41:53.92Z</time></trkpt><trkpt lat="45.88285618063281" lon="12.075644003576388"><ele>138.0</ele><time>2026-04-25T05:41:55.92Z</time></trkpt><trkpt lat="45.88298239890804" lon="12.075648584665782"><ele>138.0</ele><time>2026-04-25T05:41:57.92Z</time></trkpt><trkpt lat="45.883051382577165" lon="12.075654268598022"><ele>138.0</ele><time>2026-04-25T05:41:58.92Z</time></trkpt><trkpt lat="45.88314488289812" lon="12.075628500331781"><ele>138.0</ele><time>2026-04-25T05:42:00.92Z</time></trkpt><trkpt lat="45.8832292854777" lon="12.075612451851041"><ele>138.0</ele><time>2026-04-25T05:42:02.92Z</time></trkpt><trkpt lat="45.88331211792363" lon="12.075574432571557"><ele>138.0</ele><time>2026-04-25T05:42:03.92Z</time></trkpt><trkpt lat="45.883391684938246" lon="12.075532928755667"><ele>138.0</ele><time>2026-04-25T05:42:04.92Z</time></trkpt><trkpt lat="45.88346719757767" lon="12.075494703788909"><ele>138.14285714285714</ele><time>2026-04-25T05:42:05.92Z</time></trkpt><trkpt lat="45.883535971384994" lon="12.075453470781735"><ele>138.2857142857143</ele><time>2026-04-25T05:42:06.919Z</time></trkpt><trkpt lat="45.88358946025797" lon="12.075396870487312"><ele>138.42857142857144</ele><time>2026-04-25T05:42:07.919Z</time></trkpt><trkpt lat="45.88364447145248" lon="12.075347054792177"><ele>138.57142857142858</ele><time>2026-04-25T05:42:08.919Z</time></trkpt><trkpt lat="45.88370386143987" lon="12.075297818201276"><ele>138.71428571428572</ele><time>2026-04-25T05:42:09.919Z</time></trkpt><trkpt lat="45.883762835672" lon="12.075235738912667"><ele>138.85714285714286</ele><time>2026-04-25T05:42:10.919Z</time></trkpt><trkpt lat="45.88381816801094" lon="12.075184095802326"><ele>139.0</ele><time>2026-04-25T05:42:11.919Z</time></trkpt><trkpt lat="45.883872322303354" lon="12.075120664070516"><ele>139.0</ele><time>2026-04-25T05:42:12.919Z</time></trkpt><trkpt lat="45.88392584868149" lon="12.075065034862444"><ele>139.0</ele><time>2026-04-25T05:42:13.919Z</time></trkpt><trkpt lat="45.8839815167287" lon="12.075003861593908"><ele>139.0</ele><time>2026-04-25T05:42:14.919Z</time></trkpt><trkpt lat="45.88404208655969" lon="12.074933523690706"><ele>139.0</ele><time>2026-04-25T05:42:15.919Z</time></trkpt><trkpt lat="45.88409658198061" lon="12.074869121011627"><ele>139.0</ele><time>2026-04-25T05:42:16.919Z</time></trkpt><trkpt lat="45.88415156204222" lon="12.074804919885246"><ele>139.0</ele><time>2026-04-25T05:42:17.919Z</time></trkpt><trkpt lat="45.884198356281715" lon="12.074735190542212"><ele>139.0</ele><time>2026-04-25T05:42:18.919Z</time></trkpt><trkpt lat="45.88424688718388" lon="12.074671001712652"><ele>139.14285714285714</ele><time>2026-04-25T05:42:19.919Z</time></trkpt><trkpt lat="45.884298309643874" lon="12.074612605993293"><ele>139.28571428571428</ele><time>2026-04-25T05:42:20.919Z</time></trkpt><trkpt lat="45.884351244072285" lon="12.074545703241332"><ele>139.42857142857144</ele><time>2026-04-25T05:42:21.919Z</time></trkpt><trkpt lat="45.884400476863156" lon="12.074484773436186"><ele>139.57142857142856</ele><time>2026-04-25T05:42:22.919Z</time></trkpt><trkpt lat="45.88445444208807" lon="12.07442468207877"><ele>139.71428571428572</ele><time>2026-04-25T05:42:23.919Z</time></trkpt><trkpt lat="45.88450724701349" lon="12.074365188040593"><ele>139.85714285714286</ele><time>2026-04-25T05:42:24.919Z</time></trkpt><trkpt lat="45.88456054387817" lon="12.074305204005661"><ele>140.0</ele><time>2026-04-25T05:42:25.919Z</time></trkpt><trkpt lat="45.88461912752711" lon="12.074259323414191"><ele>140.0</ele><time>2026-04-25T05:42:26.919Z</time></trkpt><trkpt lat="45.88468425503899" lon="12.074224027018484"><ele>140.0</ele><time>2026-04-25T05:42:27.919Z</time></trkpt><trkpt lat="45.884796981864085" lon="12.074162763488934"><ele>140.0</ele><time>2026-04-25T05:42:29.919Z</time></trkpt><trkpt lat="45.8848735029298" lon="12.074134027919193"><ele>140.0</ele><time>2026-04-25T05:42:30.919Z</time></trkpt><trkpt lat="45.884987028685735" lon="12.074094211525916"><ele>140.0</ele><time>2026-04-25T05:42:32.919Z</time></trkpt><trkpt lat="45.885052626762985" lon="12.074060176831031"><ele>140.0</ele><time>2026-04-25T05:42:33.919Z</time></trkpt><trkpt lat="45.8851681488254" lon="12.07400502705622"><ele>140.0</ele><time>2026-04-25T05:42:35.919Z</time></trkpt><trkpt lat="45.885236045438006" lon="12.0739655978975"><ele>140.0</ele><time>2026-04-25T05:42:36.919Z</time></trkpt><trkpt lat="45.88530362017929" lon="12.073925964281676"><ele>140.0</ele><time>2026-04-25T05:42:37.919Z</time></trkpt><trkpt lat="45.88537216447836" lon="12.073885000007111"><ele>140.0</ele><time>2026-04-25T05:42:38.919Z</time></trkpt><trkpt lat="45.88543346885163" lon="12.073851519303505"><ele>140.0</ele><time>2026-04-25T05:42:39.919Z</time></trkpt><trkpt lat="45.885498408604896" lon="12.073826352216036"><ele>140.0</ele><time>2026-04-25T05:42:40.919Z</time></trkpt><trkpt lat="45.885625639617096" lon="12.07376624118281"><ele>140.0</ele><time>2026-04-25T05:42:42.918Z</time></trkpt><trkpt lat="45.88568626696485" lon="12.073732314782356"><ele>140.0</ele><time>2026-04-25T05:42:43.918Z</time></trkpt><trkpt lat="45.88575595958736" lon="12.073686552700897"><ele>140.0</ele><time>2026-04-25T05:42:44.918Z</time></trkpt><trkpt lat="45.88581784226055" lon="12.073632223488188"><ele>140.0</ele><time>2026-04-25T05:42:45.918Z</time></trkpt><trkpt lat="45.885885294862554" lon="12.073590337147303"><ele>140.0</ele><time>2026-04-25T05:42:46.918Z</time></trkpt><trkpt lat="45.885950166476434" lon="12.073547979375128"><ele>140.28571428571428</ele><time>2026-04-25T05:42:47.918Z</time></trkpt><trkpt lat="45.886012678437325" lon="12.073489861786262"><ele>140.57142857142856</ele><time>2026-04-25T05:42:48.918Z</time></trkpt><trkpt lat="45.88606940611974" lon="12.073431770168956"><ele>140.85714285714286</ele><time>2026-04-25T05:42:49.918Z</time></trkpt><trkpt lat="45.88613138569617" lon="12.073376266487188"><ele>141.14285714285714</ele><time>2026-04-25T05:42:50.918Z</time></trkpt><trkpt lat="45.886191625156656" lon="12.073322746283381"><ele>141.42857142857142</ele><time>2026-04-25T05:42:51.918Z</time></trkpt><trkpt lat="45.88625683611865" lon="12.073273393302436"><ele>141.71428571428572</ele><time>2026-04-25T05:42:52.918Z</time></trkpt><trkpt lat="45.88632011940573" lon="12.073219443595303"><ele>142.0</ele><time>2026-04-25T05:42:53.918Z</time></trkpt><trkpt lat="45.88637852107743" lon="12.073168114119811"><ele>142.0</ele><time>2026-04-25T05:42:54.918Z</time></trkpt><trkpt lat="45.88643473314306" lon="12.073111001243761"><ele>142.0</ele><time>2026-04-25T05:42:55.918Z</time></trkpt><trkpt lat="45.886483848043234" lon="12.073051369492298"><ele>142.0</ele><time>2026-04-25T05:42:56.918Z</time></trkpt><trkpt lat="45.88654137380613" lon="12.072992481316684"><ele>142.0</ele><time>2026-04-25T05:42:57.918Z</time></trkpt><trkpt lat="45.88659561683771" lon="12.07293555001874"><ele>142.0</ele><time>2026-04-25T05:42:58.918Z</time></trkpt><trkpt lat="45.886647843851556" lon="12.072879605737203"><ele>142.0</ele><time>2026-04-25T05:42:59.918Z</time></trkpt><trkpt lat="45.88670727520208" lon="12.072835490032208"><ele>142.0</ele><time>2026-04-25T05:43:00.918Z</time></trkpt><trkpt lat="45.88676804801776" lon="12.072795122488776"><ele>142.5</ele><time>2026-04-25T05:43:01.918Z</time></trkpt><trkpt lat="45.88683025224543" lon="12.072763571892715"><ele>143.0</ele><time>2026-04-25T05:43:02.918Z</time></trkpt><trkpt lat="45.8868936036216" lon="12.07273284768325"><ele>143.5</ele><time>2026-04-25T05:43:03.918Z</time></trkpt><trkpt lat="45.88695675851379" lon="12.072696740855594"><ele>144.0</ele><time>2026-04-25T05:43:04.918Z</time></trkpt><trkpt lat="45.8870158036259" lon="12.072663705380817"><ele>144.5</ele><time>2026-04-25T05:43:05.918Z</time></trkpt><trkpt lat="45.887077945809246" lon="12.072627156788682"><ele>145.0</ele><time>2026-04-25T05:43:06.918Z</time></trkpt><trkpt lat="45.887192184874735" lon="12.072571383079675"><ele>145.0</ele><time>2026-04-25T05:43:08.918Z</time></trkpt><trkpt lat="45.88730493715436" lon="12.072523250247713"><ele>145.0</ele><time>2026-04-25T05:43:10.918Z</time></trkpt><trkpt lat="45.88741659925067" lon="12.072484463867026"><ele>145.0</ele><time>2026-04-25T05:43:12.918Z</time></trkpt><trkpt lat="45.88749477422413" lon="12.072516384178636"><ele>145.0</ele><time>2026-04-25T05:43:14.918Z</time></trkpt><trkpt lat="45.887534630004446" lon="12.0726397719042"><ele>145.0</ele><time>2026-04-25T05:43:16.917Z</time></trkpt><trkpt lat="45.88756162595235" lon="12.072727933148078"><ele>145.4</ele><time>2026-04-25T05:43:17.917Z</time></trkpt><trkpt lat="45.88760851681399" lon="12.072879754830236"><ele>145.8</ele><time>2026-04-25T05:43:19.917Z</time></trkpt><trkpt lat="45.88766385641699" lon="12.073025243978034"><ele>146.2</ele><time>2026-04-25T05:43:21.917Z</time></trkpt><trkpt lat="45.887673627182494" lon="12.073173857044843"><ele>146.6</ele><time>2026-04-25T05:43:24.917Z</time></trkpt><trkpt lat="45.8877072109614" lon="12.073330709345502"><ele>147.0</ele><time>2026-04-25T05:43:26.917Z</time></trkpt><trkpt lat="45.8877336044245" lon="12.073421587436938"><ele>147.0</ele><time>2026-04-25T05:43:27.917Z</time></trkpt><trkpt lat="45.88776009716108" lon="12.073530920514052"><ele>147.0</ele><time>2026-04-25T05:43:28.917Z</time></trkpt><trkpt lat="45.887785941453735" lon="12.073639223556594"><ele>147.0</ele><time>2026-04-25T05:43:29.917Z</time></trkpt><trkpt lat="45.88780304332134" lon="12.073740006806771"><ele>147.0</ele><time>2026-04-25T05:43:30.917Z</time></trkpt><trkpt lat="45.887822796821304" lon="12.073844417686317"><ele>147.0</ele><time>2026-04-25T05:43:31.917Z</time></trkpt><trkpt lat="45.88784289800429" lon="12.073949488649745"><ele>147.0</ele><time>2026-04-25T05:43:32.918Z</time></trkpt><trkpt lat="45.88786957187972" lon="12.074058449741145"><ele>146.71428571428572</ele><time>2026-04-25T05:43:33.918Z</time></trkpt><trkpt lat="45.88789528800907" lon="12.074159862065198"><ele>146.42857142857144</ele><time>2026-04-25T05:43:34.918Z</time></trkpt><trkpt lat="45.88793251850265" lon="12.074253330464865"><ele>146.14285714285714</ele><time>2026-04-25T05:43:35.919Z</time></trkpt><trkpt lat="45.88797409606075" lon="12.074336881295709"><ele>145.85714285714286</ele><time>2026-04-25T05:43:36.919Z</time></trkpt><trkpt lat="45.88801974358079" lon="12.074420971303223"><ele>145.57142857142858</ele><time>2026-04-25T05:43:37.919Z</time></trkpt><trkpt lat="45.88806798599479" lon="12.074493897204258"><ele>145.28571428571428</ele><time>2026-04-25T05:43:38.919Z</time></trkpt><trkpt lat="45.88811539910278" lon="12.074566923034057"><ele>145.0</ele><time>2026-04-25T05:43:39.918Z</time></trkpt><trkpt lat="45.88816096991262" lon="12.074647744059513"><ele>145.0</ele><time>2026-04-25T05:43:40.918Z</time></trkpt><trkpt lat="45.88821073782234" lon="12.074718162971564"><ele>145.0</ele><time>2026-04-25T05:43:41.919Z</time></trkpt><trkpt lat="45.88826418147976" lon="12.074783850478916"><ele>145.0</ele><time>2026-04-25T05:43:42.918Z</time></trkpt><trkpt lat="45.88831796061534" lon="12.074848962857539"><ele>145.0</ele><time>2026-04-25T05:43:43.918Z</time></trkpt><trkpt lat="45.88836683059756" lon="12.07492062107167"><ele>145.0</ele><time>2026-04-25T05:43:44.919Z</time></trkpt><trkpt lat="45.888410456338974" lon="12.074991628201323"><ele>145.0</ele><time>2026-04-25T05:43:45.919Z</time></trkpt><trkpt lat="45.888456072526466" lon="12.075067455975034"><ele>145.0</ele><time>2026-04-25T05:43:46.918Z</time></trkpt><trkpt lat="45.88849699261081" lon="12.07515266971784"><ele>145.71428571428572</ele><time>2026-04-25T05:43:47.918Z</time></trkpt><trkpt lat="45.88853545283129" lon="12.075237590555744"><ele>146.42857142857144</ele><time>2026-04-25T05:43:48.918Z</time></trkpt><trkpt lat="45.88858125759149" lon="12.075319798228348"><ele>147.14285714285714</ele><time>2026-04-25T05:43:49.918Z</time></trkpt><trkpt lat="45.88862355637133" lon="12.075405416498441"><ele>147.85714285714286</ele><time>2026-04-25T05:43:50.918Z</time></trkpt><trkpt lat="45.888670739396325" lon="12.075478192120578"><ele>148.57142857142856</ele><time>2026-04-25T05:43:51.918Z</time></trkpt><trkpt lat="45.88871803839935" lon="12.075546649459092"><ele>149.28571428571428</ele><time>2026-04-25T05:43:52.918Z</time></trkpt><trkpt lat="45.888766538573044" lon="12.075613595989902"><ele>150.0</ele><time>2026-04-25T05:43:53.918Z</time></trkpt><trkpt lat="45.888813939443395" lon="12.075679819481548"><ele>149.99999999999997</ele><time>2026-04-25T05:43:54.918Z</time></trkpt><trkpt lat="45.88885775555115" lon="12.075746129975975"><ele>150.0</ele><time>2026-04-25T05:43:55.918Z</time></trkpt><trkpt lat="45.8888985776026" lon="12.07582197718946"><ele>150.0</ele><time>2026-04-25T05:43:56.918Z</time></trkpt><trkpt lat="45.888936681052876" lon="12.075897226249916"><ele>150.0</ele><time>2026-04-25T05:43:57.918Z</time></trkpt><trkpt lat="45.88897095534767" lon="12.075974013677886"><ele>150.0</ele><time>2026-04-25T05:43:58.918Z</time></trkpt><trkpt lat="45.8890051071175" lon="12.076058523288513"><ele>149.99999999999997</ele><time>2026-04-25T05:43:59.918Z</time></trkpt><trkpt lat="45.8890491441552" lon="12.07613987274658"><ele>150.0</ele><time>2026-04-25T05:44:00.918Z</time></trkpt><trkpt lat="45.88909285088904" lon="12.07620980712592"><ele>150.0</ele><time>2026-04-25T05:44:01.918Z</time></trkpt><trkpt lat="45.88913407419907" lon="12.076284121074314"><ele>150.0</ele><time>2026-04-25T05:44:02.918Z</time></trkpt><trkpt lat="45.88919898475845" lon="12.076446009081783"><ele>150.0</ele><time>2026-04-25T05:44:04.918Z</time></trkpt><trkpt lat="45.889240343169874" lon="12.076517903167575"><ele>150.0</ele><time>2026-04-25T05:44:05.918Z</time></trkpt><trkpt lat="45.88928415873483" lon="12.076592685838216"><ele>150.0</ele><time>2026-04-25T05:44:06.918Z</time></trkpt><trkpt lat="45.88934202337506" lon="12.076645893174028"><ele>150.0</ele><time>2026-04-25T05:44:07.918Z</time></trkpt><trkpt lat="45.889390534100094" lon="12.07671284675269"><ele>149.99999999999997</ele><time>2026-04-25T05:44:08.918Z</time></trkpt><trkpt lat="45.88943843172444" lon="12.07678422392363"><ele>150.0</ele><time>2026-04-25T05:44:09.918Z</time></trkpt><trkpt lat="45.88948672664271" lon="12.076857107011643"><ele>150.0</ele><time>2026-04-25T05:44:10.918Z</time></trkpt><trkpt lat="45.88953413332328" lon="12.076927572398475"><ele>150.0</ele><time>2026-04-25T05:44:11.918Z</time></trkpt><trkpt lat="45.8895854719131" lon="12.076993832234553"><ele>150.0</ele><time>2026-04-25T05:44:12.918Z</time></trkpt><trkpt lat="45.88964027799974" lon="12.077062364495607"><ele>149.99999999999997</ele><time>2026-04-25T05:44:13.918Z</time></trkpt><trkpt lat="45.88969524495128" lon="12.077119444213203"><ele>150.0</ele><time>2026-04-25T05:44:14.918Z</time></trkpt><trkpt lat="45.88975424420984" lon="12.0771679058633"><ele>150.0</ele><time>2026-04-25T05:44:15.918Z</time></trkpt><trkpt lat="45.889813666016025" lon="12.07721187494393"><ele>150.0</ele><time>2026-04-25T05:44:16.918Z</time></trkpt><trkpt lat="45.88987199539913" lon="12.077257994753232"><ele>150.0</ele><time>2026-04-25T05:44:17.918Z</time></trkpt><trkpt lat="45.889930926858995" lon="12.077310923778183"><ele>150.0</ele><time>2026-04-25T05:44:18.918Z</time></trkpt><trkpt lat="45.8899870421706" lon="12.077373618664005"><ele>150.0</ele><time>2026-04-25T05:44:19.918Z</time></trkpt><trkpt lat="45.89007167494991" lon="12.077523104527698"><ele>150.0</ele><time>2026-04-25T05:44:21.917Z</time></trkpt><trkpt lat="45.89010182950676" lon="12.077612483502472"><ele>150.5</ele><time>2026-04-25T05:44:22.917Z</time></trkpt><trkpt lat="45.89011809192733" lon="12.077710913799027"><ele>151.0</ele><time>2026-04-25T05:44:23.917Z</time></trkpt><trkpt lat="45.89013915792227" lon="12.077802775263988"><ele>151.5</ele><time>2026-04-25T05:44:24.917Z</time></trkpt><trkpt lat="45.89014884471722" lon="12.077893204274737"><ele>152.0</ele><time>2026-04-25T05:44:25.917Z</time></trkpt><trkpt lat="45.89018116535398" lon="12.078061217989513"><ele>152.5</ele><time>2026-04-25T05:44:27.917Z</time></trkpt><trkpt lat="45.89023124594652" lon="12.078201762875795"><ele>153.0</ele><time>2026-04-25T05:44:29.917Z</time></trkpt><trkpt lat="45.89033326211976" lon="12.078272097545238"><ele>153.0</ele><time>2026-04-25T05:44:31.917Z</time></trkpt><trkpt lat="45.89046700734661" lon="12.078226954692472"><ele>153.0</ele><time>2026-04-25T05:44:33.917Z</time></trkpt><trkpt lat="45.890536374209724" lon="12.078200569978149"><ele>153.0</ele><time>2026-04-25T05:44:34.917Z</time></trkpt><trkpt lat="45.89065223437417" lon="12.078136726212627"><ele>153.0</ele><time>2026-04-25T05:44:36.917Z</time></trkpt><trkpt lat="45.89071182852375" lon="12.078101122050523"><ele>153.0</ele><time>2026-04-25T05:44:37.917Z</time></trkpt><trkpt lat="45.890821408862855" lon="12.078028377531304"><ele>153.6</ele><time>2026-04-25T05:44:39.917Z</time></trkpt><trkpt lat="45.890932410540124" lon="12.077949440327767"><ele>154.20000000000002</ele><time>2026-04-25T05:44:41.917Z</time></trkpt><trkpt lat="45.89099325749036" lon="12.07791477483676"><ele>154.8</ele><time>2026-04-25T05:44:42.917Z</time></trkpt><trkpt lat="45.891107419864674" lon="12.077848576669801"><ele>155.4</ele><time>2026-04-25T05:44:44.917Z</time></trkpt><trkpt lat="45.89121684092874" lon="12.077788957512565"><ele>156.0</ele><time>2026-04-25T05:44:46.917Z</time></trkpt><trkpt lat="45.89128882377358" lon="12.077794145408747"><ele>156.0</ele><time>2026-04-25T05:44:47.917Z</time></trkpt><trkpt lat="45.8913382648499" lon="12.077726510920026"><ele>156.0</ele><time>2026-04-25T05:44:48.917Z</time></trkpt><trkpt lat="45.89146268187668" lon="12.077705531994285"><ele>156.0</ele><time>2026-04-25T05:44:50.917Z</time></trkpt><trkpt lat="45.89154931405944" lon="12.077750375237802"><ele>156.0</ele><time>2026-04-25T05:44:52.917Z</time></trkpt><trkpt lat="45.89164526272774" lon="12.077835508044132"><ele>156.0</ele><time>2026-04-25T05:44:55.916Z</time></trkpt><trkpt lat="45.8916931676057" lon="12.077908498563328"><ele>156.0</ele><time>2026-04-25T05:44:56.916Z</time></trkpt><trkpt lat="45.89173449771834" lon="12.077983358511714"><ele>156.0</ele><time>2026-04-25T05:44:57.916Z</time></trkpt><trkpt lat="45.891772552164184" lon="12.07807417597584"><ele>156.0</ele><time>2026-04-25T05:44:58.916Z</time></trkpt><trkpt lat="45.89181594205326" lon="12.078166598606282"><ele>156.0</ele><time>2026-04-25T05:44:59.916Z</time></trkpt><trkpt lat="45.89186042561285" lon="12.078249091919309"><ele>156.0</ele><time>2026-04-25T05:45:00.916Z</time></trkpt><trkpt lat="45.891904438361365" lon="12.078329638623352"><ele>156.0</ele><time>2026-04-25T05:45:01.916Z</time></trkpt><trkpt lat="45.89194987055593" lon="12.07839681424025"><ele>156.0</ele><time>2026-04-25T05:45:02.916Z</time></trkpt><trkpt lat="45.891997550390116" lon="12.078468458402712"><ele>156.42857142857144</ele><time>2026-04-25T05:45:03.916Z</time></trkpt><trkpt lat="45.89204387596017" lon="12.078540855914813"><ele>156.85714285714283</ele><time>2026-04-25T05:45:04.916Z</time></trkpt><trkpt lat="45.89208742237161" lon="12.078616906035213"><ele>157.28571428571428</ele><time>2026-04-25T05:45:05.916Z</time></trkpt><trkpt lat="45.892134279678835" lon="12.078702860539877"><ele>157.71428571428572</ele><time>2026-04-25T05:45:06.916Z</time></trkpt><trkpt lat="45.89217851661825" lon="12.0787876184505"><ele>158.14285714285717</ele><time>2026-04-25T05:45:07.916Z</time></trkpt><trkpt lat="45.892223338409686" lon="12.078870036464478"><ele>158.57142857142856</ele><time>2026-04-25T05:45:08.916Z</time></trkpt><trkpt lat="45.8922712104415" lon="12.078948049917333"><ele>159.0</ele><time>2026-04-25T05:45:09.916Z</time></trkpt><trkpt lat="45.89231593218169" lon="12.079039144956559"><ele>158.66666666666666</ele><time>2026-04-25T05:45:10.916Z</time></trkpt><trkpt lat="45.89235102390466" lon="12.079139548199763"><ele>158.33333333333334</ele><time>2026-04-25T05:45:11.916Z</time></trkpt><trkpt lat="45.892389097814565" lon="12.079229610636373"><ele>158.0</ele><time>2026-04-25T05:45:12.916Z</time></trkpt><trkpt lat="45.892431014890015" lon="12.079311050819449"><ele>157.66666666666669</ele><time>2026-04-25T05:45:13.916Z</time></trkpt><trkpt lat="45.89246209244268" lon="12.079406573961492"><ele>157.33333333333334</ele><time>2026-04-25T05:45:14.916Z</time></trkpt><trkpt lat="45.89248342869488" lon="12.079511995239866"><ele>157.0</ele><time>2026-04-25T05:45:15.916Z</time></trkpt><trkpt lat="45.89249959579658" lon="12.079624445495728"><ele>156.99999999999997</ele><time>2026-04-25T05:45:16.916Z</time></trkpt><trkpt lat="45.892506471843724" lon="12.079732211534019"><ele>157.0</ele><time>2026-04-25T05:45:17.916Z</time></trkpt><trkpt lat="45.892516737512935" lon="12.079842989751727"><ele>157.0</ele><time>2026-04-25T05:45:18.916Z</time></trkpt><trkpt lat="45.89251812835949" lon="12.079953553289279"><ele>157.0</ele><time>2026-04-25T05:45:19.916Z</time></trkpt><trkpt lat="45.89251871976462" lon="12.08004957563369"><ele>157.0</ele><time>2026-04-25T05:45:20.916Z</time></trkpt><trkpt lat="45.89251928770818" lon="12.08015613153723"><ele>156.99999999999997</ele><time>2026-04-25T05:45:21.916Z</time></trkpt><trkpt lat="45.89251882367292" lon="12.080247080691178"><ele>157.0</ele><time>2026-04-25T05:45:22.916Z</time></trkpt><trkpt lat="45.892538823332316" lon="12.080419327189984"><ele>157.4</ele><time>2026-04-25T05:45:24.916Z</time></trkpt><trkpt lat="45.892623753292284" lon="12.080515085781323"><ele>157.79999999999998</ele><time>2026-04-25T05:45:26.916Z</time></trkpt><trkpt lat="45.89268962068259" lon="12.080489023935511"><ele>158.2</ele><time>2026-04-25T05:45:27.916Z</time></trkpt><trkpt lat="45.892810611176166" lon="12.080417376012566"><ele>158.6</ele><time>2026-04-25T05:45:29.916Z</time></trkpt><trkpt lat="45.892928054122855" lon="12.08035227017622"><ele>159.0</ele><time>2026-04-25T05:45:31.915Z</time></trkpt><trkpt lat="45.89298820342618" lon="12.080318942748171"><ele>159.0</ele><time>2026-04-25T05:45:32.915Z</time></trkpt><trkpt lat="45.893096823063686" lon="12.080254065026196"><ele>159.0</ele><time>2026-04-25T05:45:34.915Z</time></trkpt><trkpt lat="45.893159209259295" lon="12.080221155742585"><ele>159.0</ele><time>2026-04-25T05:45:35.915Z</time></trkpt><trkpt lat="45.893270506262034" lon="12.080153673327771"><ele>159.0</ele><time>2026-04-25T05:45:37.915Z</time></trkpt><trkpt lat="45.893332990941396" lon="12.08012130486189"><ele>159.0</ele><time>2026-04-25T05:45:38.917Z</time></trkpt><trkpt lat="45.89340311159196" lon="12.080089351038906"><ele>159.0</ele><time>2026-04-25T05:45:39.916Z</time></trkpt><trkpt lat="45.89351741433145" lon="12.080033221091233"><ele>160.25</ele><time>2026-04-25T05:45:41.917Z</time></trkpt><trkpt lat="45.893629788839" lon="12.080000666667322"><ele>161.5</ele><time>2026-04-25T05:45:43.916Z</time></trkpt><trkpt lat="45.893742208006714" lon="12.080025533048168"><ele>162.75</ele><time>2026-04-25T05:45:45.916Z</time></trkpt><trkpt lat="45.893846937244184" lon="12.080114895589459"><ele>164.0</ele><time>2026-04-25T05:45:47.916Z</time></trkpt><trkpt lat="45.89396077309423" lon="12.080229588139161"><ele>164.0</ele><time>2026-04-25T05:45:49.917Z</time></trkpt><trkpt lat="45.89406848440894" lon="12.08031374545969"><ele>164.0</ele><time>2026-04-25T05:45:51.916Z</time></trkpt><trkpt lat="45.89418259299118" lon="12.080399947493369"><ele>164.0</ele><time>2026-04-25T05:45:53.916Z</time></trkpt><trkpt lat="45.89424355297843" lon="12.08043769769763"><ele>164.0</ele><time>2026-04-25T05:45:54.916Z</time></trkpt><trkpt lat="45.894358509087574" lon="12.080479285323358"><ele>164.0</ele><time>2026-04-25T05:45:56.916Z</time></trkpt><trkpt lat="45.89448710962672" lon="12.080464161715096"><ele>165.79999999999998</ele><time>2026-04-25T05:45:58.916Z</time></trkpt><trkpt lat="45.89461408586828" lon="12.080461899311766"><ele>167.6</ele><time>2026-04-25T05:46:00.916Z</time></trkpt><trkpt lat="45.89467847295968" lon="12.080463249034842"><ele>169.4</ele><time>2026-04-25T05:46:01.916Z</time></trkpt><trkpt lat="45.894803062439884" lon="12.080447514569821"><ele>171.2</ele><time>2026-04-25T05:46:03.916Z</time></trkpt><trkpt lat="45.8949249620397" lon="12.080447209942324"><ele>173.0</ele><time>2026-04-25T05:46:05.916Z</time></trkpt><trkpt lat="45.895047824335464" lon="12.080455442367901"><ele>173.60000000000002</ele><time>2026-04-25T05:46:07.915Z</time></trkpt><trkpt lat="45.89511778820878" lon="12.080459130588045"><ele>174.20000000000002</ele><time>2026-04-25T05:46:08.915Z</time></trkpt><trkpt lat="45.89518113171141" lon="12.080450467669861"><ele>174.8</ele><time>2026-04-25T05:46:09.915Z</time></trkpt><trkpt lat="45.89528118356542" lon="12.080393771862788"><ele>175.4</ele><time>2026-04-25T05:46:11.915Z</time></trkpt><trkpt lat="45.895392620494825" lon="12.080316519468408"><ele>176.0</ele><time>2026-04-25T05:46:13.915Z</time></trkpt><trkpt lat="45.89549205985093" lon="12.080237594282833"><ele>176.0</ele><time>2026-04-25T05:46:15.915Z</time></trkpt><trkpt lat="45.895590871847034" lon="12.080157950984646"><ele>176.0</ele><time>2026-04-25T05:46:17.915Z</time></trkpt><trkpt lat="45.895680617476586" lon="12.080090679987103"><ele>176.0</ele><time>2026-04-25T05:46:19.915Z</time></trkpt><trkpt lat="45.89577050482278" lon="12.080031172220357"><ele>176.0</ele><time>2026-04-25T05:46:21.915Z</time></trkpt><trkpt lat="45.89584919246772" lon="12.079993768147867"><ele>176.0</ele><time>2026-04-25T05:46:23.915Z</time></trkpt><trkpt lat="45.89608248028311" lon="12.07992835400589"><ele>179.4</ele><time>2026-04-25T05:46:28.915Z</time></trkpt><trkpt lat="45.89619059732285" lon="12.079896029820148"><ele>182.8</ele><time>2026-04-25T05:46:30.915Z</time></trkpt><trkpt lat="45.89630318051548" lon="12.079870056429385"><ele>186.20000000000002</ele><time>2026-04-25T05:46:32.915Z</time></trkpt><trkpt lat="45.8964277668668" lon="12.079853312554157"><ele>189.60000000000002</ele><time>2026-04-25T05:46:34.915Z</time></trkpt><trkpt lat="45.89649592129771" lon="12.079830654866925"><ele>193.0</ele><time>2026-04-25T05:46:35.915Z</time></trkpt><trkpt lat="45.896566242689815" lon="12.079814604419127"><ele>193.0</ele><time>2026-04-25T05:46:36.915Z</time></trkpt><trkpt lat="45.89669946617869" lon="12.079782617122735"><ele>193.0</ele><time>2026-04-25T05:46:38.915Z</time></trkpt><trkpt lat="45.896767875888514" lon="12.079763587730723"><ele>193.0</ele><time>2026-04-25T05:46:39.915Z</time></trkpt><trkpt lat="45.89684051917636" lon="12.079741740595626"><ele>193.0</ele><time>2026-04-25T05:46:40.915Z</time></trkpt><trkpt lat="45.89696923766054" lon="12.079737734083821"><ele>193.0</ele><time>2026-04-25T05:46:42.914Z</time></trkpt><trkpt lat="45.897089574452664" lon="12.079718529508261"><ele>190.60000000000002</ele><time>2026-04-25T05:46:44.914Z</time></trkpt><trkpt lat="45.89715710410441" lon="12.079699995254458"><ele>188.20000000000002</ele><time>2026-04-25T05:46:45.914Z</time></trkpt><trkpt lat="45.89722705957416" lon="12.079674388864035"><ele>185.8</ele><time>2026-04-25T05:46:46.914Z</time></trkpt><trkpt lat="45.89734503484072" lon="12.079620515822246"><ele>183.4</ele><time>2026-04-25T05:46:48.914Z</time></trkpt><trkpt lat="45.89746205911451" lon="12.079564996367369"><ele>181.0</ele><time>2026-04-25T05:46:50.914Z</time></trkpt><trkpt lat="45.89756098755453" lon="12.07951683288469"><ele>179.0</ele><time>2026-04-25T05:46:52.914Z</time></trkpt><trkpt lat="45.89766670537924" lon="12.079469179033682"><ele>177.0</ele><time>2026-04-25T05:46:54.914Z</time></trkpt><trkpt lat="45.897729694910495" lon="12.079436375668939"><ele>175.0</ele><time>2026-04-25T05:46:55.914Z</time></trkpt><trkpt lat="45.89782787030697" lon="12.079390709136307"><ele>173.0</ele><time>2026-04-25T05:46:57.914Z</time></trkpt><trkpt lat="45.897888567691524" lon="12.079345861455929"><ele>171.0</ele><time>2026-04-25T05:46:58.914Z</time></trkpt><trkpt lat="45.89799342001068" lon="12.07928729144084"><ele>171.0</ele><time>2026-04-25T05:47:00.914Z</time></trkpt><trkpt lat="45.89810936844342" lon="12.079207671044905"><ele>171.0</ele><time>2026-04-25T05:47:02.914Z</time></trkpt><trkpt lat="45.898224855592815" lon="12.079138585482584"><ele>171.0</ele><time>2026-04-25T05:47:04.914Z</time></trkpt><trkpt lat="45.89829002948225" lon="12.079103851899582"><ele>171.0</ele><time>2026-04-25T05:47:05.914Z</time></trkpt><trkpt lat="45.89841808529805" lon="12.079047866980096"><ele>175.16666666666666</ele><time>2026-04-25T05:47:07.914Z</time></trkpt><trkpt lat="45.898483413028124" lon="12.079032810069831"><ele>179.33333333333331</ele><time>2026-04-25T05:47:08.914Z</time></trkpt><trkpt lat="45.89854916695522" lon="12.07902216709885"><ele>183.5</ele><time>2026-04-25T05:47:09.914Z</time></trkpt><trkpt lat="45.89863042279993" lon="12.078954976551575"><ele>187.66666666666666</ele><time>2026-04-25T05:47:11.914Z</time></trkpt><trkpt lat="45.89862364079706" lon="12.078828191193558"><ele>191.83333333333331</ele><time>2026-04-25T05:47:13.914Z</time></trkpt><trkpt lat="45.89857608071227" lon="12.078735865256636"><ele>196.0</ele><time>2026-04-25T05:47:15.913Z</time></trkpt><trkpt lat="45.898533453879395" lon="12.0785951037785"><ele>196.0</ele><time>2026-04-25T05:47:17.913Z</time></trkpt><trkpt lat="45.89847112172476" lon="12.078505063675262"><ele>196.0</ele><time>2026-04-25T05:47:19.913Z</time></trkpt><trkpt lat="45.898410400885865" lon="12.078401133031104"><ele>196.0</ele><time>2026-04-25T05:47:21.913Z</time></trkpt><trkpt lat="45.89834734660801" lon="12.078295457646592"><ele>196.0</ele><time>2026-04-25T05:47:23.913Z</time></trkpt><trkpt lat="45.89828116012371" lon="12.07818300448578"><ele>196.0</ele><time>2026-04-25T05:47:25.913Z</time></trkpt><trkpt lat="45.8982070634887" lon="12.078101714804973"><ele>194.99999999999997</ele><time>2026-04-25T05:47:27.913Z</time></trkpt><trkpt lat="45.89813597678392" lon="12.078029406093199"><ele>194.0</ele><time>2026-04-25T05:47:29.913Z</time></trkpt><trkpt lat="45.898075199428575" lon="12.077976308885901"><ele>193.0</ele><time>2026-04-25T05:47:31.913Z</time></trkpt><trkpt lat="45.8980090849054" lon="12.077890424401241"><ele>192.0</ele><time>2026-04-25T05:47:33.913Z</time></trkpt><trkpt lat="45.897949734224945" lon="12.077824354875393"><ele>191.0</ele><time>2026-04-25T05:47:35.913Z</time></trkpt><trkpt lat="45.89786593098724" lon="12.077721663398526"><ele>190.0</ele><time>2026-04-25T05:47:37.913Z</time></trkpt><trkpt lat="45.897796203228594" lon="12.077588516064914"><ele>190.0</ele><time>2026-04-25T05:47:39.913Z</time></trkpt><trkpt lat="45.89773793566438" lon="12.07744309141358"><ele>190.0</ele><time>2026-04-25T05:47:41.913Z</time></trkpt><trkpt lat="45.89768741509092" lon="12.07730834446505"><ele>190.0</ele><time>2026-04-25T05:47:43.913Z</time></trkpt><trkpt lat="45.89763878269044" lon="12.07717454765636"><ele>190.0</ele><time>2026-04-25T05:47:45.914Z</time></trkpt><trkpt lat="45.89758794469524" lon="12.077050321813577"><ele>190.0</ele><time>2026-04-25T05:47:47.914Z</time></trkpt><trkpt lat="45.897537553537425" lon="12.076977131005936"><ele>190.33333333333334</ele><time>2026-04-25T05:47:49.914Z</time></trkpt><trkpt lat="45.89750349875137" lon="12.076892677016914"><ele>190.66666666666669</ele><time>2026-04-25T05:47:52.914Z</time></trkpt><trkpt lat="45.897460074193" lon="12.076777908658892"><ele>191.0</ele><time>2026-04-25T05:47:55.914Z</time></trkpt><trkpt lat="45.89743681502334" lon="12.076688665692824"><ele>191.33333333333334</ele><time>2026-04-25T05:47:58.914Z</time></trkpt><trkpt lat="45.89744961979949" lon="12.076581794514556"><ele>191.66666666666666</ele><time>2026-04-25T05:48:01.914Z</time></trkpt><trkpt lat="45.89743073463102" lon="12.0764518923272"><ele>192.0</ele><time>2026-04-25T05:48:04.914Z</time></trkpt><trkpt lat="45.897420254487926" lon="12.076338007802736"><ele>192.0</ele><time>2026-04-25T05:48:07.914Z</time></trkpt><trkpt lat="45.897414006888084" lon="12.076238775235124"><ele>192.0</ele><time>2026-04-25T05:48:09.914Z</time></trkpt><trkpt lat="45.897392964572425" lon="12.076129062936639"><ele>192.0</ele><time>2026-04-25T05:48:11.914Z</time></trkpt><trkpt lat="45.897362240570416" lon="12.076023332843892"><ele>192.0</ele><time>2026-04-25T05:48:13.914Z</time></trkpt><trkpt lat="45.8973454790793" lon="12.075907645978951"><ele>192.0</ele><time>2026-04-25T05:48:15.913Z</time></trkpt><trkpt lat="45.89734498972947" lon="12.075781456544664"><ele>192.0</ele><time>2026-04-25T05:48:17.913Z</time></trkpt><trkpt lat="45.89734263961108" lon="12.075659063210175"><ele>193.0</ele><time>2026-04-25T05:48:19.913Z</time></trkpt><trkpt lat="45.89734017714772" lon="12.075518304969533"><ele>194.0</ele><time>2026-04-25T05:48:21.913Z</time></trkpt><trkpt lat="45.897340038789444" lon="12.075403286639746"><ele>195.0</ele><time>2026-04-25T05:48:23.913Z</time></trkpt><trkpt lat="45.89734491686688" lon="12.075275964006792"><ele>196.0</ele><time>2026-04-25T05:48:25.913Z</time></trkpt><trkpt lat="45.89735950216151" lon="12.07517301316286"><ele>197.0</ele><time>2026-04-25T05:48:27.913Z</time></trkpt><trkpt lat="45.897367974939314" lon="12.075023043225535"><ele>198.0</ele><time>2026-04-25T05:48:29.913Z</time></trkpt><trkpt lat="45.89738057774116" lon="12.07488654666211"><ele>199.5</ele><time>2026-04-25T05:48:31.913Z</time></trkpt><trkpt lat="45.897388830724154" lon="12.074757521278412"><ele>201.0</ele><time>2026-04-25T05:48:33.913Z</time></trkpt><trkpt lat="45.89737156913247" lon="12.074665812985009"><ele>202.5</ele><time>2026-04-25T05:48:35.913Z</time></trkpt><trkpt lat="45.89733288995966" lon="12.074540978541144"><ele>204.0</ele><time>2026-04-25T05:48:38.913Z</time></trkpt><trkpt lat="45.89729666040824" lon="12.074445922451158"><ele>205.5</ele><time>2026-04-25T05:48:41.913Z</time></trkpt><trkpt lat="45.89727400179166" lon="12.074340994248182"><ele>207.0</ele><time>2026-04-25T05:48:44.913Z</time></trkpt><trkpt lat="45.897294582555055" lon="12.074226057577524"><ele>207.0</ele><time>2026-04-25T05:48:48.913Z</time></trkpt><trkpt lat="45.89731233719765" lon="12.074138833716496"><ele>207.0</ele><time>2026-04-25T05:48:50.912Z</time></trkpt><trkpt lat="45.89731199205857" lon="12.07402875943583"><ele>207.0</ele><time>2026-04-25T05:48:54.912Z</time></trkpt><trkpt lat="45.897330198156496" lon="12.073902041029903"><ele>207.0</ele><time>2026-04-25T05:48:58.912Z</time></trkpt><trkpt lat="45.89736261548689" lon="12.073803670154811"><ele>207.0</ele><time>2026-04-25T05:49:02.912Z</time></trkpt><trkpt lat="45.89737594225278" lon="12.073666222705194"><ele>207.0</ele><time>2026-04-25T05:49:05.912Z</time></trkpt><trkpt lat="45.89733719528402" lon="12.073565221906366"><ele>207.83333333333334</ele><time>2026-04-25T05:49:08.912Z</time></trkpt><trkpt lat="45.8972777162382" lon="12.073463528929496"><ele>208.66666666666669</ele><time>2026-04-25T05:49:11.912Z</time></trkpt><trkpt lat="45.89725748104175" lon="12.07337253162304"><ele>209.5</ele><time>2026-04-25T05:49:14.912Z</time></trkpt><trkpt lat="45.89721063764204" lon="12.073257132206368"><ele>210.33333333333334</ele><time>2026-04-25T05:49:17.912Z</time></trkpt><trkpt lat="45.89717503457531" lon="12.073171903508868"><ele>211.16666666666669</ele><time>2026-04-25T05:49:20.912Z</time></trkpt><trkpt lat="45.89712117071899" lon="12.07308210232561"><ele>212.0</ele><time>2026-04-25T05:49:23.912Z</time></trkpt><trkpt lat="45.89708627663828" lon="12.072977412095787"><ele>212.57142857142858</ele><time>2026-04-25T05:49:26.911Z</time></trkpt><trkpt lat="45.8970338067952" lon="12.072878264448494"><ele>213.14285714285714</ele><time>2026-04-25T05:49:28.911Z</time></trkpt><trkpt lat="45.89699491765152" lon="12.072770280336814"><ele>213.71428571428572</ele><time>2026-04-25T05:49:31.911Z</time></trkpt><trkpt lat="45.896957316393475" lon="12.072682588703023"><ele>214.28571428571428</ele><time>2026-04-25T05:49:34.911Z</time></trkpt><trkpt lat="45.896915518293774" lon="12.07260025283472"><ele>214.85714285714283</ele><time>2026-04-25T05:49:37.911Z</time></trkpt><trkpt lat="45.89688005739889" lon="12.072524577036367"><ele>215.42857142857142</ele><time>2026-04-25T05:49:39.911Z</time></trkpt><trkpt lat="45.89685026101601" lon="12.072433155526253"><ele>216.0</ele><time>2026-04-25T05:49:41.911Z</time></trkpt><trkpt lat="45.89684260347117" lon="12.072308288599134"><ele>219.0</ele><time>2026-04-25T05:49:43.911Z</time></trkpt><trkpt lat="45.89681483240803" lon="12.072206635188081"><ele>222.00000000000003</ele><time>2026-04-25T05:49:45.911Z</time></trkpt><trkpt lat="45.89682090070467" lon="12.07208675948325"><ele>225.00000000000003</ele><time>2026-04-25T05:49:47.911Z</time></trkpt><trkpt lat="45.896819936942755" lon="12.071916858234987"><ele>228.0</ele><time>2026-04-25T05:49:49.911Z</time></trkpt><trkpt lat="45.89684039699734" lon="12.071760007895197"><ele>231.0</ele><time>2026-04-25T05:49:50.912Z</time></trkpt><trkpt lat="45.89685762859662" lon="12.071631758621415"><ele>231.66666666666666</ele><time>2026-04-25T05:49:51.912Z</time></trkpt><trkpt lat="45.89687255829337" lon="12.071507450995659"><ele>232.33333333333331</ele><time>2026-04-25T05:49:52.912Z</time></trkpt><trkpt lat="45.89689007545556" lon="12.071384000033746"><ele>233.0</ele><time>2026-04-25T05:49:53.912Z</time></trkpt><trkpt lat="45.896902819558655" lon="12.071256577413049"><ele>233.66666666666666</ele><time>2026-04-25T05:49:54.913Z</time></trkpt><trkpt lat="45.8969228878906" lon="12.071136993380447"><ele>234.33333333333331</ele><time>2026-04-25T05:49:55.913Z</time></trkpt><trkpt lat="45.896953116811076" lon="12.071028517177881"><ele>235.0</ele><time>2026-04-25T05:49:56.912Z</time></trkpt><trkpt lat="45.896979947625226" lon="12.070919230437669"><ele>234.99999999999997</ele><time>2026-04-25T05:49:57.912Z</time></trkpt><trkpt lat="45.896974392619434" lon="12.070807849750697"><ele>235.0</ele><time>2026-04-25T05:49:58.912Z</time></trkpt><trkpt lat="45.896930201781686" lon="12.07066468068238"><ele>235.0</ele><time>2026-04-25T05:49:59.912Z</time></trkpt><trkpt lat="45.89687721185231" lon="12.070578646610693"><ele>235.0</ele><time>2026-04-25T05:50:00.912Z</time></trkpt><trkpt lat="45.896825272097054" lon="12.070501685051978"><ele>234.99999999999997</ele><time>2026-04-25T05:50:01.912Z</time></trkpt><trkpt lat="45.89681867995923" lon="12.07038199451454"><ele>235.0</ele><time>2026-04-25T05:50:04.912Z</time></trkpt><trkpt lat="45.89687266583589" lon="12.070287733849929"><ele>234.66666666666666</ele><time>2026-04-25T05:50:06.912Z</time></trkpt><trkpt lat="45.89691323583943" lon="12.07019810957249"><ele>234.33333333333331</ele><time>2026-04-25T05:50:08.911Z</time></trkpt><trkpt lat="45.89697199517593" lon="12.070099543938555"><ele>234.0</ele><time>2026-04-25T05:50:10.911Z</time></trkpt><trkpt lat="45.8970458257587" lon="12.070014210173419"><ele>233.66666666666669</ele><time>2026-04-25T05:50:12.911Z</time></trkpt><trkpt lat="45.897097302320326" lon="12.069861718706496"><ele>233.33333333333334</ele><time>2026-04-25T05:50:14.911Z</time></trkpt><trkpt lat="45.897076363848235" lon="12.069772910387895"><ele>233.0</ele><time>2026-04-25T05:50:15.911Z</time></trkpt><trkpt lat="45.896986062786056" lon="12.069680381211413"><ele>233.00000000000003</ele><time>2026-04-25T05:50:17.911Z</time></trkpt><trkpt lat="45.89691665871466" lon="12.069586886644041"><ele>233.0</ele><time>2026-04-25T05:50:19.911Z</time></trkpt><trkpt lat="45.89687414818472" lon="12.06944581357987"><ele>233.0</ele><time>2026-04-25T05:50:21.911Z</time></trkpt><trkpt lat="45.89686156550148" lon="12.069341857572745"><ele>233.0</ele><time>2026-04-25T05:50:22.911Z</time></trkpt><trkpt lat="45.89685207156328" lon="12.069234256533827"><ele>233.00000000000003</ele><time>2026-04-25T05:50:23.911Z</time></trkpt><trkpt lat="45.896805551403624" lon="12.069162801488329"><ele>233.0</ele><time>2026-04-25T05:50:24.911Z</time></trkpt><trkpt lat="45.89669805716673" lon="12.06910343530628"><ele>231.50000000000003</ele><time>2026-04-25T05:50:26.911Z</time></trkpt><trkpt lat="45.89661665364892" lon="12.069023592007424"><ele>230.0</ele><time>2026-04-25T05:50:28.911Z</time></trkpt><trkpt lat="45.89655838111678" lon="12.068928635647374"><ele>228.5</ele><time>2026-04-25T05:50:31.911Z</time></trkpt><trkpt lat="45.89650873462434" lon="12.068841582290386"><ele>227.0</ele><time>2026-04-25T05:50:35.911Z</time></trkpt><trkpt lat="45.8964974591842" lon="12.068752092454522"><ele>225.50000000000003</ele><time>2026-04-25T05:50:39.911Z</time></trkpt><trkpt lat="45.89648635897197" lon="12.068644684674432"><ele>224.0</ele><time>2026-04-25T05:50:43.91Z</time></trkpt><trkpt lat="45.8964470306438" lon="12.068526974392167"><ele>224.00000000000003</ele><time>2026-04-25T05:50:47.91Z</time></trkpt><trkpt lat="45.89646951544298" lon="12.068434160846419"><ele>224.0</ele><time>2026-04-25T05:50:51.91Z</time></trkpt><trkpt lat="45.89648435350598" lon="12.068327131191841"><ele>224.0</ele><time>2026-04-25T05:50:55.91Z</time></trkpt><trkpt lat="45.896460659289865" lon="12.068212120785176"><ele>224.0</ele><time>2026-04-25T05:50:59.91Z</time></trkpt><trkpt lat="45.896411110179756" lon="12.068127030495274"><ele>224.00000000000003</ele><time>2026-04-25T05:51:02.91Z</time></trkpt><trkpt lat="45.89638979596003" lon="12.068037086191191"><ele>224.0</ele><time>2026-04-25T05:51:04.91Z</time></trkpt><trkpt lat="45.89633431102914" lon="12.067915958375425"><ele>222.66666666666669</ele><time>2026-04-25T05:51:07.91Z</time></trkpt><trkpt lat="45.896297368529325" lon="12.067834067241673"><ele>221.33333333333334</ele><time>2026-04-25T05:51:09.91Z</time></trkpt><trkpt lat="45.896251004224084" lon="12.067755963942478"><ele>220.0</ele><time>2026-04-25T05:51:11.91Z</time></trkpt><trkpt lat="45.896212532170054" lon="12.067661736459895"><ele>218.66666666666669</ele><time>2026-04-25T05:51:13.91Z</time></trkpt><trkpt lat="45.89617534071636" lon="12.067581103143299"><ele>217.33333333333334</ele><time>2026-04-25T05:51:15.91Z</time></trkpt><trkpt lat="45.89612250248165" lon="12.06746895214703"><ele>216.0</ele><time>2026-04-25T05:51:18.909Z</time></trkpt><trkpt lat="45.89608750592093" lon="12.067365817304722"><ele>213.33333333333334</ele><time>2026-04-25T05:51:21.909Z</time></trkpt><trkpt lat="45.89607289154113" lon="12.067277325172949"><ele>210.66666666666669</ele><time>2026-04-25T05:51:23.909Z</time></trkpt><trkpt lat="45.89605880000529" lon="12.067169229432626"><ele>208.0</ele><time>2026-04-25T05:51:26.909Z</time></trkpt><trkpt lat="45.896035692210766" lon="12.067066521273043"><ele>205.33333333333334</ele><time>2026-04-25T05:51:30.909Z</time></trkpt><trkpt lat="45.896011726050986" lon="12.066949002289531"><ele>202.66666666666669</ele><time>2026-04-25T05:51:34.909Z</time></trkpt><trkpt lat="45.895999028599654" lon="12.066842856458768"><ele>200.0</ele><time>2026-04-25T05:51:37.909Z</time></trkpt><trkpt lat="45.895958430995286" lon="12.066696646905067"><ele>198.0</ele><time>2026-04-25T05:51:40.909Z</time></trkpt><trkpt lat="45.89591912559612" lon="12.066559092620793"><ele>196.0</ele><time>2026-04-25T05:51:44.909Z</time></trkpt><trkpt lat="45.89584597829466" lon="12.066569411477131"><ele>194.0</ele><time>2026-04-25T05:51:48.909Z</time></trkpt><trkpt lat="45.89570486057369" lon="12.066627234516806"><ele>192.0</ele><time>2026-04-25T05:51:51.908Z</time></trkpt><trkpt lat="45.89562064490586" lon="12.066675896872873"><ele>190.0</ele><time>2026-04-25T05:51:52.908Z</time></trkpt><trkpt lat="45.89552072097334" lon="12.066719410101499"><ele>190.0</ele><time>2026-04-25T05:51:53.908Z</time></trkpt><trkpt lat="45.89543333881782" lon="12.066762153067042"><ele>190.0</ele><time>2026-04-25T05:51:54.908Z</time></trkpt><trkpt lat="45.89533260563951" lon="12.066810638033262"><ele>190.0</ele><time>2026-04-25T05:51:55.908Z</time></trkpt><trkpt lat="45.89522764898051" lon="12.066843292205023"><ele>190.0</ele><time>2026-04-25T05:51:56.91Z</time></trkpt><trkpt lat="45.89511662767096" lon="12.06687054118894"><ele>190.0</ele><time>2026-04-25T05:51:57.91Z</time></trkpt><trkpt lat="45.89500952106606" lon="12.06689541830357"><ele>189.5</ele><time>2026-04-25T05:51:58.91Z</time></trkpt><trkpt lat="45.89489400212176" lon="12.066925181910083"><ele>189.0</ele><time>2026-04-25T05:51:59.91Z</time></trkpt><trkpt lat="45.89477271061741" lon="12.0669757275574"><ele>188.5</ele><time>2026-04-25T05:52:00.91Z</time></trkpt><trkpt lat="45.894655392776734" lon="12.067000437895592"><ele>188.0</ele><time>2026-04-25T05:52:01.91Z</time></trkpt><trkpt lat="45.8945307121447" lon="12.067016276262587"><ele>188.0</ele><time>2026-04-25T05:52:02.91Z</time></trkpt><trkpt lat="45.89440930822252" lon="12.067061585878779"><ele>188.0</ele><time>2026-04-25T05:52:03.91Z</time></trkpt><trkpt lat="45.89429763707345" lon="12.067097277100903"><ele>188.0</ele><time>2026-04-25T05:52:04.91Z</time></trkpt><trkpt lat="45.89419494962066" lon="12.067111219969691"><ele>188.0</ele><time>2026-04-25T05:52:05.909Z</time></trkpt><trkpt lat="45.89409274980916" lon="12.06712185428969"><ele>188.0</ele><time>2026-04-25T05:52:06.91Z</time></trkpt><trkpt lat="45.893986191351445" lon="12.067128273267583"><ele>188.4</ele><time>2026-04-25T05:52:07.91Z</time></trkpt><trkpt lat="45.893884780456744" lon="12.067140452049932"><ele>188.8</ele><time>2026-04-25T05:52:08.91Z</time></trkpt><trkpt lat="45.893795739175225" lon="12.067153109792386"><ele>189.2</ele><time>2026-04-25T05:52:09.909Z</time></trkpt><trkpt lat="45.89369651231138" lon="12.067161540107659"><ele>189.6</ele><time>2026-04-25T05:52:10.909Z</time></trkpt><trkpt lat="45.8936032003124" lon="12.067169572338733"><ele>190.0</ele><time>2026-04-25T05:52:11.909Z</time></trkpt><trkpt lat="45.89351553673896" lon="12.067187188240128"><ele>190.0</ele><time>2026-04-25T05:52:12.909Z</time></trkpt><trkpt lat="45.89342140685683" lon="12.067208496888949"><ele>190.0</ele><time>2026-04-25T05:52:13.909Z</time></trkpt><trkpt lat="45.89333233553612" lon="12.067203356149205"><ele>190.0</ele><time>2026-04-25T05:52:14.909Z</time></trkpt><trkpt lat="45.893239106178186" lon="12.067185236012964"><ele>190.0</ele><time>2026-04-25T05:52:15.909Z</time></trkpt><trkpt lat="45.89313781083222" lon="12.067155303192644"><ele>190.0</ele><time>2026-04-25T05:52:16.909Z</time></trkpt><trkpt lat="45.89304511694295" lon="12.067139377046175"><ele>190.0</ele><time>2026-04-25T05:52:17.909Z</time></trkpt><trkpt lat="45.892954185894865" lon="12.067128924261846"><ele>190.0</ele><time>2026-04-25T05:52:18.909Z</time></trkpt><trkpt lat="45.89286137365153" lon="12.067115635167905"><ele>190.0</ele><time>2026-04-25T05:52:19.908Z</time></trkpt><trkpt lat="45.89276795139371" lon="12.067105739528674"><ele>190.0</ele><time>2026-04-25T05:52:20.908Z</time></trkpt><trkpt lat="45.89267598504314" lon="12.067105353373874"><ele>190.0</ele><time>2026-04-25T05:52:21.908Z</time></trkpt><trkpt lat="45.892580562217155" lon="12.067108038197455"><ele>189.5</ele><time>2026-04-25T05:52:22.907Z</time></trkpt><trkpt lat="45.892493515098295" lon="12.067113379962754"><ele>189.0</ele><time>2026-04-25T05:52:23.907Z</time></trkpt><trkpt lat="45.892411450822" lon="12.067131225647227"><ele>188.5</ele><time>2026-04-25T05:52:24.907Z</time></trkpt><trkpt lat="45.892339064931505" lon="12.067165014157299"><ele>188.0</ele><time>2026-04-25T05:52:25.907Z</time></trkpt><trkpt lat="45.89226581745878" lon="12.067200286620624"><ele>187.5</ele><time>2026-04-25T05:52:26.906Z</time></trkpt><trkpt lat="45.89217432180986" lon="12.067215001756963"><ele>187.0</ele><time>2026-04-25T05:52:27.906Z</time></trkpt><trkpt lat="45.89208100659148" lon="12.06722256039592"><ele>187.0</ele><time>2026-04-25T05:52:28.906Z</time></trkpt><trkpt lat="45.89199156795594" lon="12.06722983599361"><ele>187.0</ele><time>2026-04-25T05:52:29.906Z</time></trkpt><trkpt lat="45.89190899550427" lon="12.06723884877671"><ele>187.0</ele><time>2026-04-25T05:52:30.906Z</time></trkpt><trkpt lat="45.89184208042196" lon="12.067252126744272"><ele>187.0</ele><time>2026-04-25T05:52:31.906Z</time></trkpt><trkpt lat="45.89173893444308" lon="12.067266523040166"><ele>187.0</ele><time>2026-04-25T05:52:33.905Z</time></trkpt><trkpt lat="45.89165968511997" lon="12.06723043716794"><ele>187.0</ele><time>2026-04-25T05:52:36.905Z</time></trkpt><trkpt lat="45.891624621785944" lon="12.067147859842255"><ele>184.0</ele><time>2026-04-25T05:52:38.905Z</time></trkpt><trkpt lat="45.891563524520635" lon="12.067088174303333"><ele>181.0</ele><time>2026-04-25T05:52:40.904Z</time></trkpt><trkpt lat="45.89145548564032" lon="12.06702709012058"><ele>178.0</ele><time>2026-04-25T05:52:42.904Z</time></trkpt><trkpt lat="45.89139646690707" lon="12.066985662294659"><ele>175.0</ele><time>2026-04-25T05:52:43.904Z</time></trkpt><trkpt lat="45.89131390764832" lon="12.066868160377306"><ele>172.0</ele><time>2026-04-25T05:52:45.904Z</time></trkpt><trkpt lat="45.891284426054874" lon="12.066778008775508"><ele>169.0</ele><time>2026-04-25T05:52:46.904Z</time></trkpt><trkpt lat="45.8912893618392" lon="12.066664950532907"><ele>169.14285714285714</ele><time>2026-04-25T05:52:47.904Z</time></trkpt><trkpt lat="45.89128476018016" lon="12.066559753033076"><ele>169.28571428571428</ele><time>2026-04-25T05:52:48.904Z</time></trkpt><trkpt lat="45.89127298973597" lon="12.066456840049833"><ele>169.42857142857144</ele><time>2026-04-25T05:52:49.904Z</time></trkpt><trkpt lat="45.89125804365033" lon="12.066358944280392"><ele>169.57142857142856</ele><time>2026-04-25T05:52:50.904Z</time></trkpt><trkpt lat="45.89124807693404" lon="12.06624896535449"><ele>169.7142857142857</ele><time>2026-04-25T05:52:51.903Z</time></trkpt><trkpt lat="45.89123920392015" lon="12.066142167121766"><ele>169.85714285714286</ele><time>2026-04-25T05:52:52.903Z</time></trkpt><trkpt lat="45.89122923637404" lon="12.06604283284752"><ele>170.0</ele><time>2026-04-25T05:52:53.903Z</time></trkpt><trkpt lat="45.89121521459049" lon="12.065946672102648"><ele>170.0</ele><time>2026-04-25T05:52:54.903Z</time></trkpt><trkpt lat="45.8912018754739" lon="12.065851624808946"><ele>170.0</ele><time>2026-04-25T05:52:55.903Z</time></trkpt><trkpt lat="45.8911901021523" lon="12.065753169139676"><ele>170.0</ele><time>2026-04-25T05:52:56.903Z</time></trkpt><trkpt lat="45.89118631822651" lon="12.065650668195296"><ele>170.0</ele><time>2026-04-25T05:52:57.903Z</time></trkpt><trkpt lat="45.89120151365477" lon="12.065550474937162"><ele>170.0</ele><time>2026-04-25T05:52:58.903Z</time></trkpt><trkpt lat="45.89122534845038" lon="12.065453240762153"><ele>170.0</ele><time>2026-04-25T05:52:59.903Z</time></trkpt><trkpt lat="45.89124561061175" lon="12.06536676009306"><ele>170.0</ele><time>2026-04-25T05:53:00.903Z</time></trkpt><trkpt lat="45.89126541381044" lon="12.065278405801719"><ele>170.0</ele><time>2026-04-25T05:53:01.903Z</time></trkpt><trkpt lat="45.891281270936666" lon="12.065187410836954"><ele>170.0</ele><time>2026-04-25T05:53:02.903Z</time></trkpt><trkpt lat="45.89134057341436" lon="12.06504065855682"><ele>170.0</ele><time>2026-04-25T05:53:04.903Z</time></trkpt><trkpt lat="45.89143069631071" lon="12.064939597970056"><ele>170.0</ele><time>2026-04-25T05:53:06.903Z</time></trkpt><trkpt lat="45.89153180446483" lon="12.064850275468869"><ele>170.0</ele><time>2026-04-25T05:53:08.903Z</time></trkpt><trkpt lat="45.89162815669234" lon="12.06475143754812"><ele>172.0</ele><time>2026-04-25T05:53:10.902Z</time></trkpt><trkpt lat="45.89172897080772" lon="12.064668436876563"><ele>174.0</ele><time>2026-04-25T05:53:12.902Z</time></trkpt><trkpt lat="45.891816189928086" lon="12.064587456716719"><ele>176.0</ele><time>2026-04-25T05:53:14.902Z</time></trkpt><trkpt lat="45.891896986635544" lon="12.06445944270067"><ele>178.0</ele><time>2026-04-25T05:53:16.902Z</time></trkpt><trkpt lat="45.89193704707033" lon="12.064317848335302"><ele>180.0</ele><time>2026-04-25T05:53:18.902Z</time></trkpt><trkpt lat="45.89194932445714" lon="12.064182273193845"><ele>179.83333333333334</ele><time>2026-04-25T05:53:20.902Z</time></trkpt><trkpt lat="45.89194203290053" lon="12.064021472803423"><ele>179.66666666666666</ele><time>2026-04-25T05:53:22.902Z</time></trkpt><trkpt lat="45.891925082120096" lon="12.063900823809833"><ele>179.5</ele><time>2026-04-25T05:53:24.902Z</time></trkpt><trkpt lat="45.89196228629954" lon="12.063794532397472"><ele>179.33333333333331</ele><time>2026-04-25T05:53:26.902Z</time></trkpt><trkpt lat="45.89202428232841" lon="12.06374685324674"><ele>179.16666666666666</ele><time>2026-04-25T05:53:28.902Z</time></trkpt><trkpt lat="45.89208103808081" lon="12.06365757920472"><ele>179.0</ele><time>2026-04-25T05:53:30.902Z</time></trkpt><trkpt lat="45.89213555108762" lon="12.063532842748229"><ele>179.0</ele><time>2026-04-25T05:53:32.902Z</time></trkpt><trkpt lat="45.892153703761466" lon="12.063438068220472"><ele>179.0</ele><time>2026-04-25T05:53:33.902Z</time></trkpt><trkpt lat="45.89217672333138" lon="12.063348660805056"><ele>179.0</ele><time>2026-04-25T05:53:34.902Z</time></trkpt><trkpt lat="45.8921933266833" lon="12.06325082424023"><ele>179.0</ele><time>2026-04-25T05:53:35.902Z</time></trkpt><trkpt lat="45.89222202197573" lon="12.063092234455311"><ele>179.0</ele><time>2026-04-25T05:53:37.902Z</time></trkpt><trkpt lat="45.89225176119778" lon="12.06294780646098"><ele>179.0</ele><time>2026-04-25T05:53:39.901Z</time></trkpt><trkpt lat="45.892271656761274" lon="12.062830734442764"><ele>179.0</ele><time>2026-04-25T05:53:41.901Z</time></trkpt><trkpt lat="45.89226996507196" lon="12.06269434523716"><ele>179.0</ele><time>2026-04-25T05:53:43.901Z</time></trkpt><trkpt lat="45.8922815801492" lon="12.062586255052624"><ele>179.0</ele><time>2026-04-25T05:53:45.901Z</time></trkpt><trkpt lat="45.89229048748326" lon="12.062483766688455"><ele>179.0</ele><time>2026-04-25T05:53:47.901Z</time></trkpt><trkpt lat="45.8922993436295" lon="12.06239014704333"><ele>179.0</ele><time>2026-04-25T05:53:49.901Z</time></trkpt><trkpt lat="45.89230510717256" lon="12.06226826404367"><ele>179.0</ele><time>2026-04-25T05:53:52.901Z</time></trkpt><trkpt lat="45.89231952081584" lon="12.062147861338106"><ele>180.66666666666666</ele><time>2026-04-25T05:53:55.901Z</time></trkpt><trkpt lat="45.892306260198644" lon="12.062041466422189"><ele>182.33333333333331</ele><time>2026-04-25T05:53:57.901Z</time></trkpt><trkpt lat="45.89228039290227" lon="12.061935940738818"><ele>184.0</ele><time>2026-04-25T05:53:59.901Z</time></trkpt><trkpt lat="45.89222848027025" lon="12.061824712942498"><ele>185.66666666666666</ele><time>2026-04-25T05:54:02.902Z</time></trkpt><trkpt lat="45.89221522293704" lon="12.06170460185239"><ele>187.33333333333334</ele><time>2026-04-25T05:54:04.902Z</time></trkpt><trkpt lat="45.89221970030969" lon="12.061582066381273"><ele>189.0</ele><time>2026-04-25T05:54:06.903Z</time></trkpt><trkpt lat="45.892247736796286" lon="12.06148498755872"><ele>189.57142857142858</ele><time>2026-04-25T05:54:08.902Z</time></trkpt><trkpt lat="45.89227431740061" lon="12.06138520885425"><ele>190.14285714285714</ele><time>2026-04-25T05:54:10.902Z</time></trkpt><trkpt lat="45.89230429615258" lon="12.061280517904105"><ele>190.71428571428572</ele><time>2026-04-25T05:54:12.902Z</time></trkpt><trkpt lat="45.892316710367965" lon="12.061175279274746"><ele>191.28571428571428</ele><time>2026-04-25T05:54:14.902Z</time></trkpt><trkpt lat="45.892324173595135" lon="12.061071598211626"><ele>191.85714285714286</ele><time>2026-04-25T05:54:17.902Z</time></trkpt><trkpt lat="45.892339837392186" lon="12.060955715754917"><ele>192.42857142857144</ele><time>2026-04-25T05:54:20.902Z</time></trkpt><trkpt lat="45.89235955608816" lon="12.060866680336652"><ele>193.0</ele><time>2026-04-25T05:54:22.902Z</time></trkpt><trkpt lat="45.8923819476106" lon="12.060743472215373"><ele>193.49999999999997</ele><time>2026-04-25T05:54:25.902Z</time></trkpt><trkpt lat="45.89239032545109" lon="12.060631860258761"><ele>194.0</ele><time>2026-04-25T05:54:28.902Z</time></trkpt><trkpt lat="45.89237464176351" lon="12.060541046710789"><ele>194.5</ele><time>2026-04-25T05:54:31.902Z</time></trkpt><trkpt lat="45.892347959022345" lon="12.060439288192727"><ele>195.0</ele><time>2026-04-25T05:54:33.902Z</time></trkpt><trkpt lat="45.89232168424361" lon="12.060337826765025"><ele>195.49999999999997</ele><time>2026-04-25T05:54:37.902Z</time></trkpt><trkpt lat="45.89228367836523" lon="12.060198748594027"><ele>196.0</ele><time>2026-04-25T05:54:40.902Z</time></trkpt><trkpt lat="45.8922698224182" lon="12.060062756761907"><ele>196.0</ele><time>2026-04-25T05:54:42.902Z</time></trkpt><trkpt lat="45.89225993660856" lon="12.059923750052327"><ele>196.0</ele><time>2026-04-25T05:54:44.901Z</time></trkpt><trkpt lat="45.892258842295625" lon="12.05979296975632"><ele>196.0</ele><time>2026-04-25T05:54:46.901Z</time></trkpt><trkpt lat="45.892255221270425" lon="12.059688041506861"><ele>196.0</ele><time>2026-04-25T05:54:48.901Z</time></trkpt><trkpt lat="45.89227940246127" lon="12.059578334934534"><ele>196.0</ele><time>2026-04-25T05:54:50.901Z</time></trkpt><trkpt lat="45.89233090085602" lon="12.059440213746218"><ele>195.99999999999997</ele><time>2026-04-25T05:54:52.901Z</time></trkpt><trkpt lat="45.892402403376" lon="12.059294844980261"><ele>196.0</ele><time>2026-04-25T05:54:54.901Z</time></trkpt><trkpt lat="45.89244282911853" lon="12.05921531814429"><ele>196.0</ele><time>2026-04-25T05:54:55.901Z</time></trkpt><trkpt lat="45.89248404856399" lon="12.05913611578473"><ele>196.0</ele><time>2026-04-25T05:54:56.901Z</time></trkpt><trkpt lat="45.892516636723286" lon="12.059050484119895"><ele>195.99999999999997</ele><time>2026-04-25T05:54:57.901Z</time></trkpt><trkpt lat="45.89254170155913" lon="12.05895650202817"><ele>196.0</ele><time>2026-04-25T05:54:58.901Z</time></trkpt><trkpt lat="45.89255912130376" lon="12.058822747100587"><ele>196.33333333333331</ele><time>2026-04-25T05:54:59.901Z</time></trkpt><trkpt lat="45.892579752805105" lon="12.058718889324645"><ele>196.66666666666666</ele><time>2026-04-25T05:55:00.901Z</time></trkpt><trkpt lat="45.89259886449613" lon="12.058628903267792"><ele>197.0</ele><time>2026-04-25T05:55:01.901Z</time></trkpt><trkpt lat="45.89261864496273" lon="12.058484954100722"><ele>197.33333333333331</ele><time>2026-04-25T05:55:03.901Z</time></trkpt><trkpt lat="45.8926122467873" lon="12.058366276239946"><ele>197.66666666666666</ele><time>2026-04-25T05:55:05.901Z</time></trkpt><trkpt lat="45.89262411658155" lon="12.058274150895693"><ele>198.0</ele><time>2026-04-25T05:55:08.901Z</time></trkpt><trkpt lat="45.89260137017892" lon="12.058172927439324"><ele>200.0</ele><time>2026-04-25T05:55:11.901Z</time></trkpt><trkpt lat="45.89258580234136" lon="12.058062991299892"><ele>202.0</ele><time>2026-04-25T05:55:14.901Z</time></trkpt><trkpt lat="45.89257624531149" lon="12.057939486037434"><ele>204.0</ele><time>2026-04-25T05:55:18.9Z</time></trkpt><trkpt lat="45.89256335638782" lon="12.057826622303109"><ele>206.0</ele><time>2026-04-25T05:55:22.9Z</time></trkpt><trkpt lat="45.89255574398416" lon="12.057736144950287"><ele>208.0</ele><time>2026-04-25T05:55:26.9Z</time></trkpt><trkpt lat="45.892574157676215" lon="12.057647945998824"><ele>210.0</ele><time>2026-04-25T05:55:30.9Z</time></trkpt><trkpt lat="45.89256168167637" lon="12.057551280779592"><ele>212.0</ele><time>2026-04-25T05:55:33.9Z</time></trkpt><trkpt lat="45.89255875999878" lon="12.057452312435501"><ele>212.66666666666669</ele><time>2026-04-25T05:55:36.9Z</time></trkpt><trkpt lat="45.89257664075902" lon="12.057345122072395"><ele>213.33333333333334</ele><time>2026-04-25T05:55:39.9Z</time></trkpt><trkpt lat="45.89260008733595" lon="12.057249826034488"><ele>214.0</ele><time>2026-04-25T05:55:42.9Z</time></trkpt><trkpt lat="45.892637910477255" lon="12.057168568263227"><ele>214.66666666666669</ele><time>2026-04-25T05:55:44.9Z</time></trkpt><trkpt lat="45.89265444970694" lon="12.057047120922297"><ele>215.33333333333334</ele><time>2026-04-25T05:55:47.9Z</time></trkpt><trkpt lat="45.892632179280504" lon="12.056957980918693"><ele>216.0</ele><time>2026-04-25T05:55:49.9Z</time></trkpt><trkpt lat="45.8925653914576" lon="12.05687223375296"><ele>216.0</ele><time>2026-04-25T05:55:52.899Z</time></trkpt><trkpt lat="45.89251936537502" lon="12.056792959525072"><ele>216.0</ele><time>2026-04-25T05:55:55.899Z</time></trkpt><trkpt lat="45.8924657796966" lon="12.056697730882846"><ele>216.0</ele><time>2026-04-25T05:55:58.899Z</time></trkpt><trkpt lat="45.89243420532355" lon="12.05661727517518"><ele>216.0</ele><time>2026-04-25T05:56:01.899Z</time></trkpt><trkpt lat="45.89241937164823" lon="12.056526784299258"><ele>216.0</ele><time>2026-04-25T05:56:04.899Z</time></trkpt><trkpt lat="45.892371683699906" lon="12.056432238156038"><ele>216.0</ele><time>2026-04-25T05:56:07.899Z</time></trkpt><trkpt lat="45.89235477350497" lon="12.056337627619557"><ele>216.0</ele><time>2026-04-25T05:56:10.9Z</time></trkpt><trkpt lat="45.89233682808249" lon="12.056243677203252"><ele>217.0</ele><time>2026-04-25T05:56:13.9Z</time></trkpt><trkpt lat="45.89229635168523" lon="12.056158003648134"><ele>218.0</ele><time>2026-04-25T05:56:16.899Z</time></trkpt><trkpt lat="45.89228981831854" lon="12.056056325431403"><ele>219.0</ele><time>2026-04-25T05:56:21.9Z</time></trkpt><trkpt lat="45.89230159919285" lon="12.055933348217176"><ele>220.0</ele><time>2026-04-25T05:56:25.9Z</time></trkpt><trkpt lat="45.8923417528309" lon="12.05583412390048"><ele>221.0</ele><time>2026-04-25T05:56:28.9Z</time></trkpt><trkpt lat="45.89237695802723" lon="12.055753814097399"><ele>222.0</ele><time>2026-04-25T05:56:32.9Z</time></trkpt><trkpt lat="45.89242720642192" lon="12.055667871574746"><ele>224.71428571428572</ele><time>2026-04-25T05:56:38.9Z</time></trkpt><trkpt lat="45.89247419269211" lon="12.05557109123389"><ele>227.42857142857144</ele><time>2026-04-25T05:56:50.899Z</time></trkpt><trkpt lat="45.89239980395372" lon="12.05554111779696"><ele>230.14285714285717</ele><time>2026-04-25T05:56:56.899Z</time></trkpt><trkpt lat="45.89233810519895" lon="12.055483344620516"><ele>232.85714285714286</ele><time>2026-04-25T05:57:01.899Z</time></trkpt><trkpt lat="45.89227895117893" lon="12.055436550605428"><ele>235.5714285714286</ele><time>2026-04-25T05:57:05.899Z</time></trkpt><trkpt lat="45.892213641211576" lon="12.05540910900682"><ele>238.2857142857143</ele><time>2026-04-25T05:57:09.899Z</time></trkpt><trkpt lat="45.892141848086254" lon="12.055363318201367"><ele>241.0</ele><time>2026-04-25T05:57:15.898Z</time></trkpt><trkpt lat="45.89208149121959" lon="12.055331620737755"><ele>241.0</ele><time>2026-04-25T05:57:18.898Z</time></trkpt><trkpt lat="45.89200477298929" lon="12.055320146130311"><ele>241.00000000000003</ele><time>2026-04-25T05:57:25.898Z</time></trkpt><trkpt lat="45.89203583945657" lon="12.055219110880707"><ele>241.0</ele><time>2026-04-25T05:57:41.898Z</time></trkpt><trkpt lat="45.89205058734753" lon="12.055115069988446"><ele>241.0</ele><time>2026-04-25T05:57:44.898Z</time></trkpt><trkpt lat="45.892014685230755" lon="12.055029833390364"><ele>241.00000000000003</ele><time>2026-04-25T05:57:52.897Z</time></trkpt><trkpt lat="45.89195129402409" lon="12.05497679493934"><ele>241.0</ele><time>2026-04-25T05:57:58.897Z</time></trkpt><trkpt lat="45.89188806490985" lon="12.054952098150721"><ele>241.0</ele><time>2026-04-25T05:58:01.897Z</time></trkpt><trkpt lat="45.89181822606467" lon="12.054991050009004"><ele>243.0</ele><time>2026-04-25T05:58:07.897Z</time></trkpt><trkpt lat="45.89175255634062" lon="12.054988919292004"><ele>245.00000000000003</ele><time>2026-04-25T05:58:13.897Z</time></trkpt><trkpt lat="45.89168610692435" lon="12.054998079380354"><ele>247.0</ele><time>2026-04-25T05:58:17.897Z</time></trkpt><trkpt lat="45.891614433354384" lon="12.054997111951646"><ele>249.0</ele><time>2026-04-25T05:58:21.897Z</time></trkpt><trkpt lat="45.89154657461623" lon="12.05496630009781"><ele>251.00000000000003</ele><time>2026-04-25T05:58:25.897Z</time></trkpt><trkpt lat="45.89147018918864" lon="12.054932298086888"><ele>253.0</ele><time>2026-04-25T05:58:30.897Z</time></trkpt><trkpt lat="45.89140913949127" lon="12.054968081335419"><ele>255.0</ele><time>2026-04-25T05:58:34.897Z</time></trkpt><trkpt lat="45.89134223517737" lon="12.054992304312806"><ele>255.0</ele><time>2026-04-25T05:58:36.897Z</time></trkpt><trkpt lat="45.89128272641849" lon="12.055023461718969"><ele>255.0</ele><time>2026-04-25T05:58:37.897Z</time></trkpt><trkpt lat="45.891209633397075" lon="12.05505068670272"><ele>255.0</ele><time>2026-04-25T05:58:40.897Z</time></trkpt><trkpt lat="45.891131349722855" lon="12.05508490767919"><ele>255.0</ele><time>2026-04-25T05:58:42.897Z</time></trkpt><trkpt lat="45.89098667686688" lon="12.055138345523453"><ele>255.0</ele><time>2026-04-25T05:58:44.897Z</time></trkpt><trkpt lat="45.89089924565794" lon="12.055154165231578"><ele>253.0</ele><time>2026-04-25T05:58:45.897Z</time></trkpt><trkpt lat="45.89081521557887" lon="12.055189700988478"><ele>251.0</ele><time>2026-04-25T05:58:46.897Z</time></trkpt><trkpt lat="45.890756199112225" lon="12.055230036811249"><ele>249.0</ele><time>2026-04-25T05:58:47.897Z</time></trkpt><trkpt lat="45.890658287329714" lon="12.055332608304807"><ele>247.0</ele><time>2026-04-25T05:58:49.897Z</time></trkpt><trkpt lat="45.89054810226593" lon="12.055392162108213"><ele>245.0</ele><time>2026-04-25T05:58:51.897Z</time></trkpt><trkpt lat="45.890440147813976" lon="12.055427793862794"><ele>245.0</ele><time>2026-04-25T05:58:53.897Z</time></trkpt><trkpt lat="45.89035337862253" lon="12.055497933532042"><ele>245.0</ele><time>2026-04-25T05:58:55.897Z</time></trkpt><trkpt lat="45.89028842448717" lon="12.055596249039914"><ele>245.0</ele><time>2026-04-25T05:58:57.897Z</time></trkpt><trkpt lat="45.890235003074906" lon="12.05571167383638"><ele>245.0</ele><time>2026-04-25T05:58:59.897Z</time></trkpt><trkpt lat="45.89017116750443" lon="12.055838658274112"><ele>245.0</ele><time>2026-04-25T05:59:01.897Z</time></trkpt><trkpt lat="45.89008824243494" lon="12.055933774742474"><ele>248.00000000000003</ele><time>2026-04-25T05:59:03.896Z</time></trkpt><trkpt lat="45.89000290313734" lon="12.056007044120578"><ele>251.0</ele><time>2026-04-25T05:59:05.896Z</time></trkpt><trkpt lat="45.889938010058984" lon="12.056063063412541"><ele>254.0</ele><time>2026-04-25T05:59:07.896Z</time></trkpt><trkpt lat="45.889867551230296" lon="12.056082901306286"><ele>257.0</ele><time>2026-04-25T05:59:09.896Z</time></trkpt><trkpt lat="45.88979537778113" lon="12.056056982827673"><ele>260.0</ele><time>2026-04-25T05:59:12.896Z</time></trkpt><trkpt lat="45.88972948257526" lon="12.056013272670974"><ele>263.0</ele><time>2026-04-25T05:59:15.896Z</time></trkpt><trkpt lat="45.88967023135819" lon="12.055981452066094"><ele>263.0</ele><time>2026-04-25T05:59:17.896Z</time></trkpt><trkpt lat="45.889565710338864" lon="12.055965753453068"><ele>263.0</ele><time>2026-04-25T05:59:19.896Z</time></trkpt><trkpt lat="45.88942628127172" lon="12.055958121849518"><ele>263.0</ele><time>2026-04-25T05:59:21.896Z</time></trkpt><trkpt lat="45.889344423858475" lon="12.055924184100714"><ele>263.0</ele><time>2026-04-25T05:59:22.896Z</time></trkpt><trkpt lat="45.88925318810323" lon="12.055912809613034"><ele>263.0</ele><time>2026-04-25T05:59:23.896Z</time></trkpt><trkpt lat="45.88917852197928" lon="12.055893067154669"><ele>263.6666666666667</ele><time>2026-04-25T05:59:24.896Z</time></trkpt><trkpt lat="45.88911361422582" lon="12.055877041680851"><ele>264.33333333333337</ele><time>2026-04-25T05:59:25.896Z</time></trkpt><trkpt lat="45.88904283894031" lon="12.055870147772668"><ele>265.0</ele><time>2026-04-25T05:59:26.896Z</time></trkpt><trkpt lat="45.88895683807233" lon="12.055837653691315"><ele>265.6666666666667</ele><time>2026-04-25T05:59:28.896Z</time></trkpt><trkpt lat="45.88883772802952" lon="12.055784420568619"><ele>266.3333333333333</ele><time>2026-04-25T05:59:30.896Z</time></trkpt><trkpt lat="45.888739736822224" lon="12.055767863978485"><ele>267.0</ele><time>2026-04-25T05:59:33.896Z</time></trkpt><trkpt lat="45.88867631994291" lon="12.055730093508705"><ele>263.4</ele><time>2026-04-25T05:59:34.896Z</time></trkpt><trkpt lat="45.88859304133193" lon="12.055697759263742"><ele>259.79999999999995</ele><time>2026-04-25T05:59:35.896Z</time></trkpt><trkpt lat="45.88845706678008" lon="12.055596499703041"><ele>256.2</ele><time>2026-04-25T05:59:37.895Z</time></trkpt><trkpt lat="45.888387472933076" lon="12.055507673491853"><ele>252.6</ele><time>2026-04-25T05:59:38.895Z</time></trkpt><trkpt lat="45.88830882498706" lon="12.055408838561366"><ele>249.0</ele><time>2026-04-25T05:59:39.895Z</time></trkpt><trkpt lat="45.888231539229174" lon="12.055319289419767"><ele>249.0</ele><time>2026-04-25T05:59:40.895Z</time></trkpt><trkpt lat="45.88816462989268" lon="12.05521173883367"><ele>248.99999999999997</ele><time>2026-04-25T05:59:41.895Z</time></trkpt><trkpt lat="45.88809269493066" lon="12.055122215359454"><ele>248.99999999999997</ele><time>2026-04-25T05:59:42.895Z</time></trkpt><trkpt lat="45.88800796809972" lon="12.055018755524305"><ele>249.0</ele><time>2026-04-25T05:59:43.895Z</time></trkpt><trkpt lat="45.88794890458872" lon="12.054937602223708"><ele>249.0</ele><time>2026-04-25T05:59:44.895Z</time></trkpt><trkpt lat="45.88788540568536" lon="12.054871195026102"><ele>247.39999999999998</ele><time>2026-04-25T05:59:45.895Z</time></trkpt><trkpt lat="45.88782850786639" lon="12.054824093337626"><ele>245.79999999999998</ele><time>2026-04-25T05:59:46.895Z</time></trkpt><trkpt lat="45.88776317755995" lon="12.054779897989805"><ele>244.20000000000002</ele><time>2026-04-25T05:59:47.895Z</time></trkpt><trkpt lat="45.887644948728365" lon="12.054693066527806"><ele>242.60000000000002</ele><time>2026-04-25T05:59:49.895Z</time></trkpt><trkpt lat="45.88752738399391" lon="12.054593284729128"><ele>241.0</ele><time>2026-04-25T05:59:51.895Z</time></trkpt><trkpt lat="45.8874628854692" lon="12.054524674689647"><ele>240.99999999999997</ele><time>2026-04-25T05:59:52.895Z</time></trkpt><trkpt lat="45.88741343404818" lon="12.054463859573726"><ele>241.0</ele><time>2026-04-25T05:59:53.895Z</time></trkpt><trkpt lat="45.88735928307979" lon="12.054400227976197"><ele>241.0</ele><time>2026-04-25T05:59:54.895Z</time></trkpt><trkpt lat="45.88730176345982" lon="12.054347376616674"><ele>241.0</ele><time>2026-04-25T05:59:55.895Z</time></trkpt><trkpt lat="45.88724890131351" lon="12.05425015675977"><ele>240.99999999999997</ele><time>2026-04-25T05:59:56.895Z</time></trkpt><trkpt lat="45.887184763884925" lon="12.05416931507384"><ele>241.0</ele><time>2026-04-25T05:59:57.895Z</time></trkpt><trkpt lat="45.88710126935797" lon="12.05409701898433"><ele>239.33333333333331</ele><time>2026-04-25T05:59:58.895Z</time></trkpt><trkpt lat="45.88701465615475" lon="12.05403668913946"><ele>237.66666666666666</ele><time>2026-04-25T05:59:59.895Z</time></trkpt><trkpt lat="45.88693459161188" lon="12.054000298888516"><ele>236.0</ele><time>2026-04-25T06:00:00.895Z</time></trkpt><trkpt lat="45.88686339367522" lon="12.05396281234498"><ele>234.33333333333331</ele><time>2026-04-25T06:00:01.895Z</time></trkpt><trkpt lat="45.88680453905216" lon="12.053918889407777"><ele>232.66666666666666</ele><time>2026-04-25T06:00:02.895Z</time></trkpt><trkpt lat="45.88675630268208" lon="12.053854695147775"><ele>231.0</ele><time>2026-04-25T06:00:03.895Z</time></trkpt><trkpt lat="45.886697647891985" lon="12.053698767343906"><ele>231.0</ele><time>2026-04-25T06:00:05.895Z</time></trkpt><trkpt lat="45.88670881681407" lon="12.053541561126812"><ele>231.0</ele><time>2026-04-25T06:00:07.895Z</time></trkpt><trkpt lat="45.88674252684408" lon="12.053461625075624"><ele>231.0</ele><time>2026-04-25T06:00:08.895Z</time></trkpt><trkpt lat="45.88677546071508" lon="12.053382851145345"><ele>231.0</ele><time>2026-04-25T06:00:09.894Z</time></trkpt><trkpt lat="45.886741980260304" lon="12.053216586882732"><ele>231.0</ele><time>2026-04-25T06:00:11.894Z</time></trkpt><trkpt lat="45.886704168532134" lon="12.053139803852224"><ele>231.0</ele><time>2026-04-25T06:00:12.894Z</time></trkpt><trkpt lat="45.8866608446529" lon="12.053063501858867"><ele>230.8</ele><time>2026-04-25T06:00:13.894Z</time></trkpt><trkpt lat="45.88657041218189" lon="12.052941431284559"><ele>230.60000000000002</ele><time>2026-04-25T06:00:15.894Z</time></trkpt><trkpt lat="45.88646238926995" lon="12.052878109998305"><ele>230.4</ele><time>2026-04-25T06:00:17.894Z</time></trkpt><trkpt lat="45.886376564711846" lon="12.052883042227187"><ele>230.2</ele><time>2026-04-25T06:00:19.894Z</time></trkpt><trkpt lat="45.88628543856204" lon="12.05284459664819"><ele>230.0</ele><time>2026-04-25T06:00:21.895Z</time></trkpt><trkpt lat="45.88616991803381" lon="12.052785050966827"><ele>230.00000000000003</ele><time>2026-04-25T06:00:23.895Z</time></trkpt><trkpt lat="45.886104892949696" lon="12.052768168176042"><ele>230.0</ele><time>2026-04-25T06:00:24.895Z</time></trkpt><trkpt lat="45.886031868005546" lon="12.052744636685802"><ele>230.0</ele><time>2026-04-25T06:00:25.895Z</time></trkpt><trkpt lat="45.88591805514757" lon="12.052665124696896"><ele>230.0</ele><time>2026-04-25T06:00:27.895Z</time></trkpt><trkpt lat="45.88584377392487" lon="12.052601665277788"><ele>230.00000000000003</ele><time>2026-04-25T06:00:28.895Z</time></trkpt><trkpt lat="45.885767966692285" lon="12.05253643300485"><ele>230.0</ele><time>2026-04-25T06:00:29.894Z</time></trkpt><trkpt lat="45.885690362394875" lon="12.052502734998594"><ele>229.00000000000003</ele><time>2026-04-25T06:00:30.894Z</time></trkpt><trkpt lat="45.88561538919173" lon="12.052465292369899"><ele>228.0</ele><time>2026-04-25T06:00:31.894Z</time></trkpt><trkpt lat="45.885538563862916" lon="12.052429818450216"><ele>227.0</ele><time>2026-04-25T06:00:32.895Z</time></trkpt><trkpt lat="45.88546320108592" lon="12.052395107633266"><ele>226.0</ele><time>2026-04-25T06:00:33.894Z</time></trkpt><trkpt lat="45.88539278085108" lon="12.052344929166294"><ele>225.00000000000003</ele><time>2026-04-25T06:00:34.894Z</time></trkpt><trkpt lat="45.88532264565406" lon="12.052304364726142"><ele>224.0</ele><time>2026-04-25T06:00:35.894Z</time></trkpt><trkpt lat="45.885244081334974" lon="12.052259958313831"><ele>222.33333333333334</ele><time>2026-04-25T06:00:36.894Z</time></trkpt><trkpt lat="45.88517259302572" lon="12.052240652049308"><ele>220.66666666666669</ele><time>2026-04-25T06:00:37.894Z</time></trkpt><trkpt lat="45.885103066031114" lon="12.052221793702687"><ele>219.0</ele><time>2026-04-25T06:00:38.894Z</time></trkpt><trkpt lat="45.88498938634048" lon="12.052211817208603"><ele>217.33333333333331</ele><time>2026-04-25T06:00:40.894Z</time></trkpt><trkpt lat="45.884892088359926" lon="12.052248431358496"><ele>215.66666666666666</ele><time>2026-04-25T06:00:42.894Z</time></trkpt><trkpt lat="45.8848182994603" lon="12.05227824884716"><ele>214.0</ele><time>2026-04-25T06:00:44.894Z</time></trkpt><trkpt lat="45.88470323758076" lon="12.052279475662377"><ele>211.6</ele><time>2026-04-25T06:00:46.894Z</time></trkpt><trkpt lat="45.88463854574058" lon="12.052266314909774"><ele>209.2</ele><time>2026-04-25T06:00:47.894Z</time></trkpt><trkpt lat="45.88453155821921" lon="12.052197991329528"><ele>206.79999999999998</ele><time>2026-04-25T06:00:49.894Z</time></trkpt><trkpt lat="45.88444850835616" lon="12.052076661412201"><ele>204.39999999999998</ele><time>2026-04-25T06:00:51.894Z</time></trkpt><trkpt lat="45.88438994492932" lon="12.051925315612499"><ele>202.0</ele><time>2026-04-25T06:00:53.894Z</time></trkpt><trkpt lat="45.884368616974264" lon="12.051825000631718"><ele>201.99999999999997</ele><time>2026-04-25T06:00:54.894Z</time></trkpt><trkpt lat="45.884360448555036" lon="12.051723184220705"><ele>202.0</ele><time>2026-04-25T06:00:55.894Z</time></trkpt><trkpt lat="45.88434916950921" lon="12.051621446862764"><ele>202.0</ele><time>2026-04-25T06:00:56.894Z</time></trkpt><trkpt lat="45.88431340978821" lon="12.051463646911689"><ele>202.0</ele><time>2026-04-25T06:00:58.893Z</time></trkpt><trkpt lat="45.884243752987246" lon="12.051335370674384"><ele>201.99999999999997</ele><time>2026-04-25T06:01:00.893Z</time></trkpt><trkpt lat="45.884183020680254" lon="12.051307520489981"><ele>202.0</ele><time>2026-04-25T06:01:01.893Z</time></trkpt><trkpt lat="45.884082561627665" lon="12.051317465978853"><ele>201.99999999999997</ele><time>2026-04-25T06:01:02.893Z</time></trkpt><trkpt lat="45.884008597350864" lon="12.051308379937629"><ele>202.0</ele><time>2026-04-25T06:01:03.893Z</time></trkpt><trkpt lat="45.88392598071656" lon="12.05129211819789"><ele>202.0</ele><time>2026-04-25T06:01:04.893Z</time></trkpt><trkpt lat="45.88382765143401" lon="12.051290989305105"><ele>202.0</ele><time>2026-04-25T06:01:05.893Z</time></trkpt><trkpt lat="45.88372897224504" lon="12.051298584138042"><ele>201.99999999999997</ele><time>2026-04-25T06:01:06.893Z</time></trkpt><trkpt lat="45.883638587341565" lon="12.05131583541443"><ele>202.0</ele><time>2026-04-25T06:01:07.893Z</time></trkpt><trkpt lat="45.88353788550519" lon="12.051324366014786"><ele>202.0</ele><time>2026-04-25T06:01:08.893Z</time></trkpt><trkpt lat="45.883456062711595" lon="12.051326092292117"><ele>202.0</ele><time>2026-04-25T06:01:09.893Z</time></trkpt><trkpt lat="45.883376029157326" lon="12.05132509209825"><ele>202.0</ele><time>2026-04-25T06:01:10.893Z</time></trkpt><trkpt lat="45.88329685054827" lon="12.051306986902048"><ele>202.0</ele><time>2026-04-25T06:01:11.893Z</time></trkpt><trkpt lat="45.883233180237234" lon="12.051279985582614"><ele>202.0</ele><time>2026-04-25T06:01:12.893Z</time></trkpt><trkpt lat="45.883169755201095" lon="12.051238622943158"><ele>202.0</ele><time>2026-04-25T06:01:13.893Z</time></trkpt><trkpt lat="45.883112751576974" lon="12.051181797288823"><ele>202.0</ele><time>2026-04-25T06:01:14.893Z</time></trkpt><trkpt lat="45.883053538128564" lon="12.051114196598187"><ele>199.39999999999998</ele><time>2026-04-25T06:01:15.893Z</time></trkpt><trkpt lat="45.883009509136095" lon="12.051048468560076"><ele>196.79999999999998</ele><time>2026-04-25T06:01:16.893Z</time></trkpt><trkpt lat="45.88294420116289" lon="12.05089256676816"><ele>194.2</ele><time>2026-04-25T06:01:18.893Z</time></trkpt><trkpt lat="45.88290798179162" lon="12.050803531831306"><ele>191.6</ele><time>2026-04-25T06:01:19.893Z</time></trkpt><trkpt lat="45.88286758690883" lon="12.050687836389413"><ele>189.0</ele><time>2026-04-25T06:01:20.893Z</time></trkpt><trkpt lat="45.882823289701506" lon="12.050563044621015"><ele>189.0</ele><time>2026-04-25T06:01:21.893Z</time></trkpt><trkpt lat="45.88277861436128" lon="12.050427049255068"><ele>189.0</ele><time>2026-04-25T06:01:22.893Z</time></trkpt><trkpt lat="45.8827417703053" lon="12.050293266739638"><ele>189.0</ele><time>2026-04-25T06:01:23.893Z</time></trkpt><trkpt lat="45.88271017139911" lon="12.050172157264209"><ele>189.0</ele><time>2026-04-25T06:01:24.893Z</time></trkpt><trkpt lat="45.88268705483318" lon="12.050043711045612"><ele>189.0</ele><time>2026-04-25T06:01:25.893Z</time></trkpt><trkpt lat="45.88266387547951" lon="12.049914086980586"><ele>188.5</ele><time>2026-04-25T06:01:26.893Z</time></trkpt><trkpt lat="45.88261302079709" lon="12.049803787484354"><ele>188.0</ele><time>2026-04-25T06:01:27.893Z</time></trkpt><trkpt lat="45.88255502603323" lon="12.049723592660923"><ele>187.5</ele><time>2026-04-25T06:01:28.893Z</time></trkpt><trkpt lat="45.88250367404712" lon="12.04960775560777"><ele>187.0</ele><time>2026-04-25T06:01:30.893Z</time></trkpt><trkpt lat="45.88253437367264" lon="12.049501007138993"><ele>186.5</ele><time>2026-04-25T06:01:33.892Z</time></trkpt><trkpt lat="45.88258594975366" lon="12.049421749728907"><ele>186.0</ele><time>2026-04-25T06:01:36.892Z</time></trkpt><trkpt lat="45.88262416750864" lon="12.049338752489621"><ele>186.00000000000003</ele><time>2026-04-25T06:01:39.892Z</time></trkpt><trkpt lat="45.88264706147595" lon="12.049241213987374"><ele>186.0</ele><time>2026-04-25T06:01:44.892Z</time></trkpt><trkpt lat="45.88269439787709" lon="12.049143435764728"><ele>186.0</ele><time>2026-04-25T06:01:48.892Z</time></trkpt><trkpt lat="45.88274237332083" lon="12.049071893638544"><ele>186.0</ele><time>2026-04-25T06:01:52.891Z</time></trkpt><trkpt lat="45.8827933995755" lon="12.049001581441619"><ele>186.0</ele><time>2026-04-25T06:01:55.891Z</time></trkpt><trkpt lat="45.882841354807596" lon="12.048941639420729"><ele>186.00000000000003</ele><time>2026-04-25T06:01:58.891Z</time></trkpt><trkpt lat="45.88288420724322" lon="12.048853844290624"><ele>186.0</ele><time>2026-04-25T06:02:02.891Z</time></trkpt><trkpt lat="45.88288018683345" lon="12.048756449889536"><ele>186.14285714285717</ele><time>2026-04-25T06:02:07.89Z</time></trkpt><trkpt lat="45.882815563611466" lon="12.04870164416174"><ele>186.28571428571428</ele><time>2026-04-25T06:02:12.89Z</time></trkpt><trkpt lat="45.882750433705255" lon="12.04865179221903"><ele>186.42857142857144</ele><time>2026-04-25T06:02:16.89Z</time></trkpt><trkpt lat="45.882694775867705" lon="12.048604939181407"><ele>186.57142857142858</ele><time>2026-04-25T06:02:20.89Z</time></trkpt><trkpt lat="45.882638248925275" lon="12.048557653926938"><ele>186.71428571428572</ele><time>2026-04-25T06:02:24.89Z</time></trkpt><trkpt lat="45.88263821565961" lon="12.048445419909639"><ele>186.85714285714286</ele><time>2026-04-25T06:02:28.891Z</time></trkpt><trkpt lat="45.882706217911384" lon="12.048386761073274"><ele>187.0</ele><time>2026-04-25T06:02:32.891Z</time></trkpt><trkpt lat="45.88277315806096" lon="12.04834944406682"><ele>187.0</ele><time>2026-04-25T06:02:37.891Z</time></trkpt><trkpt lat="45.88295585932015" lon="12.048362347082"><ele>187.0</ele><time>2026-04-25T06:02:48.891Z</time></trkpt><trkpt lat="45.88302368722312" lon="12.048430357518997"><ele>187.0</ele><time>2026-04-25T06:02:53.891Z</time></trkpt><trkpt lat="45.883086428304225" lon="12.048500309729159"><ele>187.0</ele><time>2026-04-25T06:02:57.89Z</time></trkpt><trkpt lat="45.883159037541276" lon="12.048465522122635"><ele>187.0</ele><time>2026-04-25T06:03:01.89Z</time></trkpt><trkpt lat="45.88315600731037" lon="12.048372926674526"><ele>187.28571428571428</ele><time>2026-04-25T06:03:07.89Z</time></trkpt><trkpt lat="45.883148063864375" lon="12.048269589292493"><ele>187.57142857142858</ele><time>2026-04-25T06:03:12.89Z</time></trkpt><trkpt lat="45.883111354862145" lon="12.048188714579595"><ele>187.85714285714286</ele><time>2026-04-25T06:03:17.89Z</time></trkpt><trkpt lat="45.883076678808266" lon="12.048112653041557"><ele>188.14285714285714</ele><time>2026-04-25T06:03:21.89Z</time></trkpt><trkpt lat="45.88301441232715" lon="12.048081574362111"><ele>188.42857142857144</ele><time>2026-04-25T06:03:26.89Z</time></trkpt><trkpt lat="45.88294844229761" lon="12.04804711848496"><ele>188.71428571428572</ele><time>2026-04-25T06:03:29.89Z</time></trkpt><trkpt lat="45.88286599285463" lon="12.048019685777557"><ele>189.0</ele><time>2026-04-25T06:03:32.889Z</time></trkpt><trkpt lat="45.88279354933968" lon="12.047991645749548"><ele>189.0</ele><time>2026-04-25T06:03:34.889Z</time></trkpt><trkpt lat="45.88272101858215" lon="12.04796362055517"><ele>189.0</ele><time>2026-04-25T06:03:36.889Z</time></trkpt><trkpt lat="45.8826507733402" lon="12.047934843468717"><ele>189.0</ele><time>2026-04-25T06:03:38.889Z</time></trkpt><trkpt lat="45.882588996867646" lon="12.04791021141364"><ele>189.0</ele><time>2026-04-25T06:03:40.889Z</time></trkpt><trkpt lat="45.88249620251949" lon="12.047887649162393"><ele>189.0</ele><time>2026-04-25T06:03:43.889Z</time></trkpt><trkpt lat="45.88242850086465" lon="12.047870522253234"><ele>189.0</ele><time>2026-04-25T06:03:45.889Z</time></trkpt><trkpt lat="45.882367030592505" lon="12.047844506894974"><ele>189.0</ele><time>2026-04-25T06:03:47.889Z</time></trkpt><trkpt lat="45.88228563652209" lon="12.047817781368847"><ele>190.66666666666666</ele><time>2026-04-25T06:03:50.889Z</time></trkpt><trkpt lat="45.88220372084683" lon="12.047792079137942"><ele>192.33333333333331</ele><time>2026-04-25T06:03:53.889Z</time></trkpt><trkpt lat="45.882137319726006" lon="12.04777269757869"><ele>194.0</ele><time>2026-04-25T06:03:56.889Z</time></trkpt><trkpt lat="45.88205462711713" lon="12.047737606163393"><ele>195.66666666666666</ele><time>2026-04-25T06:04:00.889Z</time></trkpt><trkpt lat="45.88198051169465" lon="12.04771478665525"><ele>197.33333333333331</ele><time>2026-04-25T06:04:03.889Z</time></trkpt><trkpt lat="45.8819132787746" lon="12.047692470669684"><ele>199.0</ele><time>2026-04-25T06:04:06.888Z</time></trkpt><trkpt lat="45.881837320594364" lon="12.047670978997353"><ele>198.99999999999997</ele><time>2026-04-25T06:04:09.888Z</time></trkpt><trkpt lat="45.88177348610101" lon="12.047645454216418"><ele>199.0</ele><time>2026-04-25T06:04:11.888Z</time></trkpt><trkpt lat="45.881697473199516" lon="12.04761977236659"><ele>199.0</ele><time>2026-04-25T06:04:13.888Z</time></trkpt><trkpt lat="45.88162252357764" lon="12.047602080711522"><ele>199.0</ele><time>2026-04-25T06:04:15.888Z</time></trkpt><trkpt lat="45.881534056352294" lon="12.047610816099892"><ele>198.99999999999997</ele><time>2026-04-25T06:04:17.888Z</time></trkpt><trkpt lat="45.881441593096596" lon="12.047605827466755"><ele>199.0</ele><time>2026-04-25T06:04:19.888Z</time></trkpt><trkpt lat="45.88135874580717" lon="12.04759868461663"><ele>198.6</ele><time>2026-04-25T06:04:21.888Z</time></trkpt><trkpt lat="45.88126998109992" lon="12.04756956028278"><ele>198.2</ele><time>2026-04-25T06:04:24.888Z</time></trkpt><trkpt lat="45.88118265565094" lon="12.047556801479697"><ele>197.79999999999998</ele><time>2026-04-25T06:04:26.888Z</time></trkpt><trkpt lat="45.88112103083325" lon="12.047514474010857"><ele>197.39999999999998</ele><time>2026-04-25T06:04:27.888Z</time></trkpt><trkpt lat="45.88101404549853" lon="12.04743516126078"><ele>197.0</ele><time>2026-04-25T06:04:28.888Z</time></trkpt><trkpt lat="45.88088566854062" lon="12.047362405553569"><ele>192.8</ele><time>2026-04-25T06:04:29.888Z</time></trkpt><trkpt lat="45.880789576888255" lon="12.047297229280417"><ele>188.6</ele><time>2026-04-25T06:04:30.888Z</time></trkpt><trkpt lat="45.88069062993434" lon="12.04730649554792"><ele>184.4</ele><time>2026-04-25T06:04:31.888Z</time></trkpt><trkpt lat="45.88061788102883" lon="12.047346026329949"><ele>180.20000000000002</ele><time>2026-04-25T06:04:32.889Z</time></trkpt><trkpt lat="45.88052451366921" lon="12.047303005951036"><ele>176.0</ele><time>2026-04-25T06:04:34.889Z</time></trkpt><trkpt lat="45.88047646437609" lon="12.04718170534015"><ele>176.0</ele><time>2026-04-25T06:04:36.889Z</time></trkpt><trkpt lat="45.88042164156454" lon="12.046989698110993"><ele>176.0</ele><time>2026-04-25T06:04:38.889Z</time></trkpt><trkpt lat="45.880411961852374" lon="12.046897330842855"><ele>176.0</ele><time>2026-04-25T06:04:39.889Z</time></trkpt><trkpt lat="45.88036364179222" lon="12.046770895021652"><ele>176.0</ele><time>2026-04-25T06:04:40.889Z</time></trkpt><trkpt lat="45.88033590994941" lon="12.04661156837015"><ele>176.0</ele><time>2026-04-25T06:04:42.889Z</time></trkpt><trkpt lat="45.880263989932956" lon="12.046463640737572"><ele>175.60000000000002</ele><time>2026-04-25T06:04:44.889Z</time></trkpt><trkpt lat="45.880221996274535" lon="12.046393297128681"><ele>175.2</ele><time>2026-04-25T06:04:45.888Z</time></trkpt><trkpt lat="45.880205154439516" lon="12.046232884778645"><ele>174.8</ele><time>2026-04-25T06:04:47.888Z</time></trkpt><trkpt lat="45.88024859604299" lon="12.046093470132444"><ele>174.39999999999998</ele><time>2026-04-25T06:04:49.888Z</time></trkpt><trkpt lat="45.88031414744504" lon="12.04598934646031"><ele>174.0</ele><time>2026-04-25T06:04:51.888Z</time></trkpt><trkpt lat="45.88037755887432" lon="12.045915172741127"><ele>173.79999999999998</ele><time>2026-04-25T06:04:53.888Z</time></trkpt><trkpt lat="45.88042542042208" lon="12.045787124584088"><ele>173.6</ele><time>2026-04-25T06:04:55.888Z</time></trkpt><trkpt lat="45.88043667949905" lon="12.045655070123201"><ele>173.4</ele><time>2026-04-25T06:04:57.888Z</time></trkpt><trkpt lat="45.880456203407384" lon="12.04550679761456"><ele>173.2</ele><time>2026-04-25T06:04:59.888Z</time></trkpt><trkpt lat="45.880484780010974" lon="12.045361465816972"><ele>173.0</ele><time>2026-04-25T06:05:01.888Z</time></trkpt><trkpt lat="45.88051289623825" lon="12.045231349978701"><ele>173.0</ele><time>2026-04-25T06:05:03.888Z</time></trkpt><trkpt lat="45.880545299598786" lon="12.04511687629329"><ele>173.0</ele><time>2026-04-25T06:05:05.888Z</time></trkpt><trkpt lat="45.880568819155776" lon="12.044999158470477"><ele>173.0</ele><time>2026-04-25T06:05:08.888Z</time></trkpt><trkpt lat="45.88060780750535" lon="12.044919845669213"><ele>173.0</ele><time>2026-04-25T06:05:10.888Z</time></trkpt><trkpt lat="45.88066043333828" lon="12.044854298652655"><ele>173.0</ele><time>2026-04-25T06:05:14.887Z</time></trkpt><trkpt lat="45.88072092545765" lon="12.044756788691084"><ele>173.0</ele><time>2026-04-25T06:05:17.887Z</time></trkpt><trkpt lat="45.88078431839104" lon="12.044667590101849"><ele>173.0</ele><time>2026-04-25T06:05:19.887Z</time></trkpt><trkpt lat="45.88084212124787" lon="12.044587345895973"><ele>173.0</ele><time>2026-04-25T06:05:21.887Z</time></trkpt><trkpt lat="45.88089999393765" lon="12.044502751990988"><ele>173.0</ele><time>2026-04-25T06:05:23.887Z</time></trkpt><trkpt lat="45.88093661633154" lon="12.044408015933561"><ele>173.0</ele><time>2026-04-25T06:05:25.887Z</time></trkpt><trkpt lat="45.880956516212706" lon="12.044293628105569"><ele>173.0</ele><time>2026-04-25T06:05:27.887Z</time></trkpt><trkpt lat="45.88101644838519" lon="12.04421123082019"><ele>173.0</ele><time>2026-04-25T06:05:29.887Z</time></trkpt><trkpt lat="45.881102568003854" lon="12.044138263394379"><ele>172.4</ele><time>2026-04-25T06:05:31.887Z</time></trkpt><trkpt lat="45.88117983334182" lon="12.044017193589575"><ele>171.8</ele><time>2026-04-25T06:05:33.887Z</time></trkpt><trkpt lat="45.88120560680217" lon="12.04387810038571"><ele>171.2</ele><time>2026-04-25T06:05:35.887Z</time></trkpt><trkpt lat="45.88117443018164" lon="12.043746667470597"><ele>170.6</ele><time>2026-04-25T06:05:37.887Z</time></trkpt><trkpt lat="45.88114063093809" lon="12.043657304602489"><ele>170.0</ele><time>2026-04-25T06:05:40.887Z</time></trkpt><trkpt lat="45.881077915988755" lon="12.043610896319498"><ele>170.0</ele><time>2026-04-25T06:05:44.887Z</time></trkpt><trkpt lat="45.88101172832332" lon="12.04359312440911"><ele>170.0</ele><time>2026-04-25T06:05:50.886Z</time></trkpt><trkpt lat="45.88093887016974" lon="12.043583373581203"><ele>170.0</ele><time>2026-04-25T06:05:53.886Z</time></trkpt><trkpt lat="45.88085933076019" lon="12.043565665201108"><ele>170.0</ele><time>2026-04-25T06:05:55.886Z</time></trkpt><trkpt lat="45.880780924567794" lon="12.043546513635047"><ele>170.0</ele><time>2026-04-25T06:05:57.886Z</time></trkpt><trkpt lat="45.88069598910747" lon="12.04352285924734"><ele>170.0</ele><time>2026-04-25T06:05:59.886Z</time></trkpt><trkpt lat="45.880606778412535" lon="12.043482387161001"><ele>169.6</ele><time>2026-04-25T06:06:01.886Z</time></trkpt><trkpt lat="45.880523097336194" lon="12.043416646774766"><ele>169.2</ele><time>2026-04-25T06:06:04.886Z</time></trkpt><trkpt lat="45.88045371772371" lon="12.043374746758973"><ele>168.8</ele><time>2026-04-25T06:06:05.886Z</time></trkpt><trkpt lat="45.88034228295206" lon="12.04329943702565"><ele>168.4</ele><time>2026-04-25T06:06:07.886Z</time></trkpt><trkpt lat="45.8802446539747" lon="12.043219192741942"><ele>168.0</ele><time>2026-04-25T06:06:09.886Z</time></trkpt><trkpt lat="45.880184156640105" lon="12.04318983055539"><ele>167.16666666666666</ele><time>2026-04-25T06:06:11.886Z</time></trkpt><trkpt lat="45.88009728073379" lon="12.043132862464685"><ele>166.33333333333334</ele><time>2026-04-25T06:06:13.886Z</time></trkpt><trkpt lat="45.87998950393162" lon="12.043080344776545"><ele>165.5</ele><time>2026-04-25T06:06:15.886Z</time></trkpt><trkpt lat="45.879924730495915" lon="12.04303547813305"><ele>164.66666666666669</ele><time>2026-04-25T06:06:16.886Z</time></trkpt><trkpt lat="45.87986287404081" lon="12.042978207282536"><ele>163.83333333333334</ele><time>2026-04-25T06:06:17.886Z</time></trkpt><trkpt lat="45.87981440407991" lon="12.042916207976452"><ele>163.0</ele><time>2026-04-25T06:06:18.886Z</time></trkpt><trkpt lat="45.87978156745073" lon="12.042786364072423"><ele>163.0</ele><time>2026-04-25T06:06:20.885Z</time></trkpt><trkpt lat="45.879829953046844" lon="12.042682261156704"><ele>163.0</ele><time>2026-04-25T06:06:22.885Z</time></trkpt><trkpt lat="45.879869335671174" lon="12.042562987792325"><ele>163.0</ele><time>2026-04-25T06:06:24.885Z</time></trkpt><trkpt lat="45.87989220194267" lon="12.042450946544534"><ele>163.0</ele><time>2026-04-25T06:06:26.885Z</time></trkpt><trkpt lat="45.87990225248416" lon="12.042336428014066"><ele>163.0</ele><time>2026-04-25T06:06:28.885Z</time></trkpt><trkpt lat="45.87992668361354" lon="12.042233035492059"><ele>163.0</ele><time>2026-04-25T06:06:30.885Z</time></trkpt><trkpt lat="45.879948614388354" lon="12.042070018397574"><ele>163.66666666666669</ele><time>2026-04-25T06:06:33.885Z</time></trkpt><trkpt lat="45.87995740617983" lon="12.041951962527108"><ele>164.33333333333334</ele><time>2026-04-25T06:06:35.885Z</time></trkpt><trkpt lat="45.87994740608105" lon="12.041835984308458"><ele>165.0</ele><time>2026-04-25T06:06:37.885Z</time></trkpt><trkpt lat="45.87993200612344" lon="12.041729545436118"><ele>165.66666666666666</ele><time>2026-04-25T06:06:39.886Z</time></trkpt><trkpt lat="45.87990988975233" lon="12.041614542348992"><ele>166.33333333333331</ele><time>2026-04-25T06:06:41.887Z</time></trkpt><trkpt lat="45.879890029431515" lon="12.04150626946866"><ele>167.0</ele><time>2026-04-25T06:06:43.887Z</time></trkpt><trkpt lat="45.87987151234255" lon="12.041388412981432"><ele>167.33333333333331</ele><time>2026-04-25T06:06:45.886Z</time></trkpt><trkpt lat="45.879855594026935" lon="12.04127418368964"><ele>167.66666666666666</ele><time>2026-04-25T06:06:47.886Z</time></trkpt><trkpt lat="45.8798421760098" lon="12.04116582858276"><ele>168.0</ele><time>2026-04-25T06:06:49.886Z</time></trkpt><trkpt lat="45.87982610206666" lon="12.041060235265784"><ele>168.33333333333334</ele><time>2026-04-25T06:06:51.886Z</time></trkpt><trkpt lat="45.87980709151681" lon="12.04095346677576"><ele>168.66666666666669</ele><time>2026-04-25T06:06:53.886Z</time></trkpt><trkpt lat="45.87978587805856" lon="12.040842487389382"><ele>169.0</ele><time>2026-04-25T06:06:55.886Z</time></trkpt><trkpt lat="45.87976793570602" lon="12.040740105384339"><ele>169.2</ele><time>2026-04-25T06:06:57.886Z</time></trkpt><trkpt lat="45.879754112172094" lon="12.04061389057388"><ele>169.39999999999998</ele><time>2026-04-25T06:06:59.886Z</time></trkpt><trkpt lat="45.87972720648541" lon="12.040487934052456"><ele>169.6</ele><time>2026-04-25T06:07:01.886Z</time></trkpt><trkpt lat="45.87970217910852" lon="12.040366898454213"><ele>169.8</ele><time>2026-04-25T06:07:03.886Z</time></trkpt><trkpt lat="45.87968006278729" lon="12.040233357686304"><ele>170.0</ele><time>2026-04-25T06:07:05.886Z</time></trkpt><trkpt lat="45.879650479205594" lon="12.040102386965952"><ele>170.0</ele><time>2026-04-25T06:07:07.886Z</time></trkpt><trkpt lat="45.879616101149296" lon="12.039974031969244"><ele>170.0</ele><time>2026-04-25T06:07:09.886Z</time></trkpt><trkpt lat="45.87957216694418" lon="12.03983427480727"><ele>170.0</ele><time>2026-04-25T06:07:11.886Z</time></trkpt><trkpt lat="45.87953052916745" lon="12.039710157559828"><ele>170.0</ele><time>2026-04-25T06:07:13.885Z</time></trkpt><trkpt lat="45.879471458701694" lon="12.039575591860597"><ele>170.0</ele><time>2026-04-25T06:07:15.885Z</time></trkpt><trkpt lat="45.87942618288392" lon="12.039509523701996"><ele>170.0</ele><time>2026-04-25T06:07:16.885Z</time></trkpt><trkpt lat="45.87938917657404" lon="12.039435257891073"><ele>170.0</ele><time>2026-04-25T06:07:17.885Z</time></trkpt><trkpt lat="45.87932228186536" lon="12.039284075451786"><ele>170.0</ele><time>2026-04-25T06:07:19.883Z</time></trkpt><trkpt lat="45.879282842063866" lon="12.039207619247419"><ele>170.0</ele><time>2026-04-25T06:07:20.882Z</time></trkpt><trkpt lat="45.87923705420311" lon="12.03913477956142"><ele>170.0</ele><time>2026-04-25T06:07:21.88Z</time></trkpt><trkpt lat="45.87919221698945" lon="12.039057048411127"><ele>170.0</ele><time>2026-04-25T06:07:22.879Z</time></trkpt><trkpt lat="45.87915205832286" lon="12.038982730761122"><ele>170.0</ele><time>2026-04-25T06:07:23.878Z</time></trkpt><trkpt lat="45.87910770156086" lon="12.038893033545481"><ele>170.0</ele><time>2026-04-25T06:07:24.877Z</time></trkpt><trkpt lat="45.879069333183374" lon="12.038793891259433"><ele>170.0</ele><time>2026-04-25T06:07:25.877Z</time></trkpt><trkpt lat="45.879026258498115" lon="12.038706242014564"><ele>170.0</ele><time>2026-04-25T06:07:26.876Z</time></trkpt><trkpt lat="45.87897443040571" lon="12.038615827870224"><ele>170.0</ele><time>2026-04-25T06:07:27.875Z</time></trkpt><trkpt lat="45.878930807539284" lon="12.03852418479202"><ele>170.0</ele><time>2026-04-25T06:07:28.874Z</time></trkpt><trkpt lat="45.878890659618264" lon="12.038430725477616"><ele>170.0</ele><time>2026-04-25T06:07:29.874Z</time></trkpt><trkpt lat="45.878856103975885" lon="12.038332316830557"><ele>170.0</ele><time>2026-04-25T06:07:30.873Z</time></trkpt><trkpt lat="45.87882766730503" lon="12.038227416089525"><ele>170.0</ele><time>2026-04-25T06:07:31.872Z</time></trkpt><trkpt lat="45.87879792278355" lon="12.038119461338368"><ele>170.0</ele><time>2026-04-25T06:07:32.872Z</time></trkpt><trkpt lat="45.87877770398063" lon="12.037992685259269"><ele>170.0</ele><time>2026-04-25T06:07:33.871Z</time></trkpt><trkpt lat="45.8787628565035" lon="12.03786130641143"><ele>170.0</ele><time>2026-04-25T06:07:34.871Z</time></trkpt><trkpt lat="45.87874533699507" lon="12.037734100161053"><ele>169.4</ele><time>2026-04-25T06:07:35.87Z</time></trkpt><trkpt lat="45.87872777785061" lon="12.037600541340613"><ele>168.8</ele><time>2026-04-25T06:07:36.87Z</time></trkpt><trkpt lat="45.87870939937063" lon="12.03746513069995"><ele>168.2</ele><time>2026-04-25T06:07:37.869Z</time></trkpt><trkpt lat="45.878686652532025" lon="12.037334638493064"><ele>167.6</ele><time>2026-04-25T06:07:38.869Z</time></trkpt><trkpt lat="45.878669316290086" lon="12.037203230593523"><ele>167.0</ele><time>2026-04-25T06:07:39.869Z</time></trkpt><trkpt lat="45.87865059487843" lon="12.03706854912034"><ele>167.0</ele><time>2026-04-25T06:07:40.868Z</time></trkpt><trkpt lat="45.87863152373465" lon="12.036938703000594"><ele>167.0</ele><time>2026-04-25T06:07:41.868Z</time></trkpt><trkpt lat="45.878614580216905" lon="12.036802710438662"><ele>167.0</ele><time>2026-04-25T06:07:42.868Z</time></trkpt><trkpt lat="45.8785981824301" lon="12.036670490967147"><ele>167.0</ele><time>2026-04-25T06:07:43.867Z</time></trkpt><trkpt lat="45.87857915986052" lon="12.036540329918868"><ele>167.0</ele><time>2026-04-25T06:07:44.867Z</time></trkpt><trkpt lat="45.878553974592975" lon="12.03642245971786"><ele>167.0</ele><time>2026-04-25T06:07:45.867Z</time></trkpt><trkpt lat="45.878534100177994" lon="12.036297152186304"><ele>167.0</ele><time>2026-04-25T06:07:46.866Z</time></trkpt><trkpt lat="45.87851629285403" lon="12.036170612734308"><ele>167.0</ele><time>2026-04-25T06:07:47.866Z</time></trkpt><trkpt lat="45.878495132199255" lon="12.036055440608415"><ele>167.0</ele><time>2026-04-25T06:07:48.866Z</time></trkpt><trkpt lat="45.87848299427261" lon="12.03592708589453"><ele>167.0</ele><time>2026-04-25T06:07:49.866Z</time></trkpt><trkpt lat="45.87846170764149" lon="12.035803235690942"><ele>167.0</ele><time>2026-04-25T06:07:50.866Z</time></trkpt><trkpt lat="45.87844336389815" lon="12.035685591316057"><ele>166.66666666666666</ele><time>2026-04-25T06:07:51.865Z</time></trkpt><trkpt lat="45.8784250294523" lon="12.035574480296992"><ele>166.33333333333331</ele><time>2026-04-25T06:07:52.865Z</time></trkpt><trkpt lat="45.87840264096756" lon="12.035464558612746"><ele>166.0</ele><time>2026-04-25T06:07:53.865Z</time></trkpt><trkpt lat="45.87838592547924" lon="12.035358486597834"><ele>165.66666666666666</ele><time>2026-04-25T06:07:54.865Z</time></trkpt><trkpt lat="45.878368437722365" lon="12.035251046256446"><ele>165.33333333333334</ele><time>2026-04-25T06:07:55.865Z</time></trkpt><trkpt lat="45.8783572741229" lon="12.035145835311091"><ele>165.0</ele><time>2026-04-25T06:07:56.865Z</time></trkpt><trkpt lat="45.87833401230691" lon="12.035040809145027"><ele>165.5</ele><time>2026-04-25T06:07:57.864Z</time></trkpt><trkpt lat="45.87832040907736" lon="12.03493636739071"><ele>166.0</ele><time>2026-04-25T06:07:58.864Z</time></trkpt><trkpt lat="45.87829540594754" lon="12.034826206409528"><ele>166.5</ele><time>2026-04-25T06:07:59.864Z</time></trkpt><trkpt lat="45.87827305126706" lon="12.034729094534773"><ele>167.0</ele><time>2026-04-25T06:08:00.864Z</time></trkpt><trkpt lat="45.878245046099345" lon="12.034633618754777"><ele>167.5</ele><time>2026-04-25T06:08:01.864Z</time></trkpt><trkpt lat="45.87821667790604" lon="12.034524547800473"><ele>168.0</ele><time>2026-04-25T06:08:02.864Z</time></trkpt><trkpt lat="45.87818344244415" lon="12.034412961932683"><ele>168.0</ele><time>2026-04-25T06:08:03.864Z</time></trkpt><trkpt lat="45.87814926726345" lon="12.034309461253486"><ele>168.0</ele><time>2026-04-25T06:08:04.864Z</time></trkpt><trkpt lat="45.87811379634426" lon="12.034200310456699"><ele>168.0</ele><time>2026-04-25T06:08:05.863Z</time></trkpt><trkpt lat="45.87807680906669" lon="12.034094693918654"><ele>168.0</ele><time>2026-04-25T06:08:06.863Z</time></trkpt><trkpt lat="45.87804052071687" lon="12.033965916379728"><ele>168.0</ele><time>2026-04-25T06:08:07.863Z</time></trkpt><trkpt lat="45.8780013042002" lon="12.033853937346427"><ele>168.0</ele><time>2026-04-25T06:08:08.863Z</time></trkpt><trkpt lat="45.87795962448629" lon="12.033739698052482"><ele>167.60000000000002</ele><time>2026-04-25T06:08:09.863Z</time></trkpt><trkpt lat="45.8779101294325" lon="12.033632827286619"><ele>167.20000000000002</ele><time>2026-04-25T06:08:10.863Z</time></trkpt><trkpt lat="45.87785819285392" lon="12.033538404648251"><ele>166.8</ele><time>2026-04-25T06:08:11.863Z</time></trkpt><trkpt lat="45.87780138512691" lon="12.033402999190953"><ele>166.4</ele><time>2026-04-25T06:08:12.863Z</time></trkpt><trkpt lat="45.87773996680719" lon="12.03329489877353"><ele>166.0</ele><time>2026-04-25T06:08:13.863Z</time></trkpt><trkpt lat="45.87767642673885" lon="12.033177842141775"><ele>165.60000000000002</ele><time>2026-04-25T06:08:14.863Z</time></trkpt><trkpt lat="45.8776043232975" lon="12.033063422022957"><ele>165.2</ele><time>2026-04-25T06:08:15.863Z</time></trkpt><trkpt lat="45.87753784496039" lon="12.032964004246931"><ele>164.8</ele><time>2026-04-25T06:08:16.863Z</time></trkpt><trkpt lat="45.87747159764865" lon="12.032854153742484"><ele>164.39999999999998</ele><time>2026-04-25T06:08:17.863Z</time></trkpt><trkpt lat="45.8774075914936" lon="12.032735273220158"><ele>164.0</ele><time>2026-04-25T06:08:18.862Z</time></trkpt><trkpt lat="45.877342098881776" lon="12.032616253304365"><ele>163.2</ele><time>2026-04-25T06:08:19.862Z</time></trkpt><trkpt lat="45.877275266799735" lon="12.03250109291082"><ele>162.39999999999998</ele><time>2026-04-25T06:08:20.862Z</time></trkpt><trkpt lat="45.87720642880173" lon="12.032383464854247"><ele>161.6</ele><time>2026-04-25T06:08:21.862Z</time></trkpt><trkpt lat="45.877140168300095" lon="12.032269525571348"><ele>160.8</ele><time>2026-04-25T06:08:22.862Z</time></trkpt><trkpt lat="45.87707377812755" lon="12.032150335595226"><ele>160.0</ele><time>2026-04-25T06:08:23.862Z</time></trkpt><trkpt lat="45.8770054668473" lon="12.032033580252365"><ele>160.0</ele><time>2026-04-25T06:08:24.862Z</time></trkpt><trkpt lat="45.87693246594046" lon="12.031915559039108"><ele>160.0</ele><time>2026-04-25T06:08:25.862Z</time></trkpt><trkpt lat="45.87686100458107" lon="12.031796782128742"><ele>160.0</ele><time>2026-04-25T06:08:26.862Z</time></trkpt><trkpt lat="45.87679547224364" lon="12.031682470969365"><ele>160.0</ele><time>2026-04-25T06:08:27.862Z</time></trkpt><trkpt lat="45.8767281332364" lon="12.03157347230904"><ele>160.0</ele><time>2026-04-25T06:08:28.862Z</time></trkpt><trkpt lat="45.8766630963761" lon="12.031462508094052"><ele>159.83333333333334</ele><time>2026-04-25T06:08:29.862Z</time></trkpt><trkpt lat="45.87660618700019" lon="12.03136380344035"><ele>159.66666666666669</ele><time>2026-04-25T06:08:30.862Z</time></trkpt><trkpt lat="45.876543738635284" lon="12.031265011270833"><ele>159.5</ele><time>2026-04-25T06:08:31.862Z</time></trkpt><trkpt lat="45.87648804423241" lon="12.031173840010805"><ele>159.33333333333334</ele><time>2026-04-25T06:08:32.862Z</time></trkpt><trkpt lat="45.87643546379125" lon="12.03108498369458"><ele>159.16666666666666</ele><time>2026-04-25T06:08:33.862Z</time></trkpt><trkpt lat="45.87638031238182" lon="12.030996255390535"><ele>159.0</ele><time>2026-04-25T06:08:34.862Z</time></trkpt><trkpt lat="45.87632920939408" lon="12.03092550512645"><ele>159.0</ele><time>2026-04-25T06:08:35.862Z</time></trkpt><trkpt lat="45.876277072277695" lon="12.030854112286722"><ele>159.0</ele><time>2026-04-25T06:08:36.862Z</time></trkpt><trkpt lat="45.87623768177605" lon="12.030775516644438"><ele>159.0</ele><time>2026-04-25T06:08:37.862Z</time></trkpt><trkpt lat="45.876152107356106" lon="12.03066648694941"><ele>159.0</ele><time>2026-04-25T06:08:39.861Z</time></trkpt><trkpt lat="45.87607275331184" lon="12.030521408313396"><ele>159.0</ele><time>2026-04-25T06:08:41.861Z</time></trkpt><trkpt lat="45.87603466947038" lon="12.030445777801749"><ele>159.0</ele><time>2026-04-25T06:08:42.861Z</time></trkpt><trkpt lat="45.87596079471414" lon="12.030328243055331"><ele>160.4</ele><time>2026-04-25T06:08:44.862Z</time></trkpt><trkpt lat="45.87588596171089" lon="12.030229067206177"><ele>161.8</ele><time>2026-04-25T06:08:46.862Z</time></trkpt><trkpt lat="45.875800437462" lon="12.03016083345072"><ele>163.20000000000002</ele><time>2026-04-25T06:08:48.862Z</time></trkpt><trkpt lat="45.87570530949772" lon="12.030110256868586"><ele>164.60000000000002</ele><time>2026-04-25T06:08:50.863Z</time></trkpt><trkpt lat="45.8756395026784" lon="12.030045843060856"><ele>166.0</ele><time>2026-04-25T06:08:52.862Z</time></trkpt><trkpt lat="45.87554525181345" lon="12.030000345130988"><ele>166.20000000000002</ele><time>2026-04-25T06:08:54.863Z</time></trkpt><trkpt lat="45.87545512247919" lon="12.029953767589545"><ele>166.4</ele><time>2026-04-25T06:08:56.862Z</time></trkpt><trkpt lat="45.875334251692685" lon="12.02991643441456"><ele>166.6</ele><time>2026-04-25T06:08:58.862Z</time></trkpt><trkpt lat="45.87527721077487" lon="12.029861004239976"><ele>166.8</ele><time>2026-04-25T06:08:59.862Z</time></trkpt><trkpt lat="45.87516915386989" lon="12.029757636174851"><ele>167.0</ele><time>2026-04-25T06:09:01.862Z</time></trkpt><trkpt lat="45.87505730228266" lon="12.029697105355378"><ele>167.0</ele><time>2026-04-25T06:09:03.862Z</time></trkpt><trkpt lat="45.87499791209099" lon="12.02965589324569"><ele>167.0</ele><time>2026-04-25T06:09:04.862Z</time></trkpt><trkpt lat="45.87487942666194" lon="12.0295998439846"><ele>167.0</ele><time>2026-04-25T06:09:06.862Z</time></trkpt><trkpt lat="45.8748187585969" lon="12.029557456196057"><ele>167.0</ele><time>2026-04-25T06:09:07.862Z</time></trkpt><trkpt lat="45.874753766972816" lon="12.029525873175585"><ele>167.0</ele><time>2026-04-25T06:09:08.861Z</time></trkpt><trkpt lat="45.87469284920941" lon="12.02947193829006"><ele>167.0</ele><time>2026-04-25T06:09:09.861Z</time></trkpt><trkpt lat="45.87462638881812" lon="12.02943794267666"><ele>167.0</ele><time>2026-04-25T06:09:10.861Z</time></trkpt><trkpt lat="45.87450633532709" lon="12.029379814536187"><ele>167.0</ele><time>2026-04-25T06:09:12.861Z</time></trkpt><trkpt lat="45.87444839612828" lon="12.029342193084512"><ele>167.0</ele><time>2026-04-25T06:09:13.861Z</time></trkpt><trkpt lat="45.874386004333175" lon="12.029298142607063"><ele>167.0</ele><time>2026-04-25T06:09:14.861Z</time></trkpt><trkpt lat="45.874331266113984" lon="12.029253299193217"><ele>167.0</ele><time>2026-04-25T06:09:15.861Z</time></trkpt><trkpt lat="45.874256672442854" lon="12.029216081929466"><ele>167.0</ele><time>2026-04-25T06:09:16.861Z</time></trkpt><trkpt lat="45.874198256904464" lon="12.029176479302738"><ele>167.16666666666666</ele><time>2026-04-25T06:09:17.861Z</time></trkpt><trkpt lat="45.87413646572975" lon="12.029125445476176"><ele>167.33333333333331</ele><time>2026-04-25T06:09:18.861Z</time></trkpt><trkpt lat="45.87403004562177" lon="12.029025670730757"><ele>167.5</ele><time>2026-04-25T06:09:20.861Z</time></trkpt><trkpt lat="45.87397318725613" lon="12.028967433191061"><ele>167.66666666666666</ele><time>2026-04-25T06:09:21.861Z</time></trkpt><trkpt lat="45.873914527436796" lon="12.0289001682788"><ele>167.83333333333334</ele><time>2026-04-25T06:09:22.861Z</time></trkpt><trkpt lat="45.87386326942325" lon="12.02883213663078"><ele>168.0</ele><time>2026-04-25T06:09:23.861Z</time></trkpt><trkpt lat="45.8738041457394" lon="12.028761474419746"><ele>168.0</ele><time>2026-04-25T06:09:24.861Z</time></trkpt><trkpt lat="45.873752083399445" lon="12.028686775388532"><ele>168.0</ele><time>2026-04-25T06:09:25.861Z</time></trkpt><trkpt lat="45.87370681384179" lon="12.028619001875683"><ele>168.0</ele><time>2026-04-25T06:09:26.861Z</time></trkpt><trkpt lat="45.87365198612025" lon="12.028542400463728"><ele>168.0</ele><time>2026-04-25T06:09:27.861Z</time></trkpt><trkpt lat="45.8735993887217" lon="12.028465765540497"><ele>168.0</ele><time>2026-04-25T06:09:28.861Z</time></trkpt><trkpt lat="45.87355786566574" lon="12.02839595012729"><ele>168.0</ele><time>2026-04-25T06:09:29.861Z</time></trkpt><trkpt lat="45.8735088346049" lon="12.028332517838276"><ele>168.0</ele><time>2026-04-25T06:09:30.861Z</time></trkpt><trkpt lat="45.873468004499514" lon="12.028257143036338"><ele>168.33333333333334</ele><time>2026-04-25T06:09:31.861Z</time></trkpt><trkpt lat="45.87342868139026" lon="12.028170281475116"><ele>168.66666666666666</ele><time>2026-04-25T06:09:32.861Z</time></trkpt><trkpt lat="45.873373809527855" lon="12.028077652410015"><ele>169.0</ele><time>2026-04-25T06:09:33.861Z</time></trkpt><trkpt lat="45.87332752018743" lon="12.027985435891425"><ele>169.33333333333331</ele><time>2026-04-25T06:09:34.861Z</time></trkpt><trkpt lat="45.87328940177759" lon="12.02790079382542"><ele>169.66666666666666</ele><time>2026-04-25T06:09:35.861Z</time></trkpt><trkpt lat="45.87322065925992" lon="12.027744012188059"><ele>170.0</ele><time>2026-04-25T06:09:37.86Z</time></trkpt><trkpt lat="45.87318126395819" lon="12.027655141838222"><ele>170.0</ele><time>2026-04-25T06:09:38.86Z</time></trkpt><trkpt lat="45.873141449199565" lon="12.027569860779517"><ele>170.0</ele><time>2026-04-25T06:09:39.86Z</time></trkpt><trkpt lat="45.87310028458835" lon="12.027486338893796"><ele>170.0</ele><time>2026-04-25T06:09:40.86Z</time></trkpt><trkpt lat="45.8730571618122" lon="12.027399734538221"><ele>170.0</ele><time>2026-04-25T06:09:41.86Z</time></trkpt><trkpt lat="45.87301927368615" lon="12.027308317105144"><ele>170.0</ele><time>2026-04-25T06:09:42.86Z</time></trkpt><trkpt lat="45.87297780754022" lon="12.02722356867528"><ele>170.0</ele><time>2026-04-25T06:09:43.86Z</time></trkpt><trkpt lat="45.87294401475726" lon="12.027134916301973"><ele>170.0</ele><time>2026-04-25T06:09:44.86Z</time></trkpt><trkpt lat="45.87289872331799" lon="12.02704193954998"><ele>170.33333333333331</ele><time>2026-04-25T06:09:45.86Z</time></trkpt><trkpt lat="45.872849629269425" lon="12.026959900267162"><ele>170.66666666666666</ele><time>2026-04-25T06:09:46.86Z</time></trkpt><trkpt lat="45.87281504960765" lon="12.026869256391509"><ele>171.0</ele><time>2026-04-25T06:09:47.86Z</time></trkpt><trkpt lat="45.872774923794566" lon="12.026786629688536"><ele>171.33333333333334</ele><time>2026-04-25T06:09:48.86Z</time></trkpt><trkpt lat="45.87273428021746" lon="12.026696951023215"><ele>171.66666666666669</ele><time>2026-04-25T06:09:49.86Z</time></trkpt><trkpt lat="45.872689407257646" lon="12.026607536997062"><ele>172.0</ele><time>2026-04-25T06:09:50.86Z</time></trkpt><trkpt lat="45.872643093606875" lon="12.026509559150142"><ele>172.2857142857143</ele><time>2026-04-25T06:09:51.86Z</time></trkpt><trkpt lat="45.872603517199636" lon="12.026416807764207"><ele>172.57142857142858</ele><time>2026-04-25T06:09:52.86Z</time></trkpt><trkpt lat="45.87256491708448" lon="12.026335319230043"><ele>172.85714285714286</ele><time>2026-04-25T06:09:53.86Z</time></trkpt><trkpt lat="45.872525943208046" lon="12.026255013435742"><ele>173.14285714285717</ele><time>2026-04-25T06:09:54.86Z</time></trkpt><trkpt lat="45.87247999224042" lon="12.026176991821677"><ele>173.42857142857144</ele><time>2026-04-25T06:09:55.86Z</time></trkpt><trkpt lat="45.87243430500064" lon="12.026096600678594"><ele>173.71428571428572</ele><time>2026-04-25T06:09:56.86Z</time></trkpt><trkpt lat="45.872387577380174" lon="12.02602516255041"><ele>174.0</ele><time>2026-04-25T06:09:57.86Z</time></trkpt><trkpt lat="45.8723465872304" lon="12.02594497894258"><ele>174.0</ele><time>2026-04-25T06:09:58.86Z</time></trkpt><trkpt lat="45.8723090887109" lon="12.02584914292374"><ele>174.0</ele><time>2026-04-25T06:09:59.86Z</time></trkpt><trkpt lat="45.872273950813145" lon="12.025760092458256"><ele>174.0</ele><time>2026-04-25T06:10:00.86Z</time></trkpt><trkpt lat="45.87223838864613" lon="12.025668449206956"><ele>174.0</ele><time>2026-04-25T06:10:01.86Z</time></trkpt><trkpt lat="45.8721973700469" lon="12.02557374635751"><ele>174.0</ele><time>2026-04-25T06:10:02.86Z</time></trkpt><trkpt lat="45.872156395397035" lon="12.025489212846127"><ele>174.0</ele><time>2026-04-25T06:10:03.86Z</time></trkpt><trkpt lat="45.872117123829035" lon="12.025398224792424"><ele>174.0</ele><time>2026-04-25T06:10:04.86Z</time></trkpt><trkpt lat="45.872069443289675" lon="12.025298855789899"><ele>173.5</ele><time>2026-04-25T06:10:05.86Z</time></trkpt><trkpt lat="45.872027760905006" lon="12.025218572440911"><ele>173.0</ele><time>2026-04-25T06:10:06.859Z</time></trkpt><trkpt lat="45.87199356271926" lon="12.025129958922612"><ele>172.5</ele><time>2026-04-25T06:10:07.859Z</time></trkpt><trkpt lat="45.871956943370286" lon="12.025029405563322"><ele>172.0</ele><time>2026-04-25T06:10:08.859Z</time></trkpt><trkpt lat="45.87191441606065" lon="12.024941057583076"><ele>171.5</ele><time>2026-04-25T06:10:09.859Z</time></trkpt><trkpt lat="45.87186568466815" lon="12.024855031074825"><ele>171.0</ele><time>2026-04-25T06:10:10.859Z</time></trkpt><trkpt lat="45.8718177298503" lon="12.024763338568777"><ele>170.83333333333334</ele><time>2026-04-25T06:10:11.859Z</time></trkpt><trkpt lat="45.87177039129768" lon="12.024673334211297"><ele>170.66666666666666</ele><time>2026-04-25T06:10:12.859Z</time></trkpt><trkpt lat="45.871725838126764" lon="12.024585113199018"><ele>170.5</ele><time>2026-04-25T06:10:13.859Z</time></trkpt><trkpt lat="45.87168466758534" lon="12.024486312730842"><ele>170.33333333333331</ele><time>2026-04-25T06:10:14.859Z</time></trkpt><trkpt lat="45.87164890620153" lon="12.024385426691426"><ele>170.16666666666666</ele><time>2026-04-25T06:10:15.859Z</time></trkpt><trkpt lat="45.87160907646277" lon="12.024291008654599"><ele>170.0</ele><time>2026-04-25T06:10:16.859Z</time></trkpt><trkpt lat="45.87156532378349" lon="12.02419824286316"><ele>170.0</ele><time>2026-04-25T06:10:17.859Z</time></trkpt><trkpt lat="45.87152181817781" lon="12.024106246847635"><ele>170.0</ele><time>2026-04-25T06:10:18.859Z</time></trkpt><trkpt lat="45.87147763335386" lon="12.024012056609156"><ele>170.0</ele><time>2026-04-25T06:10:19.859Z</time></trkpt><trkpt lat="45.87143619644127" lon="12.02391702686398"><ele>170.0</ele><time>2026-04-25T06:10:20.859Z</time></trkpt><trkpt lat="45.87139840850442" lon="12.023830335535429"><ele>170.0</ele><time>2026-04-25T06:10:21.859Z</time></trkpt><trkpt lat="45.87135305899303" lon="12.023743343987778"><ele>170.0</ele><time>2026-04-25T06:10:22.859Z</time></trkpt><trkpt lat="45.87131022543056" lon="12.023649411519512"><ele>170.0</ele><time>2026-04-25T06:10:23.859Z</time></trkpt><trkpt lat="45.871270267050555" lon="12.023556725547994"><ele>170.0</ele><time>2026-04-25T06:10:24.859Z</time></trkpt><trkpt lat="45.871230762985746" lon="12.023464113849002"><ele>170.0</ele><time>2026-04-25T06:10:25.859Z</time></trkpt><trkpt lat="45.87118928721326" lon="12.02337778859179"><ele>170.0</ele><time>2026-04-25T06:10:26.859Z</time></trkpt><trkpt lat="45.87114067738344" lon="12.023296340057376"><ele>170.0</ele><time>2026-04-25T06:10:27.859Z</time></trkpt><trkpt lat="45.8710969632724" lon="12.023203322718246"><ele>170.0</ele><time>2026-04-25T06:10:28.859Z</time></trkpt><trkpt lat="45.87105745846536" lon="12.023098344401589"><ele>170.16666666666666</ele><time>2026-04-25T06:10:29.859Z</time></trkpt><trkpt lat="45.87101731343854" lon="12.022995868739388"><ele>170.33333333333331</ele><time>2026-04-25T06:10:30.859Z</time></trkpt><trkpt lat="45.87097607883018" lon="12.022904072247309"><ele>170.5</ele><time>2026-04-25T06:10:31.859Z</time></trkpt><trkpt lat="45.87092820913306" lon="12.022807974358889"><ele>170.66666666666666</ele><time>2026-04-25T06:10:32.859Z</time></trkpt><trkpt lat="45.87088271114704" lon="12.022716588296893"><ele>170.83333333333334</ele><time>2026-04-25T06:10:33.859Z</time></trkpt><trkpt lat="45.870838403095334" lon="12.022634733238135"><ele>171.0</ele><time>2026-04-25T06:10:34.859Z</time></trkpt><trkpt lat="45.87079211864655" lon="12.022556507023925"><ele>170.8</ele><time>2026-04-25T06:10:35.858Z</time></trkpt><trkpt lat="45.870748733664044" lon="12.022482810478078"><ele>170.60000000000002</ele><time>2026-04-25T06:10:36.858Z</time></trkpt><trkpt lat="45.87071803501098" lon="12.02240308230259"><ele>170.4</ele><time>2026-04-25T06:10:37.858Z</time></trkpt><trkpt lat="45.87075410711446" lon="12.02226456724273"><ele>170.2</ele><time>2026-04-25T06:10:39.858Z</time></trkpt><trkpt lat="45.870829740265926" lon="12.02213628300248"><ele>170.0</ele><time>2026-04-25T06:10:41.858Z</time></trkpt><trkpt lat="45.87089664198801" lon="12.021979783133265"><ele>170.0</ele><time>2026-04-25T06:10:43.858Z</time></trkpt><trkpt lat="45.87093755067324" lon="12.021892451018577"><ele>170.0</ele><time>2026-04-25T06:10:44.858Z</time></trkpt><trkpt lat="45.87097534722624" lon="12.02181361115906"><ele>170.0</ele><time>2026-04-25T06:10:45.858Z</time></trkpt><trkpt lat="45.87101432922524" lon="12.021728756703286"><ele>170.0</ele><time>2026-04-25T06:10:46.858Z</time></trkpt><trkpt lat="45.87105304178107" lon="12.021643581102818"><ele>170.0</ele><time>2026-04-25T06:10:47.858Z</time></trkpt><trkpt lat="45.871092868064956" lon="12.021552272264994"><ele>170.0</ele><time>2026-04-25T06:10:48.858Z</time></trkpt><trkpt lat="45.87113072175747" lon="12.021466999818255"><ele>170.0</ele><time>2026-04-25T06:10:49.858Z</time></trkpt><trkpt lat="45.87116371882757" lon="12.021381661223096"><ele>170.0</ele><time>2026-04-25T06:10:50.859Z</time></trkpt><trkpt lat="45.871193639740156" lon="12.021293306524097"><ele>170.0</ele><time>2026-04-25T06:10:51.859Z</time></trkpt><trkpt lat="45.87122343582148" lon="12.021201258105279"><ele>170.0</ele><time>2026-04-25T06:10:52.859Z</time></trkpt><trkpt lat="45.87124997285366" lon="12.021112697368634"><ele>170.0</ele><time>2026-04-25T06:10:53.859Z</time></trkpt><trkpt lat="45.87127550839547" lon="12.021022645664711"><ele>170.0</ele><time>2026-04-25T06:10:54.859Z</time></trkpt><trkpt lat="45.871304716243195" lon="12.020929810668134"><ele>170.0</ele><time>2026-04-25T06:10:55.859Z</time></trkpt><trkpt lat="45.87133972231483" lon="12.020843398093426"><ele>170.0</ele><time>2026-04-25T06:10:56.859Z</time></trkpt><trkpt lat="45.87136961525958" lon="12.020755731235415"><ele>170.4</ele><time>2026-04-25T06:10:57.859Z</time></trkpt><trkpt lat="45.871397686412884" lon="12.020667465331393"><ele>170.8</ele><time>2026-04-25T06:10:58.859Z</time></trkpt><trkpt lat="45.87142982687544" lon="12.02058136201101"><ele>171.2</ele><time>2026-04-25T06:10:59.859Z</time></trkpt><trkpt lat="45.871494777099336" lon="12.020428455122742"><ele>171.6</ele><time>2026-04-25T06:11:01.859Z</time></trkpt><trkpt lat="45.871556022407894" lon="12.020265723976381"><ele>172.0</ele><time>2026-04-25T06:11:03.858Z</time></trkpt><trkpt lat="45.871603062978785" lon="12.02010304845744"><ele>172.0</ele><time>2026-04-25T06:11:05.858Z</time></trkpt><trkpt lat="45.8716279050472" lon="12.02001393150722"><ele>172.0</ele><time>2026-04-25T06:11:06.858Z</time></trkpt><trkpt lat="45.87165953044386" lon="12.019928704820439"><ele>172.0</ele><time>2026-04-25T06:11:07.858Z</time></trkpt><trkpt lat="45.87168400606561" lon="12.019844693633893"><ele>172.0</ele><time>2026-04-25T06:11:08.858Z</time></trkpt><trkpt lat="45.87171804316241" lon="12.019760465995057"><ele>172.0</ele><time>2026-04-25T06:11:09.858Z</time></trkpt><trkpt lat="45.871772020072136" lon="12.019602748629817"><ele>172.0</ele><time>2026-04-25T06:11:11.858Z</time></trkpt><trkpt lat="45.87179615949273" lon="12.019513381724456"><ele>172.25</ele><time>2026-04-25T06:11:12.858Z</time></trkpt><trkpt lat="45.871851599134175" lon="12.019366982914196"><ele>172.5</ele><time>2026-04-25T06:11:14.858Z</time></trkpt><trkpt lat="45.8719126143415" lon="12.019214267346952"><ele>172.75</ele><time>2026-04-25T06:11:16.858Z</time></trkpt><trkpt lat="45.8719716883927" lon="12.019066785363671"><ele>173.0</ele><time>2026-04-25T06:11:18.858Z</time></trkpt><trkpt lat="45.872027744772" lon="12.018918981231066"><ele>173.4</ele><time>2026-04-25T06:11:20.858Z</time></trkpt><trkpt lat="45.87208799123145" lon="12.018776016876405"><ele>173.8</ele><time>2026-04-25T06:11:22.858Z</time></trkpt><trkpt lat="45.87215243086136" lon="12.018640671134268"><ele>174.2</ele><time>2026-04-25T06:11:24.858Z</time></trkpt><trkpt lat="45.87220164219324" lon="12.018544265582069"><ele>174.6</ele><time>2026-04-25T06:11:26.857Z</time></trkpt><trkpt lat="45.872251213301354" lon="12.01842264484328"><ele>175.0</ele><time>2026-04-25T06:11:29.857Z</time></trkpt><trkpt lat="45.872314565193875" lon="12.01832098594146"><ele>175.0</ele><time>2026-04-25T06:11:32.857Z</time></trkpt><trkpt lat="45.8723700798924" lon="12.0182211498268"><ele>175.0</ele><time>2026-04-25T06:11:35.857Z</time></trkpt><trkpt lat="45.87242501174445" lon="12.01811981772783"><ele>175.0</ele><time>2026-04-25T06:11:37.857Z</time></trkpt><trkpt lat="45.872501027033714" lon="12.017995593284262"><ele>175.0</ele><time>2026-04-25T06:11:39.857Z</time></trkpt><trkpt lat="45.872560534930855" lon="12.017872909632311"><ele>175.0</ele><time>2026-04-25T06:11:41.857Z</time></trkpt><trkpt lat="45.872618848338924" lon="12.017737348833139"><ele>175.0</ele><time>2026-04-25T06:11:43.857Z</time></trkpt><trkpt lat="45.872665799849564" lon="12.017634917209122"><ele>175.0</ele><time>2026-04-25T06:11:45.857Z</time></trkpt><trkpt lat="45.87269302839702" lon="12.017551398584358"><ele>175.0</ele><time>2026-04-25T06:11:47.857Z</time></trkpt><trkpt lat="45.8726864397935" lon="12.01744714311257"><ele>175.0</ele><time>2026-04-25T06:11:50.857Z</time></trkpt><trkpt lat="45.87263240624404" lon="12.017382206503182"><ele>175.0</ele><time>2026-04-25T06:11:53.857Z</time></trkpt><trkpt lat="45.87257751259932" lon="12.01731303606029"><ele>175.0</ele><time>2026-04-25T06:11:55.856Z</time></trkpt><trkpt lat="45.87249576845022" lon="12.01723531308605"><ele>175.0</ele><time>2026-04-25T06:11:57.856Z</time></trkpt><trkpt lat="45.87241376503161" lon="12.017156709415122"><ele>175.0</ele><time>2026-04-25T06:11:59.856Z</time></trkpt><trkpt lat="45.872313723201984" lon="12.017083980300193"><ele>175.0</ele><time>2026-04-25T06:12:01.856Z</time></trkpt><trkpt lat="45.872220357130104" lon="12.017030104973125"><ele>175.0</ele><time>2026-04-25T06:12:03.856Z</time></trkpt><trkpt lat="45.872163991978425" lon="12.01698340707628"><ele>175.0</ele><time>2026-04-25T06:12:04.856Z</time></trkpt><trkpt lat="45.87206056599984" lon="12.016889869024567"><ele>175.0</ele><time>2026-04-25T06:12:06.856Z</time></trkpt><trkpt lat="45.87195372551832" lon="12.016822510930691"><ele>175.0</ele><time>2026-04-25T06:12:08.856Z</time></trkpt><trkpt lat="45.871894071656165" lon="12.016790024939676"><ele>175.0</ele><time>2026-04-25T06:12:09.856Z</time></trkpt><trkpt lat="45.87183444242182" lon="12.016753954193359"><ele>175.0</ele><time>2026-04-25T06:12:10.856Z</time></trkpt><trkpt lat="45.871729490978154" lon="12.016678122239123"><ele>175.0</ele><time>2026-04-25T06:12:12.856Z</time></trkpt><trkpt lat="45.87163437189998" lon="12.016587317922452"><ele>175.16666666666669</ele><time>2026-04-25T06:12:14.856Z</time></trkpt><trkpt lat="45.87154374325077" lon="12.01648738002022"><ele>175.33333333333334</ele><time>2026-04-25T06:12:16.856Z</time></trkpt><trkpt lat="45.871493982788216" lon="12.016430219923159"><ele>175.5</ele><time>2026-04-25T06:12:17.856Z</time></trkpt><trkpt lat="45.871447143406144" lon="12.016356246573904"><ele>175.66666666666666</ele><time>2026-04-25T06:12:18.856Z</time></trkpt><trkpt lat="45.8714069781443" lon="12.01627899448001"><ele>175.83333333333331</ele><time>2026-04-25T06:12:19.856Z</time></trkpt><trkpt lat="45.871353040317295" lon="12.01620710639759"><ele>176.0</ele><time>2026-04-25T06:12:20.856Z</time></trkpt><trkpt lat="45.871299570693886" lon="12.0160613735221"><ele>176.0</ele><time>2026-04-25T06:12:22.856Z</time></trkpt><trkpt lat="45.87122328488271" lon="12.01590796736159"><ele>176.0</ele><time>2026-04-25T06:12:24.855Z</time></trkpt><trkpt lat="45.87117961666039" lon="12.015841689238403"><ele>176.0</ele><time>2026-04-25T06:12:25.855Z</time></trkpt><trkpt lat="45.87109304239089" lon="12.015703791887821"><ele>176.0</ele><time>2026-04-25T06:12:27.855Z</time></trkpt><trkpt lat="45.87102066171824" lon="12.015550248824082"><ele>175.83333333333331</ele><time>2026-04-25T06:12:29.855Z</time></trkpt><trkpt lat="45.870975143127005" lon="12.015475575686052"><ele>175.66666666666666</ele><time>2026-04-25T06:12:30.855Z</time></trkpt><trkpt lat="45.87092309024307" lon="12.015396785291706"><ele>175.5</ele><time>2026-04-25T06:12:31.855Z</time></trkpt><trkpt lat="45.87086686157396" lon="12.015334338888636"><ele>175.33333333333334</ele><time>2026-04-25T06:12:32.855Z</time></trkpt><trkpt lat="45.87081967138069" lon="12.015270788300286"><ele>175.16666666666669</ele><time>2026-04-25T06:12:33.855Z</time></trkpt><trkpt lat="45.87076823599933" lon="12.01514752995711"><ele>175.0</ele><time>2026-04-25T06:12:35.855Z</time></trkpt><trkpt lat="45.87082002666613" lon="12.015042517730977"><ele>175.33333333333334</ele><time>2026-04-25T06:12:37.855Z</time></trkpt><trkpt lat="45.87089748336935" lon="12.014982781662198"><ele>175.66666666666669</ele><time>2026-04-25T06:12:39.855Z</time></trkpt><trkpt lat="45.87095215476187" lon="12.014927179468632"><ele>176.0</ele><time>2026-04-25T06:12:40.855Z</time></trkpt><trkpt lat="45.87100528463827" lon="12.014872019870138"><ele>176.33333333333334</ele><time>2026-04-25T06:12:41.855Z</time></trkpt><trkpt lat="45.87106133258809" lon="12.014808326374496"><ele>176.66666666666666</ele><time>2026-04-25T06:12:42.855Z</time></trkpt><trkpt lat="45.87114757756635" lon="12.014688564494937"><ele>177.0</ele><time>2026-04-25T06:12:44.855Z</time></trkpt><trkpt lat="45.87121335552887" lon="12.01463366291019"><ele>177.14285714285714</ele><time>2026-04-25T06:12:45.855Z</time></trkpt><trkpt lat="45.87127002015407" lon="12.014579885095856"><ele>177.28571428571428</ele><time>2026-04-25T06:12:46.855Z</time></trkpt><trkpt lat="45.87132986815315" lon="12.014517118139842"><ele>177.42857142857142</ele><time>2026-04-25T06:12:47.855Z</time></trkpt><trkpt lat="45.87138317533926" lon="12.014466954235843"><ele>177.57142857142856</ele><time>2026-04-25T06:12:48.855Z</time></trkpt><trkpt lat="45.871431275757764" lon="12.01440737390095"><ele>177.71428571428572</ele><time>2026-04-25T06:12:49.855Z</time></trkpt><trkpt lat="45.87149003634217" lon="12.014342329875628"><ele>177.85714285714283</ele><time>2026-04-25T06:12:50.855Z</time></trkpt><trkpt lat="45.8715435239896" lon="12.014284356934393"><ele>178.0</ele><time>2026-04-25T06:12:51.855Z</time></trkpt><trkpt lat="45.87164545392528" lon="12.01416197250245"><ele>178.0</ele><time>2026-04-25T06:12:53.854Z</time></trkpt><trkpt lat="45.87169948872229" lon="12.014096606933142"><ele>178.0</ele><time>2026-04-25T06:12:54.854Z</time></trkpt><trkpt lat="45.871747668516555" lon="12.014036212374595"><ele>178.0</ele><time>2026-04-25T06:12:55.854Z</time></trkpt><trkpt lat="45.87183329790443" lon="12.013913793292932"><ele>178.0</ele><time>2026-04-25T06:12:57.856Z</time></trkpt><trkpt lat="45.87191836048287" lon="12.013783630498136"><ele>178.0</ele><time>2026-04-25T06:12:59.856Z</time></trkpt><trkpt lat="45.87197911669836" lon="12.013637677622139"><ele>178.0</ele><time>2026-04-25T06:13:01.856Z</time></trkpt><trkpt lat="45.87200911304987" lon="12.013490727045204"><ele>178.0</ele><time>2026-04-25T06:13:03.856Z</time></trkpt><trkpt lat="45.87202075196054" lon="12.0133618378558"><ele>178.0</ele><time>2026-04-25T06:13:05.856Z</time></trkpt><trkpt lat="45.87208929390667" lon="12.013234616572209"><ele>178.0</ele><time>2026-04-25T06:13:07.856Z</time></trkpt><trkpt lat="45.87213425492606" lon="12.01316508598607"><ele>178.0</ele><time>2026-04-25T06:13:08.856Z</time></trkpt><trkpt lat="45.8721814226528" lon="12.01310341391524"><ele>178.0</ele><time>2026-04-25T06:13:09.855Z</time></trkpt><trkpt lat="45.87223435061549" lon="12.013039099145214"><ele>178.14285714285714</ele><time>2026-04-25T06:13:10.855Z</time></trkpt><trkpt lat="45.872288256921415" lon="12.012975701047045"><ele>178.28571428571428</ele><time>2026-04-25T06:13:11.855Z</time></trkpt><trkpt lat="45.87234155531788" lon="12.012912551793876"><ele>178.42857142857144</ele><time>2026-04-25T06:13:12.855Z</time></trkpt><trkpt lat="45.872393417605856" lon="12.012848617561964"><ele>178.57142857142856</ele><time>2026-04-25T06:13:13.855Z</time></trkpt><trkpt lat="45.872449579984384" lon="12.012785007365157"><ele>178.71428571428572</ele><time>2026-04-25T06:13:14.855Z</time></trkpt><trkpt lat="45.8724986115779" lon="12.012720034754027"><ele>178.85714285714286</ele><time>2026-04-25T06:13:15.855Z</time></trkpt><trkpt lat="45.87254814049376" lon="12.012655772207541"><ele>179.0</ele><time>2026-04-25T06:13:16.855Z</time></trkpt><trkpt lat="45.8725975464222" lon="12.012595296362981"><ele>179.0</ele><time>2026-04-25T06:13:17.855Z</time></trkpt><trkpt lat="45.87265694416648" lon="12.012531813732467"><ele>179.0</ele><time>2026-04-25T06:13:18.855Z</time></trkpt><trkpt lat="45.87271404499241" lon="12.012472306045137"><ele>179.0</ele><time>2026-04-25T06:13:19.855Z</time></trkpt><trkpt lat="45.87276226649728" lon="12.012412990270533"><ele>179.0</ele><time>2026-04-25T06:13:20.855Z</time></trkpt><trkpt lat="45.872860362481944" lon="12.01230141251126"><ele>179.0</ele><time>2026-04-25T06:13:22.855Z</time></trkpt><trkpt lat="45.872955673382535" lon="12.012210557134015"><ele>179.0</ele><time>2026-04-25T06:13:24.855Z</time></trkpt><trkpt lat="45.87305816076072" lon="12.01214422542312"><ele>179.0</ele><time>2026-04-25T06:13:26.855Z</time></trkpt><trkpt lat="45.873116190317305" lon="12.012033730801082"><ele>179.0</ele><time>2026-04-25T06:13:28.855Z</time></trkpt><trkpt lat="45.87310000312252" lon="12.011853459487549"><ele>179.0</ele><time>2026-04-25T06:13:30.855Z</time></trkpt><trkpt lat="45.87307796918557" lon="12.011762769005747"><ele>179.0</ele><time>2026-04-25T06:13:31.855Z</time></trkpt><trkpt lat="45.87302954209169" lon="12.011596795215858"><ele>179.0</ele><time>2026-04-25T06:13:33.855Z</time></trkpt><trkpt lat="45.87297608328156" lon="12.011456735775639"><ele>178.83333333333331</ele><time>2026-04-25T06:13:35.855Z</time></trkpt><trkpt lat="45.87298782271393" lon="12.011292925938179"><ele>178.66666666666666</ele><time>2026-04-25T06:13:37.855Z</time></trkpt><trkpt lat="45.87303929006902" lon="12.011226010696838"><ele>178.5</ele><time>2026-04-25T06:13:38.854Z</time></trkpt><trkpt lat="45.873088774217564" lon="12.011164672543249"><ele>178.33333333333334</ele><time>2026-04-25T06:13:39.854Z</time></trkpt><trkpt lat="45.87314709872778" lon="12.011090705268483"><ele>178.16666666666669</ele><time>2026-04-25T06:13:40.854Z</time></trkpt><trkpt lat="45.873200065204564" lon="12.011023848932638"><ele>178.0</ele><time>2026-04-25T06:13:41.854Z</time></trkpt><trkpt lat="45.87325167776562" lon="12.010956238796883"><ele>177.99999999999997</ele><time>2026-04-25T06:13:42.854Z</time></trkpt><trkpt lat="45.87329861796508" lon="12.010884302963493"><ele>178.0</ele><time>2026-04-25T06:13:43.854Z</time></trkpt><trkpt lat="45.873352086274146" lon="12.010814668840462"><ele>178.0</ele><time>2026-04-25T06:13:44.854Z</time></trkpt><trkpt lat="45.87339663113017" lon="12.010746204018897"><ele>178.0</ele><time>2026-04-25T06:13:45.854Z</time></trkpt><trkpt lat="45.873450807436605" lon="12.010672645948459"><ele>178.0</ele><time>2026-04-25T06:13:46.854Z</time></trkpt><trkpt lat="45.87349629684887" lon="12.010601773994015"><ele>177.99999999999997</ele><time>2026-04-25T06:13:47.854Z</time></trkpt><trkpt lat="45.87354391644129" lon="12.01053614419876"><ele>178.0</ele><time>2026-04-25T06:13:48.854Z</time></trkpt><trkpt lat="45.8735924973265" lon="12.010470849360653"><ele>177.85714285714283</ele><time>2026-04-25T06:13:49.854Z</time></trkpt><trkpt lat="45.873637954710404" lon="12.010402336419594"><ele>177.71428571428572</ele><time>2026-04-25T06:13:50.854Z</time></trkpt><trkpt lat="45.87368280385297" lon="12.010336343089447"><ele>177.57142857142856</ele><time>2026-04-25T06:13:51.854Z</time></trkpt><trkpt lat="45.87372986667975" lon="12.010267686432288"><ele>177.42857142857142</ele><time>2026-04-25T06:13:52.854Z</time></trkpt><trkpt lat="45.87378153950477" lon="12.010193835508655"><ele>177.28571428571428</ele><time>2026-04-25T06:13:53.854Z</time></trkpt><trkpt lat="45.87382874244176" lon="12.010123878326533"><ele>177.14285714285714</ele><time>2026-04-25T06:13:54.854Z</time></trkpt><trkpt lat="45.8738792177151" lon="12.010054299916021"><ele>177.0</ele><time>2026-04-25T06:13:55.854Z</time></trkpt><trkpt lat="45.87392656517364" lon="12.009989617914089"><ele>177.2857142857143</ele><time>2026-04-25T06:13:56.854Z</time></trkpt><trkpt lat="45.87397666034977" lon="12.009918239210805"><ele>177.57142857142856</ele><time>2026-04-25T06:13:57.854Z</time></trkpt><trkpt lat="45.874023311676105" lon="12.009848542501892"><ele>177.85714285714286</ele><time>2026-04-25T06:13:58.854Z</time></trkpt><trkpt lat="45.874071793844905" lon="12.00978347934356"><ele>178.14285714285717</ele><time>2026-04-25T06:13:59.854Z</time></trkpt><trkpt lat="45.87411883028131" lon="12.009711923402085"><ele>178.42857142857144</ele><time>2026-04-25T06:14:00.854Z</time></trkpt><trkpt lat="45.87416296903378" lon="12.009644853861971"><ele>178.71428571428572</ele><time>2026-04-25T06:14:01.854Z</time></trkpt><trkpt lat="45.87420148575692" lon="12.009566272609876"><ele>179.0</ele><time>2026-04-25T06:14:02.854Z</time></trkpt><trkpt lat="45.874270267948035" lon="12.009414258130176"><ele>179.00000000000003</ele><time>2026-04-25T06:14:04.854Z</time></trkpt><trkpt lat="45.874305594221845" lon="12.009333225630579"><ele>179.0</ele><time>2026-04-25T06:14:05.854Z</time></trkpt><trkpt lat="45.87434882175173" lon="12.009263907705005"><ele>179.0</ele><time>2026-04-25T06:14:06.854Z</time></trkpt><trkpt lat="45.874391920907115" lon="12.009191099902422"><ele>179.0</ele><time>2026-04-25T06:14:07.853Z</time></trkpt><trkpt lat="45.8744342752453" lon="12.009119350726337"><ele>179.0</ele><time>2026-04-25T06:14:08.853Z</time></trkpt><trkpt lat="45.8744764071534" lon="12.00904441817656"><ele>179.00000000000003</ele><time>2026-04-25T06:14:09.853Z</time></trkpt><trkpt lat="45.87452121613501" lon="12.00897003311226"><ele>179.0</ele><time>2026-04-25T06:14:10.853Z</time></trkpt><trkpt lat="45.87456789529552" lon="12.008897700501446"><ele>179.0</ele><time>2026-04-25T06:14:11.853Z</time></trkpt><trkpt lat="45.874609870735604" lon="12.008823159360693"><ele>179.0</ele><time>2026-04-25T06:14:12.853Z</time></trkpt><trkpt lat="45.87465329620594" lon="12.008747286379828"><ele>179.0</ele><time>2026-04-25T06:14:13.853Z</time></trkpt><trkpt lat="45.874695899355494" lon="12.008672667984378"><ele>179.0</ele><time>2026-04-25T06:14:14.853Z</time></trkpt><trkpt lat="45.874740221800124" lon="12.00859917456841"><ele>179.0</ele><time>2026-04-25T06:14:15.853Z</time></trkpt><trkpt lat="45.874790249866834" lon="12.008528231211523"><ele>179.0</ele><time>2026-04-25T06:14:16.853Z</time></trkpt><trkpt lat="45.87487479355831" lon="12.00839162010037"><ele>179.39999999999998</ele><time>2026-04-25T06:14:18.853Z</time></trkpt><trkpt lat="45.87491936903842" lon="12.00832515458567"><ele>179.8</ele><time>2026-04-25T06:14:19.853Z</time></trkpt><trkpt lat="45.87500143332459" lon="12.008208497238234"><ele>180.2</ele><time>2026-04-25T06:14:21.853Z</time></trkpt><trkpt lat="45.87502330191781" lon="12.008073879385611"><ele>180.60000000000002</ele><time>2026-04-25T06:14:23.853Z</time></trkpt><trkpt lat="45.874935915169296" lon="12.0079543705792"><ele>181.0</ele><time>2026-04-25T06:14:25.853Z</time></trkpt><trkpt lat="45.87483219341453" lon="12.00788152981181"><ele>181.0</ele><time>2026-04-25T06:14:27.853Z</time></trkpt><trkpt lat="45.87477741021088" lon="12.007827947793274"><ele>181.0</ele><time>2026-04-25T06:14:28.853Z</time></trkpt><trkpt lat="45.87469332738203" lon="12.007707744805515"><ele>181.0</ele><time>2026-04-25T06:14:30.853Z</time></trkpt><trkpt lat="45.874616595166145" lon="12.007587801568716"><ele>181.0</ele><time>2026-04-25T06:14:32.853Z</time></trkpt><trkpt lat="45.874536459278005" lon="12.007456230299466"><ele>181.0</ele><time>2026-04-25T06:14:34.853Z</time></trkpt><trkpt lat="45.87449342608555" lon="12.007389000035007"><ele>180.83333333333334</ele><time>2026-04-25T06:14:35.853Z</time></trkpt><trkpt lat="45.87444233153205" lon="12.007327170606525"><ele>180.66666666666669</ele><time>2026-04-25T06:14:36.852Z</time></trkpt><trkpt lat="45.87439499137226" lon="12.007260638586958"><ele>180.5</ele><time>2026-04-25T06:14:37.852Z</time></trkpt><trkpt lat="45.87434776230764" lon="12.007197047549864"><ele>180.33333333333334</ele><time>2026-04-25T06:14:38.852Z</time></trkpt><trkpt lat="45.87430241225379" lon="12.007130740096404"><ele>180.16666666666666</ele><time>2026-04-25T06:14:39.852Z</time></trkpt><trkpt lat="45.874253174010484" lon="12.007073576106622"><ele>180.0</ele><time>2026-04-25T06:14:40.852Z</time></trkpt><trkpt lat="45.874150336716184" lon="12.006974017138225"><ele>180.28571428571428</ele><time>2026-04-25T06:14:42.852Z</time></trkpt><trkpt lat="45.87410131499879" lon="12.006910361309025"><ele>180.57142857142858</ele><time>2026-04-25T06:14:43.852Z</time></trkpt><trkpt lat="45.874048253063144" lon="12.0068457858866"><ele>180.85714285714286</ele><time>2026-04-25T06:14:44.852Z</time></trkpt><trkpt lat="45.87399471024166" lon="12.00677374918401"><ele>181.14285714285714</ele><time>2026-04-25T06:14:45.852Z</time></trkpt><trkpt lat="45.87394306343029" lon="12.006705195802684"><ele>181.42857142857144</ele><time>2026-04-25T06:14:46.852Z</time></trkpt><trkpt lat="45.87389203171852" lon="12.006639732619504"><ele>181.71428571428572</ele><time>2026-04-25T06:14:47.852Z</time></trkpt><trkpt lat="45.873834112553844" lon="12.006563003664963"><ele>182.0</ele><time>2026-04-25T06:14:48.852Z</time></trkpt><trkpt lat="45.87378976483593" lon="12.006483742425441"><ele>182.0</ele><time>2026-04-25T06:14:49.852Z</time></trkpt><trkpt lat="45.873749342556216" lon="12.006412305551144"><ele>182.0</ele><time>2026-04-25T06:14:50.852Z</time></trkpt><trkpt lat="45.87370325445184" lon="12.006331666288709"><ele>182.0</ele><time>2026-04-25T06:14:51.852Z</time></trkpt><trkpt lat="45.873665078383226" lon="12.006253275261377"><ele>182.0</ele><time>2026-04-25T06:14:52.852Z</time></trkpt><trkpt lat="45.87362385028473" lon="12.006180570581973"><ele>182.0</ele><time>2026-04-25T06:14:53.852Z</time></trkpt><trkpt lat="45.873544123989475" lon="12.006023279706415"><ele>182.0</ele><time>2026-04-25T06:14:55.852Z</time></trkpt><trkpt lat="45.87349516049309" lon="12.005948114660393"><ele>182.0</ele><time>2026-04-25T06:14:56.852Z</time></trkpt><trkpt lat="45.87343547953941" lon="12.005878049484794"><ele>182.0</ele><time>2026-04-25T06:14:57.852Z</time></trkpt><trkpt lat="45.873384552814585" lon="12.005806914234133"><ele>182.0</ele><time>2026-04-25T06:14:58.852Z</time></trkpt><trkpt lat="45.873337583618394" lon="12.005737271640873"><ele>182.0</ele><time>2026-04-25T06:14:59.852Z</time></trkpt><trkpt lat="45.87329177401834" lon="12.005660286224018"><ele>182.0</ele><time>2026-04-25T06:15:00.852Z</time></trkpt><trkpt lat="45.87324167326995" lon="12.005591314820125"><ele>182.0</ele><time>2026-04-25T06:15:01.852Z</time></trkpt><trkpt lat="45.87318548794145" lon="12.005530925293705"><ele>182.0</ele><time>2026-04-25T06:15:02.853Z</time></trkpt><trkpt lat="45.87313443985727" lon="12.005470987107273"><ele>182.16666666666666</ele><time>2026-04-25T06:15:03.853Z</time></trkpt><trkpt lat="45.873087580684505" lon="12.00540430015998"><ele>182.33333333333331</ele><time>2026-04-25T06:15:04.853Z</time></trkpt><trkpt lat="45.872977047174" lon="12.00532165209453"><ele>182.5</ele><time>2026-04-25T06:15:06.853Z</time></trkpt><trkpt lat="45.872885426865075" lon="12.005266625514631"><ele>182.66666666666666</ele><time>2026-04-25T06:15:08.853Z</time></trkpt><trkpt lat="45.87282163216942" lon="12.005208503872783"><ele>182.83333333333334</ele><time>2026-04-25T06:15:10.853Z</time></trkpt><trkpt lat="45.87286705657903" lon="12.005129483338425"><ele>183.0</ele><time>2026-04-25T06:15:16.853Z</time></trkpt><trkpt lat="45.87293202675942" lon="12.005053634606055"><ele>183.0</ele><time>2026-04-25T06:15:18.853Z</time></trkpt><trkpt lat="45.87297927874347" lon="12.004960888619976"><ele>183.0</ele><time>2026-04-25T06:15:20.853Z</time></trkpt><trkpt lat="45.873000665323865" lon="12.004854548759393"><ele>183.0</ele><time>2026-04-25T06:15:26.853Z</time></trkpt><trkpt lat="45.873093001240925" lon="12.00476636575299"><ele>183.0</ele><time>2026-04-25T06:15:28.853Z</time></trkpt><trkpt lat="45.873181182274415" lon="12.004665296981402"><ele>183.0</ele><time>2026-04-25T06:15:30.852Z</time></trkpt><trkpt lat="45.87327383138395" lon="12.004571392516748"><ele>183.0</ele><time>2026-04-25T06:15:32.852Z</time></trkpt><trkpt lat="45.87337356174731" lon="12.004468348647546"><ele>183.0</ele><time>2026-04-25T06:15:34.852Z</time></trkpt><trkpt lat="45.87346394829863" lon="12.004373039983316"><ele>183.0</ele><time>2026-04-25T06:15:36.852Z</time></trkpt><trkpt lat="45.87353533969039" lon="12.004280905003064"><ele>183.0</ele><time>2026-04-25T06:15:38.852Z</time></trkpt><trkpt lat="45.87353419516436" lon="12.004140084800486"><ele>183.0</ele><time>2026-04-25T06:15:40.852Z</time></trkpt><trkpt lat="45.87351238829805" lon="12.004048628815701"><ele>183.0</ele><time>2026-04-25T06:15:41.852Z</time></trkpt><trkpt lat="45.873490234645644" lon="12.003955416002698"><ele>183.0</ele><time>2026-04-25T06:15:42.852Z</time></trkpt><trkpt lat="45.873464435558155" lon="12.003853719259572"><ele>183.0</ele><time>2026-04-25T06:15:43.852Z</time></trkpt><trkpt lat="45.873440708780215" lon="12.003759821762428"><ele>183.0</ele><time>2026-04-25T06:15:44.852Z</time></trkpt><trkpt lat="45.87341389821958" lon="12.003673424956299"><ele>183.0</ele><time>2026-04-25T06:15:45.852Z</time></trkpt><trkpt lat="45.87339370516298" lon="12.003585019863031"><ele>183.0</ele><time>2026-04-25T06:15:46.852Z</time></trkpt><trkpt lat="45.87336679307364" lon="12.003490140132818"><ele>183.0</ele><time>2026-04-25T06:15:47.852Z</time></trkpt><trkpt lat="45.873338814058705" lon="12.003396066657583"><ele>181.66666666666666</ele><time>2026-04-25T06:15:48.852Z</time></trkpt><trkpt lat="45.87331867038132" lon="12.003298079200366"><ele>180.33333333333334</ele><time>2026-04-25T06:15:49.852Z</time></trkpt><trkpt lat="45.87330318924752" lon="12.00319946326691"><ele>179.0</ele><time>2026-04-25T06:15:50.852Z</time></trkpt><trkpt lat="45.873291290203206" lon="12.003104066453222"><ele>177.66666666666669</ele><time>2026-04-25T06:15:51.852Z</time></trkpt><trkpt lat="45.87327782013853" lon="12.002939592640434"><ele>176.33333333333334</ele><time>2026-04-25T06:15:53.852Z</time></trkpt><trkpt lat="45.87329332062316" lon="12.002787092090575"><ele>175.0</ele><time>2026-04-25T06:15:55.852Z</time></trkpt><trkpt lat="45.873374290794665" lon="12.002641692475166"><ele>175.0</ele><time>2026-04-25T06:15:57.852Z</time></trkpt><trkpt lat="45.873432261031866" lon="12.0026000601804"><ele>175.0</ele><time>2026-04-25T06:15:58.851Z</time></trkpt><trkpt lat="45.873503234399344" lon="12.002562862402616"><ele>175.0</ele><time>2026-04-25T06:15:59.851Z</time></trkpt><trkpt lat="45.8735638438609" lon="12.002531772460815"><ele>175.0</ele><time>2026-04-25T06:16:00.851Z</time></trkpt><trkpt lat="45.87364335419559" lon="12.002493827849543"><ele>175.0</ele><time>2026-04-25T06:16:01.851Z</time></trkpt><trkpt lat="45.87372160378671" lon="12.002449525920845"><ele>175.0</ele><time>2026-04-25T06:16:02.851Z</time></trkpt><trkpt lat="45.873796786647745" lon="12.00239073393722"><ele>173.0</ele><time>2026-04-25T06:16:03.851Z</time></trkpt><trkpt lat="45.87387702854186" lon="12.00232335638389"><ele>171.0</ele><time>2026-04-25T06:16:04.851Z</time></trkpt><trkpt lat="45.87396378459986" lon="12.002257251512798"><ele>169.0</ele><time>2026-04-25T06:16:05.851Z</time></trkpt><trkpt lat="45.87404643867067" lon="12.002184557922135"><ele>167.0</ele><time>2026-04-25T06:16:06.851Z</time></trkpt><trkpt lat="45.87412099987253" lon="12.002095421303721"><ele>165.0</ele><time>2026-04-25T06:16:07.851Z</time></trkpt><trkpt lat="45.87420502166267" lon="12.002011181146445"><ele>166.2</ele><time>2026-04-25T06:16:08.851Z</time></trkpt><trkpt lat="45.87428842201329" lon="12.001932834460476"><ele>167.4</ele><time>2026-04-25T06:16:09.851Z</time></trkpt><trkpt lat="45.87436921029418" lon="12.001855300524536"><ele>168.60000000000002</ele><time>2026-04-25T06:16:10.851Z</time></trkpt><trkpt lat="45.874454570772805" lon="12.001783535894734"><ele>169.8</ele><time>2026-04-25T06:16:11.851Z</time></trkpt><trkpt lat="45.874537057644844" lon="12.001711572053985"><ele>171.0</ele><time>2026-04-25T06:16:12.851Z</time></trkpt><trkpt lat="45.87463147246622" lon="12.001629457924434"><ele>168.4</ele><time>2026-04-25T06:16:13.851Z</time></trkpt><trkpt lat="45.87472651503229" lon="12.00153603380713"><ele>165.8</ele><time>2026-04-25T06:16:14.851Z</time></trkpt><trkpt lat="45.874817453100704" lon="12.001453585444622"><ele>163.20000000000002</ele><time>2026-04-25T06:16:15.851Z</time></trkpt><trkpt lat="45.87491289144724" lon="12.001376869243556"><ele>160.60000000000002</ele><time>2026-04-25T06:16:16.851Z</time></trkpt><trkpt lat="45.87500377765411" lon="12.00129213167601"><ele>158.0</ele><time>2026-04-25T06:16:17.851Z</time></trkpt><trkpt lat="45.8750870414519" lon="12.001181948860747"><ele>157.5</ele><time>2026-04-25T06:16:18.851Z</time></trkpt><trkpt lat="45.875189772738" lon="12.001120515443192"><ele>157.0</ele><time>2026-04-25T06:16:19.851Z</time></trkpt><trkpt lat="45.87528148195376" lon="12.001024905801877"><ele>156.5</ele><time>2026-04-25T06:16:20.851Z</time></trkpt><trkpt lat="45.87537449922948" lon="12.000910394118701"><ele>156.0</ele><time>2026-04-25T06:16:21.851Z</time></trkpt><trkpt lat="45.87547157084751" lon="12.000799919334078"><ele>156.0</ele><time>2026-04-25T06:16:22.851Z</time></trkpt><trkpt lat="45.87556469543758" lon="12.000696711422009"><ele>156.0</ele><time>2026-04-25T06:16:23.851Z</time></trkpt><trkpt lat="45.87567931149196" lon="12.000625436977366"><ele>156.0</ele><time>2026-04-25T06:16:24.851Z</time></trkpt><trkpt lat="45.87579490728482" lon="12.000545959262954"><ele>156.0</ele><time>2026-04-25T06:16:25.851Z</time></trkpt><trkpt lat="45.875913335677104" lon="12.000468338833441"><ele>158.0</ele><time>2026-04-25T06:16:26.851Z</time></trkpt><trkpt lat="45.876033590927904" lon="12.000391123667209"><ele>160.0</ele><time>2026-04-25T06:16:27.85Z</time></trkpt><trkpt lat="45.8761369024837" lon="12.00031077664056"><ele>162.0</ele><time>2026-04-25T06:16:28.85Z</time></trkpt><trkpt lat="45.87622188029082" lon="12.000231371110116"><ele>164.0</ele><time>2026-04-25T06:16:29.85Z</time></trkpt><trkpt lat="45.876304288122085" lon="12.000159753461881"><ele>166.0</ele><time>2026-04-25T06:16:30.85Z</time></trkpt><trkpt lat="45.87637757825192" lon="12.00009067555348"><ele>166.0</ele><time>2026-04-25T06:16:31.85Z</time></trkpt><trkpt lat="45.876455328875686" lon="12.000036758950635"><ele>166.0</ele><time>2026-04-25T06:16:32.85Z</time></trkpt><trkpt lat="45.8765440461742" lon="11.999984538794651"><ele>166.0</ele><time>2026-04-25T06:16:33.85Z</time></trkpt><trkpt lat="45.87662744036703" lon="11.999914332505124"><ele>166.0</ele><time>2026-04-25T06:16:34.85Z</time></trkpt><trkpt lat="45.87670414143892" lon="11.999824201804262"><ele>166.0</ele><time>2026-04-25T06:16:35.85Z</time></trkpt><trkpt lat="45.87678273672621" lon="11.999730691597554"><ele>167.33333333333334</ele><time>2026-04-25T06:16:36.85Z</time></trkpt><trkpt lat="45.876867779918804" lon="11.999653464811116"><ele>168.66666666666669</ele><time>2026-04-25T06:16:37.85Z</time></trkpt><trkpt lat="45.87694844800029" lon="11.999620929458539"><ele>170.0</ele><time>2026-04-25T06:16:38.85Z</time></trkpt><trkpt lat="45.8770117776803" lon="11.999558993660326"><ele>171.33333333333334</ele><time>2026-04-25T06:16:39.85Z</time></trkpt><trkpt lat="45.87708147083353" lon="11.999492162118688"><ele>172.66666666666666</ele><time>2026-04-25T06:16:40.85Z</time></trkpt><trkpt lat="45.87715002990735" lon="11.999433510365622"><ele>174.0</ele><time>2026-04-25T06:16:41.85Z</time></trkpt><trkpt lat="45.87721087695794" lon="11.99936656969791"><ele>174.0</ele><time>2026-04-25T06:16:42.85Z</time></trkpt><trkpt lat="45.87726269486591" lon="11.999296737968624"><ele>174.0</ele><time>2026-04-25T06:16:43.85Z</time></trkpt><trkpt lat="45.877334859815086" lon="11.99925185748952"><ele>174.0</ele><time>2026-04-25T06:16:44.85Z</time></trkpt><trkpt lat="45.87737842757053" lon="11.99916142120249"><ele>174.0</ele><time>2026-04-25T06:16:45.85Z</time></trkpt><trkpt lat="45.87742583998574" lon="11.999076455242937"><ele>174.0</ele><time>2026-04-25T06:16:46.85Z</time></trkpt><trkpt lat="45.877451302294055" lon="11.998976004868917"><ele>174.0</ele><time>2026-04-25T06:16:47.85Z</time></trkpt><trkpt lat="45.877469001231" lon="11.998885282024824"><ele>174.0</ele><time>2026-04-25T06:16:48.85Z</time></trkpt><trkpt lat="45.87748571491688" lon="11.99878349758507"><ele>171.83333333333334</ele><time>2026-04-25T06:16:49.85Z</time></trkpt><trkpt lat="45.87750956813987" lon="11.998679066880053"><ele>169.66666666666666</ele><time>2026-04-25T06:16:50.85Z</time></trkpt><trkpt lat="45.877551308356345" lon="11.99856511634085"><ele>167.5</ele><time>2026-04-25T06:16:51.85Z</time></trkpt><trkpt lat="45.87759481435871" lon="11.998481281868479"><ele>165.33333333333331</ele><time>2026-04-25T06:16:52.85Z</time></trkpt><trkpt lat="45.87767000621911" lon="11.998332460122091"><ele>163.16666666666666</ele><time>2026-04-25T06:16:54.85Z</time></trkpt><trkpt lat="45.87770408648731" lon="11.998256120763621"><ele>161.0</ele><time>2026-04-25T06:16:55.85Z</time></trkpt><trkpt lat="45.87775676243609" lon="11.998109818282895"><ele>161.0</ele><time>2026-04-25T06:16:57.849Z</time></trkpt><trkpt lat="45.877775938523776" lon="11.997953482771074"><ele>161.0</ele><time>2026-04-25T06:16:59.849Z</time></trkpt><trkpt lat="45.8778108791721" lon="11.997871281902025"><ele>161.0</ele><time>2026-04-25T06:17:00.849Z</time></trkpt><trkpt lat="45.877886668259045" lon="11.997702068501637"><ele>161.0</ele><time>2026-04-25T06:17:02.849Z</time></trkpt><trkpt lat="45.877944775363815" lon="11.99764522224271"><ele>161.0</ele><time>2026-04-25T06:17:03.849Z</time></trkpt><trkpt lat="45.877990403163146" lon="11.99758203524164"><ele>161.0</ele><time>2026-04-25T06:17:04.849Z</time></trkpt><trkpt lat="45.87803697464428" lon="11.997516870293913"><ele>161.0</ele><time>2026-04-25T06:17:05.849Z</time></trkpt><trkpt lat="45.878065246832676" lon="11.997425784229547"><ele>161.0</ele><time>2026-04-25T06:17:06.849Z</time></trkpt><trkpt lat="45.87809063195046" lon="11.997331992957301"><ele>161.0</ele><time>2026-04-25T06:17:07.849Z</time></trkpt><trkpt lat="45.8781301962764" lon="11.997174430321763"><ele>161.0</ele><time>2026-04-25T06:17:09.85Z</time></trkpt><trkpt lat="45.87816710917783" lon="11.99703899496111"><ele>161.0</ele><time>2026-04-25T06:17:11.849Z</time></trkpt><trkpt lat="45.87820253079116" lon="11.996963225414243"><ele>160.83333333333331</ele><time>2026-04-25T06:17:12.85Z</time></trkpt><trkpt lat="45.87823942558036" lon="11.9968543887676"><ele>160.66666666666666</ele><time>2026-04-25T06:17:14.85Z</time></trkpt><trkpt lat="45.87826861968318" lon="11.996755740202941"><ele>160.5</ele><time>2026-04-25T06:17:16.85Z</time></trkpt><trkpt lat="45.878270580573876" lon="11.996643363659578"><ele>160.33333333333334</ele><time>2026-04-25T06:17:19.849Z</time></trkpt><trkpt lat="45.87830785858737" lon="11.996504491903197"><ele>160.16666666666669</ele><time>2026-04-25T06:17:21.849Z</time></trkpt><trkpt lat="45.87836157565687" lon="11.996407103172523"><ele>160.0</ele><time>2026-04-25T06:17:22.849Z</time></trkpt><trkpt lat="45.87841206394743" lon="11.996296923604973"><ele>159.8</ele><time>2026-04-25T06:17:23.849Z</time></trkpt><trkpt lat="45.87846444353244" lon="11.9961832259518"><ele>159.6</ele><time>2026-04-25T06:17:24.849Z</time></trkpt><trkpt lat="45.87851031813907" lon="11.996074008251739"><ele>159.4</ele><time>2026-04-25T06:17:25.849Z</time></trkpt><trkpt lat="45.878541764704586" lon="11.995956588087092"><ele>159.2</ele><time>2026-04-25T06:17:26.849Z</time></trkpt><trkpt lat="45.878576666784916" lon="11.995832709112966"><ele>159.0</ele><time>2026-04-25T06:17:27.849Z</time></trkpt><trkpt lat="45.87861925826311" lon="11.99572579493735"><ele>158.66666666666666</ele><time>2026-04-25T06:17:28.849Z</time></trkpt><trkpt lat="45.87867897253316" lon="11.995640249369036"><ele>158.33333333333334</ele><time>2026-04-25T06:17:29.849Z</time></trkpt><trkpt lat="45.87874688520926" lon="11.995565524127734"><ele>158.0</ele><time>2026-04-25T06:17:30.849Z</time></trkpt><trkpt lat="45.87882341622622" lon="11.995511800353933"><ele>157.66666666666669</ele><time>2026-04-25T06:17:31.849Z</time></trkpt><trkpt lat="45.87890025906733" lon="11.99545900261499"><ele>157.33333333333334</ele><time>2026-04-25T06:17:32.849Z</time></trkpt><trkpt lat="45.87897519684796" lon="11.995415938261134"><ele>157.0</ele><time>2026-04-25T06:17:33.849Z</time></trkpt><trkpt lat="45.87905245261489" lon="11.995386725614997"><ele>156.99999999999997</ele><time>2026-04-25T06:17:34.849Z</time></trkpt><trkpt lat="45.87912678692536" lon="11.995359484632775"><ele>157.0</ele><time>2026-04-25T06:17:35.849Z</time></trkpt><trkpt lat="45.879200971380726" lon="11.995351377495542"><ele>157.0</ele><time>2026-04-25T06:17:36.849Z</time></trkpt><trkpt lat="45.87927669778323" lon="11.99533505858541"><ele>157.0</ele><time>2026-04-25T06:17:37.849Z</time></trkpt><trkpt lat="45.87934973103197" lon="11.995297242593507"><ele>157.0</ele><time>2026-04-25T06:17:38.849Z</time></trkpt><trkpt lat="45.87940869682062" lon="11.995235637871156"><ele>156.99999999999997</ele><time>2026-04-25T06:17:39.849Z</time></trkpt><trkpt lat="45.879457603504356" lon="11.995163174835982"><ele>157.0</ele><time>2026-04-25T06:17:40.849Z</time></trkpt><trkpt lat="45.879505920405066" lon="11.995079381324711"><ele>157.0</ele><time>2026-04-25T06:17:41.848Z</time></trkpt><trkpt lat="45.87954642073248" lon="11.99500908721733"><ele>157.0</ele><time>2026-04-25T06:17:42.848Z</time></trkpt><trkpt lat="45.87964246550597" lon="11.994955785574737"><ele>157.0</ele><time>2026-04-25T06:17:44.848Z</time></trkpt><trkpt lat="45.8797358106877" lon="11.995005661187093"><ele>157.0</ele><time>2026-04-25T06:17:46.848Z</time></trkpt><trkpt lat="45.87982129476385" lon="11.995097795932871"><ele>157.0</ele><time>2026-04-25T06:17:48.848Z</time></trkpt><trkpt lat="45.879869167556144" lon="11.995163489213343"><ele>157.0</ele><time>2026-04-25T06:17:49.848Z</time></trkpt><trkpt lat="45.87989875279341" lon="11.995248389145907"><ele>157.0</ele><time>2026-04-25T06:17:50.848Z</time></trkpt><trkpt lat="45.87991024392743" lon="11.995339488106353"><ele>157.0</ele><time>2026-04-25T06:17:51.848Z</time></trkpt><trkpt lat="45.879910977468775" lon="11.995459329316516"><ele>157.0</ele><time>2026-04-25T06:17:53.848Z</time></trkpt><trkpt lat="45.87992270277802" lon="11.995557133944805"><ele>157.0</ele><time>2026-04-25T06:17:56.848Z</time></trkpt><trkpt lat="45.87993385922644" lon="11.995675526457777"><ele>157.0</ele><time>2026-04-25T06:17:59.848Z</time></trkpt><trkpt lat="45.87989564320723" lon="11.995779942461205"><ele>157.0</ele><time>2026-04-25T06:18:01.848Z</time></trkpt><trkpt lat="45.87986731338713" lon="11.995899450648517"><ele>157.33333333333334</ele><time>2026-04-25T06:18:03.848Z</time></trkpt><trkpt lat="45.879896228406764" lon="11.996006626817628"><ele>157.66666666666669</ele><time>2026-04-25T06:18:05.848Z</time></trkpt><trkpt lat="45.87995614030874" lon="11.996060966438364"><ele>158.0</ele><time>2026-04-25T06:18:07.848Z</time></trkpt><trkpt lat="45.880018720971485" lon="11.996101017073084"><ele>158.33333333333334</ele><time>2026-04-25T06:18:09.848Z</time></trkpt><trkpt lat="45.88009547751372" lon="11.996200348735032"><ele>158.66666666666666</ele><time>2026-04-25T06:18:11.847Z</time></trkpt><trkpt lat="45.880149541109816" lon="11.996273634710091"><ele>159.0</ele><time>2026-04-25T06:18:12.847Z</time></trkpt><trkpt lat="45.88019368951712" lon="11.996340160069309"><ele>160.8</ele><time>2026-04-25T06:18:13.847Z</time></trkpt><trkpt lat="45.88029081042186" lon="11.996463807708757"><ele>162.60000000000002</ele><time>2026-04-25T06:18:15.847Z</time></trkpt><trkpt lat="45.88036862472498" lon="11.996563290845565"><ele>164.4</ele><time>2026-04-25T06:18:17.847Z</time></trkpt><trkpt lat="45.88043811923041" lon="11.996617543163556"><ele>166.20000000000002</ele><time>2026-04-25T06:18:19.847Z</time></trkpt><trkpt lat="45.88054088357456" lon="11.996591540646888"><ele>168.0</ele><time>2026-04-25T06:18:21.847Z</time></trkpt><trkpt lat="45.880621681699154" lon="11.996491024249803"><ele>168.0</ele><time>2026-04-25T06:18:23.847Z</time></trkpt><trkpt lat="45.88068548515834" lon="11.996375166491715"><ele>168.0</ele><time>2026-04-25T06:18:25.847Z</time></trkpt><trkpt lat="45.880738025533965" lon="11.996268769832346"><ele>168.0</ele><time>2026-04-25T06:18:27.847Z</time></trkpt><trkpt lat="45.88080977376792" lon="11.996147246403794"><ele>168.0</ele><time>2026-04-25T06:18:29.847Z</time></trkpt><trkpt lat="45.88085625291211" lon="11.996083832450378"><ele>168.0</ele><time>2026-04-25T06:18:30.847Z</time></trkpt><trkpt lat="45.88090395590352" lon="11.996024362543388"><ele>168.0</ele><time>2026-04-25T06:18:31.847Z</time></trkpt><trkpt lat="45.880977691203604" lon="11.99587709624063"><ele>169.83333333333334</ele><time>2026-04-25T06:18:33.847Z</time></trkpt><trkpt lat="45.881023289793" lon="11.995793308202332"><ele>171.66666666666666</ele><time>2026-04-25T06:18:34.847Z</time></trkpt><trkpt lat="45.88108583664117" lon="11.995627309481135"><ele>173.5</ele><time>2026-04-25T06:18:36.847Z</time></trkpt><trkpt lat="45.881129458916526" lon="11.99554502298448"><ele>175.33333333333331</ele><time>2026-04-25T06:18:37.847Z</time></trkpt><trkpt lat="45.88117526781506" lon="11.995459659803664"><ele>177.16666666666666</ele><time>2026-04-25T06:18:38.847Z</time></trkpt><trkpt lat="45.88120937600951" lon="11.995379401493528"><ele>179.0</ele><time>2026-04-25T06:18:39.846Z</time></trkpt><trkpt lat="45.88125500124698" lon="11.995289566906946"><ele>179.0</ele><time>2026-04-25T06:18:40.846Z</time></trkpt><trkpt lat="45.88130406109834" lon="11.995201536536934"><ele>179.0</ele><time>2026-04-25T06:18:41.846Z</time></trkpt><trkpt lat="45.88140933042798" lon="11.995081183374277"><ele>179.0</ele><time>2026-04-25T06:18:43.846Z</time></trkpt><trkpt lat="45.88146511349675" lon="11.995021529494663"><ele>179.0</ele><time>2026-04-25T06:18:44.846Z</time></trkpt><trkpt lat="45.88152970138253" lon="11.994962176631608"><ele>179.0</ele><time>2026-04-25T06:18:45.846Z</time></trkpt><trkpt lat="45.881573457500316" lon="11.994891509900715"><ele>179.0</ele><time>2026-04-25T06:18:46.846Z</time></trkpt><trkpt lat="45.88161443891415" lon="11.994817404258276"><ele>180.39999999999998</ele><time>2026-04-25T06:18:47.846Z</time></trkpt><trkpt lat="45.881715158722514" lon="11.994692717468975"><ele>181.8</ele><time>2026-04-25T06:18:49.846Z</time></trkpt><trkpt lat="45.88175938299262" lon="11.994617437077888"><ele>183.2</ele><time>2026-04-25T06:18:50.846Z</time></trkpt><trkpt lat="45.88180313845722" lon="11.994536380861218"><ele>184.60000000000002</ele><time>2026-04-25T06:18:51.846Z</time></trkpt><trkpt lat="45.88186035848127" lon="11.99437659115231"><ele>186.0</ele><time>2026-04-25T06:18:53.846Z</time></trkpt><trkpt lat="45.88193395773392" lon="11.994238253242049"><ele>186.0</ele><time>2026-04-25T06:18:55.846Z</time></trkpt><trkpt lat="45.88198122953938" lon="11.994172672181163"><ele>186.0</ele><time>2026-04-25T06:18:56.846Z</time></trkpt><trkpt lat="45.882035956038024" lon="11.994105891806354"><ele>186.0</ele><time>2026-04-25T06:18:57.846Z</time></trkpt><trkpt lat="45.88208401107498" lon="11.994025601998876"><ele>186.0</ele><time>2026-04-25T06:18:58.846Z</time></trkpt><trkpt lat="45.88212868655162" lon="11.993955309672847"><ele>186.0</ele><time>2026-04-25T06:18:59.846Z</time></trkpt><trkpt lat="45.882180591353944" lon="11.993818991478468"><ele>186.0</ele><time>2026-04-25T06:19:01.846Z</time></trkpt><trkpt lat="45.88226417942429" lon="11.993708656139155"><ele>185.83333333333334</ele><time>2026-04-25T06:19:03.846Z</time></trkpt><trkpt lat="45.88231902554747" lon="11.993647712263009"><ele>185.66666666666666</ele><time>2026-04-25T06:19:04.846Z</time></trkpt><trkpt lat="45.88240118312394" lon="11.99351560858026"><ele>185.5</ele><time>2026-04-25T06:19:06.846Z</time></trkpt><trkpt lat="45.88246662812382" lon="11.993464653222619"><ele>185.33333333333331</ele><time>2026-04-25T06:19:07.846Z</time></trkpt><trkpt lat="45.88255961487816" lon="11.993402961876102"><ele>185.16666666666666</ele><time>2026-04-25T06:19:09.845Z</time></trkpt><trkpt lat="45.88262147797739" lon="11.993355186943413"><ele>185.0</ele><time>2026-04-25T06:19:11.845Z</time></trkpt><trkpt lat="45.88266960024198" lon="11.993246231070563"><ele>185.0</ele><time>2026-04-25T06:19:14.847Z</time></trkpt><trkpt lat="45.88272218390639" lon="11.993179195507562"><ele>185.0</ele><time>2026-04-25T06:19:16.846Z</time></trkpt><trkpt lat="45.88277390669796" lon="11.99308866561397"><ele>185.0</ele><time>2026-04-25T06:19:19.846Z</time></trkpt><trkpt lat="45.882826439713774" lon="11.993018591577137"><ele>185.0</ele><time>2026-04-25T06:19:21.846Z</time></trkpt><trkpt lat="45.88288336258673" lon="11.992960025689321"><ele>185.0</ele><time>2026-04-25T06:19:23.846Z</time></trkpt><trkpt lat="45.88290732705437" lon="11.992857154636368"><ele>185.0</ele><time>2026-04-25T06:19:26.846Z</time></trkpt><trkpt lat="45.88291806792839" lon="11.992711441232727"><ele>185.0</ele><time>2026-04-25T06:19:28.846Z</time></trkpt><trkpt lat="45.88299667246188" lon="11.992563062017771"><ele>185.0</ele><time>2026-04-25T06:19:30.846Z</time></trkpt><trkpt lat="45.88302731913098" lon="11.992480265107341"><ele>185.0</ele><time>2026-04-25T06:19:31.846Z</time></trkpt><trkpt lat="45.8830629228695" lon="11.992400687741773"><ele>185.0</ele><time>2026-04-25T06:19:32.846Z</time></trkpt><trkpt lat="45.883119456160294" lon="11.992249495759635"><ele>185.0</ele><time>2026-04-25T06:19:34.846Z</time></trkpt><trkpt lat="45.88316566387825" lon="11.992103352744268"><ele>182.2</ele><time>2026-04-25T06:19:36.846Z</time></trkpt><trkpt lat="45.88322063313072" lon="11.991957260264531"><ele>179.4</ele><time>2026-04-25T06:19:38.846Z</time></trkpt><trkpt lat="45.88320213156762" lon="11.991792119151286"><ele>176.60000000000002</ele><time>2026-04-25T06:19:40.846Z</time></trkpt><trkpt lat="45.88316494220471" lon="11.99163749456411"><ele>173.8</ele><time>2026-04-25T06:19:42.846Z</time></trkpt><trkpt lat="45.88313961939465" lon="11.991540322213254"><ele>171.0</ele><time>2026-04-25T06:19:44.846Z</time></trkpt><trkpt lat="45.88304750759455" lon="11.991509645172911"><ele>169.8</ele><time>2026-04-25T06:19:46.846Z</time></trkpt><trkpt lat="45.882944261050255" lon="11.99156017340798"><ele>168.60000000000002</ele><time>2026-04-25T06:19:48.846Z</time></trkpt><trkpt lat="45.88288108910024" lon="11.991571503487881"><ele>167.4</ele><time>2026-04-25T06:19:49.846Z</time></trkpt><trkpt lat="45.882762142820624" lon="11.991588296140328"><ele>166.2</ele><time>2026-04-25T06:19:51.846Z</time></trkpt><trkpt lat="45.8826399300811" lon="11.99160154504763"><ele>165.0</ele><time>2026-04-25T06:19:53.846Z</time></trkpt><trkpt lat="45.88257688329688" lon="11.991607836754161"><ele>163.2</ele><time>2026-04-25T06:19:54.846Z</time></trkpt><trkpt lat="45.882513707931125" lon="11.99161834096004"><ele>161.4</ele><time>2026-04-25T06:19:55.846Z</time></trkpt><trkpt lat="45.88241420843123" lon="11.991660327285373"><ele>159.6</ele><time>2026-04-25T06:19:57.845Z</time></trkpt><trkpt lat="45.88230988981791" lon="11.991686418591676"><ele>157.8</ele><time>2026-04-25T06:19:59.845Z</time></trkpt><trkpt lat="45.882215663935696" lon="11.991730694211288"><ele>156.0</ele><time>2026-04-25T06:20:01.845Z</time></trkpt><trkpt lat="45.88212173113737" lon="11.991866585027674"><ele>156.0</ele><time>2026-04-25T06:20:03.845Z</time></trkpt><trkpt lat="45.882083959872276" lon="11.991959633149898"><ele>156.0</ele><time>2026-04-25T06:20:04.845Z</time></trkpt><trkpt lat="45.88202333245617" lon="11.992111543074717"><ele>156.0</ele><time>2026-04-25T06:20:06.845Z</time></trkpt><trkpt lat="45.881962780865635" lon="11.992259825655466"><ele>156.0</ele><time>2026-04-25T06:20:08.845Z</time></trkpt><trkpt lat="45.88192598984098" lon="11.992335453368586"><ele>156.0</ele><time>2026-04-25T06:20:09.845Z</time></trkpt><trkpt lat="45.88183497642478" lon="11.992434753979564"><ele>155.2</ele><time>2026-04-25T06:20:11.845Z</time></trkpt><trkpt lat="45.88174202605706" lon="11.992425186442793"><ele>154.39999999999998</ele><time>2026-04-25T06:20:13.845Z</time></trkpt><trkpt lat="45.88166298671758" lon="11.992355120341749"><ele>153.6</ele><time>2026-04-25T06:20:15.845Z</time></trkpt><trkpt lat="45.88156560721614" lon="11.992281998781634"><ele>152.79999999999998</ele><time>2026-04-25T06:20:17.845Z</time></trkpt><trkpt lat="45.8815096136327" lon="11.992233261731123"><ele>152.0</ele><time>2026-04-25T06:20:18.845Z</time></trkpt><trkpt lat="45.88140215950236" lon="11.992152165187846"><ele>152.0</ele><time>2026-04-25T06:20:20.845Z</time></trkpt><trkpt lat="45.88134354262565" lon="11.992104247375519"><ele>152.0</ele><time>2026-04-25T06:20:21.845Z</time></trkpt><trkpt lat="45.88128903130945" lon="11.992055291435353"><ele>152.0</ele><time>2026-04-25T06:20:22.845Z</time></trkpt><trkpt lat="45.88123032433266" lon="11.991998320410788"><ele>152.0</ele><time>2026-04-25T06:20:23.845Z</time></trkpt><trkpt lat="45.881178215799316" lon="11.991944837385493"><ele>152.0</ele><time>2026-04-25T06:20:24.845Z</time></trkpt><trkpt lat="45.881117234991585" lon="11.991906063523022"><ele>152.0</ele><time>2026-04-25T06:20:25.844Z</time></trkpt><trkpt lat="45.881061007215564" lon="11.991858002879617"><ele>152.0</ele><time>2026-04-25T06:20:26.844Z</time></trkpt><trkpt lat="45.88100541428641" lon="11.991807563422734"><ele>152.0</ele><time>2026-04-25T06:20:27.844Z</time></trkpt><trkpt lat="45.88094841509501" lon="11.991751815559805"><ele>152.0</ele><time>2026-04-25T06:20:28.844Z</time></trkpt><trkpt lat="45.8808920745475" lon="11.991697936847942"><ele>152.0</ele><time>2026-04-25T06:20:29.844Z</time></trkpt><trkpt lat="45.88078251203636" lon="11.991592387124374"><ele>152.0</ele><time>2026-04-25T06:20:31.844Z</time></trkpt><trkpt lat="45.88068399685499" lon="11.99150331881447"><ele>152.0</ele><time>2026-04-25T06:20:33.844Z</time></trkpt><trkpt lat="45.880608556640375" lon="11.991452458935703"><ele>151.79999999999998</ele><time>2026-04-25T06:20:35.844Z</time></trkpt><trkpt lat="45.88054160350632" lon="11.991407123997876"><ele>151.6</ele><time>2026-04-25T06:20:38.844Z</time></trkpt><trkpt lat="45.8805612580758" lon="11.991288358864152"><ele>151.39999999999998</ele><time>2026-04-25T06:20:41.844Z</time></trkpt><trkpt lat="45.88058934788677" lon="11.991159672333401"><ele>151.2</ele><time>2026-04-25T06:20:43.844Z</time></trkpt><trkpt lat="45.88061546499674" lon="11.991025699802174"><ele>151.0</ele><time>2026-04-25T06:20:45.844Z</time></trkpt><trkpt lat="45.88064995374219" lon="11.990873488675533"><ele>151.75</ele><time>2026-04-25T06:20:47.844Z</time></trkpt><trkpt lat="45.88067544432773" lon="11.990720575869789"><ele>152.5</ele><time>2026-04-25T06:20:49.844Z</time></trkpt><trkpt lat="45.880714043004545" lon="11.990573802377135"><ele>153.25</ele><time>2026-04-25T06:20:51.844Z</time></trkpt><trkpt lat="45.88074645974148" lon="11.990411542802072"><ele>154.0</ele><time>2026-04-25T06:20:53.844Z</time></trkpt><trkpt lat="45.880786283871586" lon="11.990251219020205"><ele>154.0</ele><time>2026-04-25T06:20:55.843Z</time></trkpt><trkpt lat="45.880809737808185" lon="11.990100892037626"><ele>154.0</ele><time>2026-04-25T06:20:57.843Z</time></trkpt><trkpt lat="45.880862346207955" lon="11.989974529079143"><ele>154.0</ele><time>2026-04-25T06:20:59.843Z</time></trkpt><trkpt lat="45.88096223667368" lon="11.989923601867618"><ele>154.0</ele><time>2026-04-25T06:21:01.843Z</time></trkpt><trkpt lat="45.88107187922255" lon="11.989913077454702"><ele>154.0</ele><time>2026-04-25T06:21:03.843Z</time></trkpt><trkpt lat="45.88113716934406" lon="11.989902045937475"><ele>154.6</ele><time>2026-04-25T06:21:04.843Z</time></trkpt><trkpt lat="45.88119479802137" lon="11.989864431856123"><ele>155.2</ele><time>2026-04-25T06:21:05.843Z</time></trkpt><trkpt lat="45.88124819382929" lon="11.989714927896014"><ele>155.79999999999998</ele><time>2026-04-25T06:21:07.843Z</time></trkpt><trkpt lat="45.88125549421328" lon="11.989562395563917"><ele>156.4</ele><time>2026-04-25T06:21:09.843Z</time></trkpt><trkpt lat="45.881287405626786" lon="11.98941238183955"><ele>157.0</ele><time>2026-04-25T06:21:11.843Z</time></trkpt><trkpt lat="45.88132414713393" lon="11.989334190006485"><ele>157.0</ele><time>2026-04-25T06:21:12.843Z</time></trkpt><trkpt lat="45.88140180826711" lon="11.989197408289364"><ele>157.0</ele><time>2026-04-25T06:21:14.843Z</time></trkpt><trkpt lat="45.88147630340073" lon="11.989051242253637"><ele>157.0</ele><time>2026-04-25T06:21:16.843Z</time></trkpt><trkpt lat="45.881543802843" lon="11.988901564643689"><ele>157.0</ele><time>2026-04-25T06:21:18.843Z</time></trkpt><trkpt lat="45.881580658321624" lon="11.988820606867995"><ele>157.0</ele><time>2026-04-25T06:21:19.843Z</time></trkpt><trkpt lat="45.881607940989056" lon="11.988735484062587"><ele>157.0</ele><time>2026-04-25T06:21:20.844Z</time></trkpt><trkpt lat="45.881635823833435" lon="11.98865295980827"><ele>157.0</ele><time>2026-04-25T06:21:21.843Z</time></trkpt><trkpt lat="45.8816663253232" lon="11.988480264634294"><ele>157.0</ele><time>2026-04-25T06:21:23.843Z</time></trkpt><trkpt lat="45.881700934886034" lon="11.98830552405591"><ele>157.0</ele><time>2026-04-25T06:21:25.843Z</time></trkpt><trkpt lat="45.881731120591304" lon="11.988226088727362"><ele>157.0</ele><time>2026-04-25T06:21:26.844Z</time></trkpt><trkpt lat="45.881802932526476" lon="11.98808425997022"><ele>157.0</ele><time>2026-04-25T06:21:28.843Z</time></trkpt><trkpt lat="45.88187403500459" lon="11.987955590955652"><ele>157.0</ele><time>2026-04-25T06:21:30.843Z</time></trkpt><trkpt lat="45.881940261961404" lon="11.987828551428807"><ele>157.0</ele><time>2026-04-25T06:21:32.843Z</time></trkpt><trkpt lat="45.88198646277839" lon="11.987745232870838"><ele>157.0</ele><time>2026-04-25T06:21:34.843Z</time></trkpt><trkpt lat="45.882048811015025" lon="11.987569139671615"><ele>157.0</ele><time>2026-04-25T06:21:36.842Z</time></trkpt><trkpt lat="45.88206063412788" lon="11.987469127263335"><ele>157.14285714285714</ele><time>2026-04-25T06:21:37.842Z</time></trkpt><trkpt lat="45.88205977142635" lon="11.987368967422626"><ele>157.28571428571428</ele><time>2026-04-25T06:21:38.842Z</time></trkpt><trkpt lat="45.88207307194027" lon="11.987274548268665"><ele>157.42857142857144</ele><time>2026-04-25T06:21:39.842Z</time></trkpt><trkpt lat="45.882100955509685" lon="11.987179270044361"><ele>157.57142857142856</ele><time>2026-04-25T06:21:40.842Z</time></trkpt><trkpt lat="45.88212472650212" lon="11.98707447188342"><ele>157.71428571428572</ele><time>2026-04-25T06:21:41.842Z</time></trkpt><trkpt lat="45.8821422355822" lon="11.986970273736635"><ele>157.85714285714286</ele><time>2026-04-25T06:21:42.842Z</time></trkpt><trkpt lat="45.88215578646245" lon="11.986868313697258"><ele>158.0</ele><time>2026-04-25T06:21:43.842Z</time></trkpt><trkpt lat="45.88217413202909" lon="11.986772582416368"><ele>157.85714285714286</ele><time>2026-04-25T06:21:44.842Z</time></trkpt><trkpt lat="45.88219273385531" lon="11.986674526962746"><ele>157.71428571428572</ele><time>2026-04-25T06:21:45.842Z</time></trkpt><trkpt lat="45.882207983965586" lon="11.986576816782279"><ele>157.57142857142856</ele><time>2026-04-25T06:21:46.842Z</time></trkpt><trkpt lat="45.8822230540574" lon="11.986480302099482"><ele>157.42857142857144</ele><time>2026-04-25T06:21:47.842Z</time></trkpt><trkpt lat="45.882239305914425" lon="11.986390203422424"><ele>157.28571428571428</ele><time>2026-04-25T06:21:48.842Z</time></trkpt><trkpt lat="45.88225916997325" lon="11.986299618746317"><ele>157.14285714285714</ele><time>2026-04-25T06:21:49.842Z</time></trkpt><trkpt lat="45.882273234164586" lon="11.986196140135831"><ele>157.0</ele><time>2026-04-25T06:21:50.842Z</time></trkpt><trkpt lat="45.88228475169361" lon="11.986103201328598"><ele>157.0</ele><time>2026-04-25T06:21:51.842Z</time></trkpt><trkpt lat="45.88229947468923" lon="11.986007563100694"><ele>157.0</ele><time>2026-04-25T06:21:52.842Z</time></trkpt><trkpt lat="45.882316772968736" lon="11.98591171033186"><ele>157.0</ele><time>2026-04-25T06:21:53.842Z</time></trkpt><trkpt lat="45.88233792205979" lon="11.985820193795721"><ele>157.0</ele><time>2026-04-25T06:21:54.842Z</time></trkpt><trkpt lat="45.88235545000071" lon="11.98573100824271"><ele>157.0</ele><time>2026-04-25T06:21:55.842Z</time></trkpt><trkpt lat="45.88237307851871" lon="11.985642717870197"><ele>157.0</ele><time>2026-04-25T06:21:56.842Z</time></trkpt><trkpt lat="45.882402122579286" lon="11.985467293624023"><ele>157.0</ele><time>2026-04-25T06:21:58.842Z</time></trkpt><trkpt lat="45.88243193450401" lon="11.985311093531122"><ele>157.0</ele><time>2026-04-25T06:22:00.842Z</time></trkpt><trkpt lat="45.88245288584689" lon="11.985157982553412"><ele>157.0</ele><time>2026-04-25T06:22:02.842Z</time></trkpt><trkpt lat="45.882469660547564" lon="11.98502625187054"><ele>157.0</ele><time>2026-04-25T06:22:04.842Z</time></trkpt><trkpt lat="45.88250485374458" lon="11.984920164226997"><ele>157.0</ele><time>2026-04-25T06:22:07.841Z</time></trkpt><trkpt lat="45.88259307983179" lon="11.984880780324719"><ele>157.5</ele><time>2026-04-25T06:22:10.841Z</time></trkpt><trkpt lat="45.882678709556046" lon="11.984896092809992"><ele>158.0</ele><time>2026-04-25T06:22:12.841Z</time></trkpt><trkpt lat="45.88277914708185" lon="11.984890291626973"><ele>158.5</ele><time>2026-04-25T06:22:14.841Z</time></trkpt><trkpt lat="45.88287378396075" lon="11.984893204825028"><ele>159.0</ele><time>2026-04-25T06:22:16.841Z</time></trkpt><trkpt lat="45.88294476207144" lon="11.984889512020077"><ele>159.5</ele><time>2026-04-25T06:22:18.841Z</time></trkpt><trkpt lat="45.883017132223216" lon="11.984867687949448"><ele>160.0</ele><time>2026-04-25T06:22:20.841Z</time></trkpt><trkpt lat="45.88318246346888" lon="11.984856884875748"><ele>160.0</ele><time>2026-04-25T06:22:25.841Z</time></trkpt><trkpt lat="45.883249371477795" lon="11.984829022180966"><ele>160.0</ele><time>2026-04-25T06:22:27.841Z</time></trkpt><trkpt lat="45.883437644463044" lon="11.984798253542376"><ele>160.0</ele><time>2026-04-25T06:22:31.841Z</time></trkpt><trkpt lat="45.88352092965071" lon="11.9847502287542"><ele>160.0</ele><time>2026-04-25T06:22:33.841Z</time></trkpt><trkpt lat="45.8836370579336" lon="11.984765211436324"><ele>161.2</ele><time>2026-04-25T06:22:36.84Z</time></trkpt><trkpt lat="45.88370112283552" lon="11.984808192485708"><ele>162.4</ele><time>2026-04-25T06:22:37.84Z</time></trkpt><trkpt lat="45.88386666292889" lon="11.98478073277728"><ele>163.60000000000002</ele><time>2026-04-25T06:22:40.84Z</time></trkpt><trkpt lat="45.88397123813288" lon="11.98474005109754"><ele>164.8</ele><time>2026-04-25T06:22:42.84Z</time></trkpt><trkpt lat="45.88403179096263" lon="11.98471449977468"><ele>166.0</ele><time>2026-04-25T06:22:43.839Z</time></trkpt><trkpt lat="45.88413973858224" lon="11.984678908478475"><ele>166.0</ele><time>2026-04-25T06:22:45.837Z</time></trkpt><trkpt lat="45.884249836010056" lon="11.984660867095744"><ele>166.0</ele><time>2026-04-25T06:22:47.834Z</time></trkpt><trkpt lat="45.884355817368416" lon="11.984642229240588"><ele>166.0</ele><time>2026-04-25T06:22:49.832Z</time></trkpt><trkpt lat="45.884449265290456" lon="11.984619769324253"><ele>166.0</ele><time>2026-04-25T06:22:51.83Z</time></trkpt><trkpt lat="45.884542782308664" lon="11.9845949909713"><ele>166.0</ele><time>2026-04-25T06:22:53.828Z</time></trkpt><trkpt lat="45.88462458606067" lon="11.984572033433965"><ele>167.16666666666669</ele><time>2026-04-25T06:22:55.827Z</time></trkpt><trkpt lat="45.88468680306613" lon="11.984542312909095"><ele>168.33333333333334</ele><time>2026-04-25T06:22:57.825Z</time></trkpt><trkpt lat="45.884760290078646" lon="11.984517535489944"><ele>169.5</ele><time>2026-04-25T06:23:00.824Z</time></trkpt><trkpt lat="45.88482980819371" lon="11.984492987129576"><ele>170.66666666666666</ele><time>2026-04-25T06:23:03.822Z</time></trkpt><trkpt lat="45.88491954721934" lon="11.984494857166434"><ele>171.83333333333331</ele><time>2026-04-25T06:23:07.821Z</time></trkpt><trkpt lat="45.88500065408755" lon="11.984484939630464"><ele>173.0</ele><time>2026-04-25T06:23:10.82Z</time></trkpt><trkpt lat="45.88509623837822" lon="11.984471757794893"><ele>176.0</ele><time>2026-04-25T06:23:13.819Z</time></trkpt><trkpt lat="45.88532342570727" lon="11.984462769712053"><ele>179.0</ele><time>2026-04-25T06:23:19.818Z</time></trkpt><trkpt lat="45.88539971812678" lon="11.984450308850015"><ele>182.0</ele><time>2026-04-25T06:23:21.817Z</time></trkpt><trkpt lat="45.8854811513164" lon="11.984441698772526"><ele>185.0</ele><time>2026-04-25T06:23:23.817Z</time></trkpt><trkpt lat="45.88556802722284" lon="11.984427233441934"><ele>185.0</ele><time>2026-04-25T06:23:25.817Z</time></trkpt><trkpt lat="45.885724175835406" lon="11.984422912147703"><ele>185.0</ele><time>2026-04-25T06:23:28.817Z</time></trkpt><trkpt lat="45.88581490674799" lon="11.984371052136574"><ele>185.0</ele><time>2026-04-25T06:23:30.818Z</time></trkpt><trkpt lat="45.8858854376176" lon="11.984308215166328"><ele>185.0</ele><time>2026-04-25T06:23:32.818Z</time></trkpt><trkpt lat="45.885966011778386" lon="11.984228470623842"><ele>185.0</ele><time>2026-04-25T06:23:34.817Z</time></trkpt><trkpt lat="45.88600388341873" lon="11.984124194095148"><ele>185.66666666666666</ele><time>2026-04-25T06:23:36.817Z</time></trkpt><trkpt lat="45.886007559802806" lon="11.98397072203829"><ele>186.33333333333331</ele><time>2026-04-25T06:23:38.816Z</time></trkpt><trkpt lat="45.88598328503868" lon="11.983872624582936"><ele>187.0</ele><time>2026-04-25T06:23:39.817Z</time></trkpt><trkpt lat="45.88596655284855" lon="11.983781440404327"><ele>187.66666666666666</ele><time>2026-04-25T06:23:40.817Z</time></trkpt><trkpt lat="45.88594822213896" lon="11.98367513938173"><ele>188.33333333333334</ele><time>2026-04-25T06:23:41.817Z</time></trkpt><trkpt lat="45.88592014176591" lon="11.983578667273607"><ele>189.0</ele><time>2026-04-25T06:23:42.817Z</time></trkpt><trkpt lat="45.88588091788966" lon="11.983466280111879"><ele>186.83333333333334</ele><time>2026-04-25T06:23:43.817Z</time></trkpt><trkpt lat="45.88583790454234" lon="11.983356890097854"><ele>184.66666666666666</ele><time>2026-04-25T06:23:44.816Z</time></trkpt><trkpt lat="45.88578470381958" lon="11.983271025433835"><ele>182.5</ele><time>2026-04-25T06:23:45.816Z</time></trkpt><trkpt lat="45.88573548093227" lon="11.983182090480556"><ele>180.33333333333331</ele><time>2026-04-25T06:23:46.816Z</time></trkpt><trkpt lat="45.88568180263729" lon="11.983090388790524"><ele>178.16666666666666</ele><time>2026-04-25T06:23:47.816Z</time></trkpt><trkpt lat="45.885625534969385" lon="11.982997287062354"><ele>176.0</ele><time>2026-04-25T06:23:48.816Z</time></trkpt><trkpt lat="45.88557054382937" lon="11.982910192971719"><ele>175.66666666666666</ele><time>2026-04-25T06:23:49.816Z</time></trkpt><trkpt lat="45.8855143144837" lon="11.982830502512183"><ele>175.33333333333331</ele><time>2026-04-25T06:23:50.816Z</time></trkpt><trkpt lat="45.88545887563668" lon="11.982752916937233"><ele>175.0</ele><time>2026-04-25T06:23:51.816Z</time></trkpt><trkpt lat="45.88540414347205" lon="11.982656990163367"><ele>174.66666666666666</ele><time>2026-04-25T06:23:52.816Z</time></trkpt><trkpt lat="45.885347889539176" lon="11.982560043233766"><ele>174.33333333333334</ele><time>2026-04-25T06:23:53.816Z</time></trkpt><trkpt lat="45.885297442135894" lon="11.982469190071907"><ele>174.0</ele><time>2026-04-25T06:23:54.816Z</time></trkpt><trkpt lat="45.88527077683414" lon="11.982354021351773"><ele>175.0</ele><time>2026-04-25T06:23:55.816Z</time></trkpt><trkpt lat="45.885258815857505" lon="11.982215604668108"><ele>176.0</ele><time>2026-04-25T06:23:56.816Z</time></trkpt><trkpt lat="45.88525634587445" lon="11.982079982729145"><ele>177.0</ele><time>2026-04-25T06:23:57.816Z</time></trkpt><trkpt lat="45.88526991609816" lon="11.981935947660759"><ele>178.0</ele><time>2026-04-25T06:23:58.816Z</time></trkpt><trkpt lat="45.88529651128741" lon="11.98179519033258"><ele>179.0</ele><time>2026-04-25T06:23:59.816Z</time></trkpt><trkpt lat="45.88530821515844" lon="11.981662848533542"><ele>180.39999999999998</ele><time>2026-04-25T06:24:00.816Z</time></trkpt><trkpt lat="45.88532707021053" lon="11.981534116570439"><ele>181.8</ele><time>2026-04-25T06:24:01.815Z</time></trkpt><trkpt lat="45.88533876787397" lon="11.981402105413236"><ele>183.2</ele><time>2026-04-25T06:24:02.815Z</time></trkpt><trkpt lat="45.885349960637306" lon="11.98126901819175"><ele>184.60000000000002</ele><time>2026-04-25T06:24:03.815Z</time></trkpt><trkpt lat="45.885354872812655" lon="11.981130625979729"><ele>186.0</ele><time>2026-04-25T06:24:04.815Z</time></trkpt><trkpt lat="45.88534594788419" lon="11.980992205431026"><ele>186.0</ele><time>2026-04-25T06:24:05.815Z</time></trkpt><trkpt lat="45.88532279100733" lon="11.980866395970109"><ele>186.0</ele><time>2026-04-25T06:24:06.815Z</time></trkpt><trkpt lat="45.88528175137463" lon="11.980735883163614"><ele>186.0</ele><time>2026-04-25T06:24:07.815Z</time></trkpt><trkpt lat="45.88524363429441" lon="11.980610383567507"><ele>186.0</ele><time>2026-04-25T06:24:08.815Z</time></trkpt><trkpt lat="45.885219471082365" lon="11.980481945510364"><ele>186.0</ele><time>2026-04-25T06:24:09.815Z</time></trkpt><trkpt lat="45.88520918520604" lon="11.980332741717826"><ele>185.0</ele><time>2026-04-25T06:24:10.815Z</time></trkpt><trkpt lat="45.88520970545225" lon="11.980181728992235"><ele>184.0</ele><time>2026-04-25T06:24:11.815Z</time></trkpt><trkpt lat="45.885215411364655" lon="11.980028617551701"><ele>183.0</ele><time>2026-04-25T06:24:12.815Z</time></trkpt><trkpt lat="45.88522427257562" lon="11.979874607431839"><ele>182.0</ele><time>2026-04-25T06:24:13.815Z</time></trkpt><trkpt lat="45.88523446137291" lon="11.979726151130054"><ele>181.0</ele><time>2026-04-25T06:24:14.815Z</time></trkpt><trkpt lat="45.8852491722835" lon="11.979586607280273"><ele>179.4</ele><time>2026-04-25T06:24:15.815Z</time></trkpt><trkpt lat="45.88527885273054" lon="11.979449576832726"><ele>177.8</ele><time>2026-04-25T06:24:16.815Z</time></trkpt><trkpt lat="45.88530915748027" lon="11.979312185007544"><ele>176.20000000000002</ele><time>2026-04-25T06:24:17.815Z</time></trkpt><trkpt lat="45.8853314435883" lon="11.979174473698443"><ele>174.60000000000002</ele><time>2026-04-25T06:24:18.815Z</time></trkpt><trkpt lat="45.88535679297192" lon="11.97904101269695"><ele>173.0</ele><time>2026-04-25T06:24:19.815Z</time></trkpt><trkpt lat="45.88538412429666" lon="11.978916613453565"><ele>171.83333333333331</ele><time>2026-04-25T06:24:20.815Z</time></trkpt><trkpt lat="45.885411191833555" lon="11.978792825674276"><ele>170.66666666666666</ele><time>2026-04-25T06:24:21.815Z</time></trkpt><trkpt lat="45.88543744236497" lon="11.978671047685165"><ele>169.5</ele><time>2026-04-25T06:24:22.815Z</time></trkpt><trkpt lat="45.88546686097323" lon="11.978552282504737"><ele>168.33333333333334</ele><time>2026-04-25T06:24:23.815Z</time></trkpt><trkpt lat="45.88549491050922" lon="11.978433042358457"><ele>167.16666666666669</ele><time>2026-04-25T06:24:24.814Z</time></trkpt><trkpt lat="45.88551815378576" lon="11.978317849189418"><ele>166.0</ele><time>2026-04-25T06:24:25.814Z</time></trkpt><trkpt lat="45.885540575723006" lon="11.978203830236874"><ele>165.16666666666669</ele><time>2026-04-25T06:24:26.814Z</time></trkpt><trkpt lat="45.88556357304814" lon="11.978093761844173"><ele>164.33333333333334</ele><time>2026-04-25T06:24:27.814Z</time></trkpt><trkpt lat="45.885585523034244" lon="11.977984992078456"><ele>163.5</ele><time>2026-04-25T06:24:28.814Z</time></trkpt><trkpt lat="45.88560580540299" lon="11.977886409702474"><ele>162.66666666666666</ele><time>2026-04-25T06:24:29.814Z</time></trkpt><trkpt lat="45.885629847685514" lon="11.977781718530174"><ele>161.83333333333331</ele><time>2026-04-25T06:24:30.814Z</time></trkpt><trkpt lat="45.885652672717136" lon="11.977674843137915"><ele>161.0</ele><time>2026-04-25T06:24:31.814Z</time></trkpt><trkpt lat="45.885660632104724" lon="11.977576213885154"><ele>161.0</ele><time>2026-04-25T06:24:32.814Z</time></trkpt><trkpt lat="45.885664115539726" lon="11.9774677289757"><ele>161.0</ele><time>2026-04-25T06:24:33.814Z</time></trkpt><trkpt lat="45.88563261063825" lon="11.977365439289512"><ele>161.0</ele><time>2026-04-25T06:24:34.814Z</time></trkpt><trkpt lat="45.88558009318976" lon="11.977275979627812"><ele>161.0</ele><time>2026-04-25T06:24:35.814Z</time></trkpt><trkpt lat="45.88551814906121" lon="11.977197159436638"><ele>161.0</ele><time>2026-04-25T06:24:36.814Z</time></trkpt><trkpt lat="45.885451745329625" lon="11.977051194262106"><ele>161.0</ele><time>2026-04-25T06:24:38.814Z</time></trkpt><trkpt lat="45.885449789805456" lon="11.976943709722391"><ele>161.0</ele><time>2026-04-25T06:24:39.814Z</time></trkpt><trkpt lat="45.885486883711984" lon="11.97683337288345"><ele>161.0</ele><time>2026-04-25T06:24:40.814Z</time></trkpt><trkpt lat="45.88554296318835" lon="11.97673569517323"><ele>161.0</ele><time>2026-04-25T06:24:41.814Z</time></trkpt><trkpt lat="45.88559981779751" lon="11.97666660693777"><ele>161.0</ele><time>2026-04-25T06:24:42.814Z</time></trkpt><trkpt lat="45.88566599233383" lon="11.976595751007714"><ele>161.0</ele><time>2026-04-25T06:24:43.814Z</time></trkpt><trkpt lat="45.88572010884439" lon="11.976526901254745"><ele>161.0</ele><time>2026-04-25T06:24:44.814Z</time></trkpt><trkpt lat="45.88577430823163" lon="11.976454691714489"><ele>161.14285714285714</ele><time>2026-04-25T06:24:45.814Z</time></trkpt><trkpt lat="45.88581810087048" lon="11.976385587635454"><ele>161.28571428571428</ele><time>2026-04-25T06:24:46.814Z</time></trkpt><trkpt lat="45.885864838808736" lon="11.976308687051754"><ele>161.42857142857144</ele><time>2026-04-25T06:24:47.814Z</time></trkpt><trkpt lat="45.885917613509434" lon="11.976221079543809"><ele>161.57142857142856</ele><time>2026-04-25T06:24:48.814Z</time></trkpt><trkpt lat="45.885965379449004" lon="11.976140041301266"><ele>161.71428571428572</ele><time>2026-04-25T06:24:49.813Z</time></trkpt><trkpt lat="45.88600997572584" lon="11.976063713309712"><ele>161.85714285714286</ele><time>2026-04-25T06:24:50.813Z</time></trkpt><trkpt lat="45.886050048340174" lon="11.975987207934727"><ele>162.0</ele><time>2026-04-25T06:24:51.813Z</time></trkpt><trkpt lat="45.88609715113546" lon="11.97590269809529"><ele>161.85714285714286</ele><time>2026-04-25T06:24:52.813Z</time></trkpt><trkpt lat="45.88614114261895" lon="11.975816803043589"><ele>161.71428571428572</ele><time>2026-04-25T06:24:53.813Z</time></trkpt><trkpt lat="45.886179972767" lon="11.975727612427917"><ele>161.57142857142856</ele><time>2026-04-25T06:24:54.813Z</time></trkpt><trkpt lat="45.88621964006709" lon="11.975635087404681"><ele>161.42857142857144</ele><time>2026-04-25T06:24:55.813Z</time></trkpt><trkpt lat="45.88625838365648" lon="11.975542324520458"><ele>161.28571428571428</ele><time>2026-04-25T06:24:56.813Z</time></trkpt><trkpt lat="45.88629563199355" lon="11.975452510627546"><ele>161.14285714285714</ele><time>2026-04-25T06:24:57.813Z</time></trkpt><trkpt lat="45.8863308429205" lon="11.975358707126556"><ele>161.0</ele><time>2026-04-25T06:24:58.813Z</time></trkpt><trkpt lat="45.88636587286813" lon="11.975269982983496"><ele>161.0</ele><time>2026-04-25T06:24:59.813Z</time></trkpt><trkpt lat="45.88640123590935" lon="11.975172647948243"><ele>161.0</ele><time>2026-04-25T06:25:00.813Z</time></trkpt><trkpt lat="45.88643875394091" lon="11.975075164341453"><ele>161.0</ele><time>2026-04-25T06:25:01.813Z</time></trkpt><trkpt lat="45.88647893930873" lon="11.974973221322854"><ele>161.0</ele><time>2026-04-25T06:25:02.813Z</time></trkpt><trkpt lat="45.88651511069625" lon="11.974877822999547"><ele>161.0</ele><time>2026-04-25T06:25:03.813Z</time></trkpt><trkpt lat="45.88654966934179" lon="11.974778282906355"><ele>161.0</ele><time>2026-04-25T06:25:04.813Z</time></trkpt><trkpt lat="45.88658397107874" lon="11.974687896117752"><ele>161.0</ele><time>2026-04-25T06:25:05.813Z</time></trkpt><trkpt lat="45.88662010002884" lon="11.974591762155619"><ele>161.0</ele><time>2026-04-25T06:25:06.813Z</time></trkpt><trkpt lat="45.88665537382486" lon="11.97449450112412"><ele>161.0</ele><time>2026-04-25T06:25:07.813Z</time></trkpt><trkpt lat="45.886690246746234" lon="11.97439480234542"><ele>161.0</ele><time>2026-04-25T06:25:08.813Z</time></trkpt><trkpt lat="45.88672398357225" lon="11.97429635946674"><ele>161.0</ele><time>2026-04-25T06:25:09.813Z</time></trkpt><trkpt lat="45.88675625121631" lon="11.97420005241756"><ele>161.0</ele><time>2026-04-25T06:25:10.813Z</time></trkpt><trkpt lat="45.886787173439586" lon="11.974101413529636"><ele>161.0</ele><time>2026-04-25T06:25:11.813Z</time></trkpt><trkpt lat="45.88682152366671" lon="11.974003549905191"><ele>161.0</ele><time>2026-04-25T06:25:12.813Z</time></trkpt><trkpt lat="45.886854773344524" lon="11.973905203590808"><ele>161.0</ele><time>2026-04-25T06:25:13.813Z</time></trkpt><trkpt lat="45.88688649535429" lon="11.973807114848027"><ele>161.0</ele><time>2026-04-25T06:25:14.812Z</time></trkpt><trkpt lat="45.88692020764406" lon="11.973713312718507"><ele>161.0</ele><time>2026-04-25T06:25:15.812Z</time></trkpt><trkpt lat="45.88695077156727" lon="11.973613007483479"><ele>161.0</ele><time>2026-04-25T06:25:16.812Z</time></trkpt><trkpt lat="45.88698392971418" lon="11.973515545666622"><ele>161.0</ele><time>2026-04-25T06:25:17.812Z</time></trkpt><trkpt lat="45.88701379072396" lon="11.973424359362374"><ele>161.0</ele><time>2026-04-25T06:25:18.812Z</time></trkpt><trkpt lat="45.887042417225125" lon="11.973329429908675"><ele>161.0</ele><time>2026-04-25T06:25:19.812Z</time></trkpt><trkpt lat="45.8870722143904" lon="11.973229711275058"><ele>161.0</ele><time>2026-04-25T06:25:20.812Z</time></trkpt><trkpt lat="45.887102548396975" lon="11.97314141999857"><ele>161.0</ele><time>2026-04-25T06:25:21.812Z</time></trkpt><trkpt lat="45.88713531865339" lon="11.973050146208509"><ele>161.0</ele><time>2026-04-25T06:25:22.812Z</time></trkpt><trkpt lat="45.88716661768904" lon="11.972947105770851"><ele>161.0</ele><time>2026-04-25T06:25:23.812Z</time></trkpt><trkpt lat="45.88719763683454" lon="11.972851152165125"><ele>161.28571428571428</ele><time>2026-04-25T06:25:24.812Z</time></trkpt><trkpt lat="45.887228076539074" lon="11.972751435795972"><ele>161.57142857142856</ele><time>2026-04-25T06:25:25.812Z</time></trkpt><trkpt lat="45.887263165979526" lon="11.97265356752454"><ele>161.85714285714286</ele><time>2026-04-25T06:25:26.812Z</time></trkpt><trkpt lat="45.88729803316602" lon="11.97255752007624"><ele>162.14285714285714</ele><time>2026-04-25T06:25:27.812Z</time></trkpt><trkpt lat="45.887333593253516" lon="11.972464665492511"><ele>162.42857142857142</ele><time>2026-04-25T06:25:28.812Z</time></trkpt><trkpt lat="45.8873698355352" lon="11.972379647561693"><ele>162.71428571428572</ele><time>2026-04-25T06:25:29.812Z</time></trkpt><trkpt lat="45.88740581525323" lon="11.972294067048654"><ele>163.0</ele><time>2026-04-25T06:25:30.812Z</time></trkpt><trkpt lat="45.88744672206236" lon="11.97219747845591"><ele>163.0</ele><time>2026-04-25T06:25:31.812Z</time></trkpt><trkpt lat="45.88748901614253" lon="11.972106575150056"><ele>163.0</ele><time>2026-04-25T06:25:32.813Z</time></trkpt><trkpt lat="45.88753071314398" lon="11.972012013105838"><ele>163.0</ele><time>2026-04-25T06:25:33.813Z</time></trkpt><trkpt lat="45.887573809656644" lon="11.971921346637169"><ele>163.0</ele><time>2026-04-25T06:25:34.813Z</time></trkpt><trkpt lat="45.887612326783874" lon="11.971823067923465"><ele>163.0</ele><time>2026-04-25T06:25:35.813Z</time></trkpt><trkpt lat="45.88765153682741" lon="11.97173359141095"><ele>163.0</ele><time>2026-04-25T06:25:36.813Z</time></trkpt><trkpt lat="45.88769385870203" lon="11.971635362988168"><ele>162.83333333333334</ele><time>2026-04-25T06:25:37.813Z</time></trkpt><trkpt lat="45.88773583684466" lon="11.971542845943162"><ele>162.66666666666669</ele><time>2026-04-25T06:25:38.812Z</time></trkpt><trkpt lat="45.887778831973115" lon="11.971450021094551"><ele>162.5</ele><time>2026-04-25T06:25:39.813Z</time></trkpt><trkpt lat="45.88781605838487" lon="11.971357181232184"><ele>162.33333333333334</ele><time>2026-04-25T06:25:40.813Z</time></trkpt><trkpt lat="45.88785843068265" lon="11.971263247433319"><ele>162.16666666666666</ele><time>2026-04-25T06:25:41.813Z</time></trkpt><trkpt lat="45.88790426914477" lon="11.971168916949956"><ele>162.0</ele><time>2026-04-25T06:25:42.812Z</time></trkpt><trkpt lat="45.88794866969918" lon="11.971078986365685"><ele>162.0</ele><time>2026-04-25T06:25:43.812Z</time></trkpt><trkpt lat="45.88799404987093" lon="11.97098794649578"><ele>162.0</ele><time>2026-04-25T06:25:44.812Z</time></trkpt><trkpt lat="45.888035340225976" lon="11.97089492155684"><ele>162.0</ele><time>2026-04-25T06:25:45.813Z</time></trkpt><trkpt lat="45.888073621711825" lon="11.97080478487626"><ele>162.0</ele><time>2026-04-25T06:25:46.813Z</time></trkpt><trkpt lat="45.88812276980561" lon="11.970705480624058"><ele>162.0</ele><time>2026-04-25T06:25:47.813Z</time></trkpt><trkpt lat="45.8881637326517" lon="11.970615849880982"><ele>162.0</ele><time>2026-04-25T06:25:48.813Z</time></trkpt><trkpt lat="45.88820943918287" lon="11.97052842012939"><ele>162.0</ele><time>2026-04-25T06:25:49.813Z</time></trkpt><trkpt lat="45.88824989086286" lon="11.970437115332802"><ele>162.0</ele><time>2026-04-25T06:25:50.813Z</time></trkpt><trkpt lat="45.88829649021585" lon="11.970342533501125"><ele>162.0</ele><time>2026-04-25T06:25:51.813Z</time></trkpt><trkpt lat="45.88834380169735" lon="11.970247649046307"><ele>162.0</ele><time>2026-04-25T06:25:52.812Z</time></trkpt><trkpt lat="45.88838702427676" lon="11.970156666811762"><ele>162.0</ele><time>2026-04-25T06:25:53.812Z</time></trkpt><trkpt lat="45.88843021735317" lon="11.970061500824013"><ele>162.0</ele><time>2026-04-25T06:25:54.812Z</time></trkpt><trkpt lat="45.88847292830199" lon="11.969975372236048"><ele>162.33333333333334</ele><time>2026-04-25T06:25:55.812Z</time></trkpt><trkpt lat="45.888521173419896" lon="11.969880183150254"><ele>162.66666666666666</ele><time>2026-04-25T06:25:56.812Z</time></trkpt><trkpt lat="45.88856473344448" lon="11.969791611929459"><ele>163.0</ele><time>2026-04-25T06:25:57.812Z</time></trkpt><trkpt lat="45.888610843522834" lon="11.969698215971215"><ele>163.33333333333331</ele><time>2026-04-25T06:25:58.812Z</time></trkpt><trkpt lat="45.88865463652864" lon="11.969608731635242"><ele>163.66666666666666</ele><time>2026-04-25T06:25:59.812Z</time></trkpt><trkpt lat="45.88870075460823" lon="11.969518066621342"><ele>164.0</ele><time>2026-04-25T06:26:00.812Z</time></trkpt><trkpt lat="45.88874948406268" lon="11.969427800021363"><ele>164.0</ele><time>2026-04-25T06:26:01.812Z</time></trkpt><trkpt lat="45.88879474933016" lon="11.969350221461474"><ele>164.0</ele><time>2026-04-25T06:26:02.812Z</time></trkpt><trkpt lat="45.88884580457346" lon="11.969255681686706"><ele>164.0</ele><time>2026-04-25T06:26:03.812Z</time></trkpt><trkpt lat="45.88889457432075" lon="11.969174648965033"><ele>164.0</ele><time>2026-04-25T06:26:04.812Z</time></trkpt><trkpt lat="45.88894838732748" lon="11.969083814854784"><ele>164.0</ele><time>2026-04-25T06:26:05.812Z</time></trkpt><trkpt lat="45.888994485669365" lon="11.968995989118985"><ele>164.0</ele><time>2026-04-25T06:26:06.812Z</time></trkpt><trkpt lat="45.889042543224114" lon="11.968914637236544"><ele>164.0</ele><time>2026-04-25T06:26:07.812Z</time></trkpt><trkpt lat="45.889088807209454" lon="11.968829320211638"><ele>164.0</ele><time>2026-04-25T06:26:08.812Z</time></trkpt><trkpt lat="45.889138528697764" lon="11.96874184614321"><ele>164.0</ele><time>2026-04-25T06:26:09.812Z</time></trkpt><trkpt lat="45.889179075071404" lon="11.968667224436503"><ele>164.0</ele><time>2026-04-25T06:26:10.812Z</time></trkpt><trkpt lat="45.88923114676605" lon="11.968581236512652"><ele>164.0</ele><time>2026-04-25T06:26:11.812Z</time></trkpt><trkpt lat="45.889281309369075" lon="11.968493755071629"><ele>164.0</ele><time>2026-04-25T06:26:12.812Z</time></trkpt><trkpt lat="45.889330282318575" lon="11.968406531750507"><ele>163.85714285714283</ele><time>2026-04-25T06:26:13.812Z</time></trkpt><trkpt lat="45.889372587837414" lon="11.96832336050892"><ele>163.71428571428572</ele><time>2026-04-25T06:26:14.812Z</time></trkpt><trkpt lat="45.88941240084689" lon="11.96823791791712"><ele>163.57142857142856</ele><time>2026-04-25T06:26:15.812Z</time></trkpt><trkpt lat="45.8894545600328" lon="11.968147397394961"><ele>163.42857142857142</ele><time>2026-04-25T06:26:16.812Z</time></trkpt><trkpt lat="45.889492395877504" lon="11.968051625059728"><ele>163.28571428571428</ele><time>2026-04-25T06:26:17.812Z</time></trkpt><trkpt lat="45.889522462470204" lon="11.967954155382722"><ele>163.14285714285714</ele><time>2026-04-25T06:26:18.811Z</time></trkpt><trkpt lat="45.88954516759897" lon="11.967853513301835"><ele>163.0</ele><time>2026-04-25T06:26:19.811Z</time></trkpt><trkpt lat="45.88956420200904" lon="11.967751563918663"><ele>163.0</ele><time>2026-04-25T06:26:20.811Z</time></trkpt><trkpt lat="45.88958729973152" lon="11.967640548983299"><ele>163.0</ele><time>2026-04-25T06:26:21.811Z</time></trkpt><trkpt lat="45.88961036015582" lon="11.967534001852549"><ele>163.0</ele><time>2026-04-25T06:26:22.811Z</time></trkpt><trkpt lat="45.88963533102235" lon="11.967433868227774"><ele>163.0</ele><time>2026-04-25T06:26:23.811Z</time></trkpt><trkpt lat="45.88966801820092" lon="11.967335959280708"><ele>163.0</ele><time>2026-04-25T06:26:24.811Z</time></trkpt><trkpt lat="45.8897073104723" lon="11.967242228823135"><ele>163.0</ele><time>2026-04-25T06:26:25.811Z</time></trkpt><trkpt lat="45.88974194782772" lon="11.967157368165541"><ele>162.66666666666669</ele><time>2026-04-25T06:26:26.811Z</time></trkpt><trkpt lat="45.88979618707648" lon="11.967011735013095"><ele>162.33333333333334</ele><time>2026-04-25T06:26:28.811Z</time></trkpt><trkpt lat="45.889859543737515" lon="11.966893853185026"><ele>162.0</ele><time>2026-04-25T06:26:30.811Z</time></trkpt><trkpt lat="45.89007082974424" lon="11.967045331224435"><ele>162.5</ele><time>2026-04-25T06:26:36.811Z</time></trkpt><trkpt lat="45.890166801891986" lon="11.967133684771163"><ele>163.0</ele><time>2026-04-25T06:26:38.811Z</time></trkpt><trkpt lat="45.89026825944232" lon="11.967247312555717"><ele>163.5</ele><time>2026-04-25T06:26:40.811Z</time></trkpt><trkpt lat="45.89036638138854" lon="11.967331906138469"><ele>164.0</ele><time>2026-04-25T06:26:42.811Z</time></trkpt><trkpt lat="45.890459255767546" lon="11.967417815118802"><ele>164.0</ele><time>2026-04-25T06:26:44.81Z</time></trkpt><trkpt lat="45.89055310572629" lon="11.967520194698537"><ele>164.0</ele><time>2026-04-25T06:26:46.81Z</time></trkpt><trkpt lat="45.89060368305311" lon="11.967589216871048"><ele>164.0</ele><time>2026-04-25T06:26:47.81Z</time></trkpt><trkpt lat="45.890658451637634" lon="11.96765952731267"><ele>164.0</ele><time>2026-04-25T06:26:48.81Z</time></trkpt><trkpt lat="45.89070542186107" lon="11.967720101811114"><ele>164.0</ele><time>2026-04-25T06:26:49.81Z</time></trkpt><trkpt lat="45.890750690993606" lon="11.967795309008885"><ele>164.0</ele><time>2026-04-25T06:26:50.81Z</time></trkpt><trkpt lat="45.890844770536305" lon="11.967911655540663"><ele>166.79999999999998</ele><time>2026-04-25T06:26:52.81Z</time></trkpt><trkpt lat="45.890933020734614" lon="11.968023187666867"><ele>169.6</ele><time>2026-04-25T06:26:54.81Z</time></trkpt><trkpt lat="45.891005736584745" lon="11.968137024299525"><ele>172.4</ele><time>2026-04-25T06:26:56.81Z</time></trkpt><trkpt lat="45.89105848820311" lon="11.968210178284483"><ele>175.2</ele><time>2026-04-25T06:26:58.81Z</time></trkpt><trkpt lat="45.89112267560479" lon="11.968295569445491"><ele>178.0</ele><time>2026-04-25T06:27:01.81Z</time></trkpt><trkpt lat="45.89117400412146" lon="11.968371202848108"><ele>178.99999999999997</ele><time>2026-04-25T06:27:05.81Z</time></trkpt><trkpt lat="45.8912259677797" lon="11.9684433554411"><ele>180.0</ele><time>2026-04-25T06:27:08.809Z</time></trkpt><trkpt lat="45.89126714867737" lon="11.968515330598905"><ele>181.0</ele><time>2026-04-25T06:27:11.809Z</time></trkpt><trkpt lat="45.89130143780495" lon="11.9685926686419"><ele>182.0</ele><time>2026-04-25T06:27:17.809Z</time></trkpt><trkpt lat="45.89133439399722" lon="11.968673764915795"><ele>183.0</ele><time>2026-04-25T06:27:23.809Z</time></trkpt><trkpt lat="45.891360279395585" lon="11.96879012900978"><ele>183.99999999999997</ele><time>2026-04-25T06:27:27.809Z</time></trkpt><trkpt lat="45.89138587732982" lon="11.968875153497205"><ele>185.0</ele><time>2026-04-25T06:27:31.809Z</time></trkpt><trkpt lat="45.89140607774881" lon="11.968966904709136"><ele>185.0</ele><time>2026-04-25T06:27:35.808Z</time></trkpt><trkpt lat="45.891424523461296" lon="11.969056047204445"><ele>185.0</ele><time>2026-04-25T06:27:39.809Z</time></trkpt><trkpt lat="45.89145886160208" lon="11.969146453725442"><ele>185.0</ele><time>2026-04-25T06:27:42.809Z</time></trkpt><trkpt lat="45.89146365522891" lon="11.969256062307327"><ele>185.0</ele><time>2026-04-25T06:27:47.809Z</time></trkpt><trkpt lat="45.891473372946855" lon="11.969355587466445"><ele>185.0</ele><time>2026-04-25T06:27:50.809Z</time></trkpt><trkpt lat="45.891476666219155" lon="11.969453426929231"><ele>185.0</ele><time>2026-04-25T06:27:54.809Z</time></trkpt><trkpt lat="45.89157981982921" lon="11.969479321442899"><ele>186.83333333333331</ele><time>2026-04-25T06:28:05.808Z</time></trkpt><trkpt lat="45.89164138055703" lon="11.96950610095815"><ele>188.66666666666666</ele><time>2026-04-25T06:28:07.808Z</time></trkpt><trkpt lat="45.89171433456424" lon="11.969559123225858"><ele>190.5</ele><time>2026-04-25T06:28:11.808Z</time></trkpt><trkpt lat="45.891823090467724" lon="11.969611034859918"><ele>192.33333333333331</ele><time>2026-04-25T06:28:18.808Z</time></trkpt><trkpt lat="45.89188970013442" lon="11.969635882865944"><ele>194.16666666666666</ele><time>2026-04-25T06:28:22.808Z</time></trkpt><trkpt lat="45.89195520156094" lon="11.969680728787896"><ele>196.0</ele><time>2026-04-25T06:28:27.807Z</time></trkpt><trkpt lat="45.89203878592069" lon="11.96969342468029"><ele>199.5</ele><time>2026-04-25T06:28:33.807Z</time></trkpt><trkpt lat="45.89212170189964" lon="11.969738033920084"><ele>203.0</ele><time>2026-04-25T06:28:39.807Z</time></trkpt><trkpt lat="45.89221166486673" lon="11.969784638391424"><ele>206.5</ele><time>2026-04-25T06:28:44.807Z</time></trkpt><trkpt lat="45.892322365245626" lon="11.969793128156265"><ele>210.0</ele><time>2026-04-25T06:28:52.806Z</time></trkpt><trkpt lat="45.89250032064273" lon="11.969803997197104"><ele>211.0</ele><time>2026-04-25T06:29:01.806Z</time></trkpt><trkpt lat="45.89267068265622" lon="11.969785546166714"><ele>212.0</ele><time>2026-04-25T06:29:10.806Z</time></trkpt><trkpt lat="45.8927329030166" lon="11.96976497041712"><ele>213.0</ele><time>2026-04-25T06:29:13.806Z</time></trkpt><trkpt lat="45.89281258312613" lon="11.96974888681908"><ele>214.0</ele><time>2026-04-25T06:29:16.805Z</time></trkpt><trkpt lat="45.89292642594919" lon="11.969726334686253"><ele>215.0</ele><time>2026-04-25T06:29:23.805Z</time></trkpt><trkpt lat="45.89305752365404" lon="11.969714117012975"><ele>215.00000000000003</ele><time>2026-04-25T06:29:28.805Z</time></trkpt><trkpt lat="45.893130023115674" lon="11.969698785343391"><ele>215.0</ele><time>2026-04-25T06:29:31.805Z</time></trkpt><trkpt lat="45.89319638691543" lon="11.969687431865408"><ele>215.0</ele><time>2026-04-25T06:29:33.805Z</time></trkpt><trkpt lat="45.89330670354001" lon="11.969662599231778"><ele>215.0</ele><time>2026-04-25T06:29:37.805Z</time></trkpt><trkpt lat="45.89338105794107" lon="11.96962880620831"><ele>215.00000000000003</ele><time>2026-04-25T06:29:40.805Z</time></trkpt><trkpt lat="45.89346011247463" lon="11.969606816371327"><ele>215.0</ele><time>2026-04-25T06:29:43.804Z</time></trkpt><trkpt lat="45.89354084097407" lon="11.969617371809438"><ele>215.0</ele><time>2026-04-25T06:29:46.805Z</time></trkpt><trkpt lat="45.89359853022289" lon="11.969718353790304"><ele>215.0</ele><time>2026-04-25T06:29:48.805Z</time></trkpt><trkpt lat="45.89365827762544" lon="11.969808327448211"><ele>215.0</ele><time>2026-04-25T06:29:50.805Z</time></trkpt><trkpt lat="45.893676494052215" lon="11.969949502700521"><ele>215.0</ele><time>2026-04-25T06:29:52.806Z</time></trkpt><trkpt lat="45.89370068877159" lon="11.970112483578198"><ele>215.0</ele><time>2026-04-25T06:29:54.805Z</time></trkpt><trkpt lat="45.89370342610054" lon="11.970208456585787"><ele>215.0</ele><time>2026-04-25T06:29:55.805Z</time></trkpt><trkpt lat="45.89370355783711" lon="11.970299634967406"><ele>215.0</ele><time>2026-04-25T06:29:56.805Z</time></trkpt><trkpt lat="45.8937043485962" lon="11.970396834974174"><ele>215.0</ele><time>2026-04-25T06:29:57.806Z</time></trkpt><trkpt lat="45.893705779645714" lon="11.97050224165203"><ele>215.0</ele><time>2026-04-25T06:29:58.805Z</time></trkpt><trkpt lat="45.89370489929402" lon="11.970603671917983"><ele>215.0</ele><time>2026-04-25T06:29:59.805Z</time></trkpt><trkpt lat="45.893715553107405" lon="11.97071235963319"><ele>215.0</ele><time>2026-04-25T06:30:00.805Z</time></trkpt><trkpt lat="45.893733385836356" lon="11.970814469284887"><ele>215.0</ele><time>2026-04-25T06:30:01.805Z</time></trkpt><trkpt lat="45.89372073142046" lon="11.970908240308914"><ele>214.6</ele><time>2026-04-25T06:30:02.805Z</time></trkpt><trkpt lat="45.89371600340458" lon="11.971027573200631"><ele>214.2</ele><time>2026-04-25T06:30:03.805Z</time></trkpt><trkpt lat="45.893715542423074" lon="11.971226871296238"><ele>213.8</ele><time>2026-04-25T06:30:05.805Z</time></trkpt><trkpt lat="45.893697885013935" lon="11.971327475676379"><ele>213.4</ele><time>2026-04-25T06:30:06.805Z</time></trkpt><trkpt lat="45.89369044080838" lon="11.97144467914278"><ele>213.0</ele><time>2026-04-25T06:30:07.805Z</time></trkpt><trkpt lat="45.89367139569101" lon="11.971626722699058"><ele>213.0</ele><time>2026-04-25T06:30:09.805Z</time></trkpt><trkpt lat="45.893676614798565" lon="11.971745578818576"><ele>213.0</ele><time>2026-04-25T06:30:10.805Z</time></trkpt><trkpt lat="45.893680601543494" lon="11.971865398771948"><ele>213.0</ele><time>2026-04-25T06:30:11.805Z</time></trkpt><trkpt lat="45.893683458168276" lon="11.971981090001067"><ele>213.0</ele><time>2026-04-25T06:30:12.805Z</time></trkpt><trkpt lat="45.89368171154593" lon="11.972090870690804"><ele>213.0</ele><time>2026-04-25T06:30:13.805Z</time></trkpt><trkpt lat="45.893682291173725" lon="11.972204546884763"><ele>213.0</ele><time>2026-04-25T06:30:14.805Z</time></trkpt><trkpt lat="45.89368418905563" lon="11.972313671574296"><ele>213.0</ele><time>2026-04-25T06:30:15.805Z</time></trkpt><trkpt lat="45.89368969097415" lon="11.972426474353123"><ele>213.0</ele><time>2026-04-25T06:30:16.805Z</time></trkpt><trkpt lat="45.8936897311989" lon="11.972538157915489"><ele>213.0</ele><time>2026-04-25T06:30:17.805Z</time></trkpt><trkpt lat="45.893698845084145" lon="11.972655534251704"><ele>213.0</ele><time>2026-04-25T06:30:18.805Z</time></trkpt><trkpt lat="45.893699173911926" lon="11.972768379019378"><ele>213.0</ele><time>2026-04-25T06:30:19.805Z</time></trkpt><trkpt lat="45.8937068527714" lon="11.972883611454153"><ele>213.0</ele><time>2026-04-25T06:30:20.805Z</time></trkpt><trkpt lat="45.89370550436304" lon="11.972979541048003"><ele>213.0</ele><time>2026-04-25T06:30:21.805Z</time></trkpt><trkpt lat="45.893713186104414" lon="11.973106538149494"><ele>213.0</ele><time>2026-04-25T06:30:22.805Z</time></trkpt><trkpt lat="45.89372037953724" lon="11.973213176508377"><ele>213.0</ele><time>2026-04-25T06:30:23.805Z</time></trkpt><trkpt lat="45.89373194746793" lon="11.973332349684547"><ele>213.0</ele><time>2026-04-25T06:30:24.804Z</time></trkpt><trkpt lat="45.8937394738719" lon="11.973441447617747"><ele>213.0</ele><time>2026-04-25T06:30:25.804Z</time></trkpt><trkpt lat="45.893736477946454" lon="11.973535423376116"><ele>213.0</ele><time>2026-04-25T06:30:26.804Z</time></trkpt><trkpt lat="45.89374909454617" lon="11.973658488893442"><ele>213.0</ele><time>2026-04-25T06:30:27.804Z</time></trkpt><trkpt lat="45.89375605611252" lon="11.973762611800447"><ele>213.0</ele><time>2026-04-25T06:30:28.804Z</time></trkpt><trkpt lat="45.89376582721924" lon="11.97387594399296"><ele>213.0</ele><time>2026-04-25T06:30:29.804Z</time></trkpt><trkpt lat="45.89377079748078" lon="11.973987645786913"><ele>213.0</ele><time>2026-04-25T06:30:30.804Z</time></trkpt><trkpt lat="45.89378039429633" lon="11.974109012328217"><ele>213.0</ele><time>2026-04-25T06:30:31.804Z</time></trkpt><trkpt lat="45.893785862818994" lon="11.97423002980195"><ele>213.0</ele><time>2026-04-25T06:30:32.804Z</time></trkpt><trkpt lat="45.89377916159269" lon="11.974339930190904"><ele>212.7142857142857</ele><time>2026-04-25T06:30:33.804Z</time></trkpt><trkpt lat="45.89377191569101" lon="11.974452744784625"><ele>212.42857142857142</ele><time>2026-04-25T06:30:34.804Z</time></trkpt><trkpt lat="45.89376369535196" lon="11.974565127864256"><ele>212.14285714285714</ele><time>2026-04-25T06:30:35.804Z</time></trkpt><trkpt lat="45.89374674214026" lon="11.97466695363064"><ele>211.85714285714283</ele><time>2026-04-25T06:30:36.804Z</time></trkpt><trkpt lat="45.893726222066626" lon="11.974766484636744"><ele>211.57142857142858</ele><time>2026-04-25T06:30:37.804Z</time></trkpt><trkpt lat="45.893707619980795" lon="11.974869530314706"><ele>211.28571428571428</ele><time>2026-04-25T06:30:38.804Z</time></trkpt><trkpt lat="45.89369383313376" lon="11.974970250828376"><ele>211.0</ele><time>2026-04-25T06:30:39.804Z</time></trkpt><trkpt lat="45.89368552823713" lon="11.975082458463346"><ele>210.85714285714286</ele><time>2026-04-25T06:30:40.804Z</time></trkpt><trkpt lat="45.89367398650679" lon="11.975187950530671"><ele>210.71428571428572</ele><time>2026-04-25T06:30:41.804Z</time></trkpt><trkpt lat="45.893670925612476" lon="11.97529659215698"><ele>210.57142857142856</ele><time>2026-04-25T06:30:42.804Z</time></trkpt><trkpt lat="45.893668489566465" lon="11.975403210120724"><ele>210.42857142857144</ele><time>2026-04-25T06:30:43.804Z</time></trkpt><trkpt lat="45.89366446151212" lon="11.975511456091802"><ele>210.28571428571428</ele><time>2026-04-25T06:30:44.804Z</time></trkpt><trkpt lat="45.89366184452036" lon="11.97561045850721"><ele>210.14285714285714</ele><time>2026-04-25T06:30:45.804Z</time></trkpt><trkpt lat="45.89366509174487" lon="11.975717696472948"><ele>210.0</ele><time>2026-04-25T06:30:46.804Z</time></trkpt><trkpt lat="45.89367191617067" lon="11.975824259585005"><ele>210.33333333333334</ele><time>2026-04-25T06:30:47.804Z</time></trkpt><trkpt lat="45.89367631961213" lon="11.975931726657915"><ele>210.66666666666669</ele><time>2026-04-25T06:30:48.804Z</time></trkpt><trkpt lat="45.893681833246156" lon="11.976043007435788"><ele>211.0</ele><time>2026-04-25T06:30:49.803Z</time></trkpt><trkpt lat="45.893690580143094" lon="11.976149195642472"><ele>211.33333333333334</ele><time>2026-04-25T06:30:50.803Z</time></trkpt><trkpt lat="45.89369925207979" lon="11.976259081033527"><ele>211.66666666666669</ele><time>2026-04-25T06:30:51.803Z</time></trkpt><trkpt lat="45.89370679246645" lon="11.97636600010757"><ele>212.0</ele><time>2026-04-25T06:30:52.803Z</time></trkpt><trkpt lat="45.89371203881595" lon="11.976470961138126"><ele>212.0</ele><time>2026-04-25T06:30:53.803Z</time></trkpt><trkpt lat="45.89372150775682" lon="11.976574889409768"><ele>212.0</ele><time>2026-04-25T06:30:54.803Z</time></trkpt><trkpt lat="45.89372716121966" lon="11.976677596942205"><ele>212.0</ele><time>2026-04-25T06:30:55.803Z</time></trkpt><trkpt lat="45.89373942925948" lon="11.976782103231407"><ele>212.0</ele><time>2026-04-25T06:30:56.803Z</time></trkpt><trkpt lat="45.89374602195593" lon="11.976885380546056"><ele>212.0</ele><time>2026-04-25T06:30:57.803Z</time></trkpt><trkpt lat="45.89375207895794" lon="11.976992962292787"><ele>212.0</ele><time>2026-04-25T06:30:58.803Z</time></trkpt><trkpt lat="45.89376077831427" lon="11.977093985672477"><ele>212.0</ele><time>2026-04-25T06:30:59.803Z</time></trkpt><trkpt lat="45.89377256445855" lon="11.977193762682301"><ele>211.85714285714286</ele><time>2026-04-25T06:31:00.803Z</time></trkpt><trkpt lat="45.89379470332392" lon="11.977303700995106"><ele>211.7142857142857</ele><time>2026-04-25T06:31:01.803Z</time></trkpt><trkpt lat="45.89381539840442" lon="11.977407736419732"><ele>211.57142857142856</ele><time>2026-04-25T06:31:02.803Z</time></trkpt><trkpt lat="45.89383355691339" lon="11.97750500138077"><ele>211.42857142857144</ele><time>2026-04-25T06:31:03.803Z</time></trkpt><trkpt lat="45.89385261580681" lon="11.97760731157081"><ele>211.28571428571428</ele><time>2026-04-25T06:31:04.803Z</time></trkpt><trkpt lat="45.89387853521016" lon="11.977709467909659"><ele>211.14285714285714</ele><time>2026-04-25T06:31:05.803Z</time></trkpt><trkpt lat="45.8939014675562" lon="11.97780524314741"><ele>211.0</ele><time>2026-04-25T06:31:06.803Z</time></trkpt><trkpt lat="45.89392568929125" lon="11.977904053282106"><ele>211.33333333333331</ele><time>2026-04-25T06:31:07.803Z</time></trkpt><trkpt lat="45.893946079998706" lon="11.978005924251303"><ele>211.66666666666666</ele><time>2026-04-25T06:31:08.803Z</time></trkpt><trkpt lat="45.893969561239295" lon="11.97810539329392"><ele>212.0</ele><time>2026-04-25T06:31:09.803Z</time></trkpt><trkpt lat="45.89398909175866" lon="11.978198358122576"><ele>212.33333333333331</ele><time>2026-04-25T06:31:10.803Z</time></trkpt><trkpt lat="45.89400889295088" lon="11.978288570808921"><ele>212.66666666666666</ele><time>2026-04-25T06:31:11.803Z</time></trkpt><trkpt lat="45.89403399963888" lon="11.978384017353873"><ele>213.0</ele><time>2026-04-25T06:31:12.803Z</time></trkpt><trkpt lat="45.894078111897166" lon="11.978554502552727"><ele>213.5</ele><time>2026-04-25T06:31:14.802Z</time></trkpt><trkpt lat="45.89410236761814" lon="11.978642693984927"><ele>214.0</ele><time>2026-04-25T06:31:15.802Z</time></trkpt><trkpt lat="45.89413332866976" lon="11.978724280160558"><ele>214.5</ele><time>2026-04-25T06:31:16.802Z</time></trkpt><trkpt lat="45.89416420227134" lon="11.978805008202905"><ele>215.0</ele><time>2026-04-25T06:31:17.802Z</time></trkpt><trkpt lat="45.894198473217585" lon="11.978888586700016"><ele>215.5</ele><time>2026-04-25T06:31:18.802Z</time></trkpt><trkpt lat="45.89425484872596" lon="11.979055356667702"><ele>216.0</ele><time>2026-04-25T06:31:20.802Z</time></trkpt><trkpt lat="45.89429029167576" lon="11.97913919675174"><ele>216.28571428571428</ele><time>2026-04-25T06:31:21.802Z</time></trkpt><trkpt lat="45.89432657761903" lon="11.979226535062217"><ele>216.57142857142856</ele><time>2026-04-25T06:31:22.802Z</time></trkpt><trkpt lat="45.894361200288905" lon="11.979309779044039"><ele>216.85714285714286</ele><time>2026-04-25T06:31:23.802Z</time></trkpt><trkpt lat="45.894400140124546" lon="11.979394337992174"><ele>217.14285714285714</ele><time>2026-04-25T06:31:24.802Z</time></trkpt><trkpt lat="45.89443875855765" lon="11.979478476823578"><ele>217.42857142857144</ele><time>2026-04-25T06:31:25.802Z</time></trkpt><trkpt lat="45.89447542030764" lon="11.979561036901176"><ele>217.71428571428572</ele><time>2026-04-25T06:31:26.802Z</time></trkpt><trkpt lat="45.89451879333815" lon="11.97965258650023"><ele>218.0</ele><time>2026-04-25T06:31:27.802Z</time></trkpt><trkpt lat="45.894554959862006" lon="11.97974646353603"><ele>218.00000000000003</ele><time>2026-04-25T06:31:28.802Z</time></trkpt><trkpt lat="45.89457940653269" lon="11.979851450601092"><ele>218.0</ele><time>2026-04-25T06:31:29.802Z</time></trkpt><trkpt lat="45.894586823022294" lon="11.979953851118271"><ele>218.0</ele><time>2026-04-25T06:31:30.802Z</time></trkpt><trkpt lat="45.89458138146871" lon="11.980068532127596"><ele>218.0</ele><time>2026-04-25T06:31:31.802Z</time></trkpt><trkpt lat="45.89455682324388" lon="11.980171541678244"><ele>218.00000000000003</ele><time>2026-04-25T06:31:32.802Z</time></trkpt><trkpt lat="45.89451464008876" lon="11.980257603538831"><ele>218.0</ele><time>2026-04-25T06:31:33.802Z</time></trkpt><trkpt lat="45.89447221939377" lon="11.980348042776273"><ele>217.66666666666669</ele><time>2026-04-25T06:31:34.802Z</time></trkpt><trkpt lat="45.89443521917478" lon="11.980424584625577"><ele>217.33333333333334</ele><time>2026-04-25T06:31:35.802Z</time></trkpt><trkpt lat="45.894388640792236" lon="11.980519890066047"><ele>217.0</ele><time>2026-04-25T06:31:36.802Z</time></trkpt><trkpt lat="45.894341794010984" lon="11.980618975584054"><ele>216.66666666666669</ele><time>2026-04-25T06:31:37.802Z</time></trkpt><trkpt lat="45.89430895975586" lon="11.98072463459508"><ele>216.33333333333334</ele><time>2026-04-25T06:31:38.802Z</time></trkpt><trkpt lat="45.89428184408183" lon="11.980821004670657"><ele>216.0</ele><time>2026-04-25T06:31:39.802Z</time></trkpt><trkpt lat="45.89424757418132" lon="11.980922928555323"><ele>215.5</ele><time>2026-04-25T06:31:40.801Z</time></trkpt><trkpt lat="45.89421583629586" lon="11.981027115702103"><ele>215.0</ele><time>2026-04-25T06:31:41.801Z</time></trkpt><trkpt lat="45.894189799327755" lon="11.981132705989207"><ele>214.5</ele><time>2026-04-25T06:31:42.801Z</time></trkpt><trkpt lat="45.894158304884634" lon="11.981231488589566"><ele>214.0</ele><time>2026-04-25T06:31:43.801Z</time></trkpt><trkpt lat="45.89412780404013" lon="11.981327452035325"><ele>213.5</ele><time>2026-04-25T06:31:44.801Z</time></trkpt><trkpt lat="45.89408739681096" lon="11.98143434567409"><ele>213.0</ele><time>2026-04-25T06:31:45.801Z</time></trkpt><trkpt lat="45.89404376033058" lon="11.981523630797387"><ele>212.99999999999997</ele><time>2026-04-25T06:31:46.801Z</time></trkpt><trkpt lat="45.89399460408824" lon="11.981613073718574"><ele>213.0</ele><time>2026-04-25T06:31:47.801Z</time></trkpt><trkpt lat="45.893943685011266" lon="11.981680320912446"><ele>213.0</ele><time>2026-04-25T06:31:48.801Z</time></trkpt><trkpt lat="45.893887072285324" lon="11.981741172212073"><ele>213.0</ele><time>2026-04-25T06:31:49.801Z</time></trkpt><trkpt lat="45.89382558434265" lon="11.981793226137436"><ele>213.0</ele><time>2026-04-25T06:31:50.801Z</time></trkpt><trkpt lat="45.893771316557235" lon="11.981843513052162"><ele>212.99999999999997</ele><time>2026-04-25T06:31:51.802Z</time></trkpt><trkpt lat="45.89371902043715" lon="11.981903553110358"><ele>213.0</ele><time>2026-04-25T06:31:52.802Z</time></trkpt><trkpt lat="45.893630335297594" lon="11.982024772450739"><ele>213.28571428571428</ele><time>2026-04-25T06:31:54.802Z</time></trkpt><trkpt lat="45.893584416865885" lon="11.98210204497295"><ele>213.57142857142856</ele><time>2026-04-25T06:31:55.802Z</time></trkpt><trkpt lat="45.89354456777479" lon="11.982179820287234"><ele>213.85714285714283</ele><time>2026-04-25T06:31:56.802Z</time></trkpt><trkpt lat="45.893510727932586" lon="11.98226298518313"><ele>214.14285714285714</ele><time>2026-04-25T06:31:57.802Z</time></trkpt><trkpt lat="45.89347146224825" lon="11.982342919195407"><ele>214.42857142857144</ele><time>2026-04-25T06:31:58.802Z</time></trkpt><trkpt lat="45.89343779392895" lon="11.982428668816873"><ele>214.7142857142857</ele><time>2026-04-25T06:31:59.801Z</time></trkpt><trkpt lat="45.89340689059871" lon="11.982513579015277"><ele>215.0</ele><time>2026-04-25T06:32:00.801Z</time></trkpt><trkpt lat="45.893376048792696" lon="11.982602072731106"><ele>215.0</ele><time>2026-04-25T06:32:01.801Z</time></trkpt><trkpt lat="45.89334389340405" lon="11.982686490223976"><ele>215.0</ele><time>2026-04-25T06:32:02.801Z</time></trkpt><trkpt lat="45.8933035929092" lon="11.982766788021717"><ele>215.0</ele><time>2026-04-25T06:32:03.801Z</time></trkpt><trkpt lat="45.89326507775986" lon="11.982849097112188"><ele>215.0</ele><time>2026-04-25T06:32:04.801Z</time></trkpt><trkpt lat="45.89322965503395" lon="11.982940660007838"><ele>215.0</ele><time>2026-04-25T06:32:05.801Z</time></trkpt><trkpt lat="45.89319027397483" lon="11.983028395838794"><ele>215.0</ele><time>2026-04-25T06:32:06.801Z</time></trkpt><trkpt lat="45.89315853727678" lon="11.983119926994949"><ele>215.0</ele><time>2026-04-25T06:32:07.801Z</time></trkpt><trkpt lat="45.893103552941625" lon="11.983258513308986"><ele>215.2</ele><time>2026-04-25T06:32:09.801Z</time></trkpt><trkpt lat="45.89305847461314" lon="11.98335827757587"><ele>215.4</ele><time>2026-04-25T06:32:12.801Z</time></trkpt><trkpt lat="45.893001613115935" lon="11.983463344168017"><ele>215.60000000000002</ele><time>2026-04-25T06:32:14.801Z</time></trkpt><trkpt lat="45.89294330765964" lon="11.98359142629905"><ele>215.8</ele><time>2026-04-25T06:32:16.801Z</time></trkpt><trkpt lat="45.89290159330606" lon="11.98373662542258"><ele>216.0</ele><time>2026-04-25T06:32:18.801Z</time></trkpt><trkpt lat="45.89286042398048" lon="11.983895403811829"><ele>216.0</ele><time>2026-04-25T06:32:20.8Z</time></trkpt><trkpt lat="45.8928158483593" lon="11.984050031862619"><ele>216.0</ele><time>2026-04-25T06:32:22.8Z</time></trkpt><trkpt lat="45.89278159274353" lon="11.98420577187457"><ele>216.0</ele><time>2026-04-25T06:32:24.8Z</time></trkpt><trkpt lat="45.89273518639159" lon="11.984367976119321"><ele>216.0</ele><time>2026-04-25T06:32:26.8Z</time></trkpt><trkpt lat="45.892715731152954" lon="11.984541669972751"><ele>216.0</ele><time>2026-04-25T06:32:28.8Z</time></trkpt><trkpt lat="45.892705093722654" lon="11.984717346322668"><ele>216.00000000000003</ele><time>2026-04-25T06:32:30.8Z</time></trkpt><trkpt lat="45.892711327369405" lon="11.98489228022396"><ele>216.00000000000003</ele><time>2026-04-25T06:32:32.8Z</time></trkpt><trkpt lat="45.89269349765603" lon="11.985078047015309"><ele>216.0</ele><time>2026-04-25T06:32:34.8Z</time></trkpt><trkpt lat="45.89266621108389" lon="11.985166236963842"><ele>216.0</ele><time>2026-04-25T06:32:35.8Z</time></trkpt><trkpt lat="45.89264370235963" lon="11.985253417965636"><ele>216.14285714285714</ele><time>2026-04-25T06:32:36.8Z</time></trkpt><trkpt lat="45.89263570972585" lon="11.98535922691403"><ele>216.28571428571428</ele><time>2026-04-25T06:32:37.8Z</time></trkpt><trkpt lat="45.89262371073673" lon="11.985459996134585"><ele>216.42857142857144</ele><time>2026-04-25T06:32:38.8Z</time></trkpt><trkpt lat="45.89260802128753" lon="11.985567565165919"><ele>216.57142857142856</ele><time>2026-04-25T06:32:39.8Z</time></trkpt><trkpt lat="45.89260131377838" lon="11.985675203392642"><ele>216.71428571428572</ele><time>2026-04-25T06:32:40.8Z</time></trkpt><trkpt lat="45.892590840656645" lon="11.985772424618096"><ele>216.85714285714286</ele><time>2026-04-25T06:32:41.8Z</time></trkpt><trkpt lat="45.892587565210974" lon="11.98587536193958"><ele>217.0</ele><time>2026-04-25T06:32:42.8Z</time></trkpt><trkpt lat="45.89258581322043" lon="11.985969158688027"><ele>216.28571428571428</ele><time>2026-04-25T06:32:43.8Z</time></trkpt><trkpt lat="45.89257984168814" lon="11.986065065554754"><ele>215.57142857142856</ele><time>2026-04-25T06:32:44.799Z</time></trkpt><trkpt lat="45.89257896480659" lon="11.986169199983301"><ele>214.85714285714286</ele><time>2026-04-25T06:32:45.799Z</time></trkpt><trkpt lat="45.89256525772571" lon="11.98626541036221"><ele>214.14285714285714</ele><time>2026-04-25T06:32:46.799Z</time></trkpt><trkpt lat="45.89255104096724" lon="11.986366364634897"><ele>213.42857142857142</ele><time>2026-04-25T06:32:47.799Z</time></trkpt><trkpt lat="45.89251755959764" lon="11.986458113639506"><ele>212.71428571428572</ele><time>2026-04-25T06:32:48.799Z</time></trkpt><trkpt lat="45.89249065383604" lon="11.986548188986704"><ele>212.0</ele><time>2026-04-25T06:32:49.799Z</time></trkpt><trkpt lat="45.89244782252057" lon="11.986653709725356"><ele>211.66666666666669</ele><time>2026-04-25T06:32:50.799Z</time></trkpt><trkpt lat="45.89240754892967" lon="11.986750231735531"><ele>211.33333333333334</ele><time>2026-04-25T06:32:51.799Z</time></trkpt><trkpt lat="45.89237631491407" lon="11.986853838092443"><ele>211.0</ele><time>2026-04-25T06:32:52.799Z</time></trkpt><trkpt lat="45.89234434195426" lon="11.986956868955225"><ele>210.66666666666669</ele><time>2026-04-25T06:32:53.799Z</time></trkpt><trkpt lat="45.892311281138106" lon="11.987057194930845"><ele>210.33333333333334</ele><time>2026-04-25T06:32:54.799Z</time></trkpt><trkpt lat="45.8922757656886" lon="11.987157819293099"><ele>210.0</ele><time>2026-04-25T06:32:55.799Z</time></trkpt><trkpt lat="45.89223582116167" lon="11.987248764643018"><ele>210.0</ele><time>2026-04-25T06:32:56.799Z</time></trkpt><trkpt lat="45.8921997917604" lon="11.9873496419307"><ele>210.0</ele><time>2026-04-25T06:32:57.799Z</time></trkpt><trkpt lat="45.892168964963254" lon="11.98744829785545"><ele>210.0</ele><time>2026-04-25T06:32:58.799Z</time></trkpt><trkpt lat="45.89213860832578" lon="11.987544403487156"><ele>210.0</ele><time>2026-04-25T06:32:59.799Z</time></trkpt><trkpt lat="45.89210521183418" lon="11.987635409487485"><ele>210.0</ele><time>2026-04-25T06:33:00.799Z</time></trkpt><trkpt lat="45.89208082274979" lon="11.987731581436979"><ele>210.0</ele><time>2026-04-25T06:33:01.799Z</time></trkpt><trkpt lat="45.89205765842841" lon="11.987820766623043"><ele>210.0</ele><time>2026-04-25T06:33:02.799Z</time></trkpt><trkpt lat="45.89200334588876" lon="11.987982976911976"><ele>210.5</ele><time>2026-04-25T06:33:04.799Z</time></trkpt><trkpt lat="45.89197458999004" lon="11.98807529073375"><ele>211.0</ele><time>2026-04-25T06:33:05.799Z</time></trkpt><trkpt lat="45.89193615464087" lon="11.988160820134155"><ele>211.5</ele><time>2026-04-25T06:33:06.799Z</time></trkpt><trkpt lat="45.89187977894974" lon="11.988246223564788"><ele>212.0</ele><time>2026-04-25T06:33:07.799Z</time></trkpt><trkpt lat="45.891810662108384" lon="11.988321861283747"><ele>212.5</ele><time>2026-04-25T06:33:08.799Z</time></trkpt><trkpt lat="45.89174058164099" lon="11.98839292362177"><ele>213.0</ele><time>2026-04-25T06:33:09.798Z</time></trkpt><trkpt lat="45.89167562810862" lon="11.988458130505075"><ele>213.0</ele><time>2026-04-25T06:33:10.798Z</time></trkpt><trkpt lat="45.89161359308375" lon="11.988524142441118"><ele>213.0</ele><time>2026-04-25T06:33:11.798Z</time></trkpt><trkpt lat="45.8915554302384" lon="11.988585987803079"><ele>213.0</ele><time>2026-04-25T06:33:12.798Z</time></trkpt><trkpt lat="45.89148439323145" lon="11.988660656250897"><ele>213.0</ele><time>2026-04-25T06:33:13.798Z</time></trkpt><trkpt lat="45.89142508195502" lon="11.988719880020934"><ele>213.0</ele><time>2026-04-25T06:33:14.798Z</time></trkpt><trkpt lat="45.89136794907666" lon="11.98879875675325"><ele>213.0</ele><time>2026-04-25T06:33:15.798Z</time></trkpt><trkpt lat="45.89131993317062" lon="11.98886868701063"><ele>213.0</ele><time>2026-04-25T06:33:16.798Z</time></trkpt><trkpt lat="45.89127743631896" lon="11.98894062970513"><ele>213.0</ele><time>2026-04-25T06:33:17.798Z</time></trkpt><trkpt lat="45.89124560084462" lon="11.989019452997253"><ele>213.0</ele><time>2026-04-25T06:33:18.798Z</time></trkpt><trkpt lat="45.89118871985794" lon="11.989176974025222"><ele>213.0</ele><time>2026-04-25T06:33:20.798Z</time></trkpt><trkpt lat="45.891104017570925" lon="11.989278696803467"><ele>213.0</ele><time>2026-04-25T06:33:22.798Z</time></trkpt><trkpt lat="45.89104151742537" lon="11.989317003036236"><ele>213.0</ele><time>2026-04-25T06:33:23.798Z</time></trkpt><trkpt lat="45.89097023233891" lon="11.989367955994318"><ele>211.66666666666666</ele><time>2026-04-25T06:33:24.798Z</time></trkpt><trkpt lat="45.890899487536025" lon="11.989409225724632"><ele>210.33333333333331</ele><time>2026-04-25T06:33:25.798Z</time></trkpt><trkpt lat="45.890830738278034" lon="11.98945977213778"><ele>209.0</ele><time>2026-04-25T06:33:26.798Z</time></trkpt><trkpt lat="45.890767025044774" lon="11.989521021125398"><ele>207.66666666666666</ele><time>2026-04-25T06:33:27.798Z</time></trkpt><trkpt lat="45.890700898969754" lon="11.989581293296066"><ele>206.33333333333331</ele><time>2026-04-25T06:33:28.798Z</time></trkpt><trkpt lat="45.8906320235268" lon="11.989644168911475"><ele>205.0</ele><time>2026-04-25T06:33:29.798Z</time></trkpt><trkpt lat="45.890569434109366" lon="11.98970914862617"><ele>204.99999999999997</ele><time>2026-04-25T06:33:30.798Z</time></trkpt><trkpt lat="45.89050633401969" lon="11.989774563028691"><ele>205.0</ele><time>2026-04-25T06:33:31.798Z</time></trkpt><trkpt lat="45.89044375763317" lon="11.989838848687421"><ele>205.0</ele><time>2026-04-25T06:33:32.798Z</time></trkpt><trkpt lat="45.890380177086584" lon="11.989904781501876"><ele>205.0</ele><time>2026-04-25T06:33:33.798Z</time></trkpt><trkpt lat="45.89031802633796" lon="11.989973807621478"><ele>204.99999999999997</ele><time>2026-04-25T06:33:34.797Z</time></trkpt><trkpt lat="45.89025261498955" lon="11.990041327613117"><ele>205.0</ele><time>2026-04-25T06:33:35.797Z</time></trkpt><trkpt lat="45.890190671579184" lon="11.99009983308981"><ele>205.83333333333331</ele><time>2026-04-25T06:33:36.797Z</time></trkpt><trkpt lat="45.8901322224359" lon="11.99017325959097"><ele>206.66666666666666</ele><time>2026-04-25T06:33:37.797Z</time></trkpt><trkpt lat="45.89007609375949" lon="11.990247702360843"><ele>207.5</ele><time>2026-04-25T06:33:38.797Z</time></trkpt><trkpt lat="45.89002027242368" lon="11.990327418037637"><ele>208.33333333333331</ele><time>2026-04-25T06:33:39.797Z</time></trkpt><trkpt lat="45.88995714393279" lon="11.990401467853037"><ele>209.16666666666666</ele><time>2026-04-25T06:33:40.797Z</time></trkpt><trkpt lat="45.889899230864074" lon="11.990474881201953"><ele>210.0</ele><time>2026-04-25T06:33:41.797Z</time></trkpt><trkpt lat="45.88984414692707" lon="11.990546938450455"><ele>208.33333333333334</ele><time>2026-04-25T06:33:42.797Z</time></trkpt><trkpt lat="45.889787998131794" lon="11.990618653391412"><ele>206.66666666666669</ele><time>2026-04-25T06:33:43.797Z</time></trkpt><trkpt lat="45.88972816016195" lon="11.990687708428473"><ele>205.0</ele><time>2026-04-25T06:33:44.797Z</time></trkpt><trkpt lat="45.88966571184712" lon="11.990759130866705"><ele>203.33333333333334</ele><time>2026-04-25T06:33:45.797Z</time></trkpt><trkpt lat="45.88960578338514" lon="11.99082755406353"><ele>201.66666666666669</ele><time>2026-04-25T06:33:46.797Z</time></trkpt><trkpt lat="45.88954451243499" lon="11.990892757304627"><ele>200.0</ele><time>2026-04-25T06:33:47.797Z</time></trkpt><trkpt lat="45.889480919892364" lon="11.990968871248077"><ele>200.00000000000003</ele><time>2026-04-25T06:33:48.797Z</time></trkpt><trkpt lat="45.88942260945804" lon="11.99104931716862"><ele>200.0</ele><time>2026-04-25T06:33:49.797Z</time></trkpt><trkpt lat="45.889366486749765" lon="11.991128274896656"><ele>200.0</ele><time>2026-04-25T06:33:50.797Z</time></trkpt><trkpt lat="45.88931048743499" lon="11.991204379563671"><ele>200.0</ele><time>2026-04-25T06:33:51.797Z</time></trkpt><trkpt lat="45.889255204252585" lon="11.991278075168603"><ele>200.00000000000003</ele><time>2026-04-25T06:33:52.797Z</time></trkpt><trkpt lat="45.889209187128984" lon="11.991348682970534"><ele>200.0</ele><time>2026-04-25T06:33:53.797Z</time></trkpt><trkpt lat="45.889153748741606" lon="11.991424973298887"><ele>199.50000000000003</ele><time>2026-04-25T06:33:54.797Z</time></trkpt><trkpt lat="45.88910140577903" lon="11.991493730447575"><ele>199.0</ele><time>2026-04-25T06:33:55.797Z</time></trkpt><trkpt lat="45.88904296002127" lon="11.991565698457746"><ele>198.5</ele><time>2026-04-25T06:33:56.798Z</time></trkpt><trkpt lat="45.88898285668476" lon="11.99164896713149"><ele>198.0</ele><time>2026-04-25T06:33:57.798Z</time></trkpt><trkpt lat="45.8889307486736" lon="11.991728209435335"><ele>197.50000000000003</ele><time>2026-04-25T06:33:58.798Z</time></trkpt><trkpt lat="45.888877578235814" lon="11.991814417428673"><ele>197.0</ele><time>2026-04-25T06:33:59.798Z</time></trkpt><trkpt lat="45.88882803556601" lon="11.991896772173671"><ele>197.00000000000003</ele><time>2026-04-25T06:34:00.798Z</time></trkpt><trkpt lat="45.888777409784" lon="11.991985692998535"><ele>197.0</ele><time>2026-04-25T06:34:01.798Z</time></trkpt><trkpt lat="45.88874054416585" lon="11.992077375370695"><ele>197.0</ele><time>2026-04-25T06:34:02.798Z</time></trkpt><trkpt lat="45.88870384111186" lon="11.992166791080308"><ele>197.0</ele><time>2026-04-25T06:34:03.798Z</time></trkpt><trkpt lat="45.88866423744803" lon="11.992262464164138"><ele>197.00000000000003</ele><time>2026-04-25T06:34:04.798Z</time></trkpt><trkpt lat="45.88862122529326" lon="11.992350975157192"><ele>197.0</ele><time>2026-04-25T06:34:05.798Z</time></trkpt><trkpt lat="45.88857332430561" lon="11.992438587304877"><ele>197.0</ele><time>2026-04-25T06:34:06.797Z</time></trkpt><trkpt lat="45.88853161755601" lon="11.992524674986928"><ele>197.0</ele><time>2026-04-25T06:34:07.797Z</time></trkpt><trkpt lat="45.8884934502701" lon="11.992617904758324"><ele>197.0</ele><time>2026-04-25T06:34:08.798Z</time></trkpt><trkpt lat="45.888458066869205" lon="11.992709523988239"><ele>197.0</ele><time>2026-04-25T06:34:09.798Z</time></trkpt><trkpt lat="45.88842252139638" lon="11.992810320449621"><ele>197.0</ele><time>2026-04-25T06:34:10.798Z</time></trkpt><trkpt lat="45.88839311693737" lon="11.992904551014144"><ele>197.0</ele><time>2026-04-25T06:34:11.798Z</time></trkpt><trkpt lat="45.888355108890764" lon="11.992997925135214"><ele>197.0</ele><time>2026-04-25T06:34:12.798Z</time></trkpt><trkpt lat="45.888318468438314" lon="11.993081517850403"><ele>196.66666666666669</ele><time>2026-04-25T06:34:13.798Z</time></trkpt><trkpt lat="45.88828293140456" lon="11.993172204845717"><ele>196.33333333333334</ele><time>2026-04-25T06:34:14.798Z</time></trkpt><trkpt lat="45.888217442964944" lon="11.993337703157101"><ele>196.0</ele><time>2026-04-25T06:34:16.798Z</time></trkpt><trkpt lat="45.8881790645598" lon="11.993416543607568"><ele>195.66666666666669</ele><time>2026-04-25T06:34:17.798Z</time></trkpt><trkpt lat="45.888134369557015" lon="11.993499810983451"><ele>195.33333333333334</ele><time>2026-04-25T06:34:18.798Z</time></trkpt><trkpt lat="45.88809233566352" lon="11.993581620336897"><ele>195.0</ele><time>2026-04-25T06:34:19.798Z</time></trkpt><trkpt lat="45.88805946208731" lon="11.99367173152672"><ele>195.0</ele><time>2026-04-25T06:34:20.798Z</time></trkpt><trkpt lat="45.88802071724893" lon="11.993758580187487"><ele>195.0</ele><time>2026-04-25T06:34:21.798Z</time></trkpt><trkpt lat="45.8879810692061" lon="11.993846383295512"><ele>195.0</ele><time>2026-04-25T06:34:22.797Z</time></trkpt><trkpt lat="45.887941701074375" lon="11.993923074913438"><ele>195.0</ele><time>2026-04-25T06:34:23.797Z</time></trkpt><trkpt lat="45.88790001447901" lon="11.9939987724582"><ele>195.0</ele><time>2026-04-25T06:34:24.797Z</time></trkpt><trkpt lat="45.88785449155853" lon="11.994076271488671"><ele>195.0</ele><time>2026-04-25T06:34:25.797Z</time></trkpt><trkpt lat="45.88780935611854" lon="11.994155390496932"><ele>195.0</ele><time>2026-04-25T06:34:26.797Z</time></trkpt><trkpt lat="45.88775895699031" lon="11.99426206650967"><ele>195.0</ele><time>2026-04-25T06:34:28.797Z</time></trkpt><trkpt lat="45.88771372548649" lon="11.99436960936198"><ele>195.0</ele><time>2026-04-25T06:34:31.797Z</time></trkpt><trkpt lat="45.887678107926114" lon="11.994460949976677"><ele>195.0</ele><time>2026-04-25T06:34:33.797Z</time></trkpt><trkpt lat="45.887628428875985" lon="11.994579385237929"><ele>195.0</ele><time>2026-04-25T06:34:35.797Z</time></trkpt><trkpt lat="45.887552679108964" lon="11.994723473119443"><ele>195.0</ele><time>2026-04-25T06:34:37.797Z</time></trkpt><trkpt lat="45.887516506683404" lon="11.9948022058809"><ele>195.0</ele><time>2026-04-25T06:34:38.797Z</time></trkpt><trkpt lat="45.8874786716184" lon="11.994881025225347"><ele>194.83333333333334</ele><time>2026-04-25T06:34:39.797Z</time></trkpt><trkpt lat="45.887418569592455" lon="11.99496651583208"><ele>194.66666666666669</ele><time>2026-04-25T06:34:40.797Z</time></trkpt><trkpt lat="45.88737795745854" lon="11.995052570106372"><ele>194.5</ele><time>2026-04-25T06:34:41.797Z</time></trkpt><trkpt lat="45.88732091196461" lon="11.995136444653605"><ele>194.33333333333334</ele><time>2026-04-25T06:34:42.797Z</time></trkpt><trkpt lat="45.88726087814492" lon="11.995227499007326"><ele>194.16666666666669</ele><time>2026-04-25T06:34:43.797Z</time></trkpt><trkpt lat="45.88719804686114" lon="11.995315265667914"><ele>194.0</ele><time>2026-04-25T06:34:44.797Z</time></trkpt><trkpt lat="45.887156723795464" lon="11.995410166859749"><ele>193.00000000000003</ele><time>2026-04-25T06:34:45.797Z</time></trkpt><trkpt lat="45.88710769046324" lon="11.99550147544118"><ele>192.0</ele><time>2026-04-25T06:34:46.797Z</time></trkpt><trkpt lat="45.88707555580854" lon="11.99559689943325"><ele>191.0</ele><time>2026-04-25T06:34:47.796Z</time></trkpt><trkpt lat="45.88704192302394" lon="11.995707777814172"><ele>190.0</ele><time>2026-04-25T06:34:48.796Z</time></trkpt><trkpt lat="45.88701744514918" lon="11.995826459190736"><ele>189.0</ele><time>2026-04-25T06:34:49.796Z</time></trkpt><trkpt lat="45.88700350312842" lon="11.995949054916931"><ele>188.0</ele><time>2026-04-25T06:34:50.796Z</time></trkpt><trkpt lat="45.88700996032171" lon="11.996070560818664"><ele>188.0</ele><time>2026-04-25T06:34:51.796Z</time></trkpt><trkpt lat="45.88702384043661" lon="11.99618917507759"><ele>188.0</ele><time>2026-04-25T06:34:52.796Z</time></trkpt><trkpt lat="45.88704170456763" lon="11.996310436980954"><ele>188.0</ele><time>2026-04-25T06:34:53.796Z</time></trkpt><trkpt lat="45.88704476551237" lon="11.99642304793898"><ele>188.0</ele><time>2026-04-25T06:34:54.796Z</time></trkpt><trkpt lat="45.88705416516382" lon="11.996525710564017"><ele>188.0</ele><time>2026-04-25T06:34:55.796Z</time></trkpt><trkpt lat="45.88706183477196" lon="11.99668904289853"><ele>188.0</ele><time>2026-04-25T06:34:57.796Z</time></trkpt><trkpt lat="45.887048126910194" lon="11.996824663580837"><ele>189.16666666666666</ele><time>2026-04-25T06:34:59.796Z</time></trkpt><trkpt lat="45.88702280803516" lon="11.996947646636965"><ele>190.33333333333331</ele><time>2026-04-25T06:35:01.796Z</time></trkpt><trkpt lat="45.886974590895775" lon="11.997055775274418"><ele>191.5</ele><time>2026-04-25T06:35:04.796Z</time></trkpt><trkpt lat="45.88691089134709" lon="11.997110287365082"><ele>192.66666666666666</ele><time>2026-04-25T06:35:07.796Z</time></trkpt><trkpt lat="45.886879615347745" lon="11.997224068127634"><ele>193.83333333333334</ele><time>2026-04-25T06:35:10.796Z</time></trkpt><trkpt lat="45.88684000722195" lon="11.997302682936652"><ele>195.0</ele><time>2026-04-25T06:35:12.795Z</time></trkpt><trkpt lat="45.8868000431988" lon="11.997407239631638"><ele>194.71428571428572</ele><time>2026-04-25T06:35:15.795Z</time></trkpt><trkpt lat="45.88674511417021" lon="11.997469448046639"><ele>194.42857142857142</ele><time>2026-04-25T06:35:18.795Z</time></trkpt><trkpt lat="45.8867168576333" lon="11.997558659528849"><ele>194.14285714285717</ele><time>2026-04-25T06:35:21.795Z</time></trkpt><trkpt lat="45.88666186530219" lon="11.997613953311712"><ele>193.85714285714286</ele><time>2026-04-25T06:35:24.795Z</time></trkpt><trkpt lat="45.88660478230272" lon="11.997655067085196"><ele>193.57142857142858</ele><time>2026-04-25T06:35:26.795Z</time></trkpt><trkpt lat="45.886545095841555" lon="11.997597290405732"><ele>193.2857142857143</ele><time>2026-04-25T06:35:28.795Z</time></trkpt><trkpt lat="45.886460517563684" lon="11.997548893971198"><ele>193.0</ele><time>2026-04-25T06:35:30.795Z</time></trkpt><trkpt lat="45.88636974137646" lon="11.997465899024558"><ele>193.00000000000003</ele><time>2026-04-25T06:35:32.795Z</time></trkpt><trkpt lat="45.8863134440978" lon="11.997414086859864"><ele>193.0</ele><time>2026-04-25T06:35:33.795Z</time></trkpt><trkpt lat="45.88620238415613" lon="11.997384469880997"><ele>193.0</ele><time>2026-04-25T06:35:35.795Z</time></trkpt><trkpt lat="45.88613490051357" lon="11.997390672019275"><ele>193.0</ele><time>2026-04-25T06:35:36.795Z</time></trkpt><trkpt lat="45.88606860042902" lon="11.997407922737553"><ele>193.0</ele><time>2026-04-25T06:35:37.795Z</time></trkpt><trkpt lat="45.88600345066004" lon="11.997418787112474"><ele>193.00000000000003</ele><time>2026-04-25T06:35:38.794Z</time></trkpt><trkpt lat="45.88593834646227" lon="11.997432485535004"><ele>193.0</ele><time>2026-04-25T06:35:39.794Z</time></trkpt><trkpt lat="45.885851507483615" lon="11.997484595735342"><ele>193.2</ele><time>2026-04-25T06:35:41.794Z</time></trkpt><trkpt lat="45.8858554005047" lon="11.997595273786708"><ele>193.4</ele><time>2026-04-25T06:35:44.794Z</time></trkpt><trkpt lat="45.88601177979517" lon="11.99779391462226"><ele>193.6</ele><time>2026-04-25T06:35:51.794Z</time></trkpt><trkpt lat="45.88607690885637" lon="11.997898079152472"><ele>193.79999999999998</ele><time>2026-04-25T06:35:53.794Z</time></trkpt><trkpt lat="45.88611777970904" lon="11.9979726171154"><ele>194.0</ele><time>2026-04-25T06:35:54.794Z</time></trkpt><trkpt lat="45.88619707112428" lon="11.998108718715237"><ele>194.6</ele><time>2026-04-25T06:35:56.794Z</time></trkpt><trkpt lat="45.88627598360776" lon="11.998232740671636"><ele>195.2</ele><time>2026-04-25T06:35:58.794Z</time></trkpt><trkpt lat="45.88635460428229" lon="11.998366932204071"><ele>195.79999999999998</ele><time>2026-04-25T06:36:00.794Z</time></trkpt><trkpt lat="45.88640631586093" lon="11.998458746268938"><ele>196.39999999999998</ele><time>2026-04-25T06:36:01.794Z</time></trkpt><trkpt lat="45.8864857258945" lon="11.998594035640023"><ele>197.0</ele><time>2026-04-25T06:36:03.794Z</time></trkpt><trkpt lat="45.8865579385461" lon="11.998721280495646"><ele>197.0</ele><time>2026-04-25T06:36:05.794Z</time></trkpt><trkpt lat="45.8866305140159" lon="11.998839334557278"><ele>197.0</ele><time>2026-04-25T06:36:07.794Z</time></trkpt><trkpt lat="45.8866967410367" lon="11.99896232333295"><ele>197.0</ele><time>2026-04-25T06:36:09.794Z</time></trkpt><trkpt lat="45.88675707293955" lon="11.999060161728845"><ele>197.0</ele><time>2026-04-25T06:36:11.794Z</time></trkpt><trkpt lat="45.8868432274298" lon="11.99910513368653"><ele>197.0</ele><time>2026-04-25T06:36:13.794Z</time></trkpt><trkpt lat="45.88687585358394" lon="11.999215931785386"><ele>197.66666666666669</ele><time>2026-04-25T06:36:16.794Z</time></trkpt><trkpt lat="45.886865155719136" lon="11.99930802842307"><ele>198.33333333333334</ele><time>2026-04-25T06:36:18.794Z</time></trkpt><trkpt lat="45.886793669272734" lon="11.99931373866288"><ele>199.0</ele><time>2026-04-25T06:36:19.794Z</time></trkpt><trkpt lat="45.8866541059658" lon="11.999431073054721"><ele>199.66666666666669</ele><time>2026-04-25T06:36:22.794Z</time></trkpt><trkpt lat="45.88658543880836" lon="11.999503828165867"><ele>200.33333333333334</ele><time>2026-04-25T06:36:24.794Z</time></trkpt><trkpt lat="45.886570144638235" lon="11.999594802330618"><ele>201.0</ele><time>2026-04-25T06:36:26.794Z</time></trkpt><trkpt lat="45.88660386304114" lon="11.99967441957148"><ele>201.0</ele><time>2026-04-25T06:36:28.794Z</time></trkpt><trkpt lat="45.88663233816649" lon="11.999772375141122"><ele>201.0</ele><time>2026-04-25T06:36:31.793Z</time></trkpt><trkpt lat="45.88665718773368" lon="11.999860299262364"><ele>201.0</ele><time>2026-04-25T06:36:35.793Z</time></trkpt><trkpt lat="45.88669956170744" lon="11.999956307324938"><ele>201.0</ele><time>2026-04-25T06:36:39.793Z</time></trkpt><trkpt lat="45.88673940937963" lon="12.000063912529374"><ele>201.0</ele><time>2026-04-25T06:36:44.793Z</time></trkpt><trkpt lat="45.886778138069644" lon="12.000147801854814"><ele>201.0</ele><time>2026-04-25T06:36:50.793Z</time></trkpt><trkpt lat="45.886816600919936" lon="12.000247808179775"><ele>202.0</ele><time>2026-04-25T06:36:54.793Z</time></trkpt><trkpt lat="45.88685381545662" lon="12.000321406903772"><ele>203.0</ele><time>2026-04-25T06:36:57.792Z</time></trkpt><trkpt lat="45.88690063816174" lon="12.000395341472279"><ele>204.0</ele><time>2026-04-25T06:37:00.792Z</time></trkpt><trkpt lat="45.886969051705854" lon="12.00047491278092"><ele>205.0</ele><time>2026-04-25T06:37:03.792Z</time></trkpt><trkpt lat="45.88701252806945" lon="12.000552068747336"><ele>206.0</ele><time>2026-04-25T06:37:06.792Z</time></trkpt><trkpt lat="45.88705197175394" lon="12.00063636263333"><ele>207.0</ele><time>2026-04-25T06:37:08.792Z</time></trkpt><trkpt lat="45.88708810236973" lon="12.000739894420658"><ele>208.0</ele><time>2026-04-25T06:37:11.792Z</time></trkpt><trkpt lat="45.88716224621035" lon="12.00072626887799"><ele>207.99999999999997</ele><time>2026-04-25T06:37:16.792Z</time></trkpt><trkpt lat="45.887230402316106" lon="12.000655589840903"><ele>208.0</ele><time>2026-04-25T06:37:19.792Z</time></trkpt><trkpt lat="45.887263745957924" lon="12.00054436734286"><ele>208.0</ele><time>2026-04-25T06:37:22.791Z</time></trkpt><trkpt lat="45.88722055363873" lon="12.00042778461013"><ele>208.0</ele><time>2026-04-25T06:37:25.791Z</time></trkpt><trkpt lat="45.88719960896929" lon="12.000336041673632"><ele>207.99999999999997</ele><time>2026-04-25T06:37:27.791Z</time></trkpt><trkpt lat="45.88720849955996" lon="12.000222513901257"><ele>208.0</ele><time>2026-04-25T06:37:30.791Z</time></trkpt><trkpt lat="45.88724572518266" lon="12.000149325619702"><ele>207.99999999999997</ele><time>2026-04-25T06:37:35.791Z</time></trkpt><trkpt lat="45.8872864272919" lon="12.000061016185525"><ele>208.0</ele><time>2026-04-25T06:39:41.82Z</time></trkpt><trkpt lat="45.88729247968131" lon="11.999917049830021"><ele>208.0</ele><time>2026-04-25T06:40:52.819Z</time></trkpt><trkpt lat="45.88729430953697" lon="12.000008101112146"><ele>208.0</ele><time>2026-04-25T06:41:07.819Z</time></trkpt><trkpt lat="45.88727116559538" lon="12.00009638531203"><ele>207.99999999999997</ele><time>2026-04-25T06:43:07.816Z</time></trkpt><trkpt lat="45.8873456018049" lon="12.000109006105339"><ele>208.0</ele><time>2026-04-25T06:44:00.814Z</time></trkpt><trkpt lat="45.88741971987307" lon="12.000172276876395"><ele>207.99999999999997</ele><time>2026-04-25T06:44:03.814Z</time></trkpt><trkpt lat="45.88746356112864" lon="12.000289308988398"><ele>208.0</ele><time>2026-04-25T06:44:06.814Z</time></trkpt><trkpt lat="45.88750600421844" lon="12.00038580620509"><ele>208.0</ele><time>2026-04-25T06:44:08.814Z</time></trkpt><trkpt lat="45.88753477168171" lon="12.00050340465385"><ele>208.0</ele><time>2026-04-25T06:44:10.813Z</time></trkpt><trkpt lat="45.8875581296389" lon="12.000599328015422"><ele>207.99999999999997</ele><time>2026-04-25T06:44:12.813Z</time></trkpt><trkpt lat="45.887600862156354" lon="12.000691966010285"><ele>208.0</ele><time>2026-04-25T06:44:15.813Z</time></trkpt><trkpt lat="45.887672188924626" lon="12.00076180035064"><ele>207.4</ele><time>2026-04-25T06:44:18.813Z</time></trkpt><trkpt lat="45.887772278860346" lon="12.000838136434474"><ele>206.8</ele><time>2026-04-25T06:44:20.813Z</time></trkpt><trkpt lat="45.887857919076176" lon="12.000928110879757"><ele>206.2</ele><time>2026-04-25T06:44:22.813Z</time></trkpt><trkpt lat="45.887919669899695" lon="12.000970693542369"><ele>205.6</ele><time>2026-04-25T06:44:23.813Z</time></trkpt><trkpt lat="45.88802687739773" lon="12.001052392302196"><ele>205.0</ele><time>2026-04-25T06:44:25.813Z</time></trkpt><trkpt lat="45.88808788136504" lon="12.001109286235152"><ele>204.99999999999997</ele><time>2026-04-25T06:44:26.813Z</time></trkpt><trkpt lat="45.888151555334744" lon="12.001167193486081"><ele>205.0</ele><time>2026-04-25T06:44:27.813Z</time></trkpt><trkpt lat="45.88821587499454" lon="12.001216794222591"><ele>205.0</ele><time>2026-04-25T06:44:28.813Z</time></trkpt><trkpt lat="45.888278017599326" lon="12.001248804831553"><ele>205.0</ele><time>2026-04-25T06:44:29.813Z</time></trkpt><trkpt lat="45.8883412987205" lon="12.001277619303325"><ele>204.99999999999997</ele><time>2026-04-25T06:44:30.813Z</time></trkpt><trkpt lat="45.88844750269793" lon="12.001314579714839"><ele>205.0</ele><time>2026-04-25T06:44:32.813Z</time></trkpt><trkpt lat="45.888547040754275" lon="12.001260240974567"><ele>204.75</ele><time>2026-04-25T06:44:34.814Z</time></trkpt><trkpt lat="45.888595692525186" lon="12.00111255084017"><ele>204.5</ele><time>2026-04-25T06:44:36.813Z</time></trkpt><trkpt lat="45.888607857564985" lon="12.000950968482426"><ele>204.25</ele><time>2026-04-25T06:44:38.813Z</time></trkpt><trkpt lat="45.888616463838545" lon="12.00078586216773"><ele>204.0</ele><time>2026-04-25T06:44:40.812Z</time></trkpt><trkpt lat="45.88864069065577" lon="12.00061725932565"><ele>204.0</ele><time>2026-04-25T06:44:42.812Z</time></trkpt><trkpt lat="45.888658730233566" lon="12.000453785704291"><ele>204.0</ele><time>2026-04-25T06:44:44.812Z</time></trkpt><trkpt lat="45.88868701941919" lon="12.000295159483654"><ele>204.0</ele><time>2026-04-25T06:44:46.812Z</time></trkpt><trkpt lat="45.888733493070504" lon="12.00019428512366"><ele>204.0</ele><time>2026-04-25T06:44:48.812Z</time></trkpt><trkpt lat="45.88882550192215" lon="12.000188888103914"><ele>204.0</ele><time>2026-04-25T06:44:50.812Z</time></trkpt><trkpt lat="45.88888329853271" lon="12.000254104654907"><ele>204.0</ele><time>2026-04-25T06:44:52.812Z</time></trkpt><trkpt lat="45.888967046665165" lon="12.000350710124717"><ele>204.0</ele><time>2026-04-25T06:44:54.812Z</time></trkpt><trkpt lat="45.889059522871065" lon="12.000438990156471"><ele>204.0</ele><time>2026-04-25T06:44:56.812Z</time></trkpt><trkpt lat="45.889166629335165" lon="12.000530287644768"><ele>204.0</ele><time>2026-04-25T06:44:58.812Z</time></trkpt><trkpt lat="45.889273379133066" lon="12.000577093203763"><ele>204.6</ele><time>2026-04-25T06:45:00.812Z</time></trkpt><trkpt lat="45.88937784075451" lon="12.000601258936266"><ele>205.2</ele><time>2026-04-25T06:45:02.812Z</time></trkpt><trkpt lat="45.889489021594514" lon="12.00059757317707"><ele>205.79999999999998</ele><time>2026-04-25T06:45:04.812Z</time></trkpt><trkpt lat="45.88959658464836" lon="12.000572773110349"><ele>206.39999999999998</ele><time>2026-04-25T06:45:06.812Z</time></trkpt><trkpt lat="45.88970033423892" lon="12.00053106232181"><ele>207.0</ele><time>2026-04-25T06:45:08.812Z</time></trkpt><trkpt lat="45.88979520327258" lon="12.000513147223282"><ele>207.0</ele><time>2026-04-25T06:45:10.812Z</time></trkpt><trkpt lat="45.88990689201198" lon="12.000499577155683"><ele>207.0</ele><time>2026-04-25T06:45:12.811Z</time></trkpt><trkpt lat="45.890014173301786" lon="12.000498466010049"><ele>207.0</ele><time>2026-04-25T06:45:14.811Z</time></trkpt><trkpt lat="45.89013050912522" lon="12.000531560457361"><ele>207.0</ele><time>2026-04-25T06:45:16.811Z</time></trkpt><trkpt lat="45.89024123690159" lon="12.000561199371056"><ele>205.5</ele><time>2026-04-25T06:45:18.811Z</time></trkpt><trkpt lat="45.890359169677815" lon="12.000597905933848"><ele>204.0</ele><time>2026-04-25T06:45:20.811Z</time></trkpt><trkpt lat="45.8904741461812" lon="12.000643024713286"><ele>202.5</ele><time>2026-04-25T06:45:22.811Z</time></trkpt><trkpt lat="45.8905897909596" lon="12.000684719210376"><ele>201.0</ele><time>2026-04-25T06:45:24.811Z</time></trkpt><trkpt lat="45.890687384524334" lon="12.000732469466652"><ele>201.0</ele><time>2026-04-25T06:45:26.811Z</time></trkpt><trkpt lat="45.89075570447836" lon="12.000810818776879"><ele>201.0</ele><time>2026-04-25T06:45:28.811Z</time></trkpt><trkpt lat="45.89080311717404" lon="12.000930479583817"><ele>201.0</ele><time>2026-04-25T06:45:30.811Z</time></trkpt><trkpt lat="45.89083236706938" lon="12.00102828278987"><ele>201.0</ele><time>2026-04-25T06:45:32.811Z</time></trkpt><trkpt lat="45.89087586200192" lon="12.001118468430882"><ele>201.0</ele><time>2026-04-25T06:45:35.811Z</time></trkpt><trkpt lat="45.89092227770257" lon="12.001053568702432"><ele>201.0</ele><time>2026-04-25T06:45:37.811Z</time></trkpt><trkpt lat="45.890867999410744" lon="12.000937796015277"><ele>201.0</ele><time>2026-04-25T06:45:39.811Z</time></trkpt><trkpt lat="45.89084585714657" lon="12.000818043782816"><ele>201.0</ele><time>2026-04-25T06:45:41.81Z</time></trkpt><trkpt lat="45.89089127237479" lon="12.000672850533986"><ele>201.0</ele><time>2026-04-25T06:45:43.81Z</time></trkpt><trkpt lat="45.89096884624966" lon="12.000530267295039"><ele>201.0</ele><time>2026-04-25T06:45:45.81Z</time></trkpt><trkpt lat="45.89100200438521" lon="12.000436293122089"><ele>201.0</ele><time>2026-04-25T06:45:46.81Z</time></trkpt><trkpt lat="45.89103001273579" lon="12.000332490259813"><ele>201.16666666666666</ele><time>2026-04-25T06:45:47.81Z</time></trkpt><trkpt lat="45.891052027055736" lon="12.00023614748008"><ele>201.33333333333331</ele><time>2026-04-25T06:45:48.81Z</time></trkpt><trkpt lat="45.89104453137676" lon="12.00014192828205"><ele>201.5</ele><time>2026-04-25T06:45:49.81Z</time></trkpt><trkpt lat="45.89105830053408" lon="12.000036240522844"><ele>201.66666666666666</ele><time>2026-04-25T06:45:51.81Z</time></trkpt><trkpt lat="45.89111639739802" lon="11.999941863357131"><ele>201.83333333333331</ele><time>2026-04-25T06:45:53.81Z</time></trkpt><trkpt lat="45.89118826608918" lon="11.99990072588909"><ele>202.0</ele><time>2026-04-25T06:45:55.81Z</time></trkpt><trkpt lat="45.89120894938304" lon="11.999789658674382"><ele>201.99999999999997</ele><time>2026-04-25T06:45:57.81Z</time></trkpt><trkpt lat="45.891237353634544" lon="11.999655789538515"><ele>202.0</ele><time>2026-04-25T06:46:00.81Z</time></trkpt><trkpt lat="45.89127818403899" lon="11.999571418827742"><ele>202.0</ele><time>2026-04-25T06:46:02.81Z</time></trkpt><trkpt lat="45.89136600920667" lon="11.99952805206038"><ele>202.0</ele><time>2026-04-25T06:46:05.81Z</time></trkpt><trkpt lat="45.89143894557625" lon="11.99952166928446"><ele>201.99999999999997</ele><time>2026-04-25T06:46:07.81Z</time></trkpt><trkpt lat="45.891526359609976" lon="11.999517176514702"><ele>202.0</ele><time>2026-04-25T06:46:10.81Z</time></trkpt><trkpt lat="45.891608766147385" lon="11.99954695666968"><ele>201.99999999999997</ele><time>2026-04-25T06:46:13.809Z</time></trkpt><trkpt lat="45.8916929858002" lon="11.999548930781366"><ele>202.0</ele><time>2026-04-25T06:46:16.809Z</time></trkpt><trkpt lat="45.89178025983598" lon="11.999431633317041"><ele>202.0</ele><time>2026-04-25T06:46:20.809Z</time></trkpt><trkpt lat="45.89182630371715" lon="11.999327571528918"><ele>202.0</ele><time>2026-04-25T06:46:23.809Z</time></trkpt><trkpt lat="45.89187062979975" lon="11.99925774453835"><ele>201.99999999999997</ele><time>2026-04-25T06:46:25.809Z</time></trkpt><trkpt lat="45.89191848996515" lon="11.99919876879762"><ele>202.0</ele><time>2026-04-25T06:46:27.809Z</time></trkpt><trkpt lat="45.89196734490197" lon="11.999121405252845"><ele>203.49999999999997</ele><time>2026-04-25T06:46:29.809Z</time></trkpt><trkpt lat="45.89202456345564" lon="11.999058503981287"><ele>205.0</ele><time>2026-04-25T06:46:31.809Z</time></trkpt><trkpt lat="45.89207483739774" lon="11.998934724372617"><ele>206.5</ele><time>2026-04-25T06:46:34.81Z</time></trkpt><trkpt lat="45.89212577329916" lon="11.998819178202643"><ele>208.0</ele><time>2026-04-25T06:46:37.81Z</time></trkpt><trkpt lat="45.89217301630561" lon="11.99871772454263"><ele>209.49999999999997</ele><time>2026-04-25T06:46:40.81Z</time></trkpt><trkpt lat="45.892212180339946" lon="11.998600803958666"><ele>211.0</ele><time>2026-04-25T06:46:43.809Z</time></trkpt><trkpt lat="45.89224050564766" lon="11.998517911127708"><ele>211.0</ele><time>2026-04-25T06:46:45.809Z</time></trkpt><trkpt lat="45.89227357275895" lon="11.998423655616184"><ele>211.0</ele><time>2026-04-25T06:46:47.809Z</time></trkpt><trkpt lat="45.89232244477891" lon="11.998334693097243"><ele>211.0</ele><time>2026-04-25T06:46:49.809Z</time></trkpt><trkpt lat="45.8923700200163" lon="11.998246392551161"><ele>211.0</ele><time>2026-04-25T06:46:51.809Z</time></trkpt><trkpt lat="45.89241833845294" lon="11.998177463892933"><ele>211.0</ele><time>2026-04-25T06:46:53.809Z</time></trkpt><trkpt lat="45.892475716496506" lon="11.998109385153532"><ele>211.0</ele><time>2026-04-25T06:46:55.809Z</time></trkpt><trkpt lat="45.892532679187454" lon="11.998049388056572"><ele>211.0</ele><time>2026-04-25T06:46:57.809Z</time></trkpt><trkpt lat="45.892595217005486" lon="11.997987675024554"><ele>213.14285714285714</ele><time>2026-04-25T06:46:59.809Z</time></trkpt><trkpt lat="45.89266552671745" lon="11.997941369305892"><ele>215.28571428571428</ele><time>2026-04-25T06:47:01.809Z</time></trkpt><trkpt lat="45.89272541237465" lon="11.997867977015792"><ele>217.42857142857144</ele><time>2026-04-25T06:47:03.809Z</time></trkpt><trkpt lat="45.89278758960524" lon="11.997817276340866"><ele>219.57142857142856</ele><time>2026-04-25T06:47:05.809Z</time></trkpt><trkpt lat="45.89284797132056" lon="11.997763734003422"><ele>221.7142857142857</ele><time>2026-04-25T06:47:07.809Z</time></trkpt><trkpt lat="45.89290348774991" lon="11.99771366751981"><ele>223.85714285714286</ele><time>2026-04-25T06:47:09.809Z</time></trkpt><trkpt lat="45.89296074216418" lon="11.997670706414825"><ele>226.0</ele><time>2026-04-25T06:47:11.809Z</time></trkpt><trkpt lat="45.893032364014815" lon="11.997610489291183"><ele>225.99999999999997</ele><time>2026-04-25T06:47:14.809Z</time></trkpt><trkpt lat="45.89310741450125" lon="11.997559576346891"><ele>226.0</ele><time>2026-04-25T06:47:17.808Z</time></trkpt><trkpt lat="45.893171677202616" lon="11.997517074790105"><ele>226.0</ele><time>2026-04-25T06:47:20.808Z</time></trkpt><trkpt lat="45.89323626277495" lon="11.99747237257537"><ele>226.0</ele><time>2026-04-25T06:47:23.808Z</time></trkpt><trkpt lat="45.8933113613248" lon="11.997426786000702"><ele>225.99999999999997</ele><time>2026-04-25T06:47:26.808Z</time></trkpt><trkpt lat="45.893380097351105" lon="11.997379145316197"><ele>226.0</ele><time>2026-04-25T06:47:29.808Z</time></trkpt><trkpt lat="45.89345055354469" lon="11.997321175750939"><ele>226.49999999999997</ele><time>2026-04-25T06:47:32.808Z</time></trkpt><trkpt lat="45.89352813298862" lon="11.997255001088512"><ele>227.0</ele><time>2026-04-25T06:47:37.808Z</time></trkpt><trkpt lat="45.893592846251444" lon="11.997205614614149"><ele>227.5</ele><time>2026-04-25T06:47:41.808Z</time></trkpt><trkpt lat="45.893660554289646" lon="11.997166260638247"><ele>228.0</ele><time>2026-04-25T06:47:44.808Z</time></trkpt><trkpt lat="45.89373372876093" lon="11.99713413763366"><ele>228.49999999999997</ele><time>2026-04-25T06:47:47.807Z</time></trkpt><trkpt lat="45.89380965066786" lon="11.99710075155254"><ele>229.0</ele><time>2026-04-25T06:47:50.807Z</time></trkpt><trkpt lat="45.893892972776264" lon="11.997061901246722"><ele>228.99999999999997</ele><time>2026-04-25T06:47:53.807Z</time></trkpt><trkpt lat="45.89398291122212" lon="11.997043418533881"><ele>229.0</ele><time>2026-04-25T06:47:56.807Z</time></trkpt><trkpt lat="45.89404789475235" lon="11.997033478577855"><ele>229.0</ele><time>2026-04-25T06:47:58.807Z</time></trkpt><trkpt lat="45.89417658147467" lon="11.997036719278427"><ele>229.0</ele><time>2026-04-25T06:48:00.807Z</time></trkpt><trkpt lat="45.89425440214679" lon="11.99702430947784"><ele>228.99999999999997</ele><time>2026-04-25T06:48:01.807Z</time></trkpt><trkpt lat="45.894318873770416" lon="11.996999562857066"><ele>229.0</ele><time>2026-04-25T06:48:02.807Z</time></trkpt><trkpt lat="45.89438915760661" lon="11.99697912873193"><ele>229.28571428571428</ele><time>2026-04-25T06:48:03.807Z</time></trkpt><trkpt lat="45.89445695201882" lon="11.996967916977672"><ele>229.57142857142858</ele><time>2026-04-25T06:48:04.807Z</time></trkpt><trkpt lat="45.89452044816894" lon="11.996945472665761"><ele>229.85714285714286</ele><time>2026-04-25T06:48:05.807Z</time></trkpt><trkpt lat="45.89458049977904" lon="11.996894132000492"><ele>230.14285714285714</ele><time>2026-04-25T06:48:06.807Z</time></trkpt><trkpt lat="45.89463501276289" lon="11.996837529950648"><ele>230.42857142857144</ele><time>2026-04-25T06:48:07.807Z</time></trkpt><trkpt lat="45.894676386528495" lon="11.996768886533859"><ele>230.71428571428572</ele><time>2026-04-25T06:48:08.807Z</time></trkpt><trkpt lat="45.894723157115244" lon="11.996701825218977"><ele>231.0</ele><time>2026-04-25T06:48:09.807Z</time></trkpt><trkpt lat="45.89477829937676" lon="11.996657192845765"><ele>231.66666666666666</ele><time>2026-04-25T06:48:10.807Z</time></trkpt><trkpt lat="45.89484580533297" lon="11.996617180757209"><ele>232.33333333333331</ele><time>2026-04-25T06:48:11.807Z</time></trkpt><trkpt lat="45.894898916637906" lon="11.996566851371044"><ele>233.0</ele><time>2026-04-25T06:48:12.807Z</time></trkpt><trkpt lat="45.89495702430331" lon="11.99652034482655"><ele>233.66666666666666</ele><time>2026-04-25T06:48:13.807Z</time></trkpt><trkpt lat="45.89501278065794" lon="11.99647205698506"><ele>234.33333333333331</ele><time>2026-04-25T06:48:14.807Z</time></trkpt><trkpt lat="45.895107989718525" lon="11.996429219104899"><ele>235.0</ele><time>2026-04-25T06:48:15.807Z</time></trkpt><trkpt lat="45.89518465232863" lon="11.996381821728665"><ele>235.0</ele><time>2026-04-25T06:48:16.806Z</time></trkpt><trkpt lat="45.8952508918275" lon="11.996331985353832"><ele>234.99999999999997</ele><time>2026-04-25T06:48:17.806Z</time></trkpt><trkpt lat="45.895315816193936" lon="11.996278361106189"><ele>235.0</ele><time>2026-04-25T06:48:18.806Z</time></trkpt><trkpt lat="45.8953708419791" lon="11.996225860246382"><ele>235.0</ele><time>2026-04-25T06:48:19.806Z</time></trkpt><trkpt lat="45.89542198077563" lon="11.996157751668953"><ele>234.99999999999997</ele><time>2026-04-25T06:48:20.806Z</time></trkpt><trkpt lat="45.895472295136464" lon="11.996098564586937"><ele>235.0</ele><time>2026-04-25T06:48:21.806Z</time></trkpt><trkpt lat="45.89552265505648" lon="11.996034418937414"><ele>235.0</ele><time>2026-04-25T06:48:22.806Z</time></trkpt><trkpt lat="45.895571443873244" lon="11.995973542527162"><ele>235.0</ele><time>2026-04-25T06:48:23.806Z</time></trkpt><trkpt lat="45.89565520996327" lon="11.995842476777462"><ele>235.0</ele><time>2026-04-25T06:48:25.806Z</time></trkpt><trkpt lat="45.89569939195686" lon="11.99577742853166"><ele>235.0</ele><time>2026-04-25T06:48:26.806Z</time></trkpt><trkpt lat="45.89578569920068" lon="11.995663218345658"><ele>235.0</ele><time>2026-04-25T06:48:28.806Z</time></trkpt><trkpt lat="45.89587214747593" lon="11.995545130393738"><ele>235.0</ele><time>2026-04-25T06:48:30.806Z</time></trkpt><trkpt lat="45.895952575403825" lon="11.995445641285714"><ele>235.0</ele><time>2026-04-25T06:48:32.806Z</time></trkpt><trkpt lat="45.89603353872228" lon="11.995343883364171"><ele>235.0</ele><time>2026-04-25T06:48:34.806Z</time></trkpt><trkpt lat="45.89610907550068" lon="11.99523321791844"><ele>235.0</ele><time>2026-04-25T06:48:36.806Z</time></trkpt><trkpt lat="45.89618530149683" lon="11.995131720998241"><ele>235.0</ele><time>2026-04-25T06:48:38.807Z</time></trkpt><trkpt lat="45.896257465443206" lon="11.995018404604496"><ele>235.0</ele><time>2026-04-25T06:48:40.807Z</time></trkpt><trkpt lat="45.89633142936517" lon="11.994868309999472"><ele>235.0</ele><time>2026-04-25T06:48:42.806Z</time></trkpt><trkpt lat="45.89637110790299" lon="11.994793997824889"><ele>235.0</ele><time>2026-04-25T06:48:43.806Z</time></trkpt><trkpt lat="45.896432548801656" lon="11.994644999833344"><ele>235.0</ele><time>2026-04-25T06:48:45.807Z</time></trkpt><trkpt lat="45.896512686491945" lon="11.99448067865494"><ele>235.0</ele><time>2026-04-25T06:48:47.806Z</time></trkpt><trkpt lat="45.896587048903726" lon="11.994336599031941"><ele>235.0</ele><time>2026-04-25T06:48:49.806Z</time></trkpt><trkpt lat="45.896630128409996" lon="11.994253097638204"><ele>234.99999999999997</ele><time>2026-04-25T06:48:50.806Z</time></trkpt><trkpt lat="45.896663550148446" lon="11.994168769801973"><ele>235.0</ele><time>2026-04-25T06:48:51.806Z</time></trkpt><trkpt lat="45.896695308086365" lon="11.994083407889958"><ele>235.0</ele><time>2026-04-25T06:48:52.806Z</time></trkpt><trkpt lat="45.896734854076165" lon="11.993999328922987"><ele>234.99999999999997</ele><time>2026-04-25T06:48:53.806Z</time></trkpt><trkpt lat="45.89677058912107" lon="11.993917528723312"><ele>235.0</ele><time>2026-04-25T06:48:54.806Z</time></trkpt><trkpt lat="45.89680735695699" lon="11.993837418227486"><ele>235.0</ele><time>2026-04-25T06:48:55.806Z</time></trkpt><trkpt lat="45.8968419819772" lon="11.993760464115327"><ele>235.2</ele><time>2026-04-25T06:48:56.806Z</time></trkpt><trkpt lat="45.8969037530172" lon="11.993598496928735"><ele>235.4</ele><time>2026-04-25T06:48:58.806Z</time></trkpt><trkpt lat="45.896948077255914" lon="11.993522479834269"><ele>235.60000000000002</ele><time>2026-04-25T06:48:59.806Z</time></trkpt><trkpt lat="45.89698299041357" lon="11.993447099964753"><ele>235.8</ele><time>2026-04-25T06:49:00.806Z</time></trkpt><trkpt lat="45.89701994877708" lon="11.993372913583574"><ele>236.0</ele><time>2026-04-25T06:49:01.806Z</time></trkpt><trkpt lat="45.89708962254171" lon="11.993210902777557"><ele>236.83333333333334</ele><time>2026-04-25T06:49:03.806Z</time></trkpt><trkpt lat="45.897126527638186" lon="11.993127998602503"><ele>237.66666666666669</ele><time>2026-04-25T06:49:04.806Z</time></trkpt><trkpt lat="45.897162355920244" lon="11.993048224799551"><ele>238.5</ele><time>2026-04-25T06:49:05.806Z</time></trkpt><trkpt lat="45.89722633317408" lon="11.992881324948117"><ele>239.33333333333331</ele><time>2026-04-25T06:49:07.806Z</time></trkpt><trkpt lat="45.89725833594442" lon="11.992795891875046"><ele>240.16666666666666</ele><time>2026-04-25T06:49:08.806Z</time></trkpt><trkpt lat="45.897287684735765" lon="11.99270447027851"><ele>241.0</ele><time>2026-04-25T06:49:09.806Z</time></trkpt><trkpt lat="45.897330746908644" lon="11.99262865112934"><ele>241.0</ele><time>2026-04-25T06:49:10.806Z</time></trkpt><trkpt lat="45.89736734146985" lon="11.99255323128293"><ele>241.00000000000003</ele><time>2026-04-25T06:49:11.806Z</time></trkpt><trkpt lat="45.89744167737222" lon="11.992416520206962"><ele>241.00000000000003</ele><time>2026-04-25T06:49:13.806Z</time></trkpt><trkpt lat="45.897515479599356" lon="11.992365707644675"><ele>241.0</ele><time>2026-04-25T06:49:15.806Z</time></trkpt><trkpt lat="45.89757780806328" lon="11.992461947467755"><ele>241.0</ele><time>2026-04-25T06:49:17.806Z</time></trkpt><trkpt lat="45.89764121827436" lon="11.992593435013298"><ele>241.49999999999997</ele><time>2026-04-25T06:49:19.805Z</time></trkpt><trkpt lat="45.89768563301123" lon="11.992658334390216"><ele>242.0</ele><time>2026-04-25T06:49:20.805Z</time></trkpt><trkpt lat="45.89772872252701" lon="11.992727774029479"><ele>242.5</ele><time>2026-04-25T06:49:21.805Z</time></trkpt><trkpt lat="45.89781001021226" lon="11.992811512094386"><ele>243.0</ele><time>2026-04-25T06:49:23.805Z</time></trkpt><trkpt lat="45.897848931360066" lon="11.992892572580411"><ele>243.49999999999997</ele><time>2026-04-25T06:49:24.805Z</time></trkpt><trkpt lat="45.89790183046264" lon="11.992981773513405"><ele>244.0</ele><time>2026-04-25T06:49:25.805Z</time></trkpt><trkpt lat="45.897997754639995" lon="11.993088613826885"><ele>243.99999999999997</ele><time>2026-04-25T06:49:27.805Z</time></trkpt><trkpt lat="45.89804721639758" lon="11.993173034239268"><ele>244.0</ele><time>2026-04-25T06:49:28.805Z</time></trkpt><trkpt lat="45.89810570609177" lon="11.99323089541159"><ele>243.99999999999997</ele><time>2026-04-25T06:49:29.805Z</time></trkpt><trkpt lat="45.89819053550661" lon="11.993290875782321"><ele>243.99999999999997</ele><time>2026-04-25T06:49:31.805Z</time></trkpt><trkpt lat="45.89824518228071" lon="11.993356162681795"><ele>244.0</ele><time>2026-04-25T06:49:32.805Z</time></trkpt><trkpt lat="45.89829423933076" lon="11.993425743123126"><ele>243.99999999999997</ele><time>2026-04-25T06:49:33.805Z</time></trkpt><trkpt lat="45.89834192704585" lon="11.993492234901943"><ele>243.99999999999997</ele><time>2026-04-25T06:49:34.805Z</time></trkpt><trkpt lat="45.898395490865596" lon="11.993557885194496"><ele>244.66666666666666</ele><time>2026-04-25T06:49:35.805Z</time></trkpt><trkpt lat="45.8984503559032" lon="11.993617445519874"><ele>245.33333333333331</ele><time>2026-04-25T06:49:36.805Z</time></trkpt><trkpt lat="45.898507789875474" lon="11.993672010960246"><ele>246.0</ele><time>2026-04-25T06:49:37.805Z</time></trkpt><trkpt lat="45.89857023810977" lon="11.9937318278018"><ele>246.66666666666669</ele><time>2026-04-25T06:49:38.805Z</time></trkpt><trkpt lat="45.8986253757787" lon="11.993791566098981"><ele>247.33333333333334</ele><time>2026-04-25T06:49:39.805Z</time></trkpt><trkpt lat="45.8987110183538" lon="11.993881937334613"><ele>248.0</ele><time>2026-04-25T06:49:41.805Z</time></trkpt><trkpt lat="45.898767297676734" lon="11.993929417761963"><ele>248.0</ele><time>2026-04-25T06:49:42.805Z</time></trkpt><trkpt lat="45.8988716579174" lon="11.99403491233575"><ele>248.0</ele><time>2026-04-25T06:49:44.805Z</time></trkpt><trkpt lat="45.89896937415098" lon="11.994134881924124"><ele>248.0</ele><time>2026-04-25T06:49:46.805Z</time></trkpt><trkpt lat="45.899068995011" lon="11.99425757136967"><ele>248.0</ele><time>2026-04-25T06:49:48.805Z</time></trkpt><trkpt lat="45.899123574951" lon="11.994326074341714"><ele>247.8</ele><time>2026-04-25T06:49:49.804Z</time></trkpt><trkpt lat="45.899176173653714" lon="11.994386531649633"><ele>247.60000000000002</ele><time>2026-04-25T06:49:50.804Z</time></trkpt><trkpt lat="45.89923348460754" lon="11.99444520423525"><ele>247.39999999999998</ele><time>2026-04-25T06:49:51.804Z</time></trkpt><trkpt lat="45.899328208765084" lon="11.994527656236546"><ele>247.2</ele><time>2026-04-25T06:49:53.804Z</time></trkpt><trkpt lat="45.899432142820636" lon="11.994602011605966"><ele>247.0</ele><time>2026-04-25T06:49:55.804Z</time></trkpt><trkpt lat="45.899532468674686" lon="11.994669371329554"><ele>248.39999999999998</ele><time>2026-04-25T06:49:57.804Z</time></trkpt><trkpt lat="45.899628420548126" lon="11.99474602346458"><ele>249.79999999999998</ele><time>2026-04-25T06:49:59.804Z</time></trkpt><trkpt lat="45.89968718301561" lon="11.994791909481707"><ele>251.2</ele><time>2026-04-25T06:50:00.804Z</time></trkpt><trkpt lat="45.89980672235745" lon="11.99485326594404"><ele>252.6</ele><time>2026-04-25T06:50:02.804Z</time></trkpt><trkpt lat="45.89991573435478" lon="11.994903003801278"><ele>254.0</ele><time>2026-04-25T06:50:04.804Z</time></trkpt><trkpt lat="45.899978716309654" lon="11.99492673634143"><ele>254.00000000000003</ele><time>2026-04-25T06:50:05.804Z</time></trkpt><trkpt lat="45.900044278420154" lon="11.994949454482928"><ele>254.0</ele><time>2026-04-25T06:50:06.804Z</time></trkpt><trkpt lat="45.900104900691886" lon="11.994980028709683"><ele>254.0</ele><time>2026-04-25T06:50:07.804Z</time></trkpt><trkpt lat="45.90022607372879" lon="11.995009344077836"><ele>254.0</ele><time>2026-04-25T06:50:09.804Z</time></trkpt><trkpt lat="45.9002925797698" lon="11.995035924598703"><ele>254.00000000000003</ele><time>2026-04-25T06:50:10.804Z</time></trkpt><trkpt lat="45.90036317441215" lon="11.995052385575786"><ele>254.0</ele><time>2026-04-25T06:50:11.804Z</time></trkpt><trkpt lat="45.90049656053815" lon="11.995047588326063"><ele>254.14285714285717</ele><time>2026-04-25T06:50:13.804Z</time></trkpt><trkpt lat="45.90057332580746" lon="11.995062433187432"><ele>254.28571428571428</ele><time>2026-04-25T06:50:14.804Z</time></trkpt><trkpt lat="45.900642174135896" lon="11.995075590943973"><ele>254.42857142857144</ele><time>2026-04-25T06:50:15.804Z</time></trkpt><trkpt lat="45.90070384361755" lon="11.995106167488416"><ele>254.57142857142858</ele><time>2026-04-25T06:50:16.804Z</time></trkpt><trkpt lat="45.90077352039414" lon="11.995139103704942"><ele>254.71428571428572</ele><time>2026-04-25T06:50:17.804Z</time></trkpt><trkpt lat="45.90083989337877" lon="11.99518722435134"><ele>254.85714285714286</ele><time>2026-04-25T06:50:18.804Z</time></trkpt><trkpt lat="45.900903418325896" lon="11.995227940628142"><ele>255.0</ele><time>2026-04-25T06:50:19.803Z</time></trkpt><trkpt lat="45.90096727926611" lon="11.995267903022494"><ele>255.5</ele><time>2026-04-25T06:50:20.803Z</time></trkpt><trkpt lat="45.90106891571261" lon="11.995338054645893"><ele>256.0</ele><time>2026-04-25T06:50:22.803Z</time></trkpt><trkpt lat="45.90113235102137" lon="11.99535618520459"><ele>256.5</ele><time>2026-04-25T06:50:23.803Z</time></trkpt><trkpt lat="45.901181284859696" lon="11.995424754268374"><ele>257.0</ele><time>2026-04-25T06:50:24.803Z</time></trkpt><trkpt lat="45.90121427384283" lon="11.995504668001713"><ele>257.5</ele><time>2026-04-25T06:50:25.803Z</time></trkpt><trkpt lat="45.901226006556875" lon="11.995595816684794"><ele>258.0</ele><time>2026-04-25T06:50:26.803Z</time></trkpt><trkpt lat="45.901230721353116" lon="11.99573099243304"><ele>257.4</ele><time>2026-04-25T06:50:27.803Z</time></trkpt><trkpt lat="45.9011938291851" lon="11.995854523335243"><ele>256.8</ele><time>2026-04-25T06:50:28.803Z</time></trkpt><trkpt lat="45.90115365088248" lon="11.99598885431144"><ele>256.2</ele><time>2026-04-25T06:50:29.803Z</time></trkpt><trkpt lat="45.90110848911376" lon="11.996125459275541"><ele>255.6</ele><time>2026-04-25T06:50:30.803Z</time></trkpt><trkpt lat="45.901057354372206" lon="11.996250738331236"><ele>255.0</ele><time>2026-04-25T06:50:31.803Z</time></trkpt><trkpt lat="45.901011001978155" lon="11.996372286586427"><ele>255.0</ele><time>2026-04-25T06:50:32.803Z</time></trkpt><trkpt lat="45.90096713474851" lon="11.9965003852364"><ele>255.0</ele><time>2026-04-25T06:50:33.803Z</time></trkpt><trkpt lat="45.90091937471664" lon="11.996634733116545"><ele>255.0</ele><time>2026-04-25T06:50:34.803Z</time></trkpt><trkpt lat="45.9008700442813" lon="11.996766716925325"><ele>255.0</ele><time>2026-04-25T06:50:35.803Z</time></trkpt><trkpt lat="45.90082149194662" lon="11.996906380414215"><ele>255.0</ele><time>2026-04-25T06:50:36.803Z</time></trkpt><trkpt lat="45.900776622307426" lon="11.99705861840558"><ele>253.4</ele><time>2026-04-25T06:50:37.803Z</time></trkpt><trkpt lat="45.90072831387482" lon="11.997203257014782"><ele>251.8</ele><time>2026-04-25T06:50:38.803Z</time></trkpt><trkpt lat="45.9006817124777" lon="11.997349052582344"><ele>250.2</ele><time>2026-04-25T06:50:39.803Z</time></trkpt><trkpt lat="45.90063122299605" lon="11.997494014118047"><ele>248.6</ele><time>2026-04-25T06:50:40.803Z</time></trkpt><trkpt lat="45.900577991666296" lon="11.997634756691129"><ele>247.0</ele><time>2026-04-25T06:50:41.803Z</time></trkpt><trkpt lat="45.90051580919223" lon="11.997771617158744"><ele>246.0</ele><time>2026-04-25T06:50:42.803Z</time></trkpt><trkpt lat="45.90045561096876" lon="11.997918683662451"><ele>245.0</ele><time>2026-04-25T06:50:43.803Z</time></trkpt><trkpt lat="45.90040213189576" lon="11.998066949542524"><ele>244.0</ele><time>2026-04-25T06:50:44.803Z</time></trkpt><trkpt lat="45.90035923648058" lon="11.998216617067753"><ele>243.0</ele><time>2026-04-25T06:50:45.804Z</time></trkpt><trkpt lat="45.90030623836452" lon="11.99835826888901"><ele>242.83333333333334</ele><time>2026-04-25T06:50:46.804Z</time></trkpt><trkpt lat="45.900276209732645" lon="11.998492412578488"><ele>242.66666666666669</ele><time>2026-04-25T06:50:47.804Z</time></trkpt><trkpt lat="45.90022837982299" lon="11.998605367424524"><ele>242.5</ele><time>2026-04-25T06:50:48.804Z</time></trkpt><trkpt lat="45.90020649472082" lon="11.99869395779733"><ele>242.33333333333334</ele><time>2026-04-25T06:50:49.804Z</time></trkpt><trkpt lat="45.90019346005337" lon="11.998821229572865"><ele>242.16666666666669</ele><time>2026-04-25T06:50:51.804Z</time></trkpt><trkpt lat="45.90023665920568" lon="11.998890610341812"><ele>242.0</ele><time>2026-04-25T06:50:52.804Z</time></trkpt><trkpt lat="45.90033362005276" lon="11.998910094470219"><ele>242.0</ele><time>2026-04-25T06:50:54.803Z</time></trkpt><trkpt lat="45.90042456934758" lon="11.998928962554338"><ele>242.0</ele><time>2026-04-25T06:50:56.803Z</time></trkpt><trkpt lat="45.90052473782483" lon="11.998957293158838"><ele>242.0</ele><time>2026-04-25T06:50:58.803Z</time></trkpt><trkpt lat="45.900606331679896" lon="11.998982573438195"><ele>242.0</ele><time>2026-04-25T06:51:00.803Z</time></trkpt><trkpt lat="45.90069544701212" lon="11.999014765093976"><ele>242.0</ele><time>2026-04-25T06:51:02.803Z</time></trkpt><trkpt lat="45.90079589610787" lon="11.999041830879369"><ele>242.0</ele><time>2026-04-25T06:51:04.803Z</time></trkpt><trkpt lat="45.90086431966771" lon="11.999086547840477"><ele>242.0</ele><time>2026-04-25T06:51:06.803Z</time></trkpt><trkpt lat="45.90094206970168" lon="11.999132884498108"><ele>242.0</ele><time>2026-04-25T06:51:08.803Z</time></trkpt><trkpt lat="45.9010198602857" lon="11.999167281524105"><ele>242.0</ele><time>2026-04-25T06:51:10.803Z</time></trkpt><trkpt lat="45.901216904521625" lon="11.999184410846503"><ele>242.0</ele><time>2026-04-25T06:51:18.802Z</time></trkpt><trkpt lat="45.90127714638074" lon="11.999240572685798"><ele>245.66666666666669</ele><time>2026-04-25T06:51:21.802Z</time></trkpt><trkpt lat="45.90159851754747" lon="11.999276778710097"><ele>249.33333333333331</ele><time>2026-04-25T06:51:44.801Z</time></trkpt><trkpt lat="45.90159937494347" lon="11.999370077409104"><ele>253.0</ele><time>2026-04-25T06:51:46.801Z</time></trkpt><trkpt lat="45.90157526189979" lon="11.999499358555523"><ele>253.0</ele><time>2026-04-25T06:51:48.801Z</time></trkpt><trkpt lat="45.90154842805486" lon="11.999644174883716"><ele>253.0</ele><time>2026-04-25T06:51:50.801Z</time></trkpt><trkpt lat="45.9015325047735" lon="11.999793918960647"><ele>253.0</ele><time>2026-04-25T06:51:52.801Z</time></trkpt><trkpt lat="45.901516431329284" lon="11.999947844908467"><ele>253.0</ele><time>2026-04-25T06:51:54.801Z</time></trkpt><trkpt lat="45.90150357000237" lon="12.000041573641994"><ele>253.0</ele><time>2026-04-25T06:51:55.801Z</time></trkpt><trkpt lat="45.90149717586153" lon="12.000226956191579"><ele>252.99999999999997</ele><time>2026-04-25T06:51:57.801Z</time></trkpt><trkpt lat="45.901478482159476" lon="12.000320303341182"><ele>253.0</ele><time>2026-04-25T06:51:58.801Z</time></trkpt><trkpt lat="45.90146013877167" lon="12.000411462848911"><ele>253.0</ele><time>2026-04-25T06:51:59.801Z</time></trkpt><trkpt lat="45.901434001597" lon="12.000583425534284"><ele>253.0</ele><time>2026-04-25T06:52:01.801Z</time></trkpt><trkpt lat="45.901423713714344" lon="12.000680892851193"><ele>252.99999999999997</ele><time>2026-04-25T06:52:02.801Z</time></trkpt><trkpt lat="45.90141463204889" lon="12.000781000316806"><ele>253.0</ele><time>2026-04-25T06:52:03.801Z</time></trkpt><trkpt lat="45.90139846602295" lon="12.000888247074043"><ele>253.42857142857144</ele><time>2026-04-25T06:52:04.801Z</time></trkpt><trkpt lat="45.90139009482343" lon="12.000982427636542"><ele>253.85714285714286</ele><time>2026-04-25T06:52:05.801Z</time></trkpt><trkpt lat="45.901379732656025" lon="12.001072660114454"><ele>254.28571428571428</ele><time>2026-04-25T06:52:06.801Z</time></trkpt><trkpt lat="45.90135951155231" lon="12.001170295698387"><ele>254.71428571428572</ele><time>2026-04-25T06:52:07.801Z</time></trkpt><trkpt lat="45.90134979689885" lon="12.001271218494445"><ele>255.1428571428571</ele><time>2026-04-25T06:52:08.801Z</time></trkpt><trkpt lat="45.901337869304065" lon="12.001371836926065"><ele>255.57142857142856</ele><time>2026-04-25T06:52:09.801Z</time></trkpt><trkpt lat="45.9013252301632" lon="12.001469379397363"><ele>256.0</ele><time>2026-04-25T06:52:10.801Z</time></trkpt><trkpt lat="45.90130671624939" lon="12.001569122022554"><ele>256.2857142857143</ele><time>2026-04-25T06:52:11.801Z</time></trkpt><trkpt lat="45.901300656219604" lon="12.00167084159146"><ele>256.57142857142856</ele><time>2026-04-25T06:52:12.801Z</time></trkpt><trkpt lat="45.90129239834327" lon="12.001775945453536"><ele>256.85714285714283</ele><time>2026-04-25T06:52:13.801Z</time></trkpt><trkpt lat="45.90128356100315" lon="12.00187640870705"><ele>257.1428571428571</ele><time>2026-04-25T06:52:14.8Z</time></trkpt><trkpt lat="45.90128874912359" lon="12.001983602945103"><ele>257.42857142857144</ele><time>2026-04-25T06:52:15.8Z</time></trkpt><trkpt lat="45.90130111613429" lon="12.002089934901864"><ele>257.71428571428567</ele><time>2026-04-25T06:52:16.8Z</time></trkpt><trkpt lat="45.90130663195225" lon="12.002187936650246"><ele>258.0</ele><time>2026-04-25T06:52:17.8Z</time></trkpt><trkpt lat="45.901310761879316" lon="12.002292518453356"><ele>258.0</ele><time>2026-04-25T06:52:18.8Z</time></trkpt><trkpt lat="45.901303099101234" lon="12.002385248542536"><ele>258.0</ele><time>2026-04-25T06:52:19.8Z</time></trkpt><trkpt lat="45.90130312086633" lon="12.002484570186256"><ele>258.0</ele><time>2026-04-25T06:52:20.8Z</time></trkpt><trkpt lat="45.90129249180891" lon="12.002649837677932"><ele>258.0</ele><time>2026-04-25T06:52:22.8Z</time></trkpt><trkpt lat="45.90130431359853" lon="12.002746621542189"><ele>258.0</ele><time>2026-04-25T06:52:23.8Z</time></trkpt><trkpt lat="45.90130549855949" lon="12.002894193280344"><ele>258.0</ele><time>2026-04-25T06:52:25.8Z</time></trkpt><trkpt lat="45.90132596967335" lon="12.003042422172223"><ele>257.8333333333333</ele><time>2026-04-25T06:52:27.8Z</time></trkpt><trkpt lat="45.90133934407397" lon="12.003162735185489"><ele>257.6666666666667</ele><time>2026-04-25T06:52:29.8Z</time></trkpt><trkpt lat="45.90136566092136" lon="12.00327241533646"><ele>257.5</ele><time>2026-04-25T06:52:31.8Z</time></trkpt><trkpt lat="45.90139301804625" lon="12.00336912198217"><ele>257.33333333333337</ele><time>2026-04-25T06:52:33.8Z</time></trkpt><trkpt lat="45.901421593310836" lon="12.003458303660613"><ele>257.1666666666667</ele><time>2026-04-25T06:52:35.8Z</time></trkpt><trkpt lat="45.901437290729554" lon="12.003561756870356"><ele>257.0</ele><time>2026-04-25T06:52:37.8Z</time></trkpt><trkpt lat="45.90148460082103" lon="12.003668090448622"><ele>257.5</ele><time>2026-04-25T06:52:40.8Z</time></trkpt><trkpt lat="45.901514488334364" lon="12.003791721364454"><ele>258.0</ele><time>2026-04-25T06:52:43.8Z</time></trkpt><trkpt lat="45.90154272909744" lon="12.003914262642144"><ele>258.5</ele><time>2026-04-25T06:52:46.799Z</time></trkpt><trkpt lat="45.90157821876546" lon="12.003999599993774"><ele>259.0</ele><time>2026-04-25T06:52:48.799Z</time></trkpt><trkpt lat="45.90162124748065" lon="12.00410833181512"><ele>259.5</ele><time>2026-04-25T06:52:50.801Z</time></trkpt><trkpt lat="45.90165104337265" lon="12.004190021663268"><ele>260.0</ele><time>2026-04-25T06:52:52.801Z</time></trkpt><trkpt lat="45.901684767271256" lon="12.004273552218779"><ele>260.42857142857144</ele><time>2026-04-25T06:52:54.8Z</time></trkpt><trkpt lat="45.90171645946385" lon="12.00436942873786"><ele>260.8571428571429</ele><time>2026-04-25T06:52:56.8Z</time></trkpt><trkpt lat="45.90174979626139" lon="12.004448993970492"><ele>261.2857142857143</ele><time>2026-04-25T06:52:58.801Z</time></trkpt><trkpt lat="45.90177519749899" lon="12.00453494080802"><ele>261.7142857142857</ele><time>2026-04-25T06:53:00.8Z</time></trkpt><trkpt lat="45.901814427649455" lon="12.00461957642933"><ele>262.1428571428571</ele><time>2026-04-25T06:53:02.8Z</time></trkpt><trkpt lat="45.901840345011955" lon="12.004733411705892"><ele>262.57142857142856</ele><time>2026-04-25T06:53:05.8Z</time></trkpt><trkpt lat="45.90187444325295" lon="12.00484719149782"><ele>263.0</ele><time>2026-04-25T06:53:08.8Z</time></trkpt><trkpt lat="45.90190645914666" lon="12.00492708098279"><ele>265.83333333333337</ele><time>2026-04-25T06:53:10.8Z</time></trkpt><trkpt lat="45.90193846340249" lon="12.005006147045977"><ele>268.6666666666667</ele><time>2026-04-25T06:53:11.8Z</time></trkpt><trkpt lat="45.901956792727" lon="12.005117991108365"><ele>271.5</ele><time>2026-04-25T06:53:16.799Z</time></trkpt><trkpt lat="45.90195948920795" lon="12.005240776922047"><ele>274.3333333333333</ele><time>2026-04-25T06:53:19.799Z</time></trkpt><trkpt lat="45.90195503478169" lon="12.005380685395906"><ele>277.16666666666663</ele><time>2026-04-25T06:53:22.799Z</time></trkpt><trkpt lat="45.90193694888928" lon="12.00552664562923"><ele>280.0</ele><time>2026-04-25T06:53:24.799Z</time></trkpt><trkpt lat="45.90193620545126" lon="12.005686698588567"><ele>280.0</ele><time>2026-04-25T06:53:26.799Z</time></trkpt><trkpt lat="45.901934843253756" lon="12.005823727282408"><ele>280.0</ele><time>2026-04-25T06:53:28.799Z</time></trkpt><trkpt lat="45.90192760082005" lon="12.00595879138957"><ele>280.0</ele><time>2026-04-25T06:53:30.799Z</time></trkpt><trkpt lat="45.90191089690903" lon="12.006080707714244"><ele>280.0</ele><time>2026-04-25T06:53:32.799Z</time></trkpt><trkpt lat="45.9019168918664" lon="12.006212626903295"><ele>280.0</ele><time>2026-04-25T06:53:34.799Z</time></trkpt><trkpt lat="45.90193164784026" lon="12.0063551134536"><ele>280.5</ele><time>2026-04-25T06:53:36.799Z</time></trkpt><trkpt lat="45.901969881245094" lon="12.006473516234868"><ele>281.0</ele><time>2026-04-25T06:53:38.799Z</time></trkpt><trkpt lat="45.90200548891497" lon="12.0065654319972"><ele>281.5</ele><time>2026-04-25T06:53:40.799Z</time></trkpt><trkpt lat="45.90205032970899" lon="12.00664508675114"><ele>282.0</ele><time>2026-04-25T06:53:42.799Z</time></trkpt><trkpt lat="45.90210215471971" lon="12.006755789882726"><ele>282.5</ele><time>2026-04-25T06:53:44.799Z</time></trkpt><trkpt lat="45.90214480997324" lon="12.006854157877758"><ele>283.0</ele><time>2026-04-25T06:53:46.798Z</time></trkpt><trkpt lat="45.90218981493395" lon="12.006960275653986"><ele>283.5</ele><time>2026-04-25T06:53:48.798Z</time></trkpt><trkpt lat="45.90222198327729" lon="12.007038194966196"><ele>284.0</ele><time>2026-04-25T06:53:50.798Z</time></trkpt><trkpt lat="45.90224177423765" lon="12.00714136293973"><ele>284.5</ele><time>2026-04-25T06:53:52.798Z</time></trkpt><trkpt lat="45.9022678047193" lon="12.007275979620394"><ele>285.0</ele><time>2026-04-25T06:53:54.798Z</time></trkpt><trkpt lat="45.90227595034805" lon="12.00738703234126"><ele>285.5</ele><time>2026-04-25T06:53:56.798Z</time></trkpt><trkpt lat="45.902278965837695" lon="12.007522210063552"><ele>286.0</ele><time>2026-04-25T06:53:58.798Z</time></trkpt><trkpt lat="45.90229757634046" lon="12.007662292137653"><ele>286.40000000000003</ele><time>2026-04-25T06:54:00.798Z</time></trkpt><trkpt lat="45.902304599042026" lon="12.007787460024655"><ele>286.8</ele><time>2026-04-25T06:54:02.798Z</time></trkpt><trkpt lat="45.90231759765241" lon="12.007933990428674"><ele>287.20000000000005</ele><time>2026-04-25T06:54:04.798Z</time></trkpt><trkpt lat="45.90232950316928" lon="12.008079143994765"><ele>287.6</ele><time>2026-04-25T06:54:06.798Z</time></trkpt><trkpt lat="45.90233749378977" lon="12.00821908914621"><ele>288.0</ele><time>2026-04-25T06:54:08.798Z</time></trkpt><trkpt lat="45.90234736943469" lon="12.008351002312942"><ele>288.1666666666667</ele><time>2026-04-25T06:54:10.798Z</time></trkpt><trkpt lat="45.90236710928768" lon="12.008496492405017"><ele>288.3333333333333</ele><time>2026-04-25T06:54:12.798Z</time></trkpt><trkpt lat="45.902377291652584" lon="12.008602171103423"><ele>288.5</ele><time>2026-04-25T06:54:14.798Z</time></trkpt><trkpt lat="45.90238166941843" lon="12.00871940767334"><ele>288.66666666666663</ele><time>2026-04-25T06:54:16.798Z</time></trkpt><trkpt lat="45.9023856540454" lon="12.008861488984595"><ele>288.8333333333333</ele><time>2026-04-25T06:54:18.797Z</time></trkpt><trkpt lat="45.90239128214716" lon="12.008992395347663"><ele>289.0</ele><time>2026-04-25T06:54:20.797Z</time></trkpt><trkpt lat="45.90238111841187" lon="12.00912036490553"><ele>289.59999999999997</ele><time>2026-04-25T06:54:22.797Z</time></trkpt><trkpt lat="45.9023700244977" lon="12.009249912869906"><ele>290.2</ele><time>2026-04-25T06:54:24.797Z</time></trkpt><trkpt lat="45.90233607264135" lon="12.009378212681488"><ele>290.79999999999995</ele><time>2026-04-25T06:54:26.797Z</time></trkpt><trkpt lat="45.902308549122814" lon="12.009513706511587"><ele>291.4</ele><time>2026-04-25T06:54:28.797Z</time></trkpt><trkpt lat="45.902279203938974" lon="12.009656766674023"><ele>292.0</ele><time>2026-04-25T06:54:30.797Z</time></trkpt><trkpt lat="45.90225078851194" lon="12.009783017252706"><ele>292.0</ele><time>2026-04-25T06:54:32.797Z</time></trkpt><trkpt lat="45.902219007626016" lon="12.009911941053693"><ele>292.0</ele><time>2026-04-25T06:54:34.797Z</time></trkpt><trkpt lat="45.902184955726945" lon="12.01004719766224"><ele>292.0</ele><time>2026-04-25T06:54:36.797Z</time></trkpt><trkpt lat="45.902163677810634" lon="12.010175379252846"><ele>292.0</ele><time>2026-04-25T06:54:38.797Z</time></trkpt><trkpt lat="45.90212763868494" lon="12.01030887202477"><ele>292.0</ele><time>2026-04-25T06:54:40.797Z</time></trkpt><trkpt lat="45.90208778774359" lon="12.010436836190918"><ele>293.2</ele><time>2026-04-25T06:54:42.797Z</time></trkpt><trkpt lat="45.9020523479531" lon="12.010579126749521"><ele>294.4</ele><time>2026-04-25T06:54:44.797Z</time></trkpt><trkpt lat="45.90201223680796" lon="12.010723985196268"><ele>295.6</ele><time>2026-04-25T06:54:46.797Z</time></trkpt><trkpt lat="45.90197032672737" lon="12.010857035676"><ele>296.8</ele><time>2026-04-25T06:54:48.796Z</time></trkpt><trkpt lat="45.90195072910002" lon="12.01101518156034"><ele>298.0</ele><time>2026-04-25T06:54:50.796Z</time></trkpt><trkpt lat="45.9019043297983" lon="12.011140462205466"><ele>298.6</ele><time>2026-04-25T06:54:52.796Z</time></trkpt><trkpt lat="45.90186650034372" lon="12.011279369301858"><ele>299.20000000000005</ele><time>2026-04-25T06:54:54.796Z</time></trkpt><trkpt lat="45.901833697270575" lon="12.011416272527857"><ele>299.8</ele><time>2026-04-25T06:54:56.798Z</time></trkpt><trkpt lat="45.90180164209424" lon="12.011569982442772"><ele>300.40000000000003</ele><time>2026-04-25T06:54:58.798Z</time></trkpt><trkpt lat="45.901774920411675" lon="12.011727638935884"><ele>301.0</ele><time>2026-04-25T06:55:00.797Z</time></trkpt><trkpt lat="45.90172763476891" lon="12.011872894364515"><ele>301.0</ele><time>2026-04-25T06:55:02.798Z</time></trkpt><trkpt lat="45.90170484019818" lon="12.012017676266144"><ele>301.0</ele><time>2026-04-25T06:55:04.798Z</time></trkpt><trkpt lat="45.90167416841189" lon="12.012153624926164"><ele>301.0</ele><time>2026-04-25T06:55:06.797Z</time></trkpt><trkpt lat="45.901619594920184" lon="12.01229936339301"><ele>301.0</ele><time>2026-04-25T06:55:08.797Z</time></trkpt><trkpt lat="45.9015856078964" lon="12.012434710837512"><ele>301.0</ele><time>2026-04-25T06:55:10.797Z</time></trkpt><trkpt lat="45.901539600334225" lon="12.012582694523074"><ele>301.8</ele><time>2026-04-25T06:55:12.797Z</time></trkpt><trkpt lat="45.90149855804949" lon="12.012726439138925"><ele>302.6</ele><time>2026-04-25T06:55:14.797Z</time></trkpt><trkpt lat="45.90146229789986" lon="12.012871728853055"><ele>303.4</ele><time>2026-04-25T06:55:16.797Z</time></trkpt><trkpt lat="45.90142260782337" lon="12.013026781837288"><ele>304.2</ele><time>2026-04-25T06:55:18.797Z</time></trkpt><trkpt lat="45.90138152437469" lon="12.013175205519405"><ele>305.0</ele><time>2026-04-25T06:55:20.797Z</time></trkpt><trkpt lat="45.901338974443455" lon="12.013334045955276"><ele>305.4</ele><time>2026-04-25T06:55:22.797Z</time></trkpt><trkpt lat="45.90129935716399" lon="12.01348939900736"><ele>305.8</ele><time>2026-04-25T06:55:24.797Z</time></trkpt><trkpt lat="45.90124986065323" lon="12.013628232841128"><ele>306.2</ele><time>2026-04-25T06:55:26.797Z</time></trkpt><trkpt lat="45.90121688690596" lon="12.013781076472677"><ele>306.6</ele><time>2026-04-25T06:55:28.797Z</time></trkpt><trkpt lat="45.901181444242674" lon="12.013926564651058"><ele>307.0</ele><time>2026-04-25T06:55:30.797Z</time></trkpt><trkpt lat="45.901141419626704" lon="12.014075466069606"><ele>308.25</ele><time>2026-04-25T06:55:32.797Z</time></trkpt><trkpt lat="45.901104443598506" lon="12.014221654899943"><ele>309.5</ele><time>2026-04-25T06:55:34.797Z</time></trkpt><trkpt lat="45.901069926969264" lon="12.014377642211814"><ele>310.75</ele><time>2026-04-25T06:55:36.797Z</time></trkpt><trkpt lat="45.90103239804334" lon="12.01453279143799"><ele>312.0</ele><time>2026-04-25T06:55:38.797Z</time></trkpt><trkpt lat="45.900994652012606" lon="12.014686505928166"><ele>312.0</ele><time>2026-04-25T06:55:40.797Z</time></trkpt><trkpt lat="45.90095835991942" lon="12.014844315688045"><ele>312.0</ele><time>2026-04-25T06:55:42.796Z</time></trkpt><trkpt lat="45.900934425705586" lon="12.01499963400895"><ele>312.0</ele><time>2026-04-25T06:55:44.796Z</time></trkpt><trkpt lat="45.90089853251194" lon="12.01516367096888"><ele>312.0</ele><time>2026-04-25T06:55:46.796Z</time></trkpt><trkpt lat="45.90086749046736" lon="12.015320675409429"><ele>311.75</ele><time>2026-04-25T06:55:48.796Z</time></trkpt><trkpt lat="45.90086167874006" lon="12.015482018682226"><ele>311.5</ele><time>2026-04-25T06:55:50.796Z</time></trkpt><trkpt lat="45.900844524475886" lon="12.015645971076463"><ele>311.25</ele><time>2026-04-25T06:55:52.796Z</time></trkpt><trkpt lat="45.90081650571322" lon="12.015809207897227"><ele>311.0</ele><time>2026-04-25T06:55:54.796Z</time></trkpt><trkpt lat="45.900793570040534" lon="12.015968556898233"><ele>311.0</ele><time>2026-04-25T06:55:56.796Z</time></trkpt><trkpt lat="45.90077004969338" lon="12.016129140385885"><ele>311.0</ele><time>2026-04-25T06:55:58.796Z</time></trkpt><trkpt lat="45.90075640870696" lon="12.016303122225844"><ele>311.0</ele><time>2026-04-25T06:56:00.796Z</time></trkpt><trkpt lat="45.90073485933001" lon="12.016452053058549"><ele>311.0</ele><time>2026-04-25T06:56:02.796Z</time></trkpt><trkpt lat="45.90072479958794" lon="12.016607849576786"><ele>312.0</ele><time>2026-04-25T06:56:04.795Z</time></trkpt><trkpt lat="45.9007170994479" lon="12.016765354113723"><ele>313.0</ele><time>2026-04-25T06:56:06.794Z</time></trkpt><trkpt lat="45.900727195150864" lon="12.016935008439324"><ele>314.0</ele><time>2026-04-25T06:56:08.792Z</time></trkpt><trkpt lat="45.90070062658702" lon="12.01707850222111"><ele>315.0</ele><time>2026-04-25T06:56:10.791Z</time></trkpt><trkpt lat="45.900680562872736" lon="12.017227686239414"><ele>316.0</ele><time>2026-04-25T06:56:12.79Z</time></trkpt><trkpt lat="45.90065619578995" lon="12.017379639843847"><ele>316.8</ele><time>2026-04-25T06:56:14.79Z</time></trkpt><trkpt lat="45.90065137202406" lon="12.017543929511449"><ele>317.6</ele><time>2026-04-25T06:56:16.789Z</time></trkpt><trkpt lat="45.90064572325231" lon="12.017701963090056"><ele>318.4</ele><time>2026-04-25T06:56:18.788Z</time></trkpt><trkpt lat="45.90064450263959" lon="12.017867314772753"><ele>319.2</ele><time>2026-04-25T06:56:20.788Z</time></trkpt><trkpt lat="45.90065233675155" lon="12.01801860312357"><ele>320.0</ele><time>2026-04-25T06:56:22.787Z</time></trkpt><trkpt lat="45.90066215883349" lon="12.0181646614123"><ele>320.0</ele><time>2026-04-25T06:56:24.787Z</time></trkpt><trkpt lat="45.90067248409776" lon="12.01830545055667"><ele>320.0</ele><time>2026-04-25T06:56:26.786Z</time></trkpt><trkpt lat="45.900678365657086" lon="12.018442995737603"><ele>320.0</ele><time>2026-04-25T06:56:28.786Z</time></trkpt><trkpt lat="45.9006932478827" lon="12.01858626757841"><ele>320.0</ele><time>2026-04-25T06:56:30.785Z</time></trkpt><trkpt lat="45.90068941099526" lon="12.018684827163247"><ele>320.0</ele><time>2026-04-25T06:56:32.785Z</time></trkpt><trkpt lat="45.90063789494247" lon="12.01875424151081"><ele>320.0</ele><time>2026-04-25T06:56:35.785Z</time></trkpt><trkpt lat="45.9005123901975" lon="12.01871760269735"><ele>320.33333333333337</ele><time>2026-04-25T06:56:37.784Z</time></trkpt><trkpt lat="45.900396757549125" lon="12.018643359019439"><ele>320.6666666666667</ele><time>2026-04-25T06:56:39.784Z</time></trkpt><trkpt lat="45.90032935853943" lon="12.018608176283742"><ele>321.0</ele><time>2026-04-25T06:56:40.784Z</time></trkpt><trkpt lat="45.9002623636514" lon="12.018576800987843"><ele>321.3333333333333</ele><time>2026-04-25T06:56:41.784Z</time></trkpt><trkpt lat="45.90019102768989" lon="12.01853848398305"><ele>321.66666666666663</ele><time>2026-04-25T06:56:42.784Z</time></trkpt><trkpt lat="45.90012507131478" lon="12.018483201737453"><ele>322.0</ele><time>2026-04-25T06:56:43.784Z</time></trkpt><trkpt lat="45.900053229166545" lon="12.018438159221283"><ele>320.8</ele><time>2026-04-25T06:56:44.784Z</time></trkpt><trkpt lat="45.899943207865235" lon="12.018438434175204"><ele>319.6</ele><time>2026-04-25T06:56:46.784Z</time></trkpt><trkpt lat="45.89987332539534" lon="12.01845661808125"><ele>318.40000000000003</ele><time>2026-04-25T06:56:47.784Z</time></trkpt><trkpt lat="45.89980419756557" lon="12.018454840560002"><ele>317.20000000000005</ele><time>2026-04-25T06:56:48.783Z</time></trkpt><trkpt lat="45.899688245130335" lon="12.01844275865088"><ele>316.0</ele><time>2026-04-25T06:56:50.783Z</time></trkpt><trkpt lat="45.89958548607902" lon="12.018466385568415"><ele>316.0</ele><time>2026-04-25T06:56:52.783Z</time></trkpt><trkpt lat="45.89952111846677" lon="12.018550924514974"><ele>316.0</ele><time>2026-04-25T06:56:53.783Z</time></trkpt><trkpt lat="45.89948611978077" lon="12.018637450627441"><ele>316.0</ele><time>2026-04-25T06:56:54.783Z</time></trkpt><trkpt lat="45.899485745834454" lon="12.018749410893854"><ele>316.0</ele><time>2026-04-25T06:56:55.783Z</time></trkpt><trkpt lat="45.89944277635662" lon="12.018868618806339"><ele>316.0</ele><time>2026-04-25T06:56:56.783Z</time></trkpt><trkpt lat="45.89941025835901" lon="12.019008911985145"><ele>316.0</ele><time>2026-04-25T06:56:57.783Z</time></trkpt><trkpt lat="45.8993791656973" lon="12.019161010099278"><ele>316.5</ele><time>2026-04-25T06:56:58.783Z</time></trkpt><trkpt lat="45.89933976934591" lon="12.019295380997722"><ele>317.0</ele><time>2026-04-25T06:56:59.783Z</time></trkpt><trkpt lat="45.899308308965885" lon="12.019392405838035"><ele>317.5</ele><time>2026-04-25T06:57:00.783Z</time></trkpt><trkpt lat="45.89924306439877" lon="12.019540042389245"><ele>318.0</ele><time>2026-04-25T06:57:02.784Z</time></trkpt><trkpt lat="45.89920025868083" lon="12.019608363043464"><ele>318.5</ele><time>2026-04-25T06:57:03.784Z</time></trkpt><trkpt lat="45.899152910360485" lon="12.01967803798718"><ele>319.0</ele><time>2026-04-25T06:57:04.784Z</time></trkpt><trkpt lat="45.899086488029994" lon="12.019847530029477"><ele>316.66666666666663</ele><time>2026-04-25T06:57:06.783Z</time></trkpt><trkpt lat="45.899048034404515" lon="12.019949124783617"><ele>314.3333333333333</ele><time>2026-04-25T06:57:07.783Z</time></trkpt><trkpt lat="45.8990145176796" lon="12.020057363987245"><ele>312.0</ele><time>2026-04-25T06:57:08.783Z</time></trkpt><trkpt lat="45.89899372764794" lon="12.020166460962994"><ele>309.6666666666667</ele><time>2026-04-25T06:57:09.783Z</time></trkpt><trkpt lat="45.89897726875277" lon="12.020266630280249"><ele>307.33333333333337</ele><time>2026-04-25T06:57:10.783Z</time></trkpt><trkpt lat="45.89896516019688" lon="12.020364879047195"><ele>305.0</ele><time>2026-04-25T06:57:11.783Z</time></trkpt><trkpt lat="45.89897131310412" lon="12.020470749427645"><ele>303.6666666666667</ele><time>2026-04-25T06:57:12.783Z</time></trkpt><trkpt lat="45.899005468243" lon="12.020579134696812"><ele>302.33333333333337</ele><time>2026-04-25T06:57:13.783Z</time></trkpt><trkpt lat="45.89905977524176" lon="12.020685673891366"><ele>301.0</ele><time>2026-04-25T06:57:14.783Z</time></trkpt><trkpt lat="45.899106160327946" lon="12.020771768365524"><ele>299.6666666666667</ele><time>2026-04-25T06:57:15.782Z</time></trkpt><trkpt lat="45.899123822087155" lon="12.020920915682957"><ele>298.3333333333333</ele><time>2026-04-25T06:57:17.782Z</time></trkpt><trkpt lat="45.899098545291714" lon="12.021011870431341"><ele>297.0</ele><time>2026-04-25T06:57:18.782Z</time></trkpt><trkpt lat="45.89904933157606" lon="12.021099186474427"><ele>294.8</ele><time>2026-04-25T06:57:19.782Z</time></trkpt><trkpt lat="45.89898550530212" lon="12.021168681883712"><ele>292.6</ele><time>2026-04-25T06:57:20.782Z</time></trkpt><trkpt lat="45.898931467471435" lon="12.021276219582349"><ele>290.40000000000003</ele><time>2026-04-25T06:57:21.782Z</time></trkpt><trkpt lat="45.898899495280794" lon="12.021411404177199"><ele>288.2</ele><time>2026-04-25T06:57:22.782Z</time></trkpt><trkpt lat="45.898884562880674" lon="12.0215517361584"><ele>286.0</ele><time>2026-04-25T06:57:23.782Z</time></trkpt><trkpt lat="45.898880943254355" lon="12.021706929149406"><ele>284.6</ele><time>2026-04-25T06:57:24.782Z</time></trkpt><trkpt lat="45.89889492092237" lon="12.021873059410217"><ele>283.20000000000005</ele><time>2026-04-25T06:57:25.782Z</time></trkpt><trkpt lat="45.89891825623565" lon="12.022034823331186"><ele>281.79999999999995</ele><time>2026-04-25T06:57:26.782Z</time></trkpt><trkpt lat="45.898942237947566" lon="12.022190359855749"><ele>280.4</ele><time>2026-04-25T06:57:27.782Z</time></trkpt><trkpt lat="45.89896090713397" lon="12.022321686456342"><ele>279.0</ele><time>2026-04-25T06:57:28.782Z</time></trkpt><trkpt lat="45.898966676565436" lon="12.02242589092942"><ele>277.6666666666667</ele><time>2026-04-25T06:57:29.782Z</time></trkpt><trkpt lat="45.89893892212318" lon="12.022543797959605"><ele>276.3333333333333</ele><time>2026-04-25T06:57:31.782Z</time></trkpt><trkpt lat="45.898885534131594" lon="12.022620090201288"><ele>275.0</ele><time>2026-04-25T06:57:33.782Z</time></trkpt><trkpt lat="45.89880683943369" lon="12.022673061125637"><ele>273.66666666666663</ele><time>2026-04-25T06:57:35.782Z</time></trkpt><trkpt lat="45.89874392152543" lon="12.022740657385738"><ele>272.3333333333333</ele><time>2026-04-25T06:57:36.782Z</time></trkpt><trkpt lat="45.8986563962056" lon="12.022802341512724"><ele>271.0</ele><time>2026-04-25T06:57:38.782Z</time></trkpt><trkpt lat="45.89858397004264" lon="12.022829320201579"><ele>271.0</ele><time>2026-04-25T06:57:39.782Z</time></trkpt><trkpt lat="45.89849827654691" lon="12.02281540240957"><ele>271.0</ele><time>2026-04-25T06:57:40.781Z</time></trkpt><trkpt lat="45.89842306336815" lon="12.022805885785779"><ele>271.0</ele><time>2026-04-25T06:57:41.781Z</time></trkpt><trkpt lat="45.89834085659241" lon="12.022808380268193"><ele>271.0</ele><time>2026-04-25T06:57:42.781Z</time></trkpt><trkpt lat="45.898252966539005" lon="12.022809046087787"><ele>271.0</ele><time>2026-04-25T06:57:43.781Z</time></trkpt><trkpt lat="45.898151727538945" lon="12.022795370986598"><ele>271.0</ele><time>2026-04-25T06:57:44.781Z</time></trkpt><trkpt lat="45.898047513443224" lon="12.022751986620287"><ele>271.0</ele><time>2026-04-25T06:57:45.781Z</time></trkpt><trkpt lat="45.89795010693417" lon="12.022708817585087"><ele>271.0</ele><time>2026-04-25T06:57:46.781Z</time></trkpt><trkpt lat="45.89786324199535" lon="12.02267435152478"><ele>271.0</ele><time>2026-04-25T06:57:47.781Z</time></trkpt><trkpt lat="45.89778105618119" lon="12.0226451009585"><ele>271.0</ele><time>2026-04-25T06:57:48.781Z</time></trkpt><trkpt lat="45.89770737497296" lon="12.022629749266683"><ele>271.0</ele><time>2026-04-25T06:57:49.781Z</time></trkpt><trkpt lat="45.89762777048847" lon="12.022614527848845"><ele>271.0</ele><time>2026-04-25T06:57:50.781Z</time></trkpt><trkpt lat="45.89755402117164" lon="12.022606030580718"><ele>271.0</ele><time>2026-04-25T06:57:51.781Z</time></trkpt><trkpt lat="45.89748825765767" lon="12.02261076380132"><ele>271.0</ele><time>2026-04-25T06:57:52.781Z</time></trkpt><trkpt lat="45.89738395509626" lon="12.022637876339592"><ele>271.0</ele><time>2026-04-25T06:57:54.781Z</time></trkpt><trkpt lat="45.89728811422719" lon="12.022618768282895"><ele>271.0</ele><time>2026-04-25T06:57:56.781Z</time></trkpt><trkpt lat="45.89720611771589" lon="12.022575963221469"><ele>271.0</ele><time>2026-04-25T06:57:58.781Z</time></trkpt><trkpt lat="45.89712290959563" lon="12.022548363770474"><ele>271.0</ele><time>2026-04-25T06:58:00.781Z</time></trkpt><trkpt lat="45.89704033594958" lon="12.02253169152976"><ele>271.0</ele><time>2026-04-25T06:58:02.781Z</time></trkpt><trkpt lat="45.896947180944565" lon="12.022514408508519"><ele>271.0</ele><time>2026-04-25T06:58:05.781Z</time></trkpt><trkpt lat="45.89688055817444" lon="12.02250727107148"><ele>271.0</ele><time>2026-04-25T06:58:07.781Z</time></trkpt><trkpt lat="45.896788316573506" lon="12.022505879332664"><ele>271.0</ele><time>2026-04-25T06:58:10.78Z</time></trkpt><trkpt lat="45.89670759272733" lon="12.022517389514752"><ele>271.0</ele><time>2026-04-25T06:58:13.78Z</time></trkpt><trkpt lat="45.89661883839286" lon="12.022504982581294"><ele>271.0</ele><time>2026-04-25T06:58:16.78Z</time></trkpt><trkpt lat="45.89654030898324" lon="12.022460543474011"><ele>269.5</ele><time>2026-04-25T06:58:20.78Z</time></trkpt><trkpt lat="45.896485624273" lon="12.022413811040325"><ele>268.0</ele><time>2026-04-25T06:58:22.78Z</time></trkpt><trkpt lat="45.89642108509548" lon="12.022338074904479"><ele>266.5</ele><time>2026-04-25T06:58:25.78Z</time></trkpt><trkpt lat="45.896355834268014" lon="12.022268444588729"><ele>265.0</ele><time>2026-04-25T06:58:28.78Z</time></trkpt><trkpt lat="45.89627035969714" lon="12.022194563369037"><ele>263.5</ele><time>2026-04-25T06:58:31.78Z</time></trkpt><trkpt lat="45.896206583487974" lon="12.02212943879617"><ele>262.0</ele><time>2026-04-25T06:58:33.78Z</time></trkpt><trkpt lat="45.89612559448101" lon="12.022058051253728"><ele>262.0</ele><time>2026-04-25T06:58:35.78Z</time></trkpt><trkpt lat="45.8960404069766" lon="12.021978021094034"><ele>262.0</ele><time>2026-04-25T06:58:37.78Z</time></trkpt><trkpt lat="45.89593596091589" lon="12.021885373115179"><ele>262.0</ele><time>2026-04-25T06:58:39.78Z</time></trkpt><trkpt lat="45.89587977341104" lon="12.021838714872894"><ele>262.0</ele><time>2026-04-25T06:58:40.78Z</time></trkpt><trkpt lat="45.89577394463354" lon="12.021767620761256"><ele>262.0</ele><time>2026-04-25T06:58:42.78Z</time></trkpt><trkpt lat="45.895715455209924" lon="12.021720337722973"><ele>262.2</ele><time>2026-04-25T06:58:43.78Z</time></trkpt><trkpt lat="45.89565707906118" lon="12.021670249809675"><ele>262.4</ele><time>2026-04-25T06:58:44.78Z</time></trkpt><trkpt lat="45.89555150999542" lon="12.02155541521324"><ele>262.6</ele><time>2026-04-25T06:58:46.78Z</time></trkpt><trkpt lat="45.895501359364545" lon="12.021491780108684"><ele>262.8</ele><time>2026-04-25T06:58:47.78Z</time></trkpt><trkpt lat="45.89545051208485" lon="12.02143841317668"><ele>263.0</ele><time>2026-04-25T06:58:48.78Z</time></trkpt><trkpt lat="45.895351830457656" lon="12.02133278716079"><ele>263.0</ele><time>2026-04-25T06:58:50.779Z</time></trkpt><trkpt lat="45.89525552586244" lon="12.021274055394782"><ele>263.0</ele><time>2026-04-25T06:58:52.779Z</time></trkpt><trkpt lat="45.89513657845101" lon="12.021211525722261"><ele>263.0</ele><time>2026-04-25T06:58:54.779Z</time></trkpt><trkpt lat="45.895059290716006" lon="12.021183760097495"><ele>263.0</ele><time>2026-04-25T06:58:55.779Z</time></trkpt><trkpt lat="45.89497704873552" lon="12.021148825481843"><ele>263.0</ele><time>2026-04-25T06:58:56.779Z</time></trkpt><trkpt lat="45.89491264588506" lon="12.021100071457129"><ele>264.0</ele><time>2026-04-25T06:58:57.779Z</time></trkpt><trkpt lat="45.89485713344988" lon="12.021037001312992"><ele>265.0</ele><time>2026-04-25T06:58:58.779Z</time></trkpt><trkpt lat="45.89479566049449" lon="12.02093891377395"><ele>266.0</ele><time>2026-04-25T06:58:59.779Z</time></trkpt><trkpt lat="45.8947268081424" lon="12.020829617363939"><ele>267.0</ele><time>2026-04-25T06:59:00.779Z</time></trkpt><trkpt lat="45.89466051987297" lon="12.020705073290697"><ele>268.0</ele><time>2026-04-25T06:59:01.779Z</time></trkpt><trkpt lat="45.89459180224843" lon="12.020552640762405"><ele>268.0</ele><time>2026-04-25T06:59:02.779Z</time></trkpt><trkpt lat="45.89452634918657" lon="12.020403750836186"><ele>268.0</ele><time>2026-04-25T06:59:03.779Z</time></trkpt><trkpt lat="45.894463886977405" lon="12.020268498592893"><ele>268.0</ele><time>2026-04-25T06:59:04.779Z</time></trkpt><trkpt lat="45.89439480717445" lon="12.020139940795895"><ele>268.0</ele><time>2026-04-25T06:59:05.779Z</time></trkpt><trkpt lat="45.89432976390406" lon="12.020006573295644"><ele>269.4</ele><time>2026-04-25T06:59:06.779Z</time></trkpt><trkpt lat="45.894265903624444" lon="12.0198698140989"><ele>270.8</ele><time>2026-04-25T06:59:07.779Z</time></trkpt><trkpt lat="45.89417879597547" lon="12.019761027453724"><ele>272.2</ele><time>2026-04-25T06:59:08.78Z</time></trkpt><trkpt lat="45.89409507067819" lon="12.019675112007242"><ele>273.6</ele><time>2026-04-25T06:59:09.781Z</time></trkpt><trkpt lat="45.894029336655194" lon="12.01960426938175"><ele>275.0</ele><time>2026-04-25T06:59:10.78Z</time></trkpt><trkpt lat="45.893966061592195" lon="12.019543168960451"><ele>275.0</ele><time>2026-04-25T06:59:11.78Z</time></trkpt><trkpt lat="45.8939018594064" lon="12.01951094483578"><ele>275.0</ele><time>2026-04-25T06:59:12.78Z</time></trkpt><trkpt lat="45.893771867519575" lon="12.019534681036246"><ele>275.0</ele><time>2026-04-25T06:59:14.781Z</time></trkpt><trkpt lat="45.893711440350984" lon="12.019579188508823"><ele>275.0</ele><time>2026-04-25T06:59:15.78Z</time></trkpt><trkpt lat="45.8936413168197" lon="12.019727762777578"><ele>275.0</ele><time>2026-04-25T06:59:17.78Z</time></trkpt><trkpt lat="45.893625596409166" lon="12.01982312280683"><ele>275.0</ele><time>2026-04-25T06:59:18.78Z</time></trkpt><trkpt lat="45.893616450085155" lon="12.019929279159719"><ele>275.0</ele><time>2026-04-25T06:59:19.78Z</time></trkpt><trkpt lat="45.8936101711318" lon="12.020037089583134"><ele>275.0</ele><time>2026-04-25T06:59:20.78Z</time></trkpt><trkpt lat="45.89359301232564" lon="12.02013475388195"><ele>275.0</ele><time>2026-04-25T06:59:21.78Z</time></trkpt><trkpt lat="45.89356455089802" lon="12.020225960024527"><ele>275.0</ele><time>2026-04-25T06:59:22.78Z</time></trkpt><trkpt lat="45.89350495823415" lon="12.020303917213395"><ele>275.0</ele><time>2026-04-25T06:59:23.78Z</time></trkpt><trkpt lat="45.89344943224413" lon="12.020388260074515"><ele>272.5</ele><time>2026-04-25T06:59:24.78Z</time></trkpt><trkpt lat="45.89340165808756" lon="12.020469262759862"><ele>270.0</ele><time>2026-04-25T06:59:25.78Z</time></trkpt><trkpt lat="45.89334403901611" lon="12.020539571839965"><ele>267.5</ele><time>2026-04-25T06:59:26.78Z</time></trkpt><trkpt lat="45.89326257520737" lon="12.020608821318076"><ele>265.0</ele><time>2026-04-25T06:59:27.78Z</time></trkpt><trkpt lat="45.89316962152476" lon="12.02066490961549"><ele>262.5</ele><time>2026-04-25T06:59:28.78Z</time></trkpt><trkpt lat="45.89309071745197" lon="12.020706706319226"><ele>260.0</ele><time>2026-04-25T06:59:29.78Z</time></trkpt><trkpt lat="45.89301162096311" lon="12.02073915089969"><ele>260.0</ele><time>2026-04-25T06:59:30.78Z</time></trkpt><trkpt lat="45.89293377632358" lon="12.020795210289814"><ele>260.0</ele><time>2026-04-25T06:59:31.78Z</time></trkpt><trkpt lat="45.892843908355005" lon="12.020843851264534"><ele>260.0</ele><time>2026-04-25T06:59:32.78Z</time></trkpt><trkpt lat="45.89276084720243" lon="12.020855243389546"><ele>260.0</ele><time>2026-04-25T06:59:33.78Z</time></trkpt><trkpt lat="45.89266842233672" lon="12.020851766658883"><ele>260.0</ele><time>2026-04-25T06:59:34.78Z</time></trkpt><trkpt lat="45.8925847303836" lon="12.020824402181507"><ele>260.0</ele><time>2026-04-25T06:59:35.78Z</time></trkpt><trkpt lat="45.89250812603127" lon="12.020790313033737"><ele>256.0</ele><time>2026-04-25T06:59:36.78Z</time></trkpt><trkpt lat="45.89243265295177" lon="12.02074591328067"><ele>252.0</ele><time>2026-04-25T06:59:37.78Z</time></trkpt><trkpt lat="45.892353922488006" lon="12.020695844054279"><ele>248.0</ele><time>2026-04-25T06:59:38.78Z</time></trkpt><trkpt lat="45.89227080451665" lon="12.020626459716896"><ele>244.0</ele><time>2026-04-25T06:59:39.78Z</time></trkpt><trkpt lat="45.89218613808778" lon="12.020556797994756"><ele>240.00000000000003</ele><time>2026-04-25T06:59:40.78Z</time></trkpt><trkpt lat="45.89211538712463" lon="12.020506421831723"><ele>236.0</ele><time>2026-04-25T06:59:41.78Z</time></trkpt><trkpt lat="45.892046480500476" lon="12.02045574017955"><ele>236.00000000000003</ele><time>2026-04-25T06:59:42.78Z</time></trkpt><trkpt lat="45.89199133728115" lon="12.020411413457794"><ele>236.0</ele><time>2026-04-25T06:59:43.78Z</time></trkpt><trkpt lat="45.891939157479605" lon="12.020316955425256"><ele>236.0</ele><time>2026-04-25T06:59:44.78Z</time></trkpt><trkpt lat="45.891910027431905" lon="12.020193486066697"><ele>236.0</ele><time>2026-04-25T06:59:45.78Z</time></trkpt><trkpt lat="45.891891114697216" lon="12.020062034077565"><ele>236.00000000000003</ele><time>2026-04-25T06:59:46.78Z</time></trkpt><trkpt lat="45.891864393630534" lon="12.019930296965638"><ele>236.0</ele><time>2026-04-25T06:59:47.78Z</time></trkpt><trkpt lat="45.891837022481376" lon="12.019793917708249"><ele>233.0</ele><time>2026-04-25T06:59:48.78Z</time></trkpt><trkpt lat="45.891801388665705" lon="12.019652931714809"><ele>230.00000000000003</ele><time>2026-04-25T06:59:49.78Z</time></trkpt><trkpt lat="45.89177234133846" lon="12.01950851025602"><ele>227.00000000000003</ele><time>2026-04-25T06:59:50.779Z</time></trkpt><trkpt lat="45.89174680915213" lon="12.01935658678502"><ele>224.0</ele><time>2026-04-25T06:59:51.779Z</time></trkpt><trkpt lat="45.89172045669612" lon="12.019213073083193"><ele>221.0</ele><time>2026-04-25T06:59:52.779Z</time></trkpt><trkpt lat="45.891699446713105" lon="12.019073081435327"><ele>221.0</ele><time>2026-04-25T06:59:53.779Z</time></trkpt><trkpt lat="45.89168838880589" lon="12.018920241482107"><ele>221.00000000000003</ele><time>2026-04-25T06:59:54.779Z</time></trkpt><trkpt lat="45.891673706065994" lon="12.01877031772414"><ele>221.00000000000003</ele><time>2026-04-25T06:59:55.779Z</time></trkpt><trkpt lat="45.891660685527256" lon="12.018616599287535"><ele>221.0</ele><time>2026-04-25T06:59:56.779Z</time></trkpt><trkpt lat="45.89164591576618" lon="12.018463983885676"><ele>221.0</ele><time>2026-04-25T06:59:57.779Z</time></trkpt><trkpt lat="45.89163151090622" lon="12.018301711693445"><ele>224.0</ele><time>2026-04-25T06:59:58.779Z</time></trkpt><trkpt lat="45.89161600788867" lon="12.018139274082362"><ele>227.0</ele><time>2026-04-25T06:59:59.779Z</time></trkpt><trkpt lat="45.89159049380333" lon="12.017982098907162"><ele>230.0</ele><time>2026-04-25T07:00:00.779Z</time></trkpt><trkpt lat="45.89153451721622" lon="12.017823724467329"><ele>233.0</ele><time>2026-04-25T07:00:01.779Z</time></trkpt><trkpt lat="45.89144995022048" lon="12.017688394232712"><ele>233.0</ele><time>2026-04-25T07:00:02.779Z</time></trkpt><trkpt lat="45.89135773621049" lon="12.017580850466222"><ele>233.0</ele><time>2026-04-25T07:00:03.779Z</time></trkpt><trkpt lat="45.8912566415067" lon="12.01748728568282"><ele>233.0</ele><time>2026-04-25T07:00:04.779Z</time></trkpt><trkpt lat="45.89115449104505" lon="12.017392259142"><ele>233.0</ele><time>2026-04-25T07:00:05.779Z</time></trkpt><trkpt lat="45.89104629150128" lon="12.01732008507628"><ele>231.0</ele><time>2026-04-25T07:00:06.779Z</time></trkpt><trkpt lat="45.890932492354715" lon="12.017290196088183"><ele>229.0</ele><time>2026-04-25T07:00:07.779Z</time></trkpt><trkpt lat="45.89081851142689" lon="12.017266624969412"><ele>227.0</ele><time>2026-04-25T07:00:08.779Z</time></trkpt><trkpt lat="45.89071306723423" lon="12.01722993684958"><ele>225.0</ele><time>2026-04-25T07:00:09.779Z</time></trkpt><trkpt lat="45.89060024198643" lon="12.017190903353983"><ele>225.0</ele><time>2026-04-25T07:00:10.779Z</time></trkpt><trkpt lat="45.890483660045874" lon="12.017147719470069"><ele>225.0</ele><time>2026-04-25T07:00:11.779Z</time></trkpt><trkpt lat="45.89036608826794" lon="12.0170912425232"><ele>225.0</ele><time>2026-04-25T07:00:12.779Z</time></trkpt><trkpt lat="45.89024365072503" lon="12.017026007660595"><ele>225.0</ele><time>2026-04-25T07:00:13.779Z</time></trkpt><trkpt lat="45.89012372092924" lon="12.016940971180526"><ele>227.25</ele><time>2026-04-25T07:00:14.779Z</time></trkpt><trkpt lat="45.88999667509166" lon="12.016857015656326"><ele>229.5</ele><time>2026-04-25T07:00:15.779Z</time></trkpt><trkpt lat="45.889868466720614" lon="12.016769238373463"><ele>231.75</ele><time>2026-04-25T07:00:16.779Z</time></trkpt><trkpt lat="45.88974364597006" lon="12.01667607218345"><ele>234.0</ele><time>2026-04-25T07:00:17.779Z</time></trkpt><trkpt lat="45.88961908855938" lon="12.016583035677122"><ele>234.0</ele><time>2026-04-25T07:00:18.779Z</time></trkpt><trkpt lat="45.889495259894474" lon="12.01649329764201"><ele>234.0</ele><time>2026-04-25T07:00:19.778Z</time></trkpt><trkpt lat="45.88937395180883" lon="12.016410579536181"><ele>234.0</ele><time>2026-04-25T07:00:20.778Z</time></trkpt><trkpt lat="45.889256528594174" lon="12.01633460241707"><ele>234.0</ele><time>2026-04-25T07:00:21.778Z</time></trkpt><trkpt lat="45.88914241932154" lon="12.016257425462813"><ele>229.75</ele><time>2026-04-25T07:00:22.778Z</time></trkpt><trkpt lat="45.8890310820901" lon="12.016187701828047"><ele>225.5</ele><time>2026-04-25T07:00:23.778Z</time></trkpt><trkpt lat="45.888925371264264" lon="12.01611836616326"><ele>221.25</ele><time>2026-04-25T07:00:24.778Z</time></trkpt><trkpt lat="45.888820745475435" lon="12.016049340285393"><ele>217.0</ele><time>2026-04-25T07:00:25.778Z</time></trkpt><trkpt lat="45.888717925396115" lon="12.015983837846111"><ele>217.0</ele><time>2026-04-25T07:00:26.778Z</time></trkpt><trkpt lat="45.88862557530045" lon="12.015914333050938"><ele>217.0</ele><time>2026-04-25T07:00:27.778Z</time></trkpt><trkpt lat="45.888537714511294" lon="12.01585332363897"><ele>217.0</ele><time>2026-04-25T07:00:28.778Z</time></trkpt><trkpt lat="45.88845367481368" lon="12.015786554612452"><ele>217.0</ele><time>2026-04-25T07:00:29.778Z</time></trkpt><trkpt lat="45.88837300868374" lon="12.015720488143254"><ele>217.0</ele><time>2026-04-25T07:00:30.778Z</time></trkpt><trkpt lat="45.8883004178063" lon="12.015657879895011"><ele>217.16666666666666</ele><time>2026-04-25T07:00:31.778Z</time></trkpt><trkpt lat="45.88823315705145" lon="12.015596961313834"><ele>217.33333333333331</ele><time>2026-04-25T07:00:32.778Z</time></trkpt><trkpt lat="45.88817209350274" lon="12.01552008377107"><ele>217.5</ele><time>2026-04-25T07:00:33.778Z</time></trkpt><trkpt lat="45.888121739665024" lon="12.01545657109301"><ele>217.66666666666669</ele><time>2026-04-25T07:00:34.778Z</time></trkpt><trkpt lat="45.888068992431634" lon="12.015381698572476"><ele>217.83333333333334</ele><time>2026-04-25T07:00:35.778Z</time></trkpt><trkpt lat="45.88798341792496" lon="12.015266733998857"><ele>218.0</ele><time>2026-04-25T07:00:37.778Z</time></trkpt><trkpt lat="45.88790424446756" lon="12.015173585384138"><ele>218.00000000000003</ele><time>2026-04-25T07:00:39.778Z</time></trkpt><trkpt lat="45.88783035283198" lon="12.015090606365465"><ele>218.0</ele><time>2026-04-25T07:00:41.778Z</time></trkpt><trkpt lat="45.88777200605984" lon="12.01500616083507"><ele>218.0</ele><time>2026-04-25T07:00:43.778Z</time></trkpt><trkpt lat="45.88770496961357" lon="12.014924712538402"><ele>218.0</ele><time>2026-04-25T07:00:45.778Z</time></trkpt><trkpt lat="45.88765077041578" lon="12.014856506324215"><ele>218.00000000000003</ele><time>2026-04-25T07:00:47.777Z</time></trkpt><trkpt lat="45.887590484891135" lon="12.014797708702536"><ele>218.0</ele><time>2026-04-25T07:00:49.777Z</time></trkpt><trkpt lat="45.88753000425309" lon="12.014720746531486"><ele>219.00000000000003</ele><time>2026-04-25T07:00:51.777Z</time></trkpt><trkpt lat="45.887470608261054" lon="12.014645789910388"><ele>220.0</ele><time>2026-04-25T07:00:53.777Z</time></trkpt><trkpt lat="45.88741422819781" lon="12.014571923806816"><ele>221.0</ele><time>2026-04-25T07:00:55.777Z</time></trkpt><trkpt lat="45.88735946095608" lon="12.014514801308163"><ele>222.0</ele><time>2026-04-25T07:00:57.777Z</time></trkpt><trkpt lat="45.887298763694616" lon="12.014444877907618"><ele>223.00000000000003</ele><time>2026-04-25T07:00:59.777Z</time></trkpt><trkpt lat="45.88723240138441" lon="12.014384589457647"><ele>224.0</ele><time>2026-04-25T07:01:01.777Z</time></trkpt><trkpt lat="45.88716986388813" lon="12.014324345046193"><ele>224.00000000000003</ele><time>2026-04-25T07:01:03.777Z</time></trkpt><trkpt lat="45.88711762773035" lon="12.014249748302486"><ele>224.0</ele><time>2026-04-25T07:01:05.777Z</time></trkpt><trkpt lat="45.887043199519354" lon="12.014188387400848"><ele>224.0</ele><time>2026-04-25T07:01:07.777Z</time></trkpt><trkpt lat="45.88697120951243" lon="12.014118972489875"><ele>224.0</ele><time>2026-04-25T07:01:09.777Z</time></trkpt><trkpt lat="45.88688391661043" lon="12.014065835550774"><ele>224.00000000000003</ele><time>2026-04-25T07:01:11.777Z</time></trkpt><trkpt lat="45.88678624052924" lon="12.014011336058875"><ele>224.0</ele><time>2026-04-25T07:01:13.777Z</time></trkpt><trkpt lat="45.88667998225842" lon="12.013953577422658"><ele>223.6</ele><time>2026-04-25T07:01:15.777Z</time></trkpt><trkpt lat="45.886574984860424" lon="12.01387232997616"><ele>223.2</ele><time>2026-04-25T07:01:17.777Z</time></trkpt><trkpt lat="45.88648326592215" lon="12.013729500299357"><ele>222.79999999999998</ele><time>2026-04-25T07:01:19.776Z</time></trkpt><trkpt lat="45.886441115212016" lon="12.013636648890962"><ele>222.39999999999998</ele><time>2026-04-25T07:01:20.777Z</time></trkpt><trkpt lat="45.886407111281436" lon="12.013530042836715"><ele>222.0</ele><time>2026-04-25T07:01:21.777Z</time></trkpt><trkpt lat="45.88637615876522" lon="12.013425093154833"><ele>222.33333333333334</ele><time>2026-04-25T07:01:22.777Z</time></trkpt><trkpt lat="45.88635050198025" lon="12.01332035772648"><ele>222.66666666666669</ele><time>2026-04-25T07:01:23.776Z</time></trkpt><trkpt lat="45.88632131016498" lon="12.013213143140138"><ele>223.0</ele><time>2026-04-25T07:01:24.777Z</time></trkpt><trkpt lat="45.88628417322839" lon="12.013107252516248"><ele>223.33333333333334</ele><time>2026-04-25T07:01:25.777Z</time></trkpt><trkpt lat="45.886253484945506" lon="12.012999388469368"><ele>223.66666666666669</ele><time>2026-04-25T07:01:26.776Z</time></trkpt><trkpt lat="45.886220133130564" lon="12.012896029577897"><ele>224.0</ele><time>2026-04-25T07:01:27.777Z</time></trkpt><trkpt lat="45.88618190354133" lon="12.012790381874275"><ele>224.0</ele><time>2026-04-25T07:01:28.777Z</time></trkpt><trkpt lat="45.88614562201319" lon="12.012690315467985"><ele>223.99999999999997</ele><time>2026-04-25T07:01:29.777Z</time></trkpt><trkpt lat="45.886103094313455" lon="12.012577083136389"><ele>223.99999999999997</ele><time>2026-04-25T07:01:30.777Z</time></trkpt><trkpt lat="45.886049192582156" lon="12.012471080952816"><ele>224.0</ele><time>2026-04-25T07:01:31.777Z</time></trkpt><trkpt lat="45.88597771240578" lon="12.012365496552194"><ele>224.0</ele><time>2026-04-25T07:01:32.777Z</time></trkpt><trkpt lat="45.885908334121545" lon="12.012258941967348"><ele>220.79999999999998</ele><time>2026-04-25T07:01:33.777Z</time></trkpt><trkpt lat="45.88583476144309" lon="12.012148761602433"><ele>217.59999999999997</ele><time>2026-04-25T07:01:34.777Z</time></trkpt><trkpt lat="45.885774168211846" lon="12.012028179655228"><ele>214.4</ele><time>2026-04-25T07:01:35.777Z</time></trkpt><trkpt lat="45.88572883959076" lon="12.011897765678402"><ele>211.2</ele><time>2026-04-25T07:01:36.776Z</time></trkpt><trkpt lat="45.885713750842264" lon="12.011764944593049"><ele>208.0</ele><time>2026-04-25T07:01:37.776Z</time></trkpt><trkpt lat="45.88574729724392" lon="12.011625762546114"><ele>208.4</ele><time>2026-04-25T07:01:38.776Z</time></trkpt><trkpt lat="45.88579839699507" lon="12.011492281389305"><ele>208.8</ele><time>2026-04-25T07:01:39.776Z</time></trkpt><trkpt lat="45.88586447412946" lon="12.01137923809299"><ele>209.2</ele><time>2026-04-25T07:01:40.776Z</time></trkpt><trkpt lat="45.8859355751287" lon="12.011266954866658"><ele>209.6</ele><time>2026-04-25T07:01:41.776Z</time></trkpt><trkpt lat="45.88599883782523" lon="12.011156160430765"><ele>210.0</ele><time>2026-04-25T07:01:42.776Z</time></trkpt><trkpt lat="45.88606346629665" lon="12.011032735088616"><ele>210.0</ele><time>2026-04-25T07:01:43.776Z</time></trkpt><trkpt lat="45.88613550430324" lon="12.01091578791524"><ele>210.0</ele><time>2026-04-25T07:01:44.776Z</time></trkpt><trkpt lat="45.88620326164086" lon="12.010798213128924"><ele>210.0</ele><time>2026-04-25T07:01:45.776Z</time></trkpt><trkpt lat="45.88627332945009" lon="12.010683986708674"><ele>210.0</ele><time>2026-04-25T07:01:46.776Z</time></trkpt><trkpt lat="45.88633579776057" lon="12.01056422888967"><ele>210.0</ele><time>2026-04-25T07:01:47.776Z</time></trkpt><trkpt lat="45.88640044691479" lon="12.010451425684726"><ele>208.83333333333334</ele><time>2026-04-25T07:01:48.776Z</time></trkpt><trkpt lat="45.88645921623161" lon="12.01033307670716"><ele>207.66666666666669</ele><time>2026-04-25T07:01:49.776Z</time></trkpt><trkpt lat="45.886501618306106" lon="12.01023602415875"><ele>206.5</ele><time>2026-04-25T07:01:50.776Z</time></trkpt><trkpt lat="45.88650849906864" lon="12.010128373426964"><ele>205.33333333333334</ele><time>2026-04-25T07:01:51.776Z</time></trkpt><trkpt lat="45.886481722469334" lon="12.010019421061843"><ele>204.16666666666669</ele><time>2026-04-25T07:01:52.776Z</time></trkpt><trkpt lat="45.886423180133775" lon="12.00991366889336"><ele>203.0</ele><time>2026-04-25T07:01:53.776Z</time></trkpt><trkpt lat="45.886348518911376" lon="12.009825579376995"><ele>202.60000000000002</ele><time>2026-04-25T07:01:54.776Z</time></trkpt><trkpt lat="45.88626955931572" lon="12.009740575990296"><ele>202.20000000000002</ele><time>2026-04-25T07:01:55.776Z</time></trkpt><trkpt lat="45.88620007810285" lon="12.009639981934745"><ele>201.8</ele><time>2026-04-25T07:01:56.776Z</time></trkpt><trkpt lat="45.88613450290447" lon="12.009539186996719"><ele>201.4</ele><time>2026-04-25T07:01:57.776Z</time></trkpt><trkpt lat="45.88606171326547" lon="12.009430919324336"><ele>201.0</ele><time>2026-04-25T07:01:58.776Z</time></trkpt><trkpt lat="45.88598864627069" lon="12.00931992016502"><ele>200.8</ele><time>2026-04-25T07:01:59.776Z</time></trkpt><trkpt lat="45.885911033140744" lon="12.009205020797925"><ele>200.60000000000002</ele><time>2026-04-25T07:02:00.776Z</time></trkpt><trkpt lat="45.885834379941805" lon="12.009096930752019"><ele>200.4</ele><time>2026-04-25T07:02:01.776Z</time></trkpt><trkpt lat="45.88575858295426" lon="12.008992986100235"><ele>200.2</ele><time>2026-04-25T07:02:02.776Z</time></trkpt><trkpt lat="45.88567996061592" lon="12.008879669959374"><ele>200.0</ele><time>2026-04-25T07:02:03.776Z</time></trkpt><trkpt lat="45.885597566520396" lon="12.008771365579847"><ele>199.8</ele><time>2026-04-25T07:02:04.776Z</time></trkpt><trkpt lat="45.88550774126617" lon="12.008669632915618"><ele>199.6</ele><time>2026-04-25T07:02:05.775Z</time></trkpt><trkpt lat="45.88541865628613" lon="12.008577167193126"><ele>199.39999999999998</ele><time>2026-04-25T07:02:06.775Z</time></trkpt><trkpt lat="45.885330749218475" lon="12.008490305804393"><ele>199.2</ele><time>2026-04-25T07:02:07.775Z</time></trkpt><trkpt lat="45.88523815836568" lon="12.008420798671281"><ele>199.0</ele><time>2026-04-25T07:02:08.775Z</time></trkpt><trkpt lat="45.88514341222071" lon="12.008362831912748"><ele>199.39999999999998</ele><time>2026-04-25T07:02:09.775Z</time></trkpt><trkpt lat="45.88505839005352" lon="12.008290441550175"><ele>199.8</ele><time>2026-04-25T07:02:10.775Z</time></trkpt><trkpt lat="45.88497102638072" lon="12.00822927271357"><ele>200.2</ele><time>2026-04-25T07:02:11.775Z</time></trkpt><trkpt lat="45.88488718295322" lon="12.008177866005777"><ele>200.60000000000002</ele><time>2026-04-25T07:02:12.775Z</time></trkpt><trkpt lat="45.88480658839808" lon="12.008129042286303"><ele>201.0</ele><time>2026-04-25T07:02:13.775Z</time></trkpt><trkpt lat="45.88472568635992" lon="12.008084860711211"><ele>201.0</ele><time>2026-04-25T07:02:14.775Z</time></trkpt><trkpt lat="45.88464048141044" lon="12.008056890352622"><ele>201.0</ele><time>2026-04-25T07:02:15.775Z</time></trkpt><trkpt lat="45.88455031566255" lon="12.008045870265937"><ele>201.0</ele><time>2026-04-25T07:02:16.775Z</time></trkpt><trkpt lat="45.8844654966297" lon="12.008062631168892"><ele>201.0</ele><time>2026-04-25T07:02:17.775Z</time></trkpt><trkpt lat="45.88438812893432" lon="12.00809760068293"><ele>201.0</ele><time>2026-04-25T07:02:18.775Z</time></trkpt><trkpt lat="45.88431837151332" lon="12.008119923159867"><ele>201.0</ele><time>2026-04-25T07:02:19.775Z</time></trkpt><trkpt lat="45.8841865912864" lon="12.008145390753048"><ele>200.85714285714286</ele><time>2026-04-25T07:02:21.775Z</time></trkpt><trkpt lat="45.88412125529199" lon="12.008145868911226"><ele>200.71428571428572</ele><time>2026-04-25T07:02:22.775Z</time></trkpt><trkpt lat="45.884054364385044" lon="12.008135533651371"><ele>200.57142857142858</ele><time>2026-04-25T07:02:23.775Z</time></trkpt><trkpt lat="45.88398365012348" lon="12.008138346384476"><ele>200.42857142857144</ele><time>2026-04-25T07:02:24.775Z</time></trkpt><trkpt lat="45.88391640389679" lon="12.008136467710685"><ele>200.28571428571428</ele><time>2026-04-25T07:02:25.775Z</time></trkpt><trkpt lat="45.88384332586517" lon="12.0081496010582"><ele>200.14285714285717</ele><time>2026-04-25T07:02:26.775Z</time></trkpt><trkpt lat="45.88377400333382" lon="12.008165905660949"><ele>200.0</ele><time>2026-04-25T07:02:27.775Z</time></trkpt><trkpt lat="45.88371415281254" lon="12.008207271920593"><ele>200.0</ele><time>2026-04-25T07:02:28.775Z</time></trkpt><trkpt lat="45.88364287813239" lon="12.008248560322977"><ele>200.0</ele><time>2026-04-25T07:02:29.775Z</time></trkpt><trkpt lat="45.88358183440216" lon="12.008292326621186"><ele>200.0</ele><time>2026-04-25T07:02:30.775Z</time></trkpt><trkpt lat="45.88346727279611" lon="12.008340354035475"><ele>200.0</ele><time>2026-04-25T07:02:32.775Z</time></trkpt><trkpt lat="45.88336750328752" lon="12.008370972249962"><ele>200.0</ele><time>2026-04-25T07:02:34.774Z</time></trkpt><trkpt lat="45.88328132712535" lon="12.008381211608544"><ele>200.83333333333334</ele><time>2026-04-25T07:02:36.774Z</time></trkpt><trkpt lat="45.88320695193326" lon="12.008391444110586"><ele>201.66666666666669</ele><time>2026-04-25T07:02:38.774Z</time></trkpt><trkpt lat="45.8831383215912" lon="12.008394221474271"><ele>202.5</ele><time>2026-04-25T07:02:40.774Z</time></trkpt><trkpt lat="45.883046416768344" lon="12.008397337503848"><ele>203.33333333333331</ele><time>2026-04-25T07:02:43.774Z</time></trkpt><trkpt lat="45.88296342486133" lon="12.008375387402499"><ele>204.16666666666666</ele><time>2026-04-25T07:02:46.774Z</time></trkpt><trkpt lat="45.88288883754424" lon="12.008340334941925"><ele>205.0</ele><time>2026-04-25T07:02:49.774Z</time></trkpt><trkpt lat="45.88281205176937" lon="12.008282344833946"><ele>205.0</ele><time>2026-04-25T07:02:52.774Z</time></trkpt><trkpt lat="45.88275340513692" lon="12.008228089024989"><ele>205.0</ele><time>2026-04-25T07:02:55.774Z</time></trkpt><trkpt lat="45.882697751655904" lon="12.008181245221174"><ele>205.0</ele><time>2026-04-25T07:02:58.774Z</time></trkpt><trkpt lat="45.88264291612906" lon="12.008133500263195"><ele>205.0</ele><time>2026-04-25T07:03:00.774Z</time></trkpt><trkpt lat="45.88257541838636" lon="12.008138206552331"><ele>205.0</ele><time>2026-04-25T07:03:03.773Z</time></trkpt><trkpt lat="45.88252868578852" lon="12.008212263346842"><ele>205.0</ele><time>2026-04-25T07:03:05.773Z</time></trkpt><trkpt lat="45.88249382382411" lon="12.008302474062996"><ele>205.0</ele><time>2026-04-25T07:03:07.773Z</time></trkpt><trkpt lat="45.88243796649422" lon="12.008422418450252"><ele>206.99999999999997</ele><time>2026-04-25T07:03:09.773Z</time></trkpt><trkpt lat="45.88238659858672" lon="12.008555360844076"><ele>209.0</ele><time>2026-04-25T07:03:11.773Z</time></trkpt><trkpt lat="45.8823546395459" lon="12.008637567375509"><ele>211.0</ele><time>2026-04-25T07:03:12.773Z</time></trkpt><trkpt lat="45.882296333054036" lon="12.008805739346318"><ele>213.0</ele><time>2026-04-25T07:03:14.773Z</time></trkpt><trkpt lat="45.88227245644156" lon="12.008898140686169"><ele>214.99999999999997</ele><time>2026-04-25T07:03:15.773Z</time></trkpt><trkpt lat="45.882239760477226" lon="12.008997881602202"><ele>217.0</ele><time>2026-04-25T07:03:16.773Z</time></trkpt><trkpt lat="45.882212340480045" lon="12.009099058081835"><ele>215.99999999999997</ele><time>2026-04-25T07:03:17.773Z</time></trkpt><trkpt lat="45.8821869293944" lon="12.009199546638403"><ele>215.0</ele><time>2026-04-25T07:03:18.773Z</time></trkpt><trkpt lat="45.88215842289368" lon="12.009309789724561"><ele>214.0</ele><time>2026-04-25T07:03:19.773Z</time></trkpt><trkpt lat="45.882129097647365" lon="12.009421016761548"><ele>213.0</ele><time>2026-04-25T07:03:20.774Z</time></trkpt><trkpt lat="45.882107931186354" lon="12.009528271206504"><ele>211.99999999999997</ele><time>2026-04-25T07:03:21.774Z</time></trkpt><trkpt lat="45.88209485253672" lon="12.009645250264823"><ele>211.0</ele><time>2026-04-25T07:03:22.774Z</time></trkpt><trkpt lat="45.88209175676084" lon="12.009767611038368"><ele>210.99999999999997</ele><time>2026-04-25T07:03:23.774Z</time></trkpt><trkpt lat="45.88208757346793" lon="12.009882010859098"><ele>211.0</ele><time>2026-04-25T07:03:24.774Z</time></trkpt><trkpt lat="45.882093194788276" lon="12.009997705982764"><ele>211.0</ele><time>2026-04-25T07:03:25.774Z</time></trkpt><trkpt lat="45.88210469204101" lon="12.010118191318222"><ele>211.0</ele><time>2026-04-25T07:03:26.774Z</time></trkpt><trkpt lat="45.88212768617017" lon="12.010236396569775"><ele>210.99999999999997</ele><time>2026-04-25T07:03:27.774Z</time></trkpt><trkpt lat="45.8821368509465" lon="12.01034791168878"><ele>211.0</ele><time>2026-04-25T07:03:28.774Z</time></trkpt><trkpt lat="45.88213260083363" lon="12.010453506955828"><ele>211.14285714285714</ele><time>2026-04-25T07:03:29.773Z</time></trkpt><trkpt lat="45.88213149605218" lon="12.010563054002937"><ele>211.28571428571428</ele><time>2026-04-25T07:03:30.774Z</time></trkpt><trkpt lat="45.882096093995486" lon="12.010651987633185"><ele>211.42857142857144</ele><time>2026-04-25T07:03:31.774Z</time></trkpt><trkpt lat="45.88204234603927" lon="12.010760493025852"><ele>211.57142857142856</ele><time>2026-04-25T07:03:33.773Z</time></trkpt><trkpt lat="45.88199001364397" lon="12.010831169381019"><ele>211.7142857142857</ele><time>2026-04-25T07:03:35.773Z</time></trkpt><trkpt lat="45.88194022819976" lon="12.01089057887692"><ele>211.85714285714286</ele><time>2026-04-25T07:03:37.773Z</time></trkpt><trkpt lat="45.88189147623526" lon="12.010961580634492"><ele>212.0</ele><time>2026-04-25T07:03:39.773Z</time></trkpt><trkpt lat="45.88184311678447" lon="12.01102637234395"><ele>212.0</ele><time>2026-04-25T07:03:41.773Z</time></trkpt><trkpt lat="45.881799021907675" lon="12.011100443028425"><ele>212.0</ele><time>2026-04-25T07:03:43.773Z</time></trkpt><trkpt lat="45.8817569862" lon="12.011205500018464"><ele>212.0</ele><time>2026-04-25T07:03:46.773Z</time></trkpt><trkpt lat="45.8817144806169" lon="12.011281944558586"><ele>212.0</ele><time>2026-04-25T07:03:48.773Z</time></trkpt><trkpt lat="45.8816687587551" lon="12.011352937402526"><ele>212.0</ele><time>2026-04-25T07:03:50.773Z</time></trkpt><trkpt lat="45.88161074713015" lon="12.01143146272456"><ele>212.0</ele><time>2026-04-25T07:03:52.773Z</time></trkpt><trkpt lat="45.88155156086245" lon="12.011509985557408"><ele>212.0</ele><time>2026-04-25T07:03:54.773Z</time></trkpt><trkpt lat="45.881504055637315" lon="12.011612046386357"><ele>213.39999999999998</ele><time>2026-04-25T07:03:56.772Z</time></trkpt><trkpt lat="45.88147925614802" lon="12.011727738782307"><ele>214.79999999999998</ele><time>2026-04-25T07:03:58.772Z</time></trkpt><trkpt lat="45.88147017627307" lon="12.011871588126736"><ele>216.2</ele><time>2026-04-25T07:04:00.772Z</time></trkpt><trkpt lat="45.88148090270268" lon="12.01203206671067"><ele>217.6</ele><time>2026-04-25T07:04:02.772Z</time></trkpt><trkpt lat="45.88149147824309" lon="12.012204820244849"><ele>219.0</ele><time>2026-04-25T07:04:04.772Z</time></trkpt><trkpt lat="45.881503688621144" lon="12.012303187941585"><ele>219.0</ele><time>2026-04-25T07:04:05.772Z</time></trkpt><trkpt lat="45.88151033796204" lon="12.012400195866068"><ele>219.0</ele><time>2026-04-25T07:04:06.772Z</time></trkpt><trkpt lat="45.881514554846554" lon="12.012498309876467"><ele>219.0</ele><time>2026-04-25T07:04:07.772Z</time></trkpt><trkpt lat="45.88151288474311" lon="12.01259156337468"><ele>219.0</ele><time>2026-04-25T07:04:08.772Z</time></trkpt><trkpt lat="45.88149435481959" lon="12.012690412927604"><ele>219.0</ele><time>2026-04-25T07:04:09.772Z</time></trkpt><trkpt lat="45.88147158734934" lon="12.012788120828235"><ele>219.0</ele><time>2026-04-25T07:04:10.772Z</time></trkpt><trkpt lat="45.881434534302585" lon="12.012882812688943"><ele>219.0</ele><time>2026-04-25T07:04:11.772Z</time></trkpt><trkpt lat="45.88138716671637" lon="12.012977378048792"><ele>218.39999999999998</ele><time>2026-04-25T07:04:12.772Z</time></trkpt><trkpt lat="45.88133195868951" lon="12.013077954828892"><ele>217.79999999999998</ele><time>2026-04-25T07:04:13.772Z</time></trkpt><trkpt lat="45.881274107718134" lon="12.013166202410025"><ele>217.20000000000002</ele><time>2026-04-25T07:04:14.772Z</time></trkpt><trkpt lat="45.88120510224212" lon="12.013261398582957"><ele>216.60000000000002</ele><time>2026-04-25T07:04:15.772Z</time></trkpt><trkpt lat="45.881132808522004" lon="12.013346405497376"><ele>216.0</ele><time>2026-04-25T07:04:16.772Z</time></trkpt><trkpt lat="45.88105825587096" lon="12.013419646184335"><ele>215.83333333333334</ele><time>2026-04-25T07:04:17.772Z</time></trkpt><trkpt lat="45.88098106921044" lon="12.013481266345561"><ele>215.66666666666669</ele><time>2026-04-25T07:04:18.772Z</time></trkpt><trkpt lat="45.8809018614219" lon="12.013518779375575"><ele>215.5</ele><time>2026-04-25T07:04:19.772Z</time></trkpt><trkpt lat="45.88081456066238" lon="12.01353176289984"><ele>215.33333333333334</ele><time>2026-04-25T07:04:20.772Z</time></trkpt><trkpt lat="45.88072857372617" lon="12.013526287432402"><ele>215.16666666666669</ele><time>2026-04-25T07:04:21.772Z</time></trkpt><trkpt lat="45.88063998956542" lon="12.013530221591664"><ele>215.0</ele><time>2026-04-25T07:04:22.772Z</time></trkpt><trkpt lat="45.88055829858567" lon="12.013559537133293"><ele>215.4</ele><time>2026-04-25T07:04:23.771Z</time></trkpt><trkpt lat="45.88047653789774" lon="12.013608833488487"><ele>215.8</ele><time>2026-04-25T07:04:24.771Z</time></trkpt><trkpt lat="45.8803883460568" lon="12.01367040784706"><ele>216.2</ele><time>2026-04-25T07:04:25.771Z</time></trkpt><trkpt lat="45.88030216083034" lon="12.013742336755488"><ele>216.6</ele><time>2026-04-25T07:04:26.771Z</time></trkpt><trkpt lat="45.8802182418021" lon="12.013794987651169"><ele>217.0</ele><time>2026-04-25T07:04:27.771Z</time></trkpt><trkpt lat="45.88013178668986" lon="12.01384469640478"><ele>216.0</ele><time>2026-04-25T07:04:28.771Z</time></trkpt><trkpt lat="45.88004032857326" lon="12.013880621313572"><ele>215.0</ele><time>2026-04-25T07:04:29.771Z</time></trkpt><trkpt lat="45.87995165947869" lon="12.013911190752724"><ele>214.0</ele><time>2026-04-25T07:04:30.771Z</time></trkpt><trkpt lat="45.87986372386411" lon="12.013943382447948"><ele>213.0</ele><time>2026-04-25T07:04:31.771Z</time></trkpt><trkpt lat="45.87976831642723" lon="12.01397086250262"><ele>212.0</ele><time>2026-04-25T07:04:32.771Z</time></trkpt><trkpt lat="45.879677097832435" lon="12.013992231701021"><ele>212.00000000000003</ele><time>2026-04-25T07:04:33.771Z</time></trkpt><trkpt lat="45.87958720573878" lon="12.014010900993659"><ele>212.0</ele><time>2026-04-25T07:04:34.771Z</time></trkpt><trkpt lat="45.87949565392716" lon="12.014033686037472"><ele>212.0</ele><time>2026-04-25T07:04:35.771Z</time></trkpt><trkpt lat="45.87941960661798" lon="12.01408277337831"><ele>212.0</ele><time>2026-04-25T07:04:36.771Z</time></trkpt><trkpt lat="45.87936086825943" lon="12.014162978360707"><ele>212.00000000000003</ele><time>2026-04-25T07:04:37.771Z</time></trkpt><trkpt lat="45.87930925481865" lon="12.014252959196407"><ele>212.0</ele><time>2026-04-25T07:04:38.771Z</time></trkpt><trkpt lat="45.87926914915788" lon="12.0143569510915"><ele>212.39999999999998</ele><time>2026-04-25T07:04:39.771Z</time></trkpt><trkpt lat="45.87924571010023" lon="12.01447242628483"><ele>212.79999999999998</ele><time>2026-04-25T07:04:40.771Z</time></trkpt><trkpt lat="45.87925322821323" lon="12.014597696328499"><ele>213.2</ele><time>2026-04-25T07:04:41.771Z</time></trkpt><trkpt lat="45.879253512017435" lon="12.014724414426851"><ele>213.6</ele><time>2026-04-25T07:04:42.771Z</time></trkpt><trkpt lat="45.87926261709983" lon="12.014862199438287"><ele>214.0</ele><time>2026-04-25T07:04:43.771Z</time></trkpt><trkpt lat="45.87930295803336" lon="12.0149872666007"><ele>213.66666666666666</ele><time>2026-04-25T07:04:44.771Z</time></trkpt><trkpt lat="45.879362284065316" lon="12.015089850644864"><ele>213.33333333333331</ele><time>2026-04-25T07:04:45.771Z</time></trkpt><trkpt lat="45.879426187604366" lon="12.015177748196749"><ele>213.0</ele><time>2026-04-25T07:04:46.771Z</time></trkpt><trkpt lat="45.87950178488901" lon="12.015261577639302"><ele>212.66666666666669</ele><time>2026-04-25T07:04:47.771Z</time></trkpt><trkpt lat="45.87956970144187" lon="12.015342286427344"><ele>212.33333333333334</ele><time>2026-04-25T07:04:48.771Z</time></trkpt><trkpt lat="45.87963107922336" lon="12.015422857919248"><ele>212.0</ele><time>2026-04-25T07:04:49.771Z</time></trkpt><trkpt lat="45.879696016460464" lon="12.01550877389431"><ele>212.0</ele><time>2026-04-25T07:04:50.771Z</time></trkpt><trkpt lat="45.87974677137137" lon="12.015596502924264"><ele>212.0</ele><time>2026-04-25T07:04:51.771Z</time></trkpt><trkpt lat="45.87978119411484" lon="12.015688422685077"><ele>212.0</ele><time>2026-04-25T07:04:52.77Z</time></trkpt><trkpt lat="45.8797951374184" lon="12.015804312269516"><ele>212.0</ele><time>2026-04-25T07:04:53.77Z</time></trkpt><trkpt lat="45.87979643184451" lon="12.015912285971268"><ele>212.0</ele><time>2026-04-25T07:04:54.77Z</time></trkpt><trkpt lat="45.87978781210703" lon="12.016012552988046"><ele>212.0</ele><time>2026-04-25T07:04:55.77Z</time></trkpt><trkpt lat="45.8797629166945" lon="12.016103882527444"><ele>212.0</ele><time>2026-04-25T07:04:56.77Z</time></trkpt><trkpt lat="45.87972797495004" lon="12.016196988048412"><ele>211.83333333333334</ele><time>2026-04-25T07:04:57.77Z</time></trkpt><trkpt lat="45.87967662250279" lon="12.016277729573513"><ele>211.66666666666669</ele><time>2026-04-25T07:04:58.77Z</time></trkpt><trkpt lat="45.87961326585437" lon="12.016351147973406"><ele>211.5</ele><time>2026-04-25T07:04:59.77Z</time></trkpt><trkpt lat="45.879550109594845" lon="12.016430327287399"><ele>211.33333333333331</ele><time>2026-04-25T07:05:00.77Z</time></trkpt><trkpt lat="45.87948756882887" lon="12.016496763006872"><ele>211.16666666666666</ele><time>2026-04-25T07:05:01.77Z</time></trkpt><trkpt lat="45.87941488620867" lon="12.016554712004224"><ele>211.0</ele><time>2026-04-25T07:05:02.77Z</time></trkpt><trkpt lat="45.87934147499402" lon="12.01661694533774"><ele>211.49999999999997</ele><time>2026-04-25T07:05:03.77Z</time></trkpt><trkpt lat="45.87926916947783" lon="12.01668267653332"><ele>212.0</ele><time>2026-04-25T07:05:04.77Z</time></trkpt><trkpt lat="45.879194730732564" lon="12.016752399213116"><ele>212.5</ele><time>2026-04-25T07:05:05.77Z</time></trkpt><trkpt lat="45.87912636386214" lon="12.016832134197399"><ele>213.0</ele><time>2026-04-25T07:05:06.77Z</time></trkpt><trkpt lat="45.87906786585653" lon="12.016917508305562"><ele>213.49999999999997</ele><time>2026-04-25T07:05:07.77Z</time></trkpt><trkpt lat="45.879005543235024" lon="12.017013594865455"><ele>214.0</ele><time>2026-04-25T07:05:08.77Z</time></trkpt><trkpt lat="45.87893814273151" lon="12.01709274937148"><ele>212.99999999999997</ele><time>2026-04-25T07:05:09.77Z</time></trkpt><trkpt lat="45.87887190311518" lon="12.017170915655834"><ele>212.0</ele><time>2026-04-25T07:05:10.77Z</time></trkpt><trkpt lat="45.87880692277532" lon="12.017248326480551"><ele>211.0</ele><time>2026-04-25T07:05:11.77Z</time></trkpt><trkpt lat="45.878753882276484" lon="12.017341505478692"><ele>210.0</ele><time>2026-04-25T07:05:12.77Z</time></trkpt><trkpt lat="45.87870832882987" lon="12.017436373513151"><ele>208.99999999999997</ele><time>2026-04-25T07:05:13.77Z</time></trkpt><trkpt lat="45.87869992460059" lon="12.017536033507543"><ele>208.0</ele><time>2026-04-25T07:05:14.77Z</time></trkpt><trkpt lat="45.87871298356929" lon="12.017630471258133"><ele>208.0</ele><time>2026-04-25T07:05:15.77Z</time></trkpt><trkpt lat="45.878769207737925" lon="12.017779883727995"><ele>208.0</ele><time>2026-04-25T07:05:17.77Z</time></trkpt><trkpt lat="45.87881021278977" lon="12.017855900205877"><ele>208.0</ele><time>2026-04-25T07:05:18.77Z</time></trkpt><trkpt lat="45.878854796890984" lon="12.017937178124008"><ele>208.0</ele><time>2026-04-25T07:05:19.77Z</time></trkpt><trkpt lat="45.87889346001763" lon="12.01802393250593"><ele>208.0</ele><time>2026-04-25T07:05:20.769Z</time></trkpt><trkpt lat="45.878973762348586" lon="12.018168140713302"><ele>208.0</ele><time>2026-04-25T07:05:22.769Z</time></trkpt><trkpt lat="45.87901902751613" lon="12.01825453059789"><ele>208.0</ele><time>2026-04-25T07:05:23.769Z</time></trkpt><trkpt lat="45.87904719733955" lon="12.018345078339914"><ele>208.0</ele><time>2026-04-25T07:05:24.769Z</time></trkpt><trkpt lat="45.87906980978507" lon="12.018449370672759"><ele>208.0</ele><time>2026-04-25T07:05:25.769Z</time></trkpt><trkpt lat="45.87907831522443" lon="12.018542861376758"><ele>208.0</ele><time>2026-04-25T07:05:26.77Z</time></trkpt><trkpt lat="45.87906229396526" lon="12.018633716271559"><ele>208.0</ele><time>2026-04-25T07:05:27.77Z</time></trkpt><trkpt lat="45.879032542757656" lon="12.018720417370663"><ele>208.0</ele><time>2026-04-25T07:05:28.77Z</time></trkpt><trkpt lat="45.87897060000161" lon="12.018781981880023"><ele>207.2</ele><time>2026-04-25T07:05:29.77Z</time></trkpt><trkpt lat="45.878889366984964" lon="12.01882178658265"><ele>206.4</ele><time>2026-04-25T07:05:30.77Z</time></trkpt><trkpt lat="45.878793073496766" lon="12.018873885714966"><ele>205.6</ele><time>2026-04-25T07:05:31.77Z</time></trkpt><trkpt lat="45.8787002769108" lon="12.018930673524865"><ele>204.79999999999998</ele><time>2026-04-25T07:05:32.77Z</time></trkpt><trkpt lat="45.87860038414073" lon="12.018985254526267"><ele>204.0</ele><time>2026-04-25T07:05:33.77Z</time></trkpt><trkpt lat="45.878489250890496" lon="12.019019025849362"><ele>204.0</ele><time>2026-04-25T07:05:34.77Z</time></trkpt><trkpt lat="45.87837599453475" lon="12.019056984808541"><ele>204.0</ele><time>2026-04-25T07:05:35.77Z</time></trkpt><trkpt lat="45.87826142642756" lon="12.019101612389155"><ele>204.0</ele><time>2026-04-25T07:05:36.77Z</time></trkpt><trkpt lat="45.87815575930068" lon="12.01915715796717"><ele>204.0</ele><time>2026-04-25T07:05:37.77Z</time></trkpt><trkpt lat="45.878051884107194" lon="12.01921318063472"><ele>202.6</ele><time>2026-04-25T07:05:38.769Z</time></trkpt><trkpt lat="45.87795478482421" lon="12.019278166360513"><ele>201.2</ele><time>2026-04-25T07:05:39.77Z</time></trkpt><trkpt lat="45.877856166964115" lon="12.019352927638518"><ele>199.79999999999998</ele><time>2026-04-25T07:05:40.77Z</time></trkpt><trkpt lat="45.877770119974834" lon="12.01945291211748"><ele>198.39999999999998</ele><time>2026-04-25T07:05:41.77Z</time></trkpt><trkpt lat="45.87769052237129" lon="12.019559201729448"><ele>197.0</ele><time>2026-04-25T07:05:42.77Z</time></trkpt><trkpt lat="45.877590524410316" lon="12.0196390218141"><ele>197.0</ele><time>2026-04-25T07:05:43.77Z</time></trkpt><trkpt lat="45.87747986986261" lon="12.019698761302939"><ele>197.0</ele><time>2026-04-25T07:05:44.77Z</time></trkpt><trkpt lat="45.87736792062203" lon="12.019746654067385"><ele>197.0</ele><time>2026-04-25T07:05:45.77Z</time></trkpt><trkpt lat="45.87725253706054" lon="12.019786588996558"><ele>197.0</ele><time>2026-04-25T07:05:46.77Z</time></trkpt><trkpt lat="45.87713662418347" lon="12.019828040209873"><ele>197.0</ele><time>2026-04-25T07:05:47.77Z</time></trkpt><trkpt lat="45.87702757053407" lon="12.019867226329337"><ele>197.0</ele><time>2026-04-25T07:05:48.769Z</time></trkpt><trkpt lat="45.876915692755084" lon="12.01990715928432"><ele>197.0</ele><time>2026-04-25T07:05:49.769Z</time></trkpt><trkpt lat="45.87680990209055" lon="12.019948898956095"><ele>197.0</ele><time>2026-04-25T07:05:50.769Z</time></trkpt><trkpt lat="45.876699732428406" lon="12.019955593762207"><ele>197.0</ele><time>2026-04-25T07:05:51.769Z</time></trkpt><trkpt lat="45.87659743258092" lon="12.019947079164625"><ele>196.2</ele><time>2026-04-25T07:05:52.769Z</time></trkpt><trkpt lat="45.87651712727323" lon="12.01992649469663"><ele>195.39999999999998</ele><time>2026-04-25T07:05:53.769Z</time></trkpt><trkpt lat="45.87643582413937" lon="12.019893958548064"><ele>194.60000000000002</ele><time>2026-04-25T07:05:55.769Z</time></trkpt><trkpt lat="45.87641784250442" lon="12.01999241797251"><ele>193.8</ele><time>2026-04-25T07:05:58.769Z</time></trkpt><trkpt lat="45.87654459284501" lon="12.019932777402568"><ele>193.0</ele><time>2026-04-25T07:06:50.767Z</time></trkpt><trkpt lat="45.87674429301466" lon="12.019958995901263"><ele>192.5</ele><time>2026-04-25T07:06:56.767Z</time></trkpt><trkpt lat="45.876875555403075" lon="12.019980634111125"><ele>192.0</ele><time>2026-04-25T07:07:01.767Z</time></trkpt><trkpt lat="45.876905272142814" lon="12.020118587797246"><ele>191.5</ele><time>2026-04-25T07:07:03.767Z</time></trkpt><trkpt lat="45.87690583209215" lon="12.0202812899037"><ele>191.0</ele><time>2026-04-25T07:07:05.767Z</time></trkpt><trkpt lat="45.8768786557661" lon="12.02047196952549"><ele>191.0</ele><time>2026-04-25T07:07:07.767Z</time></trkpt><trkpt lat="45.87686322372843" lon="12.02059022549671"><ele>191.0</ele><time>2026-04-25T07:07:08.767Z</time></trkpt><trkpt lat="45.87683596382925" lon="12.02071282919059"><ele>191.0</ele><time>2026-04-25T07:07:09.767Z</time></trkpt><trkpt lat="45.87679968964147" lon="12.020831009851964"><ele>191.0</ele><time>2026-04-25T07:07:10.767Z</time></trkpt><trkpt lat="45.87675313766345" lon="12.02094224565095"><ele>191.0</ele><time>2026-04-25T07:07:11.767Z</time></trkpt><trkpt lat="45.8766990047949" lon="12.021056608354735"><ele>190.5</ele><time>2026-04-25T07:07:12.767Z</time></trkpt><trkpt lat="45.87664005586285" lon="12.021163015591545"><ele>190.0</ele><time>2026-04-25T07:07:13.767Z</time></trkpt><trkpt lat="45.876588741219656" lon="12.021261437269747"><ele>189.5</ele><time>2026-04-25T07:07:14.766Z</time></trkpt><trkpt lat="45.87654184878542" lon="12.021346425479852"><ele>189.0</ele><time>2026-04-25T07:07:15.766Z</time></trkpt><trkpt lat="45.876487091648485" lon="12.021427555149067"><ele>188.5</ele><time>2026-04-25T07:07:16.766Z</time></trkpt><trkpt lat="45.87642537669842" lon="12.021516513029797"><ele>188.0</ele><time>2026-04-25T07:07:17.766Z</time></trkpt><trkpt lat="45.87635221636878" lon="12.02159179330952"><ele>188.0</ele><time>2026-04-25T07:07:18.766Z</time></trkpt><trkpt lat="45.87627031745799" lon="12.021646618287232"><ele>188.0</ele><time>2026-04-25T07:07:19.766Z</time></trkpt><trkpt lat="45.87618032796968" lon="12.02167877235086"><ele>188.0</ele><time>2026-04-25T07:07:20.766Z</time></trkpt><trkpt lat="45.876113619502014" lon="12.021728286713822"><ele>188.0</ele><time>2026-04-25T07:07:21.766Z</time></trkpt><trkpt lat="45.87605248762549" lon="12.02177262926992"><ele>188.0</ele><time>2026-04-25T07:07:22.766Z</time></trkpt><trkpt lat="45.87601002717877" lon="12.021852407662395"><ele>188.0</ele><time>2026-04-25T07:07:23.766Z</time></trkpt><trkpt lat="45.875985576895765" lon="12.021959334309434"><ele>187.33333333333331</ele><time>2026-04-25T07:07:24.766Z</time></trkpt><trkpt lat="45.87599637715406" lon="12.022074670452284"><ele>186.66666666666666</ele><time>2026-04-25T07:07:25.766Z</time></trkpt><trkpt lat="45.87607577878976" lon="12.022186902826894"><ele>186.0</ele><time>2026-04-25T07:07:27.766Z</time></trkpt><trkpt lat="45.87614524908883" lon="12.022229866287324"><ele>185.33333333333334</ele><time>2026-04-25T07:07:28.766Z</time></trkpt><trkpt lat="45.876207051978525" lon="12.0222754424941"><ele>184.66666666666669</ele><time>2026-04-25T07:07:29.766Z</time></trkpt><trkpt lat="45.87626454674193" lon="12.022360285763144"><ele>184.0</ele><time>2026-04-25T07:07:30.766Z</time></trkpt><trkpt lat="45.876295445968424" lon="12.022444586005403"><ele>183.0</ele><time>2026-04-25T07:07:31.766Z</time></trkpt><trkpt lat="45.876307000597876" lon="12.022544199092717"><ele>182.0</ele><time>2026-04-25T07:07:32.767Z</time></trkpt><trkpt lat="45.876314584103454" lon="12.022654242733788"><ele>181.0</ele><time>2026-04-25T07:07:33.767Z</time></trkpt><trkpt lat="45.876317772878274" lon="12.022762539635824"><ele>180.0</ele><time>2026-04-25T07:07:34.767Z</time></trkpt><trkpt lat="45.876308337033244" lon="12.022875344086824"><ele>179.0</ele><time>2026-04-25T07:07:35.767Z</time></trkpt><trkpt lat="45.876310234206144" lon="12.02298660645009"><ele>178.0</ele><time>2026-04-25T07:07:36.767Z</time></trkpt><trkpt lat="45.87634055176615" lon="12.023084230632913"><ele>178.0</ele><time>2026-04-25T07:07:37.767Z</time></trkpt><trkpt lat="45.87639553513905" lon="12.023166072168674"><ele>178.0</ele><time>2026-04-25T07:07:38.767Z</time></trkpt><trkpt lat="45.876445387543804" lon="12.023230652759741"><ele>178.0</ele><time>2026-04-25T07:07:39.767Z</time></trkpt><trkpt lat="45.87649433404181" lon="12.02330627398518"><ele>178.0</ele><time>2026-04-25T07:07:40.767Z</time></trkpt><trkpt lat="45.87652673455584" lon="12.023385034119464"><ele>178.0</ele><time>2026-04-25T07:07:41.767Z</time></trkpt><trkpt lat="45.87656900677662" lon="12.023458877706506"><ele>178.0</ele><time>2026-04-25T07:07:42.766Z</time></trkpt><trkpt lat="45.87668403221515" lon="12.023559858466507"><ele>177.5</ele><time>2026-04-25T07:07:44.767Z</time></trkpt><trkpt lat="45.87674398934908" lon="12.023618924401575"><ele>177.0</ele><time>2026-04-25T07:07:45.767Z</time></trkpt><trkpt lat="45.87679016920659" lon="12.023681827232481"><ele>176.5</ele><time>2026-04-25T07:07:46.767Z</time></trkpt><trkpt lat="45.876862721293584" lon="12.023800770236125"><ele>176.0</ele><time>2026-04-25T07:07:48.766Z</time></trkpt><trkpt lat="45.87691419283835" lon="12.023870594874895"><ele>175.5</ele><time>2026-04-25T07:07:49.766Z</time></trkpt><trkpt lat="45.87697525199964" lon="12.023946214369898"><ele>175.0</ele><time>2026-04-25T07:07:50.766Z</time></trkpt><trkpt lat="45.87703804305911" lon="12.024025010975635"><ele>175.0</ele><time>2026-04-25T07:07:51.766Z</time></trkpt><trkpt lat="45.877087098352014" lon="12.024116396898973"><ele>175.0</ele><time>2026-04-25T07:07:52.766Z</time></trkpt><trkpt lat="45.877131599727704" lon="12.024190839411935"><ele>175.0</ele><time>2026-04-25T07:07:53.766Z</time></trkpt><trkpt lat="45.87717234671307" lon="12.024345737284749"><ele>175.0</ele><time>2026-04-25T07:07:55.766Z</time></trkpt><trkpt lat="45.87721355735712" lon="12.024459288872965"><ele>175.0</ele><time>2026-04-25T07:07:58.766Z</time></trkpt><trkpt lat="45.87725523531428" lon="12.02454980447722"><ele>175.0</ele><time>2026-04-25T07:08:00.766Z</time></trkpt><trkpt lat="45.87729196090214" lon="12.024645825283557"><ele>174.57142857142858</ele><time>2026-04-25T07:08:02.766Z</time></trkpt><trkpt lat="45.8772929942201" lon="12.024738348057877"><ele>174.14285714285714</ele><time>2026-04-25T07:08:07.766Z</time></trkpt><trkpt lat="45.877306368060175" lon="12.02484411354484"><ele>173.71428571428572</ele><time>2026-04-25T07:08:13.766Z</time></trkpt><trkpt lat="45.87731604224612" lon="12.02494206957112"><ele>173.28571428571428</ele><time>2026-04-25T07:08:19.765Z</time></trkpt><trkpt lat="45.87736392621461" lon="12.025006291334726"><ele>172.85714285714286</ele><time>2026-04-25T07:08:24.765Z</time></trkpt><trkpt lat="45.877427532475295" lon="12.025080939708912"><ele>172.42857142857144</ele><time>2026-04-25T07:08:27.765Z</time></trkpt><trkpt lat="45.87746728187137" lon="12.025173820830034"><ele>172.0</ele><time>2026-04-25T07:08:30.765Z</time></trkpt><trkpt lat="45.87749680589579" lon="12.025291152636555"><ele>171.83333333333334</ele><time>2026-04-25T07:08:33.765Z</time></trkpt><trkpt lat="45.87752785362642" lon="12.025412231612272"><ele>171.66666666666669</ele><time>2026-04-25T07:08:36.765Z</time></trkpt><trkpt lat="45.87754270478675" lon="12.025545994534397"><ele>171.5</ele><time>2026-04-25T07:08:38.765Z</time></trkpt><trkpt lat="45.8775683135991" lon="12.025667507424632"><ele>171.33333333333334</ele><time>2026-04-25T07:08:40.765Z</time></trkpt><trkpt lat="45.877603794123765" lon="12.025767453533994"><ele>171.16666666666666</ele><time>2026-04-25T07:08:42.765Z</time></trkpt><trkpt lat="45.877634470134595" lon="12.025850310187687"><ele>171.0</ele><time>2026-04-25T07:08:44.765Z</time></trkpt><trkpt lat="45.87768026721933" lon="12.02594041420005"><ele>171.0</ele><time>2026-04-25T07:08:47.764Z</time></trkpt><trkpt lat="45.877733459542156" lon="12.026011565493766"><ele>171.0</ele><time>2026-04-25T07:08:50.764Z</time></trkpt><trkpt lat="45.87777839461475" lon="12.026096440004537"><ele>171.0</ele><time>2026-04-25T07:08:53.764Z</time></trkpt><trkpt lat="45.87783009249461" lon="12.026180665643183"><ele>171.0</ele><time>2026-04-25T07:08:56.764Z</time></trkpt><trkpt lat="45.87786475705186" lon="12.026256762730705"><ele>171.0</ele><time>2026-04-25T07:08:58.764Z</time></trkpt><trkpt lat="45.877921284293684" lon="12.026349400521699"><ele>171.0</ele><time>2026-04-25T07:09:00.764Z</time></trkpt><trkpt lat="45.87798144260012" lon="12.026459671696886"><ele>171.0</ele><time>2026-04-25T07:09:02.764Z</time></trkpt><trkpt lat="45.878060783007506" lon="12.026580632145405"><ele>171.0</ele><time>2026-04-25T07:09:04.764Z</time></trkpt><trkpt lat="45.87814243850897" lon="12.02672163951788"><ele>171.0</ele><time>2026-04-25T07:09:06.764Z</time></trkpt><trkpt lat="45.878228766899156" lon="12.02684055654199"><ele>171.0</ele><time>2026-04-25T07:09:08.764Z</time></trkpt><trkpt lat="45.87833128211827" lon="12.026961030319914"><ele>170.99999999999997</ele><time>2026-04-25T07:09:10.764Z</time></trkpt><trkpt lat="45.87839058877594" lon="12.027026694022908"><ele>171.0</ele><time>2026-04-25T07:09:11.764Z</time></trkpt><trkpt lat="45.87844774241977" lon="12.027094918133617"><ele>171.0</ele><time>2026-04-25T07:09:12.764Z</time></trkpt><trkpt lat="45.878508033064655" lon="12.02715499876426"><ele>171.0</ele><time>2026-04-25T07:09:13.764Z</time></trkpt><trkpt lat="45.87856106449013" lon="12.027220793030214"><ele>171.0</ele><time>2026-04-25T07:09:14.763Z</time></trkpt><trkpt lat="45.878614765780156" lon="12.027288183899783"><ele>170.99999999999997</ele><time>2026-04-25T07:09:15.763Z</time></trkpt><trkpt lat="45.87867794716573" lon="12.027358183129762"><ele>171.0</ele><time>2026-04-25T07:09:16.763Z</time></trkpt><trkpt lat="45.87873816016879" lon="12.027425952230049"><ele>170.33333333333334</ele><time>2026-04-25T07:09:17.763Z</time></trkpt><trkpt lat="45.87880265358834" lon="12.02749842373341"><ele>169.66666666666666</ele><time>2026-04-25T07:09:18.763Z</time></trkpt><trkpt lat="45.8788696381947" lon="12.027572980417672"><ele>169.0</ele><time>2026-04-25T07:09:19.763Z</time></trkpt><trkpt lat="45.87893376804613" lon="12.027647101854884"><ele>168.33333333333331</ele><time>2026-04-25T07:09:20.763Z</time></trkpt><trkpt lat="45.879005044039815" lon="12.027720187014546"><ele>167.66666666666666</ele><time>2026-04-25T07:09:21.763Z</time></trkpt><trkpt lat="45.879084867229146" lon="12.027799492866615"><ele>167.0</ele><time>2026-04-25T07:09:22.763Z</time></trkpt><trkpt lat="45.87916765938314" lon="12.02786110853345"><ele>167.0</ele><time>2026-04-25T07:09:23.763Z</time></trkpt><trkpt lat="45.87925967323164" lon="12.027905593038234"><ele>167.0</ele><time>2026-04-25T07:09:24.763Z</time></trkpt><trkpt lat="45.87935881036924" lon="12.02792824077514"><ele>167.0</ele><time>2026-04-25T07:09:25.763Z</time></trkpt><trkpt lat="45.87946715391304" lon="12.02794820123244"><ele>167.0</ele><time>2026-04-25T07:09:26.763Z</time></trkpt><trkpt lat="45.879575161697424" lon="12.027959379708804"><ele>167.0</ele><time>2026-04-25T07:09:27.763Z</time></trkpt><trkpt lat="45.8796802721367" lon="12.02795704585366"><ele>167.0</ele><time>2026-04-25T07:09:28.763Z</time></trkpt><trkpt lat="45.879786327902444" lon="12.027965702715894"><ele>167.0</ele><time>2026-04-25T07:09:29.763Z</time></trkpt><trkpt lat="45.87989004612912" lon="12.027972281500645"><ele>167.0</ele><time>2026-04-25T07:09:30.763Z</time></trkpt><trkpt lat="45.87999017363935" lon="12.02797914435283"><ele>167.0</ele><time>2026-04-25T07:09:31.763Z</time></trkpt><trkpt lat="45.880095463853316" lon="12.02799461141802"><ele>167.0</ele><time>2026-04-25T07:09:32.763Z</time></trkpt><trkpt lat="45.88020041808963" lon="12.028001143564873"><ele>167.16666666666666</ele><time>2026-04-25T07:09:33.763Z</time></trkpt><trkpt lat="45.88027866504022" lon="12.02800771143014"><ele>167.33333333333331</ele><time>2026-04-25T07:09:34.763Z</time></trkpt><trkpt lat="45.88037371227688" lon="12.02801550893428"><ele>167.5</ele><time>2026-04-25T07:09:35.763Z</time></trkpt><trkpt lat="45.88046047966064" lon="12.028023557193725"><ele>167.66666666666666</ele><time>2026-04-25T07:09:36.763Z</time></trkpt><trkpt lat="45.88054801771741" lon="12.028028588613326"><ele>167.83333333333334</ele><time>2026-04-25T07:09:37.763Z</time></trkpt><trkpt lat="45.88062903338313" lon="12.028045311741055"><ele>168.0</ele><time>2026-04-25T07:09:38.764Z</time></trkpt><trkpt lat="45.880718809125966" lon="12.02806321997626"><ele>168.0</ele><time>2026-04-25T07:09:39.764Z</time></trkpt><trkpt lat="45.88080216182517" lon="12.028070390848022"><ele>168.0</ele><time>2026-04-25T07:09:40.764Z</time></trkpt><trkpt lat="45.88088487972634" lon="12.02807853899173"><ele>168.0</ele><time>2026-04-25T07:09:41.763Z</time></trkpt><trkpt lat="45.88096571905757" lon="12.028086060255754"><ele>168.0</ele><time>2026-04-25T07:09:42.763Z</time></trkpt><trkpt lat="45.88104018095804" lon="12.028092682001509"><ele>168.0</ele><time>2026-04-25T07:09:43.763Z</time></trkpt><trkpt lat="45.881114531720016" lon="12.028112871057541"><ele>168.0</ele><time>2026-04-25T07:09:44.763Z</time></trkpt><trkpt lat="45.88117952658514" lon="12.02812208133702"><ele>167.60000000000002</ele><time>2026-04-25T07:09:45.763Z</time></trkpt><trkpt lat="45.8812750648085" lon="12.028125021517326"><ele>167.20000000000002</ele><time>2026-04-25T07:09:47.763Z</time></trkpt><trkpt lat="45.881362820051486" lon="12.028162569897761"><ele>166.8</ele><time>2026-04-25T07:09:49.763Z</time></trkpt><trkpt lat="45.88144749944721" lon="12.028231002017082"><ele>166.4</ele><time>2026-04-25T07:09:51.763Z</time></trkpt><trkpt lat="45.881489396129496" lon="12.028302215715922"><ele>166.0</ele><time>2026-04-25T07:09:52.763Z</time></trkpt><trkpt lat="45.88155199034865" lon="12.028466751283794"><ele>166.0</ele><time>2026-04-25T07:09:54.763Z</time></trkpt><trkpt lat="45.881588844480554" lon="12.028560653757037"><ele>166.0</ele><time>2026-04-25T07:09:55.763Z</time></trkpt><trkpt lat="45.88162997912133" lon="12.028651841210749"><ele>166.0</ele><time>2026-04-25T07:09:56.763Z</time></trkpt><trkpt lat="45.88166272906694" lon="12.028745711004774"><ele>166.0</ele><time>2026-04-25T07:09:57.763Z</time></trkpt><trkpt lat="45.88169764283297" lon="12.028824920725075"><ele>166.0</ele><time>2026-04-25T07:09:58.763Z</time></trkpt><trkpt lat="45.88173163754023" lon="12.028904218838532"><ele>166.0</ele><time>2026-04-25T07:09:59.763Z</time></trkpt><trkpt lat="45.88177799820961" lon="12.028970342364516"><ele>166.0</ele><time>2026-04-25T07:10:00.763Z</time></trkpt><trkpt lat="45.88184217403472" lon="12.029028954849874"><ele>166.5</ele><time>2026-04-25T07:10:01.763Z</time></trkpt><trkpt lat="45.88191391381153" lon="12.029077403138803"><ele>167.0</ele><time>2026-04-25T07:10:02.763Z</time></trkpt><trkpt lat="45.881985004168854" lon="12.029117641578255"><ele>167.5</ele><time>2026-04-25T07:10:03.763Z</time></trkpt><trkpt lat="45.88206830797172" lon="12.029151937770852"><ele>168.0</ele><time>2026-04-25T07:10:04.763Z</time></trkpt><trkpt lat="45.88214766196725" lon="12.029182837679784"><ele>168.5</ele><time>2026-04-25T07:10:05.763Z</time></trkpt><trkpt lat="45.882229411313894" lon="12.029219396162926"><ele>169.0</ele><time>2026-04-25T07:10:06.763Z</time></trkpt><trkpt lat="45.88230932456468" lon="12.02924725069332"><ele>169.0</ele><time>2026-04-25T07:10:07.763Z</time></trkpt><trkpt lat="45.88238555753955" lon="12.029278386333162"><ele>169.0</ele><time>2026-04-25T07:10:08.762Z</time></trkpt><trkpt lat="45.882468559928625" lon="12.029319953359357"><ele>169.0</ele><time>2026-04-25T07:10:09.762Z</time></trkpt><trkpt lat="45.8825527187468" lon="12.029360685042311"><ele>169.0</ele><time>2026-04-25T07:10:10.762Z</time></trkpt><trkpt lat="45.88263687080768" lon="12.029403634579438"><ele>169.0</ele><time>2026-04-25T07:10:11.762Z</time></trkpt><trkpt lat="45.882718366358596" lon="12.029452462346159"><ele>169.0</ele><time>2026-04-25T07:10:12.762Z</time></trkpt><trkpt lat="45.88278989921896" lon="12.029528813470872"><ele>169.0</ele><time>2026-04-25T07:10:13.762Z</time></trkpt><trkpt lat="45.882849642095174" lon="12.029627208387078"><ele>169.0</ele><time>2026-04-25T07:10:14.762Z</time></trkpt><trkpt lat="45.882894849304556" lon="12.029734057732256"><ele>169.0</ele><time>2026-04-25T07:10:15.762Z</time></trkpt><trkpt lat="45.88294222794465" lon="12.029826356156883"><ele>169.0</ele><time>2026-04-25T07:10:16.762Z</time></trkpt><trkpt lat="45.88299266027301" lon="12.02992018747357"><ele>169.0</ele><time>2026-04-25T07:10:17.762Z</time></trkpt><trkpt lat="45.88304659891766" lon="12.03001975529261"><ele>169.0</ele><time>2026-04-25T07:10:18.762Z</time></trkpt><trkpt lat="45.88309319563199" lon="12.030101324122196"><ele>169.16666666666669</ele><time>2026-04-25T07:10:19.762Z</time></trkpt><trkpt lat="45.88314379339344" lon="12.0301904939122"><ele>169.33333333333334</ele><time>2026-04-25T07:10:20.762Z</time></trkpt><trkpt lat="45.88319036717325" lon="12.030281420103078"><ele>169.5</ele><time>2026-04-25T07:10:21.762Z</time></trkpt><trkpt lat="45.8832306747242" lon="12.030371044655288"><ele>169.66666666666666</ele><time>2026-04-25T07:10:22.762Z</time></trkpt><trkpt lat="45.88327154006963" lon="12.030456457593813"><ele>169.83333333333331</ele><time>2026-04-25T07:10:23.762Z</time></trkpt><trkpt lat="45.883311241903684" lon="12.030545915406694"><ele>170.0</ele><time>2026-04-25T07:10:24.762Z</time></trkpt><trkpt lat="45.88335087614827" lon="12.030634326607903"><ele>170.0</ele><time>2026-04-25T07:10:25.762Z</time></trkpt><trkpt lat="45.88339646177456" lon="12.030727284241609"><ele>170.0</ele><time>2026-04-25T07:10:26.762Z</time></trkpt><trkpt lat="45.88343313683666" lon="12.030824618473515"><ele>170.0</ele><time>2026-04-25T07:10:27.762Z</time></trkpt><trkpt lat="45.88347309259907" lon="12.030906113982667"><ele>170.0</ele><time>2026-04-25T07:10:28.762Z</time></trkpt><trkpt lat="45.88351569464496" lon="12.03097784078738"><ele>170.0</ele><time>2026-04-25T07:10:29.762Z</time></trkpt><trkpt lat="45.88356276770075" lon="12.031043087633638"><ele>170.0</ele><time>2026-04-25T07:10:30.762Z</time></trkpt><trkpt lat="45.883680152466816" lon="12.031117203722143"><ele>170.0</ele><time>2026-04-25T07:10:32.762Z</time></trkpt><trkpt lat="45.88378545676065" lon="12.031183333267956"><ele>170.0</ele><time>2026-04-25T07:10:34.762Z</time></trkpt><trkpt lat="45.88389696761073" lon="12.03119471708166"><ele>170.0</ele><time>2026-04-25T07:10:36.762Z</time></trkpt><trkpt lat="45.88400288304782" lon="12.031220071149418"><ele>170.0</ele><time>2026-04-25T07:10:38.761Z</time></trkpt><trkpt lat="45.88406072986752" lon="12.031261496896862"><ele>170.0</ele><time>2026-04-25T07:10:39.761Z</time></trkpt><trkpt lat="45.88416455198864" lon="12.03128405250117"><ele>170.6</ele><time>2026-04-25T07:10:41.761Z</time></trkpt><trkpt lat="45.8842735705757" lon="12.031288137149856"><ele>171.2</ele><time>2026-04-25T07:10:43.761Z</time></trkpt><trkpt lat="45.884384915911994" lon="12.031267902664323"><ele>171.8</ele><time>2026-04-25T07:10:45.761Z</time></trkpt><trkpt lat="45.88447057224241" lon="12.031277011286802"><ele>172.4</ele><time>2026-04-25T07:10:48.761Z</time></trkpt><trkpt lat="45.88457213324653" lon="12.031190712322703"><ele>173.0</ele><time>2026-04-25T07:10:50.761Z</time></trkpt><trkpt lat="45.88464283790132" lon="12.03116408620043"><ele>173.0</ele><time>2026-04-25T07:10:51.761Z</time></trkpt><trkpt lat="45.884757273622554" lon="12.031121109118937"><ele>173.0</ele><time>2026-04-25T07:10:53.761Z</time></trkpt><trkpt lat="45.884853300130175" lon="12.031073609045567"><ele>173.0</ele><time>2026-04-25T07:10:55.761Z</time></trkpt><trkpt lat="45.88495928650895" lon="12.03104462025875"><ele>173.0</ele><time>2026-04-25T07:10:57.761Z</time></trkpt><trkpt lat="45.885072461595946" lon="12.031044918417166"><ele>173.0</ele><time>2026-04-25T07:10:59.761Z</time></trkpt><trkpt lat="45.88517908031403" lon="12.031067086864491"><ele>173.8</ele><time>2026-04-25T07:11:01.761Z</time></trkpt><trkpt lat="45.88527702811389" lon="12.031099512420983"><ele>174.60000000000002</ele><time>2026-04-25T07:11:03.761Z</time></trkpt><trkpt lat="45.88538534845403" lon="12.031142481921288"><ele>175.39999999999998</ele><time>2026-04-25T07:11:05.76Z</time></trkpt><trkpt lat="45.885495967007" lon="12.03118900304653"><ele>176.2</ele><time>2026-04-25T07:11:07.76Z</time></trkpt><trkpt lat="45.88560224017693" lon="12.0312366816719"><ele>177.0</ele><time>2026-04-25T07:11:09.76Z</time></trkpt><trkpt lat="45.88570988098758" lon="12.031288354189025"><ele>177.0</ele><time>2026-04-25T07:11:11.762Z</time></trkpt><trkpt lat="45.88577507881279" lon="12.031321444622133"><ele>177.0</ele><time>2026-04-25T07:11:12.765Z</time></trkpt><trkpt lat="45.88589163911651" lon="12.031362023342142"><ele>177.0</ele><time>2026-04-25T07:11:14.77Z</time></trkpt><trkpt lat="45.885988121564196" lon="12.031400826716958"><ele>177.0</ele><time>2026-04-25T07:11:16.774Z</time></trkpt><trkpt lat="45.88610960244176" lon="12.031437770226454"><ele>177.0</ele><time>2026-04-25T07:11:18.778Z</time></trkpt><trkpt lat="45.886172711666134" lon="12.031447942105212"><ele>177.2</ele><time>2026-04-25T07:11:19.779Z</time></trkpt><trkpt lat="45.88623488017859" lon="12.031463655599785"><ele>177.39999999999998</ele><time>2026-04-25T07:11:20.781Z</time></trkpt><trkpt lat="45.88635053591631" lon="12.031494944371397"><ele>177.60000000000002</ele><time>2026-04-25T07:11:22.784Z</time></trkpt><trkpt lat="45.88641666431559" lon="12.031512035475835"><ele>177.8</ele><time>2026-04-25T07:11:23.785Z</time></trkpt><trkpt lat="45.88652977744511" lon="12.031557780875625"><ele>178.0</ele><time>2026-04-25T07:11:25.787Z</time></trkpt><trkpt lat="45.8866385165243" lon="12.031601003095444"><ele>178.0</ele><time>2026-04-25T07:11:27.789Z</time></trkpt><trkpt lat="45.88670145117546" lon="12.031613157605868"><ele>178.0</ele><time>2026-04-25T07:11:28.79Z</time></trkpt><trkpt lat="45.88676376618773" lon="12.031629192089177"><ele>178.0</ele><time>2026-04-25T07:11:29.791Z</time></trkpt><trkpt lat="45.88687085040178" lon="12.03166862384431"><ele>178.0</ele><time>2026-04-25T07:11:31.793Z</time></trkpt><trkpt lat="45.886983314602126" lon="12.03171537682314"><ele>178.0</ele><time>2026-04-25T07:11:33.794Z</time></trkpt><trkpt lat="45.88709370407482" lon="12.031769898033454"><ele>177.8</ele><time>2026-04-25T07:11:35.795Z</time></trkpt><trkpt lat="45.88719926054271" lon="12.031823082404644"><ele>177.60000000000002</ele><time>2026-04-25T07:11:37.796Z</time></trkpt><trkpt lat="45.8872605936024" lon="12.031853464208423"><ele>177.39999999999998</ele><time>2026-04-25T07:11:38.797Z</time></trkpt><trkpt lat="45.8873762217124" lon="12.031921231053284"><ele>177.2</ele><time>2026-04-25T07:11:40.798Z</time></trkpt><trkpt lat="45.887494657802876" lon="12.03197007897186"><ele>177.0</ele><time>2026-04-25T07:11:42.799Z</time></trkpt><trkpt lat="45.88761286961386" lon="12.032031217020673"><ele>176.39999999999998</ele><time>2026-04-25T07:11:44.8Z</time></trkpt><trkpt lat="45.887673094031285" lon="12.032064028457464"><ele>175.79999999999998</ele><time>2026-04-25T07:11:45.801Z</time></trkpt><trkpt lat="45.88778316032411" lon="12.032126728810624"><ele>175.2</ele><time>2026-04-25T07:11:47.801Z</time></trkpt><trkpt lat="45.88789320862627" lon="12.03220528788662"><ele>174.6</ele><time>2026-04-25T07:11:49.801Z</time></trkpt><trkpt lat="45.88799762565091" lon="12.032299593914358"><ele>174.0</ele><time>2026-04-25T07:11:51.802Z</time></trkpt><trkpt lat="45.888099663367335" lon="12.032390822757497"><ele>174.0</ele><time>2026-04-25T07:11:53.802Z</time></trkpt><trkpt lat="45.88818099086875" lon="12.032461271164747"><ele>174.0</ele><time>2026-04-25T07:11:55.803Z</time></trkpt><trkpt lat="45.888273887050275" lon="12.032549017115375"><ele>174.0</ele><time>2026-04-25T07:11:57.803Z</time></trkpt><trkpt lat="45.88836259302629" lon="12.03265484199381"><ele>174.0</ele><time>2026-04-25T07:11:59.803Z</time></trkpt><trkpt lat="45.88843248891288" lon="12.032778601195117"><ele>174.0</ele><time>2026-04-25T07:12:01.803Z</time></trkpt><trkpt lat="45.88847896744765" lon="12.03284462346844"><ele>174.75</ele><time>2026-04-25T07:12:02.803Z</time></trkpt><trkpt lat="45.88856052462124" lon="12.032974552420407"><ele>175.5</ele><time>2026-04-25T07:12:04.803Z</time></trkpt><trkpt lat="45.88864978711342" lon="12.033058382207527"><ele>176.25</ele><time>2026-04-25T07:12:06.803Z</time></trkpt><trkpt lat="45.88877103984427" lon="12.033085383803627"><ele>177.0</ele><time>2026-04-25T07:12:08.804Z</time></trkpt><trkpt lat="45.88887276486025" lon="12.033069122168415"><ele>177.0</ele><time>2026-04-25T07:12:10.804Z</time></trkpt><trkpt lat="45.888978573565396" lon="12.033027362386347"><ele>177.0</ele><time>2026-04-25T07:12:12.804Z</time></trkpt><trkpt lat="45.889076677057396" lon="12.033006951892766"><ele>177.0</ele><time>2026-04-25T07:12:14.804Z</time></trkpt><trkpt lat="45.88916797993525" lon="12.032985897526165"><ele>177.0</ele><time>2026-04-25T07:12:16.804Z</time></trkpt><trkpt lat="45.88925383181379" lon="12.033012841339401"><ele>177.0</ele><time>2026-04-25T07:12:18.804Z</time></trkpt><trkpt lat="45.88934096023959" lon="12.033063596595685"><ele>177.2</ele><time>2026-04-25T07:12:20.804Z</time></trkpt><trkpt lat="45.88942583572436" lon="12.033111759546001"><ele>177.39999999999998</ele><time>2026-04-25T07:12:22.804Z</time></trkpt><trkpt lat="45.88952170342409" lon="12.03316067469674"><ele>177.60000000000002</ele><time>2026-04-25T07:12:24.804Z</time></trkpt><trkpt lat="45.88961464129469" lon="12.033214178938419"><ele>177.8</ele><time>2026-04-25T07:12:26.804Z</time></trkpt><trkpt lat="45.88969981431387" lon="12.033253848260257"><ele>178.0</ele><time>2026-04-25T07:12:28.804Z</time></trkpt><trkpt lat="45.889786337424326" lon="12.033305273562533"><ele>179.4</ele><time>2026-04-25T07:12:30.804Z</time></trkpt><trkpt lat="45.8898793209564" lon="12.033359498924083"><ele>180.8</ele><time>2026-04-25T07:12:32.804Z</time></trkpt><trkpt lat="45.88996970213033" lon="12.033406707650572"><ele>182.2</ele><time>2026-04-25T07:12:34.804Z</time></trkpt><trkpt lat="45.890066277114435" lon="12.033461658186864"><ele>183.6</ele><time>2026-04-25T07:12:36.804Z</time></trkpt><trkpt lat="45.890152980350706" lon="12.033511462393662"><ele>185.0</ele><time>2026-04-25T07:12:38.804Z</time></trkpt><trkpt lat="45.890238283848944" lon="12.033554963017108"><ele>185.4</ele><time>2026-04-25T07:12:40.804Z</time></trkpt><trkpt lat="45.890341084756116" lon="12.033610462043114"><ele>185.8</ele><time>2026-04-25T07:12:42.804Z</time></trkpt><trkpt lat="45.89043805973328" lon="12.033655644762572"><ele>186.2</ele><time>2026-04-25T07:12:44.804Z</time></trkpt><trkpt lat="45.89052518930779" lon="12.03371579391968"><ele>186.6</ele><time>2026-04-25T07:12:46.804Z</time></trkpt><trkpt lat="45.890611502425465" lon="12.033763901670898"><ele>187.0</ele><time>2026-04-25T07:12:48.803Z</time></trkpt><trkpt lat="45.89068929067216" lon="12.033799670048923"><ele>187.0</ele><time>2026-04-25T07:12:50.803Z</time></trkpt><trkpt lat="45.89077622658906" lon="12.033852052479068"><ele>187.0</ele><time>2026-04-25T07:12:52.803Z</time></trkpt><trkpt lat="45.89086074908862" lon="12.033886706474801"><ele>187.0</ele><time>2026-04-25T07:12:54.803Z</time></trkpt><trkpt lat="45.89094568075619" lon="12.033938552133392"><ele>187.0</ele><time>2026-04-25T07:12:56.803Z</time></trkpt><trkpt lat="45.891030530092834" lon="12.03397340215113"><ele>187.0</ele><time>2026-04-25T07:12:58.803Z</time></trkpt><trkpt lat="45.89112315504149" lon="12.034023522013651"><ele>187.39999999999998</ele><time>2026-04-25T07:13:00.803Z</time></trkpt><trkpt lat="45.89121472043691" lon="12.034079146524347"><ele>187.79999999999998</ele><time>2026-04-25T07:13:02.803Z</time></trkpt><trkpt lat="45.89131064433903" lon="12.03412784594087"><ele>188.2</ele><time>2026-04-25T07:13:04.803Z</time></trkpt><trkpt lat="45.891411606158144" lon="12.034181034037758"><ele>188.6</ele><time>2026-04-25T07:13:06.803Z</time></trkpt><trkpt lat="45.89150896521569" lon="12.03422509826"><ele>189.0</ele><time>2026-04-25T07:13:08.803Z</time></trkpt><trkpt lat="45.89160499733866" lon="12.034286916422856"><ele>189.5</ele><time>2026-04-25T07:13:10.803Z</time></trkpt><trkpt lat="45.89170185470744" lon="12.034341737591392"><ele>190.0</ele><time>2026-04-25T07:13:12.803Z</time></trkpt><trkpt lat="45.89178594137892" lon="12.03439208081027"><ele>190.5</ele><time>2026-04-25T07:13:14.803Z</time></trkpt><trkpt lat="45.89187521427397" lon="12.034427114160664"><ele>191.0</ele><time>2026-04-25T07:13:16.803Z</time></trkpt><trkpt lat="45.89194735644649" lon="12.034463266420664"><ele>191.5</ele><time>2026-04-25T07:13:18.803Z</time></trkpt><trkpt lat="45.89202310099294" lon="12.034504372880589"><ele>192.0</ele><time>2026-04-25T07:13:20.803Z</time></trkpt><trkpt lat="45.892093437843585" lon="12.034547454622377"><ele>193.16666666666666</ele><time>2026-04-25T07:13:22.803Z</time></trkpt><trkpt lat="45.892158401963606" lon="12.03459167942423"><ele>194.33333333333331</ele><time>2026-04-25T07:13:24.803Z</time></trkpt><trkpt lat="45.892239304442334" lon="12.034628478668472"><ele>195.5</ele><time>2026-04-25T07:13:26.803Z</time></trkpt><trkpt lat="45.892314791916455" lon="12.03466316500528"><ele>196.66666666666666</ele><time>2026-04-25T07:13:28.802Z</time></trkpt><trkpt lat="45.89239866349482" lon="12.034700860972926"><ele>197.83333333333331</ele><time>2026-04-25T07:13:31.802Z</time></trkpt><trkpt lat="45.89246682467742" lon="12.034704717976654"><ele>199.0</ele><time>2026-04-25T07:13:33.802Z</time></trkpt><trkpt lat="45.892536840501464" lon="12.034674087385785"><ele>199.42857142857142</ele><time>2026-04-25T07:13:35.802Z</time></trkpt><trkpt lat="45.892610127568894" lon="12.034637418886225"><ele>199.85714285714286</ele><time>2026-04-25T07:13:37.802Z</time></trkpt><trkpt lat="45.892674326758744" lon="12.03461270747104"><ele>200.28571428571428</ele><time>2026-04-25T07:13:39.802Z</time></trkpt><trkpt lat="45.89276787854417" lon="12.034566974125767"><ele>200.71428571428572</ele><time>2026-04-25T07:13:42.802Z</time></trkpt><trkpt lat="45.89283401950319" lon="12.034539922068106"><ele>201.14285714285714</ele><time>2026-04-25T07:13:44.802Z</time></trkpt><trkpt lat="45.89290259015888" lon="12.034524133007773"><ele>201.57142857142856</ele><time>2026-04-25T07:13:46.802Z</time></trkpt><trkpt lat="45.892969074721925" lon="12.034512276958607"><ele>202.0</ele><time>2026-04-25T07:13:48.802Z</time></trkpt><trkpt lat="45.8930350475957" lon="12.034481303029763"><ele>202.0</ele><time>2026-04-25T07:13:50.802Z</time></trkpt><trkpt lat="45.893116037645534" lon="12.034449874023558"><ele>202.0</ele><time>2026-04-25T07:13:52.803Z</time></trkpt><trkpt lat="45.893220725789135" lon="12.034401732518274"><ele>202.0</ele><time>2026-04-25T07:13:54.803Z</time></trkpt><trkpt lat="45.89334044352323" lon="12.034347765386105"><ele>202.0</ele><time>2026-04-25T07:13:56.803Z</time></trkpt><trkpt lat="45.89340486532692" lon="12.034318513904346"><ele>202.0</ele><time>2026-04-25T07:13:57.803Z</time></trkpt><trkpt lat="45.89347048117554" lon="12.034291935526527"><ele>201.83333333333331</ele><time>2026-04-25T07:13:58.803Z</time></trkpt><trkpt lat="45.89353848666695" lon="12.034252422183746"><ele>201.66666666666666</ele><time>2026-04-25T07:13:59.803Z</time></trkpt><trkpt lat="45.893609476804635" lon="12.03421706535785"><ele>201.5</ele><time>2026-04-25T07:14:00.803Z</time></trkpt><trkpt lat="45.893685886509495" lon="12.03418653854669"><ele>201.33333333333331</ele><time>2026-04-25T07:14:01.803Z</time></trkpt><trkpt lat="45.89375973267944" lon="12.034159211206273"><ele>201.16666666666666</ele><time>2026-04-25T07:14:02.802Z</time></trkpt><trkpt lat="45.89383006686419" lon="12.034129286180667"><ele>201.0</ele><time>2026-04-25T07:14:03.803Z</time></trkpt><trkpt lat="45.89390186884102" lon="12.034100967114227"><ele>201.0</ele><time>2026-04-25T07:14:04.803Z</time></trkpt><trkpt lat="45.89397197070026" lon="12.034066253684118"><ele>201.0</ele><time>2026-04-25T07:14:05.803Z</time></trkpt><trkpt lat="45.89403586062392" lon="12.034034979352834"><ele>201.0</ele><time>2026-04-25T07:14:06.803Z</time></trkpt><trkpt lat="45.89409667219739" lon="12.034010531689747"><ele>201.0</ele><time>2026-04-25T07:14:07.803Z</time></trkpt><trkpt lat="45.894221079157475" lon="12.033953345763736"><ele>201.0</ele><time>2026-04-25T07:14:09.803Z</time></trkpt><trkpt lat="45.89428779418286" lon="12.033932177535727"><ele>201.0</ele><time>2026-04-25T07:14:10.803Z</time></trkpt><trkpt lat="45.894355592923645" lon="12.033912742168756"><ele>200.60000000000002</ele><time>2026-04-25T07:14:11.802Z</time></trkpt><trkpt lat="45.89447631422472" lon="12.033895338416762"><ele>200.2</ele><time>2026-04-25T07:14:13.802Z</time></trkpt><trkpt lat="45.89459620549184" lon="12.033864223730351"><ele>199.8</ele><time>2026-04-25T07:14:15.802Z</time></trkpt><trkpt lat="45.89466367423925" lon="12.033851441426823"><ele>199.39999999999998</ele><time>2026-04-25T07:14:16.802Z</time></trkpt><trkpt lat="45.89476487225793" lon="12.033835765646982"><ele>199.0</ele><time>2026-04-25T07:14:18.802Z</time></trkpt><trkpt lat="45.89483278222756" lon="12.033816921929741"><ele>199.0</ele><time>2026-04-25T07:14:21.802Z</time></trkpt><trkpt lat="45.89490175651523" lon="12.033749577635513"><ele>199.0</ele><time>2026-04-25T07:14:30.802Z</time></trkpt><trkpt lat="45.89495573305579" lon="12.03367115117537"><ele>199.0</ele><time>2026-04-25T07:14:32.802Z</time></trkpt><trkpt lat="45.89501525309772" lon="12.033581872882227"><ele>199.0</ele><time>2026-04-25T07:14:34.802Z</time></trkpt><trkpt lat="45.89510245209216" lon="12.033493076785506"><ele>199.0</ele><time>2026-04-25T07:14:36.802Z</time></trkpt><trkpt lat="45.895202818257836" lon="12.033449651359057"><ele>199.0</ele><time>2026-04-25T07:14:38.802Z</time></trkpt><trkpt lat="45.895322903386145" lon="12.033466761795767"><ele>199.0</ele><time>2026-04-25T07:14:40.802Z</time></trkpt><trkpt lat="45.895388150906996" lon="12.033496213875884"><ele>199.0</ele><time>2026-04-25T07:14:41.802Z</time></trkpt><trkpt lat="45.895458360788936" lon="12.03350778948894"><ele>199.0</ele><time>2026-04-25T07:14:42.802Z</time></trkpt><trkpt lat="45.89552658494822" lon="12.033518502865396"><ele>199.0</ele><time>2026-04-25T07:14:43.802Z</time></trkpt><trkpt lat="45.89565606218781" lon="12.0335382306379"><ele>198.99999999999997</ele><time>2026-04-25T07:14:45.802Z</time></trkpt><trkpt lat="45.89572198852188" lon="12.033541586849468"><ele>199.0</ele><time>2026-04-25T07:14:46.802Z</time></trkpt><trkpt lat="45.895788943109935" lon="12.033546532609723"><ele>199.0</ele><time>2026-04-25T07:14:47.802Z</time></trkpt><trkpt lat="45.895864978190644" lon="12.03355125300522"><ele>199.0</ele><time>2026-04-25T07:14:48.802Z</time></trkpt><trkpt lat="45.89593950122493" lon="12.033556209995607"><ele>199.0</ele><time>2026-04-25T07:14:49.801Z</time></trkpt><trkpt lat="45.896016109921234" lon="12.033560691090978"><ele>198.99999999999997</ele><time>2026-04-25T07:14:50.801Z</time></trkpt><trkpt lat="45.89609273434157" lon="12.033565630228647"><ele>199.0</ele><time>2026-04-25T07:14:51.801Z</time></trkpt><trkpt lat="45.89616981060109" lon="12.033574172362655"><ele>199.49999999999997</ele><time>2026-04-25T07:14:52.801Z</time></trkpt><trkpt lat="45.89624597335511" lon="12.03357301944874"><ele>200.0</ele><time>2026-04-25T07:14:53.801Z</time></trkpt><trkpt lat="45.896318528159924" lon="12.03356644783716"><ele>200.5</ele><time>2026-04-25T07:14:54.801Z</time></trkpt><trkpt lat="45.89638822960378" lon="12.033550392357926"><ele>201.0</ele><time>2026-04-25T07:14:55.801Z</time></trkpt><trkpt lat="45.896460453094065" lon="12.033530858808472"><ele>201.49999999999997</ele><time>2026-04-25T07:14:56.801Z</time></trkpt><trkpt lat="45.89652601981639" lon="12.033516806185448"><ele>202.0</ele><time>2026-04-25T07:14:57.801Z</time></trkpt><trkpt lat="45.89664583453989" lon="12.033477767255276"><ele>203.2</ele><time>2026-04-25T07:14:59.801Z</time></trkpt><trkpt lat="45.89675332591222" lon="12.03342594007116"><ele>204.39999999999998</ele><time>2026-04-25T07:15:01.801Z</time></trkpt><trkpt lat="45.89685114035143" lon="12.033367858187233"><ele>205.60000000000002</ele><time>2026-04-25T07:15:03.801Z</time></trkpt><trkpt lat="45.89693811626493" lon="12.033311089642941"><ele>206.8</ele><time>2026-04-25T07:15:05.801Z</time></trkpt><trkpt lat="45.897020069644825" lon="12.033261277418388"><ele>208.0</ele><time>2026-04-25T07:15:07.801Z</time></trkpt><trkpt lat="45.897091680838244" lon="12.033226992252807"><ele>208.14285714285714</ele><time>2026-04-25T07:15:09.801Z</time></trkpt><trkpt lat="45.8971566539239" lon="12.033186165388663"><ele>208.2857142857143</ele><time>2026-04-25T07:15:11.801Z</time></trkpt><trkpt lat="45.897225154543335" lon="12.033147804628271"><ele>208.42857142857144</ele><time>2026-04-25T07:15:13.801Z</time></trkpt><trkpt lat="45.897293705958624" lon="12.03310599905719"><ele>208.57142857142856</ele><time>2026-04-25T07:15:15.801Z</time></trkpt><trkpt lat="45.89735970112089" lon="12.033070632216646"><ele>208.71428571428572</ele><time>2026-04-25T07:15:17.801Z</time></trkpt><trkpt lat="45.897418585319905" lon="12.033033975423784"><ele>208.85714285714286</ele><time>2026-04-25T07:15:19.801Z</time></trkpt><trkpt lat="45.8974777446033" lon="12.032999132757995"><ele>209.0</ele><time>2026-04-25T07:15:21.801Z</time></trkpt><trkpt lat="45.89756611355636" lon="12.032968562325587"><ele>211.50000000000003</ele><time>2026-04-25T07:15:24.801Z</time></trkpt><trkpt lat="45.89762407806124" lon="12.032931799195879"><ele>214.0</ele><time>2026-04-25T07:15:26.8Z</time></trkpt><trkpt lat="45.89770768502922" lon="12.032901642368763"><ele>216.5</ele><time>2026-04-25T07:15:29.8Z</time></trkpt><trkpt lat="45.89778204521076" lon="12.03287878244065"><ele>219.0</ele><time>2026-04-25T07:15:32.8Z</time></trkpt><trkpt lat="45.89786272158078" lon="12.032840684600787"><ele>221.50000000000003</ele><time>2026-04-25T07:15:35.8Z</time></trkpt><trkpt lat="45.89793527513444" lon="12.032818405040588"><ele>224.0</ele><time>2026-04-25T07:15:38.8Z</time></trkpt><trkpt lat="45.898009977622635" lon="12.032784411066771"><ele>224.0</ele><time>2026-04-25T07:15:41.8Z</time></trkpt><trkpt lat="45.89807421724429" lon="12.032725690027705"><ele>224.0</ele><time>2026-04-25T07:15:46.8Z</time></trkpt><trkpt lat="45.898136580258864" lon="12.032701917739331"><ele>224.0</ele><time>2026-04-25T07:15:51.8Z</time></trkpt><trkpt lat="45.89821614980653" lon="12.032695032946767"><ele>224.0</ele><time>2026-04-25T07:15:55.8Z</time></trkpt><trkpt lat="45.89828696984136" lon="12.032687516348862"><ele>224.0</ele><time>2026-04-25T07:16:00.801Z</time></trkpt><trkpt lat="45.89835324712824" lon="12.032705587481225"><ele>224.0</ele><time>2026-04-25T07:16:02.8Z</time></trkpt><trkpt lat="45.89843780316753" lon="12.032702765590143"><ele>224.0</ele><time>2026-04-25T07:16:07.8Z</time></trkpt><trkpt lat="45.89851771917075" lon="12.032695466126732"><ele>227.28571428571428</ele><time>2026-04-25T07:16:12.8Z</time></trkpt><trkpt lat="45.89859411584512" lon="12.032683740792516"><ele>230.57142857142856</ele><time>2026-04-25T07:16:16.8Z</time></trkpt><trkpt lat="45.89864859911175" lon="12.032637690113074"><ele>233.85714285714286</ele><time>2026-04-25T07:16:20.8Z</time></trkpt><trkpt lat="45.89870521476203" lon="12.03257508818846"><ele>237.14285714285714</ele><time>2026-04-25T07:16:25.799Z</time></trkpt><trkpt lat="45.89874874819238" lon="12.032487625811164"><ele>240.42857142857142</ele><time>2026-04-25T07:16:30.799Z</time></trkpt><trkpt lat="45.89879177571306" lon="12.032409070791385"><ele>243.71428571428572</ele><time>2026-04-25T07:16:34.799Z</time></trkpt><trkpt lat="45.89882704373176" lon="12.032328554490816"><ele>247.0</ele><time>2026-04-25T07:16:38.799Z</time></trkpt><trkpt lat="45.89887384656863" lon="12.032233985824435"><ele>248.0</ele><time>2026-04-25T07:16:43.799Z</time></trkpt><trkpt lat="45.89890707187834" lon="12.03214179798367"><ele>249.0</ele><time>2026-04-25T07:16:47.799Z</time></trkpt><trkpt lat="45.89890405674378" lon="12.032046462483512"><ele>250.0</ele><time>2026-04-25T07:16:51.799Z</time></trkpt><trkpt lat="45.898861135928925" lon="12.031970865100417"><ele>251.0</ele><time>2026-04-25T07:16:54.799Z</time></trkpt><trkpt lat="45.8988405974799" lon="12.031865816287668"><ele>252.0</ele><time>2026-04-25T07:16:58.799Z</time></trkpt><trkpt lat="45.89882250206842" lon="12.031766397174676"><ele>253.0</ele><time>2026-04-25T07:17:01.799Z</time></trkpt><trkpt lat="45.898791518198564" lon="12.03167300550732"><ele>254.0</ele><time>2026-04-25T07:17:04.798Z</time></trkpt><trkpt lat="45.898776141960795" lon="12.031572709575851"><ele>255.33333333333334</ele><time>2026-04-25T07:17:06.798Z</time></trkpt><trkpt lat="45.89876121017838" lon="12.031462773231787"><ele>256.6666666666667</ele><time>2026-04-25T07:17:10.798Z</time></trkpt><trkpt lat="45.89875805967391" lon="12.031364526783939"><ele>258.0</ele><time>2026-04-25T07:17:13.798Z</time></trkpt><trkpt lat="45.89875149572228" lon="12.031251434330443"><ele>259.3333333333333</ele><time>2026-04-25T07:17:16.798Z</time></trkpt><trkpt lat="45.898721316558486" lon="12.031148317844027"><ele>260.66666666666663</ele><time>2026-04-25T07:17:20.798Z</time></trkpt><trkpt lat="45.89869130205366" lon="12.03101395330102"><ele>262.0</ele><time>2026-04-25T07:17:23.798Z</time></trkpt><trkpt lat="45.89866595411428" lon="12.030926752720987"><ele>262.0</ele><time>2026-04-25T07:17:26.798Z</time></trkpt><trkpt lat="45.898675178665954" lon="12.030815948417763"><ele>262.0</ele><time>2026-04-25T07:17:29.798Z</time></trkpt><trkpt lat="45.898736642922294" lon="12.030767272337153"><ele>262.0</ele><time>2026-04-25T07:17:32.798Z</time></trkpt><trkpt lat="45.89879089454717" lon="12.030832309252643"><ele>262.0</ele><time>2026-04-25T07:17:37.798Z</time></trkpt><trkpt lat="45.898843558887854" lon="12.030907518689673"><ele>262.0</ele><time>2026-04-25T07:17:40.797Z</time></trkpt><trkpt lat="45.8988913381612" lon="12.031025722775484"><ele>262.0</ele><time>2026-04-25T07:17:42.797Z</time></trkpt><trkpt lat="45.89894833633509" lon="12.03113381682253"><ele>262.0</ele><time>2026-04-25T07:17:44.797Z</time></trkpt><trkpt lat="45.89900570545151" lon="12.031216172876029"><ele>262.0</ele><time>2026-04-25T07:17:49.797Z</time></trkpt><trkpt lat="45.8990660412518" lon="12.031309075830341"><ele>262.0</ele><time>2026-04-25T07:17:52.797Z</time></trkpt><trkpt lat="45.899103496021645" lon="12.031413955747961"><ele>262.0</ele><time>2026-04-25T07:17:55.797Z</time></trkpt><trkpt lat="45.89916165400926" lon="12.03153408522779"><ele>262.0</ele><time>2026-04-25T07:17:58.797Z</time></trkpt><trkpt lat="45.899206589434165" lon="12.031635357814684"><ele>262.0</ele><time>2026-04-25T07:18:00.797Z</time></trkpt><trkpt lat="45.89926174036946" lon="12.03173074167377"><ele>265.5</ele><time>2026-04-25T07:18:02.798Z</time></trkpt><trkpt lat="45.8993210412565" lon="12.031829083810477"><ele>269.0</ele><time>2026-04-25T07:18:04.798Z</time></trkpt><trkpt lat="45.899379490188124" lon="12.031911708997164"><ele>272.5</ele><time>2026-04-25T07:18:06.798Z</time></trkpt><trkpt lat="45.89945470680418" lon="12.032010614843243"><ele>276.0</ele><time>2026-04-25T07:18:08.797Z</time></trkpt><trkpt lat="45.89951016006186" lon="12.032089831780295"><ele>279.5</ele><time>2026-04-25T07:18:10.798Z</time></trkpt><trkpt lat="45.89957882874713" lon="12.032181307319972"><ele>283.0</ele><time>2026-04-25T07:18:12.798Z</time></trkpt><trkpt lat="45.89964384023053" lon="12.032269584673129"><ele>283.0</ele><time>2026-04-25T07:18:14.798Z</time></trkpt><trkpt lat="45.89970087626255" lon="12.032362085162104"><ele>283.0</ele><time>2026-04-25T07:18:16.797Z</time></trkpt><trkpt lat="45.89975979524361" lon="12.032442850661722"><ele>283.0</ele><time>2026-04-25T07:18:18.797Z</time></trkpt><trkpt lat="45.899823060658264" lon="12.032521956132515"><ele>283.0</ele><time>2026-04-25T07:18:20.797Z</time></trkpt><trkpt lat="45.89989046438462" lon="12.032619055607725"><ele>283.0</ele><time>2026-04-25T07:18:22.797Z</time></trkpt><trkpt lat="45.89997349840787" lon="12.03273469959936"><ele>285.4</ele><time>2026-04-25T07:18:24.797Z</time></trkpt><trkpt lat="45.900053666740185" lon="12.032852311989737"><ele>287.8</ele><time>2026-04-25T07:18:26.797Z</time></trkpt><trkpt lat="45.900142005856424" lon="12.032963271063002"><ele>290.2</ele><time>2026-04-25T07:18:28.797Z</time></trkpt><trkpt lat="45.90022190513443" lon="12.033069028997433"><ele>292.6</ele><time>2026-04-25T07:18:30.797Z</time></trkpt><trkpt lat="45.900308668252926" lon="12.033162403163438"><ele>295.0</ele><time>2026-04-25T07:18:32.797Z</time></trkpt><trkpt lat="45.90040233306666" lon="12.033276848421854"><ele>291.4</ele><time>2026-04-25T07:18:34.797Z</time></trkpt><trkpt lat="45.90045638886571" lon="12.033333792857668"><ele>287.8</ele><time>2026-04-25T07:18:35.797Z</time></trkpt><trkpt lat="45.90055449160318" lon="12.033425518429652"><ele>284.2</ele><time>2026-04-25T07:18:37.797Z</time></trkpt><trkpt lat="45.90064502823647" lon="12.033493423920262"><ele>280.6</ele><time>2026-04-25T07:18:39.797Z</time></trkpt><trkpt lat="45.900746528764785" lon="12.033556080423251"><ele>277.0</ele><time>2026-04-25T07:18:41.797Z</time></trkpt><trkpt lat="45.900820775272216" lon="12.033616398204604"><ele>277.0</ele><time>2026-04-25T07:18:43.797Z</time></trkpt><trkpt lat="45.900910383219355" lon="12.033698027954637"><ele>277.0</ele><time>2026-04-25T07:18:45.797Z</time></trkpt><trkpt lat="45.90100918983445" lon="12.033768180850656"><ele>277.0</ele><time>2026-04-25T07:18:47.797Z</time></trkpt><trkpt lat="45.90108202868337" lon="12.033852012193536"><ele>277.0</ele><time>2026-04-25T07:18:49.797Z</time></trkpt><trkpt lat="45.901151926318946" lon="12.033943681019851"><ele>277.0</ele><time>2026-04-25T07:18:51.796Z</time></trkpt><trkpt lat="45.90122237194359" lon="12.034043874186267"><ele>278.8</ele><time>2026-04-25T07:18:53.796Z</time></trkpt><trkpt lat="45.901285561082105" lon="12.0341427245418"><ele>280.6</ele><time>2026-04-25T07:18:55.796Z</time></trkpt><trkpt lat="45.90135086255873" lon="12.034243779387639"><ele>282.40000000000003</ele><time>2026-04-25T07:18:57.796Z</time></trkpt><trkpt lat="45.901425858860826" lon="12.034361114905026"><ele>284.2</ele><time>2026-04-25T07:18:59.796Z</time></trkpt><trkpt lat="45.90150939680194" lon="12.034473517670904"><ele>286.0</ele><time>2026-04-25T07:19:01.796Z</time></trkpt><trkpt lat="45.90158464769436" lon="12.034577418891267"><ele>286.0</ele><time>2026-04-25T07:19:03.796Z</time></trkpt><trkpt lat="45.90165357590222" lon="12.034694085569043"><ele>286.0</ele><time>2026-04-25T07:19:05.796Z</time></trkpt><trkpt lat="45.90173695051308" lon="12.034840506582768"><ele>286.0</ele><time>2026-04-25T07:19:07.796Z</time></trkpt><trkpt lat="45.90181435354516" lon="12.034982420362384"><ele>286.0</ele><time>2026-04-25T07:19:09.796Z</time></trkpt><trkpt lat="45.901851123919904" lon="12.035064752779805"><ele>286.0</ele><time>2026-04-25T07:19:10.796Z</time></trkpt><trkpt lat="45.901903890337984" lon="12.035156872267905"><ele>286.0</ele><time>2026-04-25T07:19:11.796Z</time></trkpt><trkpt lat="45.90195540996004" lon="12.035249937763213"><ele>286.0</ele><time>2026-04-25T07:19:12.796Z</time></trkpt><trkpt lat="45.90201308077642" lon="12.035346527913727"><ele>286.0</ele><time>2026-04-25T07:19:13.796Z</time></trkpt><trkpt lat="45.90207424691892" lon="12.035444816683338"><ele>286.0</ele><time>2026-04-25T07:19:14.796Z</time></trkpt><trkpt lat="45.90215020343034" lon="12.035526012484153"><ele>286.0</ele><time>2026-04-25T07:19:15.796Z</time></trkpt><trkpt lat="45.90223788316659" lon="12.035596979367222"><ele>286.0</ele><time>2026-04-25T07:19:16.796Z</time></trkpt><trkpt lat="45.90232734164166" lon="12.03565546156522"><ele>286.0</ele><time>2026-04-25T07:19:17.796Z</time></trkpt><trkpt lat="45.90241082459497" lon="12.035697417809882"><ele>286.0</ele><time>2026-04-25T07:19:18.796Z</time></trkpt><trkpt lat="45.90249487595068" lon="12.035719301707427"><ele>286.0</ele><time>2026-04-25T07:19:19.796Z</time></trkpt><trkpt lat="45.902575137229356" lon="12.035725327658715"><ele>286.0</ele><time>2026-04-25T07:19:20.796Z</time></trkpt><trkpt lat="45.90266829276186" lon="12.035744114604435"><ele>286.0</ele><time>2026-04-25T07:19:21.796Z</time></trkpt><trkpt lat="45.902751797907584" lon="12.035751737299043"><ele>284.5</ele><time>2026-04-25T07:19:22.796Z</time></trkpt><trkpt lat="45.90282797207769" lon="12.035740854318266"><ele>283.0</ele><time>2026-04-25T07:19:23.796Z</time></trkpt><trkpt lat="45.90291818188956" lon="12.035709999990468"><ele>281.5</ele><time>2026-04-25T07:19:24.796Z</time></trkpt><trkpt lat="45.90300221135452" lon="12.035676270376744"><ele>280.0</ele><time>2026-04-25T07:19:25.796Z</time></trkpt><trkpt lat="45.90306617950382" lon="12.03560017768933"><ele>278.5</ele><time>2026-04-25T07:19:26.796Z</time></trkpt><trkpt lat="45.90313176843872" lon="12.03553583435099"><ele>277.0</ele><time>2026-04-25T07:19:27.796Z</time></trkpt><trkpt lat="45.90319820074024" lon="12.035466731761526"><ele>277.0</ele><time>2026-04-25T07:19:28.796Z</time></trkpt><trkpt lat="45.90326029421129" lon="12.03542560967977"><ele>277.0</ele><time>2026-04-25T07:19:29.795Z</time></trkpt><trkpt lat="45.903325619880654" lon="12.035381008844523"><ele>277.0</ele><time>2026-04-25T07:19:30.795Z</time></trkpt><trkpt lat="45.90339330822532" lon="12.035399553963037"><ele>277.0</ele><time>2026-04-25T07:19:31.795Z</time></trkpt><trkpt lat="45.903456856042396" lon="12.035453112841829"><ele>277.0</ele><time>2026-04-25T07:19:32.795Z</time></trkpt><trkpt lat="45.90350233100846" lon="12.03552475151865"><ele>277.0</ele><time>2026-04-25T07:19:33.795Z</time></trkpt><trkpt lat="45.90354444807026" lon="12.035659637489958"><ele>277.8</ele><time>2026-04-25T07:19:35.795Z</time></trkpt><trkpt lat="45.90359979207544" lon="12.03573547051208"><ele>278.6</ele><time>2026-04-25T07:19:37.795Z</time></trkpt><trkpt lat="45.90367909405442" lon="12.035781689306896"><ele>279.40000000000003</ele><time>2026-04-25T07:19:41.795Z</time></trkpt><trkpt lat="45.90374271031732" lon="12.03577311751501"><ele>280.2</ele><time>2026-04-25T07:19:44.795Z</time></trkpt><trkpt lat="45.903867757905324" lon="12.035766191855448"><ele>281.0</ele><time>2026-04-25T07:19:50.795Z</time></trkpt><trkpt lat="45.90404841834333" lon="12.035774091177306"><ele>281.0</ele><time>2026-04-25T07:20:01.795Z</time></trkpt><trkpt lat="45.90413098925671" lon="12.035794812964424"><ele>281.0</ele><time>2026-04-25T07:20:06.794Z</time></trkpt><trkpt lat="45.9042634094511" lon="12.035795611233182"><ele>281.0</ele><time>2026-04-25T07:20:15.796Z</time></trkpt><trkpt lat="45.90433090092796" lon="12.03578784158751"><ele>281.0</ele><time>2026-04-25T07:20:19.795Z</time></trkpt><trkpt lat="45.90440166256879" lon="12.035821102039378"><ele>281.0</ele><time>2026-04-25T07:20:24.795Z</time></trkpt><trkpt lat="45.904467558559745" lon="12.035800579251756"><ele>281.0</ele><time>2026-04-25T07:20:28.795Z</time></trkpt><trkpt lat="45.9045337412428" lon="12.035797840520273"><ele>283.14285714285717</ele><time>2026-04-25T07:20:32.794Z</time></trkpt><trkpt lat="45.90459581264266" lon="12.03582922988559"><ele>285.2857142857143</ele><time>2026-04-25T07:20:37.794Z</time></trkpt><trkpt lat="45.90464491258457" lon="12.035886489003644"><ele>287.42857142857144</ele><time>2026-04-25T07:20:42.794Z</time></trkpt><trkpt lat="45.90468752233093" lon="12.035984024734939"><ele>289.57142857142856</ele><time>2026-04-25T07:20:46.794Z</time></trkpt><trkpt lat="45.9047293505006" lon="12.036061242474991"><ele>291.7142857142857</ele><time>2026-04-25T07:20:50.794Z</time></trkpt><trkpt lat="45.90473155396788" lon="12.036153828331942"><ele>293.8571428571429</ele><time>2026-04-25T07:20:53.794Z</time></trkpt><trkpt lat="45.90477168311903" lon="12.036253818424841"><ele>296.0</ele><time>2026-04-25T07:20:58.794Z</time></trkpt><trkpt lat="45.90481099343078" lon="12.03633311982621"><ele>296.0</ele><time>2026-04-25T07:21:02.794Z</time></trkpt><trkpt lat="45.90483318284139" lon="12.036421604290087"><ele>296.0</ele><time>2026-04-25T07:21:06.794Z</time></trkpt><trkpt lat="45.90488853982889" lon="12.036502292082583"><ele>296.0</ele><time>2026-04-25T07:21:11.793Z</time></trkpt><trkpt lat="45.90492152981309" lon="12.036595707582073"><ele>296.0</ele><time>2026-04-25T07:21:15.793Z</time></trkpt><trkpt lat="45.90493796864948" lon="12.036698456321217"><ele>296.0</ele><time>2026-04-25T07:21:19.793Z</time></trkpt><trkpt lat="45.90495823864824" lon="12.036791506276362"><ele>296.0</ele><time>2026-04-25T07:21:23.793Z</time></trkpt><trkpt lat="45.9049822514554" lon="12.036888209460352"><ele>296.0</ele><time>2026-04-25T07:21:27.793Z</time></trkpt><trkpt lat="45.90499593366437" lon="12.036981824380875"><ele>297.0</ele><time>2026-04-25T07:21:30.793Z</time></trkpt><trkpt lat="45.90501625969968" lon="12.037104722471598"><ele>298.0</ele><time>2026-04-25T07:21:34.793Z</time></trkpt><trkpt lat="45.90502522270585" lon="12.037225499773132"><ele>299.0</ele><time>2026-04-25T07:21:38.793Z</time></trkpt><trkpt lat="45.905014832303316" lon="12.037335899229243"><ele>300.0</ele><time>2026-04-25T07:21:41.793Z</time></trkpt><trkpt lat="45.904998894486056" lon="12.037424117039793"><ele>301.0</ele><time>2026-04-25T07:21:43.793Z</time></trkpt><trkpt lat="45.90500184959258" lon="12.037532553727537"><ele>302.0</ele><time>2026-04-25T07:21:45.792Z</time></trkpt><trkpt lat="45.90497524700873" lon="12.037694084314028"><ele>302.5</ele><time>2026-04-25T07:21:47.792Z</time></trkpt><trkpt lat="45.90496633134255" lon="12.037825971911992"><ele>303.0</ele><time>2026-04-25T07:21:48.792Z</time></trkpt><trkpt lat="45.904958006616894" lon="12.037955201949774"><ele>303.5</ele><time>2026-04-25T07:21:49.792Z</time></trkpt><trkpt lat="45.904948531810355" lon="12.038062731686813"><ele>304.0</ele><time>2026-04-25T07:21:50.792Z</time></trkpt><trkpt lat="45.9049410301333" lon="12.038159465483597"><ele>304.5</ele><time>2026-04-25T07:21:51.792Z</time></trkpt><trkpt lat="45.90493850105435" lon="12.038256692252286"><ele>305.0</ele><time>2026-04-25T07:21:52.792Z</time></trkpt><trkpt lat="45.90494061323096" lon="12.038351462700557"><ele>305.83333333333337</ele><time>2026-04-25T07:21:53.792Z</time></trkpt><trkpt lat="45.9049131269812" lon="12.038449306789603"><ele>306.6666666666667</ele><time>2026-04-25T07:21:54.792Z</time></trkpt><trkpt lat="45.90492142698874" lon="12.038552417511054"><ele>307.5</ele><time>2026-04-25T07:21:55.792Z</time></trkpt><trkpt lat="45.904912781834575" lon="12.038692389538848"><ele>308.3333333333333</ele><time>2026-04-25T07:21:57.792Z</time></trkpt><trkpt lat="45.904902386621764" lon="12.03881131097391"><ele>309.16666666666663</ele><time>2026-04-25T07:21:59.792Z</time></trkpt><trkpt lat="45.90488800435045" lon="12.038939029143345"><ele>310.0</ele><time>2026-04-25T07:22:01.792Z</time></trkpt><trkpt lat="45.90492822831134" lon="12.039052998179212"><ele>310.0</ele><time>2026-04-25T07:22:03.792Z</time></trkpt><trkpt lat="45.904965039165795" lon="12.039137845642037"><ele>310.0</ele><time>2026-04-25T07:22:05.792Z</time></trkpt><trkpt lat="45.90498461999445" lon="12.039272711859287"><ele>310.0</ele><time>2026-04-25T07:22:08.792Z</time></trkpt><trkpt lat="45.90500815411798" lon="12.039378397170879"><ele>310.0</ele><time>2026-04-25T07:22:11.792Z</time></trkpt><trkpt lat="45.905023043979654" lon="12.039513418072021"><ele>310.0</ele><time>2026-04-25T07:22:13.792Z</time></trkpt><trkpt lat="45.90504736998564" lon="12.03965044883089"><ele>310.0</ele><time>2026-04-25T07:22:15.793Z</time></trkpt><trkpt lat="45.90508707187597" lon="12.039782866181532"><ele>314.6</ele><time>2026-04-25T07:22:17.793Z</time></trkpt><trkpt lat="45.905138980642676" lon="12.039916444968403"><ele>319.2</ele><time>2026-04-25T07:22:19.793Z</time></trkpt><trkpt lat="45.90518617538421" lon="12.040076330012413"><ele>323.79999999999995</ele><time>2026-04-25T07:22:21.793Z</time></trkpt><trkpt lat="45.90524278439912" lon="12.040248355002007"><ele>328.4</ele><time>2026-04-25T07:22:23.793Z</time></trkpt><trkpt lat="45.90527004972252" lon="12.040338985752873"><ele>333.0</ele><time>2026-04-25T07:22:24.793Z</time></trkpt><trkpt lat="45.9053032034347" lon="12.040433384169956"><ele>333.0</ele><time>2026-04-25T07:22:25.793Z</time></trkpt><trkpt lat="45.90533144742415" lon="12.040517548106054"><ele>333.0</ele><time>2026-04-25T07:22:26.792Z</time></trkpt><trkpt lat="45.90536375649709" lon="12.040617311108676"><ele>333.0</ele><time>2026-04-25T07:22:27.793Z</time></trkpt><trkpt lat="45.905395464672715" lon="12.04072562553834"><ele>333.0</ele><time>2026-04-25T07:22:28.793Z</time></trkpt><trkpt lat="45.9054140778319" lon="12.040836599129292"><ele>333.0</ele><time>2026-04-25T07:22:29.793Z</time></trkpt><trkpt lat="45.905429977662315" lon="12.040962027140978"><ele>333.0</ele><time>2026-04-25T07:22:30.793Z</time></trkpt><trkpt lat="45.90543559868024" lon="12.041090863019024"><ele>331.79999999999995</ele><time>2026-04-25T07:22:31.793Z</time></trkpt><trkpt lat="45.90543052727298" lon="12.041225712572613"><ele>330.6</ele><time>2026-04-25T07:22:32.793Z</time></trkpt><trkpt lat="45.90540843507249" lon="12.041360797823698"><ele>329.4</ele><time>2026-04-25T07:22:33.793Z</time></trkpt><trkpt lat="45.90536191891909" lon="12.041492927143535"><ele>328.20000000000005</ele><time>2026-04-25T07:22:34.793Z</time></trkpt><trkpt lat="45.90530095307682" lon="12.041606996667308"><ele>327.0</ele><time>2026-04-25T07:22:35.793Z</time></trkpt><trkpt lat="45.90523397176677" lon="12.04171197517745"><ele>327.0</ele><time>2026-04-25T07:22:36.793Z</time></trkpt><trkpt lat="45.90515920227183" lon="12.041811403112426"><ele>327.0</ele><time>2026-04-25T07:22:37.793Z</time></trkpt><trkpt lat="45.90507815460751" lon="12.041904571726972"><ele>327.0</ele><time>2026-04-25T07:22:38.793Z</time></trkpt><trkpt lat="45.90499680617224" lon="12.042001730108655"><ele>327.0</ele><time>2026-04-25T07:22:39.793Z</time></trkpt><trkpt lat="45.904922364060056" lon="12.04210788137547"><ele>327.0</ele><time>2026-04-25T07:22:40.792Z</time></trkpt><trkpt lat="45.90485890877283" lon="12.042238297889432"><ele>320.75</ele><time>2026-04-25T07:22:41.792Z</time></trkpt><trkpt lat="45.90482179338932" lon="12.042404933357302"><ele>314.5</ele><time>2026-04-25T07:22:42.792Z</time></trkpt><trkpt lat="45.90480765383378" lon="12.042565396632485"><ele>308.25</ele><time>2026-04-25T07:22:43.792Z</time></trkpt><trkpt lat="45.90481473221719" lon="12.042735699283645"><ele>302.0</ele><time>2026-04-25T07:22:44.792Z</time></trkpt><trkpt lat="45.90484121952122" lon="12.042896569760485"><ele>302.0</ele><time>2026-04-25T07:22:45.792Z</time></trkpt><trkpt lat="45.90488182893421" lon="12.043047396119634"><ele>302.0</ele><time>2026-04-25T07:22:46.792Z</time></trkpt><trkpt lat="45.904927892343665" lon="12.043192751717937"><ele>302.0</ele><time>2026-04-25T07:22:47.792Z</time></trkpt><trkpt lat="45.90498241914443" lon="12.043329605433232"><ele>302.0</ele><time>2026-04-25T07:22:48.792Z</time></trkpt><trkpt lat="45.905048670981806" lon="12.043458909645887"><ele>302.0</ele><time>2026-04-25T07:22:49.792Z</time></trkpt><trkpt lat="45.90510757775194" lon="12.043586105586266"><ele>304.6</ele><time>2026-04-25T07:22:50.792Z</time></trkpt><trkpt lat="45.90515549437216" lon="12.043709441821246"><ele>307.2</ele><time>2026-04-25T07:22:51.792Z</time></trkpt><trkpt lat="45.90519604564733" lon="12.043847708898657"><ele>309.8</ele><time>2026-04-25T07:22:52.792Z</time></trkpt><trkpt lat="45.905224906253345" lon="12.043992619930552"><ele>312.4</ele><time>2026-04-25T07:22:53.792Z</time></trkpt><trkpt lat="45.90524777354719" lon="12.044140537527772"><ele>315.0</ele><time>2026-04-25T07:22:54.792Z</time></trkpt><trkpt lat="45.90526521049414" lon="12.04427720831997"><ele>315.0</ele><time>2026-04-25T07:22:55.792Z</time></trkpt><trkpt lat="45.90528705271053" lon="12.044415062354476"><ele>315.0</ele><time>2026-04-25T07:22:56.792Z</time></trkpt><trkpt lat="45.90532349649264" lon="12.044545238310908"><ele>315.0</ele><time>2026-04-25T07:22:57.792Z</time></trkpt><trkpt lat="45.90536391221273" lon="12.044666347009677"><ele>315.0</ele><time>2026-04-25T07:22:58.792Z</time></trkpt><trkpt lat="45.90540604572971" lon="12.044792736043677"><ele>315.0</ele><time>2026-04-25T07:22:59.792Z</time></trkpt><trkpt lat="45.90545546513032" lon="12.044911829886983"><ele>313.2</ele><time>2026-04-25T07:23:00.792Z</time></trkpt><trkpt lat="45.90550958397261" lon="12.045036249358597"><ele>311.4</ele><time>2026-04-25T07:23:01.792Z</time></trkpt><trkpt lat="45.905566303303594" lon="12.045163376997781"><ele>309.6</ele><time>2026-04-25T07:23:02.792Z</time></trkpt><trkpt lat="45.905616579103665" lon="12.045283409836506"><ele>307.8</ele><time>2026-04-25T07:23:03.792Z</time></trkpt><trkpt lat="45.90566605349777" lon="12.045407186822034"><ele>306.0</ele><time>2026-04-25T07:23:04.792Z</time></trkpt><trkpt lat="45.90570805066677" lon="12.045532561880279"><ele>306.0</ele><time>2026-04-25T07:23:05.792Z</time></trkpt><trkpt lat="45.90574191545507" lon="12.045662492672808"><ele>306.0</ele><time>2026-04-25T07:23:06.792Z</time></trkpt><trkpt lat="45.90577105759215" lon="12.045802904917549"><ele>306.0</ele><time>2026-04-25T07:23:07.792Z</time></trkpt><trkpt lat="45.905785934504294" lon="12.045940594318797"><ele>306.0</ele><time>2026-04-25T07:23:08.792Z</time></trkpt><trkpt lat="45.90579081744669" lon="12.046086996620055"><ele>306.0</ele><time>2026-04-25T07:23:09.792Z</time></trkpt><trkpt lat="45.90579638201569" lon="12.0462258374103"><ele>304.8333333333333</ele><time>2026-04-25T07:23:10.792Z</time></trkpt><trkpt lat="45.90581921655286" lon="12.046356931513158"><ele>303.6666666666667</ele><time>2026-04-25T07:23:11.792Z</time></trkpt><trkpt lat="45.905843283780236" lon="12.046479019066986"><ele>302.5</ele><time>2026-04-25T07:23:12.792Z</time></trkpt><trkpt lat="45.905878520066075" lon="12.046591073645688"><ele>301.33333333333337</ele><time>2026-04-25T07:23:13.792Z</time></trkpt><trkpt lat="45.90591056571669" lon="12.046691437303425"><ele>300.1666666666667</ele><time>2026-04-25T07:23:14.792Z</time></trkpt><trkpt lat="45.905952806199615" lon="12.046794453771971"><ele>299.0</ele><time>2026-04-25T07:23:15.792Z</time></trkpt><trkpt lat="45.90598410943289" lon="12.046887486329952"><ele>301.2857142857143</ele><time>2026-04-25T07:23:16.792Z</time></trkpt><trkpt lat="45.90602171638133" lon="12.046986201406138"><ele>303.57142857142856</ele><time>2026-04-25T07:23:17.792Z</time></trkpt><trkpt lat="45.90605308739978" lon="12.047081302699272"><ele>305.8571428571429</ele><time>2026-04-25T07:23:18.791Z</time></trkpt><trkpt lat="45.90607436719274" lon="12.047171590318243"><ele>308.1428571428571</ele><time>2026-04-25T07:23:19.791Z</time></trkpt><trkpt lat="45.90609070112102" lon="12.047263497999182"><ele>310.42857142857144</ele><time>2026-04-25T07:23:20.791Z</time></trkpt><trkpt lat="45.9061051677832" lon="12.047360462294062"><ele>312.7142857142857</ele><time>2026-04-25T07:23:21.791Z</time></trkpt><trkpt lat="45.906117380729405" lon="12.047456211093483"><ele>315.0</ele><time>2026-04-25T07:23:22.791Z</time></trkpt><trkpt lat="45.9061298398692" lon="12.047553976695426"><ele>315.0</ele><time>2026-04-25T07:23:23.791Z</time></trkpt><trkpt lat="45.90614141135233" lon="12.047651319393207"><ele>315.0</ele><time>2026-04-25T07:23:24.791Z</time></trkpt><trkpt lat="45.90615257822805" lon="12.047751345595868"><ele>315.0</ele><time>2026-04-25T07:23:25.791Z</time></trkpt><trkpt lat="45.90616406482301" lon="12.047854714389091"><ele>315.0</ele><time>2026-04-25T07:23:26.791Z</time></trkpt><trkpt lat="45.906183277785225" lon="12.047960330155567"><ele>315.0</ele><time>2026-04-25T07:23:27.791Z</time></trkpt><trkpt lat="45.90618868589968" lon="12.048051542919076"><ele>315.0</ele><time>2026-04-25T07:23:28.791Z</time></trkpt><trkpt lat="45.90619750832647" lon="12.048154031720227"><ele>315.0</ele><time>2026-04-25T07:23:29.791Z</time></trkpt><trkpt lat="45.90620339151222" lon="12.048248108258285"><ele>314.57142857142856</ele><time>2026-04-25T07:23:30.791Z</time></trkpt><trkpt lat="45.90622109334736" lon="12.048347117371538"><ele>314.1428571428571</ele><time>2026-04-25T07:23:31.791Z</time></trkpt><trkpt lat="45.90624238906513" lon="12.048446395576896"><ele>313.7142857142857</ele><time>2026-04-25T07:23:32.791Z</time></trkpt><trkpt lat="45.90626642489515" lon="12.04854406313706"><ele>313.2857142857143</ele><time>2026-04-25T07:23:33.791Z</time></trkpt><trkpt lat="45.906294873582425" lon="12.048627575158505"><ele>312.85714285714283</ele><time>2026-04-25T07:23:34.791Z</time></trkpt><trkpt lat="45.90633047876256" lon="12.048709691535372"><ele>312.42857142857144</ele><time>2026-04-25T07:23:35.791Z</time></trkpt><trkpt lat="45.90637712832379" lon="12.048775972391923"><ele>312.0</ele><time>2026-04-25T07:23:36.791Z</time></trkpt><trkpt lat="45.906427485507514" lon="12.048837071694376"><ele>312.0</ele><time>2026-04-25T07:23:37.791Z</time></trkpt><trkpt lat="45.906531686961586" lon="12.048915355641945"><ele>312.0</ele><time>2026-04-25T07:23:39.791Z</time></trkpt><trkpt lat="45.90659776756142" lon="12.048953524303602"><ele>312.0</ele><time>2026-04-25T07:23:40.791Z</time></trkpt><trkpt lat="45.906667041631124" lon="12.048974274272023"><ele>312.0</ele><time>2026-04-25T07:23:41.791Z</time></trkpt><trkpt lat="45.906784456499906" lon="12.049011980699998"><ele>312.0</ele><time>2026-04-25T07:23:43.791Z</time></trkpt><trkpt lat="45.906855405441185" lon="12.049033016493043"><ele>311.6</ele><time>2026-04-25T07:23:44.791Z</time></trkpt><trkpt lat="45.90697667119477" lon="12.04908279392191"><ele>311.2</ele><time>2026-04-25T07:23:46.791Z</time></trkpt><trkpt lat="45.90704026898279" lon="12.049095604919462"><ele>310.8</ele><time>2026-04-25T07:23:47.791Z</time></trkpt><trkpt lat="45.907102529527414" lon="12.049117199119362"><ele>310.4</ele><time>2026-04-25T07:23:48.791Z</time></trkpt><trkpt lat="45.907226674292815" lon="12.049146813261498"><ele>310.0</ele><time>2026-04-25T07:23:50.791Z</time></trkpt><trkpt lat="45.9073407143814" lon="12.049182239678547"><ele>310.0</ele><time>2026-04-25T07:23:52.791Z</time></trkpt><trkpt lat="45.90740432835699" lon="12.049204896394322"><ele>310.0</ele><time>2026-04-25T07:23:53.791Z</time></trkpt><trkpt lat="45.9074677198556" lon="12.049222482126956"><ele>310.0</ele><time>2026-04-25T07:23:54.791Z</time></trkpt><trkpt lat="45.90753041158383" lon="12.049241329854784"><ele>310.0</ele><time>2026-04-25T07:23:55.791Z</time></trkpt><trkpt lat="45.90765735640232" lon="12.049301995590758"><ele>310.0</ele><time>2026-04-25T07:23:57.79Z</time></trkpt><trkpt lat="45.907714618943324" lon="12.049339636301934"><ele>310.0</ele><time>2026-04-25T07:23:58.79Z</time></trkpt><trkpt lat="45.907818924096006" lon="12.049417098888183"><ele>312.16666666666663</ele><time>2026-04-25T07:24:00.79Z</time></trkpt><trkpt lat="45.90793622357818" lon="12.049517094433389"><ele>314.3333333333333</ele><time>2026-04-25T07:24:02.79Z</time></trkpt><trkpt lat="45.90799167550831" lon="12.049570656717927"><ele>316.5</ele><time>2026-04-25T07:24:03.79Z</time></trkpt><trkpt lat="45.90804386001396" lon="12.049629792921243"><ele>318.6666666666667</ele><time>2026-04-25T07:24:04.79Z</time></trkpt><trkpt lat="45.90809848559688" lon="12.049685611817962"><ele>320.83333333333337</ele><time>2026-04-25T07:24:05.79Z</time></trkpt><trkpt lat="45.908153364214826" lon="12.049747054888403"><ele>323.0</ele><time>2026-04-25T07:24:06.79Z</time></trkpt><trkpt lat="45.90820717013858" lon="12.049800919878821"><ele>323.00000000000006</ele><time>2026-04-25T07:24:07.79Z</time></trkpt><trkpt lat="45.908273259138056" lon="12.049860340240935"><ele>323.0</ele><time>2026-04-25T07:24:08.79Z</time></trkpt><trkpt lat="45.908331735959834" lon="12.049921628088873"><ele>323.0</ele><time>2026-04-25T07:24:09.79Z</time></trkpt><trkpt lat="45.908393318919586" lon="12.049987052320894"><ele>323.0</ele><time>2026-04-25T07:24:10.79Z</time></trkpt><trkpt lat="45.90844327725529" lon="12.050053121481612"><ele>323.0</ele><time>2026-04-25T07:24:11.79Z</time></trkpt><trkpt lat="45.908495447915826" lon="12.050132244911541"><ele>323.00000000000006</ele><time>2026-04-25T07:24:12.79Z</time></trkpt><trkpt lat="45.908535468598686" lon="12.050217392137908"><ele>323.0</ele><time>2026-04-25T07:24:13.79Z</time></trkpt><trkpt lat="45.90858224933731" lon="12.050299663698649"><ele>322.14285714285717</ele><time>2026-04-25T07:24:14.79Z</time></trkpt><trkpt lat="45.90862588731951" lon="12.050381779664848"><ele>321.2857142857143</ele><time>2026-04-25T07:24:15.79Z</time></trkpt><trkpt lat="45.9086728284047" lon="12.050460465933329"><ele>320.42857142857144</ele><time>2026-04-25T07:24:16.79Z</time></trkpt><trkpt lat="45.908721167374686" lon="12.050541114615228"><ele>319.57142857142856</ele><time>2026-04-25T07:24:17.79Z</time></trkpt><trkpt lat="45.908768157000104" lon="12.050616686891562"><ele>318.7142857142857</ele><time>2026-04-25T07:24:18.79Z</time></trkpt><trkpt lat="45.90881994780899" lon="12.050697870299862"><ele>317.8571428571429</ele><time>2026-04-25T07:24:19.79Z</time></trkpt><trkpt lat="45.9088674161301" lon="12.050780429310755"><ele>317.0</ele><time>2026-04-25T07:24:20.791Z</time></trkpt><trkpt lat="45.908911873030576" lon="12.050860885443827"><ele>317.0</ele><time>2026-04-25T07:24:21.791Z</time></trkpt><trkpt lat="45.908955788830404" lon="12.050943389232232"><ele>317.0</ele><time>2026-04-25T07:24:22.791Z</time></trkpt><trkpt lat="45.909002369071416" lon="12.051024550878935"><ele>317.0</ele><time>2026-04-25T07:24:23.791Z</time></trkpt><trkpt lat="45.909051263298124" lon="12.051103165656796"><ele>317.0</ele><time>2026-04-25T07:24:24.79Z</time></trkpt><trkpt lat="45.90909618683682" lon="12.051188532077232"><ele>317.0</ele><time>2026-04-25T07:24:25.79Z</time></trkpt><trkpt lat="45.90914665281134" lon="12.05127907725514"><ele>317.0</ele><time>2026-04-25T07:24:26.791Z</time></trkpt><trkpt lat="45.90919937327846" lon="12.051376011601032"><ele>319.8</ele><time>2026-04-25T07:24:27.791Z</time></trkpt><trkpt lat="45.909253131642814" lon="12.051464030816055"><ele>322.6</ele><time>2026-04-25T07:24:28.791Z</time></trkpt><trkpt lat="45.90932027245457" lon="12.05155478589844"><ele>325.40000000000003</ele><time>2026-04-25T07:24:29.79Z</time></trkpt><trkpt lat="45.90938072784862" lon="12.051649003416946"><ele>328.2</ele><time>2026-04-25T07:24:30.79Z</time></trkpt><trkpt lat="45.90944291145517" lon="12.051742966177422"><ele>331.0</ele><time>2026-04-25T07:24:31.79Z</time></trkpt><trkpt lat="45.909507977098414" lon="12.051846189976725"><ele>331.0</ele><time>2026-04-25T07:24:32.79Z</time></trkpt><trkpt lat="45.90956737391992" lon="12.051952261272854"><ele>331.0</ele><time>2026-04-25T07:24:33.79Z</time></trkpt><trkpt lat="45.90962402703876" lon="12.052061894584318"><ele>331.0</ele><time>2026-04-25T07:24:34.79Z</time></trkpt><trkpt lat="45.909681098938584" lon="12.052173891567406"><ele>331.0</ele><time>2026-04-25T07:24:35.79Z</time></trkpt><trkpt lat="45.90974068743674" lon="12.052290612420263"><ele>331.0</ele><time>2026-04-25T07:24:36.79Z</time></trkpt><trkpt lat="45.909792816589665" lon="12.052405204437743"><ele>331.4</ele><time>2026-04-25T07:24:37.79Z</time></trkpt><trkpt lat="45.90985366027862" lon="12.052513889601432"><ele>331.8</ele><time>2026-04-25T07:24:38.79Z</time></trkpt><trkpt lat="45.90991120350127" lon="12.052628325734853"><ele>332.2</ele><time>2026-04-25T07:24:39.79Z</time></trkpt><trkpt lat="45.90996853253536" lon="12.052741187386594"><ele>332.59999999999997</ele><time>2026-04-25T07:24:40.79Z</time></trkpt><trkpt lat="45.91003672218536" lon="12.052844213925953"><ele>333.0</ele><time>2026-04-25T07:24:41.79Z</time></trkpt><trkpt lat="45.910106279913535" lon="12.052945828957206"><ele>333.0</ele><time>2026-04-25T07:24:42.79Z</time></trkpt><trkpt lat="45.910180035060584" lon="12.053045366342234"><ele>333.0</ele><time>2026-04-25T07:24:43.79Z</time></trkpt><trkpt lat="45.910247642893026" lon="12.053133572186262"><ele>333.0</ele><time>2026-04-25T07:24:44.79Z</time></trkpt><trkpt lat="45.91031943907233" lon="12.053221728823294"><ele>333.0</ele><time>2026-04-25T07:24:45.79Z</time></trkpt><trkpt lat="45.91038289548374" lon="12.053309945839771"><ele>333.0</ele><time>2026-04-25T07:24:46.79Z</time></trkpt><trkpt lat="45.910456781855224" lon="12.05339361531974"><ele>330.1666666666667</ele><time>2026-04-25T07:24:47.79Z</time></trkpt><trkpt lat="45.91052930645253" lon="12.053480647411693"><ele>327.3333333333333</ele><time>2026-04-25T07:24:48.79Z</time></trkpt><trkpt lat="45.91061468731396" lon="12.053538713389367"><ele>324.5</ele><time>2026-04-25T07:24:49.79Z</time></trkpt><trkpt lat="45.910700063059984" lon="12.053574328733243"><ele>321.66666666666663</ele><time>2026-04-25T07:24:50.79Z</time></trkpt><trkpt lat="45.910785403644205" lon="12.053589127805086"><ele>318.8333333333333</ele><time>2026-04-25T07:24:51.79Z</time></trkpt><trkpt lat="45.91086655224855" lon="12.053580261031632"><ele>316.0</ele><time>2026-04-25T07:24:52.79Z</time></trkpt><trkpt lat="45.91095496067216" lon="12.053576256423407"><ele>316.0</ele><time>2026-04-25T07:24:53.79Z</time></trkpt><trkpt lat="45.911025949059145" lon="12.053577137403648"><ele>316.0</ele><time>2026-04-25T07:24:54.79Z</time></trkpt><trkpt lat="45.91109558200219" lon="12.053588475127295"><ele>316.0</ele><time>2026-04-25T07:24:55.79Z</time></trkpt><trkpt lat="45.91116334290532" lon="12.05358775072515"><ele>316.0</ele><time>2026-04-25T07:24:56.79Z</time></trkpt><trkpt lat="45.91127954714528" lon="12.053584773347302"><ele>316.0</ele><time>2026-04-25T07:24:58.79Z</time></trkpt><trkpt lat="45.91139243590766" lon="12.053593843475019"><ele>316.0</ele><time>2026-04-25T07:25:00.79Z</time></trkpt><trkpt lat="45.911495598934856" lon="12.053576316443008"><ele>316.0</ele><time>2026-04-25T07:25:02.79Z</time></trkpt><trkpt lat="45.91160124513025" lon="12.053530809948619"><ele>316.0</ele><time>2026-04-25T07:25:04.79Z</time></trkpt><trkpt lat="45.91169512012063" lon="12.053472471594995"><ele>316.0</ele><time>2026-04-25T07:25:06.789Z</time></trkpt><trkpt lat="45.91178330055269" lon="12.053409964788798"><ele>316.0</ele><time>2026-04-25T07:25:08.789Z</time></trkpt><trkpt lat="45.911871337882125" lon="12.053324171970047"><ele>316.0</ele><time>2026-04-25T07:25:10.789Z</time></trkpt><trkpt lat="45.91195290105851" lon="12.05324629909774"><ele>318.0</ele><time>2026-04-25T07:25:12.789Z</time></trkpt><trkpt lat="45.91203129788177" lon="12.053161173378205"><ele>320.0</ele><time>2026-04-25T07:25:14.789Z</time></trkpt><trkpt lat="45.912105637755054" lon="12.053090899578304"><ele>322.0</ele><time>2026-04-25T07:25:16.789Z</time></trkpt><trkpt lat="45.91219581792564" lon="12.053065602883624"><ele>324.0</ele><time>2026-04-25T07:25:18.789Z</time></trkpt><trkpt lat="45.91228533192921" lon="12.0530537040949"><ele>326.0</ele><time>2026-04-25T07:25:20.789Z</time></trkpt><trkpt lat="45.912371228664625" lon="12.053046392277235"><ele>326.0</ele><time>2026-04-25T07:25:22.789Z</time></trkpt><trkpt lat="45.91245155858667" lon="12.05303022711987"><ele>326.0</ele><time>2026-04-25T07:25:24.789Z</time></trkpt><trkpt lat="45.91252420974549" lon="12.05299731831794"><ele>326.0</ele><time>2026-04-25T07:25:26.789Z</time></trkpt><trkpt lat="45.91259812137831" lon="12.05296339673141"><ele>326.0</ele><time>2026-04-25T07:25:28.789Z</time></trkpt><trkpt lat="45.91267995935919" lon="12.052954325990555"><ele>326.0</ele><time>2026-04-25T07:25:30.789Z</time></trkpt><trkpt lat="45.91275368666634" lon="12.052950262782614"><ele>326.0</ele><time>2026-04-25T07:25:32.789Z</time></trkpt><trkpt lat="45.9128402642614" lon="12.052933825581396"><ele>326.6666666666667</ele><time>2026-04-25T07:25:34.789Z</time></trkpt><trkpt lat="45.91293623056824" lon="12.052914585742295"><ele>327.33333333333337</ele><time>2026-04-25T07:25:36.789Z</time></trkpt><trkpt lat="45.91301896155977" lon="12.052894671280706"><ele>328.0</ele><time>2026-04-25T07:25:38.789Z</time></trkpt><trkpt lat="45.913109498030366" lon="12.05287187776445"><ele>328.6666666666667</ele><time>2026-04-25T07:25:40.789Z</time></trkpt><trkpt lat="45.9131969605642" lon="12.052842101513114"><ele>329.3333333333333</ele><time>2026-04-25T07:25:42.789Z</time></trkpt><trkpt lat="45.91327806906508" lon="12.05282504899433"><ele>330.0</ele><time>2026-04-25T07:25:44.788Z</time></trkpt><trkpt lat="45.913356568865034" lon="12.052812192386227"><ele>331.8333333333333</ele><time>2026-04-25T07:25:46.788Z</time></trkpt><trkpt lat="45.91344061608622" lon="12.052806610398367"><ele>333.6666666666667</ele><time>2026-04-25T07:25:48.788Z</time></trkpt><trkpt lat="45.913521974514296" lon="12.05278303666759"><ele>335.5</ele><time>2026-04-25T07:25:50.788Z</time></trkpt><trkpt lat="45.91360143313098" lon="12.052769742804628"><ele>337.33333333333337</ele><time>2026-04-25T07:25:52.788Z</time></trkpt><trkpt lat="45.91367875854806" lon="12.05275849496252"><ele>339.1666666666667</ele><time>2026-04-25T07:25:54.788Z</time></trkpt><trkpt lat="45.913761982298006" lon="12.052741276791773"><ele>341.0</ele><time>2026-04-25T07:25:56.788Z</time></trkpt><trkpt lat="45.91382792814633" lon="12.05275535091599"><ele>341.0</ele><time>2026-04-25T07:25:58.788Z</time></trkpt><trkpt lat="45.91390524133607" lon="12.052797508158482"><ele>341.0</ele><time>2026-04-25T07:26:00.788Z</time></trkpt><trkpt lat="45.91398377814924" lon="12.052874722770857"><ele>341.0</ele><time>2026-04-25T07:26:02.788Z</time></trkpt><trkpt lat="45.91402675607053" lon="12.052944297175781"><ele>341.0</ele><time>2026-04-25T07:26:04.788Z</time></trkpt><trkpt lat="45.91408009733002" lon="12.053021315354307"><ele>341.0</ele><time>2026-04-25T07:26:06.788Z</time></trkpt><trkpt lat="45.91412127736479" lon="12.053091672181997"><ele>341.0</ele><time>2026-04-25T07:26:08.788Z</time></trkpt><trkpt lat="45.91415968132777" lon="12.053178266282359"><ele>341.0</ele><time>2026-04-25T07:26:10.788Z</time></trkpt><trkpt lat="45.91421887594387" lon="12.05326843904343"><ele>341.0</ele><time>2026-04-25T07:26:12.788Z</time></trkpt><trkpt lat="45.914273265966294" lon="12.053359440976553"><ele>341.0</ele><time>2026-04-25T07:26:14.788Z</time></trkpt><trkpt lat="45.91432819515493" lon="12.053456537546193"><ele>341.0</ele><time>2026-04-25T07:26:16.788Z</time></trkpt><trkpt lat="45.91438001128367" lon="12.0535559475318"><ele>341.0</ele><time>2026-04-25T07:26:18.788Z</time></trkpt><trkpt lat="45.91444025562611" lon="12.053650953561714"><ele>341.0</ele><time>2026-04-25T07:26:20.788Z</time></trkpt><trkpt lat="45.914481590452176" lon="12.05373408770162"><ele>340.5</ele><time>2026-04-25T07:26:22.787Z</time></trkpt><trkpt lat="45.91452228138556" lon="12.053831117418946"><ele>340.0</ele><time>2026-04-25T07:26:24.787Z</time></trkpt><trkpt lat="45.91457699357184" lon="12.053923595353723"><ele>339.5</ele><time>2026-04-25T07:26:26.788Z</time></trkpt><trkpt lat="45.914611956713834" lon="12.054003547619654"><ele>339.0</ele><time>2026-04-25T07:26:28.788Z</time></trkpt><trkpt lat="45.91464202426971" lon="12.05412053184041"><ele>338.5</ele><time>2026-04-25T07:26:30.791Z</time></trkpt><trkpt lat="45.914676789489015" lon="12.054214949323843"><ele>338.0</ele><time>2026-04-25T07:26:32.793Z</time></trkpt><trkpt lat="45.91469624953024" lon="12.054340244878112"><ele>338.0</ele><time>2026-04-25T07:26:34.795Z</time></trkpt><trkpt lat="45.9147267423879" lon="12.0544657394178"><ele>338.0</ele><time>2026-04-25T07:26:36.797Z</time></trkpt><trkpt lat="45.914751968383406" lon="12.054586699447325"><ele>338.0</ele><time>2026-04-25T07:26:38.799Z</time></trkpt><trkpt lat="45.91477368919857" lon="12.054703887214199"><ele>338.0</ele><time>2026-04-25T07:26:40.8Z</time></trkpt><trkpt lat="45.91480063598689" lon="12.05481492906703"><ele>338.0</ele><time>2026-04-25T07:26:42.801Z</time></trkpt><trkpt lat="45.914826005313216" lon="12.054913631515388"><ele>338.0</ele><time>2026-04-25T07:26:44.802Z</time></trkpt><trkpt lat="45.914852887083924" lon="12.055007289615133"><ele>338.5</ele><time>2026-04-25T07:26:46.803Z</time></trkpt><trkpt lat="45.91486812609724" lon="12.055101422382862"><ele>339.0</ele><time>2026-04-25T07:26:48.804Z</time></trkpt><trkpt lat="45.91488773114422" lon="12.055215434418187"><ele>339.5</ele><time>2026-04-25T07:26:50.805Z</time></trkpt><trkpt lat="45.914904840775826" lon="12.055326295380219"><ele>340.0</ele><time>2026-04-25T07:26:52.805Z</time></trkpt><trkpt lat="45.914920743774694" lon="12.055418589408912"><ele>340.5</ele><time>2026-04-25T07:26:54.806Z</time></trkpt><trkpt lat="45.914915456247705" lon="12.05551748378368"><ele>341.0</ele><time>2026-04-25T07:26:56.806Z</time></trkpt><trkpt lat="45.91486443876119" lon="12.05561919680307"><ele>341.0</ele><time>2026-04-25T07:26:58.807Z</time></trkpt><trkpt lat="45.914797296586414" lon="12.055683075143337"><ele>341.0</ele><time>2026-04-25T07:27:00.807Z</time></trkpt><trkpt lat="45.914704682769795" lon="12.05570751931465"><ele>341.0</ele><time>2026-04-25T07:27:02.807Z</time></trkpt><trkpt lat="45.91461683795608" lon="12.055725269145677"><ele>341.0</ele><time>2026-04-25T07:27:04.808Z</time></trkpt><trkpt lat="45.91452922290551" lon="12.055739612025706"><ele>341.0</ele><time>2026-04-25T07:27:06.808Z</time></trkpt><trkpt lat="45.914445420626" lon="12.055773655512999"><ele>341.0</ele><time>2026-04-25T07:27:08.808Z</time></trkpt><trkpt lat="45.914384609930394" lon="12.055823222033064"><ele>342.1428571428571</ele><time>2026-04-25T07:27:10.808Z</time></trkpt><trkpt lat="45.91431905388264" lon="12.055901848619685"><ele>343.2857142857143</ele><time>2026-04-25T07:27:12.808Z</time></trkpt><trkpt lat="45.91430409288989" lon="12.055992140991417"><ele>344.42857142857144</ele><time>2026-04-25T07:27:14.808Z</time></trkpt><trkpt lat="45.91429743720243" lon="12.056100960885992"><ele>345.57142857142856</ele><time>2026-04-25T07:27:16.808Z</time></trkpt><trkpt lat="45.91433442198099" lon="12.05618391052004"><ele>346.7142857142857</ele><time>2026-04-25T07:27:18.809Z</time></trkpt><trkpt lat="45.9143848080347" lon="12.05625490595325"><ele>347.85714285714283</ele><time>2026-04-25T07:27:20.809Z</time></trkpt><trkpt lat="45.91443683307765" lon="12.056323708646998"><ele>349.0</ele><time>2026-04-25T07:27:22.809Z</time></trkpt><trkpt lat="45.91450727631201" lon="12.05640810280319"><ele>349.0</ele><time>2026-04-25T07:27:24.809Z</time></trkpt><trkpt lat="45.914572189667076" lon="12.056458912528962"><ele>349.0</ele><time>2026-04-25T07:27:26.809Z</time></trkpt><trkpt lat="45.914631280076996" lon="12.056513002328655"><ele>349.0</ele><time>2026-04-25T07:27:28.809Z</time></trkpt><trkpt lat="45.914685347968465" lon="12.056579924102483"><ele>349.0</ele><time>2026-04-25T07:27:30.809Z</time></trkpt><trkpt lat="45.914754082092216" lon="12.05663522223318"><ele>349.0</ele><time>2026-04-25T07:27:32.809Z</time></trkpt><trkpt lat="45.91483067977893" lon="12.056697954950355"><ele>349.0</ele><time>2026-04-25T07:27:34.809Z</time></trkpt><trkpt lat="45.914888868209076" lon="12.056767195679633"><ele>349.5</ele><time>2026-04-25T07:27:36.809Z</time></trkpt><trkpt lat="45.91494865201403" lon="12.056824728322717"><ele>350.0</ele><time>2026-04-25T07:27:38.809Z</time></trkpt><trkpt lat="45.914997626896586" lon="12.056891451836982"><ele>350.5</ele><time>2026-04-25T07:27:40.809Z</time></trkpt><trkpt lat="45.915038935843306" lon="12.056979765670816"><ele>351.0</ele><time>2026-04-25T07:27:42.809Z</time></trkpt><trkpt lat="45.91506728395615" lon="12.05712822833178"><ele>351.5</ele><time>2026-04-25T07:27:45.809Z</time></trkpt><trkpt lat="45.915071721235144" lon="12.057255313164069"><ele>352.0</ele><time>2026-04-25T07:27:47.809Z</time></trkpt><trkpt lat="45.9150749426552" lon="12.057388031324468"><ele>352.2857142857143</ele><time>2026-04-25T07:27:49.809Z</time></trkpt><trkpt lat="45.91507370240618" lon="12.057502636934462"><ele>352.57142857142856</ele><time>2026-04-25T07:27:51.809Z</time></trkpt><trkpt lat="45.91507364124672" lon="12.057603467571058"><ele>352.8571428571429</ele><time>2026-04-25T07:27:53.809Z</time></trkpt><trkpt lat="45.915075036794114" lon="12.057712336196314"><ele>353.1428571428571</ele><time>2026-04-25T07:27:55.809Z</time></trkpt><trkpt lat="45.91506742606978" lon="12.05781112028031"><ele>353.4285714285714</ele><time>2026-04-25T07:27:57.809Z</time></trkpt><trkpt lat="45.915073101817704" lon="12.057918756559614"><ele>353.7142857142857</ele><time>2026-04-25T07:27:59.808Z</time></trkpt><trkpt lat="45.915075051482816" lon="12.058018364627145"><ele>354.0</ele><time>2026-04-25T07:28:01.808Z</time></trkpt><trkpt lat="45.915082487972796" lon="12.058110091631816"><ele>354.0</ele><time>2026-04-25T07:28:03.808Z</time></trkpt><trkpt lat="45.91506793073961" lon="12.058227028790856"><ele>354.0</ele><time>2026-04-25T07:28:05.808Z</time></trkpt><trkpt lat="45.91506222301511" lon="12.058327571232434"><ele>354.0</ele><time>2026-04-25T07:28:07.808Z</time></trkpt><trkpt lat="45.91505047763072" lon="12.058440753873192"><ele>354.0</ele><time>2026-04-25T07:28:09.808Z</time></trkpt><trkpt lat="45.9150209902349" lon="12.05853645348118"><ele>354.0</ele><time>2026-04-25T07:28:11.808Z</time></trkpt><trkpt lat="45.914976006400614" lon="12.058657703614063"><ele>354.0</ele><time>2026-04-25T07:28:14.808Z</time></trkpt><trkpt lat="45.91490902266018" lon="12.058751071559973"><ele>354.5</ele><time>2026-04-25T07:28:17.808Z</time></trkpt><trkpt lat="45.9148430616843" lon="12.058842820254462"><ele>355.0</ele><time>2026-04-25T07:28:20.808Z</time></trkpt><trkpt lat="45.91481320224598" lon="12.058928483831387"><ele>355.5</ele><time>2026-04-25T07:28:22.808Z</time></trkpt><trkpt lat="45.91479878045927" lon="12.05901824212605"><ele>356.0</ele><time>2026-04-25T07:28:24.808Z</time></trkpt><trkpt lat="45.91480428927581" lon="12.059143697966583"><ele>356.5</ele><time>2026-04-25T07:28:27.808Z</time></trkpt><trkpt lat="45.91487112746114" lon="12.059252260960587"><ele>357.0</ele><time>2026-04-25T07:28:31.808Z</time></trkpt><trkpt lat="45.91494999241508" lon="12.05932077297983"><ele>357.5</ele><time>2026-04-25T07:28:35.809Z</time></trkpt><trkpt lat="45.915028976772156" lon="12.05937388368363"><ele>358.0</ele><time>2026-04-25T07:28:38.809Z</time></trkpt><trkpt lat="45.915114836883" lon="12.05939042611054"><ele>358.5</ele><time>2026-04-25T07:28:41.809Z</time></trkpt><trkpt lat="45.9151998184177" lon="12.059412070121786"><ele>359.0</ele><time>2026-04-25T07:28:44.808Z</time></trkpt><trkpt lat="45.915284793671766" lon="12.059420411575129"><ele>359.5</ele><time>2026-04-25T07:28:47.809Z</time></trkpt><trkpt lat="45.91537185040828" lon="12.059437128737398"><ele>360.0</ele><time>2026-04-25T07:28:50.809Z</time></trkpt><trkpt lat="45.91543434118139" lon="12.059452447776556"><ele>363.3333333333333</ele><time>2026-04-25T07:28:52.809Z</time></trkpt><trkpt lat="45.91551773263347" lon="12.059484157154664"><ele>366.6666666666667</ele><time>2026-04-25T07:28:54.809Z</time></trkpt><trkpt lat="45.91559924305864" lon="12.059545498454403"><ele>370.0</ele><time>2026-04-25T07:28:57.809Z</time></trkpt><trkpt lat="45.9156633055718" lon="12.059576048593344"><ele>373.33333333333337</ele><time>2026-04-25T07:28:59.809Z</time></trkpt><trkpt lat="45.915722715303026" lon="12.059608417387706"><ele>376.6666666666667</ele><time>2026-04-25T07:29:01.809Z</time></trkpt><trkpt lat="45.91579711140212" lon="12.05964398481191"><ele>380.0</ele><time>2026-04-25T07:29:03.809Z</time></trkpt><trkpt lat="45.91587319397609" lon="12.059700292706454"><ele>381.1666666666667</ele><time>2026-04-25T07:29:05.809Z</time></trkpt><trkpt lat="45.91594718952183" lon="12.059745990206457"><ele>382.33333333333337</ele><time>2026-04-25T07:29:07.809Z</time></trkpt><trkpt lat="45.916030849076584" lon="12.059778298896038"><ele>383.5</ele><time>2026-04-25T07:29:10.809Z</time></trkpt><trkpt lat="45.91611555639168" lon="12.059832335426766"><ele>384.6666666666667</ele><time>2026-04-25T07:29:13.809Z</time></trkpt><trkpt lat="45.91617553038194" lon="12.059860498032492"><ele>385.8333333333333</ele><time>2026-04-25T07:29:15.809Z</time></trkpt><trkpt lat="45.91626331503884" lon="12.059911298595143"><ele>387.0</ele><time>2026-04-25T07:29:17.808Z</time></trkpt><trkpt lat="45.91635444223834" lon="12.059960051070988"><ele>387.0</ele><time>2026-04-25T07:29:19.808Z</time></trkpt><trkpt lat="45.916445747228934" lon="12.06000638301749"><ele>387.0</ele><time>2026-04-25T07:29:21.808Z</time></trkpt><trkpt lat="45.91652549243117" lon="12.060056013000453"><ele>387.0</ele><time>2026-04-25T07:29:23.808Z</time></trkpt><trkpt lat="45.91660729502067" lon="12.060104979422444"><ele>387.0</ele><time>2026-04-25T07:29:25.808Z</time></trkpt><trkpt lat="45.91665107938731" lon="12.060171974053869"><ele>387.0</ele><time>2026-04-25T07:29:28.808Z</time></trkpt><trkpt lat="45.916701240117284" lon="12.06025229672433"><ele>387.0</ele><time>2026-04-25T07:29:29.808Z</time></trkpt><trkpt lat="45.91675573388803" lon="12.060365629415687"><ele>392.1666666666667</ele><time>2026-04-25T07:29:31.808Z</time></trkpt><trkpt lat="45.916772611849474" lon="12.060460792926644"><ele>397.33333333333337</ele><time>2026-04-25T07:29:33.808Z</time></trkpt><trkpt lat="45.91678968682117" lon="12.060582934990915"><ele>402.5</ele><time>2026-04-25T07:29:35.808Z</time></trkpt><trkpt lat="45.916797993431615" lon="12.060694900866027"><ele>407.6666666666667</ele><time>2026-04-25T07:29:37.808Z</time></trkpt><trkpt lat="45.91679383846915" lon="12.060813545472769"><ele>412.83333333333337</ele><time>2026-04-25T07:29:39.808Z</time></trkpt><trkpt lat="45.916790709773274" lon="12.06094093974157"><ele>418.0</ele><time>2026-04-25T07:29:41.808Z</time></trkpt><trkpt lat="45.91678681863519" lon="12.061047503687892"><ele>418.00000000000006</ele><time>2026-04-25T07:29:43.808Z</time></trkpt><trkpt lat="45.91678862651517" lon="12.06115400768814"><ele>418.0</ele><time>2026-04-25T07:29:45.808Z</time></trkpt><trkpt lat="45.916792872357206" lon="12.061259153972758"><ele>418.0</ele><time>2026-04-25T07:29:49.808Z</time></trkpt><trkpt lat="45.91679139585448" lon="12.06135073093445"><ele>418.0</ele><time>2026-04-25T07:29:51.808Z</time></trkpt><trkpt lat="45.91677986432912" lon="12.061449208785893"><ele>418.00000000000006</ele><time>2026-04-25T07:29:53.808Z</time></trkpt><trkpt lat="45.91678882830308" lon="12.06156816983603"><ele>418.0</ele><time>2026-04-25T07:29:55.808Z</time></trkpt><trkpt lat="45.9167962574782" lon="12.061712706542357"><ele>416.50000000000006</ele><time>2026-04-25T07:29:58.808Z</time></trkpt><trkpt lat="45.9168129538037" lon="12.06182983300976"><ele>415.0</ele><time>2026-04-25T07:30:00.808Z</time></trkpt><trkpt lat="45.916814441167524" lon="12.061922081131371"><ele>413.5</ele><time>2026-04-25T07:30:02.808Z</time></trkpt><trkpt lat="45.91685263334528" lon="12.062023440347506"><ele>412.0</ele><time>2026-04-25T07:30:05.807Z</time></trkpt><trkpt lat="45.9169096183021" lon="12.062111945239584"><ele>410.50000000000006</ele><time>2026-04-25T07:30:09.807Z</time></trkpt><trkpt lat="45.916964515781366" lon="12.062160755296123"><ele>409.0</ele><time>2026-04-25T07:30:11.807Z</time></trkpt><trkpt lat="45.917036604958824" lon="12.062251926559732"><ele>409.0</ele><time>2026-04-25T07:30:15.807Z</time></trkpt><trkpt lat="45.91713094575408" lon="12.062323601037711"><ele>409.0</ele><time>2026-04-25T07:30:18.807Z</time></trkpt><trkpt lat="45.91721712450022" lon="12.062395205892116"><ele>409.0</ele><time>2026-04-25T07:30:20.807Z</time></trkpt><trkpt lat="45.91735671731359" lon="12.062406701550454"><ele>409.0</ele><time>2026-04-25T07:30:26.807Z</time></trkpt><trkpt lat="45.917430135103345" lon="12.062365421531801"><ele>409.0</ele><time>2026-04-25T07:30:29.807Z</time></trkpt><trkpt lat="45.91751670907205" lon="12.06230964246983"><ele>414.2</ele><time>2026-04-25T07:30:31.807Z</time></trkpt><trkpt lat="45.91760866384854" lon="12.062249300394026"><ele>419.4</ele><time>2026-04-25T07:30:33.807Z</time></trkpt><trkpt lat="45.9177041527728" lon="12.06221452387662"><ele>424.6</ele><time>2026-04-25T07:30:35.807Z</time></trkpt><trkpt lat="45.917792361527184" lon="12.062203958266865"><ele>429.8</ele><time>2026-04-25T07:30:37.807Z</time></trkpt><trkpt lat="45.91787718623654" lon="12.062208299314975"><ele>435.0</ele><time>2026-04-25T07:30:39.807Z</time></trkpt><trkpt lat="45.917964147830574" lon="12.062241323775837"><ele>435.0</ele><time>2026-04-25T07:30:41.807Z</time></trkpt><trkpt lat="45.9180370996027" lon="12.062298391742251"><ele>435.0</ele><time>2026-04-25T07:30:43.807Z</time></trkpt><trkpt lat="45.91811935899943" lon="12.062361176240179"><ele>435.0</ele><time>2026-04-25T07:30:45.807Z</time></trkpt><trkpt lat="45.91820416675618" lon="12.062416089219475"><ele>435.0</ele><time>2026-04-25T07:30:47.807Z</time></trkpt><trkpt lat="45.918288050750554" lon="12.062467543322002"><ele>435.0</ele><time>2026-04-25T07:30:49.807Z</time></trkpt><trkpt lat="45.91836800888158" lon="12.062515511972316"><ele>435.0</ele><time>2026-04-25T07:30:51.807Z</time></trkpt><trkpt lat="45.91846262594383" lon="12.062539997702693"><ele>433.0</ele><time>2026-04-25T07:30:53.807Z</time></trkpt><trkpt lat="45.91852497227129" lon="12.062590906151065"><ele>431.0</ele><time>2026-04-25T07:30:55.806Z</time></trkpt><trkpt lat="45.91861290341871" lon="12.06263795509694"><ele>429.0</ele><time>2026-04-25T07:30:57.806Z</time></trkpt><trkpt lat="45.91870985848076" lon="12.062658225737788"><ele>427.0</ele><time>2026-04-25T07:30:59.806Z</time></trkpt><trkpt lat="45.91880573206643" lon="12.062713720041412"><ele>425.0</ele><time>2026-04-25T07:31:01.806Z</time></trkpt><trkpt lat="45.91888555044807" lon="12.062796055539636"><ele>425.0</ele><time>2026-04-25T07:31:03.806Z</time></trkpt><trkpt lat="45.91898120278322" lon="12.062838987548393"><ele>425.0</ele><time>2026-04-25T07:31:05.806Z</time></trkpt><trkpt lat="45.91907453403" lon="12.062884616236554"><ele>425.0</ele><time>2026-04-25T07:31:07.806Z</time></trkpt><trkpt lat="45.91916165703138" lon="12.062931438318289"><ele>425.0</ele><time>2026-04-25T07:31:09.806Z</time></trkpt><trkpt lat="45.91925981332372" lon="12.062980103366764"><ele>425.0</ele><time>2026-04-25T07:31:11.806Z</time></trkpt><trkpt lat="45.91935032550358" lon="12.063024509852783"><ele>425.8</ele><time>2026-04-25T07:31:13.806Z</time></trkpt><trkpt lat="45.919436265661666" lon="12.06308113642393"><ele>426.6</ele><time>2026-04-25T07:31:15.806Z</time></trkpt><trkpt lat="45.91951880369043" lon="12.063136364942105"><ele>427.4</ele><time>2026-04-25T07:31:17.806Z</time></trkpt><trkpt lat="45.919621110826306" lon="12.063155431201169"><ele>428.2</ele><time>2026-04-25T07:31:19.806Z</time></trkpt><trkpt lat="45.91972513750288" lon="12.063135195379575"><ele>429.0</ele><time>2026-04-25T07:31:21.806Z</time></trkpt><trkpt lat="45.919829932107284" lon="12.063069753300741"><ele>429.0</ele><time>2026-04-25T07:31:23.806Z</time></trkpt><trkpt lat="45.91993082090323" lon="12.062986498774729"><ele>429.0</ele><time>2026-04-25T07:31:25.806Z</time></trkpt><trkpt lat="45.92002207471105" lon="12.062886621401637"><ele>429.0</ele><time>2026-04-25T07:31:27.806Z</time></trkpt><trkpt lat="45.92010629191308" lon="12.06277997691807"><ele>429.0</ele><time>2026-04-25T07:31:29.806Z</time></trkpt><trkpt lat="45.92015818789234" lon="12.062723989297838"><ele>429.0</ele><time>2026-04-25T07:31:30.806Z</time></trkpt><trkpt lat="45.92021412927959" lon="12.062680114383117"><ele>428.0</ele><time>2026-04-25T07:31:31.806Z</time></trkpt><trkpt lat="45.92026662773651" lon="12.062624294714363"><ele>427.0</ele><time>2026-04-25T07:31:32.806Z</time></trkpt><trkpt lat="45.920322267436795" lon="12.062576856170978"><ele>426.0</ele><time>2026-04-25T07:31:33.806Z</time></trkpt><trkpt lat="45.92036501396837" lon="12.062502161432757"><ele>425.0</ele><time>2026-04-25T07:31:34.806Z</time></trkpt><trkpt lat="45.9203961893491" lon="12.062422182475682"><ele>424.0</ele><time>2026-04-25T07:31:35.806Z</time></trkpt><trkpt lat="45.920437533540294" lon="12.062343594322087"><ele>423.0</ele><time>2026-04-25T07:31:36.806Z</time></trkpt><trkpt lat="45.92047871302551" lon="12.062259770076624"><ele>422.0</ele><time>2026-04-25T07:31:37.806Z</time></trkpt><trkpt lat="45.920510015548075" lon="12.062166316216299"><ele>422.0</ele><time>2026-04-25T07:31:38.806Z</time></trkpt><trkpt lat="45.92053175489085" lon="12.062073443237475"><ele>422.0</ele><time>2026-04-25T07:31:39.805Z</time></trkpt><trkpt lat="45.920559359213925" lon="12.061980179558411"><ele>422.0</ele><time>2026-04-25T07:31:40.805Z</time></trkpt><trkpt lat="45.92058906173428" lon="12.061894341905237"><ele>422.0</ele><time>2026-04-25T07:31:41.805Z</time></trkpt><trkpt lat="45.92062508595672" lon="12.061809522142937"><ele>422.0</ele><time>2026-04-25T07:31:42.805Z</time></trkpt><trkpt lat="45.92066704694349" lon="12.061722834579047"><ele>422.0</ele><time>2026-04-25T07:31:43.805Z</time></trkpt><trkpt lat="45.92070918780515" lon="12.061645953179168"><ele>422.0</ele><time>2026-04-25T07:31:44.805Z</time></trkpt><trkpt lat="45.92076048543631" lon="12.061579033580397"><ele>426.0</ele><time>2026-04-25T07:31:45.805Z</time></trkpt><trkpt lat="45.920817308324175" lon="12.061524072109856"><ele>430.0</ele><time>2026-04-25T07:31:46.805Z</time></trkpt><trkpt lat="45.92091943460037" lon="12.061410879304285"><ele>434.00000000000006</ele><time>2026-04-25T07:31:48.805Z</time></trkpt><trkpt lat="45.921039119539216" lon="12.061363047414517"><ele>438.0</ele><time>2026-04-25T07:31:50.805Z</time></trkpt><trkpt lat="45.921155524043385" lon="12.061339392392735"><ele>442.0</ele><time>2026-04-25T07:31:52.805Z</time></trkpt><trkpt lat="45.921269723793166" lon="12.06138884876859"><ele>443.20000000000005</ele><time>2026-04-25T07:31:54.805Z</time></trkpt><trkpt lat="45.92135931292323" lon="12.061448374126774"><ele>444.40000000000003</ele><time>2026-04-25T07:31:56.805Z</time></trkpt><trkpt lat="45.92141999047319" lon="12.061547042864026"><ele>445.59999999999997</ele><time>2026-04-25T07:31:58.805Z</time></trkpt><trkpt lat="45.921451313342516" lon="12.061643843909264"><ele>446.79999999999995</ele><time>2026-04-25T07:32:00.805Z</time></trkpt><trkpt lat="45.92144254799267" lon="12.061744910968393"><ele>448.0</ele><time>2026-04-25T07:32:02.805Z</time></trkpt><trkpt lat="45.92147930700131" lon="12.06190308847347"><ele>444.79999999999995</ele><time>2026-04-25T07:32:04.805Z</time></trkpt><trkpt lat="45.92150766327917" lon="12.06206667350869"><ele>441.59999999999997</ele><time>2026-04-25T07:32:06.805Z</time></trkpt><trkpt lat="45.92153114782051" lon="12.062231728825315"><ele>438.40000000000003</ele><time>2026-04-25T07:32:08.805Z</time></trkpt><trkpt lat="45.9215719829203" lon="12.062383668340185"><ele>435.20000000000005</ele><time>2026-04-25T07:32:10.805Z</time></trkpt><trkpt lat="45.921586367938204" lon="12.062475472908536"><ele>432.0</ele><time>2026-04-25T07:32:11.805Z</time></trkpt><trkpt lat="45.921604686729914" lon="12.062578415175436"><ele>432.1428571428571</ele><time>2026-04-25T07:32:12.805Z</time></trkpt><trkpt lat="45.92161598675969" lon="12.0626783442918"><ele>432.2857142857143</ele><time>2026-04-25T07:32:13.805Z</time></trkpt><trkpt lat="45.92164320277525" lon="12.062773975555416"><ele>432.42857142857144</ele><time>2026-04-25T07:32:14.805Z</time></trkpt><trkpt lat="45.92166506888881" lon="12.062871354032785"><ele>432.57142857142856</ele><time>2026-04-25T07:32:15.805Z</time></trkpt><trkpt lat="45.921683966053266" lon="12.062965568858045"><ele>432.7142857142857</ele><time>2026-04-25T07:32:16.805Z</time></trkpt><trkpt lat="45.92170382782271" lon="12.063064660933035"><ele>432.85714285714283</ele><time>2026-04-25T07:32:17.805Z</time></trkpt><trkpt lat="45.92172063810129" lon="12.063174089970948"><ele>433.0</ele><time>2026-04-25T07:32:18.805Z</time></trkpt><trkpt lat="45.921740926271184" lon="12.063271827672379"><ele>429.83333333333337</ele><time>2026-04-25T07:32:19.805Z</time></trkpt><trkpt lat="45.92177252835061" lon="12.063352508667364"><ele>426.6666666666667</ele><time>2026-04-25T07:32:20.805Z</time></trkpt><trkpt lat="45.921815099289745" lon="12.063424147314388"><ele>423.5</ele><time>2026-04-25T07:32:21.805Z</time></trkpt><trkpt lat="45.921875035833224" lon="12.06347639647089"><ele>420.33333333333337</ele><time>2026-04-25T07:32:22.805Z</time></trkpt><trkpt lat="45.92193925954749" lon="12.06349214021021"><ele>417.1666666666667</ele><time>2026-04-25T07:32:23.805Z</time></trkpt><trkpt lat="45.922015707650026" lon="12.063490120035578"><ele>414.0</ele><time>2026-04-25T07:32:24.805Z</time></trkpt><trkpt lat="45.92213169982295" lon="12.063437375576727"><ele>414.00000000000006</ele><time>2026-04-25T07:32:26.804Z</time></trkpt><trkpt lat="45.92219376863576" lon="12.063388485487861"><ele>414.0</ele><time>2026-04-25T07:32:27.804Z</time></trkpt><trkpt lat="45.92226796553064" lon="12.063351718841965"><ele>414.0</ele><time>2026-04-25T07:32:28.804Z</time></trkpt><trkpt lat="45.92233677911047" lon="12.063305793459387"><ele>414.0</ele><time>2026-04-25T07:32:29.804Z</time></trkpt><trkpt lat="45.9224020982393" lon="12.06325787576325"><ele>414.0</ele><time>2026-04-25T07:32:30.804Z</time></trkpt><trkpt lat="45.922455057266426" lon="12.063203221359762"><ele>414.00000000000006</ele><time>2026-04-25T07:32:31.804Z</time></trkpt><trkpt lat="45.9225032743607" lon="12.06312724261412"><ele>414.0</ele><time>2026-04-25T07:32:32.804Z</time></trkpt><trkpt lat="45.922548281686495" lon="12.06304704407351"><ele>413.5</ele><time>2026-04-25T07:32:33.804Z</time></trkpt><trkpt lat="45.92260463197657" lon="12.062881533497391"><ele>413.0</ele><time>2026-04-25T07:32:35.804Z</time></trkpt><trkpt lat="45.92262580161992" lon="12.06279577838319"><ele>412.5</ele><time>2026-04-25T07:32:36.804Z</time></trkpt><trkpt lat="45.922642364715756" lon="12.062680769681315"><ele>412.0</ele><time>2026-04-25T07:32:37.804Z</time></trkpt><trkpt lat="45.92267794850665" lon="12.062573370451675"><ele>411.5</ele><time>2026-04-25T07:32:38.804Z</time></trkpt><trkpt lat="45.92271959139641" lon="12.062492717040238"><ele>411.0</ele><time>2026-04-25T07:32:39.804Z</time></trkpt><trkpt lat="45.92276758070024" lon="12.062422083709414"><ele>414.1428571428571</ele><time>2026-04-25T07:32:40.804Z</time></trkpt><trkpt lat="45.92282516358201" lon="12.062371295498972"><ele>417.2857142857143</ele><time>2026-04-25T07:32:41.804Z</time></trkpt><trkpt lat="45.92288567444584" lon="12.062332101403674"><ele>420.42857142857144</ele><time>2026-04-25T07:32:42.804Z</time></trkpt><trkpt lat="45.92295361228307" lon="12.062296834951912"><ele>423.57142857142856</ele><time>2026-04-25T07:32:43.804Z</time></trkpt><trkpt lat="45.92302442573866" lon="12.062274936760133"><ele>426.7142857142857</ele><time>2026-04-25T07:32:44.805Z</time></trkpt><trkpt lat="45.92309751290219" lon="12.062245346514983"><ele>429.85714285714283</ele><time>2026-04-25T07:32:45.805Z</time></trkpt><trkpt lat="45.92315485248811" lon="12.062191154673656"><ele>433.0</ele><time>2026-04-25T07:32:46.805Z</time></trkpt><trkpt lat="45.92325249266539" lon="12.06205398168797"><ele>433.00000000000006</ele><time>2026-04-25T07:32:48.805Z</time></trkpt><trkpt lat="45.92329804677773" lon="12.061972847891768"><ele>433.0</ele><time>2026-04-25T07:32:49.805Z</time></trkpt><trkpt lat="45.92336414194442" lon="12.06188502868558"><ele>433.0</ele><time>2026-04-25T07:32:50.805Z</time></trkpt><trkpt lat="45.92343506556094" lon="12.061791197436452"><ele>433.0</ele><time>2026-04-25T07:32:51.805Z</time></trkpt><trkpt lat="45.92350204509857" lon="12.061716823301328"><ele>433.00000000000006</ele><time>2026-04-25T07:32:52.805Z</time></trkpt><trkpt lat="45.92355932382421" lon="12.061641980093931"><ele>433.0</ele><time>2026-04-25T07:32:53.805Z</time></trkpt><trkpt lat="45.92362435359124" lon="12.061558588520787"><ele>432.4</ele><time>2026-04-25T07:32:54.806Z</time></trkpt><trkpt lat="45.92369160907047" lon="12.061487801092676"><ele>431.79999999999995</ele><time>2026-04-25T07:32:55.806Z</time></trkpt><trkpt lat="45.923760032342734" lon="12.06140745925242"><ele>431.2</ele><time>2026-04-25T07:32:56.805Z</time></trkpt><trkpt lat="45.92384071369299" lon="12.06132640005819"><ele>430.6</ele><time>2026-04-25T07:32:57.805Z</time></trkpt><trkpt lat="45.923925382352046" lon="12.06125122899315"><ele>430.0</ele><time>2026-04-25T07:32:58.805Z</time></trkpt><trkpt lat="45.92400555710923" lon="12.061155792164996"><ele>430.00000000000006</ele><time>2026-04-25T07:32:59.805Z</time></trkpt><trkpt lat="45.924095382788025" lon="12.061117333344482"><ele>430.0</ele><time>2026-04-25T07:33:00.804Z</time></trkpt><trkpt lat="45.92417523545403" lon="12.061116485392022"><ele>430.0</ele><time>2026-04-25T07:33:01.804Z</time></trkpt><trkpt lat="45.92424251098498" lon="12.061159707607677"><ele>430.0</ele><time>2026-04-25T07:33:02.804Z</time></trkpt><trkpt lat="45.92431272551357" lon="12.061219493563382"><ele>430.00000000000006</ele><time>2026-04-25T07:33:03.804Z</time></trkpt><trkpt lat="45.924373755633205" lon="12.061307019775336"><ele>430.0</ele><time>2026-04-25T07:33:04.804Z</time></trkpt><trkpt lat="45.92438680959997" lon="12.06144740581857"><ele>431.33333333333337</ele><time>2026-04-25T07:33:05.804Z</time></trkpt><trkpt lat="45.92436260500531" lon="12.06158489603897"><ele>432.6666666666667</ele><time>2026-04-25T07:33:06.804Z</time></trkpt><trkpt lat="45.92432887804172" lon="12.061705631295965"><ele>434.0</ele><time>2026-04-25T07:33:07.804Z</time></trkpt><trkpt lat="45.92428135478387" lon="12.061799830625898"><ele>435.33333333333337</ele><time>2026-04-25T07:33:08.804Z</time></trkpt><trkpt lat="45.924258559485914" lon="12.06191655827195"><ele>436.6666666666667</ele><time>2026-04-25T07:33:09.804Z</time></trkpt><trkpt lat="45.924261493160024" lon="12.062010497084815"><ele>438.0</ele><time>2026-04-25T07:33:10.804Z</time></trkpt><trkpt lat="45.9242723411085" lon="12.06213156298659"><ele>438.0</ele><time>2026-04-25T07:33:11.804Z</time></trkpt><trkpt lat="45.92430989342931" lon="12.062251216066338"><ele>438.0</ele><time>2026-04-25T07:33:12.804Z</time></trkpt><trkpt lat="45.92435309526022" lon="12.062355941512058"><ele>438.0</ele><time>2026-04-25T07:33:13.804Z</time></trkpt><trkpt lat="45.92441822464582" lon="12.062433075637713"><ele>438.0</ele><time>2026-04-25T07:33:14.804Z</time></trkpt><trkpt lat="45.92449846520385" lon="12.062463071570322"><ele>438.0</ele><time>2026-04-25T07:33:15.804Z</time></trkpt><trkpt lat="45.924587604456256" lon="12.062455888915576"><ele>438.0</ele><time>2026-04-25T07:33:16.804Z</time></trkpt><trkpt lat="45.92468059330668" lon="12.062456807895275"><ele>436.5</ele><time>2026-04-25T07:33:17.804Z</time></trkpt><trkpt lat="45.924762677278245" lon="12.06246679824246"><ele>435.0</ele><time>2026-04-25T07:33:18.804Z</time></trkpt><trkpt lat="45.92485320580608" lon="12.062480511723297"><ele>433.5</ele><time>2026-04-25T07:33:19.804Z</time></trkpt><trkpt lat="45.92493008597409" lon="12.062532615351437"><ele>432.0</ele><time>2026-04-25T07:33:20.804Z</time></trkpt><trkpt lat="45.925012537510376" lon="12.062577461605745"><ele>430.5</ele><time>2026-04-25T07:33:21.804Z</time></trkpt><trkpt lat="45.92510157725759" lon="12.06262635224273"><ele>429.0</ele><time>2026-04-25T07:33:22.804Z</time></trkpt><trkpt lat="45.92516991246927" lon="12.062726583903936"><ele>429.0</ele><time>2026-04-25T07:33:23.804Z</time></trkpt><trkpt lat="45.92524633653547" lon="12.062806175753614"><ele>429.0</ele><time>2026-04-25T07:33:24.804Z</time></trkpt><trkpt lat="45.92531547948451" lon="12.062914206034577"><ele>429.0</ele><time>2026-04-25T07:33:25.804Z</time></trkpt><trkpt lat="45.92538856113385" lon="12.06300884300575"><ele>429.0</ele><time>2026-04-25T07:33:26.804Z</time></trkpt><trkpt lat="45.925471309975315" lon="12.06309677925357"><ele>429.0</ele><time>2026-04-25T07:33:27.804Z</time></trkpt><trkpt lat="45.92555669098631" lon="12.06316044304919"><ele>429.0</ele><time>2026-04-25T07:33:28.804Z</time></trkpt><trkpt lat="45.92565025384793" lon="12.063188952857356"><ele>429.0</ele><time>2026-04-25T07:33:29.804Z</time></trkpt><trkpt lat="45.925742076670076" lon="12.063179919636623"><ele>429.0</ele><time>2026-04-25T07:33:30.804Z</time></trkpt><trkpt lat="45.9258355698305" lon="12.063138174298526"><ele>429.0</ele><time>2026-04-25T07:33:31.804Z</time></trkpt><trkpt lat="45.92592989857105" lon="12.063118827017028"><ele>429.0</ele><time>2026-04-25T07:33:32.804Z</time></trkpt><trkpt lat="45.9260253749254" lon="12.06315179575484"><ele>429.0</ele><time>2026-04-25T07:33:33.804Z</time></trkpt><trkpt lat="45.92609382568371" lon="12.063248809429211"><ele>429.0</ele><time>2026-04-25T07:33:34.804Z</time></trkpt><trkpt lat="45.92614775193549" lon="12.06336598827768"><ele>429.0</ele><time>2026-04-25T07:33:35.804Z</time></trkpt><trkpt lat="45.92616222438116" lon="12.063503016203423"><ele>429.0</ele><time>2026-04-25T07:33:36.804Z</time></trkpt><trkpt lat="45.926164210676085" lon="12.063655595985832"><ele>429.0</ele><time>2026-04-25T07:33:37.804Z</time></trkpt><trkpt lat="45.926169602933236" lon="12.063818329647432"><ele>429.0</ele><time>2026-04-25T07:33:38.804Z</time></trkpt><trkpt lat="45.92618966508103" lon="12.063974387506766"><ele>429.0</ele><time>2026-04-25T07:33:39.804Z</time></trkpt><trkpt lat="45.92621430140348" lon="12.064131171477145"><ele>429.0</ele><time>2026-04-25T07:33:40.804Z</time></trkpt><trkpt lat="45.92623944440725" lon="12.064295286469532"><ele>429.0</ele><time>2026-04-25T07:33:41.804Z</time></trkpt><trkpt lat="45.92626649902085" lon="12.064457267328853"><ele>427.0</ele><time>2026-04-25T07:33:42.804Z</time></trkpt><trkpt lat="45.92628663598423" lon="12.064623623259392"><ele>425.0</ele><time>2026-04-25T07:33:43.804Z</time></trkpt><trkpt lat="45.92629531287781" lon="12.064794393692726"><ele>423.0</ele><time>2026-04-25T07:33:44.804Z</time></trkpt><trkpt lat="45.92632732950508" lon="12.064955956709838"><ele>421.0</ele><time>2026-04-25T07:33:45.803Z</time></trkpt><trkpt lat="45.92637697136376" lon="12.06510814253765"><ele>421.5</ele><time>2026-04-25T07:33:46.803Z</time></trkpt><trkpt lat="45.92646479026913" lon="12.06521889699187"><ele>422.0</ele><time>2026-04-25T07:33:47.803Z</time></trkpt><trkpt lat="45.926571194321035" lon="12.065293573122643"><ele>422.5</ele><time>2026-04-25T07:33:48.803Z</time></trkpt><trkpt lat="45.92668602949777" lon="12.065321293276652"><ele>423.0</ele><time>2026-04-25T07:33:49.803Z</time></trkpt><trkpt lat="45.926801337588735" lon="12.065320112030214"><ele>423.0</ele><time>2026-04-25T07:33:50.803Z</time></trkpt><trkpt lat="45.92690544153151" lon="12.065374265888575"><ele>423.0</ele><time>2026-04-25T07:33:51.803Z</time></trkpt><trkpt lat="45.92698540690598" lon="12.065489367016733"><ele>423.0</ele><time>2026-04-25T07:33:52.803Z</time></trkpt><trkpt lat="45.92703205418009" lon="12.065644536860097"><ele>423.0</ele><time>2026-04-25T07:33:53.803Z</time></trkpt><trkpt lat="45.92708810664461" lon="12.065795170304249"><ele>418.5</ele><time>2026-04-25T07:33:54.803Z</time></trkpt><trkpt lat="45.92716097620215" lon="12.065918670575767"><ele>414.0</ele><time>2026-04-25T07:33:55.803Z</time></trkpt><trkpt lat="45.92724975001322" lon="12.0660283605801"><ele>409.5</ele><time>2026-04-25T07:33:56.803Z</time></trkpt><trkpt lat="45.92734893325972" lon="12.066130254275592"><ele>405.0</ele><time>2026-04-25T07:33:57.803Z</time></trkpt><trkpt lat="45.927430018400145" lon="12.06625148381397"><ele>405.0</ele><time>2026-04-25T07:33:58.803Z</time></trkpt><trkpt lat="45.92747729806461" lon="12.066396378490133"><ele>405.0</ele><time>2026-04-25T07:33:59.803Z</time></trkpt><trkpt lat="45.92747436290966" lon="12.066543129188839"><ele>405.0</ele><time>2026-04-25T07:34:00.803Z</time></trkpt><trkpt lat="45.92744425370917" lon="12.066683034588216"><ele>405.0</ele><time>2026-04-25T07:34:01.803Z</time></trkpt><trkpt lat="45.927378751898374" lon="12.066825264272943"><ele>405.0</ele><time>2026-04-25T07:34:02.803Z</time></trkpt><trkpt lat="45.927290601544584" lon="12.066924116487014"><ele>402.6</ele><time>2026-04-25T07:34:03.803Z</time></trkpt><trkpt lat="45.927187932649744" lon="12.06699600429946"><ele>400.2</ele><time>2026-04-25T07:34:04.803Z</time></trkpt><trkpt lat="45.92710604710825" lon="12.067081238810767"><ele>397.79999999999995</ele><time>2026-04-25T07:34:05.803Z</time></trkpt><trkpt lat="45.92703849873962" lon="12.067181159748282"><ele>395.4</ele><time>2026-04-25T07:34:06.803Z</time></trkpt><trkpt lat="45.92698663025261" lon="12.06730540145115"><ele>393.0</ele><time>2026-04-25T07:34:07.803Z</time></trkpt><trkpt lat="45.926963013547166" lon="12.067440108361586"><ele>392.4</ele><time>2026-04-25T07:34:08.803Z</time></trkpt><trkpt lat="45.926979409986835" lon="12.067585546772511"><ele>391.79999999999995</ele><time>2026-04-25T07:34:09.803Z</time></trkpt><trkpt lat="45.927018614090606" lon="12.067713320908831"><ele>391.2</ele><time>2026-04-25T07:34:10.803Z</time></trkpt><trkpt lat="45.927084710522166" lon="12.06781695518246"><ele>390.6</ele><time>2026-04-25T07:34:11.803Z</time></trkpt><trkpt lat="45.927168239412026" lon="12.06789743740429"><ele>390.0</ele><time>2026-04-25T07:34:12.803Z</time></trkpt><trkpt lat="45.927266172186094" lon="12.067939073178607"><ele>390.0</ele><time>2026-04-25T07:34:13.803Z</time></trkpt><trkpt lat="45.92735632365404" lon="12.067973032656763"><ele>390.0</ele><time>2026-04-25T07:34:14.803Z</time></trkpt><trkpt lat="45.92745035627078" lon="12.068016540870113"><ele>390.0</ele><time>2026-04-25T07:34:15.803Z</time></trkpt><trkpt lat="45.92753364012956" lon="12.068060804397453"><ele>390.0</ele><time>2026-04-25T07:34:16.803Z</time></trkpt><trkpt lat="45.92761803191324" lon="12.068094440420996"><ele>390.0</ele><time>2026-04-25T07:34:17.803Z</time></trkpt><trkpt lat="45.92771402925023" lon="12.068090595552059"><ele>391.6</ele><time>2026-04-25T07:34:18.803Z</time></trkpt><trkpt lat="45.927805602514546" lon="12.068076388957042"><ele>393.2</ele><time>2026-04-25T07:34:19.803Z</time></trkpt><trkpt lat="45.927896170292264" lon="12.068034812524385"><ele>394.79999999999995</ele><time>2026-04-25T07:34:20.803Z</time></trkpt><trkpt lat="45.927976620970206" lon="12.067964802806026"><ele>396.4</ele><time>2026-04-25T07:34:21.803Z</time></trkpt><trkpt lat="45.928050996511" lon="12.067893634588343"><ele>398.0</ele><time>2026-04-25T07:34:22.803Z</time></trkpt><trkpt lat="45.928125272117256" lon="12.067837420547285"><ele>397.99999999999994</ele><time>2026-04-25T07:34:23.803Z</time></trkpt><trkpt lat="45.92820368854883" lon="12.067798086098264"><ele>398.0</ele><time>2026-04-25T07:34:24.803Z</time></trkpt><trkpt lat="45.92829530817072" lon="12.067801567631884"><ele>398.0</ele><time>2026-04-25T07:34:25.803Z</time></trkpt><trkpt lat="45.9283733219176" lon="12.067838119347202"><ele>398.0</ele><time>2026-04-25T07:34:26.803Z</time></trkpt><trkpt lat="45.92845646371308" lon="12.067906120010226"><ele>397.99999999999994</ele><time>2026-04-25T07:34:27.803Z</time></trkpt><trkpt lat="45.92852389260109" lon="12.067992383790605"><ele>398.0</ele><time>2026-04-25T07:34:28.803Z</time></trkpt><trkpt lat="45.92858402281551" lon="12.068087206346299"><ele>397.0</ele><time>2026-04-25T07:34:29.803Z</time></trkpt><trkpt lat="45.9286462257403" lon="12.068173483340505"><ele>396.0</ele><time>2026-04-25T07:34:30.803Z</time></trkpt><trkpt lat="45.92871641248972" lon="12.068262758695345"><ele>395.0</ele><time>2026-04-25T07:34:31.802Z</time></trkpt><trkpt lat="45.92876932960744" lon="12.06835193177865"><ele>394.0</ele><time>2026-04-25T07:34:32.802Z</time></trkpt><trkpt lat="45.92881509862144" lon="12.068434416444152"><ele>393.0</ele><time>2026-04-25T07:34:33.802Z</time></trkpt><trkpt lat="45.92888329525986" lon="12.068586025303425"><ele>393.00000000000006</ele><time>2026-04-25T07:34:35.802Z</time></trkpt><trkpt lat="45.928878128254354" lon="12.068699399425668"><ele>393.0</ele><time>2026-04-25T07:34:36.802Z</time></trkpt><trkpt lat="45.92886999817837" lon="12.068797768402652"><ele>393.0</ele><time>2026-04-25T07:34:37.802Z</time></trkpt><trkpt lat="45.92885406501776" lon="12.068886559734473"><ele>393.0</ele><time>2026-04-25T07:34:38.802Z</time></trkpt><trkpt lat="45.92882126888914" lon="12.068966120789543"><ele>393.0</ele><time>2026-04-25T07:34:39.802Z</time></trkpt><trkpt lat="45.92877463816068" lon="12.069035246690767"><ele>393.00000000000006</ele><time>2026-04-25T07:34:40.802Z</time></trkpt><trkpt lat="45.92873783826069" lon="12.069128816837818"><ele>393.0</ele><time>2026-04-25T07:34:41.802Z</time></trkpt><trkpt lat="45.92873594495447" lon="12.069243991123033"><ele>391.5</ele><time>2026-04-25T07:34:42.802Z</time></trkpt><trkpt lat="45.92875242477665" lon="12.069359826959092"><ele>390.0</ele><time>2026-04-25T07:34:43.802Z</time></trkpt><trkpt lat="45.92877251302617" lon="12.069477519844314"><ele>388.5</ele><time>2026-04-25T07:34:44.802Z</time></trkpt><trkpt lat="45.92878553798579" lon="12.069587182817243"><ele>387.0</ele><time>2026-04-25T07:34:45.802Z</time></trkpt><trkpt lat="45.92879239165722" lon="12.06970922625373"><ele>385.5</ele><time>2026-04-25T07:34:46.802Z</time></trkpt><trkpt lat="45.928799465156935" lon="12.069834300418002"><ele>384.0</ele><time>2026-04-25T07:34:47.802Z</time></trkpt><trkpt lat="45.92881160895622" lon="12.069963402180644"><ele>383.2</ele><time>2026-04-25T07:34:48.802Z</time></trkpt><trkpt lat="45.92883001368117" lon="12.070092905948554"><ele>382.4</ele><time>2026-04-25T07:34:49.802Z</time></trkpt><trkpt lat="45.92883868437654" lon="12.070231017051544"><ele>381.6</ele><time>2026-04-25T07:34:50.803Z</time></trkpt><trkpt lat="45.92884898283577" lon="12.070371022959705"><ele>380.8</ele><time>2026-04-25T07:34:51.803Z</time></trkpt><trkpt lat="45.928861913479224" lon="12.070509844299002"><ele>380.0</ele><time>2026-04-25T07:34:52.803Z</time></trkpt><trkpt lat="45.92887179672636" lon="12.07063901353597"><ele>380.0</ele><time>2026-04-25T07:34:53.803Z</time></trkpt><trkpt lat="45.928874399161074" lon="12.070765102579609"><ele>380.0</ele><time>2026-04-25T07:34:54.803Z</time></trkpt><trkpt lat="45.92888709468355" lon="12.070901099190737"><ele>380.0</ele><time>2026-04-25T07:34:55.803Z</time></trkpt><trkpt lat="45.92890563357091" lon="12.071024104923698"><ele>380.0</ele><time>2026-04-25T07:34:56.803Z</time></trkpt><trkpt lat="45.92891977173994" lon="12.071153654204247"><ele>380.0</ele><time>2026-04-25T07:34:57.804Z</time></trkpt><trkpt lat="45.92892954544867" lon="12.071245643974729"><ele>380.0</ele><time>2026-04-25T07:34:58.804Z</time></trkpt><trkpt lat="45.92888800264835" lon="12.071326117508088"><ele>379.6666666666667</ele><time>2026-04-25T07:35:03.803Z</time></trkpt><trkpt lat="45.92880322853098" lon="12.071296375951757"><ele>379.33333333333337</ele><time>2026-04-25T07:35:05.803Z</time></trkpt><trkpt lat="45.92873295968891" lon="12.071264378205168"><ele>379.0</ele><time>2026-04-25T07:35:06.803Z</time></trkpt><trkpt lat="45.92865987196227" lon="12.071228113051369"><ele>378.6666666666667</ele><time>2026-04-25T07:35:07.803Z</time></trkpt><trkpt lat="45.928588446078365" lon="12.07117350365565"><ele>378.3333333333333</ele><time>2026-04-25T07:35:08.803Z</time></trkpt><trkpt lat="45.92851557836305" lon="12.071101825848828"><ele>378.0</ele><time>2026-04-25T07:35:09.803Z</time></trkpt><trkpt lat="45.928417371707745" lon="12.071052758681144"><ele>375.5</ele><time>2026-04-25T07:35:10.803Z</time></trkpt><trkpt lat="45.928325047690784" lon="12.07101655743939"><ele>373.0</ele><time>2026-04-25T07:35:11.803Z</time></trkpt><trkpt lat="45.92823368294309" lon="12.07099238160391"><ele>370.5</ele><time>2026-04-25T07:35:12.803Z</time></trkpt><trkpt lat="45.928158795375545" lon="12.070967734575248"><ele>368.0</ele><time>2026-04-25T07:35:13.803Z</time></trkpt><trkpt lat="45.928090210082075" lon="12.070942594359957"><ele>365.5</ele><time>2026-04-25T07:35:14.803Z</time></trkpt><trkpt lat="45.92802314405103" lon="12.07091419350247"><ele>363.0</ele><time>2026-04-25T07:35:15.803Z</time></trkpt><trkpt lat="45.92797039035088" lon="12.070859277710719"><ele>363.0</ele><time>2026-04-25T07:35:16.803Z</time></trkpt><trkpt lat="45.927890001752225" lon="12.070804138818707"><ele>363.0</ele><time>2026-04-25T07:35:18.803Z</time></trkpt><trkpt lat="45.927783756612165" lon="12.070803303394635"><ele>363.0</ele><time>2026-04-25T07:35:20.803Z</time></trkpt><trkpt lat="45.92766264141785" lon="12.070792168502123"><ele>363.0</ele><time>2026-04-25T07:35:22.803Z</time></trkpt><trkpt lat="45.92759242871757" lon="12.070776373370256"><ele>363.0</ele><time>2026-04-25T07:35:23.803Z</time></trkpt><trkpt lat="45.927518954002934" lon="12.070749673614793"><ele>361.5</ele><time>2026-04-25T07:35:24.803Z</time></trkpt><trkpt lat="45.92745423278393" lon="12.07071141124714"><ele>360.0</ele><time>2026-04-25T07:35:25.803Z</time></trkpt><trkpt lat="45.927390773368444" lon="12.070663751995916"><ele>358.5</ele><time>2026-04-25T07:35:26.803Z</time></trkpt><trkpt lat="45.92733161997287" lon="12.070614545121321"><ele>357.0</ele><time>2026-04-25T07:35:27.803Z</time></trkpt><trkpt lat="45.927269947576846" lon="12.070587840605025"><ele>355.5</ele><time>2026-04-25T07:35:28.803Z</time></trkpt><trkpt lat="45.92714956040834" lon="12.07056622378316"><ele>354.0</ele><time>2026-04-25T07:35:30.803Z</time></trkpt><trkpt lat="45.92702584170001" lon="12.070584180151066"><ele>354.0</ele><time>2026-04-25T07:35:32.802Z</time></trkpt><trkpt lat="45.92691904223561" lon="12.070608642117321"><ele>354.0</ele><time>2026-04-25T07:35:34.802Z</time></trkpt><trkpt lat="45.92682084971157" lon="12.070634451451829"><ele>354.0</ele><time>2026-04-25T07:35:36.802Z</time></trkpt><trkpt lat="45.92671170009066" lon="12.07070221064214"><ele>354.0</ele><time>2026-04-25T07:35:38.802Z</time></trkpt><trkpt lat="45.92666463885996" lon="12.070765355011048"><ele>354.0</ele><time>2026-04-25T07:35:39.802Z</time></trkpt><trkpt lat="45.92660887649035" lon="12.07081408869572"><ele>352.6666666666667</ele><time>2026-04-25T07:35:40.802Z</time></trkpt><trkpt lat="45.92653484870446" lon="12.070814234054856"><ele>351.3333333333333</ele><time>2026-04-25T07:35:41.802Z</time></trkpt><trkpt lat="45.92646077302003" lon="12.070770620509197"><ele>350.0</ele><time>2026-04-25T07:35:42.802Z</time></trkpt><trkpt lat="45.926394629205625" lon="12.070699371120265"><ele>348.66666666666663</ele><time>2026-04-25T07:35:43.802Z</time></trkpt><trkpt lat="45.92633553218252" lon="12.070589869951121"><ele>347.3333333333333</ele><time>2026-04-25T07:35:44.802Z</time></trkpt><trkpt lat="45.92628080870021" lon="12.070485540120512"><ele>346.0</ele><time>2026-04-25T07:35:45.802Z</time></trkpt><trkpt lat="45.926224330468095" lon="12.07038872924339"><ele>345.8</ele><time>2026-04-25T07:35:46.802Z</time></trkpt><trkpt lat="45.92616211479339" lon="12.0702861102488"><ele>345.6</ele><time>2026-04-25T07:35:47.802Z</time></trkpt><trkpt lat="45.92610610670249" lon="12.07018015356676"><ele>345.4</ele><time>2026-04-25T07:35:48.802Z</time></trkpt><trkpt lat="45.92604432528452" lon="12.070071368101178"><ele>345.2</ele><time>2026-04-25T07:35:49.802Z</time></trkpt><trkpt lat="45.92597825442769" lon="12.06996188837031"><ele>345.0</ele><time>2026-04-25T07:35:50.802Z</time></trkpt><trkpt lat="45.92591298495377" lon="12.06985113550922"><ele>342.4</ele><time>2026-04-25T07:35:51.802Z</time></trkpt><trkpt lat="45.92584158515552" lon="12.069741480790357"><ele>339.8</ele><time>2026-04-25T07:35:52.802Z</time></trkpt><trkpt lat="45.92577011459398" lon="12.069626687784256"><ele>337.20000000000005</ele><time>2026-04-25T07:35:53.802Z</time></trkpt><trkpt lat="45.92570547691669" lon="12.069521127828498"><ele>334.6</ele><time>2026-04-25T07:35:54.802Z</time></trkpt><trkpt lat="45.92564420305273" lon="12.06944484567611"><ele>332.0</ele><time>2026-04-25T07:35:55.802Z</time></trkpt><trkpt lat="45.92557584938139" lon="12.069386513601515"><ele>332.0</ele><time>2026-04-25T07:35:56.802Z</time></trkpt><trkpt lat="45.92550000975829" lon="12.069357814743388"><ele>332.0</ele><time>2026-04-25T07:35:57.802Z</time></trkpt><trkpt lat="45.92542184615119" lon="12.069371153071755"><ele>332.0</ele><time>2026-04-25T07:35:58.802Z</time></trkpt><trkpt lat="45.92533981455814" lon="12.06943380868176"><ele>332.0</ele><time>2026-04-25T07:35:59.802Z</time></trkpt><trkpt lat="45.92526815043698" lon="12.069521366583476"><ele>332.0</ele><time>2026-04-25T07:36:00.802Z</time></trkpt><trkpt lat="45.92522943075596" lon="12.069651483454463"><ele>332.0</ele><time>2026-04-25T07:36:01.802Z</time></trkpt><trkpt lat="45.92518287920728" lon="12.069779048001275"><ele>332.0</ele><time>2026-04-25T07:36:02.802Z</time></trkpt><trkpt lat="45.925131955964645" lon="12.069865527265582"><ele>332.0</ele><time>2026-04-25T07:36:03.802Z</time></trkpt><trkpt lat="45.92507039524759" lon="12.069916244818138"><ele>332.0</ele><time>2026-04-25T07:36:04.802Z</time></trkpt><trkpt lat="45.924988207634286" lon="12.069913926502092"><ele>332.0</ele><time>2026-04-25T07:36:05.802Z</time></trkpt><trkpt lat="45.92491167936198" lon="12.069867064926033"><ele>332.0</ele><time>2026-04-25T07:36:06.802Z</time></trkpt><trkpt lat="45.924847672779975" lon="12.06976433795665"><ele>332.0</ele><time>2026-04-25T07:36:07.802Z</time></trkpt><trkpt lat="45.92479474168479" lon="12.069652461418855"><ele>330.40000000000003</ele><time>2026-04-25T07:36:08.802Z</time></trkpt><trkpt lat="45.92481852176171" lon="12.069465997057389"><ele>328.8</ele><time>2026-04-25T07:36:09.802Z</time></trkpt><trkpt lat="45.92483956711765" lon="12.069330198626222"><ele>327.2</ele><time>2026-04-25T07:36:10.802Z</time></trkpt><trkpt lat="45.92488249910191" lon="12.069186531864645"><ele>325.6</ele><time>2026-04-25T07:36:11.802Z</time></trkpt><trkpt lat="45.92490588121369" lon="12.069053157371213"><ele>324.0</ele><time>2026-04-25T07:36:12.802Z</time></trkpt><trkpt lat="45.92488330164455" lon="12.06894224051896"><ele>327.6</ele><time>2026-04-25T07:36:13.802Z</time></trkpt><trkpt lat="45.92481951900094" lon="12.06885819802043"><ele>331.2</ele><time>2026-04-25T07:36:14.802Z</time></trkpt><trkpt lat="45.92472838324482" lon="12.068818864230872"><ele>334.8</ele><time>2026-04-25T07:36:15.802Z</time></trkpt><trkpt lat="45.92463401749586" lon="12.068835969678828"><ele>338.40000000000003</ele><time>2026-04-25T07:36:16.802Z</time></trkpt><trkpt lat="45.924534648075486" lon="12.068921032685516"><ele>342.0</ele><time>2026-04-25T07:36:17.801Z</time></trkpt><trkpt lat="45.92443307758069" lon="12.069003119035703"><ele>342.0</ele><time>2026-04-25T07:36:18.801Z</time></trkpt><trkpt lat="45.92433241565852" lon="12.069078787059265"><ele>342.0</ele><time>2026-04-25T07:36:19.801Z</time></trkpt><trkpt lat="45.92424916223823" lon="12.069138105681429"><ele>342.0</ele><time>2026-04-25T07:36:20.801Z</time></trkpt><trkpt lat="45.924176269863736" lon="12.06914377198244"><ele>342.0</ele><time>2026-04-25T07:36:21.801Z</time></trkpt><trkpt lat="45.9241091776906" lon="12.069124539432892"><ele>342.0</ele><time>2026-04-25T07:36:22.801Z</time></trkpt><trkpt lat="45.924026031752035" lon="12.069052501035987"><ele>342.0</ele><time>2026-04-25T07:36:23.801Z</time></trkpt><trkpt lat="45.92395242086964" lon="12.068924042034604"><ele>337.6</ele><time>2026-04-25T07:36:24.801Z</time></trkpt><trkpt lat="45.92391166957037" lon="12.068788623917218"><ele>333.20000000000005</ele><time>2026-04-25T07:36:25.801Z</time></trkpt><trkpt lat="45.92386315675688" lon="12.068674342570834"><ele>328.8</ele><time>2026-04-25T07:36:26.801Z</time></trkpt><trkpt lat="45.92378403239067" lon="12.06859386516692"><ele>324.4</ele><time>2026-04-25T07:36:27.801Z</time></trkpt><trkpt lat="45.92368838681598" lon="12.068592184721657"><ele>320.0</ele><time>2026-04-25T07:36:28.801Z</time></trkpt><trkpt lat="45.92357958939309" lon="12.06865987615109"><ele>320.0</ele><time>2026-04-25T07:36:29.801Z</time></trkpt><trkpt lat="45.92349927615853" lon="12.068758553624045"><ele>320.0</ele><time>2026-04-25T07:36:30.801Z</time></trkpt><trkpt lat="45.92344000996946" lon="12.068870891532441"><ele>320.0</ele><time>2026-04-25T07:36:31.801Z</time></trkpt><trkpt lat="45.92329816744778" lon="12.068947878087123"><ele>320.0</ele><time>2026-04-25T07:36:33.801Z</time></trkpt><trkpt lat="45.92319394365258" lon="12.068875492805066"><ele>317.25</ele><time>2026-04-25T07:36:34.801Z</time></trkpt><trkpt lat="45.92311082000263" lon="12.06876893556454"><ele>314.5</ele><time>2026-04-25T07:36:35.801Z</time></trkpt><trkpt lat="45.92302240596671" lon="12.068672515301959"><ele>311.75</ele><time>2026-04-25T07:36:36.801Z</time></trkpt><trkpt lat="45.92291313110542" lon="12.068650197874698"><ele>309.0</ele><time>2026-04-25T07:36:37.801Z</time></trkpt><trkpt lat="45.922797972560815" lon="12.068681241505022"><ele>309.0</ele><time>2026-04-25T07:36:38.801Z</time></trkpt><trkpt lat="45.92268263543669" lon="12.068746929026798"><ele>309.0</ele><time>2026-04-25T07:36:39.801Z</time></trkpt><trkpt lat="45.92257499555578" lon="12.068834713171475"><ele>309.0</ele><time>2026-04-25T07:36:40.801Z</time></trkpt><trkpt lat="45.92246157081436" lon="12.06892108711647"><ele>309.0</ele><time>2026-04-25T07:36:41.801Z</time></trkpt><trkpt lat="45.92233798198079" lon="12.068993849258908"><ele>308.25</ele><time>2026-04-25T07:36:42.801Z</time></trkpt><trkpt lat="45.92220886163356" lon="12.069051111255616"><ele>307.5</ele><time>2026-04-25T07:36:43.801Z</time></trkpt><trkpt lat="45.922068545925256" lon="12.069108531369295"><ele>306.75</ele><time>2026-04-25T07:36:44.801Z</time></trkpt><trkpt lat="45.92193905945636" lon="12.069176549251075"><ele>306.0</ele><time>2026-04-25T07:36:45.801Z</time></trkpt><trkpt lat="45.92180548758851" lon="12.069238324785172"><ele>299.25</ele><time>2026-04-25T07:36:46.801Z</time></trkpt><trkpt lat="45.9216773819772" lon="12.06929804730524"><ele>292.5</ele><time>2026-04-25T07:36:47.801Z</time></trkpt><trkpt lat="45.92154356162049" lon="12.06933390921557"><ele>285.75</ele><time>2026-04-25T07:36:48.801Z</time></trkpt><trkpt lat="45.921412592956315" lon="12.069346937071327"><ele>279.0</ele><time>2026-04-25T07:36:49.801Z</time></trkpt><trkpt lat="45.921266873446456" lon="12.069346370391957"><ele>279.0</ele><time>2026-04-25T07:36:50.801Z</time></trkpt><trkpt lat="45.92112226530139" lon="12.069336281631085"><ele>279.0</ele><time>2026-04-25T07:36:51.801Z</time></trkpt><trkpt lat="45.92097289113239" lon="12.06932337236937"><ele>279.0</ele><time>2026-04-25T07:36:52.801Z</time></trkpt><trkpt lat="45.92082781417824" lon="12.069311542716056"><ele>279.0</ele><time>2026-04-25T07:36:53.801Z</time></trkpt><trkpt lat="45.92068148201254" lon="12.069294028784558"><ele>277.75</ele><time>2026-04-25T07:36:54.801Z</time></trkpt><trkpt lat="45.920523353717286" lon="12.069284639596198"><ele>276.5</ele><time>2026-04-25T07:36:55.801Z</time></trkpt><trkpt lat="45.92037702580013" lon="12.069281652876807"><ele>275.25</ele><time>2026-04-25T07:36:56.802Z</time></trkpt><trkpt lat="45.920249255459794" lon="12.069271080424961"><ele>274.0</ele><time>2026-04-25T07:36:57.801Z</time></trkpt><trkpt lat="45.92012447710898" lon="12.069271628267035"><ele>272.2</ele><time>2026-04-25T07:36:58.801Z</time></trkpt><trkpt lat="45.92000584821936" lon="12.069294308416307"><ele>270.4</ele><time>2026-04-25T07:36:59.801Z</time></trkpt><trkpt lat="45.91990462043385" lon="12.069319345797775"><ele>268.6</ele><time>2026-04-25T07:37:00.801Z</time></trkpt><trkpt lat="45.91981372636264" lon="12.069380155174628"><ele>266.8</ele><time>2026-04-25T07:37:01.801Z</time></trkpt><trkpt lat="45.91973555733337" lon="12.069488603276962"><ele>265.0</ele><time>2026-04-25T07:37:02.801Z</time></trkpt><trkpt lat="45.91966954289762" lon="12.069605514664133"><ele>265.0</ele><time>2026-04-25T07:37:03.801Z</time></trkpt><trkpt lat="45.91959554657093" lon="12.06971609895089"><ele>265.0</ele><time>2026-04-25T07:37:04.801Z</time></trkpt><trkpt lat="45.91950313084986" lon="12.06981534758351"><ele>265.0</ele><time>2026-04-25T07:37:05.801Z</time></trkpt><trkpt lat="45.91941673714694" lon="12.069912967369728"><ele>265.0</ele><time>2026-04-25T07:37:06.801Z</time></trkpt><trkpt lat="45.919247042022405" lon="12.07013202674724"><ele>263.25</ele><time>2026-04-25T07:37:08.801Z</time></trkpt><trkpt lat="45.91915758459715" lon="12.070245018575216"><ele>261.5</ele><time>2026-04-25T07:37:09.801Z</time></trkpt><trkpt lat="45.919069034044725" lon="12.070365816937535"><ele>259.75</ele><time>2026-04-25T07:37:10.801Z</time></trkpt><trkpt lat="45.91897665671749" lon="12.070491817227277"><ele>258.0</ele><time>2026-04-25T07:37:11.801Z</time></trkpt><trkpt lat="45.918896359875596" lon="12.07063669065197"><ele>257.75</ele><time>2026-04-25T07:37:12.801Z</time></trkpt><trkpt lat="45.91882819608159" lon="12.070789767820433"><ele>257.5</ele><time>2026-04-25T07:37:13.801Z</time></trkpt><trkpt lat="45.91876538590577" lon="12.070954712508726"><ele>257.25</ele><time>2026-04-25T07:37:14.801Z</time></trkpt><trkpt lat="45.91870413274073" lon="12.071111149003501"><ele>257.0</ele><time>2026-04-25T07:37:15.801Z</time></trkpt><trkpt lat="45.91864928885776" lon="12.071279989087445"><ele>257.0</ele><time>2026-04-25T07:37:16.801Z</time></trkpt><trkpt lat="45.91859764768029" lon="12.071451690185832"><ele>257.0</ele><time>2026-04-25T07:37:17.801Z</time></trkpt><trkpt lat="45.91854476735646" lon="12.071629629843724"><ele>257.0</ele><time>2026-04-25T07:37:18.801Z</time></trkpt><trkpt lat="45.91849144825989" lon="12.071799613336703"><ele>257.0</ele><time>2026-04-25T07:37:19.801Z</time></trkpt><trkpt lat="45.91842941607681" lon="12.071967987989611"><ele>254.25</ele><time>2026-04-25T07:37:20.801Z</time></trkpt><trkpt lat="45.918368358666726" lon="12.072134289305225"><ele>251.5</ele><time>2026-04-25T07:37:21.801Z</time></trkpt><trkpt lat="45.91829929880669" lon="12.0722906821849"><ele>248.75</ele><time>2026-04-25T07:37:22.801Z</time></trkpt><trkpt lat="45.91822336904077" lon="12.072445646636046"><ele>246.0</ele><time>2026-04-25T07:37:23.801Z</time></trkpt><trkpt lat="45.91814554135956" lon="12.072595825266822"><ele>245.5</ele><time>2026-04-25T07:37:24.801Z</time></trkpt><trkpt lat="45.918066405833486" lon="12.072737067317375"><ele>245.0</ele><time>2026-04-25T07:37:25.801Z</time></trkpt><trkpt lat="45.917969143227886" lon="12.072846793205567"><ele>244.5</ele><time>2026-04-25T07:37:26.801Z</time></trkpt><trkpt lat="45.917858824519705" lon="12.07292885822552"><ele>244.0</ele><time>2026-04-25T07:37:27.801Z</time></trkpt><trkpt lat="45.917764083259605" lon="12.07298787231504"><ele>243.99999999999997</ele><time>2026-04-25T07:37:28.801Z</time></trkpt><trkpt lat="45.91768647892827" lon="12.07302657677494"><ele>244.0</ele><time>2026-04-25T07:37:29.8Z</time></trkpt><trkpt lat="45.91763417390056" lon="12.073080845086709"><ele>243.99999999999997</ele><time>2026-04-25T07:37:30.8Z</time></trkpt><trkpt lat="45.91759663861677" lon="12.073165230976565"><ele>243.99999999999997</ele><time>2026-04-25T07:37:31.8Z</time></trkpt><trkpt lat="45.917581104932395" lon="12.073256904217352"><ele>244.0</ele><time>2026-04-25T07:37:32.8Z</time></trkpt><trkpt lat="45.917599810241676" lon="12.07336238115149"><ele>243.99999999999997</ele><time>2026-04-25T07:37:33.8Z</time></trkpt><trkpt lat="45.91761893616346" lon="12.073471029184788"><ele>243.99999999999997</ele><time>2026-04-25T07:37:34.8Z</time></trkpt><trkpt lat="45.91764423619914" lon="12.073568451408997"><ele>244.66666666666666</ele><time>2026-04-25T07:37:35.8Z</time></trkpt><trkpt lat="45.91768056698461" lon="12.073659453534564"><ele>245.33333333333331</ele><time>2026-04-25T07:37:36.8Z</time></trkpt><trkpt lat="45.9177170208813" lon="12.073738278368959"><ele>246.0</ele><time>2026-04-25T07:37:37.8Z</time></trkpt><trkpt lat="45.91776485670412" lon="12.073807394500601"><ele>246.66666666666669</ele><time>2026-04-25T07:37:38.8Z</time></trkpt><trkpt lat="45.917817716513085" lon="12.073875767134732"><ele>247.33333333333334</ele><time>2026-04-25T07:37:39.8Z</time></trkpt><trkpt lat="45.91790847506859" lon="12.073994324925573"><ele>248.0</ele><time>2026-04-25T07:37:41.8Z</time></trkpt><trkpt lat="45.91795797794413" lon="12.074050946210244"><ele>247.50000000000003</ele><time>2026-04-25T07:37:42.8Z</time></trkpt><trkpt lat="45.918060311009285" lon="12.074142094193022"><ele>247.0</ele><time>2026-04-25T07:37:44.8Z</time></trkpt><trkpt lat="45.91812157039886" lon="12.074184696898906"><ele>246.5</ele><time>2026-04-25T07:37:45.8Z</time></trkpt><trkpt lat="45.91818475223706" lon="12.07422882718055"><ele>246.0</ele><time>2026-04-25T07:37:46.8Z</time></trkpt><trkpt lat="45.91824442224454" lon="12.074265070534254"><ele>245.50000000000003</ele><time>2026-04-25T07:37:47.8Z</time></trkpt><trkpt lat="45.91830604591236" lon="12.07430508957522"><ele>245.0</ele><time>2026-04-25T07:37:48.8Z</time></trkpt><trkpt lat="45.918403210193944" lon="12.074383682915304"><ele>247.2</ele><time>2026-04-25T07:37:50.8Z</time></trkpt><trkpt lat="45.918490589541605" lon="12.074461161050705"><ele>249.4</ele><time>2026-04-25T07:37:52.8Z</time></trkpt><trkpt lat="45.918569589239574" lon="12.074533129100551"><ele>251.60000000000002</ele><time>2026-04-25T07:37:54.8Z</time></trkpt><trkpt lat="45.91859241310763" lon="12.07464547790273"><ele>253.8</ele><time>2026-04-25T07:37:56.8Z</time></trkpt><trkpt lat="45.91855614926038" lon="12.074755483284909"><ele>256.0</ele><time>2026-04-25T07:37:58.8Z</time></trkpt><trkpt lat="45.91851622322192" lon="12.074873601619032"><ele>257.0</ele><time>2026-04-25T07:38:01.8Z</time></trkpt><trkpt lat="45.91847083389833" lon="12.074992836242615"><ele>258.0</ele><time>2026-04-25T07:38:04.8Z</time></trkpt><trkpt lat="45.918434956814465" lon="12.075128736476778"><ele>259.0</ele><time>2026-04-25T07:38:07.8Z</time></trkpt><trkpt lat="45.91839867421752" lon="12.07520792077869"><ele>260.0</ele><time>2026-04-25T07:38:09.8Z</time></trkpt><trkpt lat="45.918352799697516" lon="12.075285569505636"><ele>261.0</ele><time>2026-04-25T07:38:11.8Z</time></trkpt><trkpt lat="45.91828683858883" lon="12.075352218696429"><ele>262.0</ele><time>2026-04-25T07:38:14.8Z</time></trkpt><trkpt lat="45.91823071706766" lon="12.075401796090155"><ele>261.3333333333333</ele><time>2026-04-25T07:38:16.799Z</time></trkpt><trkpt lat="45.918160290980154" lon="12.075489552060892"><ele>260.66666666666663</ele><time>2026-04-25T07:38:19.799Z</time></trkpt><trkpt lat="45.91812142086661" lon="12.075563100144011"><ele>260.0</ele><time>2026-04-25T07:38:21.799Z</time></trkpt><trkpt lat="45.91806822800818" lon="12.075678235846615"><ele>259.3333333333333</ele><time>2026-04-25T07:38:24.799Z</time></trkpt><trkpt lat="45.918024647454104" lon="12.075748845307242"><ele>258.6666666666667</ele><time>2026-04-25T07:38:26.799Z</time></trkpt><trkpt lat="45.917989611885474" lon="12.075830905322306"><ele>258.0</ele><time>2026-04-25T07:38:30.799Z</time></trkpt><trkpt lat="45.91794583164635" lon="12.075945861934278"><ele>258.0</ele><time>2026-04-25T07:38:34.799Z</time></trkpt><trkpt lat="45.91792189081903" lon="12.076047266557268"><ele>258.0</ele><time>2026-04-25T07:38:38.799Z</time></trkpt><trkpt lat="45.91793579050651" lon="12.076157641543595"><ele>258.0</ele><time>2026-04-25T07:38:40.799Z</time></trkpt><trkpt lat="45.917940407789025" lon="12.076272874771076"><ele>258.0</ele><time>2026-04-25T07:38:45.799Z</time></trkpt><trkpt lat="45.917997523651906" lon="12.076335239734426"><ele>258.0</ele><time>2026-04-25T07:38:49.799Z</time></trkpt><trkpt lat="45.9181160767485" lon="12.076372850209754"><ele>258.0</ele><time>2026-04-25T07:38:57.799Z</time></trkpt><trkpt lat="45.918189930334655" lon="12.076363968396688"><ele>257.99999999999994</ele><time>2026-04-25T07:39:02.8Z</time></trkpt><trkpt lat="45.91825437112352" lon="12.076353000712407"><ele>258.0</ele><time>2026-04-25T07:39:07.8Z</time></trkpt><trkpt lat="45.91832349429184" lon="12.076343295538608"><ele>258.0</ele><time>2026-04-25T07:39:11.799Z</time></trkpt><trkpt lat="45.91840483605831" lon="12.076359606704466"><ele>258.0</ele><time>2026-04-25T07:39:15.799Z</time></trkpt><trkpt lat="45.91847694030034" lon="12.076351825842552"><ele>258.0</ele><time>2026-04-25T07:39:19.798Z</time></trkpt><trkpt lat="45.9185425305498" lon="12.076365961623422"><ele>257.99999999999994</ele><time>2026-04-25T07:39:23.798Z</time></trkpt><trkpt lat="45.91861338131576" lon="12.07638290880092"><ele>258.0</ele><time>2026-04-25T07:39:27.798Z</time></trkpt><trkpt lat="45.91868729515926" lon="12.07641918759117"><ele>261.1428571428571</ele><time>2026-04-25T07:39:31.798Z</time></trkpt><trkpt lat="45.91875014233574" lon="12.076446089928298"><ele>264.2857142857143</ele><time>2026-04-25T07:39:35.798Z</time></trkpt><trkpt lat="45.91881375454351" lon="12.07645878471359"><ele>267.42857142857144</ele><time>2026-04-25T07:39:39.798Z</time></trkpt><trkpt lat="45.91888806595583" lon="12.07647101810236"><ele>270.57142857142856</ele><time>2026-04-25T07:39:43.798Z</time></trkpt><trkpt lat="45.918958549158724" lon="12.076499676577768"><ele>273.7142857142857</ele><time>2026-04-25T07:39:47.798Z</time></trkpt><trkpt lat="45.91903762168059" lon="12.076496184889898"><ele>276.85714285714283</ele><time>2026-04-25T07:39:51.798Z</time></trkpt><trkpt lat="45.91911711216121" lon="12.076528835451313"><ele>280.0</ele><time>2026-04-25T07:39:55.798Z</time></trkpt><trkpt lat="45.91919977899013" lon="12.076553868757351"><ele>279.3333333333333</ele><time>2026-04-25T07:39:59.798Z</time></trkpt><trkpt lat="45.91927404929126" lon="12.076591790984082"><ele>278.66666666666663</ele><time>2026-04-25T07:40:03.798Z</time></trkpt><trkpt lat="45.919333476123825" lon="12.076627365281949"><ele>278.0</ele><time>2026-04-25T07:40:06.797Z</time></trkpt><trkpt lat="45.919405386602755" lon="12.076686401455182"><ele>277.3333333333333</ele><time>2026-04-25T07:40:10.797Z</time></trkpt><trkpt lat="45.91944949824725" lon="12.076795683471289"><ele>276.6666666666667</ele><time>2026-04-25T07:40:14.797Z</time></trkpt><trkpt lat="45.919473031759466" lon="12.07688713190385"><ele>276.0</ele><time>2026-04-25T07:40:17.797Z</time></trkpt><trkpt lat="45.91948965994385" lon="12.076988422437399"><ele>278.5</ele><time>2026-04-25T07:40:19.797Z</time></trkpt><trkpt lat="45.91950906396246" lon="12.077106003747593"><ele>281.0</ele><time>2026-04-25T07:40:21.797Z</time></trkpt><trkpt lat="45.91952894074121" lon="12.077198308166498"><ele>283.5</ele><time>2026-04-25T07:40:23.797Z</time></trkpt><trkpt lat="45.919544170108324" lon="12.077289558412025"><ele>286.0</ele><time>2026-04-25T07:40:25.797Z</time></trkpt><trkpt lat="45.9195601159978" lon="12.077379232731321"><ele>288.5</ele><time>2026-04-25T07:40:27.797Z</time></trkpt><trkpt lat="45.9196326975445" lon="12.07747027035411"><ele>291.0</ele><time>2026-04-25T07:40:32.797Z</time></trkpt><trkpt lat="45.91969533834699" lon="12.0775353550814"><ele>291.5</ele><time>2026-04-25T07:40:36.797Z</time></trkpt><trkpt lat="45.91977786162951" lon="12.077569676110878"><ele>292.0</ele><time>2026-04-25T07:40:40.797Z</time></trkpt><trkpt lat="45.91985401144553" lon="12.077606905974157"><ele>292.5</ele><time>2026-04-25T07:40:42.797Z</time></trkpt><trkpt lat="45.91992635162382" lon="12.077632421080198"><ele>293.0</ele><time>2026-04-25T07:40:44.797Z</time></trkpt><trkpt lat="45.92000978180686" lon="12.077644343715063"><ele>293.5</ele><time>2026-04-25T07:40:46.797Z</time></trkpt><trkpt lat="45.92007637759022" lon="12.077696951029754"><ele>294.0</ele><time>2026-04-25T07:40:49.797Z</time></trkpt><trkpt lat="45.92014437914849" lon="12.07771033622816"><ele>292.8333333333333</ele><time>2026-04-25T07:40:52.796Z</time></trkpt><trkpt lat="45.92022221627423" lon="12.077668731532583"><ele>291.6666666666667</ele><time>2026-04-25T07:40:55.796Z</time></trkpt><trkpt lat="45.92028206840051" lon="12.077616624536622"><ele>290.5</ele><time>2026-04-25T07:40:57.796Z</time></trkpt><trkpt lat="45.92035183635282" lon="12.077518164868936"><ele>289.33333333333337</ele><time>2026-04-25T07:40:59.796Z</time></trkpt><trkpt lat="45.92038707361359" lon="12.077412062771248"><ele>288.1666666666667</ele><time>2026-04-25T07:41:02.796Z</time></trkpt><trkpt lat="45.92040391208832" lon="12.077319120543095"><ele>287.0</ele><time>2026-04-25T07:41:05.796Z</time></trkpt><trkpt lat="45.920427405643345" lon="12.077222198728458"><ele>287.0</ele><time>2026-04-25T07:41:08.797Z</time></trkpt><trkpt lat="45.92045228644466" lon="12.077129146538098"><ele>287.0</ele><time>2026-04-25T07:41:11.797Z</time></trkpt><trkpt lat="45.92050932719801" lon="12.077025606740193"><ele>287.0</ele><time>2026-04-25T07:41:14.798Z</time></trkpt><trkpt lat="45.92057764148563" lon="12.076972217884727"><ele>287.0</ele><time>2026-04-25T07:41:16.797Z</time></trkpt><trkpt lat="45.92064652088693" lon="12.076903749111239"><ele>287.0</ele><time>2026-04-25T07:41:19.797Z</time></trkpt><trkpt lat="45.92070661909591" lon="12.076858440457084"><ele>287.0</ele><time>2026-04-25T07:41:21.797Z</time></trkpt><trkpt lat="45.92079460725741" lon="12.07680385077117"><ele>287.0</ele><time>2026-04-25T07:41:24.797Z</time></trkpt><trkpt lat="45.920873992102486" lon="12.076779986901366"><ele>287.0</ele><time>2026-04-25T07:41:27.797Z</time></trkpt><trkpt lat="45.920953972476106" lon="12.07674974348716"><ele>287.0</ele><time>2026-04-25T07:41:29.799Z</time></trkpt><trkpt lat="45.92103602647434" lon="12.076737545522125"><ele>287.0</ele><time>2026-04-25T07:41:31.801Z</time></trkpt><trkpt lat="45.92119542843728" lon="12.07665700852319"><ele>287.0</ele><time>2026-04-25T07:41:39.809Z</time></trkpt><trkpt lat="45.92126950213953" lon="12.076631708000198"><ele>289.0</ele><time>2026-04-25T07:41:42.811Z</time></trkpt><trkpt lat="45.92133558244666" lon="12.07656014941442"><ele>291.0</ele><time>2026-04-25T07:41:45.812Z</time></trkpt><trkpt lat="45.92139242609572" lon="12.076510574896552"><ele>293.0</ele><time>2026-04-25T07:41:48.813Z</time></trkpt><trkpt lat="45.92146606239792" lon="12.07644826069091"><ele>295.0</ele><time>2026-04-25T07:41:51.814Z</time></trkpt><trkpt lat="45.9215209803066" lon="12.076401734972784"><ele>297.0</ele><time>2026-04-25T07:41:54.815Z</time></trkpt><trkpt lat="45.92157910546559" lon="12.076306684903189"><ele>299.0</ele><time>2026-04-25T07:41:57.816Z</time></trkpt><trkpt lat="45.921631339990526" lon="12.076236777979119"><ele>299.0</ele><time>2026-04-25T07:42:00.817Z</time></trkpt><trkpt lat="45.92167166421363" lon="12.076161720974731"><ele>299.0</ele><time>2026-04-25T07:42:02.817Z</time></trkpt><trkpt lat="45.92171844863811" lon="12.076090499350375"><ele>299.0</ele><time>2026-04-25T07:42:05.817Z</time></trkpt><trkpt lat="45.92177337671215" lon="12.076007223268922"><ele>299.0</ele><time>2026-04-25T07:42:08.818Z</time></trkpt><trkpt lat="45.921818311061955" lon="12.075939076189842"><ele>299.0</ele><time>2026-04-25T07:42:11.818Z</time></trkpt><trkpt lat="45.921881878506404" lon="12.075874530118963"><ele>299.0</ele><time>2026-04-25T07:42:14.818Z</time></trkpt><trkpt lat="45.92195369772146" lon="12.075930883980284"><ele>299.0</ele><time>2026-04-25T07:42:16.818Z</time></trkpt><trkpt lat="45.92200867182236" lon="12.076006794140858"><ele>303.33333333333337</ele><time>2026-04-25T07:42:20.818Z</time></trkpt><trkpt lat="45.92206532671861" lon="12.076073640757826"><ele>307.6666666666667</ele><time>2026-04-25T07:42:24.818Z</time></trkpt><trkpt lat="45.922136155514266" lon="12.076105980358722"><ele>312.0</ele><time>2026-04-25T07:42:28.819Z</time></trkpt><trkpt lat="45.92220557066003" lon="12.076141570521663"><ele>316.3333333333333</ele><time>2026-04-25T07:42:32.819Z</time></trkpt><trkpt lat="45.92226541197007" lon="12.07618500028346"><ele>320.66666666666663</ele><time>2026-04-25T07:42:36.819Z</time></trkpt><trkpt lat="45.922331796471035" lon="12.07626922941698"><ele>325.0</ele><time>2026-04-25T07:42:40.819Z</time></trkpt><trkpt lat="45.92240197914245" lon="12.076334823384864"><ele>325.0</ele><time>2026-04-25T07:42:44.819Z</time></trkpt><trkpt lat="45.92245461937385" lon="12.076407723020417"><ele>325.0</ele><time>2026-04-25T07:42:47.819Z</time></trkpt><trkpt lat="45.92251894938388" lon="12.076435310931323"><ele>325.0</ele><time>2026-04-25T07:42:50.819Z</time></trkpt><trkpt lat="45.92257019603547" lon="12.07651921993668"><ele>325.0</ele><time>2026-04-25T07:42:53.818Z</time></trkpt><trkpt lat="45.92261114479136" lon="12.076612937382398"><ele>325.0</ele><time>2026-04-25T07:42:56.818Z</time></trkpt><trkpt lat="45.922650067261415" lon="12.07670545558412"><ele>325.0</ele><time>2026-04-25T07:42:59.818Z</time></trkpt><trkpt lat="45.922697399004235" lon="12.076811923106451"><ele>330.0</ele><time>2026-04-25T07:43:02.818Z</time></trkpt><trkpt lat="45.922760979903785" lon="12.076901234759442"><ele>335.0</ele><time>2026-04-25T07:43:06.818Z</time></trkpt><trkpt lat="45.92281467237297" lon="12.076977604176676"><ele>340.0</ele><time>2026-04-25T07:43:09.818Z</time></trkpt><trkpt lat="45.92287612108196" lon="12.077079342612988"><ele>345.0</ele><time>2026-04-25T07:43:13.818Z</time></trkpt><trkpt lat="45.92291391061407" lon="12.077164887270705"><ele>350.0</ele><time>2026-04-25T07:43:16.819Z</time></trkpt><trkpt lat="45.92295969670827" lon="12.077257755428258"><ele>355.0</ele><time>2026-04-25T07:43:18.819Z</time></trkpt><trkpt lat="45.92298135623244" lon="12.077355600807673"><ele>352.5</ele><time>2026-04-25T07:43:21.819Z</time></trkpt><trkpt lat="45.922996275410696" lon="12.077443521493294"><ele>350.0</ele><time>2026-04-25T07:43:23.819Z</time></trkpt><trkpt lat="45.922982042643554" lon="12.077592768333382"><ele>347.5</ele><time>2026-04-25T07:43:26.819Z</time></trkpt><trkpt lat="45.92298667825421" lon="12.077696137291337"><ele>345.0</ele><time>2026-04-25T07:43:29.819Z</time></trkpt><trkpt lat="45.92299225374132" lon="12.077792189915007"><ele>342.5</ele><time>2026-04-25T07:43:31.819Z</time></trkpt><trkpt lat="45.923031936817" lon="12.077914651298153"><ele>340.0</ele><time>2026-04-25T07:43:34.819Z</time></trkpt><trkpt lat="45.92308227548211" lon="12.077984146457002"><ele>340.0</ele><time>2026-04-25T07:43:37.819Z</time></trkpt><trkpt lat="45.92312509666238" lon="12.078082645373259"><ele>340.0</ele><time>2026-04-25T07:43:40.819Z</time></trkpt><trkpt lat="45.92316842313676" lon="12.07821387700894"><ele>340.0</ele><time>2026-04-25T07:43:43.819Z</time></trkpt><trkpt lat="45.92319051605091" lon="12.078312154975073"><ele>340.0</ele><time>2026-04-25T07:43:46.819Z</time></trkpt><trkpt lat="45.92323920037409" lon="12.078411799717369"><ele>340.0</ele><time>2026-04-25T07:43:49.818Z</time></trkpt><trkpt lat="45.923302450544234" lon="12.078488586632767"><ele>340.0</ele><time>2026-04-25T07:43:52.818Z</time></trkpt><trkpt lat="45.92337375150786" lon="12.078581356793334"><ele>343.8571428571429</ele><time>2026-04-25T07:43:55.818Z</time></trkpt><trkpt lat="45.92342414365815" lon="12.078650525088541"><ele>347.71428571428567</ele><time>2026-04-25T07:43:58.818Z</time></trkpt><trkpt lat="45.92348588959331" lon="12.078717961694762"><ele>351.57142857142856</ele><time>2026-04-25T07:44:00.818Z</time></trkpt><trkpt lat="45.92353368488591" lon="12.078808672969684"><ele>355.42857142857144</ele><time>2026-04-25T07:44:03.818Z</time></trkpt><trkpt lat="45.92358817339422" lon="12.078860229189557"><ele>359.28571428571433</ele><time>2026-04-25T07:44:05.818Z</time></trkpt><trkpt lat="45.92362565044449" lon="12.078943966124568"><ele>363.1428571428571</ele><time>2026-04-25T07:44:07.818Z</time></trkpt><trkpt lat="45.923666770524676" lon="12.079016513167879"><ele>367.0</ele><time>2026-04-25T07:44:09.818Z</time></trkpt><trkpt lat="45.92371776124786" lon="12.079091175962105"><ele>364.3333333333333</ele><time>2026-04-25T07:44:11.818Z</time></trkpt><trkpt lat="45.92376889313207" lon="12.079228277264173"><ele>361.66666666666663</ele><time>2026-04-25T07:44:14.818Z</time></trkpt><trkpt lat="45.923765896440024" lon="12.079355147123115"><ele>359.0</ele><time>2026-04-25T07:44:16.818Z</time></trkpt><trkpt lat="45.923748239582174" lon="12.079480304911096"><ele>356.3333333333333</ele><time>2026-04-25T07:44:18.818Z</time></trkpt><trkpt lat="45.923730710575924" lon="12.079576391981057"><ele>353.6666666666667</ele><time>2026-04-25T07:44:20.818Z</time></trkpt><trkpt lat="45.92371651559048" lon="12.079668412226683"><ele>351.0</ele><time>2026-04-25T07:44:22.818Z</time></trkpt><trkpt lat="45.923764789677186" lon="12.079792955332946"><ele>351.0</ele><time>2026-04-25T07:44:24.818Z</time></trkpt><trkpt lat="45.92383837248949" lon="12.079880576281418"><ele>351.0</ele><time>2026-04-25T07:44:26.818Z</time></trkpt><trkpt lat="45.92392158451024" lon="12.079936147810697"><ele>351.0</ele><time>2026-04-25T07:44:29.818Z</time></trkpt><trkpt lat="45.923984354456856" lon="12.079959413415956"><ele>351.0</ele><time>2026-04-25T07:44:32.818Z</time></trkpt><trkpt lat="45.92404845976517" lon="12.079970668510676"><ele>351.0</ele><time>2026-04-25T07:44:36.818Z</time></trkpt><trkpt lat="45.924117213997576" lon="12.079973975322265"><ele>351.0</ele><time>2026-04-25T07:44:41.818Z</time></trkpt><trkpt lat="45.924231398522366" lon="12.079972634605985"><ele>353.5</ele><time>2026-04-25T07:44:49.817Z</time></trkpt><trkpt lat="45.924324923674114" lon="12.079984425142278"><ele>356.0</ele><time>2026-04-25T07:44:56.817Z</time></trkpt><trkpt lat="45.92440786300976" lon="12.079958588531461"><ele>358.5</ele><time>2026-04-25T07:45:02.817Z</time></trkpt><trkpt lat="45.924483842210314" lon="12.079966420556913"><ele>361.0</ele><time>2026-04-25T07:45:07.817Z</time></trkpt><trkpt lat="45.92455157905941" lon="12.07994336254085"><ele>363.5</ele><time>2026-04-25T07:45:12.817Z</time></trkpt><trkpt lat="45.92461125731288" lon="12.079896095539722"><ele>366.0</ele><time>2026-04-25T07:45:16.817Z</time></trkpt><trkpt lat="45.92468380264195" lon="12.079865631764822"><ele>366.0</ele><time>2026-04-25T07:45:21.818Z</time></trkpt><trkpt lat="45.92474656097812" lon="12.079895567266954"><ele>366.0</ele><time>2026-04-25T07:45:25.817Z</time></trkpt><trkpt lat="45.924804893201895" lon="12.079965381332913"><ele>366.0</ele><time>2026-04-25T07:45:30.817Z</time></trkpt><trkpt lat="45.924854229381154" lon="12.080022597867876"><ele>366.0</ele><time>2026-04-25T07:45:34.818Z</time></trkpt><trkpt lat="45.92490734823785" lon="12.08007239587213"><ele>366.0</ele><time>2026-04-25T07:45:38.818Z</time></trkpt><trkpt lat="45.92496918336356" lon="12.08014280792187"><ele>366.0</ele><time>2026-04-25T07:45:41.818Z</time></trkpt><trkpt lat="45.925015590756416" lon="12.080205872936666"><ele>366.0</ele><time>2026-04-25T07:45:44.818Z</time></trkpt><trkpt lat="45.92508007700161" lon="12.080268374258296"><ele>368.0</ele><time>2026-04-25T07:45:47.818Z</time></trkpt><trkpt lat="45.92512600263868" lon="12.080331699665791"><ele>370.0</ele><time>2026-04-25T07:45:50.818Z</time></trkpt><trkpt lat="45.92519389017657" lon="12.08040796667716"><ele>372.0</ele><time>2026-04-25T07:45:53.818Z</time></trkpt><trkpt lat="45.92524847638093" lon="12.080481049516383"><ele>374.0</ele><time>2026-04-25T07:45:56.818Z</time></trkpt><trkpt lat="45.92530968686419" lon="12.080574868370476"><ele>376.0</ele><time>2026-04-25T07:45:59.818Z</time></trkpt><trkpt lat="45.925394254334456" lon="12.080675311844693"><ele>378.0</ele><time>2026-04-25T07:46:02.818Z</time></trkpt><trkpt lat="45.92542126314201" lon="12.08076899609123"><ele>378.0</ele><time>2026-04-25T07:46:05.817Z</time></trkpt><trkpt lat="45.9255007198161" lon="12.080794770113604"><ele>378.0</ele><time>2026-04-25T07:46:07.817Z</time></trkpt><trkpt lat="45.925540184367954" lon="12.080909011165575"><ele>378.0</ele><time>2026-04-25T07:46:10.817Z</time></trkpt><trkpt lat="45.92559681143255" lon="12.080960112290263"><ele>378.0</ele><time>2026-04-25T07:46:12.817Z</time></trkpt><trkpt lat="45.92566288753243" lon="12.081005045320842"><ele>378.0</ele><time>2026-04-25T07:46:14.817Z</time></trkpt><trkpt lat="45.92571709905436" lon="12.081072531946155"><ele>378.0</ele><time>2026-04-25T07:46:16.817Z</time></trkpt><trkpt lat="45.92576745049175" lon="12.08116424862025"><ele>378.0</ele><time>2026-04-25T07:46:18.817Z</time></trkpt><trkpt lat="45.92582587221701" lon="12.081241897657382"><ele>378.0</ele><time>2026-04-25T07:46:20.817Z</time></trkpt><trkpt lat="45.92595278651972" lon="12.081391587820441"><ele>378.0</ele><time>2026-04-25T07:46:23.817Z</time></trkpt><trkpt lat="45.926060075324884" lon="12.081536344514346"><ele>378.0</ele><time>2026-04-25T07:46:24.817Z</time></trkpt><trkpt lat="45.92616626048365" lon="12.081672487006921"><ele>380.66666666666663</ele><time>2026-04-25T07:46:25.817Z</time></trkpt><trkpt lat="45.92628315620855" lon="12.081875968931598"><ele>383.3333333333333</ele><time>2026-04-25T07:46:26.817Z</time></trkpt><trkpt lat="45.926363951726984" lon="12.08204826212871"><ele>386.0</ele><time>2026-04-25T07:46:27.817Z</time></trkpt><trkpt lat="45.92643844968275" lon="12.082236492363487"><ele>386.0</ele><time>2026-04-25T07:46:28.817Z</time></trkpt><trkpt lat="45.92651089426617" lon="12.082418201849299"><ele>386.0</ele><time>2026-04-25T07:46:29.817Z</time></trkpt><trkpt lat="45.92659749293666" lon="12.082581687319907"><ele>386.0</ele><time>2026-04-25T07:46:30.817Z</time></trkpt><trkpt lat="45.926684197253145" lon="12.082760143353774"><ele>386.0</ele><time>2026-04-25T07:46:31.817Z</time></trkpt><trkpt lat="45.92675433503386" lon="12.082937767378743"><ele>390.0</ele><time>2026-04-25T07:46:32.817Z</time></trkpt><trkpt lat="45.926852121054296" lon="12.083153200788628"><ele>394.0</ele><time>2026-04-25T07:46:33.817Z</time></trkpt><trkpt lat="45.92694983698585" lon="12.083356882307822"><ele>398.0</ele><time>2026-04-25T07:46:34.817Z</time></trkpt><trkpt lat="45.927063552652385" lon="12.083577807668023"><ele>389.0</ele><time>2026-04-25T07:46:35.817Z</time></trkpt><trkpt lat="45.927169212550744" lon="12.08380352136497"><ele>380.0</ele><time>2026-04-25T07:46:36.817Z</time></trkpt><trkpt lat="45.92725904066002" lon="12.083999406432836"><ele>371.0</ele><time>2026-04-25T07:46:37.817Z</time></trkpt><trkpt lat="45.927374938217945" lon="12.084220712414762"><ele>364.33333333333337</ele><time>2026-04-25T07:46:38.817Z</time></trkpt><trkpt lat="45.92747431206786" lon="12.084432589187164"><ele>357.6666666666667</ele><time>2026-04-25T07:46:39.817Z</time></trkpt><trkpt lat="45.927550280987965" lon="12.08460392712282"><ele>351.0</ele><time>2026-04-25T07:46:40.817Z</time></trkpt><trkpt lat="45.92762466532003" lon="12.084770805728958"><ele>354.25</ele><time>2026-04-25T07:46:41.817Z</time></trkpt><trkpt lat="45.927702569614226" lon="12.084907301144709"><ele>357.5</ele><time>2026-04-25T07:46:42.817Z</time></trkpt><trkpt lat="45.927782883829266" lon="12.085027790579998"><ele>360.75</ele><time>2026-04-25T07:46:43.817Z</time></trkpt><trkpt lat="45.92785310864045" lon="12.085151329647715"><ele>364.0</ele><time>2026-04-25T07:46:44.817Z</time></trkpt><trkpt lat="45.92792424793242" lon="12.085273338496599"><ele>364.0</ele><time>2026-04-25T07:46:45.817Z</time></trkpt><trkpt lat="45.92798988882353" lon="12.085387992751876"><ele>364.0</ele><time>2026-04-25T07:46:46.817Z</time></trkpt><trkpt lat="45.928058916171935" lon="12.085502553479458"><ele>364.0</ele><time>2026-04-25T07:46:47.817Z</time></trkpt><trkpt lat="45.928117633127926" lon="12.085622388078486"><ele>364.0</ele><time>2026-04-25T07:46:48.817Z</time></trkpt><trkpt lat="45.92817420608141" lon="12.085745403068126"><ele>364.0</ele><time>2026-04-25T07:46:49.817Z</time></trkpt><trkpt lat="45.928219585736095" lon="12.085856226121537"><ele>367.0</ele><time>2026-04-25T07:46:50.817Z</time></trkpt><trkpt lat="45.928258417130166" lon="12.085947817000026"><ele>370.0</ele><time>2026-04-25T07:46:51.817Z</time></trkpt><trkpt lat="45.92828815896817" lon="12.086033741249825"><ele>373.0</ele><time>2026-04-25T07:46:52.817Z</time></trkpt><trkpt lat="45.92832084834203" lon="12.086132586719195"><ele>376.0</ele><time>2026-04-25T07:46:53.817Z</time></trkpt><trkpt lat="45.928360884390855" lon="12.086244520379935"><ele>379.0</ele><time>2026-04-25T07:46:54.817Z</time></trkpt><trkpt lat="45.928397781034974" lon="12.086351034081268"><ele>382.0</ele><time>2026-04-25T07:46:55.817Z</time></trkpt><trkpt lat="45.928422585983576" lon="12.08647234348442"><ele>382.0</ele><time>2026-04-25T07:46:56.817Z</time></trkpt><trkpt lat="45.92843020078059" lon="12.086590403265106"><ele>382.0</ele><time>2026-04-25T07:46:57.817Z</time></trkpt><trkpt lat="45.92842328866958" lon="12.086727361311803"><ele>382.0</ele><time>2026-04-25T07:46:58.817Z</time></trkpt><trkpt lat="45.92839470366667" lon="12.086865562314197"><ele>382.0</ele><time>2026-04-25T07:46:59.817Z</time></trkpt><trkpt lat="45.92835422296447" lon="12.087015959433359"><ele>382.0</ele><time>2026-04-25T07:47:00.817Z</time></trkpt><trkpt lat="45.92830948495478" lon="12.087167004803025"><ele>371.40000000000003</ele><time>2026-04-25T07:47:01.817Z</time></trkpt><trkpt lat="45.9282712746397" lon="12.08732098875931"><ele>360.8</ele><time>2026-04-25T07:47:02.816Z</time></trkpt><trkpt lat="45.928242805984645" lon="12.087449514129414"><ele>350.2</ele><time>2026-04-25T07:47:03.816Z</time></trkpt><trkpt lat="45.92823073756836" lon="12.087565573377375"><ele>339.6</ele><time>2026-04-25T07:47:04.816Z</time></trkpt><trkpt lat="45.92822886079709" lon="12.08768316966518"><ele>329.0</ele><time>2026-04-25T07:47:05.816Z</time></trkpt><trkpt lat="45.92825538892719" lon="12.087809106013886"><ele>327.2</ele><time>2026-04-25T07:47:06.816Z</time></trkpt><trkpt lat="45.92830506351788" lon="12.087932625421095"><ele>325.4</ele><time>2026-04-25T07:47:07.816Z</time></trkpt><trkpt lat="45.928370292345406" lon="12.08804998655202"><ele>323.6</ele><time>2026-04-25T07:47:08.816Z</time></trkpt><trkpt lat="45.92843353914189" lon="12.088161042959534"><ele>321.8</ele><time>2026-04-25T07:47:09.816Z</time></trkpt><trkpt lat="45.92848841534824" lon="12.088258306602444"><ele>320.0</ele><time>2026-04-25T07:47:10.816Z</time></trkpt><trkpt lat="45.928537344183404" lon="12.08834105053276"><ele>319.4</ele><time>2026-04-25T07:47:11.816Z</time></trkpt><trkpt lat="45.928601375076894" lon="12.088395585907005"><ele>318.8</ele><time>2026-04-25T07:47:12.816Z</time></trkpt><trkpt lat="45.92868242758734" lon="12.08842575009809"><ele>318.2</ele><time>2026-04-25T07:47:13.816Z</time></trkpt><trkpt lat="45.92877865326394" lon="12.088439035583585"><ele>317.6</ele><time>2026-04-25T07:47:14.816Z</time></trkpt><trkpt lat="45.92888034663491" lon="12.088459596721663"><ele>317.0</ele><time>2026-04-25T07:47:15.816Z</time></trkpt><trkpt lat="45.92897320271209" lon="12.088481388114012"><ele>317.0</ele><time>2026-04-25T07:47:16.816Z</time></trkpt><trkpt lat="45.92905790073496" lon="12.088518982979268"><ele>317.0</ele><time>2026-04-25T07:47:17.816Z</time></trkpt><trkpt lat="45.92913565839907" lon="12.08859775766756"><ele>317.0</ele><time>2026-04-25T07:47:18.816Z</time></trkpt><trkpt lat="45.92919721440955" lon="12.088703674081025"><ele>317.0</ele><time>2026-04-25T07:47:19.816Z</time></trkpt><trkpt lat="45.9292516747733" lon="12.08880818766525"><ele>317.0</ele><time>2026-04-25T07:47:20.816Z</time></trkpt><trkpt lat="45.929280733466186" lon="12.088928805005523"><ele>317.0</ele><time>2026-04-25T07:47:21.816Z</time></trkpt><trkpt lat="45.92929041148739" lon="12.089051538779152"><ele>317.0</ele><time>2026-04-25T07:47:22.816Z</time></trkpt><trkpt lat="45.929298411871045" lon="12.089172531209439"><ele>317.0</ele><time>2026-04-25T07:47:23.816Z</time></trkpt><trkpt lat="45.929337933460694" lon="12.089267846971513"><ele>317.0</ele><time>2026-04-25T07:47:24.816Z</time></trkpt><trkpt lat="45.929408175789156" lon="12.089342145317213"><ele>317.0</ele><time>2026-04-25T07:47:25.816Z</time></trkpt><trkpt lat="45.92949001008605" lon="12.08939767708047"><ele>317.0</ele><time>2026-04-25T07:47:26.816Z</time></trkpt><trkpt lat="45.929566935061374" lon="12.089464489635592"><ele>317.0</ele><time>2026-04-25T07:47:27.816Z</time></trkpt><trkpt lat="45.92962815683489" lon="12.089557909434765"><ele>317.0</ele><time>2026-04-25T07:47:28.816Z</time></trkpt><trkpt lat="45.92968670119803" lon="12.089653680660806"><ele>317.0</ele><time>2026-04-25T07:47:29.816Z</time></trkpt><trkpt lat="45.92974062904095" lon="12.089758775442256"><ele>317.0</ele><time>2026-04-25T07:47:30.816Z</time></trkpt><trkpt lat="45.92979054981118" lon="12.089870056165898"><ele>317.0</ele><time>2026-04-25T07:47:31.816Z</time></trkpt><trkpt lat="45.92984923342856" lon="12.089980885230123"><ele>314.0</ele><time>2026-04-25T07:47:32.816Z</time></trkpt><trkpt lat="45.92990908080223" lon="12.090093694557044"><ele>311.0</ele><time>2026-04-25T07:47:33.817Z</time></trkpt><trkpt lat="45.92997509556339" lon="12.090227346074455"><ele>308.0</ele><time>2026-04-25T07:47:34.817Z</time></trkpt><trkpt lat="45.930063366472524" lon="12.09035175272249"><ele>305.0</ele><time>2026-04-25T07:47:35.816Z</time></trkpt><trkpt lat="45.93016510396726" lon="12.090452774748425"><ele>305.0</ele><time>2026-04-25T07:47:36.817Z</time></trkpt><trkpt lat="45.9302786072923" lon="12.090522925771802"><ele>305.0</ele><time>2026-04-25T07:47:37.817Z</time></trkpt><trkpt lat="45.930391434773775" lon="12.090573495563637"><ele>305.0</ele><time>2026-04-25T07:47:38.817Z</time></trkpt><trkpt lat="45.93050434095905" lon="12.090596221339393"><ele>305.0</ele><time>2026-04-25T07:47:39.817Z</time></trkpt><trkpt lat="45.930611759560165" lon="12.090595819585024"><ele>305.0</ele><time>2026-04-25T07:47:40.817Z</time></trkpt><trkpt lat="45.93071108229987" lon="12.090587910119847"><ele>305.0</ele><time>2026-04-25T07:47:41.817Z</time></trkpt><trkpt lat="45.93078948542591" lon="12.090608780230466"><ele>305.0</ele><time>2026-04-25T07:47:42.817Z</time></trkpt><trkpt lat="45.93086644776999" lon="12.090675491345218"><ele>305.0</ele><time>2026-04-25T07:47:43.817Z</time></trkpt><trkpt lat="45.93094186963319" lon="12.09076479154918"><ele>305.0</ele><time>2026-04-25T07:47:44.817Z</time></trkpt><trkpt lat="45.931024099989166" lon="12.090863497910428"><ele>305.0</ele><time>2026-04-25T07:47:45.817Z</time></trkpt><trkpt lat="45.93110530354917" lon="12.09096151793534"><ele>305.0</ele><time>2026-04-25T07:47:46.817Z</time></trkpt><trkpt lat="45.93119225825084" lon="12.091065650041598"><ele>305.0</ele><time>2026-04-25T07:47:47.817Z</time></trkpt><trkpt lat="45.931280201397506" lon="12.091184275158684"><ele>305.0</ele><time>2026-04-25T07:47:48.817Z</time></trkpt><trkpt lat="45.931370166514" lon="12.09131184486106"><ele>305.0</ele><time>2026-04-25T07:47:49.817Z</time></trkpt><trkpt lat="45.93146516265639" lon="12.091440525889546"><ele>305.0</ele><time>2026-04-25T07:47:50.817Z</time></trkpt><trkpt lat="45.93156469558039" lon="12.091563523794374"><ele>305.0</ele><time>2026-04-25T07:47:51.817Z</time></trkpt><trkpt lat="45.93166866914448" lon="12.091680046469099"><ele>305.0</ele><time>2026-04-25T07:47:52.817Z</time></trkpt><trkpt lat="45.931773906080636" lon="12.091807771722532"><ele>305.25</ele><time>2026-04-25T07:47:53.817Z</time></trkpt><trkpt lat="45.931881234903216" lon="12.091930180866429"><ele>305.5</ele><time>2026-04-25T07:47:54.816Z</time></trkpt><trkpt lat="45.931992964243726" lon="12.092055213749209"><ele>305.75</ele><time>2026-04-25T07:47:55.816Z</time></trkpt><trkpt lat="45.93210540624741" lon="12.092172423829654"><ele>306.0</ele><time>2026-04-25T07:47:56.816Z</time></trkpt><trkpt lat="45.932209600539714" lon="12.092285837516021"><ele>306.0</ele><time>2026-04-25T07:47:57.816Z</time></trkpt><trkpt lat="45.93231324482077" lon="12.092411676043486"><ele>306.0</ele><time>2026-04-25T07:47:58.816Z</time></trkpt><trkpt lat="45.932416501529175" lon="12.092530977177521"><ele>306.0</ele><time>2026-04-25T07:47:59.816Z</time></trkpt><trkpt lat="45.93251794218851" lon="12.092652864560469"><ele>306.0</ele><time>2026-04-25T07:48:00.816Z</time></trkpt><trkpt lat="45.93261379702857" lon="12.092772642491722"><ele>306.8</ele><time>2026-04-25T07:48:01.816Z</time></trkpt><trkpt lat="45.93270062724295" lon="12.092883500182051"><ele>307.6</ele><time>2026-04-25T07:48:02.816Z</time></trkpt><trkpt lat="45.93278554459629" lon="12.09298069858887"><ele>308.4</ele><time>2026-04-25T07:48:03.816Z</time></trkpt><trkpt lat="45.9328682281247" lon="12.093080813942638"><ele>309.2</ele><time>2026-04-25T07:48:04.816Z</time></trkpt><trkpt lat="45.93295023961101" lon="12.093174705673805"><ele>310.0</ele><time>2026-04-25T07:48:05.816Z</time></trkpt><trkpt lat="45.93302784269088" lon="12.093257981840665"><ele>311.8333333333333</ele><time>2026-04-25T07:48:06.816Z</time></trkpt><trkpt lat="45.933100470930235" lon="12.09334025530468"><ele>313.66666666666663</ele><time>2026-04-25T07:48:07.816Z</time></trkpt><trkpt lat="45.93316975647204" lon="12.093419603020498"><ele>315.5</ele><time>2026-04-25T07:48:08.816Z</time></trkpt><trkpt lat="45.9332349885432" lon="12.093495026443186"><ele>317.3333333333333</ele><time>2026-04-25T07:48:09.816Z</time></trkpt><trkpt lat="45.93329388836636" lon="12.093561943210705"><ele>319.1666666666667</ele><time>2026-04-25T07:48:10.816Z</time></trkpt><trkpt lat="45.93335602296852" lon="12.093618452254143"><ele>321.0</ele><time>2026-04-25T07:48:11.816Z</time></trkpt><trkpt lat="45.93342358407339" lon="12.09367385529759"><ele>321.0</ele><time>2026-04-25T07:48:12.816Z</time></trkpt><trkpt lat="45.933486413451746" lon="12.093738765092485"><ele>321.0</ele><time>2026-04-25T07:48:13.816Z</time></trkpt><trkpt lat="45.93355545043738" lon="12.093800770438175"><ele>321.0</ele><time>2026-04-25T07:48:14.816Z</time></trkpt><trkpt lat="45.933615676025475" lon="12.093872678594824"><ele>321.0</ele><time>2026-04-25T07:48:15.816Z</time></trkpt><trkpt lat="45.933673694384616" lon="12.093958033991576"><ele>321.0</ele><time>2026-04-25T07:48:16.816Z</time></trkpt><trkpt lat="45.933734185456416" lon="12.094050101924779"><ele>321.0</ele><time>2026-04-25T07:48:17.816Z</time></trkpt><trkpt lat="45.93378047170889" lon="12.094155131730844"><ele>315.6</ele><time>2026-04-25T07:48:18.816Z</time></trkpt><trkpt lat="45.93383000499399" lon="12.09425292752257"><ele>310.20000000000005</ele><time>2026-04-25T07:48:19.816Z</time></trkpt><trkpt lat="45.933874200073596" lon="12.094361452793613"><ele>304.79999999999995</ele><time>2026-04-25T07:48:20.816Z</time></trkpt><trkpt lat="45.93392099424742" lon="12.094472074819148"><ele>299.4</ele><time>2026-04-25T07:48:21.816Z</time></trkpt><trkpt lat="45.93397044242191" lon="12.094586575972587"><ele>294.0</ele><time>2026-04-25T07:48:22.816Z</time></trkpt><trkpt lat="45.93402482702562" lon="12.094717567449258"><ele>294.0</ele><time>2026-04-25T07:48:23.816Z</time></trkpt><trkpt lat="45.93408414189466" lon="12.09484510635155"><ele>294.0</ele><time>2026-04-25T07:48:24.816Z</time></trkpt><trkpt lat="45.934144198079764" lon="12.094980280890939"><ele>294.0</ele><time>2026-04-25T07:48:25.816Z</time></trkpt><trkpt lat="45.934202223387665" lon="12.095109623429652"><ele>294.0</ele><time>2026-04-25T07:48:26.816Z</time></trkpt><trkpt lat="45.934273094963366" lon="12.095257526817043"><ele>295.2</ele><time>2026-04-25T07:48:27.816Z</time></trkpt><trkpt lat="45.93434324647661" lon="12.09539375933731"><ele>296.4</ele><time>2026-04-25T07:48:28.816Z</time></trkpt><trkpt lat="45.93440877302415" lon="12.095531371779431"><ele>297.6</ele><time>2026-04-25T07:48:29.816Z</time></trkpt><trkpt lat="45.93446184948361" lon="12.095637765110306"><ele>298.8</ele><time>2026-04-25T07:48:30.816Z</time></trkpt><trkpt lat="45.934512113475634" lon="12.09574048944789"><ele>300.0</ele><time>2026-04-25T07:48:31.816Z</time></trkpt><trkpt lat="45.934553261496475" lon="12.095841177240294"><ele>295.1666666666667</ele><time>2026-04-25T07:48:32.816Z</time></trkpt><trkpt lat="45.93457623192988" lon="12.095948399541905"><ele>290.3333333333333</ele><time>2026-04-25T07:48:33.816Z</time></trkpt><trkpt lat="45.93458598224122" lon="12.096068426600665"><ele>285.5</ele><time>2026-04-25T07:48:34.816Z</time></trkpt><trkpt lat="45.934578678043856" lon="12.096186203497696"><ele>280.66666666666663</ele><time>2026-04-25T07:48:35.816Z</time></trkpt><trkpt lat="45.93458187448754" lon="12.096279540588691"><ele>275.8333333333333</ele><time>2026-04-25T07:48:36.816Z</time></trkpt><trkpt lat="45.934624283358175" lon="12.096442735327507"><ele>271.0</ele><time>2026-04-25T07:48:38.816Z</time></trkpt><trkpt lat="45.93470232448509" lon="12.096506168930588"><ele>271.0</ele><time>2026-04-25T07:48:39.816Z</time></trkpt><trkpt lat="45.93478876894569" lon="12.0965578671194"><ele>271.0</ele><time>2026-04-25T07:48:40.816Z</time></trkpt><trkpt lat="45.934877271371626" lon="12.09661786559547"><ele>271.0</ele><time>2026-04-25T07:48:41.816Z</time></trkpt><trkpt lat="45.93497332673945" lon="12.096685615009617"><ele>271.0</ele><time>2026-04-25T07:48:42.816Z</time></trkpt><trkpt lat="45.935080286073976" lon="12.096749470172279"><ele>271.0</ele><time>2026-04-25T07:48:43.816Z</time></trkpt><trkpt lat="45.93518328929999" lon="12.096812766526439"><ele>264.2</ele><time>2026-04-25T07:48:44.816Z</time></trkpt><trkpt lat="45.935290525667035" lon="12.096876261904486"><ele>257.40000000000003</ele><time>2026-04-25T07:48:45.816Z</time></trkpt><trkpt lat="45.93538897628495" lon="12.096945948272207"><ele>250.6</ele><time>2026-04-25T07:48:46.816Z</time></trkpt><trkpt lat="45.93548958047212" lon="12.096988559099458"><ele>243.8</ele><time>2026-04-25T07:48:47.816Z</time></trkpt><trkpt lat="45.93558730887012" lon="12.09702531330966"><ele>237.0</ele><time>2026-04-25T07:48:48.816Z</time></trkpt><trkpt lat="45.9356790972514" lon="12.097025331571192"><ele>237.0</ele><time>2026-04-25T07:48:49.816Z</time></trkpt><trkpt lat="45.93576711104364" lon="12.097023212223068"><ele>237.0</ele><time>2026-04-25T07:48:50.816Z</time></trkpt><trkpt lat="45.93584048144275" lon="12.097049867762424"><ele>237.0</ele><time>2026-04-25T07:48:51.815Z</time></trkpt><trkpt lat="45.93590159574804" lon="12.097092691320585"><ele>237.0</ele><time>2026-04-25T07:48:52.815Z</time></trkpt><trkpt lat="45.935958106507435" lon="12.097136503575125"><ele>237.0</ele><time>2026-04-25T07:48:53.815Z</time></trkpt><trkpt lat="45.9360429643141" lon="12.097153520560642"><ele>237.0</ele><time>2026-04-25T07:48:55.815Z</time></trkpt><trkpt lat="45.93615389132342" lon="12.09710963820364"><ele>236.8</ele><time>2026-04-25T07:48:57.815Z</time></trkpt><trkpt lat="45.936210214460274" lon="12.097061747262854"><ele>236.6</ele><time>2026-04-25T07:48:58.815Z</time></trkpt><trkpt lat="45.93631488102244" lon="12.09698054672226"><ele>236.40000000000003</ele><time>2026-04-25T07:49:00.815Z</time></trkpt><trkpt lat="45.93641872323449" lon="12.096929836254052"><ele>236.20000000000002</ele><time>2026-04-25T07:49:02.815Z</time></trkpt><trkpt lat="45.936521616476355" lon="12.096880676357848"><ele>236.0</ele><time>2026-04-25T07:49:04.815Z</time></trkpt><trkpt lat="45.93664088851528" lon="12.096846553882255"><ele>235.75</ele><time>2026-04-25T07:49:06.815Z</time></trkpt><trkpt lat="45.93674719362074" lon="12.0967712443942"><ele>235.5</ele><time>2026-04-25T07:49:08.815Z</time></trkpt><trkpt lat="45.93684833730843" lon="12.096680356042327"><ele>235.25</ele><time>2026-04-25T07:49:10.815Z</time></trkpt><trkpt lat="45.93695398519221" lon="12.096572177369755"><ele>235.0</ele><time>2026-04-25T07:49:12.815Z</time></trkpt><trkpt lat="45.937031445205875" lon="12.096466508426365"><ele>234.99999999999997</ele><time>2026-04-25T07:49:14.815Z</time></trkpt><trkpt lat="45.9371067399782" lon="12.096358360848566"><ele>235.0</ele><time>2026-04-25T07:49:16.815Z</time></trkpt><trkpt lat="45.93715796766472" lon="12.096256716116583"><ele>235.0</ele><time>2026-04-25T07:49:18.815Z</time></trkpt><trkpt lat="45.93720530709921" lon="12.09618783381229"><ele>235.0</ele><time>2026-04-25T07:49:20.815Z</time></trkpt><trkpt lat="45.9372135964126" lon="12.09629592987434"><ele>234.99999999999997</ele><time>2026-04-25T07:49:24.815Z</time></trkpt><trkpt lat="45.93718433502437" lon="12.096398029228546"><ele>235.0</ele><time>2026-04-25T07:49:26.815Z</time></trkpt><trkpt lat="45.937146036558836" lon="12.096500958690383"><ele>236.0</ele><time>2026-04-25T07:49:28.815Z</time></trkpt><trkpt lat="45.93711324906741" lon="12.096593019882635"><ele>236.99999999999997</ele><time>2026-04-25T07:49:30.815Z</time></trkpt><trkpt lat="45.93709255546613" lon="12.096700256615433"><ele>238.0</ele><time>2026-04-25T07:49:32.814Z</time></trkpt><trkpt lat="45.937063252087576" lon="12.096788079278575"><ele>239.0</ele><time>2026-04-25T07:49:34.815Z</time></trkpt><trkpt lat="45.93702416412145" lon="12.096870810411883"><ele>239.99999999999997</ele><time>2026-04-25T07:49:36.815Z</time></trkpt><trkpt lat="45.93697304325147" lon="12.096980247207075"><ele>241.0</ele><time>2026-04-25T07:49:39.815Z</time></trkpt><trkpt lat="45.93692494424597" lon="12.097043362588447"><ele>242.0</ele><time>2026-04-25T07:49:41.815Z</time></trkpt><trkpt lat="45.93685656088739" lon="12.09712164350123"><ele>242.0</ele><time>2026-04-25T07:49:44.815Z</time></trkpt><trkpt lat="45.93678629293361" lon="12.097171521527162"><ele>241.99999999999997</ele><time>2026-04-25T07:49:47.814Z</time></trkpt><trkpt lat="45.93671643543353" lon="12.097201112089612"><ele>242.0</ele><time>2026-04-25T07:49:50.814Z</time></trkpt><trkpt lat="45.936649356687305" lon="12.09724996211866"><ele>242.0</ele><time>2026-04-25T07:49:53.814Z</time></trkpt><trkpt lat="45.93661737776308" lon="12.097331297296641"><ele>241.99999999999997</ele><time>2026-04-25T07:49:57.814Z</time></trkpt><trkpt lat="45.93656265519273" lon="12.09741172074127"><ele>242.0</ele><time>2026-04-25T07:50:02.814Z</time></trkpt><trkpt lat="45.936490490876395" lon="12.097447067116446"><ele>242.0</ele><time>2026-04-25T07:50:06.814Z</time></trkpt><trkpt lat="45.93643527590374" lon="12.097521039434566"><ele>243.14285714285714</ele><time>2026-04-25T07:50:09.814Z</time></trkpt><trkpt lat="45.93638171997144" lon="12.097578254970106"><ele>244.28571428571428</ele><time>2026-04-25T07:50:12.814Z</time></trkpt><trkpt lat="45.93632240648779" lon="12.097639089809116"><ele>245.42857142857142</ele><time>2026-04-25T07:50:16.814Z</time></trkpt><trkpt lat="45.93627749166003" lon="12.09770638264294"><ele>246.57142857142856</ele><time>2026-04-25T07:50:19.814Z</time></trkpt><trkpt lat="45.93622518855546" lon="12.097772220451448"><ele>247.71428571428572</ele><time>2026-04-25T07:50:23.814Z</time></trkpt><trkpt lat="45.936197514704304" lon="12.097855405514322"><ele>248.85714285714283</ele><time>2026-04-25T07:50:27.814Z</time></trkpt><trkpt lat="45.9361925536509" lon="12.097953902922761"><ele>250.0</ele><time>2026-04-25T07:50:30.813Z</time></trkpt><trkpt lat="45.93618827039854" lon="12.098064013003201"><ele>250.0</ele><time>2026-04-25T07:50:34.813Z</time></trkpt><trkpt lat="45.93619041069431" lon="12.09818601613374"><ele>250.0</ele><time>2026-04-25T07:50:38.813Z</time></trkpt><trkpt lat="45.936159187248144" lon="12.0982765882748"><ele>250.0</ele><time>2026-04-25T07:50:41.813Z</time></trkpt><trkpt lat="45.93614094608389" lon="12.098379980029453"><ele>250.0</ele><time>2026-04-25T07:50:45.813Z</time></trkpt><trkpt lat="45.9361357514639" lon="12.09847045288776"><ele>250.0</ele><time>2026-04-25T07:50:47.813Z</time></trkpt><trkpt lat="45.93613974995846" lon="12.098566600217444"><ele>250.0</ele><time>2026-04-25T07:50:50.813Z</time></trkpt><trkpt lat="45.93614068832135" lon="12.098664530619265"><ele>250.0</ele><time>2026-04-25T07:50:53.813Z</time></trkpt><trkpt lat="45.936136168535626" lon="12.098786400264881"><ele>254.42857142857142</ele><time>2026-04-25T07:50:57.813Z</time></trkpt><trkpt lat="45.936139403492376" lon="12.0988804963159"><ele>258.8571428571429</ele><time>2026-04-25T07:51:00.813Z</time></trkpt><trkpt lat="45.93616571906173" lon="12.098965856504536"><ele>263.28571428571433</ele><time>2026-04-25T07:51:03.813Z</time></trkpt><trkpt lat="45.936206814683125" lon="12.099039908606622"><ele>267.7142857142857</ele><time>2026-04-25T07:51:06.813Z</time></trkpt><trkpt lat="45.93623217429089" lon="12.099131518691218"><ele>272.14285714285717</ele><time>2026-04-25T07:51:10.813Z</time></trkpt><trkpt lat="45.936272655317346" lon="12.099230655911"><ele>276.5714285714286</ele><time>2026-04-25T07:51:14.813Z</time></trkpt><trkpt lat="45.93630734336313" lon="12.099316484144044"><ele>281.0</ele><time>2026-04-25T07:51:17.813Z</time></trkpt><trkpt lat="45.93634909312669" lon="12.099430104091518"><ele>281.0</ele><time>2026-04-25T07:51:21.813Z</time></trkpt><trkpt lat="45.93638633434173" lon="12.099520288235706"><ele>281.0</ele><time>2026-04-25T07:51:24.813Z</time></trkpt><trkpt lat="45.93642283247199" lon="12.099627390194325"><ele>281.0</ele><time>2026-04-25T07:51:28.812Z</time></trkpt><trkpt lat="45.936463455315504" lon="12.099747367816574"><ele>281.0</ele><time>2026-04-25T07:51:32.812Z</time></trkpt><trkpt lat="45.936495930214306" lon="12.099864374133341"><ele>281.0</ele><time>2026-04-25T07:51:36.812Z</time></trkpt><trkpt lat="45.936539341379614" lon="12.099983991324697"><ele>281.0</ele><time>2026-04-25T07:51:39.813Z</time></trkpt><trkpt lat="45.936553680077004" lon="12.100090079158491"><ele>281.0</ele><time>2026-04-25T07:51:42.814Z</time></trkpt><trkpt lat="45.936580479248704" lon="12.100197716560475"><ele>281.0</ele><time>2026-04-25T07:51:45.814Z</time></trkpt><trkpt lat="45.9366114826813" lon="12.100301695320354"><ele>281.0</ele><time>2026-04-25T07:51:48.814Z</time></trkpt><trkpt lat="45.93666488839065" lon="12.100398304985962"><ele>281.0</ele><time>2026-04-25T07:51:51.813Z</time></trkpt><trkpt lat="45.93670663744929" lon="12.100469572529894"><ele>281.0</ele><time>2026-04-25T07:51:54.813Z</time></trkpt><trkpt lat="45.9367497681527" lon="12.10056018089644"><ele>281.0</ele><time>2026-04-25T07:51:57.813Z</time></trkpt><trkpt lat="45.936790266289606" lon="12.100638322640217"><ele>287.33333333333337</ele><time>2026-04-25T07:52:00.813Z</time></trkpt><trkpt lat="45.936851163084086" lon="12.10072904714542"><ele>293.6666666666667</ele><time>2026-04-25T07:52:03.813Z</time></trkpt><trkpt lat="45.936892976604724" lon="12.100814641370036"><ele>300.0</ele><time>2026-04-25T07:52:06.813Z</time></trkpt><trkpt lat="45.936922464882194" lon="12.100905598141225"><ele>306.3333333333333</ele><time>2026-04-25T07:52:08.813Z</time></trkpt><trkpt lat="45.9369486493305" lon="12.10101459423188"><ele>312.66666666666663</ele><time>2026-04-25T07:52:11.813Z</time></trkpt><trkpt lat="45.936962689644616" lon="12.101112088250412"><ele>319.0</ele><time>2026-04-25T07:52:13.813Z</time></trkpt><trkpt lat="45.937015806868466" lon="12.101182282037229"><ele>319.0</ele><time>2026-04-25T07:52:16.813Z</time></trkpt><trkpt lat="45.93705643135926" lon="12.101253601518586"><ele>319.0</ele><time>2026-04-25T07:52:18.813Z</time></trkpt><trkpt lat="45.93709161601996" lon="12.101338879535845"><ele>319.0</ele><time>2026-04-25T07:52:20.813Z</time></trkpt><trkpt lat="45.93713555346961" lon="12.10141093279807"><ele>319.0</ele><time>2026-04-25T07:52:22.813Z</time></trkpt><trkpt lat="45.93717238212599" lon="12.101491686456809"><ele>319.0</ele><time>2026-04-25T07:52:24.813Z</time></trkpt><trkpt lat="45.93721412715847" lon="12.101574661977532"><ele>319.0</ele><time>2026-04-25T07:52:26.813Z</time></trkpt><trkpt lat="45.937258911720214" lon="12.101657212747568"><ele>319.0</ele><time>2026-04-25T07:52:28.813Z</time></trkpt><trkpt lat="45.93727408370018" lon="12.10178514115044"><ele>316.16666666666663</ele><time>2026-04-25T07:52:30.813Z</time></trkpt><trkpt lat="45.93730491453391" lon="12.10191836761"><ele>313.3333333333333</ele><time>2026-04-25T07:52:32.813Z</time></trkpt><trkpt lat="45.93735609584092" lon="12.102004077503551"><ele>310.5</ele><time>2026-04-25T07:52:34.813Z</time></trkpt><trkpt lat="45.937402608658694" lon="12.102081721755107"><ele>307.6666666666667</ele><time>2026-04-25T07:52:36.813Z</time></trkpt><trkpt lat="45.93743363341268" lon="12.10216952239701"><ele>304.83333333333337</ele><time>2026-04-25T07:52:38.813Z</time></trkpt><trkpt lat="45.937496767502566" lon="12.102274722798928"><ele>302.0</ele><time>2026-04-25T07:52:40.813Z</time></trkpt><trkpt lat="45.93751324804503" lon="12.102378283634005"><ele>298.83333333333337</ele><time>2026-04-25T07:52:42.813Z</time></trkpt><trkpt lat="45.93753444916386" lon="12.102501543277013"><ele>295.6666666666667</ele><time>2026-04-25T07:52:44.812Z</time></trkpt><trkpt lat="45.93756609763891" lon="12.10260242740621"><ele>292.5</ele><time>2026-04-25T07:52:46.812Z</time></trkpt><trkpt lat="45.937598741950595" lon="12.102699885228144"><ele>289.3333333333333</ele><time>2026-04-25T07:52:48.812Z</time></trkpt><trkpt lat="45.937641966510554" lon="12.102794277752759"><ele>286.16666666666663</ele><time>2026-04-25T07:52:50.812Z</time></trkpt><trkpt lat="45.93768770633572" lon="12.10285831438239"><ele>283.0</ele><time>2026-04-25T07:52:51.812Z</time></trkpt><trkpt lat="45.93774331228836" lon="12.102970639597894"><ele>288.3333333333333</ele><time>2026-04-25T07:52:53.812Z</time></trkpt><trkpt lat="45.93779522024804" lon="12.10306800411265"><ele>293.66666666666663</ele><time>2026-04-25T07:52:54.812Z</time></trkpt><trkpt lat="45.937835899201716" lon="12.103170333901906"><ele>299.0</ele><time>2026-04-25T07:52:55.812Z</time></trkpt><trkpt lat="45.937866068464125" lon="12.103281486197794"><ele>304.3333333333333</ele><time>2026-04-25T07:52:56.812Z</time></trkpt><trkpt lat="45.937867401016774" lon="12.103408573177486"><ele>309.6666666666667</ele><time>2026-04-25T07:52:57.812Z</time></trkpt><trkpt lat="45.93785711104277" lon="12.10352811501262"><ele>315.0</ele><time>2026-04-25T07:52:58.812Z</time></trkpt><trkpt lat="45.93785469371683" lon="12.103644304731283"><ele>315.0</ele><time>2026-04-25T07:52:59.812Z</time></trkpt><trkpt lat="45.937890270089916" lon="12.103749390346959"><ele>315.0</ele><time>2026-04-25T07:53:00.812Z</time></trkpt><trkpt lat="45.937944344881956" lon="12.103842170339519"><ele>315.0</ele><time>2026-04-25T07:53:01.812Z</time></trkpt><trkpt lat="45.93799919787246" lon="12.103909649852445"><ele>315.0</ele><time>2026-04-25T07:53:02.812Z</time></trkpt><trkpt lat="45.93805482842711" lon="12.104019944477285"><ele>315.0</ele><time>2026-04-25T07:53:03.812Z</time></trkpt><trkpt lat="45.93810164299241" lon="12.104114336169603"><ele>315.0</ele><time>2026-04-25T07:53:04.812Z</time></trkpt><trkpt lat="45.93812116013307" lon="12.104223515756754"><ele>312.2</ele><time>2026-04-25T07:53:05.812Z</time></trkpt><trkpt lat="45.938166853203505" lon="12.104393826273641"><ele>309.4</ele><time>2026-04-25T07:53:07.812Z</time></trkpt><trkpt lat="45.938181490878236" lon="12.10448448871217"><ele>306.6</ele><time>2026-04-25T07:53:08.812Z</time></trkpt><trkpt lat="45.93820099352205" lon="12.104571904932538"><ele>303.8</ele><time>2026-04-25T07:53:09.812Z</time></trkpt><trkpt lat="45.938233144456696" lon="12.10472281704094"><ele>301.0</ele><time>2026-04-25T07:53:11.812Z</time></trkpt><trkpt lat="45.938252082100725" lon="12.104851777358832"><ele>299.0</ele><time>2026-04-25T07:53:13.812Z</time></trkpt><trkpt lat="45.93829356048007" lon="12.104963166845268"><ele>297.0</ele><time>2026-04-25T07:53:15.812Z</time></trkpt><trkpt lat="45.938386159379576" lon="12.105070443547335"><ele>295.0</ele><time>2026-04-25T07:53:17.812Z</time></trkpt><trkpt lat="45.93847153441577" lon="12.105164764782293"><ele>293.0</ele><time>2026-04-25T07:53:19.812Z</time></trkpt><trkpt lat="45.93847991603907" lon="12.105318246633875"><ele>291.0</ele><time>2026-04-25T07:53:21.812Z</time></trkpt><trkpt lat="45.93847187986266" lon="12.105453532803965"><ele>296.8</ele><time>2026-04-25T07:53:23.812Z</time></trkpt><trkpt lat="45.93849899059696" lon="12.105592816718367"><ele>302.6</ele><time>2026-04-25T07:53:25.812Z</time></trkpt><trkpt lat="45.938554778462816" lon="12.105718297222513"><ele>308.4</ele><time>2026-04-25T07:53:27.812Z</time></trkpt><trkpt lat="45.93863164955778" lon="12.10584054715039"><ele>314.2</ele><time>2026-04-25T07:53:29.812Z</time></trkpt><trkpt lat="45.93869620075697" lon="12.105976859586557"><ele>320.0</ele><time>2026-04-25T07:53:31.812Z</time></trkpt><trkpt lat="45.93872920489664" lon="12.106061683674374"><ele>320.0</ele><time>2026-04-25T07:53:32.812Z</time></trkpt><trkpt lat="45.9387800752246" lon="12.106232487321101"><ele>320.0</ele><time>2026-04-25T07:53:34.812Z</time></trkpt><trkpt lat="45.938812611826236" lon="12.106319274074853"><ele>320.0</ele><time>2026-04-25T07:53:35.812Z</time></trkpt><trkpt lat="45.938840754853096" lon="12.106410803721547"><ele>320.0</ele><time>2026-04-25T07:53:36.812Z</time></trkpt><trkpt lat="45.93887283589655" lon="12.106497972766217"><ele>320.0</ele><time>2026-04-25T07:53:37.812Z</time></trkpt><trkpt lat="45.93893796855725" lon="12.10656887487918"><ele>320.0</ele><time>2026-04-25T07:53:38.812Z</time></trkpt><trkpt lat="45.93901043639274" lon="12.106621217897718"><ele>322.83333333333337</ele><time>2026-04-25T07:53:39.812Z</time></trkpt><trkpt lat="45.939077834180274" lon="12.10667891247609"><ele>325.6666666666667</ele><time>2026-04-25T07:53:40.812Z</time></trkpt><trkpt lat="45.939147941686436" lon="12.106744674904604"><ele>328.5</ele><time>2026-04-25T07:53:41.812Z</time></trkpt><trkpt lat="45.93922100947058" lon="12.106808802993752"><ele>331.3333333333333</ele><time>2026-04-25T07:53:42.811Z</time></trkpt><trkpt lat="45.939280532290155" lon="12.106895443580814"><ele>334.16666666666663</ele><time>2026-04-25T07:53:43.811Z</time></trkpt><trkpt lat="45.93931620308503" lon="12.106998554236563"><ele>337.0</ele><time>2026-04-25T07:53:44.812Z</time></trkpt><trkpt lat="45.93932956074187" lon="12.107122201528746"><ele>337.0</ele><time>2026-04-25T07:53:45.812Z</time></trkpt><trkpt lat="45.93931378889609" lon="12.107251968169189"><ele>337.0</ele><time>2026-04-25T07:53:46.812Z</time></trkpt><trkpt lat="45.93930325545393" lon="12.107394169851705"><ele>337.0</ele><time>2026-04-25T07:53:47.812Z</time></trkpt><trkpt lat="45.93931566646388" lon="12.107526101895386"><ele>337.0</ele><time>2026-04-25T07:53:48.812Z</time></trkpt><trkpt lat="45.939344401572384" lon="12.107665303329192"><ele>337.0</ele><time>2026-04-25T07:53:49.812Z</time></trkpt><trkpt lat="45.93939537465614" lon="12.107792938085367"><ele>333.40000000000003</ele><time>2026-04-25T07:53:50.812Z</time></trkpt><trkpt lat="45.939453500759925" lon="12.107918043716392"><ele>329.8</ele><time>2026-04-25T07:53:51.812Z</time></trkpt><trkpt lat="45.93950268251154" lon="12.108051279621103"><ele>326.2</ele><time>2026-04-25T07:53:52.812Z</time></trkpt><trkpt lat="45.93953486342625" lon="12.10820025314475"><ele>322.6</ele><time>2026-04-25T07:53:53.811Z</time></trkpt><trkpt lat="45.93955826788119" lon="12.108357525654984"><ele>319.0</ele><time>2026-04-25T07:53:54.812Z</time></trkpt><trkpt lat="45.93957278822176" lon="12.108524303911473"><ele>314.0</ele><time>2026-04-25T07:53:55.812Z</time></trkpt><trkpt lat="45.939596417943996" lon="12.108688178789949"><ele>309.0</ele><time>2026-04-25T07:53:56.812Z</time></trkpt><trkpt lat="45.9396443930642" lon="12.108841382616152"><ele>304.0</ele><time>2026-04-25T07:53:57.812Z</time></trkpt><trkpt lat="45.939717854619474" lon="12.10898172685235"><ele>299.0</ele><time>2026-04-25T07:53:58.812Z</time></trkpt><trkpt lat="45.93979583269606" lon="12.10910324830519"><ele>295.8</ele><time>2026-04-25T07:53:59.812Z</time></trkpt><trkpt lat="45.93984364653161" lon="12.109230343584208"><ele>292.59999999999997</ele><time>2026-04-25T07:54:00.812Z</time></trkpt><trkpt lat="45.939864707886315" lon="12.109368896311205"><ele>289.4</ele><time>2026-04-25T07:54:01.812Z</time></trkpt><trkpt lat="45.9398780661974" lon="12.109518408238358"><ele>286.2</ele><time>2026-04-25T07:54:02.812Z</time></trkpt><trkpt lat="45.939913108167374" lon="12.10965215624657"><ele>283.0</ele><time>2026-04-25T07:54:03.811Z</time></trkpt><trkpt lat="45.93997598837137" lon="12.109776210157067"><ele>283.0</ele><time>2026-04-25T07:54:04.811Z</time></trkpt><trkpt lat="45.94003762866094" lon="12.109904585622763"><ele>283.0</ele><time>2026-04-25T07:54:05.811Z</time></trkpt><trkpt lat="45.94008360787118" lon="12.110049655612046"><ele>283.0</ele><time>2026-04-25T07:54:06.811Z</time></trkpt><trkpt lat="45.94010200452451" lon="12.110211642857367"><ele>283.0</ele><time>2026-04-25T07:54:07.811Z</time></trkpt><trkpt lat="45.94010174553134" lon="12.110363575845861"><ele>283.0</ele><time>2026-04-25T07:54:08.811Z</time></trkpt><trkpt lat="45.94009448836313" lon="12.110502366396078"><ele>286.0</ele><time>2026-04-25T07:54:09.811Z</time></trkpt><trkpt lat="45.940100023425764" lon="12.110640294357262"><ele>289.0</ele><time>2026-04-25T07:54:10.811Z</time></trkpt><trkpt lat="45.94013103139987" lon="12.110765823575921"><ele>292.0</ele><time>2026-04-25T07:54:11.811Z</time></trkpt><trkpt lat="45.940188233400846" lon="12.110870623988978"><ele>295.0</ele><time>2026-04-25T07:54:12.811Z</time></trkpt><trkpt lat="45.94025966401163" lon="12.110983169367804"><ele>298.0</ele><time>2026-04-25T07:54:13.811Z</time></trkpt><trkpt lat="45.94032711615913" lon="12.111087564578096"><ele>298.0</ele><time>2026-04-25T07:54:14.811Z</time></trkpt><trkpt lat="45.94036830861961" lon="12.111200432358265"><ele>298.0</ele><time>2026-04-25T07:54:15.811Z</time></trkpt><trkpt lat="45.9404068036381" lon="12.111314042782514"><ele>298.0</ele><time>2026-04-25T07:54:16.811Z</time></trkpt><trkpt lat="45.94045128478568" lon="12.111430644594437"><ele>298.0</ele><time>2026-04-25T07:54:17.811Z</time></trkpt><trkpt lat="45.940478106160164" lon="12.111544056147801"><ele>298.0</ele><time>2026-04-25T07:54:18.811Z</time></trkpt><trkpt lat="45.94049593194694" lon="12.111655744864542"><ele>298.0</ele><time>2026-04-25T07:54:19.811Z</time></trkpt><trkpt lat="45.94057189322488" lon="12.111791444461666"><ele>295.42857142857144</ele><time>2026-04-25T07:54:21.811Z</time></trkpt><trkpt lat="45.94063068638173" lon="12.111838726890563"><ele>292.85714285714283</ele><time>2026-04-25T07:54:22.811Z</time></trkpt><trkpt lat="45.940682172207474" lon="12.11190226555523"><ele>290.2857142857143</ele><time>2026-04-25T07:54:23.811Z</time></trkpt><trkpt lat="45.94070885879339" lon="12.11199686455967"><ele>287.7142857142857</ele><time>2026-04-25T07:54:24.811Z</time></trkpt><trkpt lat="45.94071361060415" lon="12.11209056776813"><ele>285.1428571428571</ele><time>2026-04-25T07:54:25.811Z</time></trkpt><trkpt lat="45.94071093545091" lon="12.11218918367275"><ele>282.57142857142856</ele><time>2026-04-25T07:54:26.811Z</time></trkpt><trkpt lat="45.94072310954624" lon="12.112283653769431"><ele>280.0</ele><time>2026-04-25T07:54:27.811Z</time></trkpt><trkpt lat="45.94075028664165" lon="12.112380624451838"><ele>278.14285714285717</ele><time>2026-04-25T07:54:28.811Z</time></trkpt><trkpt lat="45.940800271728236" lon="12.112462359389703"><ele>276.2857142857143</ele><time>2026-04-25T07:54:29.811Z</time></trkpt><trkpt lat="45.94084715030321" lon="12.112540196914175"><ele>274.42857142857144</ele><time>2026-04-25T07:54:30.811Z</time></trkpt><trkpt lat="45.94088856883583" lon="12.112615463125133"><ele>272.57142857142856</ele><time>2026-04-25T07:54:31.811Z</time></trkpt><trkpt lat="45.94093139154573" lon="12.112694266980185"><ele>270.7142857142857</ele><time>2026-04-25T07:54:32.811Z</time></trkpt><trkpt lat="45.94096724886626" lon="12.112785772874982"><ele>268.8571428571429</ele><time>2026-04-25T07:54:33.811Z</time></trkpt><trkpt lat="45.941011879781556" lon="12.112861744217591"><ele>267.0</ele><time>2026-04-25T07:54:34.811Z</time></trkpt><trkpt lat="45.941072863869714" lon="12.112946599302058"><ele>269.5</ele><time>2026-04-25T07:54:35.811Z</time></trkpt><trkpt lat="45.941142686246955" lon="12.113016463551771"><ele>272.0</ele><time>2026-04-25T07:54:36.811Z</time></trkpt><trkpt lat="45.941214679506864" lon="12.113071718122214"><ele>274.5</ele><time>2026-04-25T07:54:37.811Z</time></trkpt><trkpt lat="45.941286803549424" lon="12.113141040049763"><ele>277.0</ele><time>2026-04-25T07:54:38.811Z</time></trkpt><trkpt lat="45.94134497902507" lon="12.113240030487171"><ele>279.5</ele><time>2026-04-25T07:54:39.811Z</time></trkpt><trkpt lat="45.94139384545712" lon="12.113353084645981"><ele>282.0</ele><time>2026-04-25T07:54:40.811Z</time></trkpt><trkpt lat="45.94143080278417" lon="12.113476810788272"><ele>282.0</ele><time>2026-04-25T07:54:41.811Z</time></trkpt><trkpt lat="45.941454808295354" lon="12.113594721610722"><ele>282.0</ele><time>2026-04-25T07:54:42.811Z</time></trkpt><trkpt lat="45.94147289146483" lon="12.113699818342822"><ele>282.0</ele><time>2026-04-25T07:54:43.811Z</time></trkpt><trkpt lat="45.94148708331281" lon="12.113806039074369"><ele>282.0</ele><time>2026-04-25T07:54:44.811Z</time></trkpt><trkpt lat="45.941506510151605" lon="12.113892607730438"><ele>282.0</ele><time>2026-04-25T07:54:45.811Z</time></trkpt><trkpt lat="45.941531343837475" lon="12.11397970806207"><ele>282.0</ele><time>2026-04-25T07:54:46.811Z</time></trkpt><trkpt lat="45.9416085059434" lon="12.114088822190324"><ele>280.0</ele><time>2026-04-25T07:54:48.811Z</time></trkpt><trkpt lat="45.941689660235056" lon="12.114166180175738"><ele>278.0</ele><time>2026-04-25T07:54:50.811Z</time></trkpt><trkpt lat="45.94176240904625" lon="12.11421942621119"><ele>276.0</ele><time>2026-04-25T07:54:52.811Z</time></trkpt><trkpt lat="45.94184604453554" lon="12.114286409778506"><ele>274.0</ele><time>2026-04-25T07:54:54.811Z</time></trkpt><trkpt lat="45.941904183525544" lon="12.114378163088666"><ele>272.0</ele><time>2026-04-25T07:54:56.811Z</time></trkpt><trkpt lat="45.94194076603541" lon="12.114524197877335"><ele>277.4</ele><time>2026-04-25T07:54:58.811Z</time></trkpt><trkpt lat="45.94193797652075" lon="12.114709549391154"><ele>282.79999999999995</ele><time>2026-04-25T07:55:00.81Z</time></trkpt><trkpt lat="45.94191391653086" lon="12.114795619635801"><ele>288.2</ele><time>2026-04-25T07:55:01.81Z</time></trkpt><trkpt lat="45.94187965371489" lon="12.11495060079025"><ele>293.59999999999997</ele><time>2026-04-25T07:55:03.81Z</time></trkpt><trkpt lat="45.941891018856026" lon="12.11508143566713"><ele>299.0</ele><time>2026-04-25T07:55:05.81Z</time></trkpt><trkpt lat="45.94192805058424" lon="12.115196954078113"><ele>299.0</ele><time>2026-04-25T07:55:07.81Z</time></trkpt><trkpt lat="45.941992389368124" lon="12.115313693069375"><ele>299.0</ele><time>2026-04-25T07:55:09.81Z</time></trkpt><trkpt lat="45.9420353759782" lon="12.11538797832299"><ele>299.0</ele><time>2026-04-25T07:55:10.81Z</time></trkpt><trkpt lat="45.942087131938585" lon="12.11545274751629"><ele>299.0</ele><time>2026-04-25T07:55:11.81Z</time></trkpt><trkpt lat="45.942155607024816" lon="12.115495692189171"><ele>299.0</ele><time>2026-04-25T07:55:12.81Z</time></trkpt><trkpt lat="45.94223880293927" lon="12.11552678973508"><ele>299.0</ele><time>2026-04-25T07:55:13.81Z</time></trkpt><trkpt lat="45.9423076779894" lon="12.115573971108445"><ele>299.0</ele><time>2026-04-25T07:55:14.81Z</time></trkpt><trkpt lat="45.94235842330519" lon="12.115656780327273"><ele>299.0</ele><time>2026-04-25T07:55:15.81Z</time></trkpt><trkpt lat="45.94238417039129" lon="12.115759878942141"><ele>299.0</ele><time>2026-04-25T07:55:16.81Z</time></trkpt><trkpt lat="45.94239820425299" lon="12.115857906443878"><ele>299.0</ele><time>2026-04-25T07:55:17.81Z</time></trkpt><trkpt lat="45.94240628559931" lon="12.115951927490483"><ele>299.0</ele><time>2026-04-25T07:55:18.81Z</time></trkpt><trkpt lat="45.94242968629942" lon="12.11604080159288"><ele>299.0</ele><time>2026-04-25T07:55:19.81Z</time></trkpt><trkpt lat="45.94247466875206" lon="12.116167706956178"><ele>299.2</ele><time>2026-04-25T07:55:21.81Z</time></trkpt><trkpt lat="45.942524708016485" lon="12.116278421234155"><ele>299.4</ele><time>2026-04-25T07:55:23.81Z</time></trkpt><trkpt lat="45.94259869634426" lon="12.11644293791716"><ele>299.6</ele><time>2026-04-25T07:55:25.81Z</time></trkpt><trkpt lat="45.94266398429366" lon="12.116514700055843"><ele>299.8</ele><time>2026-04-25T07:55:26.81Z</time></trkpt><trkpt lat="45.942731801455295" lon="12.11659106552679"><ele>300.0</ele><time>2026-04-25T07:55:27.81Z</time></trkpt><trkpt lat="45.94278428180551" lon="12.116668559551172"><ele>300.0</ele><time>2026-04-25T07:55:28.81Z</time></trkpt><trkpt lat="45.94284703826131" lon="12.116744905165536"><ele>300.0</ele><time>2026-04-25T07:55:29.81Z</time></trkpt><trkpt lat="45.94291167506873" lon="12.116829100343399"><ele>300.0</ele><time>2026-04-25T07:55:30.81Z</time></trkpt><trkpt lat="45.942959456404786" lon="12.116929665834196"><ele>300.0</ele><time>2026-04-25T07:55:31.81Z</time></trkpt><trkpt lat="45.94299475537214" lon="12.11703624825027"><ele>300.0</ele><time>2026-04-25T07:55:32.81Z</time></trkpt><trkpt lat="45.94301740887709" lon="12.117156550654446"><ele>300.0</ele><time>2026-04-25T07:55:33.81Z</time></trkpt><trkpt lat="45.94301039240541" lon="12.117291485752316"><ele>296.2</ele><time>2026-04-25T07:55:34.81Z</time></trkpt><trkpt lat="45.94299684631625" lon="12.117425930509995"><ele>292.4</ele><time>2026-04-25T07:55:35.81Z</time></trkpt><trkpt lat="45.942973260413034" lon="12.117558349493331"><ele>288.6</ele><time>2026-04-25T07:55:36.81Z</time></trkpt><trkpt lat="45.94295308419398" lon="12.11770513127167"><ele>284.8</ele><time>2026-04-25T07:55:37.81Z</time></trkpt><trkpt lat="45.9429593955256" lon="12.117841309147995"><ele>281.0</ele><time>2026-04-25T07:55:38.81Z</time></trkpt><trkpt lat="45.94298917210175" lon="12.117969473526088"><ele>281.0</ele><time>2026-04-25T07:55:39.81Z</time></trkpt><trkpt lat="45.943045380762854" lon="12.118061611386137"><ele>281.0</ele><time>2026-04-25T07:55:40.81Z</time></trkpt><trkpt lat="45.94311936115868" lon="12.11812354361741"><ele>281.0</ele><time>2026-04-25T07:55:41.81Z</time></trkpt><trkpt lat="45.943201553064036" lon="12.118169513412264"><ele>281.0</ele><time>2026-04-25T07:55:42.81Z</time></trkpt><trkpt lat="45.943272771194934" lon="12.118245353972434"><ele>281.0</ele><time>2026-04-25T07:55:43.81Z</time></trkpt><trkpt lat="45.94331744474721" lon="12.118352619478753"><ele>281.0</ele><time>2026-04-25T07:55:44.81Z</time></trkpt><trkpt lat="45.94334990675573" lon="12.118469096798574"><ele>280.5</ele><time>2026-04-25T07:55:45.81Z</time></trkpt><trkpt lat="45.94338863537815" lon="12.11858715679241"><ele>280.0</ele><time>2026-04-25T07:55:46.81Z</time></trkpt><trkpt lat="45.943436526315956" lon="12.118694942625572"><ele>279.5</ele><time>2026-04-25T07:55:47.81Z</time></trkpt><trkpt lat="45.943491062386606" lon="12.118794310769376"><ele>279.0</ele><time>2026-04-25T07:55:48.81Z</time></trkpt><trkpt lat="45.94354511533144" lon="12.11889307438276"><ele>278.5</ele><time>2026-04-25T07:55:49.811Z</time></trkpt><trkpt lat="45.943590642721894" lon="12.118989211603454"><ele>278.0</ele><time>2026-04-25T07:55:50.811Z</time></trkpt><trkpt lat="45.9436220848395" lon="12.119104368387308"><ele>278.0</ele><time>2026-04-25T07:55:51.811Z</time></trkpt><trkpt lat="45.94363075691734" lon="12.119217580503262"><ele>278.0</ele><time>2026-04-25T07:55:52.811Z</time></trkpt><trkpt lat="45.94363212079896" lon="12.11933281108112"><ele>278.0</ele><time>2026-04-25T07:55:53.81Z</time></trkpt><trkpt lat="45.94363794707155" lon="12.119443295336248"><ele>278.0</ele><time>2026-04-25T07:55:54.81Z</time></trkpt><trkpt lat="45.943659602251934" lon="12.11953342992893"><ele>278.0</ele><time>2026-04-25T07:55:55.81Z</time></trkpt><trkpt lat="45.943698059135464" lon="12.119620255324106"><ele>278.0</ele><time>2026-04-25T07:55:56.811Z</time></trkpt><trkpt lat="45.94374765909595" lon="12.11971174533351"><ele>278.0</ele><time>2026-04-25T07:55:57.811Z</time></trkpt><trkpt lat="45.94382114212021" lon="12.119785003091165"><ele>278.0</ele><time>2026-04-25T07:55:58.81Z</time></trkpt><trkpt lat="45.94388393336849" lon="12.119875068435185"><ele>278.0</ele><time>2026-04-25T07:55:59.81Z</time></trkpt><trkpt lat="45.943937235238344" lon="12.119989028317509"><ele>278.0</ele><time>2026-04-25T07:56:00.81Z</time></trkpt><trkpt lat="45.94397644704575" lon="12.120109756769187"><ele>278.0</ele><time>2026-04-25T07:56:01.81Z</time></trkpt><trkpt lat="45.94401192463653" lon="12.120244077352979"><ele>274.8</ele><time>2026-04-25T07:56:02.81Z</time></trkpt><trkpt lat="45.94404830221887" lon="12.120383724132083"><ele>271.6</ele><time>2026-04-25T07:56:03.81Z</time></trkpt><trkpt lat="45.944081781902625" lon="12.120535114719582"><ele>268.4</ele><time>2026-04-25T07:56:04.81Z</time></trkpt><trkpt lat="45.94410809236038" lon="12.120671265954858"><ele>265.2</ele><time>2026-04-25T07:56:05.81Z</time></trkpt><trkpt lat="45.944114950735376" lon="12.120789916827965"><ele>262.0</ele><time>2026-04-25T07:56:06.81Z</time></trkpt><trkpt lat="45.94410330771128" lon="12.12089983015883"><ele>259.6</ele><time>2026-04-25T07:56:07.81Z</time></trkpt><trkpt lat="45.94407132453763" lon="12.12100445112852"><ele>257.2</ele><time>2026-04-25T07:56:08.81Z</time></trkpt><trkpt lat="45.944013506424625" lon="12.1211026047433"><ele>254.8</ele><time>2026-04-25T07:56:09.81Z</time></trkpt><trkpt lat="45.94394418607036" lon="12.1211924065449"><ele>252.4</ele><time>2026-04-25T07:56:10.81Z</time></trkpt><trkpt lat="45.94386741482195" lon="12.121288280457538"><ele>250.0</ele><time>2026-04-25T07:56:11.81Z</time></trkpt><trkpt lat="45.94377582523525" lon="12.121395530959132"><ele>250.0</ele><time>2026-04-25T07:56:12.81Z</time></trkpt><trkpt lat="45.94367353489469" lon="12.121458521744653"><ele>250.0</ele><time>2026-04-25T07:56:13.81Z</time></trkpt><trkpt lat="45.94356676050276" lon="12.121501483170363"><ele>250.0</ele><time>2026-04-25T07:56:14.81Z</time></trkpt><trkpt lat="45.943460914939855" lon="12.121551635553585"><ele>250.0</ele><time>2026-04-25T07:56:15.81Z</time></trkpt><trkpt lat="45.94335556181583" lon="12.12161841972928"><ele>250.0</ele><time>2026-04-25T07:56:16.81Z</time></trkpt><trkpt lat="45.94326254287146" lon="12.12171176486904"><ele>248.2</ele><time>2026-04-25T07:56:17.81Z</time></trkpt><trkpt lat="45.943176392565164" lon="12.121820216323373"><ele>246.4</ele><time>2026-04-25T07:56:18.81Z</time></trkpt><trkpt lat="45.943100576396844" lon="12.121923391792773"><ele>244.60000000000002</ele><time>2026-04-25T07:56:19.81Z</time></trkpt><trkpt lat="45.94304443248075" lon="12.121999751809414"><ele>242.8</ele><time>2026-04-25T07:56:20.81Z</time></trkpt><trkpt lat="45.942979807038526" lon="12.12213747079804"><ele>241.0</ele><time>2026-04-25T07:56:22.81Z</time></trkpt><trkpt lat="45.94298466979185" lon="12.122284535069662"><ele>241.0</ele><time>2026-04-25T07:56:24.81Z</time></trkpt><trkpt lat="45.943051455064136" lon="12.12237886900991"><ele>241.00000000000003</ele><time>2026-04-25T07:56:26.809Z</time></trkpt><trkpt lat="45.94311661457643" lon="12.122460710455691"><ele>241.00000000000003</ele><time>2026-04-25T07:56:27.809Z</time></trkpt><trkpt lat="45.94316518103506" lon="12.122538970350094"><ele>241.0</ele><time>2026-04-25T07:56:28.809Z</time></trkpt><trkpt lat="45.943209167043854" lon="12.122622492282945"><ele>241.0</ele><time>2026-04-25T07:56:29.809Z</time></trkpt><trkpt lat="45.943270824968096" lon="12.122790444961588"><ele>239.66666666666666</ele><time>2026-04-25T07:56:31.809Z</time></trkpt><trkpt lat="45.943287535844945" lon="12.122902561482602"><ele>238.33333333333331</ele><time>2026-04-25T07:56:32.809Z</time></trkpt><trkpt lat="45.94328033534641" lon="12.123020304977123"><ele>237.0</ele><time>2026-04-25T07:56:33.809Z</time></trkpt><trkpt lat="45.943255852218705" lon="12.123144025621139"><ele>235.66666666666669</ele><time>2026-04-25T07:56:34.809Z</time></trkpt><trkpt lat="45.94322946537342" lon="12.123269989900793"><ele>234.33333333333334</ele><time>2026-04-25T07:56:35.809Z</time></trkpt><trkpt lat="45.943202636058075" lon="12.12338738938743"><ele>233.0</ele><time>2026-04-25T07:56:36.809Z</time></trkpt><trkpt lat="45.943179808641666" lon="12.12347285778891"><ele>229.4</ele><time>2026-04-25T07:56:37.809Z</time></trkpt><trkpt lat="45.943131595398796" lon="12.12360161100159"><ele>225.8</ele><time>2026-04-25T07:56:39.809Z</time></trkpt><trkpt lat="45.94307734615069" lon="12.1236741739723"><ele>222.2</ele><time>2026-04-25T07:56:40.809Z</time></trkpt><trkpt lat="45.94301427170154" lon="12.123772897682652"><ele>218.6</ele><time>2026-04-25T07:56:41.809Z</time></trkpt><trkpt lat="45.94293313163109" lon="12.123891271706531"><ele>215.0</ele><time>2026-04-25T07:56:42.809Z</time></trkpt><trkpt lat="45.94287315509765" lon="12.12401111642259"><ele>213.6</ele><time>2026-04-25T07:56:43.809Z</time></trkpt><trkpt lat="45.94280394905042" lon="12.124096924913125"><ele>212.2</ele><time>2026-04-25T07:56:44.809Z</time></trkpt><trkpt lat="45.94274162298077" lon="12.12418441714593"><ele>210.8</ele><time>2026-04-25T07:56:45.809Z</time></trkpt><trkpt lat="45.942665691234076" lon="12.124245027974736"><ele>209.4</ele><time>2026-04-25T07:56:46.809Z</time></trkpt><trkpt lat="45.94257660485021" lon="12.124308561080518"><ele>208.0</ele><time>2026-04-25T07:56:47.809Z</time></trkpt><trkpt lat="45.942491262734656" lon="12.124408783898446"><ele>207.99999999999997</ele><time>2026-04-25T07:56:48.809Z</time></trkpt><trkpt lat="45.94241976921368" lon="12.124507488063015"><ele>208.0</ele><time>2026-04-25T07:56:49.809Z</time></trkpt><trkpt lat="45.942361271490874" lon="12.124579487543915"><ele>208.0</ele><time>2026-04-25T07:56:50.809Z</time></trkpt><trkpt lat="45.94231570004581" lon="12.12465198361885"><ele>208.0</ele><time>2026-04-25T07:56:51.809Z</time></trkpt><trkpt lat="45.942266913456436" lon="12.12472150012617"><ele>207.99999999999997</ele><time>2026-04-25T07:56:52.809Z</time></trkpt><trkpt lat="45.94221350599772" lon="12.124802528160076"><ele>208.0</ele><time>2026-04-25T07:56:53.809Z</time></trkpt><trkpt lat="45.94215569358835" lon="12.124868903484467"><ele>204.16666666666666</ele><time>2026-04-25T07:56:54.809Z</time></trkpt><trkpt lat="45.942079760848735" lon="12.124913044096678"><ele>200.33333333333331</ele><time>2026-04-25T07:56:55.809Z</time></trkpt><trkpt lat="45.94200321269918" lon="12.12493477659808"><ele>196.5</ele><time>2026-04-25T07:56:56.809Z</time></trkpt><trkpt lat="45.941919018099334" lon="12.125032183594659"><ele>192.66666666666666</ele><time>2026-04-25T07:56:58.809Z</time></trkpt><trkpt lat="45.941890053636996" lon="12.125170643539382"><ele>188.83333333333331</ele><time>2026-04-25T07:57:00.809Z</time></trkpt><trkpt lat="45.94190827312748" lon="12.125276997339443"><ele>185.0</ele><time>2026-04-25T07:57:01.809Z</time></trkpt><trkpt lat="45.94193457522983" lon="12.125390923498129"><ele>185.0</ele><time>2026-04-25T07:57:02.809Z</time></trkpt><trkpt lat="45.941956302104686" lon="12.125516082075736"><ele>185.0</ele><time>2026-04-25T07:57:04.809Z</time></trkpt><trkpt lat="45.94203296178762" lon="12.125509222367267"><ele>185.0</ele><time>2026-04-25T07:57:07.809Z</time></trkpt><trkpt lat="45.94211725755561" lon="12.125451788146725"><ele>185.0</ele><time>2026-04-25T07:57:09.809Z</time></trkpt><trkpt lat="45.94223031677799" lon="12.125375039552502"><ele>185.0</ele><time>2026-04-25T07:57:11.809Z</time></trkpt><trkpt lat="45.942337959565585" lon="12.125316569762559"><ele>185.0</ele><time>2026-04-25T07:57:13.809Z</time></trkpt><trkpt lat="45.942402457242174" lon="12.125280445046814"><ele>185.0</ele><time>2026-04-25T07:57:14.809Z</time></trkpt><trkpt lat="45.94247392469837" lon="12.125254561016007"><ele>185.0</ele><time>2026-04-25T07:57:15.809Z</time></trkpt><trkpt lat="45.942550682520974" lon="12.12522320276776"><ele>185.0</ele><time>2026-04-25T07:57:16.809Z</time></trkpt><trkpt lat="45.94263129714248" lon="12.125180223918363"><ele>185.0</ele><time>2026-04-25T07:57:17.809Z</time></trkpt><trkpt lat="45.942710403040756" lon="12.125140088248697"><ele>185.0</ele><time>2026-04-25T07:57:18.809Z</time></trkpt><trkpt lat="45.94279436720622" lon="12.125095350505477"><ele>185.83333333333331</ele><time>2026-04-25T07:57:19.809Z</time></trkpt><trkpt lat="45.94288272109084" lon="12.12503750129214"><ele>186.66666666666666</ele><time>2026-04-25T07:57:20.809Z</time></trkpt><trkpt lat="45.94296776941523" lon="12.124988858287853"><ele>187.5</ele><time>2026-04-25T07:57:21.809Z</time></trkpt><trkpt lat="45.94304632374023" lon="12.124940062872398"><ele>188.33333333333334</ele><time>2026-04-25T07:57:22.809Z</time></trkpt><trkpt lat="45.94312161755531" lon="12.124883400454085"><ele>189.16666666666669</ele><time>2026-04-25T07:57:23.809Z</time></trkpt><trkpt lat="45.94320135936999" lon="12.124825647084178"><ele>190.0</ele><time>2026-04-25T07:57:24.808Z</time></trkpt><trkpt lat="45.94328071510748" lon="12.124775143591286"><ele>190.0</ele><time>2026-04-25T07:57:25.808Z</time></trkpt><trkpt lat="45.94335987752401" lon="12.124733143560348"><ele>190.0</ele><time>2026-04-25T07:57:26.808Z</time></trkpt><trkpt lat="45.943438881361935" lon="12.124689135290257"><ele>190.0</ele><time>2026-04-25T07:57:27.808Z</time></trkpt><trkpt lat="45.94351584853596" lon="12.124654439901215"><ele>190.0</ele><time>2026-04-25T07:57:28.808Z</time></trkpt><trkpt lat="45.943595136494736" lon="12.124619383330172"><ele>190.0</ele><time>2026-04-25T07:57:29.808Z</time></trkpt><trkpt lat="45.94366857169939" lon="12.124576023954148"><ele>190.0</ele><time>2026-04-25T07:57:30.808Z</time></trkpt><trkpt lat="45.94373765680141" lon="12.124529705602175"><ele>188.33333333333334</ele><time>2026-04-25T07:57:31.808Z</time></trkpt><trkpt lat="45.943803286216145" lon="12.124480914822403"><ele>186.66666666666669</ele><time>2026-04-25T07:57:32.808Z</time></trkpt><trkpt lat="45.943878357323484" lon="12.124443344822385"><ele>185.0</ele><time>2026-04-25T07:57:33.808Z</time></trkpt><trkpt lat="45.943953285260385" lon="12.124401957342618"><ele>183.33333333333334</ele><time>2026-04-25T07:57:34.808Z</time></trkpt><trkpt lat="45.94402364864238" lon="12.124367617879694"><ele>181.66666666666666</ele><time>2026-04-25T07:57:35.808Z</time></trkpt><trkpt lat="45.944098821648176" lon="12.124326526085127"><ele>180.0</ele><time>2026-04-25T07:57:36.808Z</time></trkpt><trkpt lat="45.94416974410522" lon="12.124286260023727"><ele>179.66666666666666</ele><time>2026-04-25T07:57:37.808Z</time></trkpt><trkpt lat="45.944238173487356" lon="12.124248474648539"><ele>179.33333333333334</ele><time>2026-04-25T07:57:38.808Z</time></trkpt><trkpt lat="45.94430388719353" lon="12.12421173349099"><ele>179.0</ele><time>2026-04-25T07:57:39.808Z</time></trkpt><trkpt lat="45.94436954717901" lon="12.124172317286575"><ele>178.66666666666669</ele><time>2026-04-25T07:57:40.808Z</time></trkpt><trkpt lat="45.94449144289462" lon="12.124120754948382"><ele>178.33333333333334</ele><time>2026-04-25T07:57:42.808Z</time></trkpt><trkpt lat="45.944560337098466" lon="12.124075473704576"><ele>178.0</ele><time>2026-04-25T07:57:43.808Z</time></trkpt><trkpt lat="45.94462722485962" lon="12.124031737715775"><ele>180.0</ele><time>2026-04-25T07:57:44.808Z</time></trkpt><trkpt lat="45.944694690603264" lon="12.12399119227243"><ele>182.0</ele><time>2026-04-25T07:57:45.808Z</time></trkpt><trkpt lat="45.944812107499715" lon="12.123921626062094"><ele>184.0</ele><time>2026-04-25T07:57:47.808Z</time></trkpt><trkpt lat="45.94488025847399" lon="12.123903096308926"><ele>186.0</ele><time>2026-04-25T07:57:48.808Z</time></trkpt><trkpt lat="45.94499479859399" lon="12.123853149556297"><ele>188.0</ele><time>2026-04-25T07:57:50.808Z</time></trkpt><trkpt lat="45.945059877762795" lon="12.123817054816108"><ele>188.66666666666666</ele><time>2026-04-25T07:57:51.808Z</time></trkpt><trkpt lat="45.94512680858884" lon="12.123798271503768"><ele>189.33333333333331</ele><time>2026-04-25T07:57:52.81Z</time></trkpt><trkpt lat="45.94519437821583" lon="12.123772760425227"><ele>190.0</ele><time>2026-04-25T07:57:53.812Z</time></trkpt><trkpt lat="45.945255777646096" lon="12.12374367640824"><ele>190.66666666666666</ele><time>2026-04-25T07:57:54.813Z</time></trkpt><trkpt lat="45.94537438182954" lon="12.123697263464285"><ele>191.33333333333334</ele><time>2026-04-25T07:57:56.817Z</time></trkpt><trkpt lat="45.945438997163095" lon="12.123680329577606"><ele>192.0</ele><time>2026-04-25T07:57:57.818Z</time></trkpt><trkpt lat="45.94555264003988" lon="12.123671523858153"><ele>192.0</ele><time>2026-04-25T07:57:59.821Z</time></trkpt><trkpt lat="45.94567416483992" lon="12.123695488634747"><ele>192.0</ele><time>2026-04-25T07:58:01.823Z</time></trkpt><trkpt lat="45.94577971834134" lon="12.123707332618329"><ele>192.0</ele><time>2026-04-25T07:58:03.824Z</time></trkpt><trkpt lat="45.94596181891262" lon="12.123708186293792"><ele>192.0</ele><time>2026-04-25T07:58:07.827Z</time></trkpt><trkpt lat="45.946028580692214" lon="12.123731538028807"><ele>189.25</ele><time>2026-04-25T07:58:09.828Z</time></trkpt><trkpt lat="45.94612180078135" lon="12.123795280767228"><ele>186.5</ele><time>2026-04-25T07:58:11.829Z</time></trkpt><trkpt lat="45.94618409519314" lon="12.123840048332422"><ele>183.75</ele><time>2026-04-25T07:58:13.83Z</time></trkpt><trkpt lat="45.946384000894085" lon="12.123758626672531"><ele>181.0</ele><time>2026-04-25T07:58:18.832Z</time></trkpt><trkpt lat="45.946481052099315" lon="12.123666385810505"><ele>181.0</ele><time>2026-04-25T07:58:20.833Z</time></trkpt><trkpt lat="45.94653379216098" lon="12.123616083665626"><ele>181.0</ele><time>2026-04-25T07:58:21.833Z</time></trkpt><trkpt lat="45.94658964221815" lon="12.123567536358808"><ele>181.0</ele><time>2026-04-25T07:58:22.833Z</time></trkpt><trkpt lat="45.946703285561725" lon="12.123477270240084"><ele>181.0</ele><time>2026-04-25T07:58:24.834Z</time></trkpt><trkpt lat="45.94676303839205" lon="12.123439931946312"><ele>181.0</ele><time>2026-04-25T07:58:25.834Z</time></trkpt><trkpt lat="45.946879940947525" lon="12.123361113228711"><ele>181.16666666666669</ele><time>2026-04-25T07:58:27.834Z</time></trkpt><trkpt lat="45.9469361896219" lon="12.123318557078868"><ele>181.33333333333334</ele><time>2026-04-25T07:58:28.834Z</time></trkpt><trkpt lat="45.94699259309434" lon="12.12327715392485"><ele>181.5</ele><time>2026-04-25T07:58:29.835Z</time></trkpt><trkpt lat="45.947055735700545" lon="12.123238009086183"><ele>181.66666666666666</ele><time>2026-04-25T07:58:30.835Z</time></trkpt><trkpt lat="45.94717198702149" lon="12.123193558417329"><ele>181.83333333333331</ele><time>2026-04-25T07:58:32.835Z</time></trkpt><trkpt lat="45.94729414431005" lon="12.123139331507025"><ele>182.0</ele><time>2026-04-25T07:58:34.835Z</time></trkpt><trkpt lat="45.947359399487866" lon="12.12309333563369"><ele>182.0</ele><time>2026-04-25T07:58:35.835Z</time></trkpt><trkpt lat="45.94742015311318" lon="12.123050104151003"><ele>182.0</ele><time>2026-04-25T07:58:36.835Z</time></trkpt><trkpt lat="45.94748722496336" lon="12.123005631787011"><ele>182.0</ele><time>2026-04-25T07:58:37.836Z</time></trkpt><trkpt lat="45.94755622039457" lon="12.122952960094818"><ele>182.0</ele><time>2026-04-25T07:58:38.836Z</time></trkpt><trkpt lat="45.94762808770418" lon="12.122928313919227"><ele>182.0</ele><time>2026-04-25T07:58:39.836Z</time></trkpt><trkpt lat="45.94769542069589" lon="12.122905582179166"><ele>182.0</ele><time>2026-04-25T07:58:40.836Z</time></trkpt><trkpt lat="45.94776038883897" lon="12.122887434865374"><ele>182.0</ele><time>2026-04-25T07:58:41.836Z</time></trkpt><trkpt lat="45.94783410423858" lon="12.1228885258858"><ele>182.0</ele><time>2026-04-25T07:58:42.836Z</time></trkpt><trkpt lat="45.9479592854829" lon="12.122921500639103"><ele>182.0</ele><time>2026-04-25T07:58:44.836Z</time></trkpt><trkpt lat="45.94807731704533" lon="12.122966929358938"><ele>182.0</ele><time>2026-04-25T07:58:46.836Z</time></trkpt><trkpt lat="45.9481485511892" lon="12.122975324245997"><ele>182.0</ele><time>2026-04-25T07:58:47.836Z</time></trkpt><trkpt lat="45.94821641993751" lon="12.122962917257635"><ele>182.0</ele><time>2026-04-25T07:58:48.836Z</time></trkpt><trkpt lat="45.94828528598021" lon="12.12294555477854"><ele>182.0</ele><time>2026-04-25T07:58:49.836Z</time></trkpt><trkpt lat="45.94835066664184" lon="12.122916714900004"><ele>182.0</ele><time>2026-04-25T07:58:50.836Z</time></trkpt><trkpt lat="45.94841916624981" lon="12.122885962255758"><ele>182.0</ele><time>2026-04-25T07:58:51.836Z</time></trkpt><trkpt lat="45.94848979319483" lon="12.122866534734703"><ele>182.0</ele><time>2026-04-25T07:58:52.836Z</time></trkpt><trkpt lat="45.94855904772484" lon="12.122842738964183"><ele>182.0</ele><time>2026-04-25T07:58:53.836Z</time></trkpt><trkpt lat="45.948627403946695" lon="12.122829813042028"><ele>182.0</ele><time>2026-04-25T07:58:54.836Z</time></trkpt><trkpt lat="45.94869396530996" lon="12.122823214252659"><ele>182.0</ele><time>2026-04-25T07:58:55.836Z</time></trkpt><trkpt lat="45.94876436982971" lon="12.122820294497503"><ele>182.33333333333331</ele><time>2026-04-25T07:58:56.836Z</time></trkpt><trkpt lat="45.9488326907416" lon="12.122816379271567"><ele>182.66666666666666</ele><time>2026-04-25T07:58:57.836Z</time></trkpt><trkpt lat="45.948897918873236" lon="12.122819337876189"><ele>183.0</ele><time>2026-04-25T07:58:58.836Z</time></trkpt><trkpt lat="45.948960891910474" lon="12.122828054809865"><ele>183.33333333333334</ele><time>2026-04-25T07:58:59.836Z</time></trkpt><trkpt lat="45.94908991653599" lon="12.122853399222004"><ele>183.66666666666669</ele><time>2026-04-25T07:59:01.836Z</time></trkpt><trkpt lat="45.949158783275976" lon="12.122859514556092"><ele>184.0</ele><time>2026-04-25T07:59:02.836Z</time></trkpt><trkpt lat="45.94922611097913" lon="12.122862444857608"><ele>184.6</ele><time>2026-04-25T07:59:03.836Z</time></trkpt><trkpt lat="45.9493550244674" lon="12.122885738757027"><ele>185.2</ele><time>2026-04-25T07:59:05.836Z</time></trkpt><trkpt lat="45.949426036798336" lon="12.12289530462982"><ele>185.79999999999998</ele><time>2026-04-25T07:59:06.836Z</time></trkpt><trkpt lat="45.94954809232133" lon="12.122924191340699"><ele>186.39999999999998</ele><time>2026-04-25T07:59:08.836Z</time></trkpt><trkpt lat="45.949610891880035" lon="12.122937708860965"><ele>187.0</ele><time>2026-04-25T07:59:09.836Z</time></trkpt><trkpt lat="45.949676978195505" lon="12.122950569892197"><ele>187.0</ele><time>2026-04-25T07:59:10.836Z</time></trkpt><trkpt lat="45.949741667381005" lon="12.122957030750943"><ele>187.0</ele><time>2026-04-25T07:59:11.836Z</time></trkpt><trkpt lat="45.949864243709264" lon="12.122972968473983"><ele>187.0</ele><time>2026-04-25T07:59:13.836Z</time></trkpt><trkpt lat="45.94993446905713" lon="12.122979328677475"><ele>187.0</ele><time>2026-04-25T07:59:14.836Z</time></trkpt><trkpt lat="45.950003428975506" lon="12.122981005341314"><ele>187.0</ele><time>2026-04-25T07:59:15.836Z</time></trkpt><trkpt lat="45.95007050728317" lon="12.122995033257137"><ele>187.0</ele><time>2026-04-25T07:59:16.836Z</time></trkpt><trkpt lat="45.95013402430452" lon="12.123006781334546"><ele>187.2</ele><time>2026-04-25T07:59:17.836Z</time></trkpt><trkpt lat="45.95025808920068" lon="12.12302640029366"><ele>187.39999999999998</ele><time>2026-04-25T07:59:19.836Z</time></trkpt><trkpt lat="45.95037055772641" lon="12.123028055951513"><ele>187.60000000000002</ele><time>2026-04-25T07:59:21.836Z</time></trkpt><trkpt lat="45.95047826504445" lon="12.123042685704764"><ele>187.8</ele><time>2026-04-25T07:59:23.836Z</time></trkpt><trkpt lat="45.950550062760115" lon="12.123083132397422"><ele>188.0</ele><time>2026-04-25T07:59:25.836Z</time></trkpt><trkpt lat="45.95058000562459" lon="12.123199965611528"><ele>188.0</ele><time>2026-04-25T07:59:27.836Z</time></trkpt><trkpt lat="45.9505679397502" lon="12.123299734330502"><ele>188.0</ele><time>2026-04-25T07:59:28.836Z</time></trkpt><trkpt lat="45.95054355997535" lon="12.123477906587093"><ele>188.0</ele><time>2026-04-25T07:59:30.836Z</time></trkpt><trkpt lat="45.95054804116005" lon="12.12357367071815"><ele>188.0</ele><time>2026-04-25T07:59:31.836Z</time></trkpt><trkpt lat="45.95057415970484" lon="12.123662260717856"><ele>188.0</ele><time>2026-04-25T07:59:32.836Z</time></trkpt><trkpt lat="45.950596653180995" lon="12.123748193989467"><ele>188.0</ele><time>2026-04-25T07:59:33.836Z</time></trkpt><trkpt lat="45.95062290849924" lon="12.123835850331297"><ele>188.0</ele><time>2026-04-25T07:59:34.836Z</time></trkpt><trkpt lat="45.950644227418024" lon="12.123929052648903"><ele>188.0</ele><time>2026-04-25T07:59:35.836Z</time></trkpt><trkpt lat="45.95066562406038" lon="12.124027425750894"><ele>188.0</ele><time>2026-04-25T07:59:36.836Z</time></trkpt><trkpt lat="45.950689313975786" lon="12.124125776147833"><ele>188.0</ele><time>2026-04-25T07:59:37.836Z</time></trkpt><trkpt lat="45.95071945911506" lon="12.124210058167325"><ele>188.0</ele><time>2026-04-25T07:59:38.836Z</time></trkpt><trkpt lat="45.95079266557454" lon="12.124365215041164"><ele>188.0</ele><time>2026-04-25T07:59:40.836Z</time></trkpt><trkpt lat="45.950839532463064" lon="12.124433565729838"><ele>188.2</ele><time>2026-04-25T07:59:41.836Z</time></trkpt><trkpt lat="45.95088778923015" lon="12.124499031533524"><ele>188.4</ele><time>2026-04-25T07:59:42.836Z</time></trkpt><trkpt lat="45.9509650645922" lon="12.124652031517185"><ele>188.6</ele><time>2026-04-25T07:59:44.836Z</time></trkpt><trkpt lat="45.950995044999395" lon="12.124741369767099"><ele>188.79999999999998</ele><time>2026-04-25T07:59:45.836Z</time></trkpt><trkpt lat="45.951054357761095" lon="12.124884861131624"><ele>189.0</ele><time>2026-04-25T07:59:47.836Z</time></trkpt><trkpt lat="45.95113314470514" lon="12.125030960962766"><ele>189.0</ele><time>2026-04-25T07:59:49.836Z</time></trkpt><trkpt lat="45.95123307666959" lon="12.125132343085426"><ele>189.0</ele><time>2026-04-25T07:59:51.836Z</time></trkpt><trkpt lat="45.951336959542466" lon="12.125151248753177"><ele>189.0</ele><time>2026-04-25T07:59:53.836Z</time></trkpt><trkpt lat="45.951401027957715" lon="12.125158545643641"><ele>189.0</ele><time>2026-04-25T07:59:54.836Z</time></trkpt><trkpt lat="45.95145287673277" lon="12.125228176797323"><ele>189.0</ele><time>2026-04-25T07:59:55.836Z</time></trkpt><trkpt lat="45.95151423161939" lon="12.125367967339463"><ele>189.0</ele><time>2026-04-25T07:59:57.836Z</time></trkpt><trkpt lat="45.95155393520534" lon="12.125497608013122"><ele>189.0</ele><time>2026-04-25T07:59:59.836Z</time></trkpt><trkpt lat="45.95162990243525" lon="12.125613086774072"><ele>189.0</ele><time>2026-04-25T08:00:01.837Z</time></trkpt><trkpt lat="45.95172120344077" lon="12.125718453675612"><ele>189.0</ele><time>2026-04-25T08:00:03.837Z</time></trkpt><trkpt lat="45.951806518216564" lon="12.125796649992218"><ele>189.0</ele><time>2026-04-25T08:00:05.837Z</time></trkpt><trkpt lat="45.95190568390847" lon="12.125876572350629"><ele>189.25</ele><time>2026-04-25T08:00:07.837Z</time></trkpt><trkpt lat="45.95200436997929" lon="12.125968753953625"><ele>189.5</ele><time>2026-04-25T08:00:09.837Z</time></trkpt><trkpt lat="45.952083429547166" lon="12.126086238786971"><ele>189.75</ele><time>2026-04-25T08:00:11.837Z</time></trkpt><trkpt lat="45.95217033802366" lon="12.126202361114398"><ele>190.0</ele><time>2026-04-25T08:00:13.837Z</time></trkpt><trkpt lat="45.95225189385722" lon="12.126292197013761"><ele>190.0</ele><time>2026-04-25T08:00:15.837Z</time></trkpt><trkpt lat="45.95234142875384" lon="12.126398698872604"><ele>190.0</ele><time>2026-04-25T08:00:17.837Z</time></trkpt><trkpt lat="45.952451614470135" lon="12.126454633544686"><ele>190.0</ele><time>2026-04-25T08:00:19.837Z</time></trkpt><trkpt lat="45.95256439970249" lon="12.126465682035025"><ele>190.0</ele><time>2026-04-25T08:00:21.837Z</time></trkpt><trkpt lat="45.9526723751399" lon="12.126469287783149"><ele>190.4</ele><time>2026-04-25T08:00:23.837Z</time></trkpt><trkpt lat="45.952785325723596" lon="12.12647289014131"><ele>190.8</ele><time>2026-04-25T08:00:25.837Z</time></trkpt><trkpt lat="45.95289308762104" lon="12.126481519132948"><ele>191.2</ele><time>2026-04-25T08:00:27.837Z</time></trkpt><trkpt lat="45.952944469306175" lon="12.126543021122773"><ele>191.6</ele><time>2026-04-25T08:00:28.837Z</time></trkpt><trkpt lat="45.953056280990594" lon="12.126557941035086"><ele>192.0</ele><time>2026-04-25T08:00:30.837Z</time></trkpt><trkpt lat="45.95314921876854" lon="12.126533710162509"><ele>192.0</ele><time>2026-04-25T08:00:32.837Z</time></trkpt><trkpt lat="45.9532458514837" lon="12.126509066097965"><ele>192.0</ele><time>2026-04-25T08:00:34.837Z</time></trkpt><trkpt lat="45.95333152711959" lon="12.126526473680688"><ele>192.0</ele><time>2026-04-25T08:00:36.837Z</time></trkpt><trkpt lat="45.95342246531991" lon="12.126534653584981"><ele>192.0</ele><time>2026-04-25T08:00:38.837Z</time></trkpt><trkpt lat="45.95351628496896" lon="12.126529807071684"><ele>192.0</ele><time>2026-04-25T08:00:40.837Z</time></trkpt><trkpt lat="45.953612589036105" lon="12.126510123787419"><ele>192.5</ele><time>2026-04-25T08:00:42.837Z</time></trkpt><trkpt lat="45.95367589425764" lon="12.126497398884387"><ele>193.0</ele><time>2026-04-25T08:00:43.837Z</time></trkpt><trkpt lat="45.953782824601504" lon="12.126464992968584"><ele>193.5</ele><time>2026-04-25T08:00:45.837Z</time></trkpt><trkpt lat="45.95388251797932" lon="12.126425879568359"><ele>194.0</ele><time>2026-04-25T08:00:47.837Z</time></trkpt><trkpt lat="45.95396546668706" lon="12.126391320975909"><ele>194.5</ele><time>2026-04-25T08:00:49.837Z</time></trkpt><trkpt lat="45.954048153247506" lon="12.12637039908866"><ele>195.0</ele><time>2026-04-25T08:00:51.837Z</time></trkpt><trkpt lat="45.95411660564956" lon="12.126323363817601"><ele>195.0</ele><time>2026-04-25T08:00:53.837Z</time></trkpt><trkpt lat="45.95419796291451" lon="12.126284783241221"><ele>195.0</ele><time>2026-04-25T08:00:56.837Z</time></trkpt><trkpt lat="45.95425849709126" lon="12.126363065478742"><ele>195.0</ele><time>2026-04-25T08:00:58.836Z</time></trkpt><trkpt lat="45.95429100964089" lon="12.126480643723852"><ele>195.0</ele><time>2026-04-25T08:01:00.836Z</time></trkpt><trkpt lat="45.95433279403987" lon="12.126620540299552"><ele>195.0</ele><time>2026-04-25T08:01:02.836Z</time></trkpt><trkpt lat="45.954375917661295" lon="12.126742063777893"><ele>195.8</ele><time>2026-04-25T08:01:04.836Z</time></trkpt><trkpt lat="45.95441778513188" lon="12.126866490260932"><ele>196.6</ele><time>2026-04-25T08:01:06.836Z</time></trkpt><trkpt lat="45.95445895237765" lon="12.126994790378925"><ele>197.39999999999998</ele><time>2026-04-25T08:01:08.836Z</time></trkpt><trkpt lat="45.95449952759859" lon="12.127136179182122"><ele>198.2</ele><time>2026-04-25T08:01:10.836Z</time></trkpt><trkpt lat="45.95453560239534" lon="12.12728410431098"><ele>199.0</ele><time>2026-04-25T08:01:12.836Z</time></trkpt><trkpt lat="45.95457964177349" lon="12.12743522486478"><ele>199.75</ele><time>2026-04-25T08:01:14.836Z</time></trkpt><trkpt lat="45.954622079697984" lon="12.12758848633778"><ele>200.5</ele><time>2026-04-25T08:01:16.836Z</time></trkpt><trkpt lat="45.95466163789562" lon="12.127748338853316"><ele>201.25</ele><time>2026-04-25T08:01:18.836Z</time></trkpt><trkpt lat="45.95468034942062" lon="12.127898063937304"><ele>202.0</ele><time>2026-04-25T08:01:20.836Z</time></trkpt><trkpt lat="45.95468710581315" lon="12.128065639951334"><ele>202.0</ele><time>2026-04-25T08:01:22.836Z</time></trkpt><trkpt lat="45.954693718476285" lon="12.128219370684008"><ele>202.0</ele><time>2026-04-25T08:01:24.836Z</time></trkpt><trkpt lat="45.954716415937796" lon="12.128379776982168"><ele>202.0</ele><time>2026-04-25T08:01:26.836Z</time></trkpt><trkpt lat="45.95474688298673" lon="12.128530795182334"><ele>202.0</ele><time>2026-04-25T08:01:28.836Z</time></trkpt><trkpt lat="45.95479992127366" lon="12.128670721358473"><ele>202.0</ele><time>2026-04-25T08:01:30.836Z</time></trkpt><trkpt lat="45.9548549621522" lon="12.128824268686275"><ele>202.39999999999998</ele><time>2026-04-25T08:01:32.836Z</time></trkpt><trkpt lat="45.95491861244742" lon="12.128965758722776"><ele>202.79999999999998</ele><time>2026-04-25T08:01:34.836Z</time></trkpt><trkpt lat="45.95495705142583" lon="12.129044576181517"><ele>203.2</ele><time>2026-04-25T08:01:35.836Z</time></trkpt><trkpt lat="45.955022532419335" lon="12.12918371708961"><ele>203.6</ele><time>2026-04-25T08:01:37.836Z</time></trkpt><trkpt lat="45.955089255299896" lon="12.129319453014709"><ele>204.0</ele><time>2026-04-25T08:01:39.836Z</time></trkpt><trkpt lat="45.95516225779424" lon="12.129442193539123"><ele>204.0</ele><time>2026-04-25T08:01:41.836Z</time></trkpt><trkpt lat="45.95523302381418" lon="12.129549863080921"><ele>204.0</ele><time>2026-04-25T08:01:43.836Z</time></trkpt><trkpt lat="45.95529574854933" lon="12.12968537672939"><ele>204.0</ele><time>2026-04-25T08:01:45.836Z</time></trkpt><trkpt lat="45.95533921539408" lon="12.129816426269356"><ele>204.0</ele><time>2026-04-25T08:01:47.836Z</time></trkpt><trkpt lat="45.955382322168326" lon="12.129954623151509"><ele>204.0</ele><time>2026-04-25T08:01:49.836Z</time></trkpt><trkpt lat="45.95543176348465" lon="12.130099671418373"><ele>204.0</ele><time>2026-04-25T08:01:51.836Z</time></trkpt><trkpt lat="45.9554886865397" lon="12.130236114672783"><ele>204.0</ele><time>2026-04-25T08:01:53.836Z</time></trkpt><trkpt lat="45.95554497711978" lon="12.130375780798856"><ele>204.0</ele><time>2026-04-25T08:01:55.836Z</time></trkpt><trkpt lat="45.955596400446936" lon="12.130522810847285"><ele>204.0</ele><time>2026-04-25T08:01:57.836Z</time></trkpt><trkpt lat="45.95564944791616" lon="12.130657383654471"><ele>204.0</ele><time>2026-04-25T08:01:59.836Z</time></trkpt><trkpt lat="45.95570206349214" lon="12.130793728035165"><ele>205.0</ele><time>2026-04-25T08:02:01.836Z</time></trkpt><trkpt lat="45.955739946913944" lon="12.130951914832124"><ele>206.0</ele><time>2026-04-25T08:02:03.836Z</time></trkpt><trkpt lat="45.95578813738938" lon="12.131089368682181"><ele>207.0</ele><time>2026-04-25T08:02:05.836Z</time></trkpt><trkpt lat="45.955839222532894" lon="12.13123222241533"><ele>208.0</ele><time>2026-04-25T08:02:07.836Z</time></trkpt><trkpt lat="45.955901306825645" lon="12.131367833642196"><ele>209.0</ele><time>2026-04-25T08:02:09.836Z</time></trkpt><trkpt lat="45.955970409913235" lon="12.131508465341339"><ele>209.33333333333334</ele><time>2026-04-25T08:02:11.836Z</time></trkpt><trkpt lat="45.95601161427232" lon="12.131579578218565"><ele>209.66666666666669</ele><time>2026-04-25T08:02:12.836Z</time></trkpt><trkpt lat="45.956091213833446" lon="12.131709421978092"><ele>210.0</ele><time>2026-04-25T08:02:14.836Z</time></trkpt><trkpt lat="45.95612736556178" lon="12.131788596395609"><ele>210.33333333333331</ele><time>2026-04-25T08:02:15.836Z</time></trkpt><trkpt lat="45.95616122349626" lon="12.13186679486909"><ele>210.66666666666666</ele><time>2026-04-25T08:02:16.836Z</time></trkpt><trkpt lat="45.95622438911153" lon="12.132020713926192"><ele>211.0</ele><time>2026-04-25T08:02:18.836Z</time></trkpt><trkpt lat="45.956255510758886" lon="12.132099921728551"><ele>211.0</ele><time>2026-04-25T08:02:19.836Z</time></trkpt><trkpt lat="45.95628916020575" lon="12.132180799847644"><ele>211.0</ele><time>2026-04-25T08:02:20.836Z</time></trkpt><trkpt lat="45.9563622261904" lon="12.132322730939485"><ele>211.0</ele><time>2026-04-25T08:02:22.836Z</time></trkpt><trkpt lat="45.95646170321507" lon="12.132434809777282"><ele>211.0</ele><time>2026-04-25T08:02:24.836Z</time></trkpt><trkpt lat="45.95651355101104" lon="12.132493055799022"><ele>211.0</ele><time>2026-04-25T08:02:25.836Z</time></trkpt><trkpt lat="45.95661262874685" lon="12.132594751494725"><ele>211.14285714285714</ele><time>2026-04-25T08:02:27.836Z</time></trkpt><trkpt lat="45.95666362386489" lon="12.132653402863209"><ele>211.28571428571428</ele><time>2026-04-25T08:02:28.836Z</time></trkpt><trkpt lat="45.956759255995046" lon="12.132764243714023"><ele>211.42857142857144</ele><time>2026-04-25T08:02:30.836Z</time></trkpt><trkpt lat="45.95681086144523" lon="12.132819859662622"><ele>211.57142857142856</ele><time>2026-04-25T08:02:31.836Z</time></trkpt><trkpt lat="45.95686235815886" lon="12.132875853232134"><ele>211.7142857142857</ele><time>2026-04-25T08:02:32.836Z</time></trkpt><trkpt lat="45.95691230121367" lon="12.132933278347792"><ele>211.85714285714286</ele><time>2026-04-25T08:02:33.836Z</time></trkpt><trkpt lat="45.95696072760113" lon="12.133001080541755"><ele>212.0</ele><time>2026-04-25T08:02:34.836Z</time></trkpt><trkpt lat="45.95700476865173" lon="12.133073560217335"><ele>212.00000000000003</ele><time>2026-04-25T08:02:35.836Z</time></trkpt><trkpt lat="45.95704827480449" lon="12.133144133867988"><ele>212.0</ele><time>2026-04-25T08:02:36.836Z</time></trkpt><trkpt lat="45.95712006988701" lon="12.133289435829873"><ele>212.0</ele><time>2026-04-25T08:02:38.836Z</time></trkpt><trkpt lat="45.957154090326455" lon="12.133374412697075"><ele>212.0</ele><time>2026-04-25T08:02:39.836Z</time></trkpt><trkpt lat="45.95719328650498" lon="12.133458867332617"><ele>212.00000000000003</ele><time>2026-04-25T08:02:40.836Z</time></trkpt><trkpt lat="45.95722851447761" lon="12.13354595023494"><ele>212.0</ele><time>2026-04-25T08:02:41.836Z</time></trkpt><trkpt lat="45.957264795787964" lon="12.133631997740734"><ele>212.00000000000003</ele><time>2026-04-25T08:02:42.836Z</time></trkpt><trkpt lat="45.957327299342964" lon="12.133793828890502"><ele>212.0</ele><time>2026-04-25T08:02:44.835Z</time></trkpt><trkpt lat="45.957356251637734" lon="12.13387960055235"><ele>212.0</ele><time>2026-04-25T08:02:45.835Z</time></trkpt><trkpt lat="45.957384963334974" lon="12.133962775277165"><ele>212.0</ele><time>2026-04-25T08:02:46.835Z</time></trkpt><trkpt lat="45.9574124513374" lon="12.134044627216829"><ele>212.00000000000003</ele><time>2026-04-25T08:02:47.835Z</time></trkpt><trkpt lat="45.95744417631231" lon="12.13412453420609"><ele>212.0</ele><time>2026-04-25T08:02:48.835Z</time></trkpt><trkpt lat="45.95746218746636" lon="12.134217051796572"><ele>212.0</ele><time>2026-04-25T08:02:49.835Z</time></trkpt><trkpt lat="45.95748288778951" lon="12.134307491723447"><ele>212.0</ele><time>2026-04-25T08:02:50.835Z</time></trkpt><trkpt lat="45.957509923005695" lon="12.134393307686373"><ele>212.0</ele><time>2026-04-25T08:02:51.835Z</time></trkpt><trkpt lat="45.95753307714327" lon="12.13448354613204"><ele>212.0</ele><time>2026-04-25T08:02:52.835Z</time></trkpt><trkpt lat="45.957553153774235" lon="12.134572564430862"><ele>212.0</ele><time>2026-04-25T08:02:53.835Z</time></trkpt><trkpt lat="45.957568546427886" lon="12.134660642352262"><ele>212.0</ele><time>2026-04-25T08:02:54.835Z</time></trkpt><trkpt lat="45.957584887165794" lon="12.13475012867556"><ele>212.0</ele><time>2026-04-25T08:02:55.835Z</time></trkpt><trkpt lat="45.957620254794215" lon="12.13492524297008"><ele>212.6</ele><time>2026-04-25T08:02:57.835Z</time></trkpt><trkpt lat="45.957653554807074" lon="12.13509166006384"><ele>213.2</ele><time>2026-04-25T08:02:59.835Z</time></trkpt><trkpt lat="45.95767098016721" lon="12.135179029906395"><ele>213.8</ele><time>2026-04-25T08:03:00.835Z</time></trkpt><trkpt lat="45.95769916913907" lon="12.135342669647466"><ele>214.4</ele><time>2026-04-25T08:03:02.835Z</time></trkpt><trkpt lat="45.957735207218036" lon="12.135506407029236"><ele>215.0</ele><time>2026-04-25T08:03:04.835Z</time></trkpt><trkpt lat="45.95778706600157" lon="12.135667060732894"><ele>214.85714285714286</ele><time>2026-04-25T08:03:06.835Z</time></trkpt><trkpt lat="45.95781723632924" lon="12.135750902904098"><ele>214.71428571428572</ele><time>2026-04-25T08:03:07.835Z</time></trkpt><trkpt lat="45.95785727723592" lon="12.135833726827402"><ele>214.57142857142858</ele><time>2026-04-25T08:03:08.835Z</time></trkpt><trkpt lat="45.95789743526196" lon="12.13591303918831"><ele>214.42857142857144</ele><time>2026-04-25T08:03:09.835Z</time></trkpt><trkpt lat="45.95793407484686" lon="12.135999922267178"><ele>214.28571428571428</ele><time>2026-04-25T08:03:10.835Z</time></trkpt><trkpt lat="45.957965991806226" lon="12.136085063624034"><ele>214.14285714285717</ele><time>2026-04-25T08:03:11.835Z</time></trkpt><trkpt lat="45.95799213289921" lon="12.136170295278182"><ele>214.0</ele><time>2026-04-25T08:03:12.835Z</time></trkpt><trkpt lat="45.95801576590556" lon="12.13625782240446"><ele>214.00000000000003</ele><time>2026-04-25T08:03:13.835Z</time></trkpt><trkpt lat="45.958050084018936" lon="12.136343861536732"><ele>214.0</ele><time>2026-04-25T08:03:14.835Z</time></trkpt><trkpt lat="45.958084379076226" lon="12.136440711696666"><ele>214.0</ele><time>2026-04-25T08:03:15.835Z</time></trkpt><trkpt lat="45.958119374123875" lon="12.136527761314058"><ele>214.0</ele><time>2026-04-25T08:03:16.835Z</time></trkpt><trkpt lat="45.95815580479694" lon="12.136620781104822"><ele>214.0</ele><time>2026-04-25T08:03:17.835Z</time></trkpt><trkpt lat="45.95819453160031" lon="12.136705876098977"><ele>214.00000000000003</ele><time>2026-04-25T08:03:18.835Z</time></trkpt><trkpt lat="45.95822833310657" lon="12.136793047526098"><ele>214.0</ele><time>2026-04-25T08:03:19.835Z</time></trkpt><trkpt lat="45.95825861691982" lon="12.136887451928441"><ele>214.00000000000003</ele><time>2026-04-25T08:03:20.835Z</time></trkpt><trkpt lat="45.95828687260366" lon="12.136979037822867"><ele>214.0</ele><time>2026-04-25T08:03:21.835Z</time></trkpt><trkpt lat="45.95831858007616" lon="12.13706715707358"><ele>214.0</ele><time>2026-04-25T08:03:22.835Z</time></trkpt><trkpt lat="45.9583510841607" lon="12.137154833917187"><ele>214.0</ele><time>2026-04-25T08:03:23.835Z</time></trkpt><trkpt lat="45.95838484283377" lon="12.137246956087964"><ele>214.0</ele><time>2026-04-25T08:03:24.835Z</time></trkpt><trkpt lat="45.95841509610352" lon="12.137349612107633"><ele>214.00000000000003</ele><time>2026-04-25T08:03:25.835Z</time></trkpt><trkpt lat="45.958452271698945" lon="12.137433305360755"><ele>214.0</ele><time>2026-04-25T08:03:26.835Z</time></trkpt><trkpt lat="45.95848780102798" lon="12.137518285329902"><ele>214.14285714285717</ele><time>2026-04-25T08:03:27.835Z</time></trkpt><trkpt lat="45.95852578250145" lon="12.137606302999165"><ele>214.28571428571428</ele><time>2026-04-25T08:03:28.835Z</time></trkpt><trkpt lat="45.95855757524512" lon="12.137701228321092"><ele>214.42857142857144</ele><time>2026-04-25T08:03:29.835Z</time></trkpt><trkpt lat="45.95858832331582" lon="12.137799456757492"><ele>214.57142857142858</ele><time>2026-04-25T08:03:30.835Z</time></trkpt><trkpt lat="45.95861425438969" lon="12.137897090918312"><ele>214.71428571428572</ele><time>2026-04-25T08:03:31.835Z</time></trkpt><trkpt lat="45.958653784317534" lon="12.137986248590789"><ele>214.85714285714286</ele><time>2026-04-25T08:03:32.835Z</time></trkpt><trkpt lat="45.95868883881253" lon="12.13807561480844"><ele>215.0</ele><time>2026-04-25T08:03:33.835Z</time></trkpt><trkpt lat="45.95872702355536" lon="12.13816234114119"><ele>215.0</ele><time>2026-04-25T08:03:34.835Z</time></trkpt><trkpt lat="45.95877119093602" lon="12.138240875900815"><ele>215.0</ele><time>2026-04-25T08:03:35.835Z</time></trkpt><trkpt lat="45.95882272796409" lon="12.138317578239475"><ele>215.0</ele><time>2026-04-25T08:03:36.835Z</time></trkpt><trkpt lat="45.95887214655249" lon="12.13839177900866"><ele>215.0</ele><time>2026-04-25T08:03:37.835Z</time></trkpt><trkpt lat="45.958916829448206" lon="12.138473014104006"><ele>215.0</ele><time>2026-04-25T08:03:38.835Z</time></trkpt><trkpt lat="45.958958434965794" lon="12.138564504528238"><ele>215.0</ele><time>2026-04-25T08:03:39.835Z</time></trkpt><trkpt lat="45.95899701197037" lon="12.138648097645193"><ele>215.0</ele><time>2026-04-25T08:03:40.835Z</time></trkpt><trkpt lat="45.95904027075426" lon="12.138743409249239"><ele>215.0</ele><time>2026-04-25T08:03:41.835Z</time></trkpt><trkpt lat="45.959083736513854" lon="12.13882377817964"><ele>215.0</ele><time>2026-04-25T08:03:42.835Z</time></trkpt><trkpt lat="45.95912655725197" lon="12.13891267818028"><ele>215.0</ele><time>2026-04-25T08:03:43.835Z</time></trkpt><trkpt lat="45.95917215446373" lon="12.138996299926973"><ele>215.0</ele><time>2026-04-25T08:03:44.835Z</time></trkpt><trkpt lat="45.95921506601958" lon="12.139070137331213"><ele>215.0</ele><time>2026-04-25T08:03:45.835Z</time></trkpt><trkpt lat="45.95926353388099" lon="12.139154333762571"><ele>215.0</ele><time>2026-04-25T08:03:46.835Z</time></trkpt><trkpt lat="45.9593119108059" lon="12.139232831748583"><ele>215.0</ele><time>2026-04-25T08:03:47.835Z</time></trkpt><trkpt lat="45.959366855776345" lon="12.139312568823652"><ele>215.16666666666669</ele><time>2026-04-25T08:03:48.835Z</time></trkpt><trkpt lat="45.95942068033995" lon="12.139391375071314"><ele>215.33333333333334</ele><time>2026-04-25T08:03:49.835Z</time></trkpt><trkpt lat="45.959480125436706" lon="12.139478922641969"><ele>215.5</ele><time>2026-04-25T08:03:50.835Z</time></trkpt><trkpt lat="45.95953257207123" lon="12.139576805249774"><ele>215.66666666666669</ele><time>2026-04-25T08:03:51.835Z</time></trkpt><trkpt lat="45.95958101132135" lon="12.139680309871228"><ele>215.83333333333334</ele><time>2026-04-25T08:03:52.835Z</time></trkpt><trkpt lat="45.95963058650891" lon="12.139787366251245"><ele>216.0</ele><time>2026-04-25T08:03:53.835Z</time></trkpt><trkpt lat="45.95966762769771" lon="12.139905775239422"><ele>216.0</ele><time>2026-04-25T08:03:54.835Z</time></trkpt><trkpt lat="45.95970366395767" lon="12.140033823046176"><ele>216.00000000000003</ele><time>2026-04-25T08:03:55.835Z</time></trkpt><trkpt lat="45.959746252170376" lon="12.1401528810308"><ele>216.00000000000003</ele><time>2026-04-25T08:03:56.835Z</time></trkpt><trkpt lat="45.9597981960729" lon="12.140272225332152"><ele>216.0</ele><time>2026-04-25T08:03:57.835Z</time></trkpt><trkpt lat="45.95985661338202" lon="12.140360217206073"><ele>216.0</ele><time>2026-04-25T08:03:58.835Z</time></trkpt><trkpt lat="45.959913926665344" lon="12.140439418322801"><ele>216.0</ele><time>2026-04-25T08:03:59.835Z</time></trkpt><trkpt lat="45.95996899641177" lon="12.14052484926813"><ele>216.0</ele><time>2026-04-25T08:04:00.835Z</time></trkpt><trkpt lat="45.960021199336296" lon="12.140601184417307"><ele>216.0</ele><time>2026-04-25T08:04:01.835Z</time></trkpt><trkpt lat="45.960071290061585" lon="12.140671156242048"><ele>216.0</ele><time>2026-04-25T08:04:02.835Z</time></trkpt><trkpt lat="45.960123428339" lon="12.140746181978757"><ele>216.0</ele><time>2026-04-25T08:04:03.835Z</time></trkpt><trkpt lat="45.96017204777502" lon="12.140816821714624"><ele>216.0</ele><time>2026-04-25T08:04:04.835Z</time></trkpt><trkpt lat="45.96021165797091" lon="12.140896024818073"><ele>216.0</ele><time>2026-04-25T08:04:05.835Z</time></trkpt><trkpt lat="45.960245878210955" lon="12.140972802471712"><ele>216.20000000000002</ele><time>2026-04-25T08:04:06.835Z</time></trkpt><trkpt lat="45.9603043220654" lon="12.141130430613781"><ele>216.40000000000003</ele><time>2026-04-25T08:04:08.834Z</time></trkpt><trkpt lat="45.960353649788985" lon="12.141276458465633"><ele>216.6</ele><time>2026-04-25T08:04:10.834Z</time></trkpt><trkpt lat="45.96039877412895" lon="12.141368296478495"><ele>216.8</ele><time>2026-04-25T08:04:12.834Z</time></trkpt><trkpt lat="45.96044271860676" lon="12.141471230390652"><ele>217.0</ele><time>2026-04-25T08:04:14.836Z</time></trkpt><trkpt lat="45.96049517046365" lon="12.141553077391901"><ele>216.99999999999997</ele><time>2026-04-25T08:04:16.835Z</time></trkpt><trkpt lat="45.960547464504444" lon="12.141639309663898"><ele>217.0</ele><time>2026-04-25T08:04:18.836Z</time></trkpt><trkpt lat="45.960613037063254" lon="12.141738045796874"><ele>217.0</ele><time>2026-04-25T08:04:21.836Z</time></trkpt><trkpt lat="45.960660313812376" lon="12.14182246376495"><ele>217.0</ele><time>2026-04-25T08:04:23.835Z</time></trkpt><trkpt lat="45.96071271307416" lon="12.141905087784826"><ele>216.99999999999997</ele><time>2026-04-25T08:04:25.835Z</time></trkpt><trkpt lat="45.96076881922133" lon="12.141999805011103"><ele>217.0</ele><time>2026-04-25T08:04:27.836Z</time></trkpt><trkpt lat="45.96082335959113" lon="12.142095083023715"><ele>217.0</ele><time>2026-04-25T08:04:29.836Z</time></trkpt><trkpt lat="45.96084873719765" lon="12.142185490445884"><ele>217.0</ele><time>2026-04-25T08:04:31.836Z</time></trkpt><trkpt lat="45.96082771204158" lon="12.142297522443693"><ele>217.0</ele><time>2026-04-25T08:04:33.836Z</time></trkpt><trkpt lat="45.96084253338339" lon="12.14240558419088"><ele>217.0</ele><time>2026-04-25T08:04:36.836Z</time></trkpt><trkpt lat="45.96090586229248" lon="12.142453196036234"><ele>217.0</ele><time>2026-04-25T08:04:39.836Z</time></trkpt><trkpt lat="45.96090255750642" lon="12.142559015478916"><ele>217.0</ele><time>2026-04-25T08:04:42.836Z</time></trkpt><trkpt lat="45.96090721341957" lon="12.142672290832378"><ele>217.0</ele><time>2026-04-25T08:04:44.836Z</time></trkpt><trkpt lat="45.960872746713505" lon="12.143055784102028"><ele>218.39999999999998</ele><time>2026-04-25T08:04:46.836Z</time></trkpt><trkpt lat="45.960881905408705" lon="12.143204293427777"><ele>219.79999999999998</ele><time>2026-04-25T08:04:47.836Z</time></trkpt><trkpt lat="45.96089124322885" lon="12.143342187973666"><ele>221.2</ele><time>2026-04-25T08:04:48.836Z</time></trkpt><trkpt lat="45.96091334545778" lon="12.143468362050825"><ele>222.6</ele><time>2026-04-25T08:04:49.836Z</time></trkpt><trkpt lat="45.9609599802078" lon="12.143595782663704"><ele>224.0</ele><time>2026-04-25T08:04:50.836Z</time></trkpt><trkpt lat="45.961002693544316" lon="12.14371681267623"><ele>224.00000000000003</ele><time>2026-04-25T08:04:51.836Z</time></trkpt><trkpt lat="45.96100907111882" lon="12.143848187412699"><ele>224.0</ele><time>2026-04-25T08:04:52.836Z</time></trkpt><trkpt lat="45.961035469010824" lon="12.143961774004527"><ele>224.0</ele><time>2026-04-25T08:04:53.836Z</time></trkpt><trkpt lat="45.96107048656026" lon="12.144073593295737"><ele>224.0</ele><time>2026-04-25T08:04:54.836Z</time></trkpt><trkpt lat="45.961116292044444" lon="12.144195542951175"><ele>224.00000000000003</ele><time>2026-04-25T08:04:55.836Z</time></trkpt><trkpt lat="45.96115784493494" lon="12.144298253270783"><ele>224.0</ele><time>2026-04-25T08:04:56.836Z</time></trkpt><trkpt lat="45.96120226484472" lon="12.144402335079326"><ele>223.16666666666669</ele><time>2026-04-25T08:04:57.836Z</time></trkpt><trkpt lat="45.961247106670314" lon="12.144506767337807"><ele>222.33333333333334</ele><time>2026-04-25T08:04:58.836Z</time></trkpt><trkpt lat="45.96128285557342" lon="12.144588967647218"><ele>221.5</ele><time>2026-04-25T08:04:59.836Z</time></trkpt><trkpt lat="45.96131856665444" lon="12.144675954326317"><ele>220.66666666666669</ele><time>2026-04-25T08:05:00.836Z</time></trkpt><trkpt lat="45.96138012966558" lon="12.14483637508561"><ele>219.83333333333334</ele><time>2026-04-25T08:05:02.836Z</time></trkpt><trkpt lat="45.96139985051267" lon="12.144925893365064"><ele>219.0</ele><time>2026-04-25T08:05:03.836Z</time></trkpt><trkpt lat="45.96143783078673" lon="12.145091159213283"><ele>219.0</ele><time>2026-04-25T08:05:05.836Z</time></trkpt><trkpt lat="45.961458824220344" lon="12.145281835313561"><ele>219.0</ele><time>2026-04-25T08:05:07.836Z</time></trkpt><trkpt lat="45.96146272907855" lon="12.145381903930614"><ele>219.0</ele><time>2026-04-25T08:05:08.835Z</time></trkpt><trkpt lat="45.96146690689443" lon="12.145478741852163"><ele>219.0</ele><time>2026-04-25T08:05:09.835Z</time></trkpt><trkpt lat="45.961474893066686" lon="12.145587689797699"><ele>219.0</ele><time>2026-04-25T08:05:10.835Z</time></trkpt><trkpt lat="45.96148999714241" lon="12.145703218092654"><ele>219.0</ele><time>2026-04-25T08:05:11.835Z</time></trkpt><trkpt lat="45.961500850598604" lon="12.145821198752968"><ele>219.0</ele><time>2026-04-25T08:05:12.835Z</time></trkpt><trkpt lat="45.961513117260864" lon="12.145935413644448"><ele>219.0</ele><time>2026-04-25T08:05:13.835Z</time></trkpt><trkpt lat="45.96152265043468" lon="12.146047625575857"><ele>219.0</ele><time>2026-04-25T08:05:14.835Z</time></trkpt><trkpt lat="45.96153385612192" lon="12.146143875310019"><ele>219.0</ele><time>2026-04-25T08:05:15.835Z</time></trkpt><trkpt lat="45.961545412448615" lon="12.1462603573903"><ele>219.0</ele><time>2026-04-25T08:05:16.835Z</time></trkpt><trkpt lat="45.96155206106005" lon="12.146378632142302"><ele>219.0</ele><time>2026-04-25T08:05:17.835Z</time></trkpt><trkpt lat="45.9615637437511" lon="12.146507872955034"><ele>219.0</ele><time>2026-04-25T08:05:18.835Z</time></trkpt><trkpt lat="45.96158055600794" lon="12.146629494119207"><ele>219.0</ele><time>2026-04-25T08:05:19.835Z</time></trkpt><trkpt lat="45.96159793067481" lon="12.146751566734512"><ele>219.0</ele><time>2026-04-25T08:05:20.835Z</time></trkpt><trkpt lat="45.96161720707007" lon="12.1468709010931"><ele>219.0</ele><time>2026-04-25T08:05:21.835Z</time></trkpt><trkpt lat="45.961637389382076" lon="12.14698219291298"><ele>219.0</ele><time>2026-04-25T08:05:22.835Z</time></trkpt><trkpt lat="45.961654044228375" lon="12.147084343469032"><ele>219.0</ele><time>2026-04-25T08:05:23.835Z</time></trkpt><trkpt lat="45.961677251064636" lon="12.147194889684426"><ele>219.0</ele><time>2026-04-25T08:05:24.835Z</time></trkpt><trkpt lat="45.96170520036455" lon="12.147298334421064"><ele>219.0</ele><time>2026-04-25T08:05:25.835Z</time></trkpt><trkpt lat="45.96173295107982" lon="12.147409944488826"><ele>219.0</ele><time>2026-04-25T08:05:26.835Z</time></trkpt><trkpt lat="45.961755573600975" lon="12.147519818855402"><ele>219.0</ele><time>2026-04-25T08:05:27.835Z</time></trkpt><trkpt lat="45.961770898722364" lon="12.147646714548626"><ele>219.0</ele><time>2026-04-25T08:05:28.835Z</time></trkpt><trkpt lat="45.96178540110516" lon="12.147765740283967"><ele>219.0</ele><time>2026-04-25T08:05:29.835Z</time></trkpt><trkpt lat="45.96180522353394" lon="12.14788404754017"><ele>219.0</ele><time>2026-04-25T08:05:30.835Z</time></trkpt><trkpt lat="45.96182493699761" lon="12.14800823443188"><ele>219.0</ele><time>2026-04-25T08:05:31.835Z</time></trkpt><trkpt lat="45.96184228211116" lon="12.148124832768424"><ele>219.0</ele><time>2026-04-25T08:05:32.835Z</time></trkpt><trkpt lat="45.961848780438864" lon="12.148236902645099"><ele>219.0</ele><time>2026-04-25T08:05:33.835Z</time></trkpt><trkpt lat="45.96185567098648" lon="12.14835023250425"><ele>219.0</ele><time>2026-04-25T08:05:34.835Z</time></trkpt><trkpt lat="45.961875213610725" lon="12.148465294767833"><ele>219.0</ele><time>2026-04-25T08:05:35.835Z</time></trkpt><trkpt lat="45.961908119110966" lon="12.148572858456378"><ele>218.83333333333334</ele><time>2026-04-25T08:05:36.835Z</time></trkpt><trkpt lat="45.96194713619488" lon="12.148675564288075"><ele>218.66666666666669</ele><time>2026-04-25T08:05:37.835Z</time></trkpt><trkpt lat="45.96198753487595" lon="12.148778145317431"><ele>218.5</ele><time>2026-04-25T08:05:38.835Z</time></trkpt><trkpt lat="45.96203043399448" lon="12.148882078249086"><ele>218.33333333333334</ele><time>2026-04-25T08:05:39.835Z</time></trkpt><trkpt lat="45.96206596125534" lon="12.148987744993459"><ele>218.16666666666669</ele><time>2026-04-25T08:05:40.835Z</time></trkpt><trkpt lat="45.96210600201717" lon="12.14908641316918"><ele>218.0</ele><time>2026-04-25T08:05:41.835Z</time></trkpt><trkpt lat="45.962157275454224" lon="12.14918539301792"><ele>218.16666666666669</ele><time>2026-04-25T08:05:42.835Z</time></trkpt><trkpt lat="45.962211652580216" lon="12.149270193191612"><ele>218.33333333333334</ele><time>2026-04-25T08:05:43.835Z</time></trkpt><trkpt lat="45.9622722857666" lon="12.149354873813854"><ele>218.5</ele><time>2026-04-25T08:05:44.835Z</time></trkpt><trkpt lat="45.96233968665056" lon="12.149438863642068"><ele>218.66666666666669</ele><time>2026-04-25T08:05:45.835Z</time></trkpt><trkpt lat="45.9624048874775" lon="12.149522552589273"><ele>218.83333333333334</ele><time>2026-04-25T08:05:46.835Z</time></trkpt><trkpt lat="45.962474136432945" lon="12.149607803503718"><ele>219.0</ele><time>2026-04-25T08:05:47.835Z</time></trkpt><trkpt lat="45.962534123074605" lon="12.149689711581813"><ele>219.0</ele><time>2026-04-25T08:05:48.835Z</time></trkpt><trkpt lat="45.962592288641346" lon="12.149789254505569"><ele>218.99999999999997</ele><time>2026-04-25T08:05:49.835Z</time></trkpt><trkpt lat="45.96264978382431" lon="12.149889629736505"><ele>218.99999999999997</ele><time>2026-04-25T08:05:50.835Z</time></trkpt><trkpt lat="45.962704218507916" lon="12.149988304237606"><ele>219.0</ele><time>2026-04-25T08:05:51.835Z</time></trkpt><trkpt lat="45.96273010661472" lon="12.15011725290134"><ele>219.0</ele><time>2026-04-25T08:05:52.835Z</time></trkpt><trkpt lat="45.96275180230434" lon="12.150254423653324"><ele>217.6</ele><time>2026-04-25T08:05:53.835Z</time></trkpt><trkpt lat="45.962761211364615" lon="12.150397921937508"><ele>216.2</ele><time>2026-04-25T08:05:54.835Z</time></trkpt><trkpt lat="45.9627738331041" lon="12.150542115604397"><ele>214.79999999999998</ele><time>2026-04-25T08:05:55.835Z</time></trkpt><trkpt lat="45.96279554938314" lon="12.150688704369312"><ele>213.39999999999998</ele><time>2026-04-25T08:05:56.835Z</time></trkpt><trkpt lat="45.96281618082143" lon="12.150819396266265"><ele>212.0</ele><time>2026-04-25T08:05:57.835Z</time></trkpt><trkpt lat="45.96283779074473" lon="12.150950484069885"><ele>212.0</ele><time>2026-04-25T08:05:58.835Z</time></trkpt><trkpt lat="45.9628662379091" lon="12.151079799346755"><ele>212.0</ele><time>2026-04-25T08:05:59.835Z</time></trkpt><trkpt lat="45.962906954006186" lon="12.151212207462095"><ele>212.0</ele><time>2026-04-25T08:06:00.835Z</time></trkpt><trkpt lat="45.962951849394095" lon="12.15134720035952"><ele>212.0</ele><time>2026-04-25T08:06:01.835Z</time></trkpt><trkpt lat="45.96299585722891" lon="12.151475503418215"><ele>212.0</ele><time>2026-04-25T08:06:02.835Z</time></trkpt><trkpt lat="45.963026301846234" lon="12.151614118830986"><ele>211.39999999999998</ele><time>2026-04-25T08:06:03.835Z</time></trkpt><trkpt lat="45.96304697688943" lon="12.151750808901047"><ele>210.79999999999998</ele><time>2026-04-25T08:06:04.835Z</time></trkpt><trkpt lat="45.963069875403114" lon="12.151890548105303"><ele>210.2</ele><time>2026-04-25T08:06:05.835Z</time></trkpt><trkpt lat="45.96309393729463" lon="12.152028545965724"><ele>209.6</ele><time>2026-04-25T08:06:06.835Z</time></trkpt><trkpt lat="45.96312649676736" lon="12.152169892442208"><ele>209.0</ele><time>2026-04-25T08:06:07.835Z</time></trkpt><trkpt lat="45.96316503679726" lon="12.15230206498473"><ele>209.2</ele><time>2026-04-25T08:06:08.835Z</time></trkpt><trkpt lat="45.96320781721416" lon="12.152433533831907"><ele>209.39999999999998</ele><time>2026-04-25T08:06:09.835Z</time></trkpt><trkpt lat="45.96325418583628" lon="12.15255978072547"><ele>209.6</ele><time>2026-04-25T08:06:10.835Z</time></trkpt><trkpt lat="45.96330343201897" lon="12.152691854956652"><ele>209.8</ele><time>2026-04-25T08:06:11.835Z</time></trkpt><trkpt lat="45.96335639510508" lon="12.152818563655682"><ele>210.0</ele><time>2026-04-25T08:06:12.835Z</time></trkpt><trkpt lat="45.96341405992135" lon="12.152938215894777"><ele>210.0</ele><time>2026-04-25T08:06:13.835Z</time></trkpt><trkpt lat="45.963472112709674" lon="12.153055956235407"><ele>210.0</ele><time>2026-04-25T08:06:14.835Z</time></trkpt><trkpt lat="45.96352416371493" lon="12.153179294855695"><ele>210.0</ele><time>2026-04-25T08:06:15.835Z</time></trkpt><trkpt lat="45.96357639500569" lon="12.153307053414993"><ele>210.0</ele><time>2026-04-25T08:06:16.835Z</time></trkpt><trkpt lat="45.963632199375944" lon="12.153419480654438"><ele>210.0</ele><time>2026-04-25T08:06:17.835Z</time></trkpt><trkpt lat="45.9636880483635" lon="12.153536516177601"><ele>209.8</ele><time>2026-04-25T08:06:18.835Z</time></trkpt><trkpt lat="45.963743586946876" lon="12.153652731366655"><ele>209.6</ele><time>2026-04-25T08:06:19.835Z</time></trkpt><trkpt lat="45.96379740836819" lon="12.153770550736018"><ele>209.39999999999998</ele><time>2026-04-25T08:06:20.835Z</time></trkpt><trkpt lat="45.9638537292821" lon="12.153877560729745"><ele>209.2</ele><time>2026-04-25T08:06:21.835Z</time></trkpt><trkpt lat="45.96389856608688" lon="12.153997608552416"><ele>209.0</ele><time>2026-04-25T08:06:22.835Z</time></trkpt><trkpt lat="45.963934092467085" lon="12.154127107279075"><ele>209.66666666666669</ele><time>2026-04-25T08:06:23.834Z</time></trkpt><trkpt lat="45.96396160906604" lon="12.15424608603516"><ele>210.33333333333334</ele><time>2026-04-25T08:06:24.834Z</time></trkpt><trkpt lat="45.96399736040093" lon="12.1543578123397"><ele>211.0</ele><time>2026-04-25T08:06:25.835Z</time></trkpt><trkpt lat="45.96404605999443" lon="12.154459658590241"><ele>211.66666666666669</ele><time>2026-04-25T08:06:26.835Z</time></trkpt><trkpt lat="45.96410287683163" lon="12.154548078302648"><ele>212.33333333333334</ele><time>2026-04-25T08:06:27.835Z</time></trkpt><trkpt lat="45.96416085480383" lon="12.154626769119384"><ele>213.0</ele><time>2026-04-25T08:06:28.835Z</time></trkpt><trkpt lat="45.9642203731957" lon="12.154704037607337"><ele>213.0</ele><time>2026-04-25T08:06:29.835Z</time></trkpt><trkpt lat="45.96428327477059" lon="12.154769946758556"><ele>213.0</ele><time>2026-04-25T08:06:30.835Z</time></trkpt><trkpt lat="45.96435037222779" lon="12.154812180493312"><ele>213.0</ele><time>2026-04-25T08:06:31.835Z</time></trkpt><trkpt lat="45.9644872980529" lon="12.154875007170329"><ele>213.0</ele><time>2026-04-25T08:06:33.835Z</time></trkpt><trkpt lat="45.96455063398047" lon="12.154907036289599"><ele>213.0</ele><time>2026-04-25T08:06:34.835Z</time></trkpt><trkpt lat="45.96461597751144" lon="12.154952593294627"><ele>213.0</ele><time>2026-04-25T08:06:35.835Z</time></trkpt><trkpt lat="45.964674780876784" lon="12.155011500619706"><ele>212.5</ele><time>2026-04-25T08:06:36.835Z</time></trkpt><trkpt lat="45.9647263707125" lon="12.15509552470038"><ele>212.0</ele><time>2026-04-25T08:06:37.835Z</time></trkpt><trkpt lat="45.96476841964895" lon="12.155187648289193"><ele>211.5</ele><time>2026-04-25T08:06:38.835Z</time></trkpt><trkpt lat="45.96480398964282" lon="12.155282277582586"><ele>211.0</ele><time>2026-04-25T08:06:39.835Z</time></trkpt><trkpt lat="45.96484231416853" lon="12.155377671934517"><ele>210.5</ele><time>2026-04-25T08:06:40.835Z</time></trkpt><trkpt lat="45.9648867625059" lon="12.15546670481294"><ele>210.0</ele><time>2026-04-25T08:06:41.835Z</time></trkpt><trkpt lat="45.964932119726036" lon="12.155549335798034"><ele>210.0</ele><time>2026-04-25T08:06:42.835Z</time></trkpt><trkpt lat="45.96498363323692" lon="12.155632309321364"><ele>210.0</ele><time>2026-04-25T08:06:43.835Z</time></trkpt><trkpt lat="45.96501832098354" lon="12.155714128697888"><ele>210.0</ele><time>2026-04-25T08:06:44.835Z</time></trkpt><trkpt lat="45.96506937871853" lon="12.155782202326968"><ele>210.0</ele><time>2026-04-25T08:06:45.835Z</time></trkpt><trkpt lat="45.96512450354452" lon="12.15583569452175"><ele>210.0</ele><time>2026-04-25T08:06:46.835Z</time></trkpt><trkpt lat="45.965181409426535" lon="12.155886284225554"><ele>210.0</ele><time>2026-04-25T08:06:47.835Z</time></trkpt><trkpt lat="45.96523234827214" lon="12.15594167073652"><ele>210.0</ele><time>2026-04-25T08:06:48.835Z</time></trkpt><trkpt lat="45.96528549154088" lon="12.155991292631853"><ele>209.83333333333334</ele><time>2026-04-25T08:06:49.835Z</time></trkpt><trkpt lat="45.96537793756869" lon="12.156100619199412"><ele>209.66666666666669</ele><time>2026-04-25T08:06:51.835Z</time></trkpt><trkpt lat="45.96541295857862" lon="12.156177321709688"><ele>209.5</ele><time>2026-04-25T08:06:52.835Z</time></trkpt><trkpt lat="45.96541490973241" lon="12.156276023443462"><ele>209.33333333333334</ele><time>2026-04-25T08:06:53.835Z</time></trkpt><trkpt lat="45.965385291428035" lon="12.156436144308932"><ele>209.16666666666669</ele><time>2026-04-25T08:06:55.835Z</time></trkpt><trkpt lat="45.96537450334135" lon="12.156543038164617"><ele>209.0</ele><time>2026-04-25T08:06:57.835Z</time></trkpt><trkpt lat="45.96536377527427" lon="12.156691233199986"><ele>209.00000000000003</ele><time>2026-04-25T08:06:59.835Z</time></trkpt><trkpt lat="45.96535765175103" lon="12.156786162258095"><ele>209.0</ele><time>2026-04-25T08:07:00.835Z</time></trkpt><trkpt lat="45.96536277427636" lon="12.156887640959365"><ele>209.0</ele><time>2026-04-25T08:07:01.835Z</time></trkpt><trkpt lat="45.96538951225779" lon="12.156998158217768"><ele>209.0</ele><time>2026-04-25T08:07:02.835Z</time></trkpt><trkpt lat="45.96544133647482" lon="12.157098372001073"><ele>209.00000000000003</ele><time>2026-04-25T08:07:03.835Z</time></trkpt><trkpt lat="45.965515237416625" lon="12.15717021848617"><ele>209.0</ele><time>2026-04-25T08:07:04.835Z</time></trkpt><trkpt lat="45.965585161265516" lon="12.157238509645808"><ele>209.00000000000003</ele><time>2026-04-25T08:07:05.835Z</time></trkpt><trkpt lat="45.965637286065956" lon="12.157322804495346"><ele>209.0</ele><time>2026-04-25T08:07:06.835Z</time></trkpt><trkpt lat="45.96568436329072" lon="12.157424206659245"><ele>209.0</ele><time>2026-04-25T08:07:07.835Z</time></trkpt><trkpt lat="45.965717633475506" lon="12.157533735909862"><ele>209.0</ele><time>2026-04-25T08:07:08.835Z</time></trkpt><trkpt lat="45.96573989114677" lon="12.157644115450282"><ele>209.00000000000003</ele><time>2026-04-25T08:07:09.835Z</time></trkpt><trkpt lat="45.96576333779806" lon="12.157752051091999"><ele>209.0</ele><time>2026-04-25T08:07:10.835Z</time></trkpt><trkpt lat="45.96578537332558" lon="12.157856685099867"><ele>209.0</ele><time>2026-04-25T08:07:11.835Z</time></trkpt><trkpt lat="45.96581139194975" lon="12.157956482383796"><ele>209.0</ele><time>2026-04-25T08:07:12.835Z</time></trkpt><trkpt lat="45.965851675097106" lon="12.158045814687503"><ele>209.0</ele><time>2026-04-25T08:07:13.835Z</time></trkpt><trkpt lat="45.9658947258885" lon="12.158126876840472"><ele>209.0</ele><time>2026-04-25T08:07:14.835Z</time></trkpt><trkpt lat="45.965946710299534" lon="12.158201074985021"><ele>209.0</ele><time>2026-04-25T08:07:15.834Z</time></trkpt><trkpt lat="45.96599557868245" lon="12.158279715723074"><ele>209.0</ele><time>2026-04-25T08:07:16.834Z</time></trkpt><trkpt lat="45.96604371133863" lon="12.158351989436786"><ele>209.0</ele><time>2026-04-25T08:07:17.834Z</time></trkpt><trkpt lat="45.96609695289226" lon="12.158422767588384"><ele>209.0</ele><time>2026-04-25T08:07:18.834Z</time></trkpt><trkpt lat="45.966149580162316" lon="12.15849423745704"><ele>209.0</ele><time>2026-04-25T08:07:19.834Z</time></trkpt><trkpt lat="45.96620759907098" lon="12.158562764662658"><ele>209.0</ele><time>2026-04-25T08:07:20.834Z</time></trkpt><trkpt lat="45.966266043957646" lon="12.158625541414303"><ele>209.0</ele><time>2026-04-25T08:07:21.834Z</time></trkpt><trkpt lat="45.966326782821476" lon="12.158681916407794"><ele>209.0</ele><time>2026-04-25T08:07:22.834Z</time></trkpt><trkpt lat="45.966383908659814" lon="12.158741959838988"><ele>209.0</ele><time>2026-04-25T08:07:23.834Z</time></trkpt><trkpt lat="45.966438674578264" lon="12.158800281964522"><ele>209.0</ele><time>2026-04-25T08:07:24.834Z</time></trkpt><trkpt lat="45.966493111870804" lon="12.158863374318688"><ele>209.0</ele><time>2026-04-25T08:07:25.834Z</time></trkpt><trkpt lat="45.9665512689422" lon="12.158943776491494"><ele>209.0</ele><time>2026-04-25T08:07:26.834Z</time></trkpt><trkpt lat="45.96660629489157" lon="12.159021814396551"><ele>209.0</ele><time>2026-04-25T08:07:27.834Z</time></trkpt><trkpt lat="45.96666114370551" lon="12.159091190314195"><ele>209.0</ele><time>2026-04-25T08:07:28.834Z</time></trkpt><trkpt lat="45.96677930654538" lon="12.159217875054049"><ele>209.0</ele><time>2026-04-25T08:07:30.834Z</time></trkpt><trkpt lat="45.966906325268035" lon="12.159302932438312"><ele>208.85714285714286</ele><time>2026-04-25T08:07:32.834Z</time></trkpt><trkpt lat="45.96697738620281" lon="12.159329780567571"><ele>208.71428571428572</ele><time>2026-04-25T08:07:33.834Z</time></trkpt><trkpt lat="45.967049051444974" lon="12.159355068883327"><ele>208.57142857142856</ele><time>2026-04-25T08:07:34.834Z</time></trkpt><trkpt lat="45.96711547416429" lon="12.159377592128207"><ele>208.42857142857144</ele><time>2026-04-25T08:07:35.834Z</time></trkpt><trkpt lat="45.967186074065836" lon="12.159406338862915"><ele>208.2857142857143</ele><time>2026-04-25T08:07:36.834Z</time></trkpt><trkpt lat="45.96725622554698" lon="12.159434887320373"><ele>208.14285714285714</ele><time>2026-04-25T08:07:37.834Z</time></trkpt><trkpt lat="45.967322381319605" lon="12.159459705685428"><ele>208.0</ele><time>2026-04-25T08:07:38.834Z</time></trkpt><trkpt lat="45.96738827694613" lon="12.159482304618901"><ele>208.0</ele><time>2026-04-25T08:07:39.834Z</time></trkpt><trkpt lat="45.96745932344011" lon="12.159514249703568"><ele>208.0</ele><time>2026-04-25T08:07:40.834Z</time></trkpt><trkpt lat="45.96752733518641" lon="12.159549190994639"><ele>208.0</ele><time>2026-04-25T08:07:41.834Z</time></trkpt><trkpt lat="45.96758646758888" lon="12.159591741278364"><ele>208.0</ele><time>2026-04-25T08:07:42.834Z</time></trkpt><trkpt lat="45.967651577984995" lon="12.159631805271012"><ele>208.0</ele><time>2026-04-25T08:07:43.834Z</time></trkpt><trkpt lat="45.967717005456926" lon="12.159671846686544"><ele>208.0</ele><time>2026-04-25T08:07:44.834Z</time></trkpt><trkpt lat="45.96777944586199" lon="12.15972884857666"><ele>208.0</ele><time>2026-04-25T08:07:45.834Z</time></trkpt><trkpt lat="45.967831106941034" lon="12.159783134633397"><ele>208.2</ele><time>2026-04-25T08:07:46.834Z</time></trkpt><trkpt lat="45.96792776273506" lon="12.159882079319535"><ele>208.4</ele><time>2026-04-25T08:07:48.834Z</time></trkpt><trkpt lat="45.96803030334021" lon="12.159957358055028"><ele>208.6</ele><time>2026-04-25T08:07:50.834Z</time></trkpt><trkpt lat="45.968129019302886" lon="12.160049920693773"><ele>208.79999999999998</ele><time>2026-04-25T08:07:52.834Z</time></trkpt><trkpt lat="45.96819122828287" lon="12.160091512758331"><ele>209.0</ele><time>2026-04-25T08:07:53.834Z</time></trkpt><trkpt lat="45.96829522898198" lon="12.160188438010513"><ele>209.39999999999998</ele><time>2026-04-25T08:07:55.834Z</time></trkpt><trkpt lat="45.96838882347207" lon="12.16029467492478"><ele>209.8</ele><time>2026-04-25T08:07:57.834Z</time></trkpt><trkpt lat="45.96847009463643" lon="12.160425149949567"><ele>210.2</ele><time>2026-04-25T08:07:59.834Z</time></trkpt><trkpt lat="45.968553688288765" lon="12.160558072478308"><ele>210.60000000000002</ele><time>2026-04-25T08:08:01.834Z</time></trkpt><trkpt lat="45.96859672293454" lon="12.160626440976944"><ele>211.0</ele><time>2026-04-25T08:08:02.834Z</time></trkpt><trkpt lat="45.96864448477158" lon="12.160695015179911"><ele>211.0</ele><time>2026-04-25T08:08:03.834Z</time></trkpt><trkpt lat="45.96869302699576" lon="12.160754288631601"><ele>211.0</ele><time>2026-04-25T08:08:04.834Z</time></trkpt><trkpt lat="45.96874146980586" lon="12.160821418673805"><ele>211.0</ele><time>2026-04-25T08:08:05.834Z</time></trkpt><trkpt lat="45.96878839194555" lon="12.160883230590311"><ele>211.0</ele><time>2026-04-25T08:08:06.834Z</time></trkpt><trkpt lat="45.96883433628613" lon="12.160947773493199"><ele>211.0</ele><time>2026-04-25T08:08:07.834Z</time></trkpt><trkpt lat="45.96889123252859" lon="12.161010171292512"><ele>211.0</ele><time>2026-04-25T08:08:08.834Z</time></trkpt><trkpt lat="45.96894114832519" lon="12.161070657160828"><ele>211.0</ele><time>2026-04-25T08:08:09.834Z</time></trkpt><trkpt lat="45.96899450876014" lon="12.16113117811105"><ele>211.0</ele><time>2026-04-25T08:08:10.834Z</time></trkpt><trkpt lat="45.96904261985418" lon="12.161191225221701"><ele>211.0</ele><time>2026-04-25T08:08:11.834Z</time></trkpt><trkpt lat="45.96909264035589" lon="12.16125683271962"><ele>211.0</ele><time>2026-04-25T08:08:12.834Z</time></trkpt><trkpt lat="45.96914166812426" lon="12.161322963354877"><ele>211.0</ele><time>2026-04-25T08:08:13.834Z</time></trkpt><trkpt lat="45.96919258909743" lon="12.161389079756741"><ele>211.0</ele><time>2026-04-25T08:08:14.834Z</time></trkpt><trkpt lat="45.96924387727486" lon="12.161451663999845"><ele>211.0</ele><time>2026-04-25T08:08:15.834Z</time></trkpt><trkpt lat="45.96929094539885" lon="12.161513102323527"><ele>211.0</ele><time>2026-04-25T08:08:16.834Z</time></trkpt><trkpt lat="45.969338195894316" lon="12.161575165676814"><ele>211.99999999999997</ele><time>2026-04-25T08:08:17.834Z</time></trkpt><trkpt lat="45.96939343833607" lon="12.16162895468163"><ele>213.0</ele><time>2026-04-25T08:08:18.834Z</time></trkpt><trkpt lat="45.969444681443704" lon="12.161687632695278"><ele>214.0</ele><time>2026-04-25T08:08:19.834Z</time></trkpt><trkpt lat="45.969493864495995" lon="12.161746718908546"><ele>215.0</ele><time>2026-04-25T08:08:20.834Z</time></trkpt><trkpt lat="45.96956794313199" lon="12.161858385953037"><ele>215.99999999999997</ele><time>2026-04-25T08:08:22.834Z</time></trkpt><trkpt lat="45.9695767788276" lon="12.161990409258632"><ele>217.0</ele><time>2026-04-25T08:08:24.834Z</time></trkpt><trkpt lat="45.96954690391384" lon="12.16207749494518"><ele>216.99999999999997</ele><time>2026-04-25T08:08:25.834Z</time></trkpt><trkpt lat="45.96951866765715" lon="12.16218452073357"><ele>217.0</ele><time>2026-04-25T08:08:26.835Z</time></trkpt><trkpt lat="45.969515327489404" lon="12.162308386701794"><ele>217.0</ele><time>2026-04-25T08:08:27.834Z</time></trkpt><trkpt lat="45.969518840926746" lon="12.16241799106996"><ele>217.0</ele><time>2026-04-25T08:08:28.834Z</time></trkpt><trkpt lat="45.96951191518418" lon="12.162528398815306"><ele>216.99999999999997</ele><time>2026-04-25T08:08:29.835Z</time></trkpt><trkpt lat="45.96949673829549" lon="12.162627128089719"><ele>217.0</ele><time>2026-04-25T08:08:30.835Z</time></trkpt><trkpt lat="45.96948732080037" lon="12.162721508673904"><ele>216.8</ele><time>2026-04-25T08:08:31.835Z</time></trkpt><trkpt lat="45.96946119822331" lon="12.162805046372709"><ele>216.6</ele><time>2026-04-25T08:08:32.834Z</time></trkpt><trkpt lat="45.96941703899536" lon="12.16296491822023"><ele>216.40000000000003</ele><time>2026-04-25T08:08:34.834Z</time></trkpt><trkpt lat="45.96946783739928" lon="12.16312700999783"><ele>216.20000000000002</ele><time>2026-04-25T08:08:36.835Z</time></trkpt><trkpt lat="45.96951673944622" lon="12.163192832739867"><ele>216.0</ele><time>2026-04-25T08:08:37.834Z</time></trkpt><trkpt lat="45.969593160437235" lon="12.163331832130469"><ele>215.8</ele><time>2026-04-25T08:08:39.834Z</time></trkpt><trkpt lat="45.969644622914444" lon="12.163494258242373"><ele>215.60000000000002</ele><time>2026-04-25T08:08:41.834Z</time></trkpt><trkpt lat="45.969680150005054" lon="12.163661250259656"><ele>215.4</ele><time>2026-04-25T08:08:43.834Z</time></trkpt><trkpt lat="45.96968790736041" lon="12.163752941918275"><ele>215.2</ele><time>2026-04-25T08:08:44.834Z</time></trkpt><trkpt lat="45.969697102381" lon="12.163926174518753"><ele>215.0</ele><time>2026-04-25T08:08:46.834Z</time></trkpt><trkpt lat="45.969722666888224" lon="12.164088628500986"><ele>214.8</ele><time>2026-04-25T08:08:48.834Z</time></trkpt><trkpt lat="45.969750308849505" lon="12.16423142882161"><ele>214.6</ele><time>2026-04-25T08:08:50.834Z</time></trkpt><trkpt lat="45.969797848474016" lon="12.16438625116639"><ele>214.39999999999998</ele><time>2026-04-25T08:08:52.834Z</time></trkpt><trkpt lat="45.96985723716317" lon="12.16451622036582"><ele>214.2</ele><time>2026-04-25T08:08:54.834Z</time></trkpt><trkpt lat="45.96991549503466" lon="12.164615650739927"><ele>214.0</ele><time>2026-04-25T08:08:56.834Z</time></trkpt><trkpt lat="45.969987132763194" lon="12.164678517299887"><ele>214.6</ele><time>2026-04-25T08:08:58.834Z</time></trkpt><trkpt lat="45.97009859769791" lon="12.16469672311222"><ele>215.2</ele><time>2026-04-25T08:09:00.834Z</time></trkpt><trkpt lat="45.97018038563042" lon="12.164693205284312"><ele>215.79999999999998</ele><time>2026-04-25T08:09:02.834Z</time></trkpt><trkpt lat="45.970250990191296" lon="12.164666423789473"><ele>216.39999999999998</ele><time>2026-04-25T08:09:04.834Z</time></trkpt><trkpt lat="45.97034849654749" lon="12.164697879590438"><ele>217.0</ele><time>2026-04-25T08:09:06.834Z</time></trkpt><trkpt lat="45.97045491397979" lon="12.164737412621921"><ele>216.99999999999997</ele><time>2026-04-25T08:09:08.834Z</time></trkpt><trkpt lat="45.97053544683361" lon="12.164717293959141"><ele>217.0</ele><time>2026-04-25T08:09:10.834Z</time></trkpt><trkpt lat="45.97059833163987" lon="12.164666398996316"><ele>217.0</ele><time>2026-04-25T08:09:11.834Z</time></trkpt><trkpt lat="45.97065877766594" lon="12.164628295789369"><ele>217.0</ele><time>2026-04-25T08:09:12.834Z</time></trkpt><trkpt lat="45.97075713751508" lon="12.16456093436352"><ele>216.99999999999997</ele><time>2026-04-25T08:09:14.834Z</time></trkpt><trkpt lat="45.97084785612369" lon="12.164525207494716"><ele>217.0</ele><time>2026-04-25T08:09:16.834Z</time></trkpt><trkpt lat="45.97090577464817" lon="12.164487493329778"><ele>218.99999999999997</ele><time>2026-04-25T08:09:17.834Z</time></trkpt><trkpt lat="45.970982786456666" lon="12.164433782889457"><ele>221.0</ele><time>2026-04-25T08:09:19.834Z</time></trkpt><trkpt lat="45.971075858547955" lon="12.164382645852559"><ele>223.0</ele><time>2026-04-25T08:09:21.834Z</time></trkpt><trkpt lat="45.97116077007456" lon="12.164329861274917"><ele>225.0</ele><time>2026-04-25T08:09:24.834Z</time></trkpt><trkpt lat="45.97123152553846" lon="12.164316517094703"><ele>226.99999999999997</ele><time>2026-04-25T08:09:26.834Z</time></trkpt><trkpt lat="45.9712175480118" lon="12.164446737389268"><ele>229.0</ele><time>2026-04-25T08:09:30.834Z</time></trkpt><trkpt lat="45.97123558325137" lon="12.16456740003545"><ele>228.99999999999997</ele><time>2026-04-25T08:09:31.834Z</time></trkpt><trkpt lat="45.97125839276491" lon="12.164662471074838"><ele>229.0</ele><time>2026-04-25T08:09:32.834Z</time></trkpt><trkpt lat="45.97127396901077" lon="12.164777939570488"><ele>229.0</ele><time>2026-04-25T08:09:33.834Z</time></trkpt><trkpt lat="45.97129718129288" lon="12.164888440289934"><ele>229.0</ele><time>2026-04-25T08:09:34.834Z</time></trkpt><trkpt lat="45.971319413272404" lon="12.164999591780608"><ele>228.99999999999997</ele><time>2026-04-25T08:09:35.834Z</time></trkpt><trkpt lat="45.97132461759597" lon="12.165114560516484"><ele>229.0</ele><time>2026-04-25T08:09:36.833Z</time></trkpt><trkpt lat="45.97133331800718" lon="12.16525648916139"><ele>228.99999999999997</ele><time>2026-04-25T08:09:37.833Z</time></trkpt><trkpt lat="45.97134667741638" lon="12.165385524659165"><ele>229.0</ele><time>2026-04-25T08:09:38.833Z</time></trkpt><trkpt lat="45.97136969389735" lon="12.165492099419481"><ele>229.0</ele><time>2026-04-25T08:09:39.833Z</time></trkpt><trkpt lat="45.97138748663898" lon="12.16559849358217"><ele>229.0</ele><time>2026-04-25T08:09:40.833Z</time></trkpt><trkpt lat="45.97140903398429" lon="12.165690667605011"><ele>228.99999999999997</ele><time>2026-04-25T08:09:41.833Z</time></trkpt><trkpt lat="45.971431667780735" lon="12.165804345007825"><ele>229.0</ele><time>2026-04-25T08:09:42.833Z</time></trkpt><trkpt lat="45.9714486522821" lon="12.165915055596448"><ele>228.71428571428572</ele><time>2026-04-25T08:09:43.833Z</time></trkpt><trkpt lat="45.97147603847884" lon="12.165998918247542"><ele>228.42857142857144</ele><time>2026-04-25T08:09:44.833Z</time></trkpt><trkpt lat="45.971509886397186" lon="12.166088827194418"><ele>228.14285714285717</ele><time>2026-04-25T08:09:45.833Z</time></trkpt><trkpt lat="45.9715429684667" lon="12.166167547580537"><ele>227.85714285714286</ele><time>2026-04-25T08:09:46.833Z</time></trkpt><trkpt lat="45.97156203395136" lon="12.166256125486736"><ele>227.5714285714286</ele><time>2026-04-25T08:09:47.833Z</time></trkpt><trkpt lat="45.97159927253862" lon="12.16635775762666"><ele>227.2857142857143</ele><time>2026-04-25T08:09:48.833Z</time></trkpt><trkpt lat="45.971626944081315" lon="12.166456466298058"><ele>227.0</ele><time>2026-04-25T08:09:49.833Z</time></trkpt><trkpt lat="45.97165507235075" lon="12.166544089063509"><ele>226.6</ele><time>2026-04-25T08:09:50.833Z</time></trkpt><trkpt lat="45.97168950023642" lon="12.166633314219562"><ele>226.2</ele><time>2026-04-25T08:09:51.833Z</time></trkpt><trkpt lat="45.971726972036286" lon="12.16680525196971"><ele>225.8</ele><time>2026-04-25T08:09:53.833Z</time></trkpt><trkpt lat="45.97174028883801" lon="12.166900278330706"><ele>225.4</ele><time>2026-04-25T08:09:54.833Z</time></trkpt><trkpt lat="45.97176114632735" lon="12.166987205695271"><ele>225.0</ele><time>2026-04-25T08:09:55.833Z</time></trkpt><trkpt lat="45.971782742326795" lon="12.167163358480552"><ele>225.0</ele><time>2026-04-25T08:09:57.833Z</time></trkpt><trkpt lat="45.971792923076755" lon="12.167311044602325"><ele>225.0</ele><time>2026-04-25T08:09:59.833Z</time></trkpt><trkpt lat="45.97177305580187" lon="12.167461248322889"><ele>225.0</ele><time>2026-04-25T08:10:01.833Z</time></trkpt><trkpt lat="45.97171402578307" lon="12.16761671219634"><ele>225.0</ele><time>2026-04-25T08:10:03.833Z</time></trkpt><trkpt lat="45.97164467279388" lon="12.167720972118728"><ele>225.0</ele><time>2026-04-25T08:10:05.833Z</time></trkpt><trkpt lat="45.97160208050273" lon="12.167787966813973"><ele>225.0</ele><time>2026-04-25T08:10:07.833Z</time></trkpt><trkpt lat="45.97155756068919" lon="12.16786778044449"><ele>225.0</ele><time>2026-04-25T08:10:11.833Z</time></trkpt><trkpt lat="45.971511155804016" lon="12.167936402614854"><ele>225.0</ele><time>2026-04-25T08:10:13.833Z</time></trkpt><trkpt lat="45.97143234297372" lon="12.167965440032699"><ele>225.0</ele><time>2026-04-25T08:10:15.833Z</time></trkpt><trkpt lat="45.97133485611356" lon="12.168081143952813"><ele>225.0</ele><time>2026-04-25T08:10:17.833Z</time></trkpt><trkpt lat="45.971333925375916" lon="12.168200001773927"><ele>225.0</ele><time>2026-04-25T08:10:18.833Z</time></trkpt><trkpt lat="45.971349513993054" lon="12.168326224411"><ele>224.71428571428575</ele><time>2026-04-25T08:10:19.833Z</time></trkpt><trkpt lat="45.971369316681894" lon="12.16843184112731"><ele>224.42857142857144</ele><time>2026-04-25T08:10:20.833Z</time></trkpt><trkpt lat="45.9713897980665" lon="12.168531595103952"><ele>224.14285714285717</ele><time>2026-04-25T08:10:21.833Z</time></trkpt><trkpt lat="45.971399214759465" lon="12.16863357363862"><ele>223.8571428571429</ele><time>2026-04-25T08:10:22.833Z</time></trkpt><trkpt lat="45.97140544865738" lon="12.16872729908448"><ele>223.57142857142856</ele><time>2026-04-25T08:10:23.833Z</time></trkpt><trkpt lat="45.9714153272758" lon="12.168821797938481"><ele>223.28571428571428</ele><time>2026-04-25T08:10:24.833Z</time></trkpt><trkpt lat="45.97142532484059" lon="12.168913375363847"><ele>223.0</ele><time>2026-04-25T08:10:25.833Z</time></trkpt><trkpt lat="45.97143970048521" lon="12.169003300082794"><ele>223.60000000000002</ele><time>2026-04-25T08:10:26.833Z</time></trkpt><trkpt lat="45.97144729364962" lon="12.169096390671255"><ele>224.20000000000002</ele><time>2026-04-25T08:10:27.833Z</time></trkpt><trkpt lat="45.971443730426785" lon="12.169263348361119"><ele>224.8</ele><time>2026-04-25T08:10:29.833Z</time></trkpt><trkpt lat="45.97142725738669" lon="12.169451008162401"><ele>225.4</ele><time>2026-04-25T08:10:31.834Z</time></trkpt><trkpt lat="45.9713972252915" lon="12.169547886326452"><ele>226.0</ele><time>2026-04-25T08:10:32.834Z</time></trkpt><trkpt lat="45.97135032444611" lon="12.169645383489309"><ele>225.99999999999997</ele><time>2026-04-25T08:10:33.834Z</time></trkpt><trkpt lat="45.97130719788069" lon="12.169717535455941"><ele>226.0</ele><time>2026-04-25T08:10:34.834Z</time></trkpt><trkpt lat="45.971262761553305" lon="12.16978786594402"><ele>226.0</ele><time>2026-04-25T08:10:35.834Z</time></trkpt><trkpt lat="45.97118599231191" lon="12.169933912329286"><ele>226.0</ele><time>2026-04-25T08:10:37.834Z</time></trkpt><trkpt lat="45.97115477996571" lon="12.170012899580144"><ele>225.99999999999997</ele><time>2026-04-25T08:10:38.834Z</time></trkpt><trkpt lat="45.97112833192003" lon="12.17010288282253"><ele>226.0</ele><time>2026-04-25T08:10:39.834Z</time></trkpt><trkpt lat="45.97110210400812" lon="12.170194215898594"><ele>225.66666666666666</ele><time>2026-04-25T08:10:40.834Z</time></trkpt><trkpt lat="45.971072788098596" lon="12.170281629852957"><ele>225.33333333333331</ele><time>2026-04-25T08:10:41.834Z</time></trkpt><trkpt lat="45.971047708137384" lon="12.170365481340987"><ele>225.0</ele><time>2026-04-25T08:10:42.834Z</time></trkpt><trkpt lat="45.970995939007665" lon="12.17053125815656"><ele>224.66666666666669</ele><time>2026-04-25T08:10:44.834Z</time></trkpt><trkpt lat="45.97096416158544" lon="12.170706809391442"><ele>224.33333333333334</ele><time>2026-04-25T08:10:46.834Z</time></trkpt><trkpt lat="45.970952742553465" lon="12.170798756943125"><ele>224.0</ele><time>2026-04-25T08:10:47.834Z</time></trkpt><trkpt lat="45.970949171349965" lon="12.170973793371273"><ele>224.0</ele><time>2026-04-25T08:10:49.834Z</time></trkpt><trkpt lat="45.97096715346698" lon="12.171142807701807"><ele>223.99999999999997</ele><time>2026-04-25T08:10:51.834Z</time></trkpt><trkpt lat="45.97100524253255" lon="12.171306217782234"><ele>223.99999999999997</ele><time>2026-04-25T08:10:53.834Z</time></trkpt><trkpt lat="45.97102673762342" lon="12.17147659545746"><ele>224.0</ele><time>2026-04-25T08:10:55.834Z</time></trkpt><trkpt lat="45.97105373234032" lon="12.171564041899012"><ele>224.0</ele><time>2026-04-25T08:10:56.834Z</time></trkpt><trkpt lat="45.97108772588637" lon="12.171655688121747"><ele>224.14285714285714</ele><time>2026-04-25T08:10:57.834Z</time></trkpt><trkpt lat="45.97111561844911" lon="12.171741107526282"><ele>224.28571428571428</ele><time>2026-04-25T08:10:58.834Z</time></trkpt><trkpt lat="45.97114083159097" lon="12.171824214425778"><ele>224.42857142857144</ele><time>2026-04-25T08:10:59.834Z</time></trkpt><trkpt lat="45.97115990300658" lon="12.171920711545894"><ele>224.57142857142858</ele><time>2026-04-25T08:11:00.834Z</time></trkpt><trkpt lat="45.9711753316542" lon="12.172014577733169"><ele>224.71428571428572</ele><time>2026-04-25T08:11:01.834Z</time></trkpt><trkpt lat="45.97119642827371" lon="12.172109713210057"><ele>224.8571428571429</ele><time>2026-04-25T08:11:02.834Z</time></trkpt><trkpt lat="45.971205345492336" lon="12.172201758474255"><ele>225.00000000000003</ele><time>2026-04-25T08:11:03.834Z</time></trkpt><trkpt lat="45.97120423593745" lon="12.172296825381611"><ele>225.6</ele><time>2026-04-25T08:11:04.834Z</time></trkpt><trkpt lat="45.971201006808364" lon="12.172389584055377"><ele>226.2</ele><time>2026-04-25T08:11:05.834Z</time></trkpt><trkpt lat="45.9711718352672" lon="12.1725666081897"><ele>226.8</ele><time>2026-04-25T08:11:07.834Z</time></trkpt><trkpt lat="45.97112647765536" lon="12.17273471472553"><ele>227.4</ele><time>2026-04-25T08:11:09.834Z</time></trkpt><trkpt lat="45.97109711912926" lon="12.17282411546723"><ele>228.0</ele><time>2026-04-25T08:11:10.834Z</time></trkpt><trkpt lat="45.971057780811826" lon="12.172996753682959"><ele>228.0</ele><time>2026-04-25T08:11:12.834Z</time></trkpt><trkpt lat="45.971039637054595" lon="12.173087755629266"><ele>227.99999999999997</ele><time>2026-04-25T08:11:13.834Z</time></trkpt><trkpt lat="45.971029393587216" lon="12.173184112459545"><ele>228.0</ele><time>2026-04-25T08:11:14.834Z</time></trkpt><trkpt lat="45.971028248118884" lon="12.173279279717674"><ele>228.0</ele><time>2026-04-25T08:11:15.834Z</time></trkpt><trkpt lat="45.97103358771125" lon="12.17337203754917"><ele>227.99999999999997</ele><time>2026-04-25T08:11:16.834Z</time></trkpt><trkpt lat="45.97103898615863" lon="12.173464081571472"><ele>228.0</ele><time>2026-04-25T08:11:17.834Z</time></trkpt><trkpt lat="45.971053463356526" lon="12.173554177501133"><ele>228.0</ele><time>2026-04-25T08:11:18.834Z</time></trkpt><trkpt lat="45.971068918440615" lon="12.173643550784611"><ele>228.0</ele><time>2026-04-25T08:11:19.834Z</time></trkpt><trkpt lat="45.97109832086371" lon="12.173822660641179"><ele>228.0</ele><time>2026-04-25T08:11:21.834Z</time></trkpt><trkpt lat="45.97110648205123" lon="12.173916072543443"><ele>228.0</ele><time>2026-04-25T08:11:22.834Z</time></trkpt><trkpt lat="45.97113230222188" lon="12.174085821377657"><ele>228.0</ele><time>2026-04-25T08:11:24.834Z</time></trkpt><trkpt lat="45.97113755720587" lon="12.174179577595355"><ele>228.0</ele><time>2026-04-25T08:11:25.834Z</time></trkpt><trkpt lat="45.97113699796527" lon="12.174274406314831"><ele>228.0</ele><time>2026-04-25T08:11:26.834Z</time></trkpt><trkpt lat="45.97113325466431" lon="12.174372494429083"><ele>228.0</ele><time>2026-04-25T08:11:27.834Z</time></trkpt><trkpt lat="45.9711239429878" lon="12.174466385339372"><ele>228.0</ele><time>2026-04-25T08:11:28.834Z</time></trkpt><trkpt lat="45.971109479102225" lon="12.174642885959805"><ele>228.0</ele><time>2026-04-25T08:11:30.834Z</time></trkpt><trkpt lat="45.97109087501465" lon="12.174741961793"><ele>228.0</ele><time>2026-04-25T08:11:31.834Z</time></trkpt><trkpt lat="45.97107362064761" lon="12.174838672830603"><ele>228.0</ele><time>2026-04-25T08:11:32.834Z</time></trkpt><trkpt lat="45.971061715367895" lon="12.174931228424501"><ele>228.0</ele><time>2026-04-25T08:11:33.834Z</time></trkpt><trkpt lat="45.97105402838692" lon="12.175036795030621"><ele>228.16666666666666</ele><time>2026-04-25T08:11:34.834Z</time></trkpt><trkpt lat="45.97103894931919" lon="12.175132500503281"><ele>228.33333333333331</ele><time>2026-04-25T08:11:35.834Z</time></trkpt><trkpt lat="45.97102641448418" lon="12.175224007058912"><ele>228.5</ele><time>2026-04-25T08:11:36.834Z</time></trkpt><trkpt lat="45.97101867925655" lon="12.175317636274901"><ele>228.66666666666666</ele><time>2026-04-25T08:11:37.834Z</time></trkpt><trkpt lat="45.971002367762175" lon="12.175493538451766"><ele>228.83333333333331</ele><time>2026-04-25T08:11:39.834Z</time></trkpt><trkpt lat="45.97098828656999" lon="12.175652233815413"><ele>229.0</ele><time>2026-04-25T08:11:41.834Z</time></trkpt><trkpt lat="45.97099900460857" lon="12.17580185575719"><ele>228.99999999999997</ele><time>2026-04-25T08:11:43.833Z</time></trkpt><trkpt lat="45.97100464351386" lon="12.175940485943162"><ele>229.0</ele><time>2026-04-25T08:11:45.833Z</time></trkpt><trkpt lat="45.97102194105177" lon="12.176063464340814"><ele>229.0</ele><time>2026-04-25T08:11:47.833Z</time></trkpt><trkpt lat="45.97101207522111" lon="12.176198114519265"><ele>229.0</ele><time>2026-04-25T08:11:49.833Z</time></trkpt><trkpt lat="45.97099997177101" lon="12.176287901256643"><ele>228.99999999999997</ele><time>2026-04-25T08:11:50.833Z</time></trkpt><trkpt lat="45.97098977427263" lon="12.176391235239649"><ele>229.0</ele><time>2026-04-25T08:11:51.833Z</time></trkpt><trkpt lat="45.970981967072674" lon="12.176500178121808"><ele>229.66666666666666</ele><time>2026-04-25T08:11:52.833Z</time></trkpt><trkpt lat="45.970978158404485" lon="12.176608421651382"><ele>230.33333333333331</ele><time>2026-04-25T08:11:53.833Z</time></trkpt><trkpt lat="45.97097387940205" lon="12.176711569286093"><ele>231.0</ele><time>2026-04-25T08:11:54.833Z</time></trkpt><trkpt lat="45.97097488904056" lon="12.17685310477077"><ele>231.66666666666669</ele><time>2026-04-25T08:11:56.833Z</time></trkpt><trkpt lat="45.97095809578694" lon="12.176978681156877"><ele>232.33333333333334</ele><time>2026-04-25T08:11:57.833Z</time></trkpt><trkpt lat="45.970927246360205" lon="12.177086072922554"><ele>233.0</ele><time>2026-04-25T08:11:58.833Z</time></trkpt><trkpt lat="45.97090060140299" lon="12.177193189186978"><ele>233.00000000000003</ele><time>2026-04-25T08:11:59.833Z</time></trkpt><trkpt lat="45.970869259348156" lon="12.17730174946713"><ele>233.0</ele><time>2026-04-25T08:12:00.833Z</time></trkpt><trkpt lat="45.970837417398684" lon="12.17741146080177"><ele>233.0</ele><time>2026-04-25T08:12:01.833Z</time></trkpt><trkpt lat="45.97081082297827" lon="12.177520222311971"><ele>233.0</ele><time>2026-04-25T08:12:02.833Z</time></trkpt><trkpt lat="45.97078874656869" lon="12.177628950299203"><ele>233.00000000000003</ele><time>2026-04-25T08:12:03.833Z</time></trkpt><trkpt lat="45.97076539213475" lon="12.177746352990214"><ele>233.0</ele><time>2026-04-25T08:12:04.833Z</time></trkpt><trkpt lat="45.97075796836041" lon="12.177863596095087"><ele>232.33333333333334</ele><time>2026-04-25T08:12:05.833Z</time></trkpt><trkpt lat="45.97075843594414" lon="12.177977214461103"><ele>231.66666666666669</ele><time>2026-04-25T08:12:06.833Z</time></trkpt><trkpt lat="45.970753267047044" lon="12.178085941616198"><ele>231.0</ele><time>2026-04-25T08:12:07.833Z</time></trkpt><trkpt lat="45.9707531903578" lon="12.178195671234242"><ele>230.33333333333331</ele><time>2026-04-25T08:12:08.833Z</time></trkpt><trkpt lat="45.970746787527446" lon="12.178304308108025"><ele>229.66666666666666</ele><time>2026-04-25T08:12:09.833Z</time></trkpt><trkpt lat="45.970729994928895" lon="12.178412328108317"><ele>229.0</ele><time>2026-04-25T08:12:10.833Z</time></trkpt><trkpt lat="45.970706162946705" lon="12.17852001727984"><ele>228.99999999999997</ele><time>2026-04-25T08:12:11.833Z</time></trkpt><trkpt lat="45.97069381342495" lon="12.178632116225224"><ele>229.0</ele><time>2026-04-25T08:12:12.833Z</time></trkpt><trkpt lat="45.97067848001469" lon="12.178735116642237"><ele>229.0</ele><time>2026-04-25T08:12:13.833Z</time></trkpt><trkpt lat="45.97066681167429" lon="12.17884019533491"><ele>229.0</ele><time>2026-04-25T08:12:14.833Z</time></trkpt><trkpt lat="45.970664029569996" lon="12.17893352835294"><ele>228.99999999999997</ele><time>2026-04-25T08:12:15.833Z</time></trkpt><trkpt lat="45.97067917702806" lon="12.179085637780851"><ele>229.0</ele><time>2026-04-25T08:12:17.833Z</time></trkpt><trkpt lat="45.970676200625846" lon="12.179216726700457"><ele>228.99999999999997</ele><time>2026-04-25T08:12:19.833Z</time></trkpt><trkpt lat="45.97064361889326" lon="12.17934598567959"><ele>229.0</ele><time>2026-04-25T08:12:21.833Z</time></trkpt><trkpt lat="45.970586723050815" lon="12.17948313901515"><ele>229.0</ele><time>2026-04-25T08:12:23.833Z</time></trkpt><trkpt lat="45.97053819472675" lon="12.17954466670437"><ele>229.0</ele><time>2026-04-25T08:12:24.833Z</time></trkpt><trkpt lat="45.970476510925785" lon="12.179584428503182"><ele>228.99999999999997</ele><time>2026-04-25T08:12:25.833Z</time></trkpt><trkpt lat="45.97041687314714" lon="12.179613508851034"><ele>229.0</ele><time>2026-04-25T08:12:26.833Z</time></trkpt><trkpt lat="45.97029675980063" lon="12.179655945254996"><ele>228.99999999999997</ele><time>2026-04-25T08:12:28.833Z</time></trkpt><trkpt lat="45.970235070146586" lon="12.179680581114763"><ele>229.0</ele><time>2026-04-25T08:12:29.833Z</time></trkpt><trkpt lat="45.97016494223731" lon="12.179698525358363"><ele>229.0</ele><time>2026-04-25T08:12:30.833Z</time></trkpt><trkpt lat="45.97010400675704" lon="12.179727632093407"><ele>229.0</ele><time>2026-04-25T08:12:31.833Z</time></trkpt><trkpt lat="45.970041901252245" lon="12.179781981259044"><ele>228.99999999999997</ele><time>2026-04-25T08:12:32.833Z</time></trkpt><trkpt lat="45.96990368964687" lon="12.179804433888565"><ele>229.0</ele><time>2026-04-25T08:12:34.833Z</time></trkpt><trkpt lat="45.96979367044602" lon="12.179821582843168"><ele>229.0</ele><time>2026-04-25T08:12:36.833Z</time></trkpt><trkpt lat="45.96973742073617" lon="12.17997466804318"><ele>228.99999999999997</ele><time>2026-04-25T08:12:38.833Z</time></trkpt><trkpt lat="45.96968771419269" lon="12.18013694437444"><ele>228.99999999999997</ele><time>2026-04-25T08:12:40.833Z</time></trkpt><trkpt lat="45.969647567708556" lon="12.180229870406391"><ele>229.0</ele><time>2026-04-25T08:12:41.834Z</time></trkpt><trkpt lat="45.96959607867577" lon="12.18030379427791"><ele>229.0</ele><time>2026-04-25T08:12:42.834Z</time></trkpt><trkpt lat="45.96955234694787" lon="12.180374416648714"><ele>229.0</ele><time>2026-04-25T08:12:43.833Z</time></trkpt><trkpt lat="45.96952388485472" lon="12.180461897368698"><ele>228.99999999999997</ele><time>2026-04-25T08:12:44.833Z</time></trkpt><trkpt lat="45.9695057519143" lon="12.180549829989987"><ele>228.99999999999997</ele><time>2026-04-25T08:12:45.833Z</time></trkpt><trkpt lat="45.96946811272345" lon="12.180719517057936"><ele>229.0</ele><time>2026-04-25T08:12:47.834Z</time></trkpt><trkpt lat="45.969442884230915" lon="12.180856971731183"><ele>229.0</ele><time>2026-04-25T08:12:49.834Z</time></trkpt><trkpt lat="45.969402469303" lon="12.18099514356817"><ele>228.49999999999997</ele><time>2026-04-25T08:12:51.833Z</time></trkpt><trkpt lat="45.969396921476" lon="12.181088057953747"><ele>228.0</ele><time>2026-04-25T08:12:52.833Z</time></trkpt><trkpt lat="45.96939827536285" lon="12.181180148522998"><ele>227.5</ele><time>2026-04-25T08:12:53.833Z</time></trkpt><trkpt lat="45.96939750651827" lon="12.181337002525824"><ele>227.0</ele><time>2026-04-25T08:12:55.833Z</time></trkpt><trkpt lat="45.969377315887904" lon="12.181496668464927"><ele>226.49999999999997</ele><time>2026-04-25T08:12:57.833Z</time></trkpt><trkpt lat="45.96936979504468" lon="12.181603320505069"><ele>226.0</ele><time>2026-04-25T08:12:58.833Z</time></trkpt><trkpt lat="45.96935194637883" lon="12.181712092710528"><ele>225.66666666666666</ele><time>2026-04-25T08:12:59.833Z</time></trkpt><trkpt lat="45.969330548375915" lon="12.181824302112041"><ele>225.33333333333331</ele><time>2026-04-25T08:13:00.833Z</time></trkpt><trkpt lat="45.969315458924136" lon="12.181942400168147"><ele>225.0</ele><time>2026-04-25T08:13:01.833Z</time></trkpt><trkpt lat="45.96929909928386" lon="12.18205631542029"><ele>224.66666666666669</ele><time>2026-04-25T08:13:02.833Z</time></trkpt><trkpt lat="45.96927132414443" lon="12.182166174731542"><ele>224.33333333333334</ele><time>2026-04-25T08:13:03.833Z</time></trkpt><trkpt lat="45.969257360177394" lon="12.182276369964294"><ele>224.0</ele><time>2026-04-25T08:13:04.833Z</time></trkpt><trkpt lat="45.96924629493018" lon="12.182374271887355"><ele>223.66666666666669</ele><time>2026-04-25T08:13:05.833Z</time></trkpt><trkpt lat="45.969226952004746" lon="12.182524005878726"><ele>223.33333333333334</ele><time>2026-04-25T08:13:07.833Z</time></trkpt><trkpt lat="45.969203522038065" lon="12.182651448126762"><ele>223.0</ele><time>2026-04-25T08:13:09.833Z</time></trkpt><trkpt lat="45.96920668070148" lon="12.182754693900275"><ele>222.66666666666669</ele><time>2026-04-25T08:13:10.833Z</time></trkpt><trkpt lat="45.96920873642587" lon="12.182883679918456"><ele>222.33333333333334</ele><time>2026-04-25T08:13:11.833Z</time></trkpt><trkpt lat="45.96921487872146" lon="12.182997056755442"><ele>222.0</ele><time>2026-04-25T08:13:12.833Z</time></trkpt><trkpt lat="45.96920784229394" lon="12.183104743881353"><ele>222.16666666666666</ele><time>2026-04-25T08:13:13.833Z</time></trkpt><trkpt lat="45.96922325850088" lon="12.183208571471315"><ele>222.33333333333331</ele><time>2026-04-25T08:13:14.833Z</time></trkpt><trkpt lat="45.96922902697153" lon="12.18330107788166"><ele>222.5</ele><time>2026-04-25T08:13:15.833Z</time></trkpt><trkpt lat="45.96923359924937" lon="12.183476425954774"><ele>222.66666666666666</ele><time>2026-04-25T08:13:17.833Z</time></trkpt><trkpt lat="45.96924240628949" lon="12.18356976985741"><ele>222.83333333333331</ele><time>2026-04-25T08:13:18.833Z</time></trkpt><trkpt lat="45.96924040363663" lon="12.183666288072782"><ele>223.0</ele><time>2026-04-25T08:13:19.833Z</time></trkpt><trkpt lat="45.9692517055027" lon="12.183839872111923"><ele>223.0</ele><time>2026-04-25T08:13:21.834Z</time></trkpt><trkpt lat="45.96926677644423" lon="12.183945711207157"><ele>223.0</ele><time>2026-04-25T08:13:22.835Z</time></trkpt><trkpt lat="45.969281157530546" lon="12.184041865356757"><ele>223.0</ele><time>2026-04-25T08:13:23.836Z</time></trkpt><trkpt lat="45.96928767409194" lon="12.184181946767167"><ele>223.0</ele><time>2026-04-25T08:13:25.837Z</time></trkpt><trkpt lat="45.96929350891948" lon="12.184319381874413"><ele>223.0</ele><time>2026-04-25T08:13:27.837Z</time></trkpt><trkpt lat="45.96926935658049" lon="12.184485652660586"><ele>222.8</ele><time>2026-04-25T08:13:29.838Z</time></trkpt><trkpt lat="45.969239138222825" lon="12.184636299972334"><ele>222.60000000000002</ele><time>2026-04-25T08:13:31.839Z</time></trkpt><trkpt lat="45.9692097348285" lon="12.184790171834313"><ele>222.39999999999998</ele><time>2026-04-25T08:13:33.839Z</time></trkpt><trkpt lat="45.96920674397363" lon="12.184921802100764"><ele>222.2</ele><time>2026-04-25T08:13:35.84Z</time></trkpt><trkpt lat="45.96919167487125" lon="12.185036931003665"><ele>222.0</ele><time>2026-04-25T08:13:37.84Z</time></trkpt><trkpt lat="45.96919448247163" lon="12.185132618368335"><ele>221.8</ele><time>2026-04-25T08:13:39.841Z</time></trkpt><trkpt lat="45.96919155633942" lon="12.18527739113811"><ele>221.6</ele><time>2026-04-25T08:13:42.841Z</time></trkpt><trkpt lat="45.96921043992671" lon="12.185395735796416"><ele>221.40000000000003</ele><time>2026-04-25T08:13:44.842Z</time></trkpt><trkpt lat="45.969204489591775" lon="12.18554748789453"><ele>221.20000000000002</ele><time>2026-04-25T08:13:47.842Z</time></trkpt><trkpt lat="45.96918485608833" lon="12.185683483355756"><ele>221.0</ele><time>2026-04-25T08:13:49.842Z</time></trkpt><trkpt lat="45.96915117257247" lon="12.18584449577639"><ele>224.0</ele><time>2026-04-25T08:13:51.842Z</time></trkpt><trkpt lat="45.96913114051997" lon="12.185945733411279"><ele>227.00000000000003</ele><time>2026-04-25T08:13:52.842Z</time></trkpt><trkpt lat="45.96911008535157" lon="12.186102092588934"><ele>230.00000000000003</ele><time>2026-04-25T08:13:54.843Z</time></trkpt><trkpt lat="45.96912549665212" lon="12.186250897786374"><ele>233.0</ele><time>2026-04-25T08:13:56.843Z</time></trkpt><trkpt lat="45.96914195501993" lon="12.186406899447928"><ele>236.0</ele><time>2026-04-25T08:13:58.843Z</time></trkpt><trkpt lat="45.969167263541806" lon="12.18655569808893"><ele>236.50000000000003</ele><time>2026-04-25T08:14:00.843Z</time></trkpt><trkpt lat="45.96918603237033" lon="12.186687126357588"><ele>237.0</ele><time>2026-04-25T08:14:02.843Z</time></trkpt><trkpt lat="45.96921011179064" lon="12.18683800167052"><ele>237.5</ele><time>2026-04-25T08:14:04.843Z</time></trkpt><trkpt lat="45.96922042208139" lon="12.186943187661953"><ele>238.0</ele><time>2026-04-25T08:14:05.843Z</time></trkpt><trkpt lat="45.9692333975265" lon="12.187035391657286"><ele>238.50000000000003</ele><time>2026-04-25T08:14:06.843Z</time></trkpt><trkpt lat="45.96924281371539" lon="12.187150055008708"><ele>239.0</ele><time>2026-04-25T08:14:07.843Z</time></trkpt><trkpt lat="45.969259321521385" lon="12.187245063791767"><ele>236.33333333333334</ele><time>2026-04-25T08:14:08.843Z</time></trkpt><trkpt lat="45.9692821431618" lon="12.18736428190603"><ele>233.66666666666669</ele><time>2026-04-25T08:14:09.843Z</time></trkpt><trkpt lat="45.969310728808544" lon="12.187472902173425"><ele>231.0</ele><time>2026-04-25T08:14:10.843Z</time></trkpt><trkpt lat="45.96934084742068" lon="12.187600626668228"><ele>228.33333333333331</ele><time>2026-04-25T08:14:11.843Z</time></trkpt><trkpt lat="45.96938700501017" lon="12.187722512973503"><ele>225.66666666666666</ele><time>2026-04-25T08:14:12.843Z</time></trkpt><trkpt lat="45.969412613388414" lon="12.187829879444985"><ele>223.0</ele><time>2026-04-25T08:14:13.843Z</time></trkpt><trkpt lat="45.96943615469462" lon="12.187938967266478"><ele>223.0</ele><time>2026-04-25T08:14:14.843Z</time></trkpt><trkpt lat="45.96943465574347" lon="12.188056757525572"><ele>223.0</ele><time>2026-04-25T08:14:15.843Z</time></trkpt><trkpt lat="45.96942169818336" lon="12.18822381390796"><ele>223.0</ele><time>2026-04-25T08:14:17.843Z</time></trkpt><trkpt lat="45.96941657032297" lon="12.188351479913145"><ele>223.0</ele><time>2026-04-25T08:14:19.843Z</time></trkpt><trkpt lat="45.96941662673596" lon="12.188469340484463"><ele>223.0</ele><time>2026-04-25T08:14:21.843Z</time></trkpt><trkpt lat="45.96942768969813" lon="12.188612295304281"><ele>223.2</ele><time>2026-04-25T08:14:24.843Z</time></trkpt><trkpt lat="45.96948117833119" lon="12.188744371778972"><ele>223.4</ele><time>2026-04-25T08:14:26.843Z</time></trkpt><trkpt lat="45.96956625478523" lon="12.1888522736964"><ele>223.59999999999997</ele><time>2026-04-25T08:14:28.843Z</time></trkpt><trkpt lat="45.96962997215491" lon="12.188979058998267"><ele>223.79999999999998</ele><time>2026-04-25T08:14:30.843Z</time></trkpt><trkpt lat="45.96965474156807" lon="12.189077348201058"><ele>224.0</ele><time>2026-04-25T08:14:31.843Z</time></trkpt><trkpt lat="45.96966878126917" lon="12.189180345742212"><ele>225.16666666666669</ele><time>2026-04-25T08:14:32.843Z</time></trkpt><trkpt lat="45.96966168949952" lon="12.189291778581326"><ele>226.33333333333334</ele><time>2026-04-25T08:14:33.843Z</time></trkpt><trkpt lat="45.96962354485564" lon="12.189373930547083"><ele>227.5</ele><time>2026-04-25T08:14:34.843Z</time></trkpt><trkpt lat="45.96958692034331" lon="12.189486397158806"><ele>228.66666666666669</ele><time>2026-04-25T08:14:36.843Z</time></trkpt><trkpt lat="45.9695693562229" lon="12.189621109291593"><ele>229.83333333333334</ele><time>2026-04-25T08:14:38.843Z</time></trkpt><trkpt lat="45.96955136670596" lon="12.18974366875181"><ele>231.0</ele><time>2026-04-25T08:14:40.843Z</time></trkpt><trkpt lat="45.969565763784416" lon="12.189850524111632"><ele>231.16666666666666</ele><time>2026-04-25T08:14:41.843Z</time></trkpt><trkpt lat="45.96956275113607" lon="12.189944762414006"><ele>231.33333333333331</ele><time>2026-04-25T08:14:42.843Z</time></trkpt><trkpt lat="45.969559308528574" lon="12.19009973434563"><ele>231.5</ele><time>2026-04-25T08:14:44.844Z</time></trkpt><trkpt lat="45.96953677682677" lon="12.19022464334049"><ele>231.66666666666666</ele><time>2026-04-25T08:14:46.844Z</time></trkpt><trkpt lat="45.96951046048389" lon="12.190315171294337"><ele>231.83333333333331</ele><time>2026-04-25T08:14:47.844Z</time></trkpt><trkpt lat="45.969478515364976" lon="12.190406918237294"><ele>232.0</ele><time>2026-04-25T08:14:48.844Z</time></trkpt><trkpt lat="45.96944839148914" lon="12.190494062676024"><ele>231.99999999999997</ele><time>2026-04-25T08:14:49.845Z</time></trkpt><trkpt lat="45.96942567848791" lon="12.190657543779308"><ele>232.0</ele><time>2026-04-25T08:14:51.844Z</time></trkpt><trkpt lat="45.969406583683906" lon="12.190785170439527"><ele>232.0</ele><time>2026-04-25T08:14:53.844Z</time></trkpt><trkpt lat="45.96939409143375" lon="12.190879659413527"><ele>232.0</ele><time>2026-04-25T08:14:56.844Z</time></trkpt><trkpt lat="45.96940761229859" lon="12.190980162574828"><ele>231.99999999999997</ele><time>2026-04-25T08:14:58.844Z</time></trkpt><trkpt lat="45.96940737706133" lon="12.191080451944156"><ele>232.0</ele><time>2026-04-25T08:15:00.844Z</time></trkpt><trkpt lat="45.96941701892613" lon="12.191223449021432"><ele>232.33333333333331</ele><time>2026-04-25T08:15:03.844Z</time></trkpt><trkpt lat="45.96943214567069" lon="12.191352070975185"><ele>232.66666666666666</ele><time>2026-04-25T08:15:06.844Z</time></trkpt><trkpt lat="45.96944611704651" lon="12.191459877924336"><ele>233.0</ele><time>2026-04-25T08:15:08.844Z</time></trkpt><trkpt lat="45.96945221042676" lon="12.1915737421639"><ele>233.33333333333331</ele><time>2026-04-25T08:15:10.844Z</time></trkpt><trkpt lat="45.969462880389244" lon="12.191705711857546"><ele>233.66666666666666</ele><time>2026-04-25T08:15:12.844Z</time></trkpt><trkpt lat="45.96945541034831" lon="12.191810455305879"><ele>234.0</ele><time>2026-04-25T08:15:13.844Z</time></trkpt><trkpt lat="45.96945192161237" lon="12.191953477615334"><ele>234.2</ele><time>2026-04-25T08:15:15.844Z</time></trkpt><trkpt lat="45.96944265694035" lon="12.192070053561055"><ele>234.39999999999998</ele><time>2026-04-25T08:15:16.844Z</time></trkpt><trkpt lat="45.969438326815144" lon="12.192165933386283"><ele>234.6</ele><time>2026-04-25T08:15:17.844Z</time></trkpt><trkpt lat="45.96944328444102" lon="12.192341822368565"><ele>234.8</ele><time>2026-04-25T08:15:19.844Z</time></trkpt><trkpt lat="45.96946217283916" lon="12.192428331158936"><ele>235.0</ele><time>2026-04-25T08:15:20.844Z</time></trkpt><trkpt lat="45.96947827875931" lon="12.192597525223391"><ele>235.33333333333331</ele><time>2026-04-25T08:15:22.844Z</time></trkpt><trkpt lat="45.96952045326928" lon="12.192732256984197"><ele>235.66666666666666</ele><time>2026-04-25T08:15:24.844Z</time></trkpt><trkpt lat="45.96956173584558" lon="12.192866939543022"><ele>236.0</ele><time>2026-04-25T08:15:26.844Z</time></trkpt><trkpt lat="45.96961627921328" lon="12.192992685464159"><ele>236.33333333333331</ele><time>2026-04-25T08:15:28.844Z</time></trkpt><trkpt lat="45.96966189300539" lon="12.193083307603464"><ele>236.66666666666666</ele><time>2026-04-25T08:15:30.844Z</time></trkpt><trkpt lat="45.969705067572725" lon="12.193149956346147"><ele>237.0</ele><time>2026-04-25T08:15:32.844Z</time></trkpt><trkpt lat="45.969706955101515" lon="12.193273275653713"><ele>237.6</ele><time>2026-04-25T08:15:34.844Z</time></trkpt><trkpt lat="45.96972194511966" lon="12.193402674074115"><ele>238.2</ele><time>2026-04-25T08:15:36.844Z</time></trkpt><trkpt lat="45.969753515903676" lon="12.1935191325216"><ele>238.8</ele><time>2026-04-25T08:15:38.844Z</time></trkpt><trkpt lat="45.96978388599144" lon="12.19363963626527"><ele>239.4</ele><time>2026-04-25T08:15:40.844Z</time></trkpt><trkpt lat="45.96981795880073" lon="12.193812878824719"><ele>240.0</ele><time>2026-04-25T08:15:42.844Z</time></trkpt><trkpt lat="45.96987356557168" lon="12.193969911316083"><ele>239.5</ele><time>2026-04-25T08:15:44.844Z</time></trkpt><trkpt lat="45.96991002579207" lon="12.194045961461793"><ele>239.0</ele><time>2026-04-25T08:15:45.844Z</time></trkpt><trkpt lat="45.96996479604611" lon="12.194163160653332"><ele>238.5</ele><time>2026-04-25T08:15:47.844Z</time></trkpt><trkpt lat="45.97003122857813" lon="12.194298981594546"><ele>238.0</ele><time>2026-04-25T08:15:49.844Z</time></trkpt><trkpt lat="45.97008271453658" lon="12.19440949181707"><ele>237.5</ele><time>2026-04-25T08:15:51.844Z</time></trkpt><trkpt lat="45.970119054244506" lon="12.194492646887921"><ele>237.0</ele><time>2026-04-25T08:15:53.844Z</time></trkpt><trkpt lat="45.970158056325" lon="12.194594767641489"><ele>237.0</ele><time>2026-04-25T08:15:56.844Z</time></trkpt><trkpt lat="45.97016677979256" lon="12.194688055084255"><ele>237.0</ele><time>2026-04-25T08:15:58.844Z</time></trkpt><trkpt lat="45.97018646587572" lon="12.194784114450133"><ele>237.0</ele><time>2026-04-25T08:16:00.844Z</time></trkpt><trkpt lat="45.97020328590474" lon="12.19490825181148"><ele>237.0</ele><time>2026-04-25T08:16:02.844Z</time></trkpt><trkpt lat="45.970225955980744" lon="12.195031932525303"><ele>237.0</ele><time>2026-04-25T08:16:04.844Z</time></trkpt><trkpt lat="45.97024059167543" lon="12.195172629574676"><ele>237.0</ele><time>2026-04-25T08:16:06.844Z</time></trkpt><trkpt lat="45.970250195045644" lon="12.195320750715966"><ele>237.8</ele><time>2026-04-25T08:16:08.844Z</time></trkpt><trkpt lat="45.97025602884997" lon="12.195508682166972"><ele>238.6</ele><time>2026-04-25T08:16:10.844Z</time></trkpt><trkpt lat="45.970255613760955" lon="12.195607212542962"><ele>239.40000000000003</ele><time>2026-04-25T08:16:11.844Z</time></trkpt><trkpt lat="45.97025218889529" lon="12.195705005450284"><ele>240.20000000000002</ele><time>2026-04-25T08:16:12.844Z</time></trkpt><trkpt lat="45.97023898097264" lon="12.195809896518439"><ele>241.0</ele><time>2026-04-25T08:16:13.844Z</time></trkpt><trkpt lat="45.97019361087199" lon="12.19595454755386"><ele>241.57142857142858</ele><time>2026-04-25T08:16:15.844Z</time></trkpt><trkpt lat="45.97014463547566" lon="12.196060104486332"><ele>242.14285714285717</ele><time>2026-04-25T08:16:17.844Z</time></trkpt><trkpt lat="45.97011156742551" lon="12.19615600469752"><ele>242.71428571428572</ele><time>2026-04-25T08:16:19.844Z</time></trkpt><trkpt lat="45.97009247479633" lon="12.196247742154931"><ele>243.28571428571428</ele><time>2026-04-25T08:16:21.844Z</time></trkpt><trkpt lat="45.970072995149586" lon="12.196339209317607"><ele>243.85714285714286</ele><time>2026-04-25T08:16:23.844Z</time></trkpt><trkpt lat="45.97005491466161" lon="12.196429384670676"><ele>244.42857142857144</ele><time>2026-04-25T08:16:25.844Z</time></trkpt><trkpt lat="45.970052262394375" lon="12.196527929083258"><ele>245.0</ele><time>2026-04-25T08:16:27.844Z</time></trkpt><trkpt lat="45.97006008974108" lon="12.196649005660008"><ele>246.00000000000003</ele><time>2026-04-25T08:16:30.844Z</time></trkpt><trkpt lat="45.97008491065804" lon="12.196757917651436"><ele>247.0</ele><time>2026-04-25T08:16:33.844Z</time></trkpt><trkpt lat="45.97011322481261" lon="12.196854754446491"><ele>248.0</ele><time>2026-04-25T08:16:36.843Z</time></trkpt><trkpt lat="45.97014308366195" lon="12.196989541195995"><ele>249.0</ele><time>2026-04-25T08:16:39.843Z</time></trkpt><trkpt lat="45.97017259560948" lon="12.197110696343566"><ele>250.00000000000003</ele><time>2026-04-25T08:16:41.843Z</time></trkpt><trkpt lat="45.97021815868915" lon="12.197208563742024"><ele>251.0</ele><time>2026-04-25T08:16:43.843Z</time></trkpt><trkpt lat="45.97025226062733" lon="12.197342802692361"><ele>252.0</ele><time>2026-04-25T08:16:45.843Z</time></trkpt><trkpt lat="45.97029238212322" lon="12.197460027202816"><ele>253.00000000000003</ele><time>2026-04-25T08:16:47.843Z</time></trkpt><trkpt lat="45.97033608517191" lon="12.197569981368979"><ele>254.00000000000003</ele><time>2026-04-25T08:16:49.843Z</time></trkpt><trkpt lat="45.970388294771816" lon="12.197641000558438"><ele>255.0</ele><time>2026-04-25T08:16:51.844Z</time></trkpt><trkpt lat="45.97049946034155" lon="12.197709947119789"><ele>256.0</ele><time>2026-04-25T08:16:53.844Z</time></trkpt><trkpt lat="45.97061634155262" lon="12.197763698652334"><ele>255.99999999999997</ele><time>2026-04-25T08:16:55.844Z</time></trkpt><trkpt lat="45.97067216823868" lon="12.19781505429009"><ele>256.0</ele><time>2026-04-25T08:16:56.844Z</time></trkpt><trkpt lat="45.970735514637475" lon="12.197884575108363"><ele>256.0</ele><time>2026-04-25T08:16:57.844Z</time></trkpt><trkpt lat="45.970807065966525" lon="12.197968858689734"><ele>256.0</ele><time>2026-04-25T08:16:58.844Z</time></trkpt><trkpt lat="45.97085928113706" lon="12.198058653800956"><ele>255.99999999999997</ele><time>2026-04-25T08:16:59.844Z</time></trkpt><trkpt lat="45.97089418251596" lon="12.198174449017674"><ele>256.0</ele><time>2026-04-25T08:17:00.843Z</time></trkpt><trkpt lat="45.97092893090376" lon="12.198268801760094"><ele>253.8</ele><time>2026-04-25T08:17:01.844Z</time></trkpt><trkpt lat="45.970955853250544" lon="12.198361312036424"><ele>251.60000000000002</ele><time>2026-04-25T08:17:02.844Z</time></trkpt><trkpt lat="45.97103986560192" lon="12.19848699462982"><ele>249.4</ele><time>2026-04-25T08:17:04.844Z</time></trkpt><trkpt lat="45.9711315195222" lon="12.19858649859387"><ele>247.2</ele><time>2026-04-25T08:17:06.844Z</time></trkpt><trkpt lat="45.97123721021105" lon="12.198619816212394"><ele>245.0</ele><time>2026-04-25T08:17:08.844Z</time></trkpt><trkpt lat="45.97130462145456" lon="12.19867167798827"><ele>245.00000000000003</ele><time>2026-04-25T08:17:09.844Z</time></trkpt><trkpt lat="45.971352685423376" lon="12.198743111986598"><ele>245.0</ele><time>2026-04-25T08:17:10.844Z</time></trkpt><trkpt lat="45.971397172167414" lon="12.198813384701614"><ele>245.0</ele><time>2026-04-25T08:17:11.844Z</time></trkpt><trkpt lat="45.9714679166057" lon="12.198942582297063"><ele>245.0</ele><time>2026-04-25T08:17:13.844Z</time></trkpt><trkpt lat="45.97152441396749" lon="12.19901942511918"><ele>245.00000000000003</ele><time>2026-04-25T08:17:15.844Z</time></trkpt><trkpt lat="45.971535689713384" lon="12.198924576687029"><ele>245.0</ele><time>2026-04-25T08:17:22.844Z</time></trkpt><trkpt lat="45.97157832656422" lon="12.198833400322869"><ele>245.0</ele><time>2026-04-25T08:17:26.844Z</time></trkpt><trkpt lat="45.97165054015403" lon="12.198888300351436"><ele>245.0</ele><time>2026-04-25T08:17:29.844Z</time></trkpt><trkpt lat="45.97167647274562" lon="12.199022008480112"><ele>245.0</ele><time>2026-04-25T08:17:31.844Z</time></trkpt><trkpt lat="45.971738298963764" lon="12.199151965705271"><ele>245.0</ele><time>2026-04-25T08:17:33.844Z</time></trkpt><trkpt lat="45.97182131783664" lon="12.1992538978143"><ele>245.0</ele><time>2026-04-25T08:17:35.844Z</time></trkpt><trkpt lat="45.97188502083773" lon="12.199278661877768"><ele>243.14285714285714</ele><time>2026-04-25T08:17:36.844Z</time></trkpt><trkpt lat="45.971977246766585" lon="12.199304154318877"><ele>241.28571428571428</ele><time>2026-04-25T08:17:38.844Z</time></trkpt><trkpt lat="45.97201250901893" lon="12.199381488419986"><ele>239.42857142857144</ele><time>2026-04-25T08:17:39.844Z</time></trkpt><trkpt lat="45.97203509172425" lon="12.199466517132679"><ele>237.57142857142858</ele><time>2026-04-25T08:17:40.844Z</time></trkpt><trkpt lat="45.972058267609654" lon="12.199552964594425"><ele>235.71428571428572</ele><time>2026-04-25T08:17:41.844Z</time></trkpt><trkpt lat="45.97208393467255" lon="12.199651041739589"><ele>233.8571428571429</ele><time>2026-04-25T08:17:42.844Z</time></trkpt><trkpt lat="45.97210826404792" lon="12.199759880836911"><ele>232.00000000000003</ele><time>2026-04-25T08:17:43.844Z</time></trkpt><trkpt lat="45.97213914879422" lon="12.19986501722731"><ele>231.99999999999997</ele><time>2026-04-25T08:17:44.844Z</time></trkpt><trkpt lat="45.97216295335735" lon="12.199985082385734"><ele>232.0</ele><time>2026-04-25T08:17:45.844Z</time></trkpt><trkpt lat="45.97218848941237" lon="12.200101247013313"><ele>232.0</ele><time>2026-04-25T08:17:46.844Z</time></trkpt><trkpt lat="45.97221878235315" lon="12.200213062695731"><ele>232.0</ele><time>2026-04-25T08:17:47.844Z</time></trkpt><trkpt lat="45.97225253269541" lon="12.200320911414806"><ele>231.99999999999997</ele><time>2026-04-25T08:17:48.844Z</time></trkpt><trkpt lat="45.97228976485386" lon="12.200433917856284"><ele>232.0</ele><time>2026-04-25T08:17:49.844Z</time></trkpt><trkpt lat="45.97233161937873" lon="12.200548438465542"><ele>232.16666666666666</ele><time>2026-04-25T08:17:50.844Z</time></trkpt><trkpt lat="45.972355270000854" lon="12.200676653721136"><ele>232.33333333333331</ele><time>2026-04-25T08:17:51.844Z</time></trkpt><trkpt lat="45.972380621797896" lon="12.200788921747247"><ele>232.5</ele><time>2026-04-25T08:17:52.844Z</time></trkpt><trkpt lat="45.97238862683146" lon="12.200901842755705"><ele>232.66666666666669</ele><time>2026-04-25T08:17:53.844Z</time></trkpt><trkpt lat="45.97240471374945" lon="12.200994794077245"><ele>232.83333333333334</ele><time>2026-04-25T08:17:54.844Z</time></trkpt><trkpt lat="45.97245838612812" lon="12.201116532748692"><ele>233.0</ele><time>2026-04-25T08:17:56.844Z</time></trkpt><trkpt lat="45.97260940572785" lon="12.20109922494998"><ele>231.83333333333334</ele><time>2026-04-25T08:17:59.844Z</time></trkpt><trkpt lat="45.9726782600267" lon="12.201043390419114"><ele>230.66666666666669</ele><time>2026-04-25T08:18:00.844Z</time></trkpt><trkpt lat="45.97274834508239" lon="12.200993198380687"><ele>229.5</ele><time>2026-04-25T08:18:01.844Z</time></trkpt><trkpt lat="45.972828349581306" lon="12.200965376146348"><ele>228.33333333333331</ele><time>2026-04-25T08:18:02.844Z</time></trkpt><trkpt lat="45.97290860224377" lon="12.200933019551028"><ele>227.16666666666666</ele><time>2026-04-25T08:18:03.844Z</time></trkpt><trkpt lat="45.972988482652354" lon="12.200902020904001"><ele>226.0</ele><time>2026-04-25T08:18:04.844Z</time></trkpt><trkpt lat="45.97307347394786" lon="12.200868055448892"><ele>225.99999999999997</ele><time>2026-04-25T08:18:05.844Z</time></trkpt><trkpt lat="45.97315501290292" lon="12.200833281264224"><ele>226.0</ele><time>2026-04-25T08:18:06.844Z</time></trkpt><trkpt lat="45.97322500221013" lon="12.200796245294423"><ele>226.0</ele><time>2026-04-25T08:18:07.844Z</time></trkpt><trkpt lat="45.97330642211976" lon="12.200765704308994"><ele>226.0</ele><time>2026-04-25T08:18:08.844Z</time></trkpt><trkpt lat="45.973386585987825" lon="12.200727858784838"><ele>225.99999999999997</ele><time>2026-04-25T08:18:09.844Z</time></trkpt><trkpt lat="45.9734627543375" lon="12.200705651581098"><ele>226.0</ele><time>2026-04-25T08:18:10.844Z</time></trkpt><trkpt lat="45.97354310373097" lon="12.2006712323271"><ele>225.33333333333331</ele><time>2026-04-25T08:18:11.844Z</time></trkpt><trkpt lat="45.97361705580414" lon="12.200638113774016"><ele>224.66666666666666</ele><time>2026-04-25T08:18:12.844Z</time></trkpt><trkpt lat="45.97368508479635" lon="12.20058973575738"><ele>224.0</ele><time>2026-04-25T08:18:13.844Z</time></trkpt><trkpt lat="45.973755779572976" lon="12.200546369841474"><ele>223.33333333333331</ele><time>2026-04-25T08:18:14.844Z</time></trkpt><trkpt lat="45.973834950215746" lon="12.200520741315318"><ele>222.66666666666666</ele><time>2026-04-25T08:18:15.844Z</time></trkpt><trkpt lat="45.973912266549114" lon="12.200489241234875"><ele>222.0</ele><time>2026-04-25T08:18:16.844Z</time></trkpt><trkpt lat="45.973995483728565" lon="12.200461442483604"><ele>222.0</ele><time>2026-04-25T08:18:17.844Z</time></trkpt><trkpt lat="45.97407944356719" lon="12.200425767268117"><ele>222.0</ele><time>2026-04-25T08:18:18.844Z</time></trkpt><trkpt lat="45.97415556654859" lon="12.20037961105053"><ele>222.0</ele><time>2026-04-25T08:18:19.844Z</time></trkpt><trkpt lat="45.97424116661115" lon="12.200328766939073"><ele>222.0</ele><time>2026-04-25T08:18:20.844Z</time></trkpt><trkpt lat="45.97432532193058" lon="12.200286506271395"><ele>222.0</ele><time>2026-04-25T08:18:21.844Z</time></trkpt><trkpt lat="45.97440540238594" lon="12.200266650997095"><ele>222.0</ele><time>2026-04-25T08:18:22.844Z</time></trkpt><trkpt lat="45.97448792998828" lon="12.200244648490154"><ele>222.16666666666666</ele><time>2026-04-25T08:18:23.844Z</time></trkpt><trkpt lat="45.974565053306115" lon="12.200209074251422"><ele>222.33333333333331</ele><time>2026-04-25T08:18:24.844Z</time></trkpt><trkpt lat="45.97464354213674" lon="12.200176015711639"><ele>222.5</ele><time>2026-04-25T08:18:25.844Z</time></trkpt><trkpt lat="45.974724402280394" lon="12.200134797684322"><ele>222.66666666666666</ele><time>2026-04-25T08:18:26.844Z</time></trkpt><trkpt lat="45.974801171000266" lon="12.200098130078423"><ele>222.83333333333331</ele><time>2026-04-25T08:18:27.844Z</time></trkpt><trkpt lat="45.974876161954825" lon="12.20005569600361"><ele>223.0</ele><time>2026-04-25T08:18:28.844Z</time></trkpt><trkpt lat="45.974948022637705" lon="12.200006465524735"><ele>223.0</ele><time>2026-04-25T08:18:29.844Z</time></trkpt><trkpt lat="45.97502390413559" lon="12.199963447656048"><ele>223.0</ele><time>2026-04-25T08:18:30.844Z</time></trkpt><trkpt lat="45.9750912724632" lon="12.199934587354466"><ele>223.0</ele><time>2026-04-25T08:18:31.844Z</time></trkpt><trkpt lat="45.97516755928462" lon="12.199900137414652"><ele>223.0</ele><time>2026-04-25T08:18:32.843Z</time></trkpt><trkpt lat="45.97523340316205" lon="12.199867583868802"><ele>223.0</ele><time>2026-04-25T08:18:33.843Z</time></trkpt><trkpt lat="45.97529829509945" lon="12.19984142265372"><ele>223.0</ele><time>2026-04-25T08:18:34.843Z</time></trkpt><trkpt lat="45.97536834899574" lon="12.199813990951975"><ele>223.0</ele><time>2026-04-25T08:18:35.843Z</time></trkpt><trkpt lat="45.97543743772661" lon="12.199779970365856"><ele>222.99999999999997</ele><time>2026-04-25T08:18:36.843Z</time></trkpt><trkpt lat="45.97549950666207" lon="12.199734808992778"><ele>223.0</ele><time>2026-04-25T08:18:37.843Z</time></trkpt><trkpt lat="45.975560132783" lon="12.199696548012763"><ele>223.0</ele><time>2026-04-25T08:18:38.843Z</time></trkpt><trkpt lat="45.97562312853688" lon="12.19966052640218"><ele>223.0</ele><time>2026-04-25T08:18:39.843Z</time></trkpt><trkpt lat="45.97568967594605" lon="12.199630045888359"><ele>222.99999999999997</ele><time>2026-04-25T08:18:40.843Z</time></trkpt><trkpt lat="45.97580038803785" lon="12.199581502096919"><ele>223.0</ele><time>2026-04-25T08:18:42.843Z</time></trkpt><trkpt lat="45.975913749527194" lon="12.199524246594617"><ele>223.2</ele><time>2026-04-25T08:18:44.843Z</time></trkpt><trkpt lat="45.976008920197025" lon="12.19948965099078"><ele>223.4</ele><time>2026-04-25T08:18:46.843Z</time></trkpt><trkpt lat="45.97610268166638" lon="12.19951313091848"><ele>223.59999999999997</ele><time>2026-04-25T08:18:48.843Z</time></trkpt><trkpt lat="45.9761760870177" lon="12.199639213843662"><ele>223.79999999999998</ele><time>2026-04-25T08:18:50.843Z</time></trkpt><trkpt lat="45.976214377004034" lon="12.199806717403144"><ele>224.0</ele><time>2026-04-25T08:18:52.843Z</time></trkpt><trkpt lat="45.97624346055728" lon="12.199888858959145"><ele>224.00000000000003</ele><time>2026-04-25T08:18:53.843Z</time></trkpt><trkpt lat="45.976290585931096" lon="12.20003928517171"><ele>224.0</ele><time>2026-04-25T08:18:55.843Z</time></trkpt><trkpt lat="45.97631960610826" lon="12.200131912110285"><ele>224.0</ele><time>2026-04-25T08:18:56.844Z</time></trkpt><trkpt lat="45.976356312140126" lon="12.200224023405953"><ele>224.0</ele><time>2026-04-25T08:18:57.844Z</time></trkpt><trkpt lat="45.976387959365994" lon="12.200311679893643"><ele>224.00000000000003</ele><time>2026-04-25T08:18:58.843Z</time></trkpt><trkpt lat="45.97642281703429" lon="12.200393775776693"><ele>224.0</ele><time>2026-04-25T08:18:59.844Z</time></trkpt><trkpt lat="45.976445244680086" lon="12.20047864966274"><ele>224.00000000000003</ele><time>2026-04-25T08:19:00.844Z</time></trkpt><trkpt lat="45.97647120659304" lon="12.200567323195438"><ele>224.0</ele><time>2026-04-25T08:19:01.844Z</time></trkpt><trkpt lat="45.9764971200615" lon="12.200663326116567"><ele>224.0</ele><time>2026-04-25T08:19:02.844Z</time></trkpt><trkpt lat="45.97653142457765" lon="12.200752879697543"><ele>224.0</ele><time>2026-04-25T08:19:03.844Z</time></trkpt><trkpt lat="45.97656034215211" lon="12.200837910890687"><ele>224.00000000000003</ele><time>2026-04-25T08:19:04.844Z</time></trkpt><trkpt lat="45.97659140023168" lon="12.200923815259626"><ele>224.0</ele><time>2026-04-25T08:19:05.844Z</time></trkpt><trkpt lat="45.9766335810817" lon="12.201080416146725"><ele>224.0</ele><time>2026-04-25T08:19:07.844Z</time></trkpt><trkpt lat="45.97668455368567" lon="12.201226036256871"><ele>224.0</ele><time>2026-04-25T08:19:09.844Z</time></trkpt><trkpt lat="45.97672096591642" lon="12.201394514408683"><ele>224.0</ele><time>2026-04-25T08:19:11.844Z</time></trkpt><trkpt lat="45.97677121454746" lon="12.201562689511634"><ele>224.0</ele><time>2026-04-25T08:19:13.844Z</time></trkpt><trkpt lat="45.97682102219597" lon="12.201728434088684"><ele>224.00000000000003</ele><time>2026-04-25T08:19:15.844Z</time></trkpt><trkpt lat="45.976872136838814" lon="12.201897553805406"><ele>224.0</ele><time>2026-04-25T08:19:17.844Z</time></trkpt><trkpt lat="45.976901777330625" lon="12.201981399366762"><ele>224.0</ele><time>2026-04-25T08:19:18.844Z</time></trkpt><trkpt lat="45.97692303254008" lon="12.202073275578332"><ele>224.0</ele><time>2026-04-25T08:19:19.844Z</time></trkpt><trkpt lat="45.97695041261075" lon="12.202158554261528"><ele>224.00000000000003</ele><time>2026-04-25T08:19:20.844Z</time></trkpt><trkpt lat="45.97697394658114" lon="12.202253508657094"><ele>224.0</ele><time>2026-04-25T08:19:21.844Z</time></trkpt><trkpt lat="45.97699569390785" lon="12.20235320091438"><ele>223.57142857142858</ele><time>2026-04-25T08:19:22.844Z</time></trkpt><trkpt lat="45.977020856215624" lon="12.202453070929643"><ele>223.14285714285714</ele><time>2026-04-25T08:19:23.844Z</time></trkpt><trkpt lat="45.97704050208629" lon="12.2025516726684"><ele>222.71428571428572</ele><time>2026-04-25T08:19:24.844Z</time></trkpt><trkpt lat="45.977057952023095" lon="12.202640117790635"><ele>222.28571428571428</ele><time>2026-04-25T08:19:25.844Z</time></trkpt><trkpt lat="45.97708295854834" lon="12.202725975133774"><ele>221.85714285714286</ele><time>2026-04-25T08:19:26.844Z</time></trkpt><trkpt lat="45.97711021755729" lon="12.202821250171183"><ele>221.42857142857144</ele><time>2026-04-25T08:19:27.844Z</time></trkpt><trkpt lat="45.977136035196416" lon="12.20291277675271"><ele>221.0</ele><time>2026-04-25T08:19:28.844Z</time></trkpt><trkpt lat="45.977166009441454" lon="12.203004401006012"><ele>221.00000000000003</ele><time>2026-04-25T08:19:29.844Z</time></trkpt><trkpt lat="45.97719211564505" lon="12.20309545619584"><ele>221.0</ele><time>2026-04-25T08:19:30.844Z</time></trkpt><trkpt lat="45.97721826563351" lon="12.203187404426204"><ele>221.0</ele><time>2026-04-25T08:19:31.844Z</time></trkpt><trkpt lat="45.977248014378794" lon="12.203278552057713"><ele>221.0</ele><time>2026-04-25T08:19:32.844Z</time></trkpt><trkpt lat="45.977277649302124" lon="12.203361504073792"><ele>221.0</ele><time>2026-04-25T08:19:33.844Z</time></trkpt><trkpt lat="45.97730468466287" lon="12.203448536554504"><ele>221.00000000000003</ele><time>2026-04-25T08:19:34.844Z</time></trkpt><trkpt lat="45.97732160895383" lon="12.203539789138818"><ele>221.0</ele><time>2026-04-25T08:19:35.844Z</time></trkpt><trkpt lat="45.97734163001776" lon="12.203636658393405"><ele>221.16666666666669</ele><time>2026-04-25T08:19:36.843Z</time></trkpt><trkpt lat="45.97736228791482" lon="12.203724441335055"><ele>221.33333333333334</ele><time>2026-04-25T08:19:37.843Z</time></trkpt><trkpt lat="45.977392873980484" lon="12.203813813148956"><ele>221.5</ele><time>2026-04-25T08:19:38.843Z</time></trkpt><trkpt lat="45.97742155327302" lon="12.203902401941354"><ele>221.66666666666669</ele><time>2026-04-25T08:19:39.843Z</time></trkpt><trkpt lat="45.97748499135041" lon="12.204074263795112"><ele>221.83333333333334</ele><time>2026-04-25T08:19:41.843Z</time></trkpt><trkpt lat="45.97751198675568" lon="12.20416640941418"><ele>222.0</ele><time>2026-04-25T08:19:42.843Z</time></trkpt><trkpt lat="45.97754127851267" lon="12.20426063656469"><ele>222.42857142857142</ele><time>2026-04-25T08:19:43.843Z</time></trkpt><trkpt lat="45.977570122998955" lon="12.204359551149222"><ele>222.8571428571429</ele><time>2026-04-25T08:19:44.843Z</time></trkpt><trkpt lat="45.977602856521024" lon="12.20445860606291"><ele>223.2857142857143</ele><time>2026-04-25T08:19:45.843Z</time></trkpt><trkpt lat="45.977632837504615" lon="12.204553316991671"><ele>223.71428571428572</ele><time>2026-04-25T08:19:46.843Z</time></trkpt><trkpt lat="45.97766043384185" lon="12.204652863471784"><ele>224.14285714285717</ele><time>2026-04-25T08:19:47.843Z</time></trkpt><trkpt lat="45.9776893832577" lon="12.204755703744855"><ele>224.5714285714286</ele><time>2026-04-25T08:19:48.843Z</time></trkpt><trkpt lat="45.977711980772604" lon="12.20485623645352"><ele>225.00000000000003</ele><time>2026-04-25T08:19:49.843Z</time></trkpt><trkpt lat="45.97774140005137" lon="12.204951137807887"><ele>225.14285714285717</ele><time>2026-04-25T08:19:50.843Z</time></trkpt><trkpt lat="45.977768037973824" lon="12.205057121458113"><ele>225.28571428571428</ele><time>2026-04-25T08:19:51.843Z</time></trkpt><trkpt lat="45.97778999898169" lon="12.205156053998481"><ele>225.42857142857144</ele><time>2026-04-25T08:19:52.843Z</time></trkpt><trkpt lat="45.97782078031569" lon="12.20525394229439"><ele>225.57142857142858</ele><time>2026-04-25T08:19:53.843Z</time></trkpt><trkpt lat="45.97784584386419" lon="12.205350669372896"><ele>225.71428571428572</ele><time>2026-04-25T08:19:54.843Z</time></trkpt><trkpt lat="45.9778706023447" lon="12.205447895577091"><ele>225.85714285714286</ele><time>2026-04-25T08:19:55.843Z</time></trkpt><trkpt lat="45.97789283277445" lon="12.205540479671463"><ele>226.0</ele><time>2026-04-25T08:19:56.843Z</time></trkpt><trkpt lat="45.97792113463028" lon="12.205638295288203"><ele>225.85714285714286</ele><time>2026-04-25T08:19:57.843Z</time></trkpt><trkpt lat="45.97794548686847" lon="12.205740711897466"><ele>225.71428571428572</ele><time>2026-04-25T08:19:58.843Z</time></trkpt><trkpt lat="45.97797063830387" lon="12.205841206131039"><ele>225.57142857142858</ele><time>2026-04-25T08:19:59.843Z</time></trkpt><trkpt lat="45.977993738305216" lon="12.205940697127948"><ele>225.42857142857144</ele><time>2026-04-25T08:20:00.843Z</time></trkpt><trkpt lat="45.978026585426704" lon="12.206032213956478"><ele>225.28571428571428</ele><time>2026-04-25T08:20:01.843Z</time></trkpt><trkpt lat="45.97805234575177" lon="12.206122219948767"><ele>225.14285714285717</ele><time>2026-04-25T08:20:02.843Z</time></trkpt><trkpt lat="45.97808503799288" lon="12.20621558843994"><ele>225.00000000000003</ele><time>2026-04-25T08:20:03.843Z</time></trkpt><trkpt lat="45.97811898336639" lon="12.206315425351612"><ele>225.0</ele><time>2026-04-25T08:20:04.843Z</time></trkpt><trkpt lat="45.97814414126507" lon="12.206414348479216"><ele>225.0</ele><time>2026-04-25T08:20:05.843Z</time></trkpt><trkpt lat="45.97816538872552" lon="12.206514487637284"><ele>225.0</ele><time>2026-04-25T08:20:06.843Z</time></trkpt><trkpt lat="45.97819541996634" lon="12.206618574537297"><ele>225.0</ele><time>2026-04-25T08:20:07.843Z</time></trkpt><trkpt lat="45.97822941640348" lon="12.206722571662864"><ele>225.0</ele><time>2026-04-25T08:20:08.843Z</time></trkpt><trkpt lat="45.97825637913386" lon="12.20682148512754"><ele>225.0</ele><time>2026-04-25T08:20:09.843Z</time></trkpt><trkpt lat="45.97827997695439" lon="12.20692254373021"><ele>224.33333333333334</ele><time>2026-04-25T08:20:10.843Z</time></trkpt><trkpt lat="45.97830354380882" lon="12.207022170386756"><ele>223.66666666666669</ele><time>2026-04-25T08:20:11.843Z</time></trkpt><trkpt lat="45.978328975141835" lon="12.207115384304736"><ele>223.0</ele><time>2026-04-25T08:20:12.843Z</time></trkpt><trkpt lat="45.97835594844505" lon="12.207209318102418"><ele>222.33333333333334</ele><time>2026-04-25T08:20:13.843Z</time></trkpt><trkpt lat="45.97838347773569" lon="12.207292672837275"><ele>221.66666666666669</ele><time>2026-04-25T08:20:14.843Z</time></trkpt><trkpt lat="45.97841026688542" lon="12.207381638491743"><ele>221.0</ele><time>2026-04-25T08:20:15.843Z</time></trkpt><trkpt lat="45.97845298639029" lon="12.207557516183481"><ele>221.00000000000003</ele><time>2026-04-25T08:20:17.843Z</time></trkpt><trkpt lat="45.97847798606142" lon="12.207652355208806"><ele>221.0</ele><time>2026-04-25T08:20:18.843Z</time></trkpt><trkpt lat="45.97850556299729" lon="12.207737455684752"><ele>221.0</ele><time>2026-04-25T08:20:19.843Z</time></trkpt><trkpt lat="45.97853173216983" lon="12.207826908341394"><ele>221.0</ele><time>2026-04-25T08:20:20.843Z</time></trkpt><trkpt lat="45.97855906778372" lon="12.20791992614736"><ele>221.0</ele><time>2026-04-25T08:20:21.843Z</time></trkpt><trkpt lat="45.97857737839173" lon="12.208013964622689"><ele>221.00000000000003</ele><time>2026-04-25T08:20:22.843Z</time></trkpt><trkpt lat="45.97859898690967" lon="12.20810748049398"><ele>221.0</ele><time>2026-04-25T08:20:23.843Z</time></trkpt><trkpt lat="45.97861897376" lon="12.20820024982201"><ele>220.71428571428572</ele><time>2026-04-25T08:20:24.843Z</time></trkpt><trkpt lat="45.978642263452876" lon="12.208288930423404"><ele>220.42857142857144</ele><time>2026-04-25T08:20:25.843Z</time></trkpt><trkpt lat="45.9786662905075" lon="12.208376492804828"><ele>220.14285714285717</ele><time>2026-04-25T08:20:26.843Z</time></trkpt><trkpt lat="45.978692201366954" lon="12.208462341443532"><ele>219.85714285714286</ele><time>2026-04-25T08:20:27.843Z</time></trkpt><trkpt lat="45.97871465160289" lon="12.208554012080041"><ele>219.57142857142856</ele><time>2026-04-25T08:20:28.843Z</time></trkpt><trkpt lat="45.97873893095269" lon="12.208649115294842"><ele>219.2857142857143</ele><time>2026-04-25T08:20:29.843Z</time></trkpt><trkpt lat="45.97876403230368" lon="12.20873531797201"><ele>219.0</ele><time>2026-04-25T08:20:30.843Z</time></trkpt><trkpt lat="45.97878985662121" lon="12.208817940714663"><ele>219.0</ele><time>2026-04-25T08:20:31.843Z</time></trkpt><trkpt lat="45.97881318707308" lon="12.208904008461873"><ele>219.0</ele><time>2026-04-25T08:20:32.843Z</time></trkpt><trkpt lat="45.97883661804916" lon="12.208988952177691"><ele>219.0</ele><time>2026-04-25T08:20:33.843Z</time></trkpt><trkpt lat="45.97886020052293" lon="12.209074395894591"><ele>219.0</ele><time>2026-04-25T08:20:34.843Z</time></trkpt><trkpt lat="45.97889019961989" lon="12.209156876826935"><ele>219.0</ele><time>2026-04-25T08:20:35.843Z</time></trkpt><trkpt lat="45.97891702536085" lon="12.209245618353126"><ele>219.0</ele><time>2026-04-25T08:20:36.843Z</time></trkpt><trkpt lat="45.97893983756695" lon="12.209333084666879"><ele>219.0</ele><time>2026-04-25T08:20:37.843Z</time></trkpt><trkpt lat="45.978994303003226" lon="12.209496061598156"><ele>219.33333333333334</ele><time>2026-04-25T08:20:39.843Z</time></trkpt><trkpt lat="45.97902663177623" lon="12.20958222521312"><ele>219.66666666666669</ele><time>2026-04-25T08:20:40.843Z</time></trkpt><trkpt lat="45.97907748499963" lon="12.20975827499927"><ele>220.0</ele><time>2026-04-25T08:20:42.843Z</time></trkpt><trkpt lat="45.9790971745617" lon="12.209848329910512"><ele>220.33333333333334</ele><time>2026-04-25T08:20:43.843Z</time></trkpt><trkpt lat="45.979119504560465" lon="12.209938031631117"><ele>220.66666666666669</ele><time>2026-04-25T08:20:44.843Z</time></trkpt><trkpt lat="45.97914609564623" lon="12.210030864273207"><ele>221.0</ele><time>2026-04-25T08:20:45.843Z</time></trkpt><trkpt lat="45.97916797726205" lon="12.210117483793052"><ele>221.0</ele><time>2026-04-25T08:20:46.843Z</time></trkpt><trkpt lat="45.97921371100388" lon="12.210287647967872"><ele>221.00000000000003</ele><time>2026-04-25T08:20:48.843Z</time></trkpt><trkpt lat="45.97924037454291" lon="12.210384662571359"><ele>221.00000000000003</ele><time>2026-04-25T08:20:49.843Z</time></trkpt><trkpt lat="45.97928367230576" lon="12.210540819646392"><ele>221.0</ele><time>2026-04-25T08:20:51.843Z</time></trkpt><trkpt lat="45.979312346521404" lon="12.210630188291782"><ele>221.0</ele><time>2026-04-25T08:20:52.843Z</time></trkpt><trkpt lat="45.97933661148139" lon="12.210725286570558"><ele>220.71428571428572</ele><time>2026-04-25T08:20:53.843Z</time></trkpt><trkpt lat="45.979359619159" lon="12.210817697376312"><ele>220.42857142857144</ele><time>2026-04-25T08:20:54.843Z</time></trkpt><trkpt lat="45.97937380441455" lon="12.210910457396533"><ele>220.14285714285717</ele><time>2026-04-25T08:20:55.843Z</time></trkpt><trkpt lat="45.979395309068344" lon="12.211009388692874"><ele>219.85714285714286</ele><time>2026-04-25T08:20:56.843Z</time></trkpt><trkpt lat="45.97942479152155" lon="12.211097559507802"><ele>219.57142857142856</ele><time>2026-04-25T08:20:57.843Z</time></trkpt><trkpt lat="45.97944903344259" lon="12.211193108643592"><ele>219.2857142857143</ele><time>2026-04-25T08:20:58.843Z</time></trkpt><trkpt lat="45.97947115438839" lon="12.211291667420847"><ele>219.0</ele><time>2026-04-25T08:20:59.843Z</time></trkpt><trkpt lat="45.97949360461742" lon="12.21138868070691"><ele>219.0</ele><time>2026-04-25T08:21:00.843Z</time></trkpt><trkpt lat="45.979519843075906" lon="12.211485883664563"><ele>219.0</ele><time>2026-04-25T08:21:01.844Z</time></trkpt><trkpt lat="45.979549360157726" lon="12.211576647478974"><ele>219.0</ele><time>2026-04-25T08:21:02.844Z</time></trkpt><trkpt lat="45.979581466472254" lon="12.211668213101259"><ele>219.0</ele><time>2026-04-25T08:21:03.844Z</time></trkpt><trkpt lat="45.97960458718979" lon="12.211759282949714"><ele>219.0</ele><time>2026-04-25T08:21:04.843Z</time></trkpt><trkpt lat="45.97962731151918" lon="12.21184914633614"><ele>219.0</ele><time>2026-04-25T08:21:05.844Z</time></trkpt><trkpt lat="45.97964884703085" lon="12.211949282502623"><ele>219.0</ele><time>2026-04-25T08:21:06.844Z</time></trkpt><trkpt lat="45.97967261527211" lon="12.212038681785634"><ele>219.5</ele><time>2026-04-25T08:21:07.843Z</time></trkpt><trkpt lat="45.97970165814356" lon="12.212129973582842"><ele>220.0</ele><time>2026-04-25T08:21:08.844Z</time></trkpt><trkpt lat="45.979723715278325" lon="12.212223353174352"><ele>220.5</ele><time>2026-04-25T08:21:09.844Z</time></trkpt><trkpt lat="45.979745894252105" lon="12.212311100314208"><ele>221.0</ele><time>2026-04-25T08:21:10.843Z</time></trkpt><trkpt lat="45.979772604718285" lon="12.212401652306994"><ele>221.5</ele><time>2026-04-25T08:21:11.843Z</time></trkpt><trkpt lat="45.979804632475194" lon="12.212481766975957"><ele>222.0</ele><time>2026-04-25T08:21:12.843Z</time></trkpt><trkpt lat="45.979851566386024" lon="12.212652837960833"><ele>222.16666666666666</ele><time>2026-04-25T08:21:14.843Z</time></trkpt><trkpt lat="45.97988079011216" lon="12.212745226551132"><ele>222.33333333333331</ele><time>2026-04-25T08:21:15.843Z</time></trkpt><trkpt lat="45.97990232072191" lon="12.2128363189035"><ele>222.5</ele><time>2026-04-25T08:21:16.843Z</time></trkpt><trkpt lat="45.97990826366802" lon="12.213002099518265"><ele>222.66666666666666</ele><time>2026-04-25T08:21:18.843Z</time></trkpt><trkpt lat="45.97992031639738" lon="12.213130704896644"><ele>222.83333333333331</ele><time>2026-04-25T08:21:20.843Z</time></trkpt><trkpt lat="45.97995180628063" lon="12.213250176387424"><ele>223.0</ele><time>2026-04-25T08:21:22.843Z</time></trkpt><trkpt lat="45.98000665043629" lon="12.213345799675801"><ele>223.5</ele><time>2026-04-25T08:21:27.843Z</time></trkpt><trkpt lat="45.980225970993665" lon="12.213233615476357"><ele>224.0</ele><time>2026-04-25T08:21:33.843Z</time></trkpt><trkpt lat="45.980311678766576" lon="12.213184554227622"><ele>224.5</ele><time>2026-04-25T08:21:35.843Z</time></trkpt><trkpt lat="45.98040730221529" lon="12.213168443531215"><ele>225.0</ele><time>2026-04-25T08:21:37.843Z</time></trkpt><trkpt lat="45.980515883144854" lon="12.213135331727852"><ele>225.0</ele><time>2026-04-25T08:21:39.843Z</time></trkpt><trkpt lat="45.98061561497708" lon="12.213091417830631"><ele>225.0</ele><time>2026-04-25T08:21:41.843Z</time></trkpt><trkpt lat="45.98070999887841" lon="12.213057654470944"><ele>225.0</ele><time>2026-04-25T08:21:43.843Z</time></trkpt><trkpt lat="45.98081994039164" lon="12.213002212637242"><ele>225.0</ele><time>2026-04-25T08:21:45.843Z</time></trkpt><trkpt lat="45.98091794492521" lon="12.212904447577033"><ele>225.0</ele><time>2026-04-25T08:21:47.843Z</time></trkpt><trkpt lat="45.98101284014162" lon="12.212803454399085"><ele>224.8</ele><time>2026-04-25T08:21:49.843Z</time></trkpt><trkpt lat="45.98109897817977" lon="12.21271136412084"><ele>224.6</ele><time>2026-04-25T08:21:51.843Z</time></trkpt><trkpt lat="45.98117889342691" lon="12.212594628664204"><ele>224.39999999999998</ele><time>2026-04-25T08:21:53.843Z</time></trkpt><trkpt lat="45.98126315941784" lon="12.212523217404964"><ele>224.2</ele><time>2026-04-25T08:21:55.843Z</time></trkpt><trkpt lat="45.98137690790485" lon="12.212454521837062"><ele>224.0</ele><time>2026-04-25T08:21:57.843Z</time></trkpt><trkpt lat="45.98147215286053" lon="12.212383476938298"><ele>223.83333333333334</ele><time>2026-04-25T08:21:59.843Z</time></trkpt><trkpt lat="45.98154935445759" lon="12.212308306659194"><ele>223.66666666666669</ele><time>2026-04-25T08:22:01.843Z</time></trkpt><trkpt lat="45.98163336520111" lon="12.21226084606841"><ele>223.5</ele><time>2026-04-25T08:22:03.843Z</time></trkpt><trkpt lat="45.98172958188926" lon="12.212295217955429"><ele>223.33333333333331</ele><time>2026-04-25T08:22:05.843Z</time></trkpt><trkpt lat="45.98179912796861" lon="12.212355217526097"><ele>223.16666666666666</ele><time>2026-04-25T08:22:06.843Z</time></trkpt><trkpt lat="45.981845897866464" lon="12.21242007968175"><ele>223.0</ele><time>2026-04-25T08:22:07.843Z</time></trkpt><trkpt lat="45.98190225765796" lon="12.212487121985834"><ele>223.28571428571428</ele><time>2026-04-25T08:22:08.843Z</time></trkpt><trkpt lat="45.981962735071" lon="12.212533319534069"><ele>223.57142857142856</ele><time>2026-04-25T08:22:09.843Z</time></trkpt><trkpt lat="45.982026835039214" lon="12.212590604501834"><ele>223.8571428571429</ele><time>2026-04-25T08:22:10.843Z</time></trkpt><trkpt lat="45.982086498278015" lon="12.212651514095892"><ele>224.14285714285717</ele><time>2026-04-25T08:22:11.843Z</time></trkpt><trkpt lat="45.982149021576035" lon="12.212709769964224"><ele>224.42857142857144</ele><time>2026-04-25T08:22:12.843Z</time></trkpt><trkpt lat="45.982213879491106" lon="12.212772880354951"><ele>224.71428571428575</ele><time>2026-04-25T08:22:13.843Z</time></trkpt><trkpt lat="45.98227542331999" lon="12.212826628685203"><ele>225.00000000000003</ele><time>2026-04-25T08:22:14.842Z</time></trkpt><trkpt lat="45.9823314966771" lon="12.212881889112257"><ele>225.0</ele><time>2026-04-25T08:22:15.842Z</time></trkpt><trkpt lat="45.982400226765755" lon="12.212921714689474"><ele>225.0</ele><time>2026-04-25T08:22:16.842Z</time></trkpt><trkpt lat="45.98252203009482" lon="12.212991757896225"><ele>225.0</ele><time>2026-04-25T08:22:18.842Z</time></trkpt><trkpt lat="45.98258467169067" lon="12.213014038438944"><ele>225.0</ele><time>2026-04-25T08:22:19.842Z</time></trkpt><trkpt lat="45.98265362425613" lon="12.21303704257687"><ele>225.0</ele><time>2026-04-25T08:22:20.842Z</time></trkpt><trkpt lat="45.982716077929524" lon="12.213055160077158"><ele>225.0</ele><time>2026-04-25T08:22:21.842Z</time></trkpt><trkpt lat="45.982784388095965" lon="12.213084909223843"><ele>225.0</ele><time>2026-04-25T08:22:22.842Z</time></trkpt><trkpt lat="45.982901780946584" lon="12.213127875632296"><ele>225.0</ele><time>2026-04-25T08:22:24.842Z</time></trkpt><trkpt lat="45.98302221990267" lon="12.213180732120216"><ele>225.0</ele><time>2026-04-25T08:22:26.842Z</time></trkpt><trkpt lat="45.98312164642492" lon="12.213291604915625"><ele>225.0</ele><time>2026-04-25T08:22:28.842Z</time></trkpt><trkpt lat="45.98316720026192" lon="12.213373031861082"><ele>225.0</ele><time>2026-04-25T08:22:29.842Z</time></trkpt><trkpt lat="45.9832061760267" lon="12.213462635980427"><ele>224.8571428571429</ele><time>2026-04-25T08:22:30.842Z</time></trkpt><trkpt lat="45.98324096720727" lon="12.213561805784822"><ele>224.71428571428572</ele><time>2026-04-25T08:22:31.842Z</time></trkpt><trkpt lat="45.98327455111635" lon="12.21367139339964"><ele>224.57142857142858</ele><time>2026-04-25T08:22:32.842Z</time></trkpt><trkpt lat="45.98329891528296" lon="12.21376461950879"><ele>224.42857142857144</ele><time>2026-04-25T08:22:33.842Z</time></trkpt><trkpt lat="45.98332633613455" lon="12.21386296742595"><ele>224.28571428571428</ele><time>2026-04-25T08:22:34.842Z</time></trkpt><trkpt lat="45.98335068856948" lon="12.213969419420474"><ele>224.14285714285714</ele><time>2026-04-25T08:22:35.842Z</time></trkpt><trkpt lat="45.983374381868444" lon="12.214061293393167"><ele>224.0</ele><time>2026-04-25T08:22:36.842Z</time></trkpt><trkpt lat="45.98339900447258" lon="12.214151187514153"><ele>224.50000000000003</ele><time>2026-04-25T08:22:37.842Z</time></trkpt><trkpt lat="45.983432174105126" lon="12.21423168550596"><ele>225.0</ele><time>2026-04-25T08:22:38.842Z</time></trkpt><trkpt lat="45.98347183531035" lon="12.214317662970446"><ele>225.5</ele><time>2026-04-25T08:22:39.842Z</time></trkpt><trkpt lat="45.98353802487988" lon="12.214523273525884"><ele>226.0</ele><time>2026-04-25T08:22:41.842Z</time></trkpt><trkpt lat="45.983568390867546" lon="12.21461681339088"><ele>226.50000000000003</ele><time>2026-04-25T08:22:42.842Z</time></trkpt><trkpt lat="45.98360452122308" lon="12.214701080096363"><ele>227.0</ele><time>2026-04-25T08:22:43.842Z</time></trkpt><trkpt lat="45.98364699561736" lon="12.214776538675519"><ele>226.8</ele><time>2026-04-25T08:22:44.842Z</time></trkpt><trkpt lat="45.98373928106219" lon="12.214891051990552"><ele>226.6</ele><time>2026-04-25T08:22:46.842Z</time></trkpt><trkpt lat="45.983846661299054" lon="12.214983886308383"><ele>226.40000000000003</ele><time>2026-04-25T08:22:48.842Z</time></trkpt><trkpt lat="45.98391528063722" lon="12.215021205663135"><ele>226.20000000000002</ele><time>2026-04-25T08:22:49.842Z</time></trkpt><trkpt lat="45.98402014763589" lon="12.21511203643338"><ele>226.0</ele><time>2026-04-25T08:22:51.842Z</time></trkpt><trkpt lat="45.98407338566423" lon="12.215174377378176"><ele>225.99999999999997</ele><time>2026-04-25T08:22:52.842Z</time></trkpt><trkpt lat="45.98417158975109" lon="12.215294135565452"><ele>226.0</ele><time>2026-04-25T08:22:54.842Z</time></trkpt><trkpt lat="45.984224942373146" lon="12.215353357446368"><ele>226.0</ele><time>2026-04-25T08:22:55.842Z</time></trkpt><trkpt lat="45.9842782970193" lon="12.215413307896103"><ele>226.0</ele><time>2026-04-25T08:22:56.842Z</time></trkpt><trkpt lat="45.984322987970344" lon="12.215480394191173"><ele>225.99999999999997</ele><time>2026-04-25T08:22:57.842Z</time></trkpt><trkpt lat="45.984366102143525" lon="12.215560333503122"><ele>226.0</ele><time>2026-04-25T08:22:58.842Z</time></trkpt><trkpt lat="45.98441852072805" lon="12.215635687355109"><ele>226.83333333333331</ele><time>2026-04-25T08:22:59.842Z</time></trkpt><trkpt lat="45.98446367884663" lon="12.21571001284022"><ele>227.66666666666666</ele><time>2026-04-25T08:23:00.842Z</time></trkpt><trkpt lat="45.98451092047556" lon="12.215779772241342"><ele>228.5</ele><time>2026-04-25T08:23:01.842Z</time></trkpt><trkpt lat="45.984556798894666" lon="12.215845155847957"><ele>229.33333333333331</ele><time>2026-04-25T08:23:02.842Z</time></trkpt><trkpt lat="45.98463886100023" lon="12.215969482391683"><ele>230.16666666666666</ele><time>2026-04-25T08:23:04.842Z</time></trkpt><trkpt lat="45.98471810210105" lon="12.216050754895713"><ele>231.0</ele><time>2026-04-25T08:23:06.842Z</time></trkpt><trkpt lat="45.98478294720925" lon="12.216166051864082"><ele>231.0</ele><time>2026-04-25T08:23:08.843Z</time></trkpt><trkpt lat="45.9848561477585" lon="12.216244750950509"><ele>231.00000000000003</ele><time>2026-04-25T08:23:10.842Z</time></trkpt><trkpt lat="45.9849238958108" lon="12.216341325197758"><ele>231.00000000000003</ele><time>2026-04-25T08:23:12.843Z</time></trkpt><trkpt lat="45.98490794701131" lon="12.216457976848385"><ele>231.0</ele><time>2026-04-25T08:23:14.843Z</time></trkpt><trkpt lat="45.984843404683076" lon="12.216602460331048"><ele>231.0</ele><time>2026-04-25T08:23:16.843Z</time></trkpt><trkpt lat="45.98481244850052" lon="12.216732410853211"><ele>230.4</ele><time>2026-04-25T08:23:18.843Z</time></trkpt><trkpt lat="45.984838290682745" lon="12.216883912249832"><ele>229.8</ele><time>2026-04-25T08:23:20.843Z</time></trkpt><trkpt lat="45.984906576561826" lon="12.21700655236821"><ele>229.20000000000002</ele><time>2026-04-25T08:23:22.843Z</time></trkpt><trkpt lat="45.984995028399965" lon="12.21707558633967"><ele>228.60000000000002</ele><time>2026-04-25T08:23:24.843Z</time></trkpt><trkpt lat="45.985111997378965" lon="12.217144771218646"><ele>228.0</ele><time>2026-04-25T08:23:26.843Z</time></trkpt><trkpt lat="45.98516864014735" lon="12.21721637934818"><ele>228.83333333333334</ele><time>2026-04-25T08:23:27.843Z</time></trkpt><trkpt lat="45.985227094310964" lon="12.21728490818334"><ele>229.66666666666669</ele><time>2026-04-25T08:23:28.843Z</time></trkpt><trkpt lat="45.98526148778103" lon="12.217364906856679"><ele>230.5</ele><time>2026-04-25T08:23:29.843Z</time></trkpt><trkpt lat="45.98532998411944" lon="12.217506728276245"><ele>231.33333333333334</ele><time>2026-04-25T08:23:31.843Z</time></trkpt><trkpt lat="45.98538082512187" lon="12.217562021627781"><ele>232.16666666666669</ele><time>2026-04-25T08:23:32.843Z</time></trkpt><trkpt lat="45.985441295223225" lon="12.217612052540657"><ele>233.0</ele><time>2026-04-25T08:23:33.843Z</time></trkpt><trkpt lat="45.98549544957906" lon="12.21766404099244"><ele>233.0</ele><time>2026-04-25T08:23:34.843Z</time></trkpt><trkpt lat="45.9855925890223" lon="12.217764525556168"><ele>233.0</ele><time>2026-04-25T08:23:36.843Z</time></trkpt><trkpt lat="45.98565180525012" lon="12.217884733856438"><ele>233.0</ele><time>2026-04-25T08:23:38.843Z</time></trkpt><trkpt lat="45.98568034406001" lon="12.217967072185646"><ele>233.0</ele><time>2026-04-25T08:23:39.843Z</time></trkpt><trkpt lat="45.98570910461844" lon="12.218050717003264"><ele>233.0</ele><time>2026-04-25T08:23:40.843Z</time></trkpt><trkpt lat="45.98576455696226" lon="12.218221756544393"><ele>232.33333333333334</ele><time>2026-04-25T08:23:42.843Z</time></trkpt><trkpt lat="45.9858035004583" lon="12.218300535756924"><ele>231.66666666666669</ele><time>2026-04-25T08:23:43.843Z</time></trkpt><trkpt lat="45.98583774616906" lon="12.218379935004792"><ele>231.0</ele><time>2026-04-25T08:23:44.843Z</time></trkpt><trkpt lat="45.98591706550564" lon="12.2185095250015"><ele>230.33333333333331</ele><time>2026-04-25T08:23:46.843Z</time></trkpt><trkpt lat="45.98598122670381" lon="12.218602523160392"><ele>229.66666666666666</ele><time>2026-04-25T08:23:48.843Z</time></trkpt><trkpt lat="45.98601614145821" lon="12.218681916002634"><ele>229.0</ele><time>2026-04-25T08:23:50.843Z</time></trkpt><trkpt lat="45.98601192417497" lon="12.218775158211342"><ele>230.6</ele><time>2026-04-25T08:23:54.843Z</time></trkpt><trkpt lat="45.986072754658515" lon="12.218863157320778"><ele>232.2</ele><time>2026-04-25T08:23:56.843Z</time></trkpt><trkpt lat="45.98607704460422" lon="12.218970545377413"><ele>233.79999999999998</ele><time>2026-04-25T08:23:58.843Z</time></trkpt><trkpt lat="45.986065006681" lon="12.219100613271207"><ele>235.39999999999998</ele><time>2026-04-25T08:24:00.843Z</time></trkpt><trkpt lat="45.9861242980051" lon="12.219239894368387"><ele>237.0</ele><time>2026-04-25T08:24:02.843Z</time></trkpt><trkpt lat="45.98618781070967" lon="12.219382231043863"><ele>237.0</ele><time>2026-04-25T08:24:04.843Z</time></trkpt><trkpt lat="45.98618387652858" lon="12.219519894337578"><ele>237.0</ele><time>2026-04-25T08:24:06.843Z</time></trkpt><trkpt lat="45.9861065413698" lon="12.21966704724456"><ele>237.0</ele><time>2026-04-25T08:24:08.843Z</time></trkpt><trkpt lat="45.986074018524015" lon="12.219749113048527"><ele>237.0</ele><time>2026-04-25T08:24:09.843Z</time></trkpt><trkpt lat="45.98601260699847" lon="12.219903545059063"><ele>237.0</ele><time>2026-04-25T08:24:11.843Z</time></trkpt><trkpt lat="45.98595774433959" lon="12.220034019535236"><ele>235.8</ele><time>2026-04-25T08:24:13.843Z</time></trkpt><trkpt lat="45.985956900082996" lon="12.220211376846034"><ele>234.6</ele><time>2026-04-25T08:24:15.843Z</time></trkpt><trkpt lat="45.985952384374215" lon="12.220305513082337"><ele>233.40000000000003</ele><time>2026-04-25T08:24:16.843Z</time></trkpt><trkpt lat="45.98589727640615" lon="12.22046676628714"><ele>232.20000000000002</ele><time>2026-04-25T08:24:18.843Z</time></trkpt><trkpt lat="45.98585309967231" lon="12.220532401712592"><ele>231.0</ele><time>2026-04-25T08:24:19.842Z</time></trkpt><trkpt lat="45.98579124221861" lon="12.220598284206794"><ele>229.4</ele><time>2026-04-25T08:24:20.842Z</time></trkpt><trkpt lat="45.98573234091372" lon="12.220663262066127"><ele>227.8</ele><time>2026-04-25T08:24:21.842Z</time></trkpt><trkpt lat="45.98566788219473" lon="12.220720747126572"><ele>226.20000000000002</ele><time>2026-04-25T08:24:22.842Z</time></trkpt><trkpt lat="45.98555919399623" lon="12.220843122660149"><ele>224.60000000000002</ele><time>2026-04-25T08:24:24.842Z</time></trkpt><trkpt lat="45.985508467368085" lon="12.220924756541505"><ele>223.0</ele><time>2026-04-25T08:24:25.842Z</time></trkpt><trkpt lat="45.985434014407204" lon="12.221071110593806"><ele>223.0</ele><time>2026-04-25T08:24:27.842Z</time></trkpt><trkpt lat="45.98539081051451" lon="12.221220280884486"><ele>223.0</ele><time>2026-04-25T08:24:29.842Z</time></trkpt><trkpt lat="45.98542057379166" lon="12.221338790033018"><ele>223.0</ele><time>2026-04-25T08:24:31.842Z</time></trkpt><trkpt lat="45.98549701437723" lon="12.221459254403358"><ele>223.0</ele><time>2026-04-25T08:24:33.842Z</time></trkpt><trkpt lat="45.98554278349819" lon="12.221530069516193"><ele>223.0</ele><time>2026-04-25T08:24:34.842Z</time></trkpt><trkpt lat="45.98558583001969" lon="12.221616049214488"><ele>223.0</ele><time>2026-04-25T08:24:35.842Z</time></trkpt><trkpt lat="45.985626302664244" lon="12.221704019616915"><ele>223.0</ele><time>2026-04-25T08:24:36.842Z</time></trkpt><trkpt lat="45.98566543382461" lon="12.221793039651061"><ele>223.0</ele><time>2026-04-25T08:24:37.842Z</time></trkpt><trkpt lat="45.98570555341621" lon="12.22187571611374"><ele>223.0</ele><time>2026-04-25T08:24:38.842Z</time></trkpt><trkpt lat="45.98575227323949" lon="12.221964457735753"><ele>223.0</ele><time>2026-04-25T08:24:39.842Z</time></trkpt><trkpt lat="45.9857975738649" lon="12.222048552880358"><ele>223.0</ele><time>2026-04-25T08:24:40.842Z</time></trkpt><trkpt lat="45.985839253512026" lon="12.222135335875459"><ele>223.0</ele><time>2026-04-25T08:24:41.842Z</time></trkpt><trkpt lat="45.98588448454952" lon="12.222221372751283"><ele>223.0</ele><time>2026-04-25T08:24:42.842Z</time></trkpt><trkpt lat="45.98592612909145" lon="12.2223075950134"><ele>223.0</ele><time>2026-04-25T08:24:43.842Z</time></trkpt><trkpt lat="45.985966199761314" lon="12.222396898918609"><ele>223.0</ele><time>2026-04-25T08:24:44.842Z</time></trkpt><trkpt lat="45.986008237205965" lon="12.222489111513827"><ele>223.0</ele><time>2026-04-25T08:24:45.842Z</time></trkpt><trkpt lat="45.9860527006763" lon="12.222573881373759"><ele>223.0</ele><time>2026-04-25T08:24:46.842Z</time></trkpt><trkpt lat="45.98609700017987" lon="12.222649392671793"><ele>223.0</ele><time>2026-04-25T08:24:47.842Z</time></trkpt><trkpt lat="45.98614595808091" lon="12.222723878241961"><ele>223.0</ele><time>2026-04-25T08:24:48.842Z</time></trkpt><trkpt lat="45.98623423933617" lon="12.222856275333529"><ele>222.99999999999997</ele><time>2026-04-25T08:24:50.842Z</time></trkpt><trkpt lat="45.986288848787616" lon="12.222939669269701"><ele>223.0</ele><time>2026-04-25T08:24:51.842Z</time></trkpt><trkpt lat="45.98635139895742" lon="12.223025435584361"><ele>223.0</ele><time>2026-04-25T08:24:52.842Z</time></trkpt><trkpt lat="45.98639930331815" lon="12.223111554694093"><ele>223.0</ele><time>2026-04-25T08:24:53.842Z</time></trkpt><trkpt lat="45.986439635578115" lon="12.223202479416832"><ele>222.99999999999997</ele><time>2026-04-25T08:24:54.842Z</time></trkpt><trkpt lat="45.98648337716323" lon="12.223285686930792"><ele>223.0</ele><time>2026-04-25T08:24:55.842Z</time></trkpt><trkpt lat="45.98652878079709" lon="12.223365700761489"><ele>223.0</ele><time>2026-04-25T08:24:56.842Z</time></trkpt><trkpt lat="45.98657482033804" lon="12.223440626843495"><ele>223.0</ele><time>2026-04-25T08:24:57.842Z</time></trkpt><trkpt lat="45.98661925474901" lon="12.223515758798932"><ele>223.0</ele><time>2026-04-25T08:24:58.842Z</time></trkpt><trkpt lat="45.986671544921556" lon="12.223590199234073"><ele>223.0</ele><time>2026-04-25T08:24:59.842Z</time></trkpt><trkpt lat="45.986729750499535" lon="12.223661155284288"><ele>223.0</ele><time>2026-04-25T08:25:00.842Z</time></trkpt><trkpt lat="45.986770377342324" lon="12.223743516135457"><ele>223.0</ele><time>2026-04-25T08:25:01.842Z</time></trkpt><trkpt lat="45.98681540442949" lon="12.22383475312456"><ele>223.0</ele><time>2026-04-25T08:25:02.842Z</time></trkpt><trkpt lat="45.986852097790056" lon="12.223928027868908"><ele>222.66666666666666</ele><time>2026-04-25T08:25:03.842Z</time></trkpt><trkpt lat="45.98687768303183" lon="12.224022185381362"><ele>222.33333333333331</ele><time>2026-04-25T08:25:04.842Z</time></trkpt><trkpt lat="45.98690065564072" lon="12.22412868130095"><ele>222.0</ele><time>2026-04-25T08:25:05.842Z</time></trkpt><trkpt lat="45.98692214299155" lon="12.224229562812365"><ele>221.66666666666669</ele><time>2026-04-25T08:25:06.842Z</time></trkpt><trkpt lat="45.986943586378054" lon="12.224325112905506"><ele>221.33333333333334</ele><time>2026-04-25T08:25:07.842Z</time></trkpt><trkpt lat="45.98696750094834" lon="12.224420945131806"><ele>221.0</ele><time>2026-04-25T08:25:08.842Z</time></trkpt><trkpt lat="45.98696348947409" lon="12.224582788742733"><ele>221.0</ele><time>2026-04-25T08:25:10.842Z</time></trkpt><trkpt lat="45.98689836354851" lon="12.22471201636212"><ele>221.00000000000003</ele><time>2026-04-25T08:25:12.842Z</time></trkpt><trkpt lat="45.98683659600796" lon="12.224849206320684"><ele>221.00000000000003</ele><time>2026-04-25T08:25:14.842Z</time></trkpt><trkpt lat="45.98680949844129" lon="12.225011208426391"><ele>221.0</ele><time>2026-04-25T08:25:16.842Z</time></trkpt><trkpt lat="45.986826922501265" lon="12.225104537441553"><ele>221.0</ele><time>2026-04-25T08:25:17.843Z</time></trkpt><trkpt lat="45.986857649704895" lon="12.22520283498879"><ele>221.2857142857143</ele><time>2026-04-25T08:25:18.843Z</time></trkpt><trkpt lat="45.98688971237454" lon="12.225301202797397"><ele>221.57142857142858</ele><time>2026-04-25T08:25:19.842Z</time></trkpt><trkpt lat="45.98692323788228" lon="12.225393122683172"><ele>221.85714285714286</ele><time>2026-04-25T08:25:20.842Z</time></trkpt><trkpt lat="45.98695158519556" lon="12.225488746566933"><ele>222.14285714285717</ele><time>2026-04-25T08:25:21.842Z</time></trkpt><trkpt lat="45.986978593082846" lon="12.22558490180468"><ele>222.42857142857142</ele><time>2026-04-25T08:25:22.842Z</time></trkpt><trkpt lat="45.98701287823255" lon="12.225676032163637"><ele>222.71428571428572</ele><time>2026-04-25T08:25:23.842Z</time></trkpt><trkpt lat="45.98704331220196" lon="12.225766163467616"><ele>223.0</ele><time>2026-04-25T08:25:24.842Z</time></trkpt><trkpt lat="45.98706425016159" lon="12.225858737646796"><ele>223.28571428571428</ele><time>2026-04-25T08:25:25.842Z</time></trkpt><trkpt lat="45.98709207708051" lon="12.225948392948558"><ele>223.57142857142856</ele><time>2026-04-25T08:25:26.843Z</time></trkpt><trkpt lat="45.98711559621038" lon="12.226038159348988"><ele>223.8571428571429</ele><time>2026-04-25T08:25:27.843Z</time></trkpt><trkpt lat="45.98714165948" lon="12.226129501127618"><ele>224.14285714285717</ele><time>2026-04-25T08:25:28.843Z</time></trkpt><trkpt lat="45.98717492962153" lon="12.226222153398671"><ele>224.42857142857144</ele><time>2026-04-25T08:25:29.843Z</time></trkpt><trkpt lat="45.987199275261766" lon="12.226318821025362"><ele>224.71428571428575</ele><time>2026-04-25T08:25:30.843Z</time></trkpt><trkpt lat="45.987238269690586" lon="12.226398784484278"><ele>225.00000000000003</ele><time>2026-04-25T08:25:31.843Z</time></trkpt><trkpt lat="45.98728497679227" lon="12.226468748209573"><ele>224.8571428571429</ele><time>2026-04-25T08:25:32.843Z</time></trkpt><trkpt lat="45.98734085284798" lon="12.226531842734971"><ele>224.71428571428572</ele><time>2026-04-25T08:25:33.843Z</time></trkpt><trkpt lat="45.987406897299856" lon="12.226571344349418"><ele>224.57142857142858</ele><time>2026-04-25T08:25:34.843Z</time></trkpt><trkpt lat="45.987470209364496" lon="12.226600172999895"><ele>224.42857142857144</ele><time>2026-04-25T08:25:35.843Z</time></trkpt><trkpt lat="45.98754091478476" lon="12.226613852536884"><ele>224.28571428571428</ele><time>2026-04-25T08:25:36.843Z</time></trkpt><trkpt lat="45.98761695425179" lon="12.226628278744897"><ele>224.14285714285714</ele><time>2026-04-25T08:25:37.843Z</time></trkpt><trkpt lat="45.987687653198385" lon="12.226637531843556"><ele>224.0</ele><time>2026-04-25T08:25:38.843Z</time></trkpt><trkpt lat="45.9877602515529" lon="12.226655019719386"><ele>224.0</ele><time>2026-04-25T08:25:39.843Z</time></trkpt><trkpt lat="45.98782960760805" lon="12.22668169092987"><ele>224.0</ele><time>2026-04-25T08:25:40.843Z</time></trkpt><trkpt lat="45.98790048672636" lon="12.226722207749896"><ele>224.0</ele><time>2026-04-25T08:25:41.842Z</time></trkpt><trkpt lat="45.98796436287927" lon="12.226769525531786"><ele>224.0</ele><time>2026-04-25T08:25:42.842Z</time></trkpt><trkpt lat="45.98802879037371" lon="12.226823946613225"><ele>224.0</ele><time>2026-04-25T08:25:43.842Z</time></trkpt><trkpt lat="45.9880915539154" lon="12.226877631587383"><ele>224.0</ele><time>2026-04-25T08:25:44.842Z</time></trkpt><trkpt lat="45.98813991924076" lon="12.226938488269981"><ele>224.0</ele><time>2026-04-25T08:25:45.842Z</time></trkpt><trkpt lat="45.988193712095224" lon="12.227002164633847"><ele>224.0</ele><time>2026-04-25T08:25:46.842Z</time></trkpt><trkpt lat="45.98824531933513" lon="12.227065118108326"><ele>224.0</ele><time>2026-04-25T08:25:47.842Z</time></trkpt><trkpt lat="45.98829295615716" lon="12.227141860544176"><ele>224.0</ele><time>2026-04-25T08:25:48.842Z</time></trkpt><trkpt lat="45.98834024119883" lon="12.227205251037569"><ele>224.0</ele><time>2026-04-25T08:25:49.842Z</time></trkpt><trkpt lat="45.98838277894933" lon="12.227299412642369"><ele>224.0</ele><time>2026-04-25T08:25:50.842Z</time></trkpt><trkpt lat="45.98840890882105" lon="12.22738408355209"><ele>224.0</ele><time>2026-04-25T08:25:51.842Z</time></trkpt><trkpt lat="45.98842036451289" lon="12.227473348685205"><ele>224.0</ele><time>2026-04-25T08:25:52.842Z</time></trkpt><trkpt lat="45.988437968293596" lon="12.22765031943744"><ele>224.66666666666669</ele><time>2026-04-25T08:25:54.842Z</time></trkpt><trkpt lat="45.988447287280025" lon="12.227743554115529"><ele>225.33333333333334</ele><time>2026-04-25T08:25:55.842Z</time></trkpt><trkpt lat="45.988505549155626" lon="12.227907701077504"><ele>226.0</ele><time>2026-04-25T08:25:57.842Z</time></trkpt><trkpt lat="45.98854827605843" lon="12.227987771771554"><ele>226.66666666666669</ele><time>2026-04-25T08:25:58.842Z</time></trkpt><trkpt lat="45.988586738625465" lon="12.22806167581504"><ele>227.33333333333334</ele><time>2026-04-25T08:25:59.842Z</time></trkpt><trkpt lat="45.98862237760796" lon="12.228160643649662"><ele>228.0</ele><time>2026-04-25T08:26:00.842Z</time></trkpt><trkpt lat="45.98864224265418" lon="12.228268882801963"><ele>228.0</ele><time>2026-04-25T08:26:01.842Z</time></trkpt><trkpt lat="45.98864570305366" lon="12.228371867362927"><ele>228.0</ele><time>2026-04-25T08:26:02.842Z</time></trkpt><trkpt lat="45.988661584198184" lon="12.228478843857202"><ele>228.0</ele><time>2026-04-25T08:26:03.842Z</time></trkpt><trkpt lat="45.98865612671792" lon="12.22866646002726"><ele>228.0</ele><time>2026-04-25T08:26:05.842Z</time></trkpt><trkpt lat="45.98864144988509" lon="12.228770840353167"><ele>228.0</ele><time>2026-04-25T08:26:06.842Z</time></trkpt><trkpt lat="45.988633306456244" lon="12.228890369078973"><ele>228.0</ele><time>2026-04-25T08:26:07.842Z</time></trkpt><trkpt lat="45.98862057229558" lon="12.22899898657287"><ele>227.42857142857142</ele><time>2026-04-25T08:26:08.842Z</time></trkpt><trkpt lat="45.9886100526034" lon="12.229104640982793"><ele>226.85714285714283</ele><time>2026-04-25T08:26:09.842Z</time></trkpt><trkpt lat="45.988587195493025" lon="12.229223028976758"><ele>226.28571428571428</ele><time>2026-04-25T08:26:10.842Z</time></trkpt><trkpt lat="45.98856706297652" lon="12.229319527418205"><ele>225.71428571428572</ele><time>2026-04-25T08:26:11.842Z</time></trkpt><trkpt lat="45.98853875337103" lon="12.229414609009165"><ele>225.14285714285714</ele><time>2026-04-25T08:26:12.842Z</time></trkpt><trkpt lat="45.988503584421196" lon="12.229508104068715"><ele>224.57142857142856</ele><time>2026-04-25T08:26:13.842Z</time></trkpt><trkpt lat="45.988485278655205" lon="12.229599742511676"><ele>224.0</ele><time>2026-04-25T08:26:14.842Z</time></trkpt><trkpt lat="45.988474971640024" lon="12.229696691382646"><ele>224.00000000000003</ele><time>2026-04-25T08:26:15.842Z</time></trkpt><trkpt lat="45.98848189861984" lon="12.22979258018085"><ele>224.0</ele><time>2026-04-25T08:26:16.842Z</time></trkpt><trkpt lat="45.98851188838335" lon="12.229890055152982"><ele>224.0</ele><time>2026-04-25T08:26:17.842Z</time></trkpt><trkpt lat="45.988546910979515" lon="12.2299875146652"><ele>224.0</ele><time>2026-04-25T08:26:18.842Z</time></trkpt><trkpt lat="45.98858191389816" lon="12.23007714183623"><ele>224.00000000000003</ele><time>2026-04-25T08:26:19.842Z</time></trkpt><trkpt lat="45.98864711129763" lon="12.230243108947922"><ele>224.0</ele><time>2026-04-25T08:26:21.842Z</time></trkpt><trkpt lat="45.98867369915433" lon="12.230333322170592"><ele>224.0</ele><time>2026-04-25T08:26:22.842Z</time></trkpt><trkpt lat="45.9887029330533" lon="12.230424072222133"><ele>224.0</ele><time>2026-04-25T08:26:23.842Z</time></trkpt><trkpt lat="45.98874219292857" lon="12.23052396265035"><ele>224.0</ele><time>2026-04-25T08:26:24.842Z</time></trkpt><trkpt lat="45.98879546471621" lon="12.230607739871576"><ele>224.0</ele><time>2026-04-25T08:26:25.842Z</time></trkpt><trkpt lat="45.98885454033531" lon="12.230654634222471"><ele>224.0</ele><time>2026-04-25T08:26:26.842Z</time></trkpt><trkpt lat="45.98892746169969" lon="12.230681608479232"><ele>224.0</ele><time>2026-04-25T08:26:27.842Z</time></trkpt><trkpt lat="45.98899898303663" lon="12.23070747343099"><ele>224.0</ele><time>2026-04-25T08:26:28.842Z</time></trkpt><trkpt lat="45.98906234599407" lon="12.230745832451102"><ele>224.00000000000003</ele><time>2026-04-25T08:26:29.842Z</time></trkpt><trkpt lat="45.989130797171285" lon="12.230785852911474"><ele>224.0</ele><time>2026-04-25T08:26:30.842Z</time></trkpt><trkpt lat="45.989199225746006" lon="12.23083118855228"><ele>224.0</ele><time>2026-04-25T08:26:31.842Z</time></trkpt><trkpt lat="45.98925959654839" lon="12.230868606872294"><ele>224.0</ele><time>2026-04-25T08:26:32.842Z</time></trkpt><trkpt lat="45.989355603406125" lon="12.230934982554201"><ele>224.00000000000003</ele><time>2026-04-25T08:26:34.842Z</time></trkpt><trkpt lat="45.98934210715894" lon="12.231034107167954"><ele>224.0</ele><time>2026-04-25T08:26:38.842Z</time></trkpt><trkpt lat="45.98925256195645" lon="12.231103095160918"><ele>224.0</ele><time>2026-04-25T08:26:40.842Z</time></trkpt><trkpt lat="45.989130064394644" lon="12.231164011865973"><ele>223.99999999999997</ele><time>2026-04-25T08:26:42.842Z</time></trkpt><trkpt lat="45.989069795736015" lon="12.231202494810798"><ele>223.99999999999997</ele><time>2026-04-25T08:26:43.842Z</time></trkpt><trkpt lat="45.988971140369806" lon="12.231281539987869"><ele>224.0</ele><time>2026-04-25T08:26:45.842Z</time></trkpt><trkpt lat="45.988932691130294" lon="12.231360600126383"><ele>224.0</ele><time>2026-04-25T08:26:50.842Z</time></trkpt><trkpt lat="45.988872181639856" lon="12.231288640327973"><ele>224.00000000000003</ele><time>2026-04-25T08:26:56.842Z</time></trkpt><trkpt lat="45.988816183835546" lon="12.231341188282864"><ele>224.0</ele><time>2026-04-25T08:27:01.842Z</time></trkpt><trkpt lat="45.988737540500296" lon="12.231414969885193"><ele>224.0</ele><time>2026-04-25T08:27:04.842Z</time></trkpt><trkpt lat="45.98865691432105" lon="12.231477943596328"><ele>224.0</ele><time>2026-04-25T08:27:06.842Z</time></trkpt><trkpt lat="45.98861868996861" lon="12.23156017790136"><ele>224.00000000000003</ele><time>2026-04-25T08:27:08.842Z</time></trkpt><trkpt lat="45.98861249717606" lon="12.231684727356264"><ele>224.0</ele><time>2026-04-25T08:27:10.842Z</time></trkpt><trkpt lat="45.988590650579944" lon="12.231852198081215"><ele>223.85714285714286</ele><time>2026-04-25T08:27:12.842Z</time></trkpt><trkpt lat="45.988568862074054" lon="12.23194193358716"><ele>223.71428571428572</ele><time>2026-04-25T08:27:13.842Z</time></trkpt><trkpt lat="45.9885396565452" lon="12.23202797755305"><ele>223.57142857142856</ele><time>2026-04-25T08:27:14.842Z</time></trkpt><trkpt lat="45.988507837638615" lon="12.232115807458944"><ele>223.42857142857144</ele><time>2026-04-25T08:27:15.842Z</time></trkpt><trkpt lat="45.98848166151879" lon="12.23220412408243"><ele>223.28571428571428</ele><time>2026-04-25T08:27:16.842Z</time></trkpt><trkpt lat="45.98845986340846" lon="12.232291976292172"><ele>223.14285714285714</ele><time>2026-04-25T08:27:17.842Z</time></trkpt><trkpt lat="45.98844109710465" lon="12.23238050339811"><ele>223.0</ele><time>2026-04-25T08:27:18.842Z</time></trkpt><trkpt lat="45.98840881934572" lon="12.232546305465817"><ele>223.0</ele><time>2026-04-25T08:27:20.842Z</time></trkpt><trkpt lat="45.98836849874242" lon="12.232713318484478"><ele>223.0</ele><time>2026-04-25T08:27:22.842Z</time></trkpt><trkpt lat="45.988333397643714" lon="12.232876666430817"><ele>223.0</ele><time>2026-04-25T08:27:24.842Z</time></trkpt><trkpt lat="45.98829076637671" lon="12.233034235070576"><ele>223.0</ele><time>2026-04-25T08:27:26.842Z</time></trkpt><trkpt lat="45.988268700047726" lon="12.233120721269055"><ele>223.0</ele><time>2026-04-25T08:27:27.842Z</time></trkpt><trkpt lat="45.98824373397152" lon="12.233207946234062"><ele>223.0</ele><time>2026-04-25T08:27:28.842Z</time></trkpt><trkpt lat="45.988216804423395" lon="12.233289999592076"><ele>223.0</ele><time>2026-04-25T08:27:29.842Z</time></trkpt><trkpt lat="45.98815271581222" lon="12.23344946661262"><ele>223.0</ele><time>2026-04-25T08:27:31.842Z</time></trkpt><trkpt lat="45.988113937123316" lon="12.233532551121108"><ele>223.0</ele><time>2026-04-25T08:27:32.842Z</time></trkpt><trkpt lat="45.98804089149374" lon="12.233676689497406"><ele>223.0</ele><time>2026-04-25T08:27:34.842Z</time></trkpt><trkpt lat="45.987987929244895" lon="12.23374398238804"><ele>223.0</ele><time>2026-04-25T08:27:35.842Z</time></trkpt><trkpt lat="45.98788962946828" lon="12.233865036631448"><ele>223.0</ele><time>2026-04-25T08:27:37.842Z</time></trkpt><trkpt lat="45.9878420455406" lon="12.2339340419618"><ele>223.0</ele><time>2026-04-25T08:27:38.842Z</time></trkpt><trkpt lat="45.987759265113965" lon="12.234056780401119"><ele>223.0</ele><time>2026-04-25T08:27:40.842Z</time></trkpt><trkpt lat="45.987703814395395" lon="12.234127106366207"><ele>223.0</ele><time>2026-04-25T08:27:41.842Z</time></trkpt><trkpt lat="45.98764825369622" lon="12.234189706307298"><ele>222.60000000000002</ele><time>2026-04-25T08:27:42.842Z</time></trkpt><trkpt lat="45.987588996817244" lon="12.234249411098382"><ele>222.20000000000002</ele><time>2026-04-25T08:27:43.842Z</time></trkpt><trkpt lat="45.9874922272248" lon="12.234366688534063"><ele>221.8</ele><time>2026-04-25T08:27:45.842Z</time></trkpt><trkpt lat="45.98744107065344" lon="12.234428463488745"><ele>221.4</ele><time>2026-04-25T08:27:46.842Z</time></trkpt><trkpt lat="45.98734414648938" lon="12.23453085501435"><ele>221.0</ele><time>2026-04-25T08:27:48.842Z</time></trkpt><trkpt lat="45.98723335657878" lon="12.234627073622766"><ele>221.4</ele><time>2026-04-25T08:27:50.842Z</time></trkpt><trkpt lat="45.987181651728854" lon="12.234692483248171"><ele>221.8</ele><time>2026-04-25T08:27:51.842Z</time></trkpt><trkpt lat="45.987133600695316" lon="12.234756942315858"><ele>222.20000000000002</ele><time>2026-04-25T08:27:52.842Z</time></trkpt><trkpt lat="45.98706751824431" lon="12.234917811455702"><ele>222.60000000000002</ele><time>2026-04-25T08:27:54.842Z</time></trkpt><trkpt lat="45.987031974760164" lon="12.235080112539883"><ele>223.0</ele><time>2026-04-25T08:27:56.842Z</time></trkpt><trkpt lat="45.98699669751926" lon="12.235236868357763"><ele>222.99999999999997</ele><time>2026-04-25T08:27:58.842Z</time></trkpt><trkpt lat="45.98702030543004" lon="12.235400322186369"><ele>223.0</ele><time>2026-04-25T08:28:00.842Z</time></trkpt><trkpt lat="45.98705104767995" lon="12.235482405069446"><ele>223.0</ele><time>2026-04-25T08:28:01.842Z</time></trkpt><trkpt lat="45.98710380341168" lon="12.235544801347604"><ele>223.0</ele><time>2026-04-25T08:28:02.842Z</time></trkpt><trkpt lat="45.98717067896226" lon="12.235595713002839"><ele>222.99999999999997</ele><time>2026-04-25T08:28:03.842Z</time></trkpt><trkpt lat="45.98727604214231" lon="12.235646759330125"><ele>223.0</ele><time>2026-04-25T08:28:05.842Z</time></trkpt><trkpt lat="45.987367186454684" lon="12.23572831503782"><ele>222.8</ele><time>2026-04-25T08:28:07.842Z</time></trkpt><trkpt lat="45.987428500992685" lon="12.235844128349532"><ele>222.60000000000002</ele><time>2026-04-25T08:28:09.842Z</time></trkpt><trkpt lat="45.98744130568194" lon="12.23600429258154"><ele>222.39999999999998</ele><time>2026-04-25T08:28:11.841Z</time></trkpt><trkpt lat="45.9874155656565" lon="12.236165961865689"><ele>222.2</ele><time>2026-04-25T08:28:13.841Z</time></trkpt><trkpt lat="45.98738404551914" lon="12.236315341842985"><ele>222.0</ele><time>2026-04-25T08:28:15.841Z</time></trkpt><trkpt lat="45.987357078273774" lon="12.236502859002096"><ele>222.28571428571428</ele><time>2026-04-25T08:28:17.841Z</time></trkpt><trkpt lat="45.98734643505155" lon="12.236596972831762"><ele>222.57142857142858</ele><time>2026-04-25T08:28:18.841Z</time></trkpt><trkpt lat="45.98732780247963" lon="12.23669084222841"><ele>222.85714285714286</ele><time>2026-04-25T08:28:19.841Z</time></trkpt><trkpt lat="45.987311541043326" lon="12.236795207553552"><ele>223.14285714285714</ele><time>2026-04-25T08:28:20.841Z</time></trkpt><trkpt lat="45.98729942209486" lon="12.236891498963272"><ele>223.42857142857144</ele><time>2026-04-25T08:28:21.841Z</time></trkpt><trkpt lat="45.987301463886205" lon="12.236994374037756"><ele>223.71428571428572</ele><time>2026-04-25T08:28:22.841Z</time></trkpt><trkpt lat="45.98730853767442" lon="12.237103070898112"><ele>224.0</ele><time>2026-04-25T08:28:23.841Z</time></trkpt><trkpt lat="45.98732501433229" lon="12.23720579029754"><ele>223.71428571428572</ele><time>2026-04-25T08:28:24.841Z</time></trkpt><trkpt lat="45.98736411452615" lon="12.237313792875085"><ele>223.42857142857144</ele><time>2026-04-25T08:28:25.841Z</time></trkpt><trkpt lat="45.987405622721504" lon="12.237407706296029"><ele>223.14285714285714</ele><time>2026-04-25T08:28:26.841Z</time></trkpt><trkpt lat="45.987447649201634" lon="12.237483081726317"><ele>222.85714285714286</ele><time>2026-04-25T08:28:27.841Z</time></trkpt><trkpt lat="45.98749582369252" lon="12.23754964624855"><ele>222.57142857142858</ele><time>2026-04-25T08:28:28.841Z</time></trkpt><trkpt lat="45.98754438649349" lon="12.237635295712172"><ele>222.28571428571428</ele><time>2026-04-25T08:28:29.841Z</time></trkpt><trkpt lat="45.987592267108276" lon="12.237710399635784"><ele>222.0</ele><time>2026-04-25T08:28:30.841Z</time></trkpt><trkpt lat="45.98768879630649" lon="12.237795465508393"><ele>222.0</ele><time>2026-04-25T08:28:32.841Z</time></trkpt><trkpt lat="45.98780799445944" lon="12.23778699183976"><ele>222.0</ele><time>2026-04-25T08:28:34.841Z</time></trkpt><trkpt lat="45.987882724796435" lon="12.237777598106787"><ele>222.0</ele><time>2026-04-25T08:28:35.841Z</time></trkpt><trkpt lat="45.987963632723236" lon="12.237765513635086"><ele>222.0</ele><time>2026-04-25T08:28:36.841Z</time></trkpt><trkpt lat="45.98803918734697" lon="12.23776644194493"><ele>222.0</ele><time>2026-04-25T08:28:37.841Z</time></trkpt><trkpt lat="45.98811261057926" lon="12.237759276162155"><ele>222.0</ele><time>2026-04-25T08:28:38.841Z</time></trkpt><trkpt lat="45.98818875573518" lon="12.237756273681248"><ele>222.0</ele><time>2026-04-25T08:28:39.841Z</time></trkpt><trkpt lat="45.9882637828682" lon="12.237754796597812"><ele>222.0</ele><time>2026-04-25T08:28:40.841Z</time></trkpt><trkpt lat="45.98839155662948" lon="12.237760531098854"><ele>222.0</ele><time>2026-04-25T08:28:42.841Z</time></trkpt><trkpt lat="45.988463031853314" lon="12.237767414864534"><ele>222.0</ele><time>2026-04-25T08:28:43.841Z</time></trkpt><trkpt lat="45.98852660815124" lon="12.237765315318082"><ele>222.0</ele><time>2026-04-25T08:28:44.841Z</time></trkpt><trkpt lat="45.988595044981736" lon="12.237761972860042"><ele>222.0</ele><time>2026-04-25T08:28:45.841Z</time></trkpt><trkpt lat="45.988662045695406" lon="12.237756470878903"><ele>221.83333333333334</ele><time>2026-04-25T08:28:46.841Z</time></trkpt><trkpt lat="45.988727669417564" lon="12.237760671554618"><ele>221.66666666666669</ele><time>2026-04-25T08:28:47.841Z</time></trkpt><trkpt lat="45.98885149908394" lon="12.237803619922655"><ele>221.5</ele><time>2026-04-25T08:28:49.841Z</time></trkpt><trkpt lat="45.98891257690102" lon="12.237860522464109"><ele>221.33333333333334</ele><time>2026-04-25T08:28:50.841Z</time></trkpt><trkpt lat="45.98896249109982" lon="12.237935692920942"><ele>221.16666666666669</ele><time>2026-04-25T08:28:51.841Z</time></trkpt><trkpt lat="45.98902941278795" lon="12.238000164622399"><ele>221.0</ele><time>2026-04-25T08:28:52.841Z</time></trkpt><trkpt lat="45.98908349382268" lon="12.23804985962718"><ele>221.00000000000003</ele><time>2026-04-25T08:28:53.841Z</time></trkpt><trkpt lat="45.989140492475904" lon="12.238102597156834"><ele>221.0</ele><time>2026-04-25T08:28:54.841Z</time></trkpt><trkpt lat="45.989198655307256" lon="12.238145626853692"><ele>221.0</ele><time>2026-04-25T08:28:55.841Z</time></trkpt><trkpt lat="45.98926446069717" lon="12.238199749316955"><ele>221.0</ele><time>2026-04-25T08:28:56.841Z</time></trkpt><trkpt lat="45.98932690447189" lon="12.238258218487935"><ele>221.0</ele><time>2026-04-25T08:28:57.841Z</time></trkpt><trkpt lat="45.98938863355638" lon="12.23831649314505"><ele>221.00000000000003</ele><time>2026-04-25T08:28:58.841Z</time></trkpt><trkpt lat="45.989451281296965" lon="12.23836614961382"><ele>221.0</ele><time>2026-04-25T08:28:59.841Z</time></trkpt><trkpt lat="45.9895117169774" lon="12.23841793524469"><ele>221.00000000000003</ele><time>2026-04-25T08:29:00.841Z</time></trkpt><trkpt lat="45.98956859492871" lon="12.238463766913563"><ele>221.0</ele><time>2026-04-25T08:29:01.841Z</time></trkpt><trkpt lat="45.989630013096466" lon="12.238512600699195"><ele>221.0</ele><time>2026-04-25T08:29:02.841Z</time></trkpt><trkpt lat="45.98968528823894" lon="12.238561157687114"><ele>221.0</ele><time>2026-04-25T08:29:03.841Z</time></trkpt><trkpt lat="45.989744808596114" lon="12.23862039467347"><ele>221.0</ele><time>2026-04-25T08:29:04.841Z</time></trkpt><trkpt lat="45.98980000297948" lon="12.23868351556474"><ele>221.00000000000003</ele><time>2026-04-25T08:29:05.841Z</time></trkpt><trkpt lat="45.98984303729924" lon="12.238754244779042"><ele>221.0</ele><time>2026-04-25T08:29:06.841Z</time></trkpt><trkpt lat="45.98989821484744" lon="12.238896847798918"><ele>221.0</ele><time>2026-04-25T08:29:08.841Z</time></trkpt><trkpt lat="45.98992586371896" lon="12.238978774438834"><ele>221.00000000000003</ele><time>2026-04-25T08:29:09.841Z</time></trkpt><trkpt lat="45.989960493449075" lon="12.239143627121962"><ele>221.00000000000003</ele><time>2026-04-25T08:29:11.841Z</time></trkpt><trkpt lat="45.98999582983768" lon="12.23930804373764"><ele>221.0</ele><time>2026-04-25T08:29:13.841Z</time></trkpt><trkpt lat="45.99005222464562" lon="12.239400082527439"><ele>221.0</ele><time>2026-04-25T08:29:14.841Z</time></trkpt><trkpt lat="45.990095361852" lon="12.239472553638016"><ele>221.00000000000003</ele><time>2026-04-25T08:29:15.841Z</time></trkpt><trkpt lat="45.990130590281005" lon="12.239555371154639"><ele>221.0</ele><time>2026-04-25T08:29:16.841Z</time></trkpt><trkpt lat="45.99016822332568" lon="12.23963985218252"><ele>221.0</ele><time>2026-04-25T08:29:17.841Z</time></trkpt><trkpt lat="45.9901979120708" lon="12.239728125859033"><ele>221.0</ele><time>2026-04-25T08:29:18.841Z</time></trkpt><trkpt lat="45.99021258675596" lon="12.2398194260955"><ele>221.0</ele><time>2026-04-25T08:29:19.841Z</time></trkpt><trkpt lat="45.99021918463835" lon="12.239912009180278"><ele>221.00000000000003</ele><time>2026-04-25T08:29:20.841Z</time></trkpt><trkpt lat="45.99022545938056" lon="12.240010223263251"><ele>221.0</ele><time>2026-04-25T08:29:21.841Z</time></trkpt><trkpt lat="45.99022492953004" lon="12.240117434934728"><ele>221.00000000000003</ele><time>2026-04-25T08:29:22.841Z</time></trkpt><trkpt lat="45.990218792606065" lon="12.240218096856994"><ele>221.0</ele><time>2026-04-25T08:29:23.841Z</time></trkpt><trkpt lat="45.99020986468028" lon="12.240325158644604"><ele>221.0</ele><time>2026-04-25T08:29:24.841Z</time></trkpt><trkpt lat="45.99022591713116" lon="12.240427170623912"><ele>221.0</ele><time>2026-04-25T08:29:25.843Z</time></trkpt><trkpt lat="45.990285976714766" lon="12.240584631616548"><ele>221.00000000000003</ele><time>2026-04-25T08:29:27.843Z</time></trkpt><trkpt lat="45.990324390741605" lon="12.240658339792567"><ele>221.0</ele><time>2026-04-25T08:29:28.842Z</time></trkpt><trkpt lat="45.99040742323153" lon="12.240799422023352"><ele>221.00000000000003</ele><time>2026-04-25T08:29:30.842Z</time></trkpt><trkpt lat="45.99048876744725" lon="12.240953160035716"><ele>221.0</ele><time>2026-04-25T08:29:32.842Z</time></trkpt><trkpt lat="45.99054577726995" lon="12.241037480106527"><ele>221.0</ele><time>2026-04-25T08:29:33.842Z</time></trkpt><trkpt lat="45.99059502853811" lon="12.241100674055119"><ele>221.0</ele><time>2026-04-25T08:29:34.842Z</time></trkpt><trkpt lat="45.99064818888615" lon="12.241169382096809"><ele>221.00000000000003</ele><time>2026-04-25T08:29:35.843Z</time></trkpt><trkpt lat="45.990715404704154" lon="12.241248028962278"><ele>221.0</ele><time>2026-04-25T08:29:36.843Z</time></trkpt><trkpt lat="45.990778932554726" lon="12.241336043664958"><ele>221.00000000000003</ele><time>2026-04-25T08:29:37.843Z</time></trkpt><trkpt lat="45.99083263369071" lon="12.241431817991806"><ele>221.0</ele><time>2026-04-25T08:29:38.842Z</time></trkpt><trkpt lat="45.99088279189581" lon="12.241520371334843"><ele>221.0</ele><time>2026-04-25T08:29:39.842Z</time></trkpt><trkpt lat="45.99093120414535" lon="12.24160369144229"><ele>221.0</ele><time>2026-04-25T08:29:40.842Z</time></trkpt><trkpt lat="45.99098852638015" lon="12.241683683323588"><ele>221.00000000000003</ele><time>2026-04-25T08:29:41.842Z</time></trkpt><trkpt lat="45.991031399624646" lon="12.241751982792913"><ele>221.0</ele><time>2026-04-25T08:29:42.842Z</time></trkpt><trkpt lat="45.991073485518186" lon="12.241825213360276"><ele>221.00000000000003</ele><time>2026-04-25T08:29:43.842Z</time></trkpt><trkpt lat="45.99112336209504" lon="12.241896881741956"><ele>221.0</ele><time>2026-04-25T08:29:44.842Z</time></trkpt><trkpt lat="45.991171673393445" lon="12.241967153937876"><ele>221.0</ele><time>2026-04-25T08:29:45.842Z</time></trkpt><trkpt lat="45.99126168128739" lon="12.242089385248873"><ele>221.0</ele><time>2026-04-25T08:29:47.842Z</time></trkpt><trkpt lat="45.9913131761912" lon="12.242153205391466"><ele>221.00000000000003</ele><time>2026-04-25T08:29:48.842Z</time></trkpt><trkpt lat="45.99135983660075" lon="12.242227777280386"><ele>221.0</ele><time>2026-04-25T08:29:49.842Z</time></trkpt><trkpt lat="45.99140935510601" lon="12.242287647392487"><ele>221.0</ele><time>2026-04-25T08:29:50.842Z</time></trkpt><trkpt lat="45.991478636203595" lon="12.24242600147962"><ele>221.00000000000003</ele><time>2026-04-25T08:29:52.842Z</time></trkpt><trkpt lat="45.991570680201775" lon="12.242510477818128"><ele>221.00000000000003</ele><time>2026-04-25T08:29:54.842Z</time></trkpt><trkpt lat="45.991642070967416" lon="12.242513159635648"><ele>221.0</ele><time>2026-04-25T08:29:55.842Z</time></trkpt><trkpt lat="45.99170611640406" lon="12.242510540493438"><ele>221.0</ele><time>2026-04-25T08:29:56.842Z</time></trkpt><trkpt lat="45.99182751727952" lon="12.242517207358299"><ele>221.0</ele><time>2026-04-25T08:29:58.842Z</time></trkpt><trkpt lat="45.991904401962465" lon="12.242561105246184"><ele>221.00000000000003</ele><time>2026-04-25T08:30:00.842Z</time></trkpt><trkpt lat="45.99194305323884" lon="12.24270332348088"><ele>221.00000000000003</ele><time>2026-04-25T08:30:02.842Z</time></trkpt><trkpt lat="45.99195516392622" lon="12.242850349221257"><ele>221.0</ele><time>2026-04-25T08:30:04.842Z</time></trkpt><trkpt lat="45.99197678411175" lon="12.242936224488076"><ele>221.0</ele><time>2026-04-25T08:30:05.842Z</time></trkpt><trkpt lat="45.99199591552839" lon="12.243116482068576"><ele>221.20000000000002</ele><time>2026-04-25T08:30:07.842Z</time></trkpt><trkpt lat="45.991971533613984" lon="12.24324963166717"><ele>221.40000000000003</ele><time>2026-04-25T08:30:09.842Z</time></trkpt><trkpt lat="45.99191738332077" lon="12.243352208141996"><ele>221.6</ele><time>2026-04-25T08:30:11.842Z</time></trkpt><trkpt lat="45.99191406530223" lon="12.243451067717027"><ele>221.8</ele><time>2026-04-25T08:30:12.842Z</time></trkpt><trkpt lat="45.99195257767" lon="12.243599715203624"><ele>222.0</ele><time>2026-04-25T08:30:14.842Z</time></trkpt><trkpt lat="45.99201205559697" lon="12.243758349453428"><ele>222.0</ele><time>2026-04-25T08:30:16.842Z</time></trkpt><trkpt lat="45.99205731416695" lon="12.243831744862334"><ele>222.0</ele><time>2026-04-25T08:30:17.842Z</time></trkpt><trkpt lat="45.99212568446395" lon="12.243862697675397"><ele>222.0</ele><time>2026-04-25T08:30:19.842Z</time></trkpt><trkpt lat="45.99219251058736" lon="12.243803115634844"><ele>222.0</ele><time>2026-04-25T08:30:21.842Z</time></trkpt><trkpt lat="45.99223699125529" lon="12.243737933652362"><ele>222.0</ele><time>2026-04-25T08:30:23.842Z</time></trkpt><trkpt lat="45.992299340458004" lon="12.243814119040051"><ele>222.0</ele><time>2026-04-25T08:30:29.842Z</time></trkpt><trkpt lat="45.99237432100652" lon="12.243813654061345"><ele>222.0</ele><time>2026-04-25T08:30:32.842Z</time></trkpt><trkpt lat="45.992463404864054" lon="12.243729888747026"><ele>222.39999999999998</ele><time>2026-04-25T08:30:34.842Z</time></trkpt><trkpt lat="45.99261135772164" lon="12.24385552952534"><ele>222.79999999999998</ele><time>2026-04-25T08:30:38.842Z</time></trkpt><trkpt lat="45.99266951102214" lon="12.243892524397449"><ele>223.2</ele><time>2026-04-25T08:30:39.842Z</time></trkpt><trkpt lat="45.992726517006474" lon="12.24393517089746"><ele>223.6</ele><time>2026-04-25T08:30:40.842Z</time></trkpt><trkpt lat="45.992786835345164" lon="12.243964962759394"><ele>224.0</ele><time>2026-04-25T08:30:41.842Z</time></trkpt><trkpt lat="45.99290610961978" lon="12.243982896457295"><ele>224.0</ele><time>2026-04-25T08:30:43.842Z</time></trkpt><trkpt lat="45.99297464201241" lon="12.243981675969522"><ele>223.99999999999997</ele><time>2026-04-25T08:30:44.842Z</time></trkpt><trkpt lat="45.99309442486681" lon="12.243982050230796"><ele>223.99999999999997</ele><time>2026-04-25T08:30:46.842Z</time></trkpt><trkpt lat="45.99320204288599" lon="12.243969534751226"><ele>224.0</ele><time>2026-04-25T08:30:48.842Z</time></trkpt><trkpt lat="45.9932885203224" lon="12.243939014122864"><ele>224.0</ele><time>2026-04-25T08:30:50.842Z</time></trkpt><trkpt lat="45.99341578366483" lon="12.244191328814527"><ele>224.33333333333334</ele><time>2026-04-25T08:30:55.842Z</time></trkpt><trkpt lat="45.99345896878522" lon="12.244341633640175"><ele>224.66666666666669</ele><time>2026-04-25T08:30:57.842Z</time></trkpt><trkpt lat="45.99347554522645" lon="12.244429739361733"><ele>225.0</ele><time>2026-04-25T08:30:58.842Z</time></trkpt><trkpt lat="45.99350873687062" lon="12.24457313873805"><ele>225.33333333333331</ele><time>2026-04-25T08:31:00.842Z</time></trkpt><trkpt lat="45.99353246777053" lon="12.244666527590242"><ele>225.66666666666666</ele><time>2026-04-25T08:31:01.842Z</time></trkpt><trkpt lat="45.99354485414945" lon="12.244772214817614"><ele>226.0</ele><time>2026-04-25T08:31:02.842Z</time></trkpt><trkpt lat="45.993565973607986" lon="12.244868580992456"><ele>226.0</ele><time>2026-04-25T08:31:03.842Z</time></trkpt><trkpt lat="45.99358120948025" lon="12.244963338407594"><ele>226.00000000000003</ele><time>2026-04-25T08:31:04.842Z</time></trkpt><trkpt lat="45.99360249428942" lon="12.245064476562579"><ele>226.00000000000003</ele><time>2026-04-25T08:31:05.841Z</time></trkpt><trkpt lat="45.99364397507938" lon="12.245230554995045"><ele>226.0</ele><time>2026-04-25T08:31:07.841Z</time></trkpt><trkpt lat="45.99369449987192" lon="12.245393638980522"><ele>226.0</ele><time>2026-04-25T08:31:09.841Z</time></trkpt><trkpt lat="45.993719353396635" lon="12.245485591798033"><ele>225.99999999999997</ele><time>2026-04-25T08:31:10.841Z</time></trkpt><trkpt lat="45.99374545791368" lon="12.245571484779521"><ele>226.0</ele><time>2026-04-25T08:31:11.841Z</time></trkpt><trkpt lat="45.99374841474032" lon="12.245746458132116"><ele>226.0</ele><time>2026-04-25T08:31:13.841Z</time></trkpt><trkpt lat="45.99374765751061" lon="12.24583753379876"><ele>226.0</ele><time>2026-04-25T08:31:14.841Z</time></trkpt><trkpt lat="45.993765584735925" lon="12.245932483697441"><ele>225.99999999999997</ele><time>2026-04-25T08:31:15.841Z</time></trkpt><trkpt lat="45.99376806979691" lon="12.246033318815787"><ele>226.0</ele><time>2026-04-25T08:31:16.841Z</time></trkpt><trkpt lat="45.99378914767724" lon="12.246175829556485"><ele>225.99999999999997</ele><time>2026-04-25T08:31:18.841Z</time></trkpt><trkpt lat="45.99377066266841" lon="12.246302877949715"><ele>226.0</ele><time>2026-04-25T08:31:20.841Z</time></trkpt><trkpt lat="45.99369296740505" lon="12.246411929352725"><ele>226.0</ele><time>2026-04-25T08:31:22.841Z</time></trkpt><trkpt lat="45.99362799781746" lon="12.246449182137898"><ele>226.0</ele><time>2026-04-25T08:31:23.841Z</time></trkpt><trkpt lat="45.99355891353129" lon="12.24647669249982"><ele>225.99999999999997</ele><time>2026-04-25T08:31:24.841Z</time></trkpt><trkpt lat="45.99349347492254" lon="12.246510167659409"><ele>226.0</ele><time>2026-04-25T08:31:25.841Z</time></trkpt><trkpt lat="45.993426596885826" lon="12.246547534735518"><ele>226.0</ele><time>2026-04-25T08:31:26.841Z</time></trkpt><trkpt lat="45.9933644316838" lon="12.246588013447166"><ele>226.0</ele><time>2026-04-25T08:31:27.841Z</time></trkpt><trkpt lat="45.99330070909694" lon="12.246621432531693"><ele>226.0</ele><time>2026-04-25T08:31:28.841Z</time></trkpt><trkpt lat="45.99323738310323" lon="12.246657768618414"><ele>226.0</ele><time>2026-04-25T08:31:29.841Z</time></trkpt><trkpt lat="45.993169592561934" lon="12.246695914819814"><ele>226.0</ele><time>2026-04-25T08:31:30.841Z</time></trkpt><trkpt lat="45.99310671921996" lon="12.24673217272315"><ele>226.0</ele><time>2026-04-25T08:31:31.842Z</time></trkpt><trkpt lat="45.993045394304104" lon="12.24676553018918"><ele>226.0</ele><time>2026-04-25T08:31:32.842Z</time></trkpt><trkpt lat="45.9929916696113" lon="12.246815617724382"><ele>226.16666666666666</ele><time>2026-04-25T08:31:33.842Z</time></trkpt><trkpt lat="45.99293508940744" lon="12.246966069178882"><ele>226.33333333333331</ele><time>2026-04-25T08:31:35.842Z</time></trkpt><trkpt lat="45.99293328692419" lon="12.247057595991567"><ele>226.5</ele><time>2026-04-25T08:31:36.842Z</time></trkpt><trkpt lat="45.99295298650093" lon="12.247150071028562"><ele>226.66666666666669</ele><time>2026-04-25T08:31:37.843Z</time></trkpt><trkpt lat="45.992995351428796" lon="12.247226168052203"><ele>226.83333333333334</ele><time>2026-04-25T08:31:38.842Z</time></trkpt><trkpt lat="45.99304271938063" lon="12.247296417440849"><ele>227.0</ele><time>2026-04-25T08:31:39.842Z</time></trkpt><trkpt lat="45.993086534080255" lon="12.247367166954211"><ele>227.42857142857144</ele><time>2026-04-25T08:31:40.843Z</time></trkpt><trkpt lat="45.993120950942256" lon="12.247445409872189"><ele>227.8571428571429</ele><time>2026-04-25T08:31:41.842Z</time></trkpt><trkpt lat="45.993153195723636" lon="12.247527767577504"><ele>228.28571428571428</ele><time>2026-04-25T08:31:42.842Z</time></trkpt><trkpt lat="45.99317731243066" lon="12.247619444853521"><ele>228.71428571428572</ele><time>2026-04-25T08:31:43.842Z</time></trkpt><trkpt lat="45.993199553936" lon="12.2477104254705"><ele>229.14285714285714</ele><time>2026-04-25T08:31:44.842Z</time></trkpt><trkpt lat="45.99321860435953" lon="12.247801898398118"><ele>229.57142857142856</ele><time>2026-04-25T08:31:45.842Z</time></trkpt><trkpt lat="45.993228323814826" lon="12.247894169211149"><ele>229.99999999999997</ele><time>2026-04-25T08:31:46.842Z</time></trkpt><trkpt lat="45.99324219830109" lon="12.247993540376035"><ele>230.00000000000003</ele><time>2026-04-25T08:31:47.842Z</time></trkpt><trkpt lat="45.99325422110146" lon="12.248085735050227"><ele>230.0</ele><time>2026-04-25T08:31:48.842Z</time></trkpt><trkpt lat="45.993275587699124" lon="12.248266891748134"><ele>230.0</ele><time>2026-04-25T08:31:50.842Z</time></trkpt><trkpt lat="45.99331344546937" lon="12.248348253679165"><ele>230.0</ele><time>2026-04-25T08:31:51.842Z</time></trkpt><trkpt lat="45.993354287213286" lon="12.248422864537602"><ele>230.00000000000003</ele><time>2026-04-25T08:31:52.842Z</time></trkpt><trkpt lat="45.99343111249406" lon="12.248557436857078"><ele>230.0</ele><time>2026-04-25T08:31:54.842Z</time></trkpt><trkpt lat="45.99350011652046" lon="12.248699526419603"><ele>229.8</ele><time>2026-04-25T08:31:56.842Z</time></trkpt><trkpt lat="45.99357025141433" lon="12.248827409826877"><ele>229.6</ele><time>2026-04-25T08:31:58.842Z</time></trkpt><trkpt lat="45.9936405075698" lon="12.248947174731189"><ele>229.39999999999998</ele><time>2026-04-25T08:32:00.842Z</time></trkpt><trkpt lat="45.9936982753192" lon="12.249049634900246"><ele>229.2</ele><time>2026-04-25T08:32:02.842Z</time></trkpt><trkpt lat="45.99375181115381" lon="12.249153815908066"><ele>229.0</ele><time>2026-04-25T08:32:04.842Z</time></trkpt><trkpt lat="45.99380675097735" lon="12.249258155469668"><ele>229.2</ele><time>2026-04-25T08:32:06.842Z</time></trkpt><trkpt lat="45.993871454705754" lon="12.24935631909932"><ele>229.39999999999998</ele><time>2026-04-25T08:32:08.842Z</time></trkpt><trkpt lat="45.993937594387326" lon="12.249453204952504"><ele>229.6</ele><time>2026-04-25T08:32:10.842Z</time></trkpt><trkpt lat="45.99400370687447" lon="12.249542181075542"><ele>229.8</ele><time>2026-04-25T08:32:12.842Z</time></trkpt><trkpt lat="45.994087158030574" lon="12.24961054894935"><ele>230.0</ele><time>2026-04-25T08:32:14.842Z</time></trkpt><trkpt lat="45.994175400220826" lon="12.24966593579133"><ele>230.0</ele><time>2026-04-25T08:32:16.842Z</time></trkpt><trkpt lat="45.994277935591484" lon="12.249759990652416"><ele>230.0</ele><time>2026-04-25T08:32:18.842Z</time></trkpt><trkpt lat="45.99436760676166" lon="12.249866795369"><ele>230.0</ele><time>2026-04-25T08:32:20.842Z</time></trkpt><trkpt lat="45.9944761683237" lon="12.249966671309537"><ele>230.0</ele><time>2026-04-25T08:32:22.842Z</time></trkpt><trkpt lat="45.99453475139642" lon="12.250008923069954"><ele>230.0</ele><time>2026-04-25T08:32:23.842Z</time></trkpt><trkpt lat="45.99458942274318" lon="12.25005743270563"><ele>230.71428571428567</ele><time>2026-04-25T08:32:24.842Z</time></trkpt><trkpt lat="45.99464575229058" lon="12.250108394009876"><ele>231.42857142857142</ele><time>2026-04-25T08:32:25.842Z</time></trkpt><trkpt lat="45.99470072334104" lon="12.250156677016205"><ele>232.1428571428571</ele><time>2026-04-25T08:32:26.842Z</time></trkpt><trkpt lat="45.99476089289185" lon="12.250206297637515"><ele>232.85714285714283</ele><time>2026-04-25T08:32:27.842Z</time></trkpt><trkpt lat="45.99481734287358" lon="12.250256933427057"><ele>233.57142857142856</ele><time>2026-04-25T08:32:28.842Z</time></trkpt><trkpt lat="45.994880419328055" lon="12.250308202142763"><ele>234.28571428571428</ele><time>2026-04-25T08:32:29.842Z</time></trkpt><trkpt lat="45.994936403573796" lon="12.250363935735004"><ele>235.0</ele><time>2026-04-25T08:32:30.842Z</time></trkpt><trkpt lat="45.99499139092262" lon="12.250408491976694"><ele>234.57142857142856</ele><time>2026-04-25T08:32:31.842Z</time></trkpt><trkpt lat="45.99504656502884" lon="12.250468203768728"><ele>234.1428571428571</ele><time>2026-04-25T08:32:32.842Z</time></trkpt><trkpt lat="45.995105021684495" lon="12.250523371394168"><ele>233.71428571428572</ele><time>2026-04-25T08:32:33.842Z</time></trkpt><trkpt lat="45.995162782607025" lon="12.250578818581616"><ele>233.28571428571428</ele><time>2026-04-25T08:32:34.841Z</time></trkpt><trkpt lat="45.99522195779296" lon="12.25064125880116"><ele>232.85714285714286</ele><time>2026-04-25T08:32:35.841Z</time></trkpt><trkpt lat="45.995284351529726" lon="12.250711614015996"><ele>232.42857142857144</ele><time>2026-04-25T08:32:36.841Z</time></trkpt><trkpt lat="45.995340145344784" lon="12.250781138609566"><ele>232.00000000000003</ele><time>2026-04-25T08:32:37.841Z</time></trkpt><trkpt lat="45.99540275542079" lon="12.250839447842406"><ele>231.99999999999997</ele><time>2026-04-25T08:32:38.841Z</time></trkpt><trkpt lat="45.99546876526948" lon="12.250890294032354"><ele>232.0</ele><time>2026-04-25T08:32:39.841Z</time></trkpt><trkpt lat="45.995541218533276" lon="12.250931852642953"><ele>232.0</ele><time>2026-04-25T08:32:40.841Z</time></trkpt><trkpt lat="45.995612104199296" lon="12.250971222892996"><ele>232.0</ele><time>2026-04-25T08:32:41.841Z</time></trkpt><trkpt lat="45.99568109114916" lon="12.251006970693162"><ele>231.99999999999997</ele><time>2026-04-25T08:32:42.841Z</time></trkpt><trkpt lat="45.99575693117918" lon="12.251053432193322"><ele>232.0</ele><time>2026-04-25T08:32:43.841Z</time></trkpt><trkpt lat="45.99582125764837" lon="12.251114779145654"><ele>232.00000000000003</ele><time>2026-04-25T08:32:44.841Z</time></trkpt><trkpt lat="45.99587023627053" lon="12.251188736415074"><ele>232.0</ele><time>2026-04-25T08:32:45.841Z</time></trkpt><trkpt lat="45.99593073746101" lon="12.25125427144544"><ele>232.00000000000003</ele><time>2026-04-25T08:32:46.841Z</time></trkpt><trkpt lat="45.9959872284026" lon="12.251317608224184"><ele>232.00000000000003</ele><time>2026-04-25T08:32:47.841Z</time></trkpt><trkpt lat="45.99604303416134" lon="12.2513839251348"><ele>232.0</ele><time>2026-04-25T08:32:48.841Z</time></trkpt><trkpt lat="45.996098598493354" lon="12.2514487936401"><ele>232.00000000000003</ele><time>2026-04-25T08:32:49.841Z</time></trkpt><trkpt lat="45.99615404738203" lon="12.251514689798581"><ele>232.00000000000003</ele><time>2026-04-25T08:32:50.841Z</time></trkpt><trkpt lat="45.99620528906719" lon="12.251582720587729"><ele>232.0</ele><time>2026-04-25T08:32:51.841Z</time></trkpt><trkpt lat="45.99626038562831" lon="12.251644011778467"><ele>232.0</ele><time>2026-04-25T08:32:52.841Z</time></trkpt><trkpt lat="45.99630840811" lon="12.25171065069472"><ele>232.0</ele><time>2026-04-25T08:32:53.841Z</time></trkpt><trkpt lat="45.99635448145379" lon="12.25177606434208"><ele>232.0</ele><time>2026-04-25T08:32:54.841Z</time></trkpt><trkpt lat="45.996432015502016" lon="12.25191837887413"><ele>232.0</ele><time>2026-04-25T08:32:56.841Z</time></trkpt><trkpt lat="45.99651672538771" lon="12.252061215560943"><ele>232.00000000000003</ele><time>2026-04-25T08:32:58.841Z</time></trkpt><trkpt lat="45.9965661696691" lon="12.25213294054957"><ele>232.0</ele><time>2026-04-25T08:32:59.841Z</time></trkpt><trkpt lat="45.996626014057284" lon="12.252199991595717"><ele>232.00000000000003</ele><time>2026-04-25T08:33:00.841Z</time></trkpt><trkpt lat="45.99668928379589" lon="12.252248590477592"><ele>232.00000000000003</ele><time>2026-04-25T08:33:01.841Z</time></trkpt><trkpt lat="45.99675884419382" lon="12.252281419707339"><ele>232.0</ele><time>2026-04-25T08:33:02.841Z</time></trkpt><trkpt lat="45.996817544530195" lon="12.252314904116329"><ele>232.00000000000003</ele><time>2026-04-25T08:33:03.841Z</time></trkpt><trkpt lat="45.99687492717956" lon="12.252363843456871"><ele>232.00000000000003</ele><time>2026-04-25T08:33:04.841Z</time></trkpt><trkpt lat="45.996936189928036" lon="12.252421397517015"><ele>232.99999999999997</ele><time>2026-04-25T08:33:05.841Z</time></trkpt><trkpt lat="45.99698617391873" lon="12.25248377156642"><ele>234.0</ele><time>2026-04-25T08:33:06.841Z</time></trkpt><trkpt lat="45.99703421114993" lon="12.252546377394621"><ele>235.0</ele><time>2026-04-25T08:33:07.841Z</time></trkpt><trkpt lat="45.99708484738606" lon="12.252623824288097"><ele>236.0</ele><time>2026-04-25T08:33:08.841Z</time></trkpt><trkpt lat="45.99713129459026" lon="12.252700274065518"><ele>236.99999999999997</ele><time>2026-04-25T08:33:09.841Z</time></trkpt><trkpt lat="45.9972017653634" lon="12.252846224287204"><ele>238.0</ele><time>2026-04-25T08:33:11.841Z</time></trkpt><trkpt lat="45.99723367617735" lon="12.252927593340017"><ele>238.0</ele><time>2026-04-25T08:33:12.841Z</time></trkpt><trkpt lat="45.99726517746024" lon="12.253016100757124"><ele>238.0</ele><time>2026-04-25T08:33:13.841Z</time></trkpt><trkpt lat="45.99730014736381" lon="12.253105596792887"><ele>238.0</ele><time>2026-04-25T08:33:14.841Z</time></trkpt><trkpt lat="45.99732774293491" lon="12.253198166824857"><ele>238.0</ele><time>2026-04-25T08:33:15.841Z</time></trkpt><trkpt lat="45.99734988503255" lon="12.253290989053218"><ele>238.0</ele><time>2026-04-25T08:33:16.841Z</time></trkpt><trkpt lat="45.99737774198321" lon="12.25338254163335"><ele>238.0</ele><time>2026-04-25T08:33:17.841Z</time></trkpt><trkpt lat="45.99740769883793" lon="12.253476982470787"><ele>238.0</ele><time>2026-04-25T08:33:18.841Z</time></trkpt><trkpt lat="45.9974439420886" lon="12.253572788997896"><ele>237.85714285714286</ele><time>2026-04-25T08:33:19.841Z</time></trkpt><trkpt lat="45.99747901128204" lon="12.253664046548968"><ele>237.71428571428572</ele><time>2026-04-25T08:33:20.841Z</time></trkpt><trkpt lat="45.997508193731484" lon="12.253757656193812"><ele>237.57142857142856</ele><time>2026-04-25T08:33:21.841Z</time></trkpt><trkpt lat="45.99753629291935" lon="12.253850010399672"><ele>237.42857142857142</ele><time>2026-04-25T08:33:22.841Z</time></trkpt><trkpt lat="45.997571206473644" lon="12.253945672469142"><ele>237.28571428571428</ele><time>2026-04-25T08:33:23.841Z</time></trkpt><trkpt lat="45.99760122645682" lon="12.254037904175727"><ele>237.1428571428571</ele><time>2026-04-25T08:33:24.841Z</time></trkpt><trkpt lat="45.99763549438251" lon="12.25412486073021"><ele>236.99999999999997</ele><time>2026-04-25T08:33:25.841Z</time></trkpt><trkpt lat="45.99765608123516" lon="12.254219624045879"><ele>237.16666666666666</ele><time>2026-04-25T08:33:26.841Z</time></trkpt><trkpt lat="45.99767070502905" lon="12.254310560567708"><ele>237.33333333333331</ele><time>2026-04-25T08:33:27.841Z</time></trkpt><trkpt lat="45.997703378111034" lon="12.254398728345198"><ele>237.5</ele><time>2026-04-25T08:33:28.841Z</time></trkpt><trkpt lat="45.997733752364034" lon="12.254486640063009"><ele>237.66666666666666</ele><time>2026-04-25T08:33:29.841Z</time></trkpt><trkpt lat="45.99776096918141" lon="12.254576108949566"><ele>237.83333333333331</ele><time>2026-04-25T08:33:30.841Z</time></trkpt><trkpt lat="45.99778762616838" lon="12.254665157917522"><ele>238.0</ele><time>2026-04-25T08:33:31.841Z</time></trkpt><trkpt lat="45.99783686346901" lon="12.254841382274442"><ele>237.99999999999997</ele><time>2026-04-25T08:33:33.841Z</time></trkpt><trkpt lat="45.99786483123585" lon="12.254931578924333"><ele>238.0</ele><time>2026-04-25T08:33:34.841Z</time></trkpt><trkpt lat="45.99789608329153" lon="12.25501567053445"><ele>238.0</ele><time>2026-04-25T08:33:35.841Z</time></trkpt><trkpt lat="45.99791639244111" lon="12.25510382277995"><ele>238.0</ele><time>2026-04-25T08:33:36.841Z</time></trkpt><trkpt lat="45.99794380134514" lon="12.25519280607392"><ele>237.99999999999997</ele><time>2026-04-25T08:33:37.841Z</time></trkpt><trkpt lat="45.9979769797652" lon="12.255358013624333"><ele>238.0</ele><time>2026-04-25T08:33:39.841Z</time></trkpt><trkpt lat="45.99803405808225" lon="12.255506207985393"><ele>237.99999999999997</ele><time>2026-04-25T08:33:41.841Z</time></trkpt><trkpt lat="45.99810710580874" lon="12.255612808672284"><ele>238.0</ele><time>2026-04-25T08:33:43.841Z</time></trkpt><trkpt lat="45.99816289085136" lon="12.255757499044071"><ele>238.0</ele><time>2026-04-25T08:33:45.841Z</time></trkpt><trkpt lat="45.99820164894951" lon="12.255858397640907"><ele>238.0</ele><time>2026-04-25T08:33:46.841Z</time></trkpt><trkpt lat="45.998215664515335" lon="12.255961440461622"><ele>237.99999999999997</ele><time>2026-04-25T08:33:47.841Z</time></trkpt><trkpt lat="45.998232578993246" lon="12.256067572306263"><ele>238.0</ele><time>2026-04-25T08:33:48.841Z</time></trkpt><trkpt lat="45.998253923991065" lon="12.256176424009778"><ele>237.83333333333331</ele><time>2026-04-25T08:33:49.841Z</time></trkpt><trkpt lat="45.99827862205804" lon="12.256279462239672"><ele>237.66666666666666</ele><time>2026-04-25T08:33:50.841Z</time></trkpt><trkpt lat="45.998303312351645" lon="12.256383700176967"><ele>237.5</ele><time>2026-04-25T08:33:51.841Z</time></trkpt><trkpt lat="45.99832003641081" lon="12.256481016556114"><ele>237.33333333333331</ele><time>2026-04-25T08:33:52.841Z</time></trkpt><trkpt lat="45.99834422202137" lon="12.256581972005181"><ele>237.16666666666666</ele><time>2026-04-25T08:33:53.841Z</time></trkpt><trkpt lat="45.998375698220045" lon="12.25668254210257"><ele>237.0</ele><time>2026-04-25T08:33:54.841Z</time></trkpt><trkpt lat="45.998404822134056" lon="12.256785132635272"><ele>237.28571428571425</ele><time>2026-04-25T08:33:55.841Z</time></trkpt><trkpt lat="45.99843198361806" lon="12.256885987773689"><ele>237.57142857142856</ele><time>2026-04-25T08:33:56.841Z</time></trkpt><trkpt lat="45.99846187407887" lon="12.256983738028858"><ele>237.85714285714286</ele><time>2026-04-25T08:33:57.841Z</time></trkpt><trkpt lat="45.99849976004869" lon="12.257081698024301"><ele>238.14285714285714</ele><time>2026-04-25T08:33:58.841Z</time></trkpt><trkpt lat="45.998546914396755" lon="12.257166187681403"><ele>238.42857142857144</ele><time>2026-04-25T08:33:59.841Z</time></trkpt><trkpt lat="45.99858806658336" lon="12.25725056624776"><ele>238.71428571428575</ele><time>2026-04-25T08:34:00.841Z</time></trkpt><trkpt lat="45.99863601145553" lon="12.257326977572426"><ele>239.00000000000003</ele><time>2026-04-25T08:34:01.841Z</time></trkpt><trkpt lat="45.99868223116565" lon="12.257406328340046"><ele>239.00000000000003</ele><time>2026-04-25T08:34:02.841Z</time></trkpt><trkpt lat="45.99873121840598" lon="12.2574753860755"><ele>239.0</ele><time>2026-04-25T08:34:03.841Z</time></trkpt><trkpt lat="45.998780970804525" lon="12.257546578604806"><ele>239.0</ele><time>2026-04-25T08:34:04.841Z</time></trkpt><trkpt lat="45.99883281598222" lon="12.257671430309083"><ele>239.0</ele><time>2026-04-25T08:34:05.841Z</time></trkpt><trkpt lat="45.99887711927569" lon="12.25775121764519"><ele>239.00000000000003</ele><time>2026-04-25T08:34:06.841Z</time></trkpt><trkpt lat="45.998917202488805" lon="12.25782941107685"><ele>239.0</ele><time>2026-04-25T08:34:07.841Z</time></trkpt><trkpt lat="45.99896109195583" lon="12.25791639236902"><ele>239.0</ele><time>2026-04-25T08:34:08.841Z</time></trkpt><trkpt lat="45.998999693012195" lon="12.25799268995782"><ele>238.99999999999997</ele><time>2026-04-25T08:34:09.841Z</time></trkpt><trkpt lat="45.999086416090094" lon="12.258124804996545"><ele>238.99999999999997</ele><time>2026-04-25T08:34:11.841Z</time></trkpt><trkpt lat="45.999166768569296" lon="12.258251522428253"><ele>239.0</ele><time>2026-04-25T08:34:13.841Z</time></trkpt><trkpt lat="45.999231183563765" lon="12.25835167135769"><ele>239.0</ele><time>2026-04-25T08:34:15.841Z</time></trkpt><trkpt lat="45.99930406255959" lon="12.25846042979915"><ele>239.6</ele><time>2026-04-25T08:34:17.841Z</time></trkpt><trkpt lat="45.99937344214453" lon="12.258565195195281"><ele>240.2</ele><time>2026-04-25T08:34:19.841Z</time></trkpt><trkpt lat="45.99944297731085" lon="12.258634773438173"><ele>240.79999999999998</ele><time>2026-04-25T08:34:21.841Z</time></trkpt><trkpt lat="45.99952354499536" lon="12.258643135316646"><ele>241.39999999999998</ele><time>2026-04-25T08:34:23.841Z</time></trkpt><trkpt lat="45.99960485500724" lon="12.25871034435657"><ele>242.0</ele><time>2026-04-25T08:34:25.841Z</time></trkpt><trkpt lat="45.99967532205679" lon="12.258810819882422"><ele>242.0</ele><time>2026-04-25T08:34:27.841Z</time></trkpt><trkpt lat="45.99973497696657" lon="12.258927577638474"><ele>242.0</ele><time>2026-04-25T08:34:29.841Z</time></trkpt><trkpt lat="45.99979532007852" lon="12.259013183787122"><ele>242.0</ele><time>2026-04-25T08:34:31.841Z</time></trkpt><trkpt lat="45.9998427037782" lon="12.259097043156757"><ele>242.0</ele><time>2026-04-25T08:34:33.841Z</time></trkpt><trkpt lat="45.99983159146606" lon="12.259211333730319"><ele>242.0</ele><time>2026-04-25T08:34:35.841Z</time></trkpt><trkpt lat="45.99973420067965" lon="12.25928803811794"><ele>241.00000000000003</ele><time>2026-04-25T08:34:37.841Z</time></trkpt><trkpt lat="45.999625700257646" lon="12.259382554876186"><ele>240.0</ele><time>2026-04-25T08:34:39.841Z</time></trkpt><trkpt lat="45.99957075778461" lon="12.259445176509974"><ele>239.0</ele><time>2026-04-25T08:34:40.841Z</time></trkpt><trkpt lat="45.99951970528108" lon="12.259519941696754"><ele>238.0</ele><time>2026-04-25T08:34:41.841Z</time></trkpt><trkpt lat="45.99947156410719" lon="12.259602582317836"><ele>237.00000000000003</ele><time>2026-04-25T08:34:42.841Z</time></trkpt><trkpt lat="45.99942319236345" lon="12.259700698962257"><ele>236.0</ele><time>2026-04-25T08:34:43.841Z</time></trkpt><trkpt lat="45.999370876710394" lon="12.259803492140236"><ele>235.4</ele><time>2026-04-25T08:34:44.841Z</time></trkpt><trkpt lat="45.9993189100058" lon="12.25991799085611"><ele>234.8</ele><time>2026-04-25T08:34:45.841Z</time></trkpt><trkpt lat="45.999267040563474" lon="12.260032765986006"><ele>234.20000000000002</ele><time>2026-04-25T08:34:46.841Z</time></trkpt><trkpt lat="45.999216813745605" lon="12.260153694683662"><ele>233.60000000000002</ele><time>2026-04-25T08:34:47.841Z</time></trkpt><trkpt lat="45.9991642479153" lon="12.260286035197968"><ele>233.0</ele><time>2026-04-25T08:34:48.841Z</time></trkpt><trkpt lat="45.99912223088051" lon="12.260422211552484"><ele>232.60000000000002</ele><time>2026-04-25T08:34:49.841Z</time></trkpt><trkpt lat="45.99908030417136" lon="12.260560299354362"><ele>232.20000000000002</ele><time>2026-04-25T08:34:50.841Z</time></trkpt><trkpt lat="45.99905479682119" lon="12.26065808414796"><ele>231.8</ele><time>2026-04-25T08:34:51.841Z</time></trkpt><trkpt lat="45.99902769467127" lon="12.260799709878365"><ele>231.4</ele><time>2026-04-25T08:34:53.841Z</time></trkpt><trkpt lat="45.99908492444599" lon="12.260957540689496"><ele>231.0</ele><time>2026-04-25T08:34:55.841Z</time></trkpt><trkpt lat="45.99911236875737" lon="12.261063354835912"><ele>231.33333333333334</ele><time>2026-04-25T08:34:56.841Z</time></trkpt><trkpt lat="45.99914036469245" lon="12.261168921209627"><ele>231.66666666666669</ele><time>2026-04-25T08:34:57.841Z</time></trkpt><trkpt lat="45.999156786760736" lon="12.261278081261711"><ele>232.0</ele><time>2026-04-25T08:34:58.841Z</time></trkpt><trkpt lat="45.99918186918793" lon="12.261382978676172"><ele>232.33333333333334</ele><time>2026-04-25T08:34:59.841Z</time></trkpt><trkpt lat="45.999201449938575" lon="12.26148157340679"><ele>232.66666666666669</ele><time>2026-04-25T08:35:00.841Z</time></trkpt><trkpt lat="45.99922571709123" lon="12.261590921791974"><ele>233.0</ele><time>2026-04-25T08:35:01.841Z</time></trkpt><trkpt lat="45.99925523274859" lon="12.261703447456506"><ele>233.33333333333334</ele><time>2026-04-25T08:35:02.841Z</time></trkpt><trkpt lat="45.99927731508071" lon="12.261808148392925"><ele>233.66666666666669</ele><time>2026-04-25T08:35:03.841Z</time></trkpt><trkpt lat="45.999294727500626" lon="12.261914111783206"><ele>234.0</ele><time>2026-04-25T08:35:04.841Z</time></trkpt><trkpt lat="45.99930659545443" lon="12.262033175507131"><ele>234.33333333333331</ele><time>2026-04-25T08:35:05.841Z</time></trkpt><trkpt lat="45.99932481333615" lon="12.262137772252409"><ele>234.66666666666666</ele><time>2026-04-25T08:35:06.841Z</time></trkpt><trkpt lat="45.999358914575105" lon="12.262243708403926"><ele>235.0</ele><time>2026-04-25T08:35:07.841Z</time></trkpt><trkpt lat="45.999393752414164" lon="12.262352919080778"><ele>234.99999999999997</ele><time>2026-04-25T08:35:08.841Z</time></trkpt><trkpt lat="45.99941557920768" lon="12.262453395743185"><ele>235.0</ele><time>2026-04-25T08:35:09.841Z</time></trkpt><trkpt lat="45.99941854656456" lon="12.26255949872067"><ele>235.0</ele><time>2026-04-25T08:35:10.841Z</time></trkpt><trkpt lat="45.999401910280746" lon="12.2626610901071"><ele>235.0</ele><time>2026-04-25T08:35:11.84Z</time></trkpt><trkpt lat="45.9993821634441" lon="12.262767210350667"><ele>234.99999999999997</ele><time>2026-04-25T08:35:12.84Z</time></trkpt><trkpt lat="45.99936761686033" lon="12.262877253360916"><ele>235.0</ele><time>2026-04-25T08:35:13.84Z</time></trkpt><trkpt lat="45.999351351222664" lon="12.26298596196747"><ele>234.99999999999997</ele><time>2026-04-25T08:35:14.84Z</time></trkpt><trkpt lat="45.99933562838346" lon="12.26308721077806"><ele>235.0</ele><time>2026-04-25T08:35:15.84Z</time></trkpt><trkpt lat="45.99932570228385" lon="12.263193853480526"><ele>235.0</ele><time>2026-04-25T08:35:16.84Z</time></trkpt><trkpt lat="45.99931402082457" lon="12.263304708547695"><ele>235.0</ele><time>2026-04-25T08:35:17.84Z</time></trkpt><trkpt lat="45.99930433485763" lon="12.263420291517306"><ele>234.99999999999997</ele><time>2026-04-25T08:35:18.84Z</time></trkpt><trkpt lat="45.99931112052749" lon="12.263536121321902"><ele>235.0</ele><time>2026-04-25T08:35:19.84Z</time></trkpt><trkpt lat="45.99933039753843" lon="12.263646225250577"><ele>234.49999999999997</ele><time>2026-04-25T08:35:20.84Z</time></trkpt><trkpt lat="45.9993689732569" lon="12.26377109065067"><ele>234.0</ele><time>2026-04-25T08:35:21.84Z</time></trkpt><trkpt lat="45.99942247283554" lon="12.263878312365623"><ele>233.5</ele><time>2026-04-25T08:35:22.84Z</time></trkpt><trkpt lat="45.99946473495013" lon="12.26398177876145"><ele>233.0</ele><time>2026-04-25T08:35:23.84Z</time></trkpt><trkpt lat="45.99950551608361" lon="12.264097750494223"><ele>232.49999999999997</ele><time>2026-04-25T08:35:24.84Z</time></trkpt><trkpt lat="45.99954362750742" lon="12.264210012457472"><ele>232.0</ele><time>2026-04-25T08:35:25.84Z</time></trkpt><trkpt lat="45.99957376999961" lon="12.264312799289339"><ele>231.16666666666666</ele><time>2026-04-25T08:35:26.84Z</time></trkpt><trkpt lat="45.99961662425966" lon="12.26442242958005"><ele>230.33333333333331</ele><time>2026-04-25T08:35:27.84Z</time></trkpt><trkpt lat="45.99966813161288" lon="12.264528755720157"><ele>229.5</ele><time>2026-04-25T08:35:28.84Z</time></trkpt><trkpt lat="45.999719615243826" lon="12.264631418568742"><ele>228.66666666666669</ele><time>2026-04-25T08:35:29.84Z</time></trkpt><trkpt lat="45.99977763393912" lon="12.264732166946231"><ele>227.83333333333334</ele><time>2026-04-25T08:35:30.84Z</time></trkpt><trkpt lat="45.99983572921993" lon="12.26481597171775"><ele>227.0</ele><time>2026-04-25T08:35:31.84Z</time></trkpt><trkpt lat="45.9998991679028" lon="12.264909720909886"><ele>226.00000000000003</ele><time>2026-04-25T08:35:32.84Z</time></trkpt><trkpt lat="45.999972520859004" lon="12.264987524389856"><ele>225.0</ele><time>2026-04-25T08:35:33.84Z</time></trkpt><trkpt lat="46.00005419218538" lon="12.265055297207347"><ele>224.0</ele><time>2026-04-25T08:35:34.84Z</time></trkpt><trkpt lat="46.00012717945236" lon="12.265114685760276"><ele>223.0</ele><time>2026-04-25T08:35:35.84Z</time></trkpt><trkpt lat="46.00019119452417" lon="12.265177465019502"><ele>222.00000000000003</ele><time>2026-04-25T08:35:36.84Z</time></trkpt><trkpt lat="46.000248364225335" lon="12.265251457378108"><ele>221.0</ele><time>2026-04-25T08:35:37.84Z</time></trkpt><trkpt lat="46.00031660941032" lon="12.265330951254384"><ele>221.00000000000003</ele><time>2026-04-25T08:35:38.84Z</time></trkpt><trkpt lat="46.00037628040426" lon="12.265415873370584"><ele>221.0</ele><time>2026-04-25T08:35:39.84Z</time></trkpt><trkpt lat="46.00042103991523" lon="12.265480756214536"><ele>221.0</ele><time>2026-04-25T08:35:40.84Z</time></trkpt><trkpt lat="46.00043641318237" lon="12.265607436164538"><ele>221.0</ele><time>2026-04-25T08:35:42.84Z</time></trkpt><trkpt lat="46.000385387563036" lon="12.265732296971784"><ele>221.00000000000003</ele><time>2026-04-25T08:35:44.841Z</time></trkpt><trkpt lat="46.00031734796966" lon="12.265823698133332"><ele>221.0</ele><time>2026-04-25T08:35:46.841Z</time></trkpt><trkpt lat="46.00024300227307" lon="12.265919933593306"><ele>221.00000000000003</ele><time>2026-04-25T08:35:48.841Z</time></trkpt><trkpt lat="46.0002402589689" lon="12.266045655135072"><ele>221.0</ele><time>2026-04-25T08:35:50.841Z</time></trkpt><trkpt lat="46.000223758613615" lon="12.266150798348455"><ele>221.0</ele><time>2026-04-25T08:35:52.841Z</time></trkpt><trkpt lat="46.00020455044418" lon="12.266238533149368"><ele>221.0</ele><time>2026-04-25T08:35:54.841Z</time></trkpt><trkpt lat="46.00016272736035" lon="12.266342530120372"><ele>221.00000000000003</ele><time>2026-04-25T08:35:56.841Z</time></trkpt><trkpt lat="46.00012391932584" lon="12.26642819446609"><ele>221.0</ele><time>2026-04-25T08:35:58.841Z</time></trkpt><trkpt lat="46.000055095558466" lon="12.266496165630777"><ele>221.50000000000003</ele><time>2026-04-25T08:36:01.841Z</time></trkpt><trkpt lat="45.99999461731471" lon="12.266572541415991"><ele>222.0</ele><time>2026-04-25T08:36:04.841Z</time></trkpt><trkpt lat="45.99991951545581" lon="12.266625348389937"><ele>222.5</ele><time>2026-04-25T08:36:07.841Z</time></trkpt><trkpt lat="45.99985418238319" lon="12.266650636028057"><ele>223.0</ele><time>2026-04-25T08:36:09.841Z</time></trkpt><trkpt lat="45.99977309082979" lon="12.26664769821761"><ele>223.50000000000003</ele><time>2026-04-25T08:36:12.841Z</time></trkpt><trkpt lat="45.99970110350083" lon="12.266671642888156"><ele>224.0</ele><time>2026-04-25T08:36:16.841Z</time></trkpt><trkpt lat="45.99968118379232" lon="12.266767511278973"><ele>224.0</ele><time>2026-04-25T08:36:19.841Z</time></trkpt><trkpt lat="45.99973233413699" lon="12.266827482603414"><ele>224.0</ele><time>2026-04-25T08:36:22.841Z</time></trkpt><trkpt lat="45.99980539405494" lon="12.266856054219168"><ele>224.0</ele><time>2026-04-25T08:36:26.841Z</time></trkpt><trkpt lat="45.99986119219863" lon="12.266802801168549"><ele>224.0</ele><time>2026-04-25T08:36:29.841Z</time></trkpt><trkpt lat="45.99994270298123" lon="12.26681901081951"><ele>224.0</ele><time>2026-04-25T08:36:33.841Z</time></trkpt><trkpt lat="46.000010379184836" lon="12.26684240819263"><ele>224.0</ele><time>2026-04-25T08:36:37.841Z</time></trkpt><trkpt lat="46.00007618534582" lon="12.266868313042334"><ele>224.0</ele><time>2026-04-25T08:36:41.84Z</time></trkpt><trkpt lat="46.0001426420525" lon="12.266844699134149"><ele>224.0</ele><time>2026-04-25T08:36:43.84Z</time></trkpt><trkpt lat="46.00020295680289" lon="12.266798730057438"><ele>223.99999999999997</ele><time>2026-04-25T08:36:46.84Z</time></trkpt><trkpt lat="46.00028684216053" lon="12.266773468872286"><ele>223.99999999999997</ele><time>2026-04-25T08:36:48.84Z</time></trkpt><trkpt lat="46.00036717558407" lon="12.266789622109668"><ele>224.0</ele><time>2026-04-25T08:36:50.84Z</time></trkpt><trkpt lat="46.000459382193405" lon="12.266805794928205"><ele>224.0</ele><time>2026-04-25T08:36:53.84Z</time></trkpt><trkpt lat="46.00065583017357" lon="12.26686558133301"><ele>224.0</ele><time>2026-04-25T08:36:55.84Z</time></trkpt><trkpt lat="46.000789344191915" lon="12.26691023406555"><ele>223.99999999999997</ele><time>2026-04-25T08:36:57.84Z</time></trkpt><trkpt lat="46.00086164479354" lon="12.26695947891729"><ele>223.99999999999997</ele><time>2026-04-25T08:36:58.84Z</time></trkpt><trkpt lat="46.00093509007295" lon="12.26699082833044"><ele>224.0</ele><time>2026-04-25T08:37:01.84Z</time></trkpt><trkpt lat="46.00101128201496" lon="12.26702969327901"><ele>224.0</ele><time>2026-04-25T08:37:03.84Z</time></trkpt><trkpt lat="46.00114197105569" lon="12.26710027405398"><ele>223.0</ele><time>2026-04-25T08:37:05.84Z</time></trkpt><trkpt lat="46.00124737889989" lon="12.267161530715658"><ele>221.99999999999997</ele><time>2026-04-25T08:37:06.84Z</time></trkpt><trkpt lat="46.001344087915555" lon="12.267234865434844"><ele>220.99999999999997</ele><time>2026-04-25T08:37:07.84Z</time></trkpt><trkpt lat="46.00143548526221" lon="12.267333445906658"><ele>220.0</ele><time>2026-04-25T08:37:08.84Z</time></trkpt><trkpt lat="46.00151740233412" lon="12.267409085000192"><ele>219.0</ele><time>2026-04-25T08:37:09.84Z</time></trkpt><trkpt lat="46.00158790618192" lon="12.267495409639533"><ele>219.0</ele><time>2026-04-25T08:37:10.84Z</time></trkpt><trkpt lat="46.0016324972522" lon="12.267559928200003"><ele>218.99999999999997</ele><time>2026-04-25T08:37:11.84Z</time></trkpt><trkpt lat="46.00173971713884" lon="12.267654238609577"><ele>218.99999999999997</ele><time>2026-04-25T08:37:13.84Z</time></trkpt><trkpt lat="46.00184873819572" lon="12.267751210469637"><ele>219.0</ele><time>2026-04-25T08:37:15.84Z</time></trkpt><trkpt lat="46.00191553542877" lon="12.267775298175144"><ele>219.0</ele><time>2026-04-25T08:37:16.84Z</time></trkpt><trkpt lat="46.001988010733214" lon="12.267796884529899"><ele>217.83333333333334</ele><time>2026-04-25T08:37:17.84Z</time></trkpt><trkpt lat="46.00205352851442" lon="12.267812577609138"><ele>216.66666666666669</ele><time>2026-04-25T08:37:18.84Z</time></trkpt><trkpt lat="46.00213560046788" lon="12.267799856024318"><ele>215.5</ele><time>2026-04-25T08:37:19.84Z</time></trkpt><trkpt lat="46.0022114249712" lon="12.267807542374596"><ele>214.33333333333334</ele><time>2026-04-25T08:37:20.84Z</time></trkpt><trkpt lat="46.002288634522586" lon="12.267846245445366"><ele>213.16666666666669</ele><time>2026-04-25T08:37:21.84Z</time></trkpt><trkpt lat="46.002352707528" lon="12.267896342305031"><ele>212.0</ele><time>2026-04-25T08:37:22.84Z</time></trkpt><trkpt lat="46.00241608274482" lon="12.267970859024393"><ele>212.0</ele><time>2026-04-25T08:37:23.84Z</time></trkpt><trkpt lat="46.00246828407542" lon="12.26805684624893"><ele>212.0</ele><time>2026-04-25T08:37:24.84Z</time></trkpt><trkpt lat="46.002517583650416" lon="12.268128344589215"><ele>212.0</ele><time>2026-04-25T08:37:25.84Z</time></trkpt><trkpt lat="46.00256236086044" lon="12.26819808767154"><ele>212.0</ele><time>2026-04-25T08:37:26.84Z</time></trkpt><trkpt lat="46.00260506572477" lon="12.26828037258139"><ele>212.0</ele><time>2026-04-25T08:37:27.84Z</time></trkpt><trkpt lat="46.00264901106948" lon="12.268367477130605"><ele>212.0</ele><time>2026-04-25T08:37:28.84Z</time></trkpt><trkpt lat="46.00269214703155" lon="12.26844714022727"><ele>212.0</ele><time>2026-04-25T08:37:29.84Z</time></trkpt><trkpt lat="46.00276844969126" lon="12.2685921655638"><ele>210.39999999999998</ele><time>2026-04-25T08:37:31.84Z</time></trkpt><trkpt lat="46.00281475564632" lon="12.268673780665027"><ele>208.79999999999998</ele><time>2026-04-25T08:37:32.84Z</time></trkpt><trkpt lat="46.00290696902193" lon="12.268804114870326"><ele>207.2</ele><time>2026-04-25T08:37:34.84Z</time></trkpt><trkpt lat="46.002962967729346" lon="12.26887017228921"><ele>205.6</ele><time>2026-04-25T08:37:35.84Z</time></trkpt><trkpt lat="46.00301688116881" lon="12.268930282522087"><ele>204.0</ele><time>2026-04-25T08:37:36.84Z</time></trkpt><trkpt lat="46.00310769295239" lon="12.269060325791317"><ele>203.5</ele><time>2026-04-25T08:37:38.84Z</time></trkpt><trkpt lat="46.003151962158356" lon="12.269151831892026"><ele>203.0</ele><time>2026-04-25T08:37:39.84Z</time></trkpt><trkpt lat="46.00318552348138" lon="12.269258821383165"><ele>202.5</ele><time>2026-04-25T08:37:40.84Z</time></trkpt><trkpt lat="46.00322615718143" lon="12.269384121674163"><ele>202.0</ele><time>2026-04-25T08:37:41.84Z</time></trkpt><trkpt lat="46.003265615901064" lon="12.26950694932594"><ele>201.5</ele><time>2026-04-25T08:37:42.84Z</time></trkpt><trkpt lat="46.00331129596417" lon="12.269606675591099"><ele>201.0</ele><time>2026-04-25T08:37:43.84Z</time></trkpt><trkpt lat="46.00337266198014" lon="12.269693151000157"><ele>200.60000000000002</ele><time>2026-04-25T08:37:44.84Z</time></trkpt><trkpt lat="46.00344419789138" lon="12.269788361025817"><ele>200.2</ele><time>2026-04-25T08:37:45.84Z</time></trkpt><trkpt lat="46.00351158987067" lon="12.26987698935629"><ele>199.8</ele><time>2026-04-25T08:37:46.84Z</time></trkpt><trkpt lat="46.00357709751535" lon="12.2699613059043"><ele>199.39999999999998</ele><time>2026-04-25T08:37:47.84Z</time></trkpt><trkpt lat="46.00363651049532" lon="12.270049348387168"><ele>199.0</ele><time>2026-04-25T08:37:48.84Z</time></trkpt><trkpt lat="46.00369868245757" lon="12.270141469104113"><ele>199.0</ele><time>2026-04-25T08:37:49.84Z</time></trkpt><trkpt lat="46.00376225975859" lon="12.270239045770813"><ele>199.0</ele><time>2026-04-25T08:37:50.841Z</time></trkpt><trkpt lat="46.00382994089544" lon="12.270326212378738"><ele>199.0</ele><time>2026-04-25T08:37:51.841Z</time></trkpt><trkpt lat="46.003908414016266" lon="12.270419634325812"><ele>199.0</ele><time>2026-04-25T08:37:52.841Z</time></trkpt><trkpt lat="46.004020608131" lon="12.270555820899116"><ele>199.0</ele><time>2026-04-25T08:37:54.841Z</time></trkpt><trkpt lat="46.00406698054851" lon="12.270626262305187"><ele>198.33333333333331</ele><time>2026-04-25T08:37:55.841Z</time></trkpt><trkpt lat="46.00410722210853" lon="12.270727408323625"><ele>197.66666666666666</ele><time>2026-04-25T08:37:56.841Z</time></trkpt><trkpt lat="46.00414627442387" lon="12.27084357852056"><ele>197.0</ele><time>2026-04-25T08:37:57.841Z</time></trkpt><trkpt lat="46.004179157739735" lon="12.270943708231485"><ele>196.33333333333331</ele><time>2026-04-25T08:37:58.841Z</time></trkpt><trkpt lat="46.00425478342897" lon="12.27106441393442"><ele>195.66666666666666</ele><time>2026-04-25T08:38:00.841Z</time></trkpt><trkpt lat="46.004330506906406" lon="12.271089845385157"><ele>195.0</ele><time>2026-04-25T08:38:01.84Z</time></trkpt><trkpt lat="46.0044394775702" lon="12.271123798031963"><ele>194.5</ele><time>2026-04-25T08:38:03.841Z</time></trkpt><trkpt lat="46.004503743280615" lon="12.271102417453326"><ele>194.0</ele><time>2026-04-25T08:38:04.841Z</time></trkpt><trkpt lat="46.004583527804236" lon="12.27105066162707"><ele>193.5</ele><time>2026-04-25T08:38:05.841Z</time></trkpt><trkpt lat="46.00464825333922" lon="12.270967912129512"><ele>193.0</ele><time>2026-04-25T08:38:06.841Z</time></trkpt><trkpt lat="46.00468550003714" lon="12.270854799437627"><ele>192.5</ele><time>2026-04-25T08:38:07.841Z</time></trkpt><trkpt lat="46.00473157473332" lon="12.270779735404071"><ele>192.0</ele><time>2026-04-25T08:38:08.841Z</time></trkpt><trkpt lat="46.004795554997614" lon="12.270701196086645"><ele>192.0</ele><time>2026-04-25T08:38:09.841Z</time></trkpt><trkpt lat="46.00492379941705" lon="12.270640137480688"><ele>192.0</ele><time>2026-04-25T08:38:11.841Z</time></trkpt><trkpt lat="46.00499868436661" lon="12.270612296095015"><ele>192.0</ele><time>2026-04-25T08:38:12.841Z</time></trkpt><trkpt lat="46.00507093296223" lon="12.270587861150462"><ele>192.0</ele><time>2026-04-25T08:38:13.841Z</time></trkpt><trkpt lat="46.0051407937838" lon="12.270574234873006"><ele>192.0</ele><time>2026-04-25T08:38:14.841Z</time></trkpt><trkpt lat="46.00520433809512" lon="12.27058006917869"><ele>192.0</ele><time>2026-04-25T08:38:15.841Z</time></trkpt><trkpt lat="46.00527602860334" lon="12.270590152178002"><ele>191.2</ele><time>2026-04-25T08:38:16.841Z</time></trkpt><trkpt lat="46.00538131482455" lon="12.270630270999193"><ele>190.39999999999998</ele><time>2026-04-25T08:38:18.841Z</time></trkpt><trkpt lat="46.00549070714707" lon="12.270698545216717"><ele>189.60000000000002</ele><time>2026-04-25T08:38:20.841Z</time></trkpt><trkpt lat="46.00555146898939" lon="12.270862597972346"><ele>188.8</ele><time>2026-04-25T08:38:22.84Z</time></trkpt><trkpt lat="46.00557086763564" lon="12.270954202500445"><ele>188.0</ele><time>2026-04-25T08:38:23.84Z</time></trkpt><trkpt lat="46.00558410279613" lon="12.271043951046638"><ele>188.0</ele><time>2026-04-25T08:38:24.84Z</time></trkpt><trkpt lat="46.005605859615784" lon="12.27114001824156"><ele>188.0</ele><time>2026-04-25T08:38:25.84Z</time></trkpt><trkpt lat="46.005639180099614" lon="12.271231781961731"><ele>188.0</ele><time>2026-04-25T08:38:26.84Z</time></trkpt><trkpt lat="46.005691649030325" lon="12.271380840116992"><ele>188.0</ele><time>2026-04-25T08:38:28.84Z</time></trkpt><trkpt lat="46.005718846093046" lon="12.271469039921653"><ele>188.0</ele><time>2026-04-25T08:38:29.84Z</time></trkpt><trkpt lat="46.00576653945254" lon="12.271633579752843"><ele>188.0</ele><time>2026-04-25T08:38:31.84Z</time></trkpt><trkpt lat="46.0058058022856" lon="12.271778174021723"><ele>188.60000000000002</ele><time>2026-04-25T08:38:33.84Z</time></trkpt><trkpt lat="46.00585953934098" lon="12.27192080472344"><ele>189.20000000000002</ele><time>2026-04-25T08:38:35.84Z</time></trkpt><trkpt lat="46.00590908141693" lon="12.272082393320856"><ele>189.8</ele><time>2026-04-25T08:38:37.84Z</time></trkpt><trkpt lat="46.00590666768165" lon="12.272173433947207"><ele>190.4</ele><time>2026-04-25T08:38:38.84Z</time></trkpt><trkpt lat="46.00587169434089" lon="12.27233150031401"><ele>191.0</ele><time>2026-04-25T08:38:40.84Z</time></trkpt><trkpt lat="46.00585282006096" lon="12.272420046167252"><ele>190.0</ele><time>2026-04-25T08:38:41.84Z</time></trkpt><trkpt lat="46.00580524702607" lon="12.272517931228064"><ele>189.0</ele><time>2026-04-25T08:38:42.84Z</time></trkpt><trkpt lat="46.00574691155819" lon="12.272604412782332"><ele>188.0</ele><time>2026-04-25T08:38:43.84Z</time></trkpt><trkpt lat="46.00571421507075" lon="12.272714303519445"><ele>187.0</ele><time>2026-04-25T08:38:44.84Z</time></trkpt><trkpt lat="46.00565720601529" lon="12.272808339116045"><ele>186.0</ele><time>2026-04-25T08:38:45.84Z</time></trkpt><trkpt lat="46.00559168931853" lon="12.272906100193023"><ele>185.0</ele><time>2026-04-25T08:38:46.84Z</time></trkpt><trkpt lat="46.00553500285996" lon="12.273018874948315"><ele>184.6</ele><time>2026-04-25T08:38:47.84Z</time></trkpt><trkpt lat="46.005472946505314" lon="12.273127859408062"><ele>184.2</ele><time>2026-04-25T08:38:48.84Z</time></trkpt><trkpt lat="46.00539891426629" lon="12.273235350978842"><ele>183.8</ele><time>2026-04-25T08:38:49.84Z</time></trkpt><trkpt lat="46.00532778082362" lon="12.273351961981845"><ele>183.4</ele><time>2026-04-25T08:38:50.84Z</time></trkpt><trkpt lat="46.005259532048264" lon="12.273463926167423"><ele>183.0</ele><time>2026-04-25T08:38:51.84Z</time></trkpt><trkpt lat="46.005199739713404" lon="12.273580899112128"><ele>183.0</ele><time>2026-04-25T08:38:52.84Z</time></trkpt><trkpt lat="46.00514014026178" lon="12.273699088624552"><ele>183.0</ele><time>2026-04-25T08:38:53.84Z</time></trkpt><trkpt lat="46.00510514786176" lon="12.273843334476421"><ele>183.0</ele><time>2026-04-25T08:38:54.84Z</time></trkpt><trkpt lat="46.00509075989033" lon="12.273985136529129"><ele>183.0</ele><time>2026-04-25T08:38:55.84Z</time></trkpt><trkpt lat="46.00510302871578" lon="12.274141767003952"><ele>183.0</ele><time>2026-04-25T08:38:56.84Z</time></trkpt><trkpt lat="46.005130541834404" lon="12.27428558526907"><ele>182.0</ele><time>2026-04-25T08:38:57.84Z</time></trkpt><trkpt lat="46.00519102339417" lon="12.274422845618833"><ele>181.0</ele><time>2026-04-25T08:38:58.84Z</time></trkpt><trkpt lat="46.00525123250161" lon="12.2745645585195"><ele>180.0</ele><time>2026-04-25T08:38:59.84Z</time></trkpt><trkpt lat="46.00530792083738" lon="12.274713664618105"><ele>179.0</ele><time>2026-04-25T08:39:00.84Z</time></trkpt><trkpt lat="46.005348780128685" lon="12.274862123895426"><ele>178.75</ele><time>2026-04-25T08:39:01.84Z</time></trkpt><trkpt lat="46.00538720010381" lon="12.275007859497029"><ele>178.5</ele><time>2026-04-25T08:39:02.84Z</time></trkpt><trkpt lat="46.005443648975834" lon="12.275155352872586"><ele>178.25</ele><time>2026-04-25T08:39:03.84Z</time></trkpt><trkpt lat="46.00549522442293" lon="12.275305295097478"><ele>178.0</ele><time>2026-04-25T08:39:04.84Z</time></trkpt><trkpt lat="46.005546793922605" lon="12.275449493096898"><ele>178.0</ele><time>2026-04-25T08:39:05.84Z</time></trkpt><trkpt lat="46.00559641371807" lon="12.27560121736718"><ele>178.0</ele><time>2026-04-25T08:39:06.84Z</time></trkpt><trkpt lat="46.00564266968894" lon="12.275732830892492"><ele>178.0</ele><time>2026-04-25T08:39:07.84Z</time></trkpt><trkpt lat="46.005690001996456" lon="12.275855579332491"><ele>178.0</ele><time>2026-04-25T08:39:08.84Z</time></trkpt><trkpt lat="46.00573996551169" lon="12.275988271871332"><ele>178.0</ele><time>2026-04-25T08:39:09.84Z</time></trkpt><trkpt lat="46.00578362693062" lon="12.276128275763991"><ele>178.0</ele><time>2026-04-25T08:39:10.84Z</time></trkpt><trkpt lat="46.00584010060338" lon="12.276272379805222"><ele>178.0</ele><time>2026-04-25T08:39:11.84Z</time></trkpt><trkpt lat="46.00588821158383" lon="12.27639673444973"><ele>178.0</ele><time>2026-04-25T08:39:12.84Z</time></trkpt><trkpt lat="46.005931473406214" lon="12.276523215242804"><ele>178.0</ele><time>2026-04-25T08:39:13.84Z</time></trkpt><trkpt lat="46.00597479749188" lon="12.276652367142045"><ele>178.0</ele><time>2026-04-25T08:39:14.84Z</time></trkpt><trkpt lat="46.006014731411454" lon="12.276781151699463"><ele>177.4</ele><time>2026-04-25T08:39:15.84Z</time></trkpt><trkpt lat="46.00606692375009" lon="12.276914237473243"><ele>176.8</ele><time>2026-04-25T08:39:16.84Z</time></trkpt><trkpt lat="46.00610144268387" lon="12.277045512476638"><ele>176.2</ele><time>2026-04-25T08:39:17.84Z</time></trkpt><trkpt lat="46.00614428092677" lon="12.277177150156827"><ele>175.6</ele><time>2026-04-25T08:39:18.84Z</time></trkpt><trkpt lat="46.0061813427182" lon="12.277299404408602"><ele>175.0</ele><time>2026-04-25T08:39:19.84Z</time></trkpt><trkpt lat="46.00622568823992" lon="12.277431333443491"><ele>174.6</ele><time>2026-04-25T08:39:20.84Z</time></trkpt><trkpt lat="46.00627259185889" lon="12.277558194842129"><ele>174.2</ele><time>2026-04-25T08:39:21.84Z</time></trkpt><trkpt lat="46.006316492814435" lon="12.27768740758399"><ele>173.8</ele><time>2026-04-25T08:39:22.84Z</time></trkpt><trkpt lat="46.00635298154204" lon="12.277815147354072"><ele>173.4</ele><time>2026-04-25T08:39:23.84Z</time></trkpt><trkpt lat="46.00639826105556" lon="12.277943628698655"><ele>173.0</ele><time>2026-04-25T08:39:24.84Z</time></trkpt><trkpt lat="46.00643739915574" lon="12.278057535963027"><ele>172.60000000000002</ele><time>2026-04-25T08:39:25.84Z</time></trkpt><trkpt lat="46.00648290973661" lon="12.278166093091432"><ele>172.20000000000002</ele><time>2026-04-25T08:39:26.84Z</time></trkpt><trkpt lat="46.006530068676106" lon="12.278285101299296"><ele>171.8</ele><time>2026-04-25T08:39:27.84Z</time></trkpt><trkpt lat="46.00656845110078" lon="12.278406981117943"><ele>171.4</ele><time>2026-04-25T08:39:28.84Z</time></trkpt><trkpt lat="46.00660863123757" lon="12.278518923270246"><ele>171.0</ele><time>2026-04-25T08:39:29.84Z</time></trkpt><trkpt lat="46.00665283798477" lon="12.27863992737935"><ele>170.20000000000002</ele><time>2026-04-25T08:39:30.84Z</time></trkpt><trkpt lat="46.00669056312769" lon="12.278749444435688"><ele>169.4</ele><time>2026-04-25T08:39:31.84Z</time></trkpt><trkpt lat="46.00673110276144" lon="12.27887923947121"><ele>168.6</ele><time>2026-04-25T08:39:32.84Z</time></trkpt><trkpt lat="46.00676286348318" lon="12.278998355681447"><ele>167.8</ele><time>2026-04-25T08:39:33.84Z</time></trkpt><trkpt lat="46.006800512914644" lon="12.279116008241024"><ele>167.0</ele><time>2026-04-25T08:39:34.84Z</time></trkpt><trkpt lat="46.00683898592915" lon="12.279241957552161"><ele>167.0</ele><time>2026-04-25T08:39:35.84Z</time></trkpt><trkpt lat="46.006875605489945" lon="12.27938281772339"><ele>167.0</ele><time>2026-04-25T08:39:36.84Z</time></trkpt><trkpt lat="46.006905305557375" lon="12.279525498518117"><ele>167.0</ele><time>2026-04-25T08:39:37.84Z</time></trkpt><trkpt lat="46.00691615058863" lon="12.279671223729414"><ele>167.0</ele><time>2026-04-25T08:39:38.84Z</time></trkpt><trkpt lat="46.006916146024956" lon="12.279838347859588"><ele>167.0</ele><time>2026-04-25T08:39:39.84Z</time></trkpt><trkpt lat="46.006913630501344" lon="12.280000130071825"><ele>167.2</ele><time>2026-04-25T08:39:40.84Z</time></trkpt><trkpt lat="46.00691971060503" lon="12.280156001276723"><ele>167.39999999999998</ele><time>2026-04-25T08:39:41.84Z</time></trkpt><trkpt lat="46.00692758570812" lon="12.280312603436945"><ele>167.60000000000002</ele><time>2026-04-25T08:39:42.84Z</time></trkpt><trkpt lat="46.00693297393484" lon="12.280470758384663"><ele>167.8</ele><time>2026-04-25T08:39:43.84Z</time></trkpt><trkpt lat="46.00693775101696" lon="12.2806163162042"><ele>168.0</ele><time>2026-04-25T08:39:44.84Z</time></trkpt><trkpt lat="46.00693800525198" lon="12.280761753105889"><ele>167.60000000000002</ele><time>2026-04-25T08:39:45.84Z</time></trkpt><trkpt lat="46.00693879184539" lon="12.280898320312737"><ele>167.20000000000002</ele><time>2026-04-25T08:39:46.84Z</time></trkpt><trkpt lat="46.00694344904327" lon="12.281032453978659"><ele>166.8</ele><time>2026-04-25T08:39:47.84Z</time></trkpt><trkpt lat="46.00694531519927" lon="12.281170675465793"><ele>166.4</ele><time>2026-04-25T08:39:48.84Z</time></trkpt><trkpt lat="46.006954868233976" lon="12.281297163315982"><ele>166.0</ele><time>2026-04-25T08:39:49.84Z</time></trkpt><trkpt lat="46.0069618850906" lon="12.281438636296734"><ele>166.0</ele><time>2026-04-25T08:39:50.84Z</time></trkpt><trkpt lat="46.006966501520395" lon="12.281576635975096"><ele>166.0</ele><time>2026-04-25T08:39:51.84Z</time></trkpt><trkpt lat="46.00697364634109" lon="12.281710272378396"><ele>166.0</ele><time>2026-04-25T08:39:52.84Z</time></trkpt><trkpt lat="46.00697968540876" lon="12.281837939650677"><ele>166.0</ele><time>2026-04-25T08:39:53.84Z</time></trkpt><trkpt lat="46.00698459580183" lon="12.28196327571952"><ele>166.0</ele><time>2026-04-25T08:39:54.84Z</time></trkpt><trkpt lat="46.00698982463751" lon="12.282083885135428"><ele>166.0</ele><time>2026-04-25T08:39:55.841Z</time></trkpt><trkpt lat="46.00699670755198" lon="12.28221545537638"><ele>165.60000000000002</ele><time>2026-04-25T08:39:56.84Z</time></trkpt><trkpt lat="46.00699877184415" lon="12.282348827713037"><ele>165.2</ele><time>2026-04-25T08:39:57.84Z</time></trkpt><trkpt lat="46.00700116392144" lon="12.282480297119282"><ele>164.8</ele><time>2026-04-25T08:39:58.841Z</time></trkpt><trkpt lat="46.00700068585956" lon="12.282610103924673"><ele>164.39999999999998</ele><time>2026-04-25T08:39:59.841Z</time></trkpt><trkpt lat="46.00700503287255" lon="12.282739171180916"><ele>164.0</ele><time>2026-04-25T08:40:00.841Z</time></trkpt><trkpt lat="46.0070148955236" lon="12.282865429058784"><ele>164.0</ele><time>2026-04-25T08:40:01.84Z</time></trkpt><trkpt lat="46.00702114913567" lon="12.282987744692527"><ele>164.0</ele><time>2026-04-25T08:40:02.841Z</time></trkpt><trkpt lat="46.007019883753046" lon="12.283117817097946"><ele>164.0</ele><time>2026-04-25T08:40:03.841Z</time></trkpt><trkpt lat="46.00701933031367" lon="12.283259207961638"><ele>164.0</ele><time>2026-04-25T08:40:04.84Z</time></trkpt><trkpt lat="46.00700740004026" lon="12.283394711498234"><ele>164.0</ele><time>2026-04-25T08:40:05.84Z</time></trkpt><trkpt lat="46.00698546324571" lon="12.283525932191694"><ele>163.6</ele><time>2026-04-25T08:40:06.84Z</time></trkpt><trkpt lat="46.006959059798405" lon="12.283648203212689"><ele>163.2</ele><time>2026-04-25T08:40:07.841Z</time></trkpt><trkpt lat="46.0069187135933" lon="12.2837885267989"><ele>162.79999999999998</ele><time>2026-04-25T08:40:08.84Z</time></trkpt><trkpt lat="46.00687714509571" lon="12.283927843243125"><ele>162.39999999999998</ele><time>2026-04-25T08:40:09.84Z</time></trkpt><trkpt lat="46.00683811135621" lon="12.284063061595566"><ele>162.0</ele><time>2026-04-25T08:40:10.84Z</time></trkpt><trkpt lat="46.00679299954277" lon="12.28419925311901"><ele>161.8</ele><time>2026-04-25T08:40:11.84Z</time></trkpt><trkpt lat="46.00676180222986" lon="12.284346660086673"><ele>161.6</ele><time>2026-04-25T08:40:12.84Z</time></trkpt><trkpt lat="46.006722554906545" lon="12.284497353577242"><ele>161.4</ele><time>2026-04-25T08:40:13.84Z</time></trkpt><trkpt lat="46.00668126278834" lon="12.284637152285999"><ele>161.20000000000002</ele><time>2026-04-25T08:40:14.84Z</time></trkpt><trkpt lat="46.00664252005923" lon="12.284785844734534"><ele>161.0</ele><time>2026-04-25T08:40:15.84Z</time></trkpt><trkpt lat="46.00660835567765" lon="12.284923016768985"><ele>160.16666666666666</ele><time>2026-04-25T08:40:16.84Z</time></trkpt><trkpt lat="46.00657670138769" lon="12.28505681285476"><ele>159.33333333333331</ele><time>2026-04-25T08:40:17.84Z</time></trkpt><trkpt lat="46.00653747951239" lon="12.285179549617986"><ele>158.5</ele><time>2026-04-25T08:40:18.84Z</time></trkpt><trkpt lat="46.00649488605103" lon="12.285286716114122"><ele>157.66666666666666</ele><time>2026-04-25T08:40:19.84Z</time></trkpt><trkpt lat="46.00647166924841" lon="12.285399946911893"><ele>156.83333333333334</ele><time>2026-04-25T08:40:20.84Z</time></trkpt><trkpt lat="46.00644366586719" lon="12.285516416369498"><ele>156.0</ele><time>2026-04-25T08:40:21.84Z</time></trkpt><trkpt lat="46.006412173889686" lon="12.285613249374348"><ele>156.0</ele><time>2026-04-25T08:40:22.84Z</time></trkpt><trkpt lat="46.00633638477055" lon="12.285749556972506"><ele>156.0</ele><time>2026-04-25T08:40:24.84Z</time></trkpt><trkpt lat="46.00627423029022" lon="12.285788122868624"><ele>156.0</ele><time>2026-04-25T08:40:25.84Z</time></trkpt><trkpt lat="46.006207116452494" lon="12.285825540159513"><ele>156.0</ele><time>2026-04-25T08:40:26.84Z</time></trkpt><trkpt lat="46.00611986539075" lon="12.28583659623658"><ele>156.0</ele><time>2026-04-25T08:40:27.84Z</time></trkpt><trkpt lat="46.00604205361903" lon="12.28584548517473"><ele>156.0</ele><time>2026-04-25T08:40:28.84Z</time></trkpt><trkpt lat="46.00597778395147" lon="12.28587188378663"><ele>156.0</ele><time>2026-04-25T08:40:29.84Z</time></trkpt><trkpt lat="46.0059119400596" lon="12.28590374972497"><ele>156.0</ele><time>2026-04-25T08:40:30.84Z</time></trkpt><trkpt lat="46.005835038128055" lon="12.285930768049116"><ele>156.0</ele><time>2026-04-25T08:40:31.84Z</time></trkpt><trkpt lat="46.005758709138625" lon="12.285957436611756"><ele>156.0</ele><time>2026-04-25T08:40:32.84Z</time></trkpt><trkpt lat="46.00569063317029" lon="12.285986717363354"><ele>156.0</ele><time>2026-04-25T08:40:33.84Z</time></trkpt><trkpt lat="46.00561884870724" lon="12.28600266605672"><ele>156.0</ele><time>2026-04-25T08:40:34.84Z</time></trkpt><trkpt lat="46.00555255673402" lon="12.28602268962327"><ele>156.0</ele><time>2026-04-25T08:40:35.84Z</time></trkpt><trkpt lat="46.00546811179581" lon="12.286038516982337"><ele>156.0</ele><time>2026-04-25T08:40:36.84Z</time></trkpt><trkpt lat="46.005365524619044" lon="12.286036240854013"><ele>156.0</ele><time>2026-04-25T08:40:37.84Z</time></trkpt><trkpt lat="46.00526428697186" lon="12.286035332622658"><ele>156.0</ele><time>2026-04-25T08:40:38.84Z</time></trkpt><trkpt lat="46.00516776912938" lon="12.286026062825746"><ele>156.0</ele><time>2026-04-25T08:40:39.84Z</time></trkpt><trkpt lat="46.005085410768345" lon="12.28602854831053"><ele>156.0</ele><time>2026-04-25T08:40:40.84Z</time></trkpt><trkpt lat="46.00500077170576" lon="12.286017030443736"><ele>156.16666666666666</ele><time>2026-04-25T08:40:41.84Z</time></trkpt><trkpt lat="46.00491660899799" lon="12.28601380672447"><ele>156.33333333333334</ele><time>2026-04-25T08:40:42.84Z</time></trkpt><trkpt lat="46.00484195284222" lon="12.286006828567794"><ele>156.5</ele><time>2026-04-25T08:40:43.84Z</time></trkpt><trkpt lat="46.004774994710054" lon="12.285999928033583"><ele>156.66666666666669</ele><time>2026-04-25T08:40:44.84Z</time></trkpt><trkpt lat="46.004697698787446" lon="12.285992777855617"><ele>156.83333333333334</ele><time>2026-04-25T08:40:45.84Z</time></trkpt><trkpt lat="46.00461891143733" lon="12.28598593850625"><ele>157.0</ele><time>2026-04-25T08:40:46.84Z</time></trkpt><trkpt lat="46.00453422785907" lon="12.285971372295467"><ele>157.0</ele><time>2026-04-25T08:40:47.84Z</time></trkpt><trkpt lat="46.00444040365878" lon="12.285970215112695"><ele>157.0</ele><time>2026-04-25T08:40:48.84Z</time></trkpt><trkpt lat="46.00434656948856" lon="12.285972457920675"><ele>157.0</ele><time>2026-04-25T08:40:49.84Z</time></trkpt><trkpt lat="46.004262485161874" lon="12.285978508422678"><ele>157.0</ele><time>2026-04-25T08:40:50.84Z</time></trkpt><trkpt lat="46.004169429122534" lon="12.285989120733081"><ele>157.0</ele><time>2026-04-25T08:40:51.84Z</time></trkpt><trkpt lat="46.00409073816622" lon="12.286006662981364"><ele>157.0</ele><time>2026-04-25T08:40:52.84Z</time></trkpt><trkpt lat="46.00399938314197" lon="12.286026315056572"><ele>156.83333333333334</ele><time>2026-04-25T08:40:53.84Z</time></trkpt><trkpt lat="46.0039133530013" lon="12.286056372691874"><ele>156.66666666666669</ele><time>2026-04-25T08:40:54.84Z</time></trkpt><trkpt lat="46.00382337747813" lon="12.286088988545364"><ele>156.5</ele><time>2026-04-25T08:40:55.84Z</time></trkpt><trkpt lat="46.00374066054441" lon="12.286129491018945"><ele>156.33333333333334</ele><time>2026-04-25T08:40:56.84Z</time></trkpt><trkpt lat="46.00366215246806" lon="12.286163572849821"><ele>156.16666666666666</ele><time>2026-04-25T08:40:57.84Z</time></trkpt><trkpt lat="46.00357694627719" lon="12.286213654954345"><ele>156.0</ele><time>2026-04-25T08:40:58.84Z</time></trkpt><trkpt lat="46.00349108249676" lon="12.286263913273103"><ele>156.0</ele><time>2026-04-25T08:40:59.84Z</time></trkpt><trkpt lat="46.003400181916106" lon="12.286296223699232"><ele>156.0</ele><time>2026-04-25T08:41:00.84Z</time></trkpt><trkpt lat="46.00331572367141" lon="12.28632887601837"><ele>156.0</ele><time>2026-04-25T08:41:01.84Z</time></trkpt><trkpt lat="46.003244904586616" lon="12.286363451172106"><ele>156.0</ele><time>2026-04-25T08:41:02.84Z</time></trkpt><trkpt lat="46.00316387460321" lon="12.286428635354655"><ele>156.0</ele><time>2026-04-25T08:41:03.84Z</time></trkpt><trkpt lat="46.00308238256631" lon="12.28649604347448"><ele>156.0</ele><time>2026-04-25T08:41:04.84Z</time></trkpt><trkpt lat="46.00302163224151" lon="12.286575540072779"><ele>155.66666666666666</ele><time>2026-04-25T08:41:05.84Z</time></trkpt><trkpt lat="46.00295559501539" lon="12.286663243616276"><ele>155.33333333333334</ele><time>2026-04-25T08:41:06.839Z</time></trkpt><trkpt lat="46.002895629881664" lon="12.286763038039672"><ele>155.0</ele><time>2026-04-25T08:41:07.839Z</time></trkpt><trkpt lat="46.002840107446936" lon="12.28685608806822"><ele>154.66666666666669</ele><time>2026-04-25T08:41:08.839Z</time></trkpt><trkpt lat="46.00279157902663" lon="12.286929969843653"><ele>154.33333333333334</ele><time>2026-04-25T08:41:09.839Z</time></trkpt><trkpt lat="46.00273541121278" lon="12.287029853626764"><ele>154.0</ele><time>2026-04-25T08:41:10.839Z</time></trkpt><trkpt lat="46.00266957441151" lon="12.287128661175588"><ele>154.0</ele><time>2026-04-25T08:41:11.839Z</time></trkpt><trkpt lat="46.00261419193713" lon="12.287220708459012"><ele>154.0</ele><time>2026-04-25T08:41:12.839Z</time></trkpt><trkpt lat="46.00256484245149" lon="12.287310021023089"><ele>154.0</ele><time>2026-04-25T08:41:13.839Z</time></trkpt><trkpt lat="46.00250888732548" lon="12.287395521636805"><ele>154.0</ele><time>2026-04-25T08:41:14.839Z</time></trkpt><trkpt lat="46.00245500059085" lon="12.28748541739965"><ele>154.0</ele><time>2026-04-25T08:41:15.839Z</time></trkpt><trkpt lat="46.00240045031554" lon="12.287574909585892"><ele>154.0</ele><time>2026-04-25T08:41:16.839Z</time></trkpt><trkpt lat="46.0023516882015" lon="12.287676015290478"><ele>154.0</ele><time>2026-04-25T08:41:17.839Z</time></trkpt><trkpt lat="46.00229850315838" lon="12.287782633721726"><ele>154.0</ele><time>2026-04-25T08:41:18.839Z</time></trkpt><trkpt lat="46.0022456159377" lon="12.287884158793394"><ele>154.0</ele><time>2026-04-25T08:41:19.839Z</time></trkpt><trkpt lat="46.00219769203503" lon="12.287975340100026"><ele>154.0</ele><time>2026-04-25T08:41:20.839Z</time></trkpt><trkpt lat="46.00213622058706" lon="12.288060286633222"><ele>154.0</ele><time>2026-04-25T08:41:21.839Z</time></trkpt><trkpt lat="46.00209131978071" lon="12.288160090726334"><ele>154.0</ele><time>2026-04-25T08:41:22.839Z</time></trkpt><trkpt lat="46.002049210744424" lon="12.288249801003875"><ele>154.0</ele><time>2026-04-25T08:41:23.839Z</time></trkpt><trkpt lat="46.0020138323273" lon="12.288338329571085"><ele>154.0</ele><time>2026-04-25T08:41:24.839Z</time></trkpt><trkpt lat="46.00196335396191" lon="12.288431627895216"><ele>154.0</ele><time>2026-04-25T08:41:25.839Z</time></trkpt><trkpt lat="46.001906036930976" lon="12.288518120846803"><ele>154.0</ele><time>2026-04-25T08:41:26.839Z</time></trkpt><trkpt lat="46.0018478260217" lon="12.288600278266536"><ele>154.0</ele><time>2026-04-25T08:41:27.839Z</time></trkpt><trkpt lat="46.001794870270274" lon="12.288669964544518"><ele>154.0</ele><time>2026-04-25T08:41:28.839Z</time></trkpt><trkpt lat="46.001743275547206" lon="12.288766480130555"><ele>154.0</ele><time>2026-04-25T08:41:29.839Z</time></trkpt><trkpt lat="46.00169238939733" lon="12.2888664189514"><ele>154.0</ele><time>2026-04-25T08:41:30.839Z</time></trkpt><trkpt lat="46.001636609342086" lon="12.28895323333596"><ele>154.0</ele><time>2026-04-25T08:41:31.839Z</time></trkpt><trkpt lat="46.00158643117103" lon="12.289031111077804"><ele>154.0</ele><time>2026-04-25T08:41:32.839Z</time></trkpt><trkpt lat="46.00154232964711" lon="12.289115779981206"><ele>154.0</ele><time>2026-04-25T08:41:33.839Z</time></trkpt><trkpt lat="46.001492082851485" lon="12.289198095366757"><ele>154.0</ele><time>2026-04-25T08:41:34.839Z</time></trkpt><trkpt lat="46.001431895079435" lon="12.289283012998693"><ele>154.4</ele><time>2026-04-25T08:41:35.839Z</time></trkpt><trkpt lat="46.00135363572482" lon="12.28934448234166"><ele>154.8</ele><time>2026-04-25T08:41:36.839Z</time></trkpt><trkpt lat="46.0012740139946" lon="12.289408121903474"><ele>155.2</ele><time>2026-04-25T08:41:37.839Z</time></trkpt><trkpt lat="46.00118106551043" lon="12.289434768560604"><ele>155.6</ele><time>2026-04-25T08:41:38.839Z</time></trkpt><trkpt lat="46.001065481874306" lon="12.289463318898855"><ele>156.0</ele><time>2026-04-25T08:41:39.839Z</time></trkpt><trkpt lat="46.00095537707872" lon="12.289460112832867"><ele>156.0</ele><time>2026-04-25T08:41:40.839Z</time></trkpt><trkpt lat="46.000866776920056" lon="12.289481962179405"><ele>156.0</ele><time>2026-04-25T08:41:41.839Z</time></trkpt><trkpt lat="46.00080661320135" lon="12.289545524573144"><ele>156.0</ele><time>2026-04-25T08:41:42.839Z</time></trkpt><trkpt lat="46.00073951006351" lon="12.289590370930547"><ele>156.0</ele><time>2026-04-25T08:41:43.839Z</time></trkpt><trkpt lat="46.00067079019953" lon="12.289656600280411"><ele>156.0</ele><time>2026-04-25T08:41:44.839Z</time></trkpt><trkpt lat="46.00061119153272" lon="12.28970392736254"><ele>156.0</ele><time>2026-04-25T08:41:45.839Z</time></trkpt><trkpt lat="46.000550893465686" lon="12.289771560271811"><ele>154.33333333333334</ele><time>2026-04-25T08:41:47.839Z</time></trkpt><trkpt lat="46.000489712668525" lon="12.289839704838846"><ele>152.66666666666666</ele><time>2026-04-25T08:41:52.839Z</time></trkpt><trkpt lat="46.0003997960312" lon="12.289839329532334"><ele>151.0</ele><time>2026-04-25T08:42:52.84Z</time></trkpt><trkpt lat="46.00033525937334" lon="12.28986887340475"><ele>149.33333333333331</ele><time>2026-04-25T08:42:54.84Z</time></trkpt><trkpt lat="46.0002505085744" lon="12.289945438893573"><ele>147.66666666666666</ele><time>2026-04-25T08:42:56.839Z</time></trkpt><trkpt lat="46.00017112457728" lon="12.290014148567325"><ele>146.0</ele><time>2026-04-25T08:42:58.839Z</time></trkpt><trkpt lat="46.00005221830194" lon="12.290035067740266"><ele>146.0</ele><time>2026-04-25T08:43:00.839Z</time></trkpt><trkpt lat="45.999984170578955" lon="12.290041226250151"><ele>146.0</ele><time>2026-04-25T08:43:01.839Z</time></trkpt><trkpt lat="45.99986499236549" lon="12.289993978501755"><ele>146.0</ele><time>2026-04-25T08:43:03.839Z</time></trkpt><trkpt lat="45.999750608984584" lon="12.289940208226497"><ele>146.0</ele><time>2026-04-25T08:43:05.839Z</time></trkpt><trkpt lat="45.99968179454978" lon="12.2899392001025"><ele>146.0</ele><time>2026-04-25T08:43:07.839Z</time></trkpt><trkpt lat="45.99965369213205" lon="12.290040227986873"><ele>146.0</ele><time>2026-04-25T08:43:18.839Z</time></trkpt><trkpt lat="45.99958153857899" lon="12.290057698461196"><ele>146.0</ele><time>2026-04-25T08:43:25.839Z</time></trkpt><trkpt lat="45.99954559152627" lon="12.290133456323172"><ele>146.0</ele><time>2026-04-25T08:43:26.839Z</time></trkpt><trkpt lat="45.99952210815328" lon="12.290319422962307"><ele>146.0</ele><time>2026-04-25T08:43:28.839Z</time></trkpt><trkpt lat="45.99952127565303" lon="12.290449408399011"><ele>146.0</ele><time>2026-04-25T08:43:30.839Z</time></trkpt><trkpt lat="45.99954844834792" lon="12.290570733622765"><ele>146.0</ele><time>2026-04-25T08:43:32.839Z</time></trkpt><trkpt lat="45.999580393230744" lon="12.290655986551876"><ele>147.0</ele><time>2026-04-25T08:43:33.839Z</time></trkpt><trkpt lat="45.99961224156644" lon="12.290743389112134"><ele>148.0</ele><time>2026-04-25T08:43:34.839Z</time></trkpt><trkpt lat="45.99964161599289" lon="12.29084355861894"><ele>149.0</ele><time>2026-04-25T08:43:35.839Z</time></trkpt><trkpt lat="45.99966625337985" lon="12.290940469425118"><ele>150.0</ele><time>2026-04-25T08:43:36.839Z</time></trkpt><trkpt lat="45.999761375204066" lon="12.291050204972398"><ele>151.0</ele><time>2026-04-25T08:43:38.839Z</time></trkpt><trkpt lat="45.99985216313721" lon="12.291133397536099"><ele>152.0</ele><time>2026-04-25T08:43:40.839Z</time></trkpt><trkpt lat="45.999865842997536" lon="12.291322439942796"><ele>152.16666666666666</ele><time>2026-04-25T08:43:42.839Z</time></trkpt><trkpt lat="45.99987344781411" lon="12.291435996813027"><ele>152.33333333333331</ele><time>2026-04-25T08:43:43.839Z</time></trkpt><trkpt lat="45.99985195425985" lon="12.291568586087335"><ele>152.5</ele><time>2026-04-25T08:43:44.839Z</time></trkpt><trkpt lat="45.999834567579335" lon="12.291657360420821"><ele>152.66666666666666</ele><time>2026-04-25T08:43:45.839Z</time></trkpt><trkpt lat="45.999799585163096" lon="12.291838168931918"><ele>152.83333333333334</ele><time>2026-04-25T08:43:47.839Z</time></trkpt><trkpt lat="45.99977153167305" lon="12.291935549449958"><ele>153.0</ele><time>2026-04-25T08:43:48.839Z</time></trkpt><trkpt lat="45.99973525484424" lon="12.292024973332548"><ele>153.0</ele><time>2026-04-25T08:43:49.839Z</time></trkpt><trkpt lat="45.99968189745975" lon="12.292107386871736"><ele>153.0</ele><time>2026-04-25T08:43:50.839Z</time></trkpt><trkpt lat="45.9996465084238" lon="12.292189416301346"><ele>153.0</ele><time>2026-04-25T08:43:51.839Z</time></trkpt><trkpt lat="45.9996151731821" lon="12.292275373054586"><ele>153.0</ele><time>2026-04-25T08:43:52.839Z</time></trkpt><trkpt lat="45.9995203510315" lon="12.292404763724049"><ele>153.0</ele><time>2026-04-25T08:43:54.839Z</time></trkpt><trkpt lat="45.99948374911593" lon="12.292478922876642"><ele>153.0</ele><time>2026-04-25T08:43:55.839Z</time></trkpt><trkpt lat="45.999449809278914" lon="12.292559610951473"><ele>153.0</ele><time>2026-04-25T08:43:56.839Z</time></trkpt><trkpt lat="45.99943443032113" lon="12.292655385381382"><ele>153.0</ele><time>2026-04-25T08:43:57.839Z</time></trkpt><trkpt lat="45.999342699910564" lon="12.292773201746288"><ele>153.0</ele><time>2026-04-25T08:43:59.839Z</time></trkpt><trkpt lat="45.9992926276997" lon="12.292835068107056"><ele>153.0</ele><time>2026-04-25T08:44:00.839Z</time></trkpt><trkpt lat="45.99925971725285" lon="12.29291242059416"><ele>153.0</ele><time>2026-04-25T08:44:01.839Z</time></trkpt><trkpt lat="45.999199628069384" lon="12.293025466492994"><ele>153.0</ele><time>2026-04-25T08:44:03.839Z</time></trkpt><trkpt lat="45.99914178092147" lon="12.29315129403896"><ele>152.5</ele><time>2026-04-25T08:44:05.839Z</time></trkpt><trkpt lat="45.999097162709226" lon="12.293275254555365"><ele>152.0</ele><time>2026-04-25T08:44:07.839Z</time></trkpt><trkpt lat="45.999063740410826" lon="12.293404115288823"><ele>151.5</ele><time>2026-04-25T08:44:09.84Z</time></trkpt><trkpt lat="45.99903172211614" lon="12.293522572064363"><ele>151.0</ele><time>2026-04-25T08:44:11.839Z</time></trkpt><trkpt lat="45.99901263881343" lon="12.2936403312529"><ele>150.5</ele><time>2026-04-25T08:44:13.84Z</time></trkpt><trkpt lat="45.99897320189366" lon="12.29374208060145"><ele>150.0</ele><time>2026-04-25T08:44:17.836Z</time></trkpt><trkpt lat="45.9989383340471" lon="12.293911755930194"><ele>150.4</ele><time>2026-04-25T08:44:19.832Z</time></trkpt><trkpt lat="45.998864614720055" lon="12.294036432112732"><ele>150.8</ele><time>2026-04-25T08:44:21.83Z</time></trkpt><trkpt lat="45.99881435237943" lon="12.29415725628667"><ele>151.2</ele><time>2026-04-25T08:44:23.828Z</time></trkpt><trkpt lat="45.99874117845006" lon="12.294274652098341"><ele>151.6</ele><time>2026-04-25T08:44:25.827Z</time></trkpt><trkpt lat="45.998656776301075" lon="12.294397513289262"><ele>152.0</ele><time>2026-04-25T08:44:27.825Z</time></trkpt><trkpt lat="45.99860667179733" lon="12.2944618370278"><ele>152.0</ele><time>2026-04-25T08:44:29.824Z</time></trkpt><trkpt lat="45.998511221008094" lon="12.294437495001656"><ele>152.0</ele><time>2026-04-25T08:44:31.822Z</time></trkpt><trkpt lat="45.99847169993755" lon="12.294343653228596"><ele>152.0</ele><time>2026-04-25T08:44:32.822Z</time></trkpt><trkpt lat="45.99843803767199" lon="12.294252049534787"><ele>152.0</ele><time>2026-04-25T08:44:33.821Z</time></trkpt><trkpt lat="45.99836124605805" lon="12.294091762127941"><ele>152.0</ele><time>2026-04-25T08:44:35.82Z</time></trkpt><trkpt lat="45.99830243069442" lon="12.29400781503255"><ele>150.66666666666666</ele><time>2026-04-25T08:44:36.82Z</time></trkpt><trkpt lat="45.998252395650304" lon="12.293935130843332"><ele>149.33333333333331</ele><time>2026-04-25T08:44:37.82Z</time></trkpt><trkpt lat="45.99819141340201" lon="12.293843039747845"><ele>148.0</ele><time>2026-04-25T08:44:38.819Z</time></trkpt><trkpt lat="45.99814459763664" lon="12.293773773368628"><ele>146.66666666666666</ele><time>2026-04-25T08:44:39.819Z</time></trkpt><trkpt lat="45.998083932466244" lon="12.293704828519836"><ele>145.33333333333334</ele><time>2026-04-25T08:44:40.819Z</time></trkpt><trkpt lat="45.998022340598624" lon="12.293627218793537"><ele>144.0</ele><time>2026-04-25T08:44:41.818Z</time></trkpt><trkpt lat="45.99796669089926" lon="12.293522234713194"><ele>144.0</ele><time>2026-04-25T08:44:42.818Z</time></trkpt><trkpt lat="45.99790328210668" lon="12.293430470766257"><ele>144.0</ele><time>2026-04-25T08:44:43.818Z</time></trkpt><trkpt lat="45.997836740113485" lon="12.293348463780013"><ele>144.0</ele><time>2026-04-25T08:44:44.817Z</time></trkpt><trkpt lat="45.9977708316142" lon="12.2932642426476"><ele>144.0</ele><time>2026-04-25T08:44:45.817Z</time></trkpt><trkpt lat="45.9977035805988" lon="12.29315930437809"><ele>144.0</ele><time>2026-04-25T08:44:46.817Z</time></trkpt><trkpt lat="45.99764512710626" lon="12.293060042586662"><ele>143.5</ele><time>2026-04-25T08:44:47.817Z</time></trkpt><trkpt lat="45.997590007217894" lon="12.292949012979424"><ele>143.0</ele><time>2026-04-25T08:44:48.816Z</time></trkpt><trkpt lat="45.997545217396244" lon="12.29285363810331"><ele>142.5</ele><time>2026-04-25T08:44:49.816Z</time></trkpt><trkpt lat="45.99749440425027" lon="12.292743948723558"><ele>142.0</ele><time>2026-04-25T08:44:50.816Z</time></trkpt><trkpt lat="45.99743589591618" lon="12.292683050532899"><ele>141.5</ele><time>2026-04-25T08:44:51.816Z</time></trkpt><trkpt lat="45.99736302016983" lon="12.292599288994804"><ele>141.0</ele><time>2026-04-25T08:44:53.816Z</time></trkpt><trkpt lat="45.997267352457506" lon="12.29267727545495"><ele>140.66666666666666</ele><time>2026-04-25T08:44:56.815Z</time></trkpt><trkpt lat="45.997153478985304" lon="12.292761065129232"><ele>140.33333333333334</ele><time>2026-04-25T08:44:58.815Z</time></trkpt><trkpt lat="45.997097413943806" lon="12.29283570660378"><ele>140.0</ele><time>2026-04-25T08:44:59.815Z</time></trkpt><trkpt lat="45.9970362604457" lon="12.292916268426064"><ele>139.66666666666669</ele><time>2026-04-25T08:45:00.815Z</time></trkpt><trkpt lat="45.996991839041144" lon="12.292995397467495"><ele>139.33333333333334</ele><time>2026-04-25T08:45:01.815Z</time></trkpt><trkpt lat="45.99693048342581" lon="12.293074998819959"><ele>139.0</ele><time>2026-04-25T08:45:02.815Z</time></trkpt><trkpt lat="45.99687257932424" lon="12.293153032224186"><ele>139.0</ele><time>2026-04-25T08:45:03.815Z</time></trkpt><trkpt lat="45.99680217793576" lon="12.293223501523327"><ele>139.0</ele><time>2026-04-25T08:45:04.814Z</time></trkpt><trkpt lat="45.99673925222084" lon="12.293297142103464"><ele>139.0</ele><time>2026-04-25T08:45:05.814Z</time></trkpt><trkpt lat="45.99667222281031" lon="12.29337361553555"><ele>139.0</ele><time>2026-04-25T08:45:06.814Z</time></trkpt><trkpt lat="45.99659990582553" lon="12.293451564356703"><ele>139.0</ele><time>2026-04-25T08:45:07.814Z</time></trkpt><trkpt lat="45.99652840562247" lon="12.29351888474095"><ele>139.0</ele><time>2026-04-25T08:45:08.814Z</time></trkpt><trkpt lat="45.99646087643794" lon="12.293588216017625"><ele>138.83333333333334</ele><time>2026-04-25T08:45:09.814Z</time></trkpt><trkpt lat="45.996384405523834" lon="12.293661082285235"><ele>138.66666666666669</ele><time>2026-04-25T08:45:10.814Z</time></trkpt><trkpt lat="45.996309858633985" lon="12.29372657025068"><ele>138.5</ele><time>2026-04-25T08:45:11.814Z</time></trkpt><trkpt lat="45.996233788864046" lon="12.293793924961173"><ele>138.33333333333334</ele><time>2026-04-25T08:45:12.814Z</time></trkpt><trkpt lat="45.99616224564202" lon="12.293857868009322"><ele>138.16666666666666</ele><time>2026-04-25T08:45:13.814Z</time></trkpt><trkpt lat="45.99608811676505" lon="12.293916451208009"><ele>138.0</ele><time>2026-04-25T08:45:14.814Z</time></trkpt><trkpt lat="45.99600840063826" lon="12.293985644989595"><ele>138.33333333333334</ele><time>2026-04-25T08:45:15.814Z</time></trkpt><trkpt lat="45.995935983668396" lon="12.294053069095037"><ele>138.66666666666666</ele><time>2026-04-25T08:45:16.814Z</time></trkpt><trkpt lat="45.99587111337941" lon="12.294107130481816"><ele>139.0</ele><time>2026-04-25T08:45:17.814Z</time></trkpt><trkpt lat="45.995798747421134" lon="12.294182412088492"><ele>139.33333333333331</ele><time>2026-04-25T08:45:18.814Z</time></trkpt><trkpt lat="45.995724556958706" lon="12.294264516905493"><ele>139.66666666666666</ele><time>2026-04-25T08:45:19.814Z</time></trkpt><trkpt lat="45.99565006119559" lon="12.294332237799184"><ele>140.0</ele><time>2026-04-25T08:45:20.814Z</time></trkpt><trkpt lat="45.99558326719886" lon="12.294396429645005"><ele>140.16666666666666</ele><time>2026-04-25T08:45:21.814Z</time></trkpt><trkpt lat="45.99552308288788" lon="12.294457463759047"><ele>140.33333333333331</ele><time>2026-04-25T08:45:22.814Z</time></trkpt><trkpt lat="45.99545061875508" lon="12.294537994491739"><ele>140.5</ele><time>2026-04-25T08:45:23.813Z</time></trkpt><trkpt lat="45.995382303015106" lon="12.294612347952645"><ele>140.66666666666666</ele><time>2026-04-25T08:45:24.813Z</time></trkpt><trkpt lat="45.99529036483029" lon="12.294686614759616"><ele>140.83333333333334</ele><time>2026-04-25T08:45:25.813Z</time></trkpt><trkpt lat="45.99522610754277" lon="12.294754380563168"><ele>141.0</ele><time>2026-04-25T08:45:26.813Z</time></trkpt><trkpt lat="45.99514709865979" lon="12.29481734316871"><ele>140.6</ele><time>2026-04-25T08:45:27.813Z</time></trkpt><trkpt lat="45.99507174438441" lon="12.294872826045205"><ele>140.2</ele><time>2026-04-25T08:45:28.813Z</time></trkpt><trkpt lat="45.995004470554555" lon="12.294934666658772"><ele>139.8</ele><time>2026-04-25T08:45:29.813Z</time></trkpt><trkpt lat="45.99491156019839" lon="12.294987343701315"><ele>139.4</ele><time>2026-04-25T08:45:31.813Z</time></trkpt><trkpt lat="45.99482371470198" lon="12.295062826949463"><ele>139.0</ele><time>2026-04-25T08:45:33.813Z</time></trkpt><trkpt lat="45.99474857194908" lon="12.295118486428937"><ele>139.0</ele><time>2026-04-25T08:45:36.813Z</time></trkpt><trkpt lat="45.99466883829099" lon="12.295200359392485"><ele>139.0</ele><time>2026-04-25T08:45:44.813Z</time></trkpt><trkpt lat="45.994601649613486" lon="12.295279585271835"><ele>139.0</ele><time>2026-04-25T08:45:46.813Z</time></trkpt><trkpt lat="45.994500572852964" lon="12.29537841926358"><ele>139.0</ele><time>2026-04-25T08:45:48.813Z</time></trkpt><trkpt lat="45.99438526139513" lon="12.29546895725227"><ele>139.0</ele><time>2026-04-25T08:45:50.813Z</time></trkpt><trkpt lat="45.99432497357671" lon="12.29552310274221"><ele>139.0</ele><time>2026-04-25T08:45:51.813Z</time></trkpt><trkpt lat="45.99426523923883" lon="12.295576051403033"><ele>139.0</ele><time>2026-04-25T08:45:52.813Z</time></trkpt><trkpt lat="45.99420187961495" lon="12.29562730169953"><ele>139.0</ele><time>2026-04-25T08:45:53.813Z</time></trkpt><trkpt lat="45.9941341347028" lon="12.295679850926314"><ele>139.0</ele><time>2026-04-25T08:45:54.813Z</time></trkpt><trkpt lat="45.994071495579306" lon="12.295734223196051"><ele>139.0</ele><time>2026-04-25T08:45:55.813Z</time></trkpt><trkpt lat="45.99401355720985" lon="12.295796045517156"><ele>139.0</ele><time>2026-04-25T08:45:56.813Z</time></trkpt><trkpt lat="45.99394304634783" lon="12.295854058913196"><ele>139.0</ele><time>2026-04-25T08:45:57.813Z</time></trkpt><trkpt lat="45.99386723718008" lon="12.295910978092742"><ele>138.5</ele><time>2026-04-25T08:45:58.813Z</time></trkpt><trkpt lat="45.99378810217944" lon="12.295970256760699"><ele>138.0</ele><time>2026-04-25T08:45:59.813Z</time></trkpt><trkpt lat="45.9937202147271" lon="12.296035294592368"><ele>137.5</ele><time>2026-04-25T08:46:00.813Z</time></trkpt><trkpt lat="45.99365718273829" lon="12.296104467036207"><ele>137.0</ele><time>2026-04-25T08:46:01.813Z</time></trkpt><trkpt lat="45.99358934887489" lon="12.296160469047331"><ele>136.5</ele><time>2026-04-25T08:46:02.813Z</time></trkpt><trkpt lat="45.9935138179853" lon="12.29622239944009"><ele>136.0</ele><time>2026-04-25T08:46:03.813Z</time></trkpt><trkpt lat="45.99344608818081" lon="12.296284894013983"><ele>135.99999999999997</ele><time>2026-04-25T08:46:04.813Z</time></trkpt><trkpt lat="45.993377495203646" lon="12.29635573270664"><ele>136.0</ele><time>2026-04-25T08:46:05.813Z</time></trkpt><trkpt lat="45.99332160274868" lon="12.296413416595144"><ele>136.0</ele><time>2026-04-25T08:46:06.813Z</time></trkpt><trkpt lat="45.993265157581035" lon="12.296465835403945"><ele>136.0</ele><time>2026-04-25T08:46:07.813Z</time></trkpt><trkpt lat="45.99320121360196" lon="12.296521408429458"><ele>136.0</ele><time>2026-04-25T08:46:08.813Z</time></trkpt><trkpt lat="45.99314034759866" lon="12.296578962601851"><ele>135.99999999999997</ele><time>2026-04-25T08:46:09.813Z</time></trkpt><trkpt lat="45.99308083875219" lon="12.296641015167356"><ele>136.0</ele><time>2026-04-25T08:46:10.813Z</time></trkpt><trkpt lat="45.993010029811416" lon="12.296710172933752"><ele>136.0</ele><time>2026-04-25T08:46:11.813Z</time></trkpt><trkpt lat="45.99293400169816" lon="12.296777488219764"><ele>136.0</ele><time>2026-04-25T08:46:12.812Z</time></trkpt><trkpt lat="45.992862035329345" lon="12.296833474322664"><ele>136.0</ele><time>2026-04-25T08:46:13.813Z</time></trkpt><trkpt lat="45.99280727578944" lon="12.296896725655754"><ele>136.0</ele><time>2026-04-25T08:46:14.813Z</time></trkpt><trkpt lat="45.99274173639904" lon="12.296967291056083"><ele>136.0</ele><time>2026-04-25T08:46:15.813Z</time></trkpt><trkpt lat="45.99267203311091" lon="12.297023762337222"><ele>136.0</ele><time>2026-04-25T08:46:16.813Z</time></trkpt><trkpt lat="45.99260630615088" lon="12.297087555482541"><ele>136.0</ele><time>2026-04-25T08:46:17.813Z</time></trkpt><trkpt lat="45.99251538911905" lon="12.297164617673298"><ele>136.0</ele><time>2026-04-25T08:46:18.813Z</time></trkpt><trkpt lat="45.99244369677802" lon="12.297232693834433"><ele>136.0</ele><time>2026-04-25T08:46:19.813Z</time></trkpt><trkpt lat="45.992383998684474" lon="12.29729017670426"><ele>136.0</ele><time>2026-04-25T08:46:20.813Z</time></trkpt><trkpt lat="45.992309616285304" lon="12.297359508387675"><ele>136.0</ele><time>2026-04-25T08:46:21.813Z</time></trkpt><trkpt lat="45.99222416751837" lon="12.297423150816106"><ele>136.0</ele><time>2026-04-25T08:46:22.814Z</time></trkpt><trkpt lat="45.99214867476728" lon="12.297489359105983"><ele>136.16666666666669</ele><time>2026-04-25T08:46:23.813Z</time></trkpt><trkpt lat="45.992083000236384" lon="12.297547746203477"><ele>136.33333333333334</ele><time>2026-04-25T08:46:24.813Z</time></trkpt><trkpt lat="45.99201552515217" lon="12.297609688331153"><ele>136.5</ele><time>2026-04-25T08:46:25.813Z</time></trkpt><trkpt lat="45.991955459260446" lon="12.297643757047904"><ele>136.66666666666666</ele><time>2026-04-25T08:46:26.813Z</time></trkpt><trkpt lat="45.991887173059965" lon="12.29768323758781"><ele>136.83333333333331</ele><time>2026-04-25T08:46:27.813Z</time></trkpt><trkpt lat="45.99180813902963" lon="12.297734049592831"><ele>137.0</ele><time>2026-04-25T08:46:28.813Z</time></trkpt><trkpt lat="45.9917457346783" lon="12.29779317178227"><ele>137.16666666666666</ele><time>2026-04-25T08:46:29.813Z</time></trkpt><trkpt lat="45.99165549296724" lon="12.297830469701422"><ele>137.33333333333331</ele><time>2026-04-25T08:46:30.813Z</time></trkpt><trkpt lat="45.99157240248009" lon="12.297867684800487"><ele>137.5</ele><time>2026-04-25T08:46:31.813Z</time></trkpt><trkpt lat="45.99148311880418" lon="12.297913001900467"><ele>137.66666666666666</ele><time>2026-04-25T08:46:32.813Z</time></trkpt><trkpt lat="45.99140418497947" lon="12.297956365429155"><ele>137.83333333333334</ele><time>2026-04-25T08:46:33.813Z</time></trkpt><trkpt lat="45.99133077561925" lon="12.297990339800668"><ele>138.0</ele><time>2026-04-25T08:46:34.813Z</time></trkpt><trkpt lat="45.99126157368993" lon="12.29802475434908"><ele>138.0</ele><time>2026-04-25T08:46:35.813Z</time></trkpt><trkpt lat="45.991180560942084" lon="12.298056113732958"><ele>138.0</ele><time>2026-04-25T08:46:36.813Z</time></trkpt><trkpt lat="45.99110035620971" lon="12.298092888926437"><ele>138.0</ele><time>2026-04-25T08:46:37.813Z</time></trkpt><trkpt lat="45.991018969087705" lon="12.298120435876095"><ele>138.0</ele><time>2026-04-25T08:46:38.813Z</time></trkpt><trkpt lat="45.990950319557825" lon="12.298150239394095"><ele>138.0</ele><time>2026-04-25T08:46:39.813Z</time></trkpt><trkpt lat="45.990887033913744" lon="12.298181267732978"><ele>138.0</ele><time>2026-04-25T08:46:40.813Z</time></trkpt><trkpt lat="45.990808432916396" lon="12.298221290066266"><ele>137.33333333333334</ele><time>2026-04-25T08:46:41.813Z</time></trkpt><trkpt lat="45.99072966134855" lon="12.298240616220193"><ele>136.66666666666666</ele><time>2026-04-25T08:46:42.813Z</time></trkpt><trkpt lat="45.99062629344505" lon="12.298263663676458"><ele>136.0</ele><time>2026-04-25T08:46:44.813Z</time></trkpt><trkpt lat="45.99050184627202" lon="12.298300823348178"><ele>135.33333333333331</ele><time>2026-04-25T08:46:46.813Z</time></trkpt><trkpt lat="45.99043996218143" lon="12.298324984972314"><ele>134.66666666666666</ele><time>2026-04-25T08:46:47.813Z</time></trkpt><trkpt lat="45.99037939558648" lon="12.298352235908737"><ele>134.0</ele><time>2026-04-25T08:46:48.813Z</time></trkpt><trkpt lat="45.990264838163" lon="12.298399125513443"><ele>134.0</ele><time>2026-04-25T08:46:50.813Z</time></trkpt><trkpt lat="45.990165379020105" lon="12.298383093843341"><ele>134.0</ele><time>2026-04-25T08:46:53.813Z</time></trkpt><trkpt lat="45.990123696239536" lon="12.298228924344016"><ele>134.0</ele><time>2026-04-25T08:46:55.813Z</time></trkpt><trkpt lat="45.99010516612849" lon="12.298062495711026"><ele>134.0</ele><time>2026-04-25T08:46:57.813Z</time></trkpt><trkpt lat="45.99007486855029" lon="12.297892609635246"><ele>134.0</ele><time>2026-04-25T08:46:59.813Z</time></trkpt><trkpt lat="45.99005724527984" lon="12.297804438268946"><ele>134.0</ele><time>2026-04-25T08:47:00.813Z</time></trkpt><trkpt lat="45.99003231272047" lon="12.297715851222303"><ele>134.0</ele><time>2026-04-25T08:47:01.813Z</time></trkpt><trkpt lat="45.98999139546455" lon="12.297569888902853"><ele>134.0</ele><time>2026-04-25T08:47:03.813Z</time></trkpt><trkpt lat="45.989941091215485" lon="12.297439131087"><ele>134.0</ele><time>2026-04-25T08:47:05.813Z</time></trkpt><trkpt lat="45.98992257712949" lon="12.297337408824905"><ele>134.0</ele><time>2026-04-25T08:47:08.813Z</time></trkpt><trkpt lat="45.989889516318996" lon="12.297220434842776"><ele>134.8</ele><time>2026-04-25T08:47:11.812Z</time></trkpt><trkpt lat="45.989862125863965" lon="12.297081636447938"><ele>135.60000000000002</ele><time>2026-04-25T08:47:13.812Z</time></trkpt><trkpt lat="45.98984288872281" lon="12.296931532047987"><ele>136.4</ele><time>2026-04-25T08:47:15.812Z</time></trkpt><trkpt lat="45.98980940797965" lon="12.296833724598635"><ele>137.20000000000002</ele><time>2026-04-25T08:47:17.812Z</time></trkpt><trkpt lat="45.98979829324382" lon="12.296702519370085"><ele>138.0</ele><time>2026-04-25T08:47:19.812Z</time></trkpt><trkpt lat="45.989769580742816" lon="12.29659981372338"><ele>138.0</ele><time>2026-04-25T08:47:21.812Z</time></trkpt><trkpt lat="45.98973857127781" lon="12.296486274964083"><ele>138.0</ele><time>2026-04-25T08:47:23.812Z</time></trkpt><trkpt lat="45.98965844447178" lon="12.296423712522461"><ele>138.0</ele><time>2026-04-25T08:47:25.812Z</time></trkpt><trkpt lat="45.989567166841525" lon="12.296474147979778"><ele>138.0</ele><time>2026-04-25T08:47:27.812Z</time></trkpt><trkpt lat="45.98948451736115" lon="12.296526743402328"><ele>138.0</ele><time>2026-04-25T08:47:29.812Z</time></trkpt><trkpt lat="45.98935265313165" lon="12.296582605157479"><ele>138.0</ele><time>2026-04-25T08:47:31.812Z</time></trkpt><trkpt lat="45.989282306842696" lon="12.296609151096797"><ele>138.0</ele><time>2026-04-25T08:47:32.812Z</time></trkpt><trkpt lat="45.989157636703396" lon="12.296679838301516"><ele>138.0</ele><time>2026-04-25T08:47:34.812Z</time></trkpt><trkpt lat="45.9890837364709" lon="12.296723780104557"><ele>138.0</ele><time>2026-04-25T08:47:35.812Z</time></trkpt><trkpt lat="45.98901251979885" lon="12.296765860269527"><ele>138.0</ele><time>2026-04-25T08:47:36.812Z</time></trkpt><trkpt lat="45.98893948274783" lon="12.296803670271773"><ele>138.0</ele><time>2026-04-25T08:47:37.812Z</time></trkpt><trkpt lat="45.98886075853269" lon="12.296840771263392"><ele>138.0</ele><time>2026-04-25T08:47:38.812Z</time></trkpt><trkpt lat="45.98878191266517" lon="12.296865151325724"><ele>138.0</ele><time>2026-04-25T08:47:39.812Z</time></trkpt><trkpt lat="45.98871727224648" lon="12.296889554572552"><ele>138.0</ele><time>2026-04-25T08:47:40.812Z</time></trkpt><trkpt lat="45.98865252123148" lon="12.296912519788398"><ele>138.0</ele><time>2026-04-25T08:47:41.812Z</time></trkpt><trkpt lat="45.98852979106202" lon="12.296956854919522"><ele>138.0</ele><time>2026-04-25T08:47:43.812Z</time></trkpt><trkpt lat="45.988412058847686" lon="12.297016206178798"><ele>138.0</ele><time>2026-04-25T08:47:45.812Z</time></trkpt><trkpt lat="45.98835005239147" lon="12.297044697272108"><ele>138.0</ele><time>2026-04-25T08:47:46.812Z</time></trkpt><trkpt lat="45.988292759569035" lon="12.297089880347059"><ele>138.0</ele><time>2026-04-25T08:47:47.812Z</time></trkpt><trkpt lat="45.98817734408991" lon="12.297134471779353"><ele>138.0</ele><time>2026-04-25T08:47:49.812Z</time></trkpt><trkpt lat="45.98810455619477" lon="12.297160954670725"><ele>138.0</ele><time>2026-04-25T08:47:50.812Z</time></trkpt><trkpt lat="45.98804391010009" lon="12.29720217497006"><ele>138.0</ele><time>2026-04-25T08:47:51.812Z</time></trkpt><trkpt lat="45.987974108757925" lon="12.297231731063444"><ele>137.42857142857144</ele><time>2026-04-25T08:47:52.812Z</time></trkpt><trkpt lat="45.98790580538799" lon="12.297265294483918"><ele>136.85714285714286</ele><time>2026-04-25T08:47:53.812Z</time></trkpt><trkpt lat="45.98783810067872" lon="12.297294056474543"><ele>136.28571428571428</ele><time>2026-04-25T08:47:54.812Z</time></trkpt><trkpt lat="45.98777513148999" lon="12.297327984851458"><ele>135.71428571428572</ele><time>2026-04-25T08:47:55.812Z</time></trkpt><trkpt lat="45.98770700216638" lon="12.297364189417307"><ele>135.14285714285714</ele><time>2026-04-25T08:47:56.812Z</time></trkpt><trkpt lat="45.98763885636824" lon="12.297395825679388"><ele>134.57142857142858</ele><time>2026-04-25T08:47:57.812Z</time></trkpt><trkpt lat="45.987564165306914" lon="12.297425375640685"><ele>134.0</ele><time>2026-04-25T08:47:58.812Z</time></trkpt><trkpt lat="45.98748470357247" lon="12.297458055075744"><ele>134.0</ele><time>2026-04-25T08:47:59.812Z</time></trkpt><trkpt lat="45.98741479990619" lon="12.297491350480398"><ele>134.0</ele><time>2026-04-25T08:48:00.812Z</time></trkpt><trkpt lat="45.98733276127787" lon="12.297528866156197"><ele>134.0</ele><time>2026-04-25T08:48:01.812Z</time></trkpt><trkpt lat="45.987265091605266" lon="12.297577834011884"><ele>134.0</ele><time>2026-04-25T08:48:02.812Z</time></trkpt><trkpt lat="45.987203907541094" lon="12.297626318814151"><ele>134.0</ele><time>2026-04-25T08:48:03.812Z</time></trkpt><trkpt lat="45.98712781933468" lon="12.297665416640559"><ele>134.0</ele><time>2026-04-25T08:48:04.812Z</time></trkpt><trkpt lat="45.9870148589609" lon="12.297735353262965"><ele>134.0</ele><time>2026-04-25T08:48:06.812Z</time></trkpt><trkpt lat="45.98692123835859" lon="12.297781270225434"><ele>134.0</ele><time>2026-04-25T08:48:08.812Z</time></trkpt><trkpt lat="45.98684883889595" lon="12.297658762748101"><ele>134.0</ele><time>2026-04-25T08:48:10.812Z</time></trkpt><trkpt lat="45.98683138624225" lon="12.297515515763068"><ele>134.0</ele><time>2026-04-25T08:48:12.812Z</time></trkpt><trkpt lat="45.986812920312815" lon="12.297364018438167"><ele>134.0</ele><time>2026-04-25T08:48:14.812Z</time></trkpt><trkpt lat="45.98679213599759" lon="12.297264208726848"><ele>134.4</ele><time>2026-04-25T08:48:15.812Z</time></trkpt><trkpt lat="45.98675218484931" lon="12.297126207524554"><ele>134.8</ele><time>2026-04-25T08:48:17.812Z</time></trkpt><trkpt lat="45.98669480213141" lon="12.296983250950753"><ele>135.2</ele><time>2026-04-25T08:48:19.813Z</time></trkpt><trkpt lat="45.98667979218603" lon="12.296845802583144"><ele>135.6</ele><time>2026-04-25T08:48:21.812Z</time></trkpt><trkpt lat="45.98665097622268" lon="12.296720111594148"><ele>136.0</ele><time>2026-04-25T08:48:23.812Z</time></trkpt><trkpt lat="45.98661691426115" lon="12.296574963283385"><ele>136.4</ele><time>2026-04-25T08:48:25.812Z</time></trkpt><trkpt lat="45.98652124509048" lon="12.296548953977362"><ele>136.8</ele><time>2026-04-25T08:48:27.812Z</time></trkpt><trkpt lat="45.98639416050433" lon="12.296620242748007"><ele>137.20000000000002</ele><time>2026-04-25T08:48:29.813Z</time></trkpt><trkpt lat="45.98633313229343" lon="12.296663094703318"><ele>137.6</ele><time>2026-04-25T08:48:30.813Z</time></trkpt><trkpt lat="45.986267437094014" lon="12.296710650569612"><ele>138.0</ele><time>2026-04-25T08:48:31.812Z</time></trkpt><trkpt lat="45.9861944402721" lon="12.29673116156721"><ele>138.0</ele><time>2026-04-25T08:48:32.813Z</time></trkpt><trkpt lat="45.98612790659585" lon="12.296753558326394"><ele>138.0</ele><time>2026-04-25T08:48:33.813Z</time></trkpt><trkpt lat="45.98605608450874" lon="12.296786766840713"><ele>138.0</ele><time>2026-04-25T08:48:34.813Z</time></trkpt><trkpt lat="45.98598746109147" lon="12.29681464165461"><ele>138.0</ele><time>2026-04-25T08:48:35.813Z</time></trkpt><trkpt lat="45.9859221992517" lon="12.296834129087383"><ele>138.0</ele><time>2026-04-25T08:48:36.812Z</time></trkpt><trkpt lat="45.98585769116287" lon="12.296860374986514"><ele>138.0</ele><time>2026-04-25T08:48:37.812Z</time></trkpt><trkpt lat="45.98578698091976" lon="12.296896702785705"><ele>138.0</ele><time>2026-04-25T08:48:38.812Z</time></trkpt><trkpt lat="45.98571489774357" lon="12.296926424962736"><ele>137.8</ele><time>2026-04-25T08:48:39.812Z</time></trkpt><trkpt lat="45.98558641216293" lon="12.296972868941443"><ele>137.60000000000002</ele><time>2026-04-25T08:48:41.812Z</time></trkpt><trkpt lat="45.98552551812049" lon="12.297003440432368"><ele>137.39999999999998</ele><time>2026-04-25T08:48:42.812Z</time></trkpt><trkpt lat="45.985404760656635" lon="12.297051910782237"><ele>137.2</ele><time>2026-04-25T08:48:44.812Z</time></trkpt><trkpt lat="45.98531715858073" lon="12.297036605286669"><ele>137.0</ele><time>2026-04-25T08:48:46.812Z</time></trkpt><trkpt lat="45.98526054396935" lon="12.296912074026018"><ele>137.0</ele><time>2026-04-25T08:48:48.812Z</time></trkpt><trkpt lat="45.985235649179394" lon="12.29681079828515"><ele>137.0</ele><time>2026-04-25T08:48:49.812Z</time></trkpt><trkpt lat="45.98519951133132" lon="12.29667679638307"><ele>137.0</ele><time>2026-04-25T08:48:51.812Z</time></trkpt><trkpt lat="45.98515779722715" lon="12.296578929833018"><ele>137.0</ele><time>2026-04-25T08:48:53.812Z</time></trkpt><trkpt lat="45.98509724182016" lon="12.296508323436932"><ele>137.0</ele><time>2026-04-25T08:48:55.812Z</time></trkpt><trkpt lat="45.98505036975583" lon="12.296396731229729"><ele>137.0</ele><time>2026-04-25T08:48:57.812Z</time></trkpt><trkpt lat="45.98502646319955" lon="12.296255566719367"><ele>137.33333333333331</ele><time>2026-04-25T08:48:59.812Z</time></trkpt><trkpt lat="45.984983035142825" lon="12.296124044803964"><ele>137.66666666666666</ele><time>2026-04-25T08:49:01.812Z</time></trkpt><trkpt lat="45.984969938511036" lon="12.296030308878867"><ele>138.0</ele><time>2026-04-25T08:49:03.812Z</time></trkpt><trkpt lat="45.98503418735952" lon="12.295925348923683"><ele>138.33333333333334</ele><time>2026-04-25T08:49:06.812Z</time></trkpt><trkpt lat="45.98510259374318" lon="12.295861221940632"><ele>138.66666666666669</ele><time>2026-04-25T08:49:08.812Z</time></trkpt><trkpt lat="45.985101864042804" lon="12.295734560170365"><ele>139.0</ele><time>2026-04-25T08:49:11.812Z</time></trkpt><trkpt lat="45.98503481725018" lon="12.295675540447816"><ele>139.28571428571428</ele><time>2026-04-25T08:49:13.812Z</time></trkpt><trkpt lat="45.984973842319555" lon="12.295611772199528"><ele>139.57142857142858</ele><time>2026-04-25T08:49:16.812Z</time></trkpt><trkpt lat="45.98492533561898" lon="12.295549399525786"><ele>139.85714285714286</ele><time>2026-04-25T08:49:19.812Z</time></trkpt><trkpt lat="45.984885846588796" lon="12.29547131532524"><ele>140.14285714285714</ele><time>2026-04-25T08:49:22.812Z</time></trkpt><trkpt lat="45.9848300771946" lon="12.295381721760446"><ele>140.42857142857142</ele><time>2026-04-25T08:49:26.812Z</time></trkpt><trkpt lat="45.98479395926022" lon="12.295277041292232"><ele>140.71428571428572</ele><time>2026-04-25T08:49:30.812Z</time></trkpt><trkpt lat="45.98474166070914" lon="12.295198208979228"><ele>141.0</ele><time>2026-04-25T08:49:35.812Z</time></trkpt><trkpt lat="45.98467614074079" lon="12.295105052258787"><ele>142.33333333333334</ele><time>2026-04-25T08:49:39.812Z</time></trkpt><trkpt lat="45.98460135978795" lon="12.295039693240499"><ele>143.66666666666666</ele><time>2026-04-25T08:49:42.812Z</time></trkpt><trkpt lat="45.98453131610164" lon="12.294977315858304"><ele>145.0</ele><time>2026-04-25T08:49:46.811Z</time></trkpt><trkpt lat="45.98446034227428" lon="12.29496245121194"><ele>146.33333333333331</ele><time>2026-04-25T08:49:50.811Z</time></trkpt><trkpt lat="45.98443779698711" lon="12.294877202331953"><ele>147.66666666666666</ele><time>2026-04-25T08:49:56.811Z</time></trkpt><trkpt lat="45.98438851584414" lon="12.294809587594328"><ele>149.0</ele><time>2026-04-25T08:50:01.811Z</time></trkpt><trkpt lat="45.984335416839976" lon="12.294723383660138"><ele>151.66666666666666</ele><time>2026-04-25T08:50:04.811Z</time></trkpt><trkpt lat="45.98427191576927" lon="12.29466067462553"><ele>154.33333333333331</ele><time>2026-04-25T08:50:08.811Z</time></trkpt><trkpt lat="45.98421780254347" lon="12.294576710004856"><ele>157.0</ele><time>2026-04-25T08:50:12.811Z</time></trkpt><trkpt lat="45.984183474706114" lon="12.294474982952186"><ele>159.66666666666666</ele><time>2026-04-25T08:50:16.811Z</time></trkpt><trkpt lat="45.984125847081046" lon="12.294385795372028"><ele>162.33333333333334</ele><time>2026-04-25T08:50:20.811Z</time></trkpt><trkpt lat="45.984094839714004" lon="12.294297580619206"><ele>165.0</ele><time>2026-04-25T08:50:23.811Z</time></trkpt><trkpt lat="45.984035763722034" lon="12.294220401268984"><ele>165.00000000000003</ele><time>2026-04-25T08:50:26.811Z</time></trkpt><trkpt lat="45.98396789871927" lon="12.294255199825601"><ele>165.0</ele><time>2026-04-25T08:50:31.811Z</time></trkpt><trkpt lat="45.98399450849617" lon="12.294337881246209"><ele>165.0</ele><time>2026-04-25T08:50:36.811Z</time></trkpt><trkpt lat="45.98401689783256" lon="12.294443226774098"><ele>165.0</ele><time>2026-04-25T08:50:41.812Z</time></trkpt><trkpt lat="45.984046339300065" lon="12.29453704679454"><ele>165.0</ele><time>2026-04-25T08:50:44.812Z</time></trkpt><trkpt lat="45.98407368109661" lon="12.29464053703395"><ele>165.00000000000003</ele><time>2026-04-25T08:50:48.812Z</time></trkpt><trkpt lat="45.9840808562626" lon="12.294730958668199"><ele>165.0</ele><time>2026-04-25T08:50:51.812Z</time></trkpt><trkpt lat="45.98401892687248" lon="12.294650028242584"><ele>165.00000000000003</ele><time>2026-04-25T08:50:56.812Z</time></trkpt><trkpt lat="45.983974544107646" lon="12.294559696378364"><ele>165.0</ele><time>2026-04-25T08:50:58.812Z</time></trkpt><trkpt lat="45.98391163562778" lon="12.294521769059088"><ele>165.0</ele><time>2026-04-25T08:51:02.812Z</time></trkpt><trkpt lat="45.98386291072657" lon="12.29443728591277"><ele>165.0</ele><time>2026-04-25T08:51:06.811Z</time></trkpt><trkpt lat="45.98382216015281" lon="12.294507687555246"><ele>165.0</ele><time>2026-04-25T08:51:13.811Z</time></trkpt><trkpt lat="45.98388092542107" lon="12.294598360713236"><ele>165.00000000000003</ele><time>2026-04-25T08:51:18.811Z</time></trkpt><trkpt lat="45.98390212973465" lon="12.294688268236301"><ele>165.0</ele><time>2026-04-25T08:51:20.811Z</time></trkpt><trkpt lat="45.9839053505309" lon="12.294806082048062"><ele>165.0</ele><time>2026-04-25T08:51:23.811Z</time></trkpt><trkpt lat="45.98383195908177" lon="12.294785220024053"><ele>165.0</ele><time>2026-04-25T08:51:27.811Z</time></trkpt><trkpt lat="45.98376187194223" lon="12.294711895148474"><ele>165.0</ele><time>2026-04-25T08:51:31.811Z</time></trkpt><trkpt lat="45.98368759315559" lon="12.29474010786683"><ele>165.0</ele><time>2026-04-25T08:51:35.811Z</time></trkpt><trkpt lat="45.98361031446831" lon="12.294747616255101"><ele>165.0</ele><time>2026-04-25T08:51:39.811Z</time></trkpt><trkpt lat="45.983537253136554" lon="12.294732949163421"><ele>165.0</ele><time>2026-04-25T08:51:43.811Z</time></trkpt><trkpt lat="45.98345485940693" lon="12.294732876482838"><ele>165.00000000000003</ele><time>2026-04-25T08:51:48.811Z</time></trkpt><trkpt lat="45.98337078678965" lon="12.294737230269178"><ele>165.0</ele><time>2026-04-25T08:51:53.811Z</time></trkpt><trkpt lat="45.98330401033866" lon="12.294771824036614"><ele>165.0</ele><time>2026-04-25T08:51:58.811Z</time></trkpt><trkpt lat="45.98323777603521" lon="12.294773136356817"><ele>165.0</ele><time>2026-04-25T08:52:01.811Z</time></trkpt><trkpt lat="45.983171895293275" lon="12.294772024851587"><ele>165.0</ele><time>2026-04-25T08:52:06.811Z</time></trkpt><trkpt lat="45.983102246646375" lon="12.294736116445902"><ele>165.00000000000003</ele><time>2026-04-25T08:52:09.811Z</time></trkpt><trkpt lat="45.983040628418486" lon="12.294663505848533"><ele>165.0</ele><time>2026-04-25T08:52:13.811Z</time></trkpt><trkpt lat="45.98297312336817" lon="12.294619254821969"><ele>168.85714285714286</ele><time>2026-04-25T08:52:17.81Z</time></trkpt><trkpt lat="45.9829180563268" lon="12.294573123621193"><ele>172.71428571428572</ele><time>2026-04-25T08:52:20.81Z</time></trkpt><trkpt lat="45.98285351630176" lon="12.294519058159107"><ele>176.57142857142856</ele><time>2026-04-25T08:52:24.81Z</time></trkpt><trkpt lat="45.98280536677133" lon="12.294460473295098"><ele>180.42857142857144</ele><time>2026-04-25T08:52:26.81Z</time></trkpt><trkpt lat="45.9827472570047" lon="12.29439269247357"><ele>184.28571428571428</ele><time>2026-04-25T08:52:29.81Z</time></trkpt><trkpt lat="45.98268717261832" lon="12.29435680996249"><ele>188.14285714285714</ele><time>2026-04-25T08:52:34.811Z</time></trkpt><trkpt lat="45.98263853892377" lon="12.294298723165584"><ele>192.0</ele><time>2026-04-25T08:52:38.811Z</time></trkpt><trkpt lat="45.982583261248166" lon="12.294244901901793"><ele>192.0</ele><time>2026-04-25T08:52:43.81Z</time></trkpt><trkpt lat="45.98254445237731" lon="12.294171191568774"><ele>192.0</ele><time>2026-04-25T08:52:46.81Z</time></trkpt><trkpt lat="45.98250265797309" lon="12.294099620158429"><ele>192.0</ele><time>2026-04-25T08:52:50.81Z</time></trkpt><trkpt lat="45.982421444672056" lon="12.294046162575595"><ele>192.0</ele><time>2026-04-25T08:52:54.81Z</time></trkpt><trkpt lat="45.982340302770545" lon="12.294016580397813"><ele>192.0</ele><time>2026-04-25T08:52:59.81Z</time></trkpt><trkpt lat="45.98227206005946" lon="12.293949645742043"><ele>192.0</ele><time>2026-04-25T08:53:04.81Z</time></trkpt><trkpt lat="45.98220573185758" lon="12.293921254515416"><ele>192.83333333333334</ele><time>2026-04-25T08:53:08.81Z</time></trkpt><trkpt lat="45.98212826359303" lon="12.293915119333297"><ele>193.66666666666669</ele><time>2026-04-25T08:53:12.81Z</time></trkpt><trkpt lat="45.982058499137175" lon="12.293984945428452"><ele>194.5</ele><time>2026-04-25T08:53:15.81Z</time></trkpt><trkpt lat="45.98199476130163" lon="12.293962029570968"><ele>195.33333333333334</ele><time>2026-04-25T08:53:17.81Z</time></trkpt><trkpt lat="45.98195810774332" lon="12.293834845254015"><ele>196.16666666666669</ele><time>2026-04-25T08:53:19.81Z</time></trkpt><trkpt lat="45.98188077703404" lon="12.293755962608845"><ele>197.0</ele><time>2026-04-25T08:53:22.81Z</time></trkpt><trkpt lat="45.98180367440587" lon="12.293677339442262"><ele>200.2</ele><time>2026-04-25T08:53:23.81Z</time></trkpt><trkpt lat="45.98172426734543" lon="12.293599338860819"><ele>203.39999999999998</ele><time>2026-04-25T08:53:24.81Z</time></trkpt><trkpt lat="45.98163165620827" lon="12.293493128971766"><ele>206.60000000000002</ele><time>2026-04-25T08:53:25.809Z</time></trkpt><trkpt lat="45.98156662107345" lon="12.29341771245945"><ele>209.8</ele><time>2026-04-25T08:53:26.809Z</time></trkpt><trkpt lat="45.9815072412764" lon="12.293320733633415"><ele>213.0</ele><time>2026-04-25T08:53:27.809Z</time></trkpt><trkpt lat="45.981464818950485" lon="12.293193373156239"><ele>216.83333333333334</ele><time>2026-04-25T08:53:28.809Z</time></trkpt><trkpt lat="45.98142680184413" lon="12.29308073577897"><ele>220.66666666666669</ele><time>2026-04-25T08:53:29.809Z</time></trkpt><trkpt lat="45.981390226883356" lon="12.292966360311016"><ele>224.5</ele><time>2026-04-25T08:53:30.809Z</time></trkpt><trkpt lat="45.98135528361047" lon="12.292866651727707"><ele>228.33333333333334</ele><time>2026-04-25T08:53:31.809Z</time></trkpt><trkpt lat="45.98129635994906" lon="12.292749304939555"><ele>232.16666666666669</ele><time>2026-04-25T08:53:32.809Z</time></trkpt><trkpt lat="45.981239958162476" lon="12.292643765471665"><ele>236.0</ele><time>2026-04-25T08:53:33.809Z</time></trkpt><trkpt lat="45.98119229776506" lon="12.292564516455158"><ele>236.00000000000003</ele><time>2026-04-25T08:53:34.809Z</time></trkpt><trkpt lat="45.981140324922535" lon="12.292477615382195"><ele>236.0</ele><time>2026-04-25T08:53:35.809Z</time></trkpt><trkpt lat="45.9810337531734" lon="12.292392321129157"><ele>236.0</ele><time>2026-04-25T08:53:37.809Z</time></trkpt><trkpt lat="45.98092516495108" lon="12.292403802691698"><ele>236.0</ele><time>2026-04-25T08:53:39.809Z</time></trkpt><trkpt lat="45.98086784707347" lon="12.292457419718"><ele>236.00000000000003</ele><time>2026-04-25T08:53:40.809Z</time></trkpt><trkpt lat="45.9808047614523" lon="12.292483739305654"><ele>236.0</ele><time>2026-04-25T08:53:41.809Z</time></trkpt><trkpt lat="45.98074263561937" lon="12.292523043826328"><ele>230.66666666666669</ele><time>2026-04-25T08:53:42.809Z</time></trkpt><trkpt lat="45.980675187823216" lon="12.292526582840278"><ele>225.33333333333334</ele><time>2026-04-25T08:53:43.809Z</time></trkpt><trkpt lat="45.980612285092704" lon="12.292540412095654"><ele>220.0</ele><time>2026-04-25T08:53:44.809Z</time></trkpt><trkpt lat="45.98055063155701" lon="12.292576068280876"><ele>214.66666666666669</ele><time>2026-04-25T08:53:45.809Z</time></trkpt><trkpt lat="45.98046920302904" lon="12.292706632100007"><ele>209.33333333333334</ele><time>2026-04-25T08:53:47.809Z</time></trkpt><trkpt lat="45.98038999628998" lon="12.292716248605098"><ele>204.0</ele><time>2026-04-25T08:53:49.809Z</time></trkpt><trkpt lat="45.9803377473335" lon="12.292664317798549"><ele>204.0</ele><time>2026-04-25T08:53:50.809Z</time></trkpt><trkpt lat="45.980310682791" lon="12.292571003160663"><ele>204.0</ele><time>2026-04-25T08:53:51.809Z</time></trkpt><trkpt lat="45.98028813885904" lon="12.29247820616734"><ele>204.0</ele><time>2026-04-25T08:53:52.809Z</time></trkpt><trkpt lat="45.98025041587702" lon="12.292397491585803"><ele>204.0</ele><time>2026-04-25T08:53:53.809Z</time></trkpt><trkpt lat="45.980177909452166" lon="12.292269424845"><ele>204.0</ele><time>2026-04-25T08:53:55.809Z</time></trkpt><trkpt lat="45.98012364486763" lon="12.292194881931557"><ele>204.0</ele><time>2026-04-25T08:53:56.809Z</time></trkpt><trkpt lat="45.980065690785004" lon="12.292147668432477"><ele>205.5</ele><time>2026-04-25T08:53:57.809Z</time></trkpt><trkpt lat="45.97999310870256" lon="12.292095691427999"><ele>207.0</ele><time>2026-04-25T08:53:58.809Z</time></trkpt><trkpt lat="45.979917545748" lon="12.292063000652544"><ele>208.5</ele><time>2026-04-25T08:53:59.809Z</time></trkpt><trkpt lat="45.97982941054662" lon="12.292027099602452"><ele>210.0</ele><time>2026-04-25T08:54:00.809Z</time></trkpt><trkpt lat="45.97973643253126" lon="12.292019198989083"><ele>211.5</ele><time>2026-04-25T08:54:01.809Z</time></trkpt><trkpt lat="45.97963379191613" lon="12.292032844444211"><ele>213.0</ele><time>2026-04-25T08:54:02.809Z</time></trkpt><trkpt lat="45.97954206031265" lon="12.292065672813878"><ele>213.0</ele><time>2026-04-25T08:54:03.809Z</time></trkpt><trkpt lat="45.979456428449815" lon="12.292112231111856"><ele>213.0</ele><time>2026-04-25T08:54:04.809Z</time></trkpt><trkpt lat="45.97937153750297" lon="12.292175446518451"><ele>213.0</ele><time>2026-04-25T08:54:05.809Z</time></trkpt><trkpt lat="45.97928620728651" lon="12.292235305209394"><ele>213.0</ele><time>2026-04-25T08:54:06.809Z</time></trkpt><trkpt lat="45.9792130990784" lon="12.292256780622902"><ele>213.0</ele><time>2026-04-25T08:54:07.809Z</time></trkpt><trkpt lat="45.97914773271539" lon="12.292257969489317"><ele>213.0</ele><time>2026-04-25T08:54:08.809Z</time></trkpt><trkpt lat="45.979091332188354" lon="12.292187834516882"><ele>208.60000000000002</ele><time>2026-04-25T08:54:09.809Z</time></trkpt><trkpt lat="45.97903894632787" lon="12.292067926266803"><ele>204.20000000000002</ele><time>2026-04-25T08:54:10.809Z</time></trkpt><trkpt lat="45.97900440764086" lon="12.291935799360289"><ele>199.8</ele><time>2026-04-25T08:54:11.809Z</time></trkpt><trkpt lat="45.97897635193298" lon="12.291804553532772"><ele>195.4</ele><time>2026-04-25T08:54:12.809Z</time></trkpt><trkpt lat="45.97892325693167" lon="12.291700994657193"><ele>191.0</ele><time>2026-04-25T08:54:13.809Z</time></trkpt><trkpt lat="45.97884722218114" lon="12.291609571357455"><ele>191.0</ele><time>2026-04-25T08:54:14.809Z</time></trkpt><trkpt lat="45.978750950248255" lon="12.291554911661853"><ele>191.0</ele><time>2026-04-25T08:54:15.809Z</time></trkpt><trkpt lat="45.97864744546368" lon="12.291514719682684"><ele>191.0</ele><time>2026-04-25T08:54:16.809Z</time></trkpt><trkpt lat="45.97853827581476" lon="12.291486194032434"><ele>191.0</ele><time>2026-04-25T08:54:17.809Z</time></trkpt><trkpt lat="45.97843749208009" lon="12.291463614690688"><ele>191.0</ele><time>2026-04-25T08:54:18.809Z</time></trkpt><trkpt lat="45.97834126007248" lon="12.291468755218688"><ele>190.33333333333331</ele><time>2026-04-25T08:54:19.809Z</time></trkpt><trkpt lat="45.978254367176085" lon="12.291491017806043"><ele>189.66666666666666</ele><time>2026-04-25T08:54:20.809Z</time></trkpt><trkpt lat="45.9781878106711" lon="12.291514179702466"><ele>189.0</ele><time>2026-04-25T08:54:21.809Z</time></trkpt><trkpt lat="45.97807306873247" lon="12.291489129964278"><ele>188.33333333333334</ele><time>2026-04-25T08:54:23.809Z</time></trkpt><trkpt lat="45.97801093437484" lon="12.291418236903366"><ele>187.66666666666669</ele><time>2026-04-25T08:54:24.809Z</time></trkpt><trkpt lat="45.97795123972996" lon="12.291321261687562"><ele>187.0</ele><time>2026-04-25T08:54:25.809Z</time></trkpt><trkpt lat="45.97789182986681" lon="12.291273062888989"><ele>187.0</ele><time>2026-04-25T08:54:26.809Z</time></trkpt><trkpt lat="45.97778852683133" lon="12.29128242102425"><ele>187.0</ele><time>2026-04-25T08:54:28.809Z</time></trkpt><trkpt lat="45.97773694488853" lon="12.291363174830138"><ele>187.0</ele><time>2026-04-25T08:54:29.809Z</time></trkpt><trkpt lat="45.977714258806" lon="12.291451444230432"><ele>187.0</ele><time>2026-04-25T08:54:30.809Z</time></trkpt><trkpt lat="45.97773146164311" lon="12.29162618024608"><ele>187.0</ele><time>2026-04-25T08:54:32.809Z</time></trkpt><trkpt lat="45.97776932855328" lon="12.291714820925463"><ele>187.0</ele><time>2026-04-25T08:54:33.809Z</time></trkpt><trkpt lat="45.97781816465709" lon="12.291788404620656"><ele>183.66666666666669</ele><time>2026-04-25T08:54:34.809Z</time></trkpt><trkpt lat="45.97787922750141" lon="12.291845808221833"><ele>180.33333333333334</ele><time>2026-04-25T08:54:35.808Z</time></trkpt><trkpt lat="45.977935580488264" lon="12.291920070953735"><ele>177.0</ele><time>2026-04-25T08:54:36.808Z</time></trkpt><trkpt lat="45.97799328942892" lon="12.29199104826483"><ele>173.66666666666666</ele><time>2026-04-25T08:54:37.998Z</time></trkpt><trkpt lat="45.978054528777136" lon="12.292065520857314"><ele>170.33333333333331</ele><time>2026-04-25T08:54:38.998Z</time></trkpt><trkpt lat="45.978110852870515" lon="12.29214834816317"><ele>167.0</ele><time>2026-04-25T08:54:39.998Z</time></trkpt><trkpt lat="45.9781712233491" lon="12.292239715848776"><ele>167.33333333333331</ele><time>2026-04-25T08:54:40.999Z</time></trkpt><trkpt lat="45.97822856430343" lon="12.29233175613303"><ele>167.66666666666666</ele><time>2026-04-25T08:54:41.999Z</time></trkpt><trkpt lat="45.97827878382998" lon="12.292428694284109"><ele>168.0</ele><time>2026-04-25T08:54:42.999Z</time></trkpt><trkpt lat="45.978344457227486" lon="12.292527489306226"><ele>168.33333333333334</ele><time>2026-04-25T08:54:43.999Z</time></trkpt><trkpt lat="45.978396131523866" lon="12.292630456675498"><ele>168.66666666666669</ele><time>2026-04-25T08:54:44.999Z</time></trkpt><trkpt lat="45.97845091505631" lon="12.292726482166646"><ele>169.0</ele><time>2026-04-25T08:54:45.999Z</time></trkpt><trkpt lat="45.97850740405009" lon="12.292828663859776"><ele>169.0</ele><time>2026-04-25T08:54:46.999Z</time></trkpt><trkpt lat="45.978567038187585" lon="12.292939650963516"><ele>169.0</ele><time>2026-04-25T08:54:47.999Z</time></trkpt><trkpt lat="45.97862361630686" lon="12.293051657258133"><ele>169.0</ele><time>2026-04-25T08:54:48.999Z</time></trkpt><trkpt lat="45.97868834686241" lon="12.293148074733603"><ele>169.0</ele><time>2026-04-25T08:54:49.999Z</time></trkpt><trkpt lat="45.978765049369805" lon="12.29324706751966"><ele>169.0</ele><time>2026-04-25T08:54:50.999Z</time></trkpt><trkpt lat="45.97883991464206" lon="12.293343675109934"><ele>167.6</ele><time>2026-04-25T08:54:51.999Z</time></trkpt><trkpt lat="45.978911824113304" lon="12.2934376406046"><ele>166.2</ele><time>2026-04-25T08:54:53Z</time></trkpt><trkpt lat="45.9789834773332" lon="12.293539370878081"><ele>164.79999999999998</ele><time>2026-04-25T08:54:54Z</time></trkpt><trkpt lat="45.97905797504448" lon="12.293642816786416"><ele>163.39999999999998</ele><time>2026-04-25T08:54:55Z</time></trkpt><trkpt lat="45.97913729270362" lon="12.29374304833024"><ele>162.0</ele><time>2026-04-25T08:54:56Z</time></trkpt><trkpt lat="45.97922028832334" lon="12.293838858771117"><ele>160.2</ele><time>2026-04-25T08:54:57Z</time></trkpt><trkpt lat="45.979312374691766" lon="12.293942724341921"><ele>158.39999999999998</ele><time>2026-04-25T08:54:58Z</time></trkpt><trkpt lat="45.979397347155626" lon="12.294030566410548"><ele>156.60000000000002</ele><time>2026-04-25T08:54:59Z</time></trkpt><trkpt lat="45.97949598435064" lon="12.294120206462535"><ele>154.8</ele><time>2026-04-25T08:55:00Z</time></trkpt><trkpt lat="45.97957621580931" lon="12.29422388506344"><ele>153.0</ele><time>2026-04-25T08:55:01Z</time></trkpt><trkpt lat="45.979639291790384" lon="12.29434072058437"><ele>153.0</ele><time>2026-04-25T08:55:02Z</time></trkpt><trkpt lat="45.97968573856082" lon="12.294460617521239"><ele>153.0</ele><time>2026-04-25T08:55:03Z</time></trkpt><trkpt lat="45.97971846547583" lon="12.294587414946822"><ele>153.0</ele><time>2026-04-25T08:55:04Z</time></trkpt><trkpt lat="45.979730284563544" lon="12.294731106074904"><ele>153.0</ele><time>2026-04-25T08:55:05Z</time></trkpt><trkpt lat="45.97972590047469" lon="12.294864518165134"><ele>153.0</ele><time>2026-04-25T08:55:06Z</time></trkpt><trkpt lat="45.979739723248606" lon="12.294985195531542"><ele>151.6</ele><time>2026-04-25T08:55:07Z</time></trkpt><trkpt lat="45.97970443392198" lon="12.295162282150708"><ele>150.20000000000002</ele><time>2026-04-25T08:55:09Z</time></trkpt><trkpt lat="45.979657009474664" lon="12.295255556799424"><ele>148.8</ele><time>2026-04-25T08:55:10Z</time></trkpt><trkpt lat="45.979580252704025" lon="12.295317459136717"><ele>147.4</ele><time>2026-04-25T08:55:11Z</time></trkpt><trkpt lat="45.97950735249304" lon="12.295383630137177"><ele>146.0</ele><time>2026-04-25T08:55:12Z</time></trkpt><trkpt lat="45.979444251744155" lon="12.295452346132414"><ele>146.0</ele><time>2026-04-25T08:55:13Z</time></trkpt><trkpt lat="45.97937331518666" lon="12.295525299139246"><ele>146.0</ele><time>2026-04-25T08:55:14Z</time></trkpt><trkpt lat="45.97929819976943" lon="12.295584979748341"><ele>146.0</ele><time>2026-04-25T08:55:15Z</time></trkpt><trkpt lat="45.979222905821366" lon="12.295649521891576"><ele>146.0</ele><time>2026-04-25T08:55:16Z</time></trkpt><trkpt lat="45.97915556439258" lon="12.2956991105602"><ele>146.0</ele><time>2026-04-25T08:55:17Z</time></trkpt><trkpt lat="45.97908529723804" lon="12.295766746013584"><ele>146.0</ele><time>2026-04-25T08:55:18Z</time></trkpt><trkpt lat="45.97901500173662" lon="12.295826445022707"><ele>145.0</ele><time>2026-04-25T08:55:19.001Z</time></trkpt><trkpt lat="45.97895984923288" lon="12.295876577694173"><ele>144.0</ele><time>2026-04-25T08:55:20.001Z</time></trkpt><trkpt lat="45.978903877895355" lon="12.29602091032115"><ele>143.0</ele><time>2026-04-25T08:55:22.001Z</time></trkpt><trkpt lat="45.978908251211294" lon="12.296125046804578"><ele>142.0</ele><time>2026-04-25T08:55:23.001Z</time></trkpt><trkpt lat="45.97893025391138" lon="12.296235296009696"><ele>141.0</ele><time>2026-04-25T08:55:24.001Z</time></trkpt><trkpt lat="45.97896642794454" lon="12.296328184556712"><ele>140.0</ele><time>2026-04-25T08:55:25.001Z</time></trkpt><trkpt lat="45.979011701569945" lon="12.296417186364494"><ele>139.66666666666666</ele><time>2026-04-25T08:55:26.001Z</time></trkpt><trkpt lat="45.979054667772765" lon="12.296519086529004"><ele>139.33333333333331</ele><time>2026-04-25T08:55:27.001Z</time></trkpt><trkpt lat="45.97909477040177" lon="12.296619474368816"><ele>139.0</ele><time>2026-04-25T08:55:28.001Z</time></trkpt><trkpt lat="45.97913011296518" lon="12.296723360165322"><ele>138.66666666666666</ele><time>2026-04-25T08:55:29.001Z</time></trkpt><trkpt lat="45.97916029884928" lon="12.296823530802598"><ele>138.33333333333334</ele><time>2026-04-25T08:55:30.001Z</time></trkpt><trkpt lat="45.97919744974812" lon="12.29693275711767"><ele>138.0</ele><time>2026-04-25T08:55:31.001Z</time></trkpt><trkpt lat="45.97923861923952" lon="12.297044972309916"><ele>137.83333333333334</ele><time>2026-04-25T08:55:32.001Z</time></trkpt><trkpt lat="45.97927756094647" lon="12.297147645454725"><ele>137.66666666666666</ele><time>2026-04-25T08:55:33.001Z</time></trkpt><trkpt lat="45.979310261227944" lon="12.297254044311618"><ele>137.5</ele><time>2026-04-25T08:55:34.001Z</time></trkpt><trkpt lat="45.979335110942216" lon="12.297368070034333"><ele>137.33333333333331</ele><time>2026-04-25T08:55:35.001Z</time></trkpt><trkpt lat="45.979370262127254" lon="12.297476129190423"><ele>137.16666666666666</ele><time>2026-04-25T08:55:36.001Z</time></trkpt><trkpt lat="45.979413553057285" lon="12.29757576735842"><ele>137.0</ele><time>2026-04-25T08:55:37.001Z</time></trkpt><trkpt lat="45.979458806614375" lon="12.297675522258409"><ele>136.83333333333331</ele><time>2026-04-25T08:55:38.001Z</time></trkpt><trkpt lat="45.97950387210993" lon="12.29779118101779"><ele>136.66666666666666</ele><time>2026-04-25T08:55:39.001Z</time></trkpt><trkpt lat="45.979531753387455" lon="12.297905929320992"><ele>136.5</ele><time>2026-04-25T08:55:40.001Z</time></trkpt><trkpt lat="45.97957716600908" lon="12.298015764969868"><ele>136.33333333333334</ele><time>2026-04-25T08:55:41.001Z</time></trkpt><trkpt lat="45.97960250632733" lon="12.298130013075134"><ele>136.16666666666669</ele><time>2026-04-25T08:55:42.001Z</time></trkpt><trkpt lat="45.97964110128782" lon="12.298249146242515"><ele>136.0</ele><time>2026-04-25T08:55:43.001Z</time></trkpt><trkpt lat="45.97967911275313" lon="12.298368439739555"><ele>135.6</ele><time>2026-04-25T08:55:44.001Z</time></trkpt><trkpt lat="45.97970179489633" lon="12.29849313585199"><ele>135.2</ele><time>2026-04-25T08:55:45.001Z</time></trkpt><trkpt lat="45.97971287504093" lon="12.298624129273398"><ele>134.8</ele><time>2026-04-25T08:55:46.001Z</time></trkpt><trkpt lat="45.97974338149195" lon="12.298753039943373"><ele>134.4</ele><time>2026-04-25T08:55:47.001Z</time></trkpt><trkpt lat="45.979769512720594" lon="12.298878777749273"><ele>134.0</ele><time>2026-04-25T08:55:48.001Z</time></trkpt><trkpt lat="45.97978766461946" lon="12.299005976068232"><ele>134.0</ele><time>2026-04-25T08:55:49.001Z</time></trkpt><trkpt lat="45.97980222631991" lon="12.29913232894878"><ele>134.0</ele><time>2026-04-25T08:55:50.001Z</time></trkpt><trkpt lat="45.97982366577596" lon="12.299254452316323"><ele>134.0</ele><time>2026-04-25T08:55:51.001Z</time></trkpt><trkpt lat="45.97982810433048" lon="12.299374740075672"><ele>134.0</ele><time>2026-04-25T08:55:52.001Z</time></trkpt><trkpt lat="45.9798338622976" lon="12.29949874345789"><ele>134.0</ele><time>2026-04-25T08:55:53.001Z</time></trkpt><trkpt lat="45.97984759364979" lon="12.299621857910937"><ele>134.0</ele><time>2026-04-25T08:55:54.001Z</time></trkpt><trkpt lat="45.97986997068023" lon="12.299751094771711"><ele>133.66666666666666</ele><time>2026-04-25T08:55:55.001Z</time></trkpt><trkpt lat="45.97988187557096" lon="12.299884217781209"><ele>133.33333333333331</ele><time>2026-04-25T08:55:56.001Z</time></trkpt><trkpt lat="45.979889953136926" lon="12.30001880255584"><ele>133.0</ele><time>2026-04-25T08:55:57.001Z</time></trkpt><trkpt lat="45.979887104790635" lon="12.300133477658273"><ele>132.66666666666666</ele><time>2026-04-25T08:55:58.002Z</time></trkpt><trkpt lat="45.979893457568465" lon="12.300226511427898"><ele>132.33333333333334</ele><time>2026-04-25T08:55:59.002Z</time></trkpt><trkpt lat="45.9798548921118" lon="12.300361382688546"><ele>132.0</ele><time>2026-04-25T08:56:01.002Z</time></trkpt><trkpt lat="45.97976166398081" lon="12.300454375445051"><ele>132.0</ele><time>2026-04-25T08:56:03.002Z</time></trkpt><trkpt lat="45.9796880396248" lon="12.300499202321634"><ele>132.0</ele><time>2026-04-25T08:56:04.002Z</time></trkpt><trkpt lat="45.97962714982311" lon="12.300567521283812"><ele>132.0</ele><time>2026-04-25T08:56:05.002Z</time></trkpt><trkpt lat="45.97956981726562" lon="12.300655733770228"><ele>132.0</ele><time>2026-04-25T08:56:06.002Z</time></trkpt><trkpt lat="45.979506715903995" lon="12.300736424549145"><ele>132.0</ele><time>2026-04-25T08:56:07.002Z</time></trkpt><trkpt lat="45.97946231575319" lon="12.300814833131948"><ele>132.0</ele><time>2026-04-25T08:56:08.002Z</time></trkpt><trkpt lat="45.979374208817624" lon="12.300895981268747"><ele>131.66666666666666</ele><time>2026-04-25T08:56:09.002Z</time></trkpt><trkpt lat="45.979307964177075" lon="12.300980753879905"><ele>131.33333333333334</ele><time>2026-04-25T08:56:10.002Z</time></trkpt><trkpt lat="45.979240171661374" lon="12.301063962347053"><ele>131.0</ele><time>2026-04-25T08:56:11.002Z</time></trkpt><trkpt lat="45.97916910602118" lon="12.301142910244465"><ele>130.66666666666669</ele><time>2026-04-25T08:56:12.002Z</time></trkpt><trkpt lat="45.97909689198524" lon="12.301219083177386"><ele>130.33333333333334</ele><time>2026-04-25T08:56:13.002Z</time></trkpt><trkpt lat="45.979035022702156" lon="12.301314921656946"><ele>130.0</ele><time>2026-04-25T08:56:14.002Z</time></trkpt><trkpt lat="45.97896677990515" lon="12.301402668205489"><ele>129.5</ele><time>2026-04-25T08:56:15.002Z</time></trkpt><trkpt lat="45.97890753770684" lon="12.301486964298661"><ele>129.0</ele><time>2026-04-25T08:56:16.002Z</time></trkpt><trkpt lat="45.9788525509615" lon="12.301578701915682"><ele>128.5</ele><time>2026-04-25T08:56:17.002Z</time></trkpt><trkpt lat="45.9787973318662" lon="12.30166921582083"><ele>128.0</ele><time>2026-04-25T08:56:18.002Z</time></trkpt><trkpt lat="45.978755641564305" lon="12.301752357551527"><ele>127.50000000000001</ele><time>2026-04-25T08:56:19.002Z</time></trkpt><trkpt lat="45.97871108367692" lon="12.301844000914642"><ele>127.0</ele><time>2026-04-25T08:56:20.002Z</time></trkpt><trkpt lat="45.97870657677476" lon="12.301936617758052"><ele>127.00000000000001</ele><time>2026-04-25T08:56:21.002Z</time></trkpt><trkpt lat="45.97872570700702" lon="12.302038911864823"><ele>127.0</ele><time>2026-04-25T08:56:22.002Z</time></trkpt><trkpt lat="45.97878961949649" lon="12.302116201682262"><ele>127.0</ele><time>2026-04-25T08:56:23.002Z</time></trkpt><trkpt lat="45.97882346959767" lon="12.302204961390963"><ele>127.0</ele><time>2026-04-25T08:56:24.002Z</time></trkpt><trkpt lat="45.9788682118684" lon="12.30229657370937"><ele>127.00000000000001</ele><time>2026-04-25T08:56:25.002Z</time></trkpt><trkpt lat="45.97891241460323" lon="12.302385675726665"><ele>127.0</ele><time>2026-04-25T08:56:26.002Z</time></trkpt><trkpt lat="45.97896515051368" lon="12.302469031339902"><ele>126.83333333333334</ele><time>2026-04-25T08:56:27.002Z</time></trkpt><trkpt lat="45.979017245932525" lon="12.302555912288126"><ele>126.66666666666667</ele><time>2026-04-25T08:56:28.002Z</time></trkpt><trkpt lat="45.97906354540512" lon="12.30265978858003"><ele>126.5</ele><time>2026-04-25T08:56:29.002Z</time></trkpt><trkpt lat="45.9791109306407" lon="12.302764434900741"><ele>126.33333333333334</ele><time>2026-04-25T08:56:30.002Z</time></trkpt><trkpt lat="45.97915311057797" lon="12.302874198316887"><ele>126.16666666666667</ele><time>2026-04-25T08:56:31.002Z</time></trkpt><trkpt lat="45.97920619282912" lon="12.30298496489356"><ele>126.0</ele><time>2026-04-25T08:56:32.002Z</time></trkpt><trkpt lat="45.97925967621494" lon="12.303085819402126"><ele>125.5</ele><time>2026-04-25T08:56:33.002Z</time></trkpt><trkpt lat="45.979306671925386" lon="12.303183463950566"><ele>125.0</ele><time>2026-04-25T08:56:34.002Z</time></trkpt><trkpt lat="45.97935343037525" lon="12.303291370594218"><ele>124.5</ele><time>2026-04-25T08:56:35.002Z</time></trkpt><trkpt lat="45.97939872010454" lon="12.303403546553723"><ele>124.0</ele><time>2026-04-25T08:56:36.002Z</time></trkpt><trkpt lat="45.97943878864058" lon="12.303502856507182"><ele>123.5</ele><time>2026-04-25T08:56:37.002Z</time></trkpt><trkpt lat="45.97948621444344" lon="12.303609464417727"><ele>123.0</ele><time>2026-04-25T08:56:38.002Z</time></trkpt><trkpt lat="45.97953436998473" lon="12.303702983085715"><ele>123.0</ele><time>2026-04-25T08:56:39.002Z</time></trkpt><trkpt lat="45.9795815784628" lon="12.303804889057895"><ele>123.0</ele><time>2026-04-25T08:56:40.002Z</time></trkpt><trkpt lat="45.97962846014581" lon="12.303907812095021"><ele>123.0</ele><time>2026-04-25T08:56:41.003Z</time></trkpt><trkpt lat="45.979683421988845" lon="12.30401907808209"><ele>123.0</ele><time>2026-04-25T08:56:42.003Z</time></trkpt><trkpt lat="45.97972524496452" lon="12.30412582443863"><ele>123.0</ele><time>2026-04-25T08:56:43.003Z</time></trkpt><trkpt lat="45.97976689526872" lon="12.30423145127691"><ele>123.0</ele><time>2026-04-25T08:56:44.003Z</time></trkpt><trkpt lat="45.97980778239661" lon="12.304339412987183"><ele>123.16666666666667</ele><time>2026-04-25T08:56:45.003Z</time></trkpt><trkpt lat="45.979837619896706" lon="12.304440034502191"><ele>123.33333333333334</ele><time>2026-04-25T08:56:46.003Z</time></trkpt><trkpt lat="45.97987464536097" lon="12.304549584180554"><ele>123.5</ele><time>2026-04-25T08:56:47.003Z</time></trkpt><trkpt lat="45.97993306212893" lon="12.304645573174154"><ele>123.66666666666667</ele><time>2026-04-25T08:56:48.003Z</time></trkpt><trkpt lat="45.97997070626549" lon="12.304734648464665"><ele>123.83333333333334</ele><time>2026-04-25T08:56:49.003Z</time></trkpt><trkpt lat="45.98000743047662" lon="12.304831151448013"><ele>124.0</ele><time>2026-04-25T08:56:50.003Z</time></trkpt><trkpt lat="45.98003831045527" lon="12.304923867659564"><ele>124.00000000000001</ele><time>2026-04-25T08:56:51.003Z</time></trkpt><trkpt lat="45.98007746349755" lon="12.30502462537721"><ele>124.0</ele><time>2026-04-25T08:56:52.003Z</time></trkpt><trkpt lat="45.980104330531525" lon="12.305113695031105"><ele>124.0</ele><time>2026-04-25T08:56:53.003Z</time></trkpt><trkpt lat="45.98013903474425" lon="12.305200636094794"><ele>124.0</ele><time>2026-04-25T08:56:54.003Z</time></trkpt><trkpt lat="45.980169944247415" lon="12.305287757015476"><ele>124.00000000000001</ele><time>2026-04-25T08:56:55.003Z</time></trkpt><trkpt lat="45.9802057896033" lon="12.305419440058284"><ele>124.0</ele><time>2026-04-25T08:56:57.002Z</time></trkpt><trkpt lat="45.980180129619995" lon="12.305518102534014"><ele>123.6</ele><time>2026-04-25T08:57:08.002Z</time></trkpt><trkpt lat="45.98023653284759" lon="12.30557947788756"><ele>123.2</ele><time>2026-04-25T08:57:10.002Z</time></trkpt><trkpt lat="45.98031193007371" lon="12.305714368894035"><ele>122.79999999999998</ele><time>2026-04-25T08:57:12.002Z</time></trkpt><trkpt lat="45.98038988699629" lon="12.305871868205992"><ele>122.39999999999999</ele><time>2026-04-25T08:57:14.001Z</time></trkpt><trkpt lat="45.980434239021214" lon="12.305973271490295"><ele>122.0</ele><time>2026-04-25T08:57:15.001Z</time></trkpt><trkpt lat="45.98048451873847" lon="12.306067478034448"><ele>121.99999999999999</ele><time>2026-04-25T08:57:16.001Z</time></trkpt><trkpt lat="45.98053302688356" lon="12.306170280088484"><ele>122.0</ele><time>2026-04-25T08:57:17.001Z</time></trkpt><trkpt lat="45.980578020090555" lon="12.306269628111608"><ele>122.0</ele><time>2026-04-25T08:57:18.001Z</time></trkpt><trkpt lat="45.98061966958621" lon="12.306374430896563"><ele>122.0</ele><time>2026-04-25T08:57:19.001Z</time></trkpt><trkpt lat="45.98065793118305" lon="12.306476100223064"><ele>121.99999999999999</ele><time>2026-04-25T08:57:20.001Z</time></trkpt><trkpt lat="45.98069699993342" lon="12.30658241670965"><ele>122.0</ele><time>2026-04-25T08:57:21.001Z</time></trkpt><trkpt lat="45.98074597723224" lon="12.306685709295492"><ele>121.83333333333333</ele><time>2026-04-25T08:57:22.001Z</time></trkpt><trkpt lat="45.98079448177255" lon="12.30678180001355"><ele>121.66666666666666</ele><time>2026-04-25T08:57:23.001Z</time></trkpt><trkpt lat="45.980837986065325" lon="12.306884565909245"><ele>121.5</ele><time>2026-04-25T08:57:24.001Z</time></trkpt><trkpt lat="45.980877826830984" lon="12.306979789331294"><ele>121.33333333333334</ele><time>2026-04-25T08:57:25.001Z</time></trkpt><trkpt lat="45.98091373601997" lon="12.307072271266447"><ele>121.16666666666667</ele><time>2026-04-25T08:57:26.001Z</time></trkpt><trkpt lat="45.980956265153964" lon="12.307158368817934"><ele>121.0</ele><time>2026-04-25T08:57:27.001Z</time></trkpt><trkpt lat="45.981005991145494" lon="12.307236554729181"><ele>120.8</ele><time>2026-04-25T08:57:28.001Z</time></trkpt><trkpt lat="45.98104950628625" lon="12.307321754835284"><ele>120.6</ele><time>2026-04-25T08:57:29.001Z</time></trkpt><trkpt lat="45.98108463702161" lon="12.307397771696179"><ele>120.4</ele><time>2026-04-25T08:57:30.001Z</time></trkpt><trkpt lat="45.98108981826574" lon="12.307572917188809"><ele>120.2</ele><time>2026-04-25T08:57:32.001Z</time></trkpt><trkpt lat="45.98102502738217" lon="12.307682865379748"><ele>120.0</ele><time>2026-04-25T08:57:34.001Z</time></trkpt><trkpt lat="45.980939888464526" lon="12.307801357054363"><ele>120.0</ele><time>2026-04-25T08:57:36.001Z</time></trkpt><trkpt lat="45.980878996619815" lon="12.307857835127882"><ele>120.0</ele><time>2026-04-25T08:57:37.001Z</time></trkpt><trkpt lat="45.9808244240353" lon="12.307911428226314"><ele>120.0</ele><time>2026-04-25T08:57:38.001Z</time></trkpt><trkpt lat="45.980774567233404" lon="12.307977229066632"><ele>120.0</ele><time>2026-04-25T08:57:39.001Z</time></trkpt><trkpt lat="45.98071884787181" lon="12.308035643613334"><ele>120.0</ele><time>2026-04-25T08:57:40.001Z</time></trkpt><trkpt lat="45.98064276082178" lon="12.308095670587624"><ele>120.0</ele><time>2026-04-25T08:57:41.001Z</time></trkpt><trkpt lat="45.98057588823512" lon="12.30815698787566"><ele>120.0</ele><time>2026-04-25T08:57:42.001Z</time></trkpt><trkpt lat="45.98051135328998" lon="12.308213238291138"><ele>120.28571428571429</ele><time>2026-04-25T08:57:43.001Z</time></trkpt><trkpt lat="45.98044525025103" lon="12.308279431778745"><ele>120.57142857142856</ele><time>2026-04-25T08:57:44.001Z</time></trkpt><trkpt lat="45.980385025944926" lon="12.308342400903776"><ele>120.85714285714285</ele><time>2026-04-25T08:57:45.001Z</time></trkpt><trkpt lat="45.98033123582032" lon="12.308396602248749"><ele>121.14285714285714</ele><time>2026-04-25T08:57:46.001Z</time></trkpt><trkpt lat="45.98027641500195" lon="12.30845077253123"><ele>121.42857142857142</ele><time>2026-04-25T08:57:47.001Z</time></trkpt><trkpt lat="45.98021909432859" lon="12.308497689657218"><ele>121.7142857142857</ele><time>2026-04-25T08:57:48.001Z</time></trkpt><trkpt lat="45.98015575785539" lon="12.308548168067563"><ele>121.99999999999999</ele><time>2026-04-25T08:57:49.001Z</time></trkpt><trkpt lat="45.980092368264316" lon="12.308607214568115"><ele>121.99999999999999</ele><time>2026-04-25T08:57:50.001Z</time></trkpt><trkpt lat="45.98003519963557" lon="12.30865479200617"><ele>122.0</ele><time>2026-04-25T08:57:51.001Z</time></trkpt><trkpt lat="45.97997497334414" lon="12.30869470248972"><ele>122.0</ele><time>2026-04-25T08:57:52.001Z</time></trkpt><trkpt lat="45.97991281544538" lon="12.308730678445944"><ele>122.0</ele><time>2026-04-25T08:57:53.001Z</time></trkpt><trkpt lat="45.97982298885986" lon="12.30883775156463"><ele>121.99999999999999</ele><time>2026-04-25T08:57:55.001Z</time></trkpt><trkpt lat="45.979834016319415" lon="12.308951584160827"><ele>122.0</ele><time>2026-04-25T08:57:57.001Z</time></trkpt><trkpt lat="45.9798654139067" lon="12.309030750509532"><ele>121.66666666666666</ele><time>2026-04-25T08:58:01.001Z</time></trkpt><trkpt lat="45.97987836607556" lon="12.309132085082364"><ele>121.33333333333333</ele><time>2026-04-25T08:58:06.001Z</time></trkpt><trkpt lat="45.97988821425546" lon="12.309235643647922"><ele>121.0</ele><time>2026-04-25T08:58:10.001Z</time></trkpt><trkpt lat="45.9798718249973" lon="12.309374677907067"><ele>120.66666666666666</ele><time>2026-04-25T08:58:13.001Z</time></trkpt><trkpt lat="45.97976008252786" lon="12.309446192772477"><ele>120.33333333333333</ele><time>2026-04-25T08:58:15.001Z</time></trkpt><trkpt lat="45.97969023050738" lon="12.309442941664631"><ele>120.0</ele><time>2026-04-25T08:58:16.001Z</time></trkpt><trkpt lat="45.97962209173346" lon="12.30943751631029"><ele>120.0</ele><time>2026-04-25T08:58:17.001Z</time></trkpt><trkpt lat="45.97955173270645" lon="12.309429995399169"><ele>120.0</ele><time>2026-04-25T08:58:18.002Z</time></trkpt><trkpt lat="45.979480099429665" lon="12.309424480169906"><ele>120.0</ele><time>2026-04-25T08:58:19.002Z</time></trkpt><trkpt lat="45.979396049998044" lon="12.309423636023622"><ele>120.0</ele><time>2026-04-25T08:58:20.002Z</time></trkpt><trkpt lat="45.97930871476731" lon="12.30943848698152"><ele>120.0</ele><time>2026-04-25T08:58:21.002Z</time></trkpt><trkpt lat="45.979230437526596" lon="12.309481862750841"><ele>120.0</ele><time>2026-04-25T08:58:22.002Z</time></trkpt><trkpt lat="45.97916962063509" lon="12.309567784481164"><ele>119.66666666666667</ele><time>2026-04-25T08:58:23.002Z</time></trkpt><trkpt lat="45.97913555096217" lon="12.309667091550022"><ele>119.33333333333334</ele><time>2026-04-25T08:58:24.002Z</time></trkpt><trkpt lat="45.97910707075312" lon="12.30977335279341"><ele>119.0</ele><time>2026-04-25T08:58:25.002Z</time></trkpt><trkpt lat="45.97908055065046" lon="12.309888807779563"><ele>118.66666666666667</ele><time>2026-04-25T08:58:26.002Z</time></trkpt><trkpt lat="45.97904110319023" lon="12.309991224992704"><ele>118.33333333333334</ele><time>2026-04-25T08:58:27.002Z</time></trkpt><trkpt lat="45.978979048707274" lon="12.310084123536797"><ele>118.0</ele><time>2026-04-25T08:58:28.002Z</time></trkpt><trkpt lat="45.978904172095746" lon="12.310145097991288"><ele>117.83333333333334</ele><time>2026-04-25T08:58:29.002Z</time></trkpt><trkpt lat="45.97882340876518" lon="12.310183031036352"><ele>117.66666666666667</ele><time>2026-04-25T08:58:30.002Z</time></trkpt><trkpt lat="45.97873422381142" lon="12.310198701330794"><ele>117.5</ele><time>2026-04-25T08:58:31.002Z</time></trkpt><trkpt lat="45.97864559616321" lon="12.310190227963403"><ele>117.33333333333334</ele><time>2026-04-25T08:58:32.002Z</time></trkpt><trkpt lat="45.97855970914207" lon="12.310167082821689"><ele>117.16666666666667</ele><time>2026-04-25T08:58:33.002Z</time></trkpt><trkpt lat="45.97847859821362" lon="12.310150848714887"><ele>117.0</ele><time>2026-04-25T08:58:34.002Z</time></trkpt><trkpt lat="45.97839774189351" lon="12.310128591453635"><ele>117.33333333333333</ele><time>2026-04-25T08:58:35.002Z</time></trkpt><trkpt lat="45.9783087054799" lon="12.310119125997698"><ele>117.66666666666666</ele><time>2026-04-25T08:58:36.002Z</time></trkpt><trkpt lat="45.97822186765857" lon="12.3101175461637"><ele>118.0</ele><time>2026-04-25T08:58:37.002Z</time></trkpt><trkpt lat="45.97813601570461" lon="12.310128507845969"><ele>118.33333333333333</ele><time>2026-04-25T08:58:38.002Z</time></trkpt><trkpt lat="45.97805243165952" lon="12.31016927143087"><ele>118.66666666666666</ele><time>2026-04-25T08:58:39.002Z</time></trkpt><trkpt lat="45.97797840079046" lon="12.310232602732471"><ele>119.0</ele><time>2026-04-25T08:58:40.002Z</time></trkpt><trkpt lat="45.97791422472459" lon="12.310311240286493"><ele>118.99999999999999</ele><time>2026-04-25T08:58:41.002Z</time></trkpt><trkpt lat="45.97785205187642" lon="12.31040413770064"><ele>119.0</ele><time>2026-04-25T08:58:42.002Z</time></trkpt><trkpt lat="45.97778586551501" lon="12.31047498788831"><ele>119.0</ele><time>2026-04-25T08:58:43.002Z</time></trkpt><trkpt lat="45.97771598666526" lon="12.310544451056646"><ele>119.0</ele><time>2026-04-25T08:58:44.002Z</time></trkpt><trkpt lat="45.977645197486176" lon="12.310602557252604"><ele>118.99999999999999</ele><time>2026-04-25T08:58:45.002Z</time></trkpt><trkpt lat="45.97756877438185" lon="12.310673653951824"><ele>119.0</ele><time>2026-04-25T08:58:46.002Z</time></trkpt><trkpt lat="45.97748493617744" lon="12.31072896449151"><ele>118.83333333333333</ele><time>2026-04-25T08:58:47.002Z</time></trkpt><trkpt lat="45.97740445284176" lon="12.31075246733754"><ele>118.66666666666666</ele><time>2026-04-25T08:58:48.002Z</time></trkpt><trkpt lat="45.97733014235531" lon="12.310751181653956"><ele>118.5</ele><time>2026-04-25T08:58:49.002Z</time></trkpt><trkpt lat="45.97725607180192" lon="12.310728461788544"><ele>118.33333333333334</ele><time>2026-04-25T08:58:50.003Z</time></trkpt><trkpt lat="45.977183262516" lon="12.310699933544873"><ele>118.16666666666667</ele><time>2026-04-25T08:58:51.003Z</time></trkpt><trkpt lat="45.977114257223505" lon="12.310654039033889"><ele>118.0</ele><time>2026-04-25T08:58:52.003Z</time></trkpt><trkpt lat="45.97704118921924" lon="12.31059783365335"><ele>118.00000000000001</ele><time>2026-04-25T08:58:53.003Z</time></trkpt><trkpt lat="45.97697062180025" lon="12.310543533040327"><ele>118.0</ele><time>2026-04-25T08:58:54.003Z</time></trkpt><trkpt lat="45.976892120342704" lon="12.31050932266577"><ele>118.0</ele><time>2026-04-25T08:58:55.003Z</time></trkpt><trkpt lat="45.976814992580785" lon="12.310479144363873"><ele>118.0</ele><time>2026-04-25T08:58:56.002Z</time></trkpt><trkpt lat="45.976731420483105" lon="12.310461525187264"><ele>118.00000000000001</ele><time>2026-04-25T08:58:57.002Z</time></trkpt><trkpt lat="45.97664963184807" lon="12.310483262826228"><ele>118.0</ele><time>2026-04-25T08:58:58.002Z</time></trkpt><trkpt lat="45.97657088903982" lon="12.310532372553757"><ele>118.00000000000001</ele><time>2026-04-25T08:58:59.002Z</time></trkpt><trkpt lat="45.97649321472637" lon="12.310569028618382"><ele>118.0</ele><time>2026-04-25T08:59:00.002Z</time></trkpt><trkpt lat="45.97641822537111" lon="12.310597404264675"><ele>118.0</ele><time>2026-04-25T08:59:01.002Z</time></trkpt><trkpt lat="45.976345591871606" lon="12.310629623250966"><ele>118.0</ele><time>2026-04-25T08:59:02.002Z</time></trkpt><trkpt lat="45.97626840994434" lon="12.310662003919296"><ele>118.00000000000001</ele><time>2026-04-25T08:59:03.002Z</time></trkpt><trkpt lat="45.97619169112675" lon="12.310705797182337"><ele>118.0</ele><time>2026-04-25T08:59:04.002Z</time></trkpt><trkpt lat="45.97612165812838" lon="12.310755598953389"><ele>118.00000000000001</ele><time>2026-04-25T08:59:05.002Z</time></trkpt><trkpt lat="45.97604737332237" lon="12.310798221905884"><ele>118.0</ele><time>2026-04-25T08:59:06.002Z</time></trkpt><trkpt lat="45.97597441917175" lon="12.31084765172342"><ele>118.0</ele><time>2026-04-25T08:59:07.002Z</time></trkpt><trkpt lat="45.975908665854035" lon="12.310921814516277"><ele>118.0</ele><time>2026-04-25T08:59:08.002Z</time></trkpt><trkpt lat="45.97585575759794" lon="12.311014217486237"><ele>118.00000000000001</ele><time>2026-04-25T08:59:09.001Z</time></trkpt><trkpt lat="45.97582154196973" lon="12.311117462913245"><ele>118.0</ele><time>2026-04-25T08:59:10.001Z</time></trkpt><trkpt lat="45.97579672843732" lon="12.311221122678614"><ele>118.00000000000001</ele><time>2026-04-25T08:59:11.001Z</time></trkpt><trkpt lat="45.975776226834974" lon="12.311333013431643"><ele>118.0</ele><time>2026-04-25T08:59:12.001Z</time></trkpt><trkpt lat="45.97576126152351" lon="12.31144932566327"><ele>118.0</ele><time>2026-04-25T08:59:13.001Z</time></trkpt><trkpt lat="45.97575498524413" lon="12.311560875766729"><ele>118.0</ele><time>2026-04-25T08:59:14.001Z</time></trkpt><trkpt lat="45.97574520466134" lon="12.311673444761421"><ele>118.00000000000001</ele><time>2026-04-25T08:59:15.001Z</time></trkpt><trkpt lat="45.97571531685329" lon="12.311776167157849"><ele>118.0</ele><time>2026-04-25T08:59:16.001Z</time></trkpt><trkpt lat="45.97566724597351" lon="12.311872055686464"><ele>118.00000000000001</ele><time>2026-04-25T08:59:17.001Z</time></trkpt><trkpt lat="45.975611130518374" lon="12.311960416206295"><ele>118.0</ele><time>2026-04-25T08:59:18.001Z</time></trkpt><trkpt lat="45.97555531622362" lon="12.312047125124963"><ele>118.0</ele><time>2026-04-25T08:59:19.001Z</time></trkpt><trkpt lat="45.97549381233622" lon="12.312131117140542"><ele>118.0</ele><time>2026-04-25T08:59:20.001Z</time></trkpt><trkpt lat="45.97543220170758" lon="12.31220589176323"><ele>118.00000000000001</ele><time>2026-04-25T08:59:21.001Z</time></trkpt><trkpt lat="45.97536213864049" lon="12.31226027437443"><ele>118.0</ele><time>2026-04-25T08:59:22.001Z</time></trkpt><trkpt lat="45.975281029734276" lon="12.31229959101733"><ele>118.00000000000001</ele><time>2026-04-25T08:59:23.001Z</time></trkpt><trkpt lat="45.97519666930835" lon="12.312317547340635"><ele>118.0</ele><time>2026-04-25T08:59:24.001Z</time></trkpt><trkpt lat="45.975110022465245" lon="12.312317008953992"><ele>118.0</ele><time>2026-04-25T08:59:25.001Z</time></trkpt><trkpt lat="45.975023526352864" lon="12.312309807176442"><ele>118.0</ele><time>2026-04-25T08:59:26.001Z</time></trkpt><trkpt lat="45.97493984444143" lon="12.312312828687402"><ele>118.00000000000001</ele><time>2026-04-25T08:59:27.001Z</time></trkpt><trkpt lat="45.97486184051866" lon="12.312343266934942"><ele>118.0</ele><time>2026-04-25T08:59:28.001Z</time></trkpt><trkpt lat="45.97478750065084" lon="12.312410201864079"><ele>118.00000000000001</ele><time>2026-04-25T08:59:29.001Z</time></trkpt><trkpt lat="45.97472189995624" lon="12.312492289702329"><ele>118.0</ele><time>2026-04-25T08:59:30.001Z</time></trkpt><trkpt lat="45.97466548302079" lon="12.31258437047962"><ele>118.0</ele><time>2026-04-25T08:59:31.001Z</time></trkpt><trkpt lat="45.97461111114979" lon="12.312675844900395"><ele>118.0</ele><time>2026-04-25T08:59:32.001Z</time></trkpt><trkpt lat="45.974562372343364" lon="12.312775159130366"><ele>118.00000000000001</ele><time>2026-04-25T08:59:33.001Z</time></trkpt><trkpt lat="45.974529969438876" lon="12.312883708413166"><ele>118.0</ele><time>2026-04-25T08:59:34.001Z</time></trkpt><trkpt lat="45.97452794187187" lon="12.313002330494164"><ele>117.83333333333334</ele><time>2026-04-25T08:59:35.001Z</time></trkpt><trkpt lat="45.974550717774505" lon="12.31311174416782"><ele>117.66666666666667</ele><time>2026-04-25T08:59:36.001Z</time></trkpt><trkpt lat="45.974556273788636" lon="12.313215253315121"><ele>117.5</ele><time>2026-04-25T08:59:37.001Z</time></trkpt><trkpt lat="45.974524299129214" lon="12.313313078430154"><ele>117.33333333333334</ele><time>2026-04-25T08:59:38.001Z</time></trkpt><trkpt lat="45.97447646372418" lon="12.31340103537698"><ele>117.16666666666667</ele><time>2026-04-25T08:59:39.001Z</time></trkpt><trkpt lat="45.974428709478175" lon="12.313488900176997"><ele>117.0</ele><time>2026-04-25T08:59:40.001Z</time></trkpt><trkpt lat="45.97440023838287" lon="12.313600073990274"><ele>117.0</ele><time>2026-04-25T08:59:41.001Z</time></trkpt><trkpt lat="45.97440947419066" lon="12.313719138727325"><ele>117.0</ele><time>2026-04-25T08:59:42.001Z</time></trkpt><trkpt lat="45.974443095959415" lon="12.313824637297634"><ele>117.0</ele><time>2026-04-25T08:59:43.001Z</time></trkpt><trkpt lat="45.97448867213672" lon="12.313930401295599"><ele>117.0</ele><time>2026-04-25T08:59:44.001Z</time></trkpt><trkpt lat="45.97452730353369" lon="12.314036388640465"><ele>117.0</ele><time>2026-04-25T08:59:45.001Z</time></trkpt><trkpt lat="45.97456283717036" lon="12.314142993861811"><ele>117.0</ele><time>2026-04-25T08:59:46.001Z</time></trkpt><trkpt lat="45.97460603124684" lon="12.314252037062387"><ele>116.66666666666667</ele><time>2026-04-25T08:59:47.001Z</time></trkpt><trkpt lat="45.97464769300631" lon="12.31435929585675"><ele>116.33333333333334</ele><time>2026-04-25T08:59:48.001Z</time></trkpt><trkpt lat="45.974687493595155" lon="12.314465445302933"><ele>116.0</ele><time>2026-04-25T08:59:49.001Z</time></trkpt><trkpt lat="45.97473304480626" lon="12.314562499971718"><ele>115.66666666666667</ele><time>2026-04-25T08:59:50.001Z</time></trkpt><trkpt lat="45.97477624873074" lon="12.314659450396482"><ele>115.33333333333334</ele><time>2026-04-25T08:59:51.001Z</time></trkpt><trkpt lat="45.974817012545344" lon="12.314743688879894"><ele>115.0</ele><time>2026-04-25T08:59:52.001Z</time></trkpt><trkpt lat="45.974857971867515" lon="12.314839433410164"><ele>114.57142857142856</ele><time>2026-04-25T08:59:53.001Z</time></trkpt><trkpt lat="45.97486689921318" lon="12.3149303815078"><ele>114.14285714285714</ele><time>2026-04-25T08:59:54.001Z</time></trkpt><trkpt lat="45.974844341635134" lon="12.315029148896224"><ele>113.71428571428571</ele><time>2026-04-25T08:59:55.001Z</time></trkpt><trkpt lat="45.97480601197221" lon="12.315115214207303"><ele>113.28571428571428</ele><time>2026-04-25T08:59:56.001Z</time></trkpt><trkpt lat="45.97474925011216" lon="12.315169277676201"><ele>112.85714285714286</ele><time>2026-04-25T08:59:57.001Z</time></trkpt><trkpt lat="45.97468956780959" lon="12.31523606723682"><ele>112.42857142857143</ele><time>2026-04-25T08:59:58.001Z</time></trkpt><trkpt lat="45.97464258943583" lon="12.315307250074182"><ele>112.0</ele><time>2026-04-25T08:59:59.001Z</time></trkpt><trkpt lat="45.97458900853689" lon="12.315382594367835"><ele>112.0</ele><time>2026-04-25T09:00:00.001Z</time></trkpt><trkpt lat="45.97453613476294" lon="12.315451594404115"><ele>111.99999999999999</ele><time>2026-04-25T09:00:01.001Z</time></trkpt><trkpt lat="45.97448411904737" lon="12.315511478760975"><ele>111.99999999999999</ele><time>2026-04-25T09:00:02.001Z</time></trkpt><trkpt lat="45.9743744701298" lon="12.315530208439732"><ele>112.0</ele><time>2026-04-25T09:00:04.001Z</time></trkpt><trkpt lat="45.97428488595085" lon="12.315420750556152"><ele>112.0</ele><time>2026-04-25T09:00:06.001Z</time></trkpt><trkpt lat="45.974213075329146" lon="12.31527193634609"><ele>112.33333333333334</ele><time>2026-04-25T09:00:08.001Z</time></trkpt><trkpt lat="45.9741733706986" lon="12.31520031230848"><ele>112.66666666666667</ele><time>2026-04-25T09:00:09.001Z</time></trkpt><trkpt lat="45.97412161287806" lon="12.31513022861417"><ele>113.0</ele><time>2026-04-25T09:00:10.001Z</time></trkpt><trkpt lat="45.974019579264606" lon="12.315046550500872"><ele>113.33333333333334</ele><time>2026-04-25T09:00:12.001Z</time></trkpt><trkpt lat="45.97390250969663" lon="12.315091833750785"><ele>113.66666666666667</ele><time>2026-04-25T09:00:14.001Z</time></trkpt><trkpt lat="45.97384075253673" lon="12.315140495769853"><ele>114.0</ele><time>2026-04-25T09:00:15.001Z</time></trkpt><trkpt lat="45.973775968905194" lon="12.315192882113458"><ele>114.0</ele><time>2026-04-25T09:00:16.001Z</time></trkpt><trkpt lat="45.97370854562951" lon="12.31523280471223"><ele>114.0</ele><time>2026-04-25T09:00:17.001Z</time></trkpt><trkpt lat="45.973637262306156" lon="12.315257175718475"><ele>114.0</ele><time>2026-04-25T09:00:18.001Z</time></trkpt><trkpt lat="45.97356265366154" lon="12.315267128161103"><ele>114.0</ele><time>2026-04-25T09:00:19.001Z</time></trkpt><trkpt lat="45.97348731857275" lon="12.315257892180307"><ele>114.0</ele><time>2026-04-25T09:00:20.001Z</time></trkpt><trkpt lat="45.973412464468204" lon="12.315232769055697"><ele>114.0</ele><time>2026-04-25T09:00:21.001Z</time></trkpt><trkpt lat="45.97333978485426" lon="12.315197716980887"><ele>114.0</ele><time>2026-04-25T09:00:22.001Z</time></trkpt><trkpt lat="45.97327334820099" lon="12.315172881671108"><ele>113.99999999999999</ele><time>2026-04-25T09:00:23.001Z</time></trkpt><trkpt lat="45.97320258403787" lon="12.315174391279285"><ele>114.0</ele><time>2026-04-25T09:00:24.001Z</time></trkpt><trkpt lat="45.97313721739935" lon="12.315225080920598"><ele>114.0</ele><time>2026-04-25T09:00:25.001Z</time></trkpt><trkpt lat="45.973077003301114" lon="12.315295462282121"><ele>113.99999999999999</ele><time>2026-04-25T09:00:26.001Z</time></trkpt><trkpt lat="45.97302819808815" lon="12.315384446861506"><ele>114.0</ele><time>2026-04-25T09:00:27.001Z</time></trkpt><trkpt lat="45.97298326775595" lon="12.315470938356656"><ele>114.0</ele><time>2026-04-25T09:00:28.001Z</time></trkpt><trkpt lat="45.972928171367634" lon="12.315539288232927"><ele>113.83333333333333</ele><time>2026-04-25T09:00:29.001Z</time></trkpt><trkpt lat="45.9728665111714" lon="12.315605171770262"><ele>113.66666666666666</ele><time>2026-04-25T09:00:30.001Z</time></trkpt><trkpt lat="45.97279831016844" lon="12.315672411515987"><ele>113.5</ele><time>2026-04-25T09:00:31.001Z</time></trkpt><trkpt lat="45.97273318775217" lon="12.315734351503902"><ele>113.33333333333333</ele><time>2026-04-25T09:00:32.001Z</time></trkpt><trkpt lat="45.9726600484144" lon="12.315793611862755"><ele>113.16666666666666</ele><time>2026-04-25T09:00:33.001Z</time></trkpt><trkpt lat="45.97258996994457" lon="12.315865054043705"><ele>113.0</ele><time>2026-04-25T09:00:34.001Z</time></trkpt><trkpt lat="45.972528842752816" lon="12.315923342098985"><ele>113.16666666666666</ele><time>2026-04-25T09:00:35.001Z</time></trkpt><trkpt lat="45.97246568339446" lon="12.31598169555057"><ele>113.33333333333333</ele><time>2026-04-25T09:00:36.001Z</time></trkpt><trkpt lat="45.97239992817803" lon="12.316050437187272"><ele>113.5</ele><time>2026-04-25T09:00:37.001Z</time></trkpt><trkpt lat="45.97233493897341" lon="12.316124484328634"><ele>113.66666666666666</ele><time>2026-04-25T09:00:38.001Z</time></trkpt><trkpt lat="45.97227736432331" lon="12.316205149011095"><ele>113.83333333333333</ele><time>2026-04-25T09:00:39.001Z</time></trkpt><trkpt lat="45.97222256762109" lon="12.316284920386346"><ele>114.0</ele><time>2026-04-25T09:00:40.001Z</time></trkpt><trkpt lat="45.97217187892558" lon="12.316373133958326"><ele>113.33333333333333</ele><time>2026-04-25T09:00:41.001Z</time></trkpt><trkpt lat="45.97211857697594" lon="12.31645193997685"><ele>112.66666666666666</ele><time>2026-04-25T09:00:42.001Z</time></trkpt><trkpt lat="45.972053412581076" lon="12.316517329148551"><ele>112.0</ele><time>2026-04-25T09:00:43.001Z</time></trkpt><trkpt lat="45.971976290361006" lon="12.316567195336226"><ele>111.33333333333333</ele><time>2026-04-25T09:00:44.001Z</time></trkpt><trkpt lat="45.97189601676964" lon="12.316597463278017"><ele>110.66666666666666</ele><time>2026-04-25T09:00:45.001Z</time></trkpt><trkpt lat="45.97181765874893" lon="12.31661974822743"><ele>110.0</ele><time>2026-04-25T09:00:46.001Z</time></trkpt><trkpt lat="45.971745123215335" lon="12.316662708980283"><ele>109.99999999999999</ele><time>2026-04-25T09:00:47.001Z</time></trkpt><trkpt lat="45.97167835243744" lon="12.31673076438969"><ele>110.0</ele><time>2026-04-25T09:00:48.001Z</time></trkpt><trkpt lat="45.9716249234027" lon="12.316822992458826"><ele>110.0</ele><time>2026-04-25T09:00:49.001Z</time></trkpt><trkpt lat="45.9715838461458" lon="12.316926717021458"><ele>110.0</ele><time>2026-04-25T09:00:50.001Z</time></trkpt><trkpt lat="45.971544648708075" lon="12.317035868499445"><ele>109.99999999999999</ele><time>2026-04-25T09:00:51.001Z</time></trkpt><trkpt lat="45.97150324959528" lon="12.317141723897315"><ele>110.0</ele><time>2026-04-25T09:00:52.001Z</time></trkpt><trkpt lat="45.971460448388456" lon="12.317245636858534"><ele>110.33333333333333</ele><time>2026-04-25T09:00:53.001Z</time></trkpt><trkpt lat="45.97140875171883" lon="12.317341065376231"><ele>110.66666666666666</ele><time>2026-04-25T09:00:54.001Z</time></trkpt><trkpt lat="45.971348934910836" lon="12.317426845358284"><ele>111.0</ele><time>2026-04-25T09:00:55.001Z</time></trkpt><trkpt lat="45.971278885159954" lon="12.317498932942701"><ele>111.33333333333334</ele><time>2026-04-25T09:00:56.001Z</time></trkpt><trkpt lat="45.97121235262335" lon="12.317568165281921"><ele>111.66666666666667</ele><time>2026-04-25T09:00:57.001Z</time></trkpt><trkpt lat="45.97114304935628" lon="12.317633132027153"><ele>112.0</ele><time>2026-04-25T09:00:58.001Z</time></trkpt><trkpt lat="45.97107244616906" lon="12.317693040004793"><ele>112.00000000000001</ele><time>2026-04-25T09:00:59.001Z</time></trkpt><trkpt lat="45.97101264837158" lon="12.317763252774302"><ele>112.0</ele><time>2026-04-25T09:01:00.001Z</time></trkpt><trkpt lat="45.9709439860913" lon="12.317827747475105"><ele>112.0</ele><time>2026-04-25T09:01:01.001Z</time></trkpt><trkpt lat="45.97087909715438" lon="12.317894055438458"><ele>112.0</ele><time>2026-04-25T09:01:02.001Z</time></trkpt><trkpt lat="45.97081539416012" lon="12.317961688176057"><ele>112.00000000000001</ele><time>2026-04-25T09:01:03.001Z</time></trkpt><trkpt lat="45.970753307977525" lon="12.318029194045474"><ele>112.0</ele><time>2026-04-25T09:01:04.001Z</time></trkpt><trkpt lat="45.97069255694512" lon="12.318090611408218"><ele>111.83333333333334</ele><time>2026-04-25T09:01:05.001Z</time></trkpt><trkpt lat="45.97063159983956" lon="12.318144519519807"><ele>111.66666666666667</ele><time>2026-04-25T09:01:06.001Z</time></trkpt><trkpt lat="45.970565128437634" lon="12.31819417901727"><ele>111.5</ele><time>2026-04-25T09:01:07.001Z</time></trkpt><trkpt lat="45.97048762027509" lon="12.31824081484128"><ele>111.33333333333334</ele><time>2026-04-25T09:01:08.001Z</time></trkpt><trkpt lat="45.97041692544789" lon="12.318278829253533"><ele>111.16666666666667</ele><time>2026-04-25T09:01:09.001Z</time></trkpt><trkpt lat="45.97034790301255" lon="12.318323522938528"><ele>111.0</ele><time>2026-04-25T09:01:10.001Z</time></trkpt><trkpt lat="45.97029158414644" lon="12.318382870110673"><ele>111.0</ele><time>2026-04-25T09:01:11.001Z</time></trkpt><trkpt lat="45.97024110636999" lon="12.318467703643002"><ele>111.0</ele><time>2026-04-25T09:01:12.001Z</time></trkpt><trkpt lat="45.97019264741665" lon="12.318554566363817"><ele>111.0</ele><time>2026-04-25T09:01:13.001Z</time></trkpt><trkpt lat="45.970141313519214" lon="12.31864248691073"><ele>111.0</ele><time>2026-04-25T09:01:14.001Z</time></trkpt><trkpt lat="45.97008867463577" lon="12.318723008020015"><ele>111.0</ele><time>2026-04-25T09:01:15.001Z</time></trkpt><trkpt lat="45.970034622924075" lon="12.318801006681115"><ele>111.0</ele><time>2026-04-25T09:01:16.001Z</time></trkpt><trkpt lat="45.96997915667803" lon="12.31887591751945"><ele>110.66666666666667</ele><time>2026-04-25T09:01:17.001Z</time></trkpt><trkpt lat="45.96991910064113" lon="12.318962691994848"><ele>110.33333333333334</ele><time>2026-04-25T09:01:18.001Z</time></trkpt><trkpt lat="45.969863585858555" lon="12.319047449396335"><ele>110.0</ele><time>2026-04-25T09:01:19.001Z</time></trkpt><trkpt lat="45.96980794483982" lon="12.319123007139773"><ele>109.66666666666667</ele><time>2026-04-25T09:01:20.001Z</time></trkpt><trkpt lat="45.96974862762706" lon="12.319202490694755"><ele>109.33333333333334</ele><time>2026-04-25T09:01:21.001Z</time></trkpt><trkpt lat="45.969693433665384" lon="12.319283664348418"><ele>109.0</ele><time>2026-04-25T09:01:22Z</time></trkpt><trkpt lat="45.9696372165919" lon="12.319362466311972"><ele>109.00000000000001</ele><time>2026-04-25T09:01:23Z</time></trkpt><trkpt lat="45.96957952324847" lon="12.31944781981297"><ele>109.0</ele><time>2026-04-25T09:01:24Z</time></trkpt><trkpt lat="45.96953099162906" lon="12.319522622334235"><ele>109.0</ele><time>2026-04-25T09:01:25Z</time></trkpt><trkpt lat="45.96947386189303" lon="12.319604208268203"><ele>109.0</ele><time>2026-04-25T09:01:26Z</time></trkpt><trkpt lat="45.96942169247435" lon="12.319683267054206"><ele>109.00000000000001</ele><time>2026-04-25T09:01:27Z</time></trkpt><trkpt lat="45.96936879730369" lon="12.319762501782666"><ele>109.0</ele><time>2026-04-25T09:01:28Z</time></trkpt><trkpt lat="45.96930996667954" lon="12.319838670345659"><ele>109.14285714285714</ele><time>2026-04-25T09:01:29Z</time></trkpt><trkpt lat="45.96925684339848" lon="12.319917087612476"><ele>109.28571428571429</ele><time>2026-04-25T09:01:30Z</time></trkpt><trkpt lat="45.969205616618346" lon="12.319989300058195"><ele>109.42857142857142</ele><time>2026-04-25T09:01:31Z</time></trkpt><trkpt lat="45.969154521227374" lon="12.320068191301951"><ele>109.57142857142857</ele><time>2026-04-25T09:01:32Z</time></trkpt><trkpt lat="45.96909764312851" lon="12.320145058656108"><ele>109.71428571428571</ele><time>2026-04-25T09:01:33Z</time></trkpt><trkpt lat="45.969046466375794" lon="12.32021972651527"><ele>109.85714285714285</ele><time>2026-04-25T09:01:34Z</time></trkpt><trkpt lat="45.968992033445225" lon="12.320291958249067"><ele>110.0</ele><time>2026-04-25T09:01:35Z</time></trkpt><trkpt lat="45.96893909063043" lon="12.320371860459177"><ele>109.99999999999999</ele><time>2026-04-25T09:01:36Z</time></trkpt><trkpt lat="45.96888979882435" lon="12.320441098923071"><ele>110.0</ele><time>2026-04-25T09:01:37Z</time></trkpt><trkpt lat="45.968837889437346" lon="12.32051562600542"><ele>110.0</ele><time>2026-04-25T09:01:38Z</time></trkpt><trkpt lat="45.96879048462231" lon="12.320590556317859"><ele>110.0</ele><time>2026-04-25T09:01:39Z</time></trkpt><trkpt lat="45.96873860949218" lon="12.320673029319538"><ele>110.0</ele><time>2026-04-25T09:01:40Z</time></trkpt><trkpt lat="45.968686158898336" lon="12.320739779277844"><ele>109.99999999999999</ele><time>2026-04-25T09:01:41Z</time></trkpt><trkpt lat="45.96863294282278" lon="12.320815260916222"><ele>110.0</ele><time>2026-04-25T09:01:42Z</time></trkpt><trkpt lat="45.96858620176732" lon="12.32089348640541"><ele>109.71428571428571</ele><time>2026-04-25T09:01:43Z</time></trkpt><trkpt lat="45.968535952504766" lon="12.320968376074799"><ele>109.42857142857143</ele><time>2026-04-25T09:01:44Z</time></trkpt><trkpt lat="45.96848271418362" lon="12.321043067201964"><ele>109.14285714285714</ele><time>2026-04-25T09:01:45Z</time></trkpt><trkpt lat="45.96843315295955" lon="12.321118453077364"><ele>108.85714285714286</ele><time>2026-04-25T09:01:46Z</time></trkpt><trkpt lat="45.968379429179954" lon="12.321190389541316"><ele>108.57142857142857</ele><time>2026-04-25T09:01:47Z</time></trkpt><trkpt lat="45.96832609948112" lon="12.321262776742634"><ele>108.28571428571428</ele><time>2026-04-25T09:01:48Z</time></trkpt><trkpt lat="45.96827321036077" lon="12.321336671200081"><ele>108.0</ele><time>2026-04-25T09:01:49Z</time></trkpt><trkpt lat="45.96822091964912" lon="12.321410997044884"><ele>108.0</ele><time>2026-04-25T09:01:50Z</time></trkpt><trkpt lat="45.96816920505875" lon="12.321495184091104"><ele>108.0</ele><time>2026-04-25T09:01:51Z</time></trkpt><trkpt lat="45.96812034826366" lon="12.321574980939026"><ele>108.0</ele><time>2026-04-25T09:01:52Z</time></trkpt><trkpt lat="45.96806820812271" lon="12.3216490403732"><ele>108.0</ele><time>2026-04-25T09:01:53Z</time></trkpt><trkpt lat="45.968012637877415" lon="12.321719641176077"><ele>108.0</ele><time>2026-04-25T09:01:54Z</time></trkpt><trkpt lat="45.96796132273633" lon="12.32179919239718"><ele>108.0</ele><time>2026-04-25T09:01:55Z</time></trkpt><trkpt lat="45.96790574067383" lon="12.321880448859925"><ele>108.0</ele><time>2026-04-25T09:01:56Z</time></trkpt><trkpt lat="45.967852833975996" lon="12.321955926008798"><ele>108.0</ele><time>2026-04-25T09:01:57Z</time></trkpt><trkpt lat="45.96779881410644" lon="12.322034640066418"><ele>108.0</ele><time>2026-04-25T09:01:58Z</time></trkpt><trkpt lat="45.96773825266045" lon="12.322112634177062"><ele>108.0</ele><time>2026-04-25T09:01:59Z</time></trkpt><trkpt lat="45.96768185557449" lon="12.322183482737223"><ele>108.0</ele><time>2026-04-25T09:02:00Z</time></trkpt><trkpt lat="45.96762781941613" lon="12.322256163885593"><ele>108.0</ele><time>2026-04-25T09:02:01Z</time></trkpt><trkpt lat="45.967520982570065" lon="12.322381575651407"><ele>108.0</ele><time>2026-04-25T09:02:03Z</time></trkpt><trkpt lat="45.96745976964145" lon="12.322442724132541"><ele>108.0</ele><time>2026-04-25T09:02:04Z</time></trkpt><trkpt lat="45.967403982267925" lon="12.322486812987039"><ele>108.0</ele><time>2026-04-25T09:02:05Z</time></trkpt><trkpt lat="45.967345884858794" lon="12.32253646341119"><ele>108.0</ele><time>2026-04-25T09:02:06Z</time></trkpt><trkpt lat="45.96727931303468" lon="12.32258739795303"><ele>108.0</ele><time>2026-04-25T09:02:07Z</time></trkpt><trkpt lat="45.96721605467497" lon="12.322634782613946"><ele>108.0</ele><time>2026-04-25T09:02:08Z</time></trkpt><trkpt lat="45.96714850918086" lon="12.322676039069938"><ele>108.0</ele><time>2026-04-25T09:02:09Z</time></trkpt><trkpt lat="45.967078603734386" lon="12.322722712509764"><ele>108.0</ele><time>2026-04-25T09:02:10Z</time></trkpt><trkpt lat="45.967011334470115" lon="12.322769453797427"><ele>108.0</ele><time>2026-04-25T09:02:11Z</time></trkpt><trkpt lat="45.966940671786176" lon="12.322814566216211"><ele>108.0</ele><time>2026-04-25T09:02:12Z</time></trkpt><trkpt lat="45.966871798472866" lon="12.322859037131046"><ele>108.0</ele><time>2026-04-25T09:02:13Z</time></trkpt><trkpt lat="45.96680160271041" lon="12.32291678170581"><ele>108.0</ele><time>2026-04-25T09:02:14Z</time></trkpt><trkpt lat="45.96673625426243" lon="12.322962232535584"><ele>108.0</ele><time>2026-04-25T09:02:15Z</time></trkpt><trkpt lat="45.96666837136585" lon="12.323010004763006"><ele>107.83333333333333</ele><time>2026-04-25T09:02:16Z</time></trkpt><trkpt lat="45.96660045836146" lon="12.323052049543197"><ele>107.66666666666666</ele><time>2026-04-25T09:02:17Z</time></trkpt><trkpt lat="45.96652701252036" lon="12.323101864174046"><ele>107.5</ele><time>2026-04-25T09:02:18Z</time></trkpt><trkpt lat="45.96640760082908" lon="12.323186863691884"><ele>107.33333333333333</ele><time>2026-04-25T09:02:20Z</time></trkpt><trkpt lat="45.966333212913916" lon="12.323231524202175"><ele>107.16666666666666</ele><time>2026-04-25T09:02:21Z</time></trkpt><trkpt lat="45.966268040264055" lon="12.32326880296313"><ele>107.0</ele><time>2026-04-25T09:02:22Z</time></trkpt><trkpt lat="45.96616941345043" lon="12.323372921289494"><ele>106.99999999999999</ele><time>2026-04-25T09:02:24Z</time></trkpt><trkpt lat="45.96607326862868" lon="12.323363312745208"><ele>107.0</ele><time>2026-04-25T09:02:26Z</time></trkpt><trkpt lat="45.96597462291851" lon="12.323307618637944"><ele>107.0</ele><time>2026-04-25T09:02:28Z</time></trkpt><trkpt lat="45.96591490621813" lon="12.323270786759734"><ele>107.0</ele><time>2026-04-25T09:02:29Z</time></trkpt><trkpt lat="45.96584433020326" lon="12.323244708599972"><ele>106.99999999999999</ele><time>2026-04-25T09:02:30Z</time></trkpt><trkpt lat="45.96577637806001" lon="12.32321603659454"><ele>107.0</ele><time>2026-04-25T09:02:31Z</time></trkpt><trkpt lat="45.96571520409378" lon="12.323169386060455"><ele>106.66666666666666</ele><time>2026-04-25T09:02:32Z</time></trkpt><trkpt lat="45.965644584769265" lon="12.323130498133025"><ele>106.33333333333333</ele><time>2026-04-25T09:02:33Z</time></trkpt><trkpt lat="45.96556650949424" lon="12.32313954408704"><ele>106.0</ele><time>2026-04-25T09:02:35Z</time></trkpt><trkpt lat="45.965545296050486" lon="12.323266103529537"><ele>105.66666666666666</ele><time>2026-04-25T09:02:36Z</time></trkpt><trkpt lat="45.96555852265277" lon="12.323449063642796"><ele>105.33333333333333</ele><time>2026-04-25T09:02:38Z</time></trkpt><trkpt lat="45.96557768095439" lon="12.32354086656245"><ele>105.0</ele><time>2026-04-25T09:02:39Z</time></trkpt><trkpt lat="45.96558278224566" lon="12.323637215408835"><ele>105.0</ele><time>2026-04-25T09:02:40Z</time></trkpt><trkpt lat="45.965569157306085" lon="12.323749462706818"><ele>105.0</ele><time>2026-04-25T09:02:41Z</time></trkpt><trkpt lat="45.96552755348074" lon="12.32385708237909"><ele>105.0</ele><time>2026-04-25T09:02:42Z</time></trkpt><trkpt lat="45.96548615082615" lon="12.32396634887877"><ele>105.0</ele><time>2026-04-25T09:02:43Z</time></trkpt><trkpt lat="45.96545626129417" lon="12.324068773573616"><ele>105.0</ele><time>2026-04-25T09:02:44Z</time></trkpt><trkpt lat="45.96542600187215" lon="12.32415699681579"><ele>105.0</ele><time>2026-04-25T09:02:45Z</time></trkpt><trkpt lat="45.96539226705402" lon="12.324264225773504"><ele>105.0</ele><time>2026-04-25T09:02:46Z</time></trkpt><trkpt lat="45.965358401227" lon="12.324378485262942"><ele>105.0</ele><time>2026-04-25T09:02:47Z</time></trkpt><trkpt lat="45.96534129359939" lon="12.324501417072339"><ele>105.0</ele><time>2026-04-25T09:02:48Z</time></trkpt><trkpt lat="45.96531213233781" lon="12.324599005730231"><ele>105.0</ele><time>2026-04-25T09:02:49Z</time></trkpt><trkpt lat="45.96529865063857" lon="12.324722695910188"><ele>105.0</ele><time>2026-04-25T09:02:50Z</time></trkpt><trkpt lat="45.9652766315813" lon="12.324837169415087"><ele>105.0</ele><time>2026-04-25T09:02:51Z</time></trkpt><trkpt lat="45.96525831425681" lon="12.324944692689625"><ele>105.0</ele><time>2026-04-25T09:02:52Z</time></trkpt><trkpt lat="45.96523106802108" lon="12.325051961888041"><ele>105.0</ele><time>2026-04-25T09:02:53Z</time></trkpt><trkpt lat="45.96519973088607" lon="12.325158230674019"><ele>105.0</ele><time>2026-04-25T09:02:54Z</time></trkpt><trkpt lat="45.96516678612716" lon="12.32525772979816"><ele>105.0</ele><time>2026-04-25T09:02:55Z</time></trkpt><trkpt lat="45.965129634787466" lon="12.325355184932162"><ele>105.0</ele><time>2026-04-25T09:02:56Z</time></trkpt><trkpt lat="45.96508704299226" lon="12.325449313017689"><ele>105.0</ele><time>2026-04-25T09:02:57Z</time></trkpt><trkpt lat="45.96504477817529" lon="12.325545156761818"><ele>104.66666666666667</ele><time>2026-04-25T09:02:58Z</time></trkpt><trkpt lat="45.96500987051779" lon="12.32564450867424"><ele>104.33333333333334</ele><time>2026-04-25T09:02:59Z</time></trkpt><trkpt lat="45.96497680828778" lon="12.325741228637636"><ele>104.0</ele><time>2026-04-25T09:03:00Z</time></trkpt><trkpt lat="45.96494303567387" lon="12.325827870182687"><ele>103.66666666666667</ele><time>2026-04-25T09:03:01Z</time></trkpt><trkpt lat="45.964909439069416" lon="12.325926971472814"><ele>103.33333333333334</ele><time>2026-04-25T09:03:02.001Z</time></trkpt><trkpt lat="45.96487661623389" lon="12.326026712209513"><ele>103.0</ele><time>2026-04-25T09:03:03.001Z</time></trkpt><trkpt lat="45.96484175346517" lon="12.326123067455054"><ele>103.00000000000001</ele><time>2026-04-25T09:03:04.001Z</time></trkpt><trkpt lat="45.96480448669893" lon="12.32621753953187"><ele>103.0</ele><time>2026-04-25T09:03:05.001Z</time></trkpt><trkpt lat="45.964762174592686" lon="12.326309655842632"><ele>103.0</ele><time>2026-04-25T09:03:06.001Z</time></trkpt><trkpt lat="45.96470868705252" lon="12.326400400784843"><ele>103.0</ele><time>2026-04-25T09:03:07.001Z</time></trkpt><trkpt lat="45.96464902463746" lon="12.326561050466584"><ele>103.00000000000001</ele><time>2026-04-25T09:03:09Z</time></trkpt><trkpt lat="45.964633507957714" lon="12.326650892540416"><ele>103.0</ele><time>2026-04-25T09:03:10Z</time></trkpt><trkpt lat="45.964617801968686" lon="12.326788851667843"><ele>102.99999999999999</ele><time>2026-04-25T09:03:12Z</time></trkpt><trkpt lat="45.96464957264935" lon="12.326874135575972"><ele>103.0</ele><time>2026-04-25T09:03:13Z</time></trkpt><trkpt lat="45.96470030066332" lon="12.326941677471197"><ele>103.0</ele><time>2026-04-25T09:03:14Z</time></trkpt><trkpt lat="45.96474321759315" lon="12.327015736893607"><ele>103.0</ele><time>2026-04-25T09:03:15Z</time></trkpt><trkpt lat="45.96478478616542" lon="12.327105340970556"><ele>103.0</ele><time>2026-04-25T09:03:16Z</time></trkpt><trkpt lat="45.9648192682267" lon="12.327193068481284"><ele>102.99999999999999</ele><time>2026-04-25T09:03:17Z</time></trkpt><trkpt lat="45.96486253893403" lon="12.327295860378088"><ele>103.0</ele><time>2026-04-25T09:03:18Z</time></trkpt><trkpt lat="45.964915918496786" lon="12.327393900266614"><ele>103.16666666666667</ele><time>2026-04-25T09:03:19Z</time></trkpt><trkpt lat="45.96495414577173" lon="12.327506796520368"><ele>103.33333333333334</ele><time>2026-04-25T09:03:20Z</time></trkpt><trkpt lat="45.96498634925248" lon="12.327615327972946"><ele>103.5</ele><time>2026-04-25T09:03:21Z</time></trkpt><trkpt lat="45.96501151631826" lon="12.327742210561771"><ele>103.66666666666666</ele><time>2026-04-25T09:03:22Z</time></trkpt><trkpt lat="45.96504178921721" lon="12.327846995830765"><ele>103.83333333333333</ele><time>2026-04-25T09:03:23Z</time></trkpt><trkpt lat="45.96508563816378" lon="12.327945946496934"><ele>104.0</ele><time>2026-04-25T09:03:24Z</time></trkpt><trkpt lat="45.965122872712996" lon="12.328046313168608"><ele>103.83333333333333</ele><time>2026-04-25T09:03:25Z</time></trkpt><trkpt lat="45.965163216732165" lon="12.32815593840853"><ele>103.66666666666666</ele><time>2026-04-25T09:03:26Z</time></trkpt><trkpt lat="45.96520195696866" lon="12.328263234471665"><ele>103.5</ele><time>2026-04-25T09:03:27Z</time></trkpt><trkpt lat="45.965236213240175" lon="12.32837082069406"><ele>103.33333333333334</ele><time>2026-04-25T09:03:28Z</time></trkpt><trkpt lat="45.96526667848171" lon="12.328470393131395"><ele>103.16666666666667</ele><time>2026-04-25T09:03:29Z</time></trkpt><trkpt lat="45.965295597119635" lon="12.328573815953225"><ele>103.0</ele><time>2026-04-25T09:03:30Z</time></trkpt><trkpt lat="45.96531912900856" lon="12.328681694622844"><ele>102.99999999999999</ele><time>2026-04-25T09:03:31Z</time></trkpt><trkpt lat="45.96533256263171" lon="12.328790572157256"><ele>103.0</ele><time>2026-04-25T09:03:32Z</time></trkpt><trkpt lat="45.96534415889804" lon="12.32889623357697"><ele>103.0</ele><time>2026-04-25T09:03:33Z</time></trkpt><trkpt lat="45.965361757958384" lon="12.328999449921145"><ele>103.0</ele><time>2026-04-25T09:03:34Z</time></trkpt><trkpt lat="45.965385275436645" lon="12.329095027697967"><ele>103.0</ele><time>2026-04-25T09:03:35Z</time></trkpt><trkpt lat="45.96539407743802" lon="12.32919861155249"><ele>102.99999999999999</ele><time>2026-04-25T09:03:36Z</time></trkpt><trkpt lat="45.96540199782255" lon="12.32930179634588"><ele>103.0</ele><time>2026-04-25T09:03:37Z</time></trkpt><trkpt lat="45.965389708447155" lon="12.329407193988848"><ele>102.99999999999999</ele><time>2026-04-25T09:03:38Z</time></trkpt><trkpt lat="45.96536459687466" lon="12.32949173724098"><ele>103.0</ele><time>2026-04-25T09:03:39Z</time></trkpt><trkpt lat="45.96532433474695" lon="12.329566181179024"><ele>103.0</ele><time>2026-04-25T09:03:40Z</time></trkpt><trkpt lat="45.96528369469752" lon="12.329660025246072"><ele>103.0</ele><time>2026-04-25T09:03:41Z</time></trkpt><trkpt lat="45.96526487661303" lon="12.329759288929612"><ele>103.0</ele><time>2026-04-25T09:03:42Z</time></trkpt><trkpt lat="45.965265231432845" lon="12.329864244507862"><ele>102.99999999999999</ele><time>2026-04-25T09:03:43Z</time></trkpt><trkpt lat="45.965300264871566" lon="12.32995805689581"><ele>103.0</ele><time>2026-04-25T09:03:44Z</time></trkpt><trkpt lat="45.96535785339987" lon="12.330028411489737"><ele>103.00000000000001</ele><time>2026-04-25T09:03:45Z</time></trkpt><trkpt lat="45.965423087224366" lon="12.330087538330943"><ele>103.0</ele><time>2026-04-25T09:03:46Z</time></trkpt><trkpt lat="45.96548324748001" lon="12.33015281254573"><ele>103.0</ele><time>2026-04-25T09:03:47Z</time></trkpt><trkpt lat="45.96553916115005" lon="12.330226963088805"><ele>103.0</ele><time>2026-04-25T09:03:48Z</time></trkpt><trkpt lat="45.96559407549513" lon="12.330294473740496"><ele>103.00000000000001</ele><time>2026-04-25T09:03:49Z</time></trkpt><trkpt lat="45.96564808760806" lon="12.330372770335648"><ele>103.0</ele><time>2026-04-25T09:03:50Z</time></trkpt><trkpt lat="45.9656884011993" lon="12.33046741505466"><ele>102.66666666666667</ele><time>2026-04-25T09:03:51Z</time></trkpt><trkpt lat="45.96570040176255" lon="12.330565653126051"><ele>102.33333333333334</ele><time>2026-04-25T09:03:52Z</time></trkpt><trkpt lat="45.96566726487749" lon="12.330667034624842"><ele>102.0</ele><time>2026-04-25T09:03:53Z</time></trkpt><trkpt lat="45.96561386645463" lon="12.3307641830037"><ele>101.66666666666666</ele><time>2026-04-25T09:03:54Z</time></trkpt><trkpt lat="45.96555077436808" lon="12.330840683593474"><ele>101.33333333333333</ele><time>2026-04-25T09:03:55Z</time></trkpt><trkpt lat="45.965488363157256" lon="12.330907425413129"><ele>101.0</ele><time>2026-04-25T09:03:56Z</time></trkpt><trkpt lat="45.96542737363912" lon="12.330976602235813"><ele>101.0</ele><time>2026-04-25T09:03:57Z</time></trkpt><trkpt lat="45.965372209321714" lon="12.331056908895857"><ele>101.0</ele><time>2026-04-25T09:03:58Z</time></trkpt><trkpt lat="45.9653184603029" lon="12.331128329977918"><ele>101.0</ele><time>2026-04-25T09:03:59Z</time></trkpt><trkpt lat="45.96527184862684" lon="12.331198252603548"><ele>101.0</ele><time>2026-04-25T09:04:00Z</time></trkpt><trkpt lat="45.96523677261997" lon="12.331289543822496"><ele>101.0</ele><time>2026-04-25T09:04:01Z</time></trkpt><trkpt lat="45.9652327239887" lon="12.331391992777508"><ele>101.0</ele><time>2026-04-25T09:04:02Z</time></trkpt><trkpt lat="45.96526435533356" lon="12.331500386068285"><ele>101.0</ele><time>2026-04-25T09:04:03Z</time></trkpt><trkpt lat="45.96532412736157" lon="12.331580244871851"><ele>101.0</ele><time>2026-04-25T09:04:04Z</time></trkpt><trkpt lat="45.96538932341717" lon="12.331635547126599"><ele>101.0</ele><time>2026-04-25T09:04:05Z</time></trkpt><trkpt lat="45.965450977525954" lon="12.331696828475003"><ele>101.0</ele><time>2026-04-25T09:04:06Z</time></trkpt><trkpt lat="45.96548594535118" lon="12.331780061601002"><ele>101.0</ele><time>2026-04-25T09:04:07Z</time></trkpt><trkpt lat="45.96548723745889" lon="12.331881057757222"><ele>101.0</ele><time>2026-04-25T09:04:08Z</time></trkpt><trkpt lat="45.96546410267253" lon="12.331978593313224"><ele>101.0</ele><time>2026-04-25T09:04:09Z</time></trkpt><trkpt lat="45.96541899083807" lon="12.332069469614947"><ele>101.0</ele><time>2026-04-25T09:04:10Z</time></trkpt><trkpt lat="45.96537231093354" lon="12.332162892963684"><ele>100.85714285714286</ele><time>2026-04-25T09:04:11Z</time></trkpt><trkpt lat="45.965329615165594" lon="12.332245854516536"><ele>100.71428571428571</ele><time>2026-04-25T09:04:12Z</time></trkpt><trkpt lat="45.96529569867229" lon="12.332322234968052"><ele>100.57142857142858</ele><time>2026-04-25T09:04:13Z</time></trkpt><trkpt lat="45.965264939824536" lon="12.332405969183501"><ele>100.42857142857143</ele><time>2026-04-25T09:04:14Z</time></trkpt><trkpt lat="45.96526497602669" lon="12.332505177368835"><ele>100.28571428571429</ele><time>2026-04-25T09:04:15Z</time></trkpt><trkpt lat="45.96535818238669" lon="12.332602553808051"><ele>100.14285714285715</ele><time>2026-04-25T09:04:17Z</time></trkpt><trkpt lat="45.965415684494026" lon="12.332643102721763"><ele>100.0</ele><time>2026-04-25T09:04:18Z</time></trkpt><trkpt lat="45.96546551716075" lon="12.332709324972297"><ele>100.00000000000001</ele><time>2026-04-25T09:04:19Z</time></trkpt><trkpt lat="45.96551560557498" lon="12.332782816592776"><ele>100.0</ele><time>2026-04-25T09:04:20Z</time></trkpt><trkpt lat="45.965571795078716" lon="12.33283398434786"><ele>100.0</ele><time>2026-04-25T09:04:21Z</time></trkpt><trkpt lat="45.96564682324638" lon="12.332852980060569"><ele>100.0</ele><time>2026-04-25T09:04:22Z</time></trkpt><trkpt lat="45.9657115738593" lon="12.332833916905422"><ele>100.0</ele><time>2026-04-25T09:04:23Z</time></trkpt><trkpt lat="45.9657888647923" lon="12.332814008739483"><ele>100.00000000000001</ele><time>2026-04-25T09:04:24Z</time></trkpt><trkpt lat="45.96585244903675" lon="12.332817932686188"><ele>100.0</ele><time>2026-04-25T09:04:25Z</time></trkpt><trkpt lat="45.965923261494986" lon="12.332787561701279"><ele>100.2</ele><time>2026-04-25T09:04:26Z</time></trkpt><trkpt lat="45.96601043445024" lon="12.332829480423635"><ele>100.4</ele><time>2026-04-25T09:04:28Z</time></trkpt><trkpt lat="45.96607030728697" lon="12.332874980496126"><ele>100.6</ele><time>2026-04-25T09:04:29Z</time></trkpt><trkpt lat="45.966121259595226" lon="12.332935148960923"><ele>100.8</ele><time>2026-04-25T09:04:30Z</time></trkpt><trkpt lat="45.96613635393729" lon="12.333128594082163"><ele>101.0</ele><time>2026-04-25T09:04:32Z</time></trkpt><trkpt lat="45.96615116418789" lon="12.333304293552848"><ele>100.99999999999999</ele><time>2026-04-25T09:04:34Z</time></trkpt><trkpt lat="45.96616352373396" lon="12.333396774393854"><ele>101.0</ele><time>2026-04-25T09:04:35Z</time></trkpt><trkpt lat="45.96617344754117" lon="12.333486267276951"><ele>101.0</ele><time>2026-04-25T09:04:36Z</time></trkpt><trkpt lat="45.966206104909965" lon="12.3336633552526"><ele>101.0</ele><time>2026-04-25T09:04:38Z</time></trkpt><trkpt lat="45.966225426980145" lon="12.333798183305499"><ele>100.99999999999999</ele><time>2026-04-25T09:04:40Z</time></trkpt><trkpt lat="45.966275425640475" lon="12.333876055433741"><ele>101.0</ele><time>2026-04-25T09:04:41Z</time></trkpt><trkpt lat="45.9662951905381" lon="12.333996814395112"><ele>101.0</ele><time>2026-04-25T09:04:43Z</time></trkpt><trkpt lat="45.966328973874795" lon="12.334074695154008"><ele>101.0</ele><time>2026-04-25T09:04:44Z</time></trkpt><trkpt lat="45.966313239208574" lon="12.334227856996577"><ele>101.0</ele><time>2026-04-25T09:04:46Z</time></trkpt><trkpt lat="45.966284094318254" lon="12.334311574288279"><ele>101.0</ele><time>2026-04-25T09:04:47Z</time></trkpt><trkpt lat="45.96621003352193" lon="12.334451890719976"><ele>101.0</ele><time>2026-04-25T09:04:49Z</time></trkpt><trkpt lat="45.96611329947507" lon="12.33456563328879"><ele>101.0</ele><time>2026-04-25T09:04:51Z</time></trkpt><trkpt lat="45.966064625181886" lon="12.334636362598957"><ele>101.0</ele><time>2026-04-25T09:04:52Z</time></trkpt><trkpt lat="45.96601897070227" lon="12.334701461420314"><ele>101.0</ele><time>2026-04-25T09:04:53Z</time></trkpt><trkpt lat="45.96596496972288" lon="12.33475787539685"><ele>101.0</ele><time>2026-04-25T09:04:54Z</time></trkpt><trkpt lat="45.965904812463634" lon="12.334824067928917"><ele>101.0</ele><time>2026-04-25T09:04:55Z</time></trkpt><trkpt lat="45.96585340932979" lon="12.334882600829145"><ele>101.0</ele><time>2026-04-25T09:04:56Z</time></trkpt><trkpt lat="45.965794549184764" lon="12.334943842777466"><ele>101.0</ele><time>2026-04-25T09:04:57Z</time></trkpt><trkpt lat="45.965698810081314" lon="12.335066531427405"><ele>100.83333333333333</ele><time>2026-04-25T09:04:59Z</time></trkpt><trkpt lat="45.965652839290115" lon="12.335141778232106"><ele>100.66666666666666</ele><time>2026-04-25T09:05:00Z</time></trkpt><trkpt lat="45.965600169035916" lon="12.335224743210745"><ele>100.5</ele><time>2026-04-25T09:05:01Z</time></trkpt><trkpt lat="45.96555361810344" lon="12.335312594329944"><ele>100.33333333333334</ele><time>2026-04-25T09:05:02Z</time></trkpt><trkpt lat="45.965508425986044" lon="12.335400776536957"><ele>100.16666666666667</ele><time>2026-04-25T09:05:03Z</time></trkpt><trkpt lat="45.96545943901493" lon="12.3354936395767"><ele>100.0</ele><time>2026-04-25T09:05:04Z</time></trkpt><trkpt lat="45.96540973755893" lon="12.335582771822347"><ele>99.83333333333334</ele><time>2026-04-25T09:05:05Z</time></trkpt><trkpt lat="45.96535623589875" lon="12.33567081941429"><ele>99.66666666666667</ele><time>2026-04-25T09:05:05.999Z</time></trkpt><trkpt lat="45.965301718715416" lon="12.335744270264572"><ele>99.5</ele><time>2026-04-25T09:05:06.999Z</time></trkpt><trkpt lat="45.9652462496083" lon="12.33582893757433"><ele>99.33333333333334</ele><time>2026-04-25T09:05:08Z</time></trkpt><trkpt lat="45.96519226367192" lon="12.335913071851182"><ele>99.16666666666667</ele><time>2026-04-25T09:05:09Z</time></trkpt><trkpt lat="45.96513623989104" lon="12.335993013694429"><ele>99.0</ele><time>2026-04-25T09:05:10Z</time></trkpt><trkpt lat="45.96507997199429" lon="12.336077237094061"><ele>99.0</ele><time>2026-04-25T09:05:11Z</time></trkpt><trkpt lat="45.96502704273322" lon="12.336163216555706"><ele>99.0</ele><time>2026-04-25T09:05:12Z</time></trkpt><trkpt lat="45.96497350842003" lon="12.336244051452605"><ele>99.0</ele><time>2026-04-25T09:05:13Z</time></trkpt><trkpt lat="45.964920951152315" lon="12.336327956878355"><ele>99.0</ele><time>2026-04-25T09:05:14Z</time></trkpt><trkpt lat="45.964862882254494" lon="12.336407950909408"><ele>99.0</ele><time>2026-04-25T09:05:15Z</time></trkpt><trkpt lat="45.96480742156056" lon="12.336476298325701"><ele>99.0</ele><time>2026-04-25T09:05:16Z</time></trkpt><trkpt lat="45.964748801237214" lon="12.3365489973603"><ele>98.66666666666667</ele><time>2026-04-25T09:05:17Z</time></trkpt><trkpt lat="45.96469103406235" lon="12.336621406800997"><ele>98.33333333333334</ele><time>2026-04-25T09:05:18Z</time></trkpt><trkpt lat="45.96463449015144" lon="12.336691946754266"><ele>98.0</ele><time>2026-04-25T09:05:19Z</time></trkpt><trkpt lat="45.96458125610341" lon="12.336768010908317"><ele>97.66666666666667</ele><time>2026-04-25T09:05:20Z</time></trkpt><trkpt lat="45.96453503241339" lon="12.336843988995872"><ele>97.33333333333334</ele><time>2026-04-25T09:05:21Z</time></trkpt><trkpt lat="45.96448609179877" lon="12.336929124128249"><ele>97.0</ele><time>2026-04-25T09:05:22Z</time></trkpt><trkpt lat="45.96443545056169" lon="12.337012103707657"><ele>97.0</ele><time>2026-04-25T09:05:23Z</time></trkpt><trkpt lat="45.96438872036242" lon="12.337091252797512"><ele>97.0</ele><time>2026-04-25T09:05:24Z</time></trkpt><trkpt lat="45.96434061111919" lon="12.337171473113546"><ele>97.0</ele><time>2026-04-25T09:05:25Z</time></trkpt><trkpt lat="45.96429252165471" lon="12.337253424468388"><ele>97.0</ele><time>2026-04-25T09:05:26Z</time></trkpt><trkpt lat="45.964246068267045" lon="12.337331429008477"><ele>97.0</ele><time>2026-04-25T09:05:27Z</time></trkpt><trkpt lat="45.964201385819145" lon="12.337417328455325"><ele>97.0</ele><time>2026-04-25T09:05:28Z</time></trkpt><trkpt lat="45.964161887202984" lon="12.337502947923818"><ele>97.0</ele><time>2026-04-25T09:05:29Z</time></trkpt><trkpt lat="45.96412398544243" lon="12.337591375965001"><ele>96.71428571428571</ele><time>2026-04-25T09:05:30Z</time></trkpt><trkpt lat="45.96407560100836" lon="12.337659211615033"><ele>96.42857142857143</ele><time>2026-04-25T09:05:31Z</time></trkpt><trkpt lat="45.96402908705571" lon="12.337730053439575"><ele>96.14285714285714</ele><time>2026-04-25T09:05:32Z</time></trkpt><trkpt lat="45.96397763731443" lon="12.337803063580495"><ele>95.85714285714286</ele><time>2026-04-25T09:05:33Z</time></trkpt><trkpt lat="45.963921193755105" lon="12.337871330357336"><ele>95.57142857142858</ele><time>2026-04-25T09:05:34Z</time></trkpt><trkpt lat="45.96386876312778" lon="12.337939942923102"><ele>95.28571428571429</ele><time>2026-04-25T09:05:35Z</time></trkpt><trkpt lat="45.96382808609492" lon="12.33800998425591"><ele>95.0</ele><time>2026-04-25T09:05:36Z</time></trkpt><trkpt lat="45.9637858723711" lon="12.338087459555215"><ele>95.0</ele><time>2026-04-25T09:05:37Z</time></trkpt><trkpt lat="45.96373615513952" lon="12.338157175565504"><ele>95.0</ele><time>2026-04-25T09:05:38Z</time></trkpt><trkpt lat="45.9636812106204" lon="12.338232638266296"><ele>95.0</ele><time>2026-04-25T09:05:39Z</time></trkpt><trkpt lat="45.96362948054892" lon="12.338312523250767"><ele>95.0</ele><time>2026-04-25T09:05:40Z</time></trkpt><trkpt lat="45.963585270829945" lon="12.338396096964866"><ele>95.0</ele><time>2026-04-25T09:05:41Z</time></trkpt><trkpt lat="45.963536222390765" lon="12.33847684180487"><ele>95.0</ele><time>2026-04-25T09:05:42Z</time></trkpt><trkpt lat="45.96349074606527" lon="12.338559292361612"><ele>95.0</ele><time>2026-04-25T09:05:43Z</time></trkpt><trkpt lat="45.96340119323863" lon="12.33870816734006"><ele>95.16666666666667</ele><time>2026-04-25T09:05:45Z</time></trkpt><trkpt lat="45.963362105115976" lon="12.338805037397867"><ele>95.33333333333334</ele><time>2026-04-25T09:05:46Z</time></trkpt><trkpt lat="45.96330750428606" lon="12.338897451077372"><ele>95.5</ele><time>2026-04-25T09:05:47Z</time></trkpt><trkpt lat="45.963261989564145" lon="12.338984266522363"><ele>95.66666666666667</ele><time>2026-04-25T09:05:48Z</time></trkpt><trkpt lat="45.96321773676814" lon="12.339071996329457"><ele>95.83333333333333</ele><time>2026-04-25T09:05:49Z</time></trkpt><trkpt lat="45.96316743240252" lon="12.339162145147354"><ele>96.0</ele><time>2026-04-25T09:05:50Z</time></trkpt><trkpt lat="45.963119855755245" lon="12.339260165615416"><ele>96.0</ele><time>2026-04-25T09:05:51Z</time></trkpt><trkpt lat="45.963082463566536" lon="12.339357838014221"><ele>96.0</ele><time>2026-04-25T09:05:52Z</time></trkpt><trkpt lat="45.96304111987808" lon="12.33945301982067"><ele>96.0</ele><time>2026-04-25T09:05:53Z</time></trkpt><trkpt lat="45.963000834905124" lon="12.33954729981468"><ele>96.0</ele><time>2026-04-25T09:05:54Z</time></trkpt><trkpt lat="45.96295421838059" lon="12.339639963670544"><ele>96.0</ele><time>2026-04-25T09:05:55Z</time></trkpt><trkpt lat="45.962906445350875" lon="12.33973637035543"><ele>96.0</ele><time>2026-04-25T09:05:56Z</time></trkpt><trkpt lat="45.96286603236493" lon="12.339833514353998"><ele>95.83333333333333</ele><time>2026-04-25T09:05:57Z</time></trkpt><trkpt lat="45.9628420693091" lon="12.339936964969219"><ele>95.66666666666667</ele><time>2026-04-25T09:05:58Z</time></trkpt><trkpt lat="45.96282569776" lon="12.340049668850503"><ele>95.5</ele><time>2026-04-25T09:05:59Z</time></trkpt><trkpt lat="45.962811876884814" lon="12.34016609155455"><ele>95.33333333333334</ele><time>2026-04-25T09:06:00Z</time></trkpt><trkpt lat="45.962793491433764" lon="12.340277917248004"><ele>95.16666666666667</ele><time>2026-04-25T09:06:01Z</time></trkpt><trkpt lat="45.96277684878406" lon="12.340387168275688"><ele>95.0</ele><time>2026-04-25T09:06:02Z</time></trkpt><trkpt lat="45.9627608280317" lon="12.340499315755599"><ele>95.16666666666667</ele><time>2026-04-25T09:06:03Z</time></trkpt><trkpt lat="45.96274744679412" lon="12.340605726917092"><ele>95.33333333333334</ele><time>2026-04-25T09:06:04Z</time></trkpt><trkpt lat="45.96273449049974" lon="12.340712816209946"><ele>95.5</ele><time>2026-04-25T09:06:05Z</time></trkpt><trkpt lat="45.96272005241414" lon="12.340817303583199"><ele>95.66666666666667</ele><time>2026-04-25T09:06:06Z</time></trkpt><trkpt lat="45.96270031930679" lon="12.340920359240313"><ele>95.83333333333333</ele><time>2026-04-25T09:06:07Z</time></trkpt><trkpt lat="45.962676898706974" lon="12.341026558606178"><ele>96.0</ele><time>2026-04-25T09:06:08Z</time></trkpt><trkpt lat="45.96265478860219" lon="12.341129107917338"><ele>95.99999999999999</ele><time>2026-04-25T09:06:09Z</time></trkpt><trkpt lat="45.96263035541898" lon="12.34122921563283"><ele>96.0</ele><time>2026-04-25T09:06:10Z</time></trkpt><trkpt lat="45.96260294097008" lon="12.341329633779129"><ele>96.0</ele><time>2026-04-25T09:06:11Z</time></trkpt><trkpt lat="45.96257763709623" lon="12.341429577871276"><ele>96.0</ele><time>2026-04-25T09:06:12Z</time></trkpt><trkpt lat="45.962541869185664" lon="12.341526353490382"><ele>96.0</ele><time>2026-04-25T09:06:13Z</time></trkpt><trkpt lat="45.96250047904468" lon="12.34161423774426"><ele>95.99999999999999</ele><time>2026-04-25T09:06:14Z</time></trkpt><trkpt lat="45.96244659719994" lon="12.341691372707059"><ele>96.0</ele><time>2026-04-25T09:06:15Z</time></trkpt><trkpt lat="45.96238549926591" lon="12.341749804275764"><ele>95.99999999999999</ele><time>2026-04-25T09:06:16Z</time></trkpt><trkpt lat="45.962329651040555" lon="12.341805204586107"><ele>96.0</ele><time>2026-04-25T09:06:17Z</time></trkpt><trkpt lat="45.962275099193" lon="12.341868351226779"><ele>96.0</ele><time>2026-04-25T09:06:18Z</time></trkpt><trkpt lat="45.96222228466001" lon="12.341932729462531"><ele>96.0</ele><time>2026-04-25T09:06:19Z</time></trkpt><trkpt lat="45.96217023246966" lon="12.341993120581263"><ele>96.0</ele><time>2026-04-25T09:06:20Z</time></trkpt><trkpt lat="45.962118870562094" lon="12.34205561044299"><ele>95.99999999999999</ele><time>2026-04-25T09:06:21Z</time></trkpt><trkpt lat="45.96207257637954" lon="12.342120374628587"><ele>96.0</ele><time>2026-04-25T09:06:22Z</time></trkpt><trkpt lat="45.96197005018398" lon="12.342188589199068"><ele>96.0</ele><time>2026-04-25T09:06:24Z</time></trkpt><trkpt lat="45.96186359449807" lon="12.342070923526453"><ele>96.0</ele><time>2026-04-25T09:06:26Z</time></trkpt><trkpt lat="45.961816601684895" lon="12.342000253504256"><ele>96.0</ele><time>2026-04-25T09:06:27Z</time></trkpt><trkpt lat="45.961766893757314" lon="12.34193077826523"><ele>96.0</ele><time>2026-04-25T09:06:28Z</time></trkpt><trkpt lat="45.961712250168304" lon="12.341885526204353"><ele>96.0</ele><time>2026-04-25T09:06:29Z</time></trkpt><trkpt lat="45.96165568786383" lon="12.341832767801382"><ele>96.0</ele><time>2026-04-25T09:06:30Z</time></trkpt><trkpt lat="45.961602532328214" lon="12.3417790453451"><ele>95.25</ele><time>2026-04-25T09:06:31Z</time></trkpt><trkpt lat="45.961485455276566" lon="12.341571484979266"><ele>94.5</ele><time>2026-04-25T09:06:34Z</time></trkpt><trkpt lat="45.961428369906024" lon="12.341405602947225"><ele>93.75</ele><time>2026-04-25T09:06:36Z</time></trkpt><trkpt lat="45.96139536998057" lon="12.341309109261445"><ele>93.0</ele><time>2026-04-25T09:06:37Z</time></trkpt><trkpt lat="45.961369206124296" lon="12.341226614581986"><ele>92.83333333333333</ele><time>2026-04-25T09:06:38Z</time></trkpt><trkpt lat="45.96133860407841" lon="12.341142550983877"><ele>92.66666666666667</ele><time>2026-04-25T09:06:39Z</time></trkpt><trkpt lat="45.961306008868966" lon="12.34105490233908"><ele>92.5</ele><time>2026-04-25T09:06:40Z</time></trkpt><trkpt lat="45.96127189476779" lon="12.340969917193348"><ele>92.33333333333334</ele><time>2026-04-25T09:06:41Z</time></trkpt><trkpt lat="45.9611992326154" lon="12.34082164658185"><ele>92.16666666666667</ele><time>2026-04-25T09:06:43Z</time></trkpt><trkpt lat="45.96115787251683" lon="12.34075036131537"><ele>92.0</ele><time>2026-04-25T09:06:44Z</time></trkpt><trkpt lat="45.961117168452375" lon="12.340680179959946"><ele>92.0</ele><time>2026-04-25T09:06:45Z</time></trkpt><trkpt lat="45.961074418430684" lon="12.340612185909041"><ele>92.0</ele><time>2026-04-25T09:06:45.999Z</time></trkpt><trkpt lat="45.961020541132356" lon="12.34053825317393"><ele>92.0</ele><time>2026-04-25T09:06:46.999Z</time></trkpt><trkpt lat="45.960914291589305" lon="12.340436337705421"><ele>92.0</ele><time>2026-04-25T09:06:48.999Z</time></trkpt><trkpt lat="45.96078496010649" lon="12.340403585109016"><ele>92.0</ele><time>2026-04-25T09:06:50.999Z</time></trkpt><trkpt lat="45.96071720787972" lon="12.340389484673052"><ele>92.14285714285715</ele><time>2026-04-25T09:06:51.999Z</time></trkpt><trkpt lat="45.96065446745726" lon="12.340381818956928"><ele>92.28571428571428</ele><time>2026-04-25T09:06:52.999Z</time></trkpt><trkpt lat="45.96059005517312" lon="12.340371073123839"><ele>92.42857142857143</ele><time>2026-04-25T09:06:53.999Z</time></trkpt><trkpt lat="45.96052213589373" lon="12.34036431266877"><ele>92.57142857142858</ele><time>2026-04-25T09:06:54.999Z</time></trkpt><trkpt lat="45.96044757951573" lon="12.340363567060153"><ele>92.71428571428572</ele><time>2026-04-25T09:06:55.999Z</time></trkpt><trkpt lat="45.96037492906286" lon="12.340359792161872"><ele>92.85714285714286</ele><time>2026-04-25T09:06:56.999Z</time></trkpt><trkpt lat="45.96030600596582" lon="12.340341810713614"><ele>93.0</ele><time>2026-04-25T09:06:57.999Z</time></trkpt><trkpt lat="45.960236827842024" lon="12.340319393841568"><ele>93.0</ele><time>2026-04-25T09:06:58.999Z</time></trkpt><trkpt lat="45.96017094059594" lon="12.340306790821005"><ele>93.0</ele><time>2026-04-25T09:06:59.999Z</time></trkpt><trkpt lat="45.9601056211055" lon="12.340274971823863"><ele>93.0</ele><time>2026-04-25T09:07:00.999Z</time></trkpt><trkpt lat="45.96004302143688" lon="12.340238911205988"><ele>93.0</ele><time>2026-04-25T09:07:01.999Z</time></trkpt><trkpt lat="45.95997867838694" lon="12.34021518381171"><ele>93.0</ele><time>2026-04-25T09:07:02.999Z</time></trkpt><trkpt lat="45.9599171607834" lon="12.340187571303879"><ele>93.0</ele><time>2026-04-25T09:07:03.999Z</time></trkpt><trkpt lat="45.95979741067504" lon="12.340131875231675"><ele>93.16666666666667</ele><time>2026-04-25T09:07:05.999Z</time></trkpt><trkpt lat="45.9597335755194" lon="12.340101303219358"><ele>93.33333333333333</ele><time>2026-04-25T09:07:06.999Z</time></trkpt><trkpt lat="45.95966615798517" lon="12.34008312631019"><ele>93.5</ele><time>2026-04-25T09:07:07.999Z</time></trkpt><trkpt lat="45.95959892759929" lon="12.340055570137869"><ele>93.66666666666666</ele><time>2026-04-25T09:07:08.999Z</time></trkpt><trkpt lat="45.95948485211128" lon="12.34001915331734"><ele>93.83333333333333</ele><time>2026-04-25T09:07:10.999Z</time></trkpt><trkpt lat="45.959378566135705" lon="12.339968323327184"><ele>94.0</ele><time>2026-04-25T09:07:12.999Z</time></trkpt><trkpt lat="45.95927565025161" lon="12.339904604552153"><ele>94.0</ele><time>2026-04-25T09:07:15Z</time></trkpt><trkpt lat="45.95917865794991" lon="12.339825748262479"><ele>94.0</ele><time>2026-04-25T09:07:17Z</time></trkpt><trkpt lat="45.95912480587156" lon="12.339761837635582"><ele>94.0</ele><time>2026-04-25T09:07:18Z</time></trkpt><trkpt lat="45.95907561516766" lon="12.339693869979353"><ele>94.0</ele><time>2026-04-25T09:07:19Z</time></trkpt><trkpt lat="45.959019586240274" lon="12.33961345080115"><ele>94.0</ele><time>2026-04-25T09:07:20Z</time></trkpt><trkpt lat="45.95896935273041" lon="12.339539539828584"><ele>94.0</ele><time>2026-04-25T09:07:21Z</time></trkpt><trkpt lat="45.958905418029694" lon="12.339477600233671"><ele>94.0</ele><time>2026-04-25T09:07:22Z</time></trkpt><trkpt lat="45.958833044604305" lon="12.339435487146197"><ele>94.0</ele><time>2026-04-25T09:07:23Z</time></trkpt><trkpt lat="45.958759126910564" lon="12.339414053629785"><ele>94.0</ele><time>2026-04-25T09:07:24Z</time></trkpt><trkpt lat="45.95867985371091" lon="12.339410355950806"><ele>94.0</ele><time>2026-04-25T09:07:25Z</time></trkpt><trkpt lat="45.95860144162547" lon="12.339419749956848"><ele>94.0</ele><time>2026-04-25T09:07:26Z</time></trkpt><trkpt lat="45.958524404939034" lon="12.339435138429616"><ele>94.0</ele><time>2026-04-25T09:07:27Z</time></trkpt><trkpt lat="45.958449718755524" lon="12.339448295872025"><ele>94.0</ele><time>2026-04-25T09:07:28Z</time></trkpt><trkpt lat="45.95837701181348" lon="12.339460982029939"><ele>94.0</ele><time>2026-04-25T09:07:29Z</time></trkpt><trkpt lat="45.95830507789751" lon="12.339467769840962"><ele>94.0</ele><time>2026-04-25T09:07:30Z</time></trkpt><trkpt lat="45.9582351786808" lon="12.339472809222585"><ele>94.0</ele><time>2026-04-25T09:07:31Z</time></trkpt><trkpt lat="45.95816748196034" lon="12.33947814048229"><ele>94.0</ele><time>2026-04-25T09:07:32Z</time></trkpt><trkpt lat="45.958102502083605" lon="12.339478674385067"><ele>94.0</ele><time>2026-04-25T09:07:33Z</time></trkpt><trkpt lat="45.95801005168353" lon="12.33947197679099"><ele>94.0</ele><time>2026-04-25T09:07:35Z</time></trkpt><trkpt lat="45.95783744581186" lon="12.339445904755637"><ele>94.0</ele><time>2026-04-25T09:07:49Z</time></trkpt><trkpt lat="45.95771234595026" lon="12.339459279940076"><ele>94.0</ele><time>2026-04-25T09:07:51Z</time></trkpt><trkpt lat="45.9576453717606" lon="12.339453802879088"><ele>94.0</ele><time>2026-04-25T09:07:52Z</time></trkpt><trkpt lat="45.95757176470556" lon="12.339426058498034"><ele>94.0</ele><time>2026-04-25T09:07:53Z</time></trkpt><trkpt lat="45.9575201365167" lon="12.339366832608178"><ele>94.0</ele><time>2026-04-25T09:07:54Z</time></trkpt><trkpt lat="45.95746611598073" lon="12.339300456639272"><ele>94.0</ele><time>2026-04-25T09:07:55Z</time></trkpt><trkpt lat="45.95741827400422" lon="12.339230452647325"><ele>94.33333333333333</ele><time>2026-04-25T09:07:56Z</time></trkpt><trkpt lat="45.95736705574169" lon="12.339160330582772"><ele>94.66666666666666</ele><time>2026-04-25T09:07:57Z</time></trkpt><trkpt lat="45.957314185115635" lon="12.33909911582661"><ele>95.0</ele><time>2026-04-25T09:07:58Z</time></trkpt><trkpt lat="45.95726106161491" lon="12.339038077717436"><ele>95.33333333333333</ele><time>2026-04-25T09:07:59Z</time></trkpt><trkpt lat="45.95720706938991" lon="12.338975202315956"><ele>95.66666666666667</ele><time>2026-04-25T09:08:00Z</time></trkpt><trkpt lat="45.95715756630303" lon="12.338917088111879"><ele>96.0</ele><time>2026-04-25T09:08:01Z</time></trkpt><trkpt lat="45.95707202785271" lon="12.33880141212128"><ele>96.0</ele><time>2026-04-25T09:08:03Z</time></trkpt><trkpt lat="45.956988077737556" lon="12.3386908855871"><ele>96.0</ele><time>2026-04-25T09:08:05Z</time></trkpt><trkpt lat="45.9568892872996" lon="12.338577816855826"><ele>96.0</ele><time>2026-04-25T09:08:07Z</time></trkpt><trkpt lat="45.95680265961002" lon="12.338476093263978"><ele>96.0</ele><time>2026-04-25T09:08:09Z</time></trkpt><trkpt lat="45.95671019269565" lon="12.33836760552209"><ele>96.0</ele><time>2026-04-25T09:08:11Z</time></trkpt><trkpt lat="45.95662014829565" lon="12.3382602095563"><ele>96.0</ele><time>2026-04-25T09:08:13Z</time></trkpt><trkpt lat="45.95647804164052" lon="12.338095455699985"><ele>96.0</ele><time>2026-04-25T09:08:15.999Z</time></trkpt><trkpt lat="45.95638252209488" lon="12.338006948586994"><ele>96.0</ele><time>2026-04-25T09:08:17.999Z</time></trkpt><trkpt lat="45.956275537781906" lon="12.337937814228782"><ele>96.19999999999999</ele><time>2026-04-25T09:08:19.999Z</time></trkpt><trkpt lat="45.956166805989774" lon="12.337878150231576"><ele>96.39999999999999</ele><time>2026-04-25T09:08:21.999Z</time></trkpt><trkpt lat="45.95610549062493" lon="12.337851020038904"><ele>96.6</ele><time>2026-04-25T09:08:22.999Z</time></trkpt><trkpt lat="45.95599396276584" lon="12.337797864664807"><ele>96.8</ele><time>2026-04-25T09:08:24.999Z</time></trkpt><trkpt lat="45.955915372339184" lon="12.3377702899758"><ele>97.0</ele><time>2026-04-25T09:08:25.999Z</time></trkpt><trkpt lat="45.955818767035026" lon="12.337702205081658"><ele>97.0</ele><time>2026-04-25T09:08:27.999Z</time></trkpt><trkpt lat="45.95570676994355" lon="12.337645894977324"><ele>97.0</ele><time>2026-04-25T09:08:29.999Z</time></trkpt><trkpt lat="45.955585748029385" lon="12.337589561523652"><ele>97.0</ele><time>2026-04-25T09:08:31.999Z</time></trkpt><trkpt lat="45.95547453373635" lon="12.337549150144026"><ele>97.0</ele><time>2026-04-25T09:08:33.999Z</time></trkpt><trkpt lat="45.955383783530486" lon="12.337634715303812"><ele>97.00000000000001</ele><time>2026-04-25T09:08:35.999Z</time></trkpt><trkpt lat="45.955358987936606" lon="12.337720681796448"><ele>97.0</ele><time>2026-04-25T09:08:36.999Z</time></trkpt><trkpt lat="45.95534013422307" lon="12.337807440457128"><ele>97.0</ele><time>2026-04-25T09:08:37.999Z</time></trkpt><trkpt lat="45.95531248387352" lon="12.337898177137758"><ele>97.0</ele><time>2026-04-25T09:08:38.999Z</time></trkpt><trkpt lat="45.95528039513263" lon="12.337985587370586"><ele>97.00000000000001</ele><time>2026-04-25T09:08:39.999Z</time></trkpt><trkpt lat="45.95524532825194" lon="12.338070996524799"><ele>97.0</ele><time>2026-04-25T09:08:40.999Z</time></trkpt><trkpt lat="45.95517608438551" lon="12.338230463997425"><ele>97.0</ele><time>2026-04-25T09:08:42.999Z</time></trkpt><trkpt lat="45.95513935422413" lon="12.338323566078712"><ele>97.0</ele><time>2026-04-25T09:08:43.999Z</time></trkpt><trkpt lat="45.95510498403663" lon="12.33840542982587"><ele>97.0</ele><time>2026-04-25T09:08:44.999Z</time></trkpt><trkpt lat="45.955071734093494" lon="12.33849449011972"><ele>97.0</ele><time>2026-04-25T09:08:45.999Z</time></trkpt><trkpt lat="45.955033028086284" lon="12.338588755131331"><ele>97.0</ele><time>2026-04-25T09:08:46.999Z</time></trkpt><trkpt lat="45.95498955987143" lon="12.338674165745369"><ele>97.0</ele><time>2026-04-25T09:08:47.999Z</time></trkpt><trkpt lat="45.954960740714476" lon="12.338758201886145"><ele>97.0</ele><time>2026-04-25T09:08:48.999Z</time></trkpt><trkpt lat="45.95491508250533" lon="12.3388491236709"><ele>96.83333333333334</ele><time>2026-04-25T09:08:49.999Z</time></trkpt><trkpt lat="45.954878307362925" lon="12.33894230401408"><ele>96.66666666666667</ele><time>2026-04-25T09:08:50.999Z</time></trkpt><trkpt lat="45.954805624752545" lon="12.339120917392542"><ele>96.5</ele><time>2026-04-25T09:08:52.999Z</time></trkpt><trkpt lat="45.954769570645475" lon="12.339214815911022"><ele>96.33333333333334</ele><time>2026-04-25T09:08:53.999Z</time></trkpt><trkpt lat="45.954735284328024" lon="12.339296818393812"><ele>96.16666666666667</ele><time>2026-04-25T09:08:54.999Z</time></trkpt><trkpt lat="45.954703618263096" lon="12.339393612807116"><ele>96.0</ele><time>2026-04-25T09:08:55.999Z</time></trkpt><trkpt lat="45.95467378458061" lon="12.339497265851593"><ele>96.0</ele><time>2026-04-25T09:08:56.999Z</time></trkpt><trkpt lat="45.95464512267353" lon="12.339598255539675"><ele>96.0</ele><time>2026-04-25T09:08:57.999Z</time></trkpt><trkpt lat="45.954610205188864" lon="12.339695786224532"><ele>96.0</ele><time>2026-04-25T09:08:58.999Z</time></trkpt><trkpt lat="45.95457864572379" lon="12.3397972387285"><ele>96.0</ele><time>2026-04-25T09:08:59.999Z</time></trkpt><trkpt lat="45.95454488011592" lon="12.339895715815848"><ele>96.0</ele><time>2026-04-25T09:09:00.999Z</time></trkpt><trkpt lat="45.95450918316078" lon="12.339995580763256"><ele>96.0</ele><time>2026-04-25T09:09:01.999Z</time></trkpt><trkpt lat="45.95447512501598" lon="12.34009731548046"><ele>95.42857142857142</ele><time>2026-04-25T09:09:02.999Z</time></trkpt><trkpt lat="45.95444622507798" lon="12.340194811881652"><ele>94.85714285714286</ele><time>2026-04-25T09:09:03.999Z</time></trkpt><trkpt lat="45.954431667288596" lon="12.340298525605867"><ele>94.28571428571428</ele><time>2026-04-25T09:09:04.999Z</time></trkpt><trkpt lat="45.954427783629114" lon="12.340404593662422"><ele>93.71428571428571</ele><time>2026-04-25T09:09:05.999Z</time></trkpt><trkpt lat="45.9544221134077" lon="12.340504613892877"><ele>93.14285714285714</ele><time>2026-04-25T09:09:06.999Z</time></trkpt><trkpt lat="45.954399405942475" lon="12.340597329568384"><ele>92.57142857142857</ele><time>2026-04-25T09:09:07.999Z</time></trkpt><trkpt lat="45.95437706235502" lon="12.340687343831982"><ele>92.0</ele><time>2026-04-25T09:09:08.999Z</time></trkpt><trkpt lat="45.954378315954436" lon="12.34078147736933"><ele>91.85714285714286</ele><time>2026-04-25T09:09:09.999Z</time></trkpt><trkpt lat="45.95438052906682" lon="12.340877405430072"><ele>91.71428571428571</ele><time>2026-04-25T09:09:10.999Z</time></trkpt><trkpt lat="45.954357559105325" lon="12.340967681930683"><ele>91.57142857142857</ele><time>2026-04-25T09:09:11.999Z</time></trkpt><trkpt lat="45.95431810183041" lon="12.341055059932591"><ele>91.42857142857143</ele><time>2026-04-25T09:09:12.999Z</time></trkpt><trkpt lat="45.95427683330809" lon="12.341145929387192"><ele>91.28571428571428</ele><time>2026-04-25T09:09:13.999Z</time></trkpt><trkpt lat="45.95422834740622" lon="12.34122841800351"><ele>91.14285714285714</ele><time>2026-04-25T09:09:14.999Z</time></trkpt><trkpt lat="45.954180385418354" lon="12.341324857238506"><ele>91.0</ele><time>2026-04-25T09:09:15.999Z</time></trkpt><trkpt lat="45.95413760404488" lon="12.34141136661793"><ele>91.0</ele><time>2026-04-25T09:09:16.999Z</time></trkpt><trkpt lat="45.954096602522284" lon="12.341496346989436"><ele>91.0</ele><time>2026-04-25T09:09:17.999Z</time></trkpt><trkpt lat="45.954054510147465" lon="12.341581127866222"><ele>91.0</ele><time>2026-04-25T09:09:18.999Z</time></trkpt><trkpt lat="45.95401576964426" lon="12.341669620346977"><ele>91.0</ele><time>2026-04-25T09:09:20Z</time></trkpt><trkpt lat="45.954001946375236" lon="12.341767392637744"><ele>91.0</ele><time>2026-04-25T09:09:21Z</time></trkpt><trkpt lat="45.95401431196029" lon="12.341863420691881"><ele>91.0</ele><time>2026-04-25T09:09:22Z</time></trkpt><trkpt lat="45.95405118351481" lon="12.341938869522822"><ele>91.0</ele><time>2026-04-25T09:09:23Z</time></trkpt><trkpt lat="45.95409797999163" lon="12.342004657095844"><ele>91.0</ele><time>2026-04-25T09:09:24Z</time></trkpt><trkpt lat="45.95414959324676" lon="12.342074846530318"><ele>91.0</ele><time>2026-04-25T09:09:25Z</time></trkpt><trkpt lat="45.95419015395811" lon="12.34215764502973"><ele>91.0</ele><time>2026-04-25T09:09:26Z</time></trkpt><trkpt lat="45.95422389432614" lon="12.342250985115339"><ele>91.0</ele><time>2026-04-25T09:09:27Z</time></trkpt><trkpt lat="45.954247217166944" lon="12.342337900313863"><ele>91.0</ele><time>2026-04-25T09:09:28Z</time></trkpt><trkpt lat="45.954269975422946" lon="12.342506084454504"><ele>91.0</ele><time>2026-04-25T09:09:30Z</time></trkpt><trkpt lat="45.954235136063005" lon="12.342626667894805"><ele>91.16666666666666</ele><time>2026-04-25T09:09:32Z</time></trkpt><trkpt lat="45.954149336338716" lon="12.342687218220384"><ele>91.33333333333333</ele><time>2026-04-25T09:09:34Z</time></trkpt><trkpt lat="45.95405458155185" lon="12.3427012243802"><ele>91.5</ele><time>2026-04-25T09:09:36Z</time></trkpt><trkpt lat="45.953937248859795" lon="12.342732564291943"><ele>91.66666666666667</ele><time>2026-04-25T09:09:38Z</time></trkpt><trkpt lat="45.953873498863324" lon="12.342747728081305"><ele>91.83333333333334</ele><time>2026-04-25T09:09:39Z</time></trkpt><trkpt lat="45.953806158302136" lon="12.34276028647968"><ele>92.0</ele><time>2026-04-25T09:09:40Z</time></trkpt><trkpt lat="45.95373816208653" lon="12.342774795694023"><ele>92.0</ele><time>2026-04-25T09:09:41Z</time></trkpt><trkpt lat="45.95367137356435" lon="12.342787698672135"><ele>92.0</ele><time>2026-04-25T09:09:42Z</time></trkpt><trkpt lat="45.953606965462946" lon="12.342803031256546"><ele>92.0</ele><time>2026-04-25T09:09:43Z</time></trkpt><trkpt lat="45.953539648260566" lon="12.342815549135269"><ele>92.0</ele><time>2026-04-25T09:09:44Z</time></trkpt><trkpt lat="45.953469850240225" lon="12.34283067312659"><ele>92.0</ele><time>2026-04-25T09:09:45Z</time></trkpt><trkpt lat="45.95340074263627" lon="12.342840125301992"><ele>92.0</ele><time>2026-04-25T09:09:46Z</time></trkpt><trkpt lat="45.95333445831387" lon="12.342854316204997"><ele>92.0</ele><time>2026-04-25T09:09:47Z</time></trkpt><trkpt lat="45.953207871348525" lon="12.34287921137704"><ele>92.5</ele><time>2026-04-25T09:09:49Z</time></trkpt><trkpt lat="45.953081654187216" lon="12.342902056579073"><ele>93.0</ele><time>2026-04-25T09:09:51Z</time></trkpt><trkpt lat="45.95296090814479" lon="12.342929119246273"><ele>93.5</ele><time>2026-04-25T09:09:53Z</time></trkpt><trkpt lat="45.95284438825973" lon="12.342960883769061"><ele>94.0</ele><time>2026-04-25T09:09:55Z</time></trkpt><trkpt lat="45.95271792059224" lon="12.34294579231837"><ele>94.0</ele><time>2026-04-25T09:09:57Z</time></trkpt><trkpt lat="45.952595179295606" lon="12.34289039694456"><ele>94.0</ele><time>2026-04-25T09:09:59Z</time></trkpt><trkpt lat="45.952473835261245" lon="12.342853993544772"><ele>94.0</ele><time>2026-04-25T09:10:01Z</time></trkpt><trkpt lat="45.95234499781942" lon="12.342819272179932"><ele>94.0</ele><time>2026-04-25T09:10:03Z</time></trkpt><trkpt lat="45.95228259595475" lon="12.342791463448718"><ele>94.0</ele><time>2026-04-25T09:10:04Z</time></trkpt><trkpt lat="45.95222077857446" lon="12.342745421813698"><ele>93.85714285714286</ele><time>2026-04-25T09:10:05Z</time></trkpt><trkpt lat="45.952160317428906" lon="12.342700876919398"><ele>93.71428571428571</ele><time>2026-04-25T09:10:06Z</time></trkpt><trkpt lat="45.95209189436756" lon="12.342673662650647"><ele>93.57142857142858</ele><time>2026-04-25T09:10:07Z</time></trkpt><trkpt lat="45.95202586414888" lon="12.342651469711459"><ele>93.42857142857143</ele><time>2026-04-25T09:10:08Z</time></trkpt><trkpt lat="45.95196619708868" lon="12.342613304902637"><ele>93.28571428571429</ele><time>2026-04-25T09:10:09Z</time></trkpt><trkpt lat="45.951910499444935" lon="12.342565501248984"><ele>93.14285714285715</ele><time>2026-04-25T09:10:10Z</time></trkpt><trkpt lat="45.95185246718228" lon="12.342513241416235"><ele>93.0</ele><time>2026-04-25T09:10:11Z</time></trkpt><trkpt lat="45.95180064369874" lon="12.34244988260686"><ele>93.0</ele><time>2026-04-25T09:10:12Z</time></trkpt><trkpt lat="45.951747860034956" lon="12.342393304017815"><ele>93.0</ele><time>2026-04-25T09:10:13Z</time></trkpt><trkpt lat="45.95162656265503" lon="12.342334900453936"><ele>93.0</ele><time>2026-04-25T09:10:15Z</time></trkpt><trkpt lat="45.95156759214687" lon="12.342291527908259"><ele>93.0</ele><time>2026-04-25T09:10:15.999Z</time></trkpt><trkpt lat="45.951508560007056" lon="12.342232324186025"><ele>93.0</ele><time>2026-04-25T09:10:16.999Z</time></trkpt><trkpt lat="45.951453731412315" lon="12.342181991382768"><ele>93.0</ele><time>2026-04-25T09:10:17.999Z</time></trkpt><trkpt lat="45.95140316235544" lon="12.342107281524141"><ele>93.0</ele><time>2026-04-25T09:10:18.999Z</time></trkpt><trkpt lat="45.9513511026237" lon="12.342053019347135"><ele>93.0</ele><time>2026-04-25T09:10:19.999Z</time></trkpt><trkpt lat="45.95128527954132" lon="12.342013617415923"><ele>93.0</ele><time>2026-04-25T09:10:20.999Z</time></trkpt><trkpt lat="45.95122729552835" lon="12.341974969834768"><ele>93.0</ele><time>2026-04-25T09:10:21.999Z</time></trkpt><trkpt lat="45.951166679203844" lon="12.341936007497434"><ele>93.0</ele><time>2026-04-25T09:10:22.999Z</time></trkpt><trkpt lat="45.951111613977616" lon="12.3418907705306"><ele>93.0</ele><time>2026-04-25T09:10:23.999Z</time></trkpt><trkpt lat="45.950996478989815" lon="12.341835925027638"><ele>93.0</ele><time>2026-04-25T09:10:25.999Z</time></trkpt><trkpt lat="45.95088077479556" lon="12.341820314513388"><ele>93.0</ele><time>2026-04-25T09:10:27.999Z</time></trkpt><trkpt lat="45.9507872005363" lon="12.341840806362258"><ele>93.0</ele><time>2026-04-25T09:10:29.999Z</time></trkpt><trkpt lat="45.950707303923444" lon="12.341871673003476"><ele>93.0</ele><time>2026-04-25T09:10:31.999Z</time></trkpt><trkpt lat="45.95063264654035" lon="12.341867889906913"><ele>93.0</ele><time>2026-04-25T09:10:33.999Z</time></trkpt><trkpt lat="45.95056376563261" lon="12.341855904155592"><ele>93.0</ele><time>2026-04-25T09:10:35.999Z</time></trkpt><trkpt lat="45.95048212239562" lon="12.341825570745474"><ele>93.5</ele><time>2026-04-25T09:10:38.999Z</time></trkpt><trkpt lat="45.95042147102812" lon="12.341796348938367"><ele>94.0</ele><time>2026-04-25T09:10:40.999Z</time></trkpt><trkpt lat="45.950353470999275" lon="12.341764952850724"><ele>94.5</ele><time>2026-04-25T09:10:42.999Z</time></trkpt><trkpt lat="45.95028048826209" lon="12.341727171605147"><ele>95.0</ele><time>2026-04-25T09:10:44.999Z</time></trkpt><trkpt lat="45.95019074474776" lon="12.34163561346295"><ele>95.5</ele><time>2026-04-25T09:10:46.999Z</time></trkpt><trkpt lat="45.95009252613789" lon="12.341552476276986"><ele>96.0</ele><time>2026-04-25T09:10:48.999Z</time></trkpt><trkpt lat="45.94999034426748" lon="12.341457566672476"><ele>96.25</ele><time>2026-04-25T09:10:50.999Z</time></trkpt><trkpt lat="45.949870763053084" lon="12.341391992947173"><ele>96.5</ele><time>2026-04-25T09:10:52.999Z</time></trkpt><trkpt lat="45.94975408215214" lon="12.34135558599833"><ele>96.75</ele><time>2026-04-25T09:10:54.999Z</time></trkpt><trkpt lat="45.94963625407789" lon="12.341339604347159"><ele>97.0</ele><time>2026-04-25T09:10:56.999Z</time></trkpt><trkpt lat="45.94951549410971" lon="12.341358553076226"><ele>97.0</ele><time>2026-04-25T09:10:58.999Z</time></trkpt><trkpt lat="45.94939223750699" lon="12.341355113621887"><ele>97.0</ele><time>2026-04-25T09:11:00.999Z</time></trkpt><trkpt lat="45.949271232050656" lon="12.34133272708488"><ele>97.0</ele><time>2026-04-25T09:11:02.999Z</time></trkpt><trkpt lat="45.94915773468356" lon="12.34130120385301"><ele>97.0</ele><time>2026-04-25T09:11:04.999Z</time></trkpt><trkpt lat="45.94904862825356" lon="12.34128000813627"><ele>97.6</ele><time>2026-04-25T09:11:06.999Z</time></trkpt><trkpt lat="45.94895732996349" lon="12.341235877160623"><ele>98.19999999999999</ele><time>2026-04-25T09:11:08.999Z</time></trkpt><trkpt lat="45.94886826525552" lon="12.34118337467806"><ele>98.8</ele><time>2026-04-25T09:11:10.999Z</time></trkpt><trkpt lat="45.94876767481044" lon="12.341139399679081"><ele>99.4</ele><time>2026-04-25T09:11:12.999Z</time></trkpt><trkpt lat="45.94864405905847" lon="12.341138994779305"><ele>100.0</ele><time>2026-04-25T09:11:14.999Z</time></trkpt><trkpt lat="45.9485788813195" lon="12.341170886998263"><ele>100.0</ele><time>2026-04-25T09:11:15.999Z</time></trkpt><trkpt lat="45.94849050640798" lon="12.341270647568832"><ele>100.0</ele><time>2026-04-25T09:11:17.999Z</time></trkpt><trkpt lat="45.94839797476223" lon="12.341370634408593"><ele>100.0</ele><time>2026-04-25T09:11:19.999Z</time></trkpt><trkpt lat="45.94831077246145" lon="12.34145921505488"><ele>100.0</ele><time>2026-04-25T09:11:21.999Z</time></trkpt><trkpt lat="45.9482367515037" lon="12.34152838763566"><ele>100.0</ele><time>2026-04-25T09:11:23.999Z</time></trkpt><trkpt lat="45.94815126329459" lon="12.341592945465854"><ele>101.66666666666667</ele><time>2026-04-25T09:11:26Z</time></trkpt><trkpt lat="45.9480681679546" lon="12.341674348484702"><ele>103.33333333333334</ele><time>2026-04-25T09:11:28Z</time></trkpt><trkpt lat="45.94798372709586" lon="12.341746950166849"><ele>105.0</ele><time>2026-04-25T09:11:30Z</time></trkpt><trkpt lat="45.94790546454831" lon="12.341811253003069"><ele>106.66666666666666</ele><time>2026-04-25T09:11:32Z</time></trkpt><trkpt lat="45.94784308969096" lon="12.341892551903111"><ele>108.33333333333333</ele><time>2026-04-25T09:11:34Z</time></trkpt><trkpt lat="45.94777953846393" lon="12.341949140967927"><ele>110.0</ele><time>2026-04-25T09:11:36Z</time></trkpt><trkpt lat="45.94770971823043" lon="12.342007579066422"><ele>109.99999999999999</ele><time>2026-04-25T09:11:38Z</time></trkpt><trkpt lat="45.94764674872374" lon="12.342066774952933"><ele>110.0</ele><time>2026-04-25T09:11:40Z</time></trkpt><trkpt lat="45.94758501216644" lon="12.342128132950254"><ele>110.0</ele><time>2026-04-25T09:11:42Z</time></trkpt><trkpt lat="45.94751778264993" lon="12.342199216702681"><ele>110.0</ele><time>2026-04-25T09:11:47Z</time></trkpt><trkpt lat="45.94744929250796" lon="12.342266076551116"><ele>109.99999999999999</ele><time>2026-04-25T09:11:50Z</time></trkpt><trkpt lat="45.94738451415912" lon="12.342310486211536"><ele>110.0</ele><time>2026-04-25T09:11:52Z</time></trkpt><trkpt lat="45.94732403439453" lon="12.3423620638878"><ele>110.49999999999999</ele><time>2026-04-25T09:11:54Z</time></trkpt><trkpt lat="45.94724034411902" lon="12.342416163795079"><ele>111.0</ele><time>2026-04-25T09:11:56Z</time></trkpt><trkpt lat="45.94717139399355" lon="12.342403025363382"><ele>111.5</ele><time>2026-04-25T09:11:58Z</time></trkpt><trkpt lat="45.94710091816401" lon="12.342361608033983"><ele>112.0</ele><time>2026-04-25T09:12:00Z</time></trkpt><trkpt lat="45.947023730428725" lon="12.342316190413138"><ele>112.49999999999999</ele><time>2026-04-25T09:12:02Z</time></trkpt><trkpt lat="45.9469502146959" lon="12.342285681947374"><ele>113.0</ele><time>2026-04-25T09:12:03Z</time></trkpt><trkpt lat="45.94688211070294" lon="12.342276376524016"><ele>113.0</ele><time>2026-04-25T09:12:04Z</time></trkpt><trkpt lat="45.94681924053168" lon="12.342271209233648"><ele>113.0</ele><time>2026-04-25T09:12:05Z</time></trkpt><trkpt lat="45.94675379342265" lon="12.3422530820599"><ele>113.0</ele><time>2026-04-25T09:12:06Z</time></trkpt><trkpt lat="45.94667720683159" lon="12.342229715732943"><ele>113.0</ele><time>2026-04-25T09:12:07Z</time></trkpt><trkpt lat="45.94661306210819" lon="12.342183982272607"><ele>113.0</ele><time>2026-04-25T09:12:08Z</time></trkpt><trkpt lat="45.94655144193678" lon="12.342121804833027"><ele>113.0</ele><time>2026-04-25T09:12:09Z</time></trkpt><trkpt lat="45.9465001374703" lon="12.342052408917885"><ele>113.0</ele><time>2026-04-25T09:12:10Z</time></trkpt><trkpt lat="45.946434489813676" lon="12.341978571177613"><ele>113.16666666666666</ele><time>2026-04-25T09:12:11Z</time></trkpt><trkpt lat="45.946364857483715" lon="12.341932872837981"><ele>113.33333333333333</ele><time>2026-04-25T09:12:12Z</time></trkpt><trkpt lat="45.94629194289997" lon="12.341890129333198"><ele>113.5</ele><time>2026-04-25T09:12:13Z</time></trkpt><trkpt lat="45.94621190049938" lon="12.341859969919406"><ele>113.66666666666666</ele><time>2026-04-25T09:12:14Z</time></trkpt><trkpt lat="45.94613507439824" lon="12.341852450105856"><ele>113.83333333333333</ele><time>2026-04-25T09:12:15Z</time></trkpt><trkpt lat="45.946052992364834" lon="12.341850818698434"><ele>114.0</ele><time>2026-04-25T09:12:16Z</time></trkpt><trkpt lat="45.94595429772027" lon="12.341886883804268"><ele>114.16666666666667</ele><time>2026-04-25T09:12:17Z</time></trkpt><trkpt lat="45.94587608020767" lon="12.341893730000223"><ele>114.33333333333334</ele><time>2026-04-25T09:12:18Z</time></trkpt><trkpt lat="45.945798042227246" lon="12.34189296930729"><ele>114.5</ele><time>2026-04-25T09:12:18.999Z</time></trkpt><trkpt lat="45.945722570449654" lon="12.34188988293849"><ele>114.66666666666667</ele><time>2026-04-25T09:12:19.999Z</time></trkpt><trkpt lat="45.94564258506084" lon="12.341887806950083"><ele>114.83333333333334</ele><time>2026-04-25T09:12:20.999Z</time></trkpt><trkpt lat="45.94557020751346" lon="12.341883368502357"><ele>115.0</ele><time>2026-04-25T09:12:21.999Z</time></trkpt><trkpt lat="45.94550262008529" lon="12.34187661374242"><ele>115.00000000000001</ele><time>2026-04-25T09:12:22.999Z</time></trkpt><trkpt lat="45.94543211206711" lon="12.341866999930822"><ele>115.0</ele><time>2026-04-25T09:12:23.999Z</time></trkpt><trkpt lat="45.94536390672891" lon="12.341849210567208"><ele>115.0</ele><time>2026-04-25T09:12:24.999Z</time></trkpt><trkpt lat="45.945295977714096" lon="12.341832781810023"><ele>115.0</ele><time>2026-04-25T09:12:25.999Z</time></trkpt><trkpt lat="45.94522772874841" lon="12.341817197226884"><ele>115.00000000000001</ele><time>2026-04-25T09:12:26.999Z</time></trkpt><trkpt lat="45.94515832209784" lon="12.341805378168594"><ele>115.0</ele><time>2026-04-25T09:12:27.999Z</time></trkpt><trkpt lat="45.94503605765187" lon="12.34178933498211"><ele>115.2</ele><time>2026-04-25T09:12:29.999Z</time></trkpt><trkpt lat="45.94492065750031" lon="12.34175009463034"><ele>115.4</ele><time>2026-04-25T09:12:31.999Z</time></trkpt><trkpt lat="45.944858769959325" lon="12.341778510385144"><ele>115.6</ele><time>2026-04-25T09:12:32.999Z</time></trkpt><trkpt lat="45.94479641127997" lon="12.341749233295811"><ele>115.8</ele><time>2026-04-25T09:12:33.999Z</time></trkpt><trkpt lat="45.94469282641239" lon="12.341786620662347"><ele>116.0</ele><time>2026-04-25T09:12:35.999Z</time></trkpt><trkpt lat="45.94461711886398" lon="12.341894113647344"><ele>116.0</ele><time>2026-04-25T09:12:37.999Z</time></trkpt><trkpt lat="45.94452886586331" lon="12.341960718363769"><ele>116.0</ele><time>2026-04-25T09:12:39.999Z</time></trkpt><trkpt lat="45.94444798984644" lon="12.34202932596522"><ele>116.0</ele><time>2026-04-25T09:12:41.999Z</time></trkpt><trkpt lat="45.94436091337344" lon="12.342110649073703"><ele>116.0</ele><time>2026-04-25T09:12:43.999Z</time></trkpt><trkpt lat="45.9442874061772" lon="12.342177733702693"><ele>116.0</ele><time>2026-04-25T09:12:45.999Z</time></trkpt><trkpt lat="45.94421068095862" lon="12.342233499456341"><ele>117.4</ele><time>2026-04-25T09:12:47.999Z</time></trkpt><trkpt lat="45.944140357702615" lon="12.342292232024567"><ele>118.8</ele><time>2026-04-25T09:12:49.999Z</time></trkpt><trkpt lat="45.94405864833229" lon="12.34236354807031"><ele>120.20000000000002</ele><time>2026-04-25T09:12:51.999Z</time></trkpt><trkpt lat="45.94396975490079" lon="12.342431808495192"><ele>121.60000000000001</ele><time>2026-04-25T09:12:53.999Z</time></trkpt><trkpt lat="45.943895049999696" lon="12.342510948588219"><ele>123.0</ele><time>2026-04-25T09:12:55.999Z</time></trkpt><trkpt lat="45.94382305657895" lon="12.342580600902327"><ele>123.0</ele><time>2026-04-25T09:12:57.999Z</time></trkpt><trkpt lat="45.9437362643584" lon="12.342644436875634"><ele>123.00000000000001</ele><time>2026-04-25T09:12:59.999Z</time></trkpt><trkpt lat="45.943642688847994" lon="12.34271195371082"><ele>123.00000000000001</ele><time>2026-04-25T09:13:01.999Z</time></trkpt><trkpt lat="45.943564379617264" lon="12.342771220850086"><ele>123.0</ele><time>2026-04-25T09:13:03.999Z</time></trkpt><trkpt lat="45.943479341066585" lon="12.342831276765907"><ele>123.0</ele><time>2026-04-25T09:13:05.999Z</time></trkpt><trkpt lat="45.9434154791922" lon="12.342874122915523"><ele>123.5</ele><time>2026-04-25T09:13:07.999Z</time></trkpt><trkpt lat="45.94334009671574" lon="12.342886420959818"><ele>124.0</ele><time>2026-04-25T09:13:11.999Z</time></trkpt><trkpt lat="45.943277305385934" lon="12.342912618590313"><ele>124.5</ele><time>2026-04-25T09:13:14.999Z</time></trkpt><trkpt lat="45.94321477887846" lon="12.34288846504168"><ele>125.0</ele><time>2026-04-25T09:13:17.999Z</time></trkpt><trkpt lat="45.94314182073163" lon="12.34282883255598"><ele>125.5</ele><time>2026-04-25T09:13:19.999Z</time></trkpt><trkpt lat="45.94308834956692" lon="12.342750397196298"><ele>126.0</ele><time>2026-04-25T09:13:21.999Z</time></trkpt><trkpt lat="45.94303572627209" lon="12.342644372011442"><ele>126.0</ele><time>2026-04-25T09:13:23.999Z</time></trkpt><trkpt lat="45.94298923435853" lon="12.342581299607945"><ele>126.0</ele><time>2026-04-25T09:13:27.999Z</time></trkpt><trkpt lat="45.94287105208966" lon="12.342650225837561"><ele>126.0</ele><time>2026-04-25T09:13:30.999Z</time></trkpt><trkpt lat="45.94278582421625" lon="12.34276355723897"><ele>126.0</ele><time>2026-04-25T09:13:33Z</time></trkpt><trkpt lat="45.94265598162761" lon="12.342747364325593"><ele>126.0</ele><time>2026-04-25T09:13:35Z</time></trkpt><trkpt lat="45.94266238414742" lon="12.34287883378474"><ele>126.5</ele><time>2026-04-25T09:13:36Z</time></trkpt><trkpt lat="45.94253130093526" lon="12.342874808726462"><ele>127.0</ele><time>2026-04-25T09:13:38Z</time></trkpt><trkpt lat="45.94245235906958" lon="12.342910958559143"><ele>127.5</ele><time>2026-04-25T09:13:40Z</time></trkpt><trkpt lat="45.94240017830759" lon="12.342845723939394"><ele>128.0</ele><time>2026-04-25T09:13:41Z</time></trkpt><trkpt lat="45.942352787127824" lon="12.34274840709545"><ele>128.5</ele><time>2026-04-25T09:13:42Z</time></trkpt><trkpt lat="45.942307877326" lon="12.34267412077998"><ele>129.0</ele><time>2026-04-25T09:13:43Z</time></trkpt><trkpt lat="45.9422623580561" lon="12.342600349029567"><ele>129.0</ele><time>2026-04-25T09:13:44Z</time></trkpt><trkpt lat="45.942216025975874" lon="12.342529294072618"><ele>129.0</ele><time>2026-04-25T09:13:45Z</time></trkpt><trkpt lat="45.94216743977083" lon="12.342465180509972"><ele>129.0</ele><time>2026-04-25T09:13:46Z</time></trkpt><trkpt lat="45.942114367576174" lon="12.34238741663883"><ele>129.0</ele><time>2026-04-25T09:13:47Z</time></trkpt><trkpt lat="45.94206626645939" lon="12.342314402460506"><ele>129.0</ele><time>2026-04-25T09:13:48Z</time></trkpt><trkpt lat="45.94197589339787" lon="12.34216986476053"><ele>129.0</ele><time>2026-04-25T09:13:50Z</time></trkpt><trkpt lat="45.94193025480211" lon="12.342098400492413"><ele>128.85714285714283</ele><time>2026-04-25T09:13:51Z</time></trkpt><trkpt lat="45.94188037212515" lon="12.342024085114002"><ele>128.71428571428572</ele><time>2026-04-25T09:13:52Z</time></trkpt><trkpt lat="45.94183321473696" lon="12.341952724173053"><ele>128.57142857142856</ele><time>2026-04-25T09:13:53Z</time></trkpt><trkpt lat="45.9417877784012" lon="12.341866224391213"><ele>128.42857142857142</ele><time>2026-04-25T09:13:54Z</time></trkpt><trkpt lat="45.94174292638689" lon="12.34179558213225"><ele>128.28571428571428</ele><time>2026-04-25T09:13:55Z</time></trkpt><trkpt lat="45.94169137995024" lon="12.341721283019359"><ele>128.14285714285714</ele><time>2026-04-25T09:13:56Z</time></trkpt><trkpt lat="45.941642526436205" lon="12.341651525087524"><ele>128.0</ele><time>2026-04-25T09:13:57Z</time></trkpt><trkpt lat="45.941594163533225" lon="12.341576774142402"><ele>128.0</ele><time>2026-04-25T09:13:58Z</time></trkpt><trkpt lat="45.941550046318575" lon="12.341501512766486"><ele>127.99999999999999</ele><time>2026-04-25T09:13:59Z</time></trkpt><trkpt lat="45.9414830525762" lon="12.341403375164681"><ele>128.0</ele><time>2026-04-25T09:14:00Z</time></trkpt><trkpt lat="45.941420795109536" lon="12.341348548198383"><ele>128.0</ele><time>2026-04-25T09:14:01Z</time></trkpt><trkpt lat="45.94138116680805" lon="12.341271305132405"><ele>127.99999999999999</ele><time>2026-04-25T09:14:02Z</time></trkpt><trkpt lat="45.941336062993514" lon="12.341195678519908"><ele>128.0</ele><time>2026-04-25T09:14:03Z</time></trkpt><trkpt lat="45.94128764031339" lon="12.341127452649026"><ele>128.0</ele><time>2026-04-25T09:14:04Z</time></trkpt><trkpt lat="45.94123615826322" lon="12.341052487841939"><ele>127.57142857142857</ele><time>2026-04-25T09:14:05Z</time></trkpt><trkpt lat="45.94119085101366" lon="12.340976403185806"><ele>127.14285714285714</ele><time>2026-04-25T09:14:06Z</time></trkpt><trkpt lat="45.94113928248263" lon="12.340916750030711"><ele>126.71428571428571</ele><time>2026-04-25T09:14:07Z</time></trkpt><trkpt lat="45.94109363410203" lon="12.340850474400538"><ele>126.28571428571428</ele><time>2026-04-25T09:14:08Z</time></trkpt><trkpt lat="45.941041864654125" lon="12.340780414973938"><ele>125.85714285714286</ele><time>2026-04-25T09:14:09Z</time></trkpt><trkpt lat="45.94099054251657" lon="12.340711007101511"><ele>125.42857142857142</ele><time>2026-04-25T09:14:10Z</time></trkpt><trkpt lat="45.94092451116118" lon="12.340663844493358"><ele>125.0</ele><time>2026-04-25T09:14:11Z</time></trkpt><trkpt lat="45.94087087773925" lon="12.340614816600908"><ele>125.28571428571428</ele><time>2026-04-25T09:14:12Z</time></trkpt><trkpt lat="45.94080523879878" lon="12.340562234677797"><ele>125.57142857142858</ele><time>2026-04-25T09:14:13Z</time></trkpt><trkpt lat="45.940744627120175" lon="12.340508773035136"><ele>125.85714285714286</ele><time>2026-04-25T09:14:14Z</time></trkpt><trkpt lat="45.94068762605323" lon="12.340460584363376"><ele>126.14285714285714</ele><time>2026-04-25T09:14:15Z</time></trkpt><trkpt lat="45.940622751309895" lon="12.340407276292808"><ele>126.42857142857142</ele><time>2026-04-25T09:14:16Z</time></trkpt><trkpt lat="45.94055544254059" lon="12.340356275504512"><ele>126.71428571428572</ele><time>2026-04-25T09:14:17Z</time></trkpt><trkpt lat="45.94049231024758" lon="12.340299345181771"><ele>127.0</ele><time>2026-04-25T09:14:18Z</time></trkpt><trkpt lat="45.94044055494019" lon="12.340237602113636"><ele>127.0</ele><time>2026-04-25T09:14:19Z</time></trkpt><trkpt lat="45.94037777728109" lon="12.340172252663598"><ele>127.0</ele><time>2026-04-25T09:14:20Z</time></trkpt><trkpt lat="45.94031574038173" lon="12.340130937493125"><ele>127.0</ele><time>2026-04-25T09:14:21Z</time></trkpt><trkpt lat="45.94024209583719" lon="12.340105474597538"><ele>127.0</ele><time>2026-04-25T09:14:22Z</time></trkpt><trkpt lat="45.940170223234205" lon="12.34007414108616"><ele>127.0</ele><time>2026-04-25T09:14:23Z</time></trkpt><trkpt lat="45.94010236628767" lon="12.340056700250445"><ele>127.0</ele><time>2026-04-25T09:14:24Z</time></trkpt><trkpt lat="45.9400321785882" lon="12.340053510428708"><ele>127.0</ele><time>2026-04-25T09:14:25Z</time></trkpt><trkpt lat="45.93996077502109" lon="12.34004576321386"><ele>127.14285714285714</ele><time>2026-04-25T09:14:26Z</time></trkpt><trkpt lat="45.93988229168121" lon="12.340044393744348"><ele>127.28571428571428</ele><time>2026-04-25T09:14:27Z</time></trkpt><trkpt lat="45.939811916170264" lon="12.340048179984638"><ele>127.42857142857142</ele><time>2026-04-25T09:14:28Z</time></trkpt><trkpt lat="45.939742186959066" lon="12.340064453520679"><ele>127.57142857142857</ele><time>2026-04-25T09:14:29Z</time></trkpt><trkpt lat="45.9396761285606" lon="12.340076488099605"><ele>127.7142857142857</ele><time>2026-04-25T09:14:29.999Z</time></trkpt><trkpt lat="45.93960259418964" lon="12.340106580051074"><ele>127.85714285714285</ele><time>2026-04-25T09:14:30.999Z</time></trkpt><trkpt lat="45.939536182642165" lon="12.340141243206194"><ele>128.0</ele><time>2026-04-25T09:14:31.999Z</time></trkpt><trkpt lat="45.93947018748448" lon="12.340163578731937"><ele>127.99999999999999</ele><time>2026-04-25T09:14:32.999Z</time></trkpt><trkpt lat="45.93940259124041" lon="12.340201223842987"><ele>128.0</ele><time>2026-04-25T09:14:33.999Z</time></trkpt><trkpt lat="45.93933603012822" lon="12.340245068487649"><ele>128.0</ele><time>2026-04-25T09:14:34.999Z</time></trkpt><trkpt lat="45.939276556102904" lon="12.340279969375844"><ele>128.0</ele><time>2026-04-25T09:14:35.999Z</time></trkpt><trkpt lat="45.93918352964987" lon="12.340376105474345"><ele>127.99999999999999</ele><time>2026-04-25T09:14:37.999Z</time></trkpt><trkpt lat="45.939122328882135" lon="12.340492520894914"><ele>128.0</ele><time>2026-04-25T09:14:39.999Z</time></trkpt><trkpt lat="45.939021908281745" lon="12.340595169627484"><ele>128.66666666666666</ele><time>2026-04-25T09:14:41.999Z</time></trkpt><trkpt lat="45.938964119860096" lon="12.340749004805748"><ele>129.33333333333331</ele><time>2026-04-25T09:14:43.999Z</time></trkpt><trkpt lat="45.938954096256076" lon="12.34084580941811"><ele>130.0</ele><time>2026-04-25T09:14:44.999Z</time></trkpt><trkpt lat="45.93894879429667" lon="12.340942443867524"><ele>130.66666666666666</ele><time>2026-04-25T09:14:45.999Z</time></trkpt><trkpt lat="45.93893115542174" lon="12.341046101466677"><ele>131.33333333333334</ele><time>2026-04-25T09:14:46.999Z</time></trkpt><trkpt lat="45.938920734192244" lon="12.341146193190847"><ele>132.0</ele><time>2026-04-25T09:14:47.999Z</time></trkpt><trkpt lat="45.938925405376224" lon="12.341255044259908"><ele>132.0</ele><time>2026-04-25T09:14:48.999Z</time></trkpt><trkpt lat="45.93889180018126" lon="12.341377169789777"><ele>132.0</ele><time>2026-04-25T09:14:49.999Z</time></trkpt><trkpt lat="45.93887837549918" lon="12.341496954123311"><ele>132.0</ele><time>2026-04-25T09:14:50.999Z</time></trkpt><trkpt lat="45.93886945946455" lon="12.341620837128417"><ele>132.0</ele><time>2026-04-25T09:14:51.999Z</time></trkpt><trkpt lat="45.93884148694759" lon="12.34174481898185"><ele>132.0</ele><time>2026-04-25T09:14:52.999Z</time></trkpt><trkpt lat="45.93883309170632" lon="12.341877580641922"><ele>132.0</ele><time>2026-04-25T09:14:53.999Z</time></trkpt><trkpt lat="45.938827007552355" lon="12.34202216418323"><ele>131.79999999999998</ele><time>2026-04-25T09:14:54.999Z</time></trkpt><trkpt lat="45.93881586400374" lon="12.342172783790026"><ele>131.6</ele><time>2026-04-25T09:14:55.999Z</time></trkpt><trkpt lat="45.93879872101118" lon="12.342325994177441"><ele>131.39999999999998</ele><time>2026-04-25T09:14:56.999Z</time></trkpt><trkpt lat="45.938776200758284" lon="12.342479137047052"><ele>131.2</ele><time>2026-04-25T09:14:57.999Z</time></trkpt><trkpt lat="45.93876565949388" lon="12.34263706068252"><ele>131.0</ele><time>2026-04-25T09:14:58.999Z</time></trkpt><trkpt lat="45.93875705316378" lon="12.342800743289756"><ele>128.75</ele><time>2026-04-25T09:14:59.999Z</time></trkpt><trkpt lat="45.938745263671905" lon="12.342968843930404"><ele>126.5</ele><time>2026-04-25T09:15:00.999Z</time></trkpt><trkpt lat="45.938731554532794" lon="12.343137218585781"><ele>124.25</ele><time>2026-04-25T09:15:01.999Z</time></trkpt><trkpt lat="45.9387160243628" lon="12.343302682731414"><ele>122.0</ele><time>2026-04-25T09:15:02.999Z</time></trkpt><trkpt lat="45.93870179619259" lon="12.34346406630138"><ele>121.19999999999999</ele><time>2026-04-25T09:15:03.999Z</time></trkpt><trkpt lat="45.93868629470165" lon="12.343618872179754"><ele>120.39999999999999</ele><time>2026-04-25T09:15:04.999Z</time></trkpt><trkpt lat="45.9386623724706" lon="12.34376391388007"><ele>119.60000000000001</ele><time>2026-04-25T09:15:05.999Z</time></trkpt><trkpt lat="45.93862073588607" lon="12.34389937557946"><ele>118.80000000000001</ele><time>2026-04-25T09:15:06.999Z</time></trkpt><trkpt lat="45.93856657221442" lon="12.344033030520245"><ele>118.0</ele><time>2026-04-25T09:15:07.999Z</time></trkpt><trkpt lat="45.93849763736201" lon="12.344149681551189"><ele>118.0</ele><time>2026-04-25T09:15:08.999Z</time></trkpt><trkpt lat="45.93843782737726" lon="12.344271626125922"><ele>118.00000000000001</ele><time>2026-04-25T09:15:09.999Z</time></trkpt><trkpt lat="45.93840651675445" lon="12.344423430734208"><ele>118.00000000000001</ele><time>2026-04-25T09:15:10.999Z</time></trkpt><trkpt lat="45.93839574036528" lon="12.344580727716984"><ele>118.0</ele><time>2026-04-25T09:15:11.999Z</time></trkpt><trkpt lat="45.938399154245516" lon="12.344741752068908"><ele>118.0</ele><time>2026-04-25T09:15:12.999Z</time></trkpt><trkpt lat="45.938413228085466" lon="12.344890040229455"><ele>117.60000000000001</ele><time>2026-04-25T09:15:13.999Z</time></trkpt><trkpt lat="45.93845456306251" lon="12.345035922095265"><ele>117.20000000000002</ele><time>2026-04-25T09:15:14.999Z</time></trkpt><trkpt lat="45.93850481603326" lon="12.345180197814896"><ele>116.8</ele><time>2026-04-25T09:15:15.999Z</time></trkpt><trkpt lat="45.93854406546912" lon="12.345324834708439"><ele>116.4</ele><time>2026-04-25T09:15:16.999Z</time></trkpt><trkpt lat="45.93857384363795" lon="12.345471439678823"><ele>116.0</ele><time>2026-04-25T09:15:17.999Z</time></trkpt><trkpt lat="45.9385871684673" lon="12.345628279960073"><ele>115.75</ele><time>2026-04-25T09:15:18.999Z</time></trkpt><trkpt lat="45.93857973319053" lon="12.345791399764137"><ele>115.5</ele><time>2026-04-25T09:15:19.999Z</time></trkpt><trkpt lat="45.93855033939658" lon="12.345953180342246"><ele>115.25</ele><time>2026-04-25T09:15:20.999Z</time></trkpt><trkpt lat="45.93851750211921" lon="12.3461101634809"><ele>115.0</ele><time>2026-04-25T09:15:21.999Z</time></trkpt><trkpt lat="45.938464882426906" lon="12.346263580973519"><ele>114.0</ele><time>2026-04-25T09:15:22.999Z</time></trkpt><trkpt lat="45.93840346050722" lon="12.346410738668231"><ele>113.0</ele><time>2026-04-25T09:15:23.999Z</time></trkpt><trkpt lat="45.93834093065009" lon="12.346559149239445"><ele>112.0</ele><time>2026-04-25T09:15:24.999Z</time></trkpt><trkpt lat="45.93827789545483" lon="12.346713282553349"><ele>111.0</ele><time>2026-04-25T09:15:25.999Z</time></trkpt><trkpt lat="45.93821571132958" lon="12.346870099277933"><ele>110.5</ele><time>2026-04-25T09:15:26.999Z</time></trkpt><trkpt lat="45.93815726477717" lon="12.347034769600478"><ele>110.0</ele><time>2026-04-25T09:15:27.999Z</time></trkpt><trkpt lat="45.938095635879904" lon="12.347204485627469"><ele>109.5</ele><time>2026-04-25T09:15:28.999Z</time></trkpt><trkpt lat="45.93802718475377" lon="12.347363872391247"><ele>109.0</ele><time>2026-04-25T09:15:29.999Z</time></trkpt><trkpt lat="45.9379663433204" lon="12.347529988690685"><ele>107.83333333333334</ele><time>2026-04-25T09:15:30.999Z</time></trkpt><trkpt lat="45.937915890097294" lon="12.347676339371931"><ele>106.66666666666667</ele><time>2026-04-25T09:15:31.999Z</time></trkpt><trkpt lat="45.937877226458795" lon="12.347791866221957"><ele>105.5</ele><time>2026-04-25T09:15:32.999Z</time></trkpt><trkpt lat="45.93783656166065" lon="12.347888413404306"><ele>104.33333333333334</ele><time>2026-04-25T09:15:33.999Z</time></trkpt><trkpt lat="45.937782136887805" lon="12.347963575188082"><ele>103.16666666666667</ele><time>2026-04-25T09:15:34.999Z</time></trkpt><trkpt lat="45.9377404881271" lon="12.348034087616831"><ele>102.0</ele><time>2026-04-25T09:15:35.999Z</time></trkpt><trkpt lat="45.93766304360657" lon="12.348092226245804"><ele>100.19999999999999</ele><time>2026-04-25T09:15:36.999Z</time></trkpt><trkpt lat="45.937573328400276" lon="12.348135198370793"><ele>98.4</ele><time>2026-04-25T09:15:37.999Z</time></trkpt><trkpt lat="45.9374807618905" lon="12.348147188592367"><ele>96.6</ele><time>2026-04-25T09:15:38.999Z</time></trkpt><trkpt lat="45.93737653933434" lon="12.348156599001808"><ele>94.80000000000001</ele><time>2026-04-25T09:15:39.999Z</time></trkpt><trkpt lat="45.93727744136877" lon="12.348141817643555"><ele>93.0</ele><time>2026-04-25T09:15:40.999Z</time></trkpt><trkpt lat="45.93717565843711" lon="12.348144439686973"><ele>93.0</ele><time>2026-04-25T09:15:41.999Z</time></trkpt><trkpt lat="45.93707554111563" lon="12.348144329378462"><ele>93.0</ele><time>2026-04-25T09:15:42.999Z</time></trkpt><trkpt lat="45.936974071346086" lon="12.348183910095466"><ele>93.0</ele><time>2026-04-25T09:15:43.999Z</time></trkpt><trkpt lat="45.93689137953177" lon="12.348237312088186"><ele>93.0</ele><time>2026-04-25T09:15:44.999Z</time></trkpt><trkpt lat="45.93683845004899" lon="12.348309479180315"><ele>93.0</ele><time>2026-04-25T09:15:45.999Z</time></trkpt><trkpt lat="45.936743728167656" lon="12.348368239562745"><ele>93.0</ele><time>2026-04-25T09:15:47.999Z</time></trkpt><trkpt lat="45.936676245952036" lon="12.3483540655176"><ele>93.0</ele><time>2026-04-25T09:15:48.999Z</time></trkpt><trkpt lat="45.93660721766207" lon="12.348306139796213"><ele>93.0</ele><time>2026-04-25T09:15:49.999Z</time></trkpt><trkpt lat="45.93653712072084" lon="12.348250753098764"><ele>93.0</ele><time>2026-04-25T09:15:50.999Z</time></trkpt><trkpt lat="45.93646271349035" lon="12.348182380624888"><ele>93.0</ele><time>2026-04-25T09:15:51.999Z</time></trkpt><trkpt lat="45.93638749757791" lon="12.3481080846729"><ele>93.0</ele><time>2026-04-25T09:15:52.999Z</time></trkpt><trkpt lat="45.93630170028402" lon="12.348030911408927"><ele>93.0</ele><time>2026-04-25T09:15:53.999Z</time></trkpt><trkpt lat="45.936215553155606" lon="12.347965790532873"><ele>93.0</ele><time>2026-04-25T09:15:54.999Z</time></trkpt><trkpt lat="45.93612377634198" lon="12.347902367877834"><ele>93.0</ele><time>2026-04-25T09:15:55.999Z</time></trkpt><trkpt lat="45.93603336448786" lon="12.347832089025287"><ele>93.0</ele><time>2026-04-25T09:15:56.999Z</time></trkpt><trkpt lat="45.93593501522857" lon="12.34778010441499"><ele>93.0</ele><time>2026-04-25T09:15:57.999Z</time></trkpt><trkpt lat="45.935831096572784" lon="12.34775506925077"><ele>90.80000000000001</ele><time>2026-04-25T09:15:58.999Z</time></trkpt><trkpt lat="45.93572660946199" lon="12.347741973528516"><ele>88.6</ele><time>2026-04-25T09:15:59.999Z</time></trkpt><trkpt lat="45.9356273109628" lon="12.347709439719829"><ele>86.4</ele><time>2026-04-25T09:16:00.999Z</time></trkpt><trkpt lat="45.93553582564568" lon="12.34764959769489"><ele>84.19999999999999</ele><time>2026-04-25T09:16:01.999Z</time></trkpt><trkpt lat="45.93545291553477" lon="12.347572944020383"><ele>82.0</ele><time>2026-04-25T09:16:02.999Z</time></trkpt><trkpt lat="45.9353762790054" lon="12.347495126415478"><ele>82.0</ele><time>2026-04-25T09:16:03.999Z</time></trkpt><trkpt lat="45.93530242703088" lon="12.347419064740958"><ele>82.0</ele><time>2026-04-25T09:16:04.999Z</time></trkpt><trkpt lat="45.93523152971223" lon="12.34734875204383"><ele>82.0</ele><time>2026-04-25T09:16:05.999Z</time></trkpt><trkpt lat="45.935154750825205" lon="12.347300355656545"><ele>82.0</ele><time>2026-04-25T09:16:06.999Z</time></trkpt><trkpt lat="45.93506945467225" lon="12.347289039489066"><ele>82.0</ele><time>2026-04-25T09:16:07.999Z</time></trkpt><trkpt lat="45.93498420902051" lon="12.347323234160703"><ele>82.0</ele><time>2026-04-25T09:16:08.999Z</time></trkpt><trkpt lat="45.93491888139886" lon="12.347415252870455"><ele>81.6</ele><time>2026-04-25T09:16:09.999Z</time></trkpt><trkpt lat="45.9348787727479" lon="12.347542170665472"><ele>81.19999999999999</ele><time>2026-04-25T09:16:10.999Z</time></trkpt><trkpt lat="45.934847527921114" lon="12.34767177109614"><ele>80.8</ele><time>2026-04-25T09:16:11.999Z</time></trkpt><trkpt lat="45.93481577698677" lon="12.347799813003732"><ele>80.4</ele><time>2026-04-25T09:16:12.999Z</time></trkpt><trkpt lat="45.934784587122685" lon="12.347935964469862"><ele>80.0</ele><time>2026-04-25T09:16:13.999Z</time></trkpt><trkpt lat="45.934748447516675" lon="12.34806267988296"><ele>79.5</ele><time>2026-04-25T09:16:14.999Z</time></trkpt><trkpt lat="45.93471151615566" lon="12.348189826502768"><ele>79.0</ele><time>2026-04-25T09:16:15.999Z</time></trkpt><trkpt lat="45.93467596611" lon="12.348304378931607"><ele>78.5</ele><time>2026-04-25T09:16:16.999Z</time></trkpt><trkpt lat="45.9346452569176" lon="12.348423864501951"><ele>78.0</ele><time>2026-04-25T09:16:17.999Z</time></trkpt><trkpt lat="45.934614985987494" lon="12.348534946304055"><ele>77.5</ele><time>2026-04-25T09:16:18.999Z</time></trkpt><trkpt lat="45.934581058131336" lon="12.348644636302241"><ele>77.0</ele><time>2026-04-25T09:16:19.999Z</time></trkpt><trkpt lat="45.93454752758413" lon="12.348755916198664"><ele>77.0</ele><time>2026-04-25T09:16:20.999Z</time></trkpt><trkpt lat="45.93449997100697" lon="12.34886579468575"><ele>77.0</ele><time>2026-04-25T09:16:21.999Z</time></trkpt><trkpt lat="45.93445285976117" lon="12.348966558073435"><ele>77.0</ele><time>2026-04-25T09:16:22.999Z</time></trkpt><trkpt lat="45.934400660712996" lon="12.349061060754808"><ele>77.0</ele><time>2026-04-25T09:16:23.999Z</time></trkpt><trkpt lat="45.93433713632235" lon="12.349160047406983"><ele>77.0</ele><time>2026-04-25T09:16:24.999Z</time></trkpt><trkpt lat="45.93427241392604" lon="12.349251487747601"><ele>77.0</ele><time>2026-04-25T09:16:25.999Z</time></trkpt><trkpt lat="45.93420523317778" lon="12.349353494553617"><ele>77.0</ele><time>2026-04-25T09:16:26.999Z</time></trkpt><trkpt lat="45.93413853584388" lon="12.349453822417017"><ele>77.0</ele><time>2026-04-25T09:16:27.999Z</time></trkpt><trkpt lat="45.93407173148736" lon="12.349560523397672"><ele>77.0</ele><time>2026-04-25T09:16:28.999Z</time></trkpt><trkpt lat="45.934007236731325" lon="12.349673393142353"><ele>77.0</ele><time>2026-04-25T09:16:29.999Z</time></trkpt><trkpt lat="45.93394390537678" lon="12.349786707727016"><ele>77.0</ele><time>2026-04-25T09:16:30.999Z</time></trkpt><trkpt lat="45.93388638633835" lon="12.349907286249328"><ele>76.4</ele><time>2026-04-25T09:16:31.999Z</time></trkpt><trkpt lat="45.93383742636476" lon="12.350036268852996"><ele>75.80000000000001</ele><time>2026-04-25T09:16:32.999Z</time></trkpt><trkpt lat="45.93378981532481" lon="12.350160182459854"><ele>75.2</ele><time>2026-04-25T09:16:33.999Z</time></trkpt><trkpt lat="45.933740606265694" lon="12.350280688992251"><ele>74.60000000000001</ele><time>2026-04-25T09:16:34.999Z</time></trkpt><trkpt lat="45.93368778119575" lon="12.350396936542726"><ele>74.0</ele><time>2026-04-25T09:16:35.999Z</time></trkpt><trkpt lat="45.93364489060481" lon="12.350500320758337"><ele>73.60000000000001</ele><time>2026-04-25T09:16:36.999Z</time></trkpt><trkpt lat="45.93360827391542" lon="12.350600172903425"><ele>73.2</ele><time>2026-04-25T09:16:37.999Z</time></trkpt><trkpt lat="45.933538506173356" lon="12.350720269903574"><ele>72.80000000000001</ele><time>2026-04-25T09:16:39.999Z</time></trkpt><trkpt lat="45.93344307514148" lon="12.350718789227747"><ele>72.4</ele><time>2026-04-25T09:16:41.999Z</time></trkpt><trkpt lat="45.93337055648496" lon="12.350615666687073"><ele>72.0</ele><time>2026-04-25T09:16:43.999Z</time></trkpt><trkpt lat="45.93331918200734" lon="12.350555114261585"><ele>72.16666666666667</ele><time>2026-04-25T09:16:44.999Z</time></trkpt><trkpt lat="45.93325008365987" lon="12.350494571474126"><ele>72.33333333333333</ele><time>2026-04-25T09:16:45.999Z</time></trkpt><trkpt lat="45.93318001030648" lon="12.350441173522935"><ele>72.5</ele><time>2026-04-25T09:16:46.999Z</time></trkpt><trkpt lat="45.933111543950325" lon="12.350380917700637"><ele>72.66666666666666</ele><time>2026-04-25T09:16:47.999Z</time></trkpt><trkpt lat="45.93304414592398" lon="12.35032044122703"><ele>72.83333333333333</ele><time>2026-04-25T09:16:48.999Z</time></trkpt><trkpt lat="45.93297933137926" lon="12.350246430584022"><ele>73.0</ele><time>2026-04-25T09:16:49.999Z</time></trkpt><trkpt lat="45.932911555707626" lon="12.350188861172237"><ele>73.0</ele><time>2026-04-25T09:16:50.999Z</time></trkpt><trkpt lat="45.932838292642856" lon="12.350138094143274"><ele>73.0</ele><time>2026-04-25T09:16:51.999Z</time></trkpt><trkpt lat="45.93276623715311" lon="12.350083727322108"><ele>73.0</ele><time>2026-04-25T09:16:52.999Z</time></trkpt><trkpt lat="45.932694109478916" lon="12.350019616335057"><ele>73.0</ele><time>2026-04-25T09:16:53.999Z</time></trkpt><trkpt lat="45.932627215847866" lon="12.349959173462874"><ele>73.0</ele><time>2026-04-25T09:16:54.999Z</time></trkpt><trkpt lat="45.93256064289626" lon="12.349899690868712"><ele>73.0</ele><time>2026-04-25T09:16:55.999Z</time></trkpt><trkpt lat="45.93249225471295" lon="12.349837207793755"><ele>72.33333333333333</ele><time>2026-04-25T09:16:56.999Z</time></trkpt><trkpt lat="45.93242311062826" lon="12.34977883852544"><ele>71.66666666666666</ele><time>2026-04-25T09:16:57.999Z</time></trkpt><trkpt lat="45.932351888253564" lon="12.349720862651136"><ele>71.0</ele><time>2026-04-25T09:16:58.999Z</time></trkpt><trkpt lat="45.9322836752461" lon="12.349662128927866"><ele>70.33333333333333</ele><time>2026-04-25T09:16:59.999Z</time></trkpt><trkpt lat="45.93221573368141" lon="12.349606669370116"><ele>69.66666666666667</ele><time>2026-04-25T09:17:00.999Z</time></trkpt><trkpt lat="45.93214713611258" lon="12.349548472440107"><ele>69.0</ele><time>2026-04-25T09:17:01.999Z</time></trkpt><trkpt lat="45.93207938178931" lon="12.349497424625733"><ele>68.83333333333333</ele><time>2026-04-25T09:17:02.999Z</time></trkpt><trkpt lat="45.93201891518033" lon="12.349470321762277"><ele>68.66666666666667</ele><time>2026-04-25T09:17:03.999Z</time></trkpt><trkpt lat="45.931908220382894" lon="12.34950292119141"><ele>68.5</ele><time>2026-04-25T09:17:05.999Z</time></trkpt><trkpt lat="45.9318561038681" lon="12.349557903355297"><ele>68.33333333333334</ele><time>2026-04-25T09:17:06.999Z</time></trkpt><trkpt lat="45.93180666604883" lon="12.349622792950102"><ele>68.16666666666667</ele><time>2026-04-25T09:17:07.999Z</time></trkpt><trkpt lat="45.93174662122056" lon="12.349683376875847"><ele>68.0</ele><time>2026-04-25T09:17:08.999Z</time></trkpt><trkpt lat="45.93168157843767" lon="12.349733449000748"><ele>68.33333333333334</ele><time>2026-04-25T09:17:09.999Z</time></trkpt><trkpt lat="45.931612070471246" lon="12.34977867821589"><ele>68.66666666666667</ele><time>2026-04-25T09:17:10.999Z</time></trkpt><trkpt lat="45.931543517223005" lon="12.349817069556684"><ele>69.0</ele><time>2026-04-25T09:17:11.999Z</time></trkpt><trkpt lat="45.93147391064079" lon="12.34985501952423"><ele>69.33333333333333</ele><time>2026-04-25T09:17:12.999Z</time></trkpt><trkpt lat="45.931408825323295" lon="12.349895229706412"><ele>69.66666666666666</ele><time>2026-04-25T09:17:13.999Z</time></trkpt><trkpt lat="45.93134105665983" lon="12.349950248620036"><ele>70.0</ele><time>2026-04-25T09:17:14.999Z</time></trkpt><trkpt lat="45.93128097596794" lon="12.35002212546963"><ele>70.0</ele><time>2026-04-25T09:17:15.999Z</time></trkpt><trkpt lat="45.93123287271289" lon="12.350104839531959"><ele>70.0</ele><time>2026-04-25T09:17:16.999Z</time></trkpt><trkpt lat="45.93118938545373" lon="12.350190635945328"><ele>70.0</ele><time>2026-04-25T09:17:17.999Z</time></trkpt><trkpt lat="45.93111922872343" lon="12.350238771849662"><ele>70.0</ele><time>2026-04-25T09:17:18.999Z</time></trkpt><trkpt lat="45.93110198432061" lon="12.350344364763448"><ele>70.0</ele><time>2026-04-25T09:17:19.999Z</time></trkpt><trkpt lat="45.931057274298865" lon="12.350417041183642"><ele>70.0</ele><time>2026-04-25T09:17:20.999Z</time></trkpt><trkpt lat="45.93101113631658" lon="12.350492008159879"><ele>70.0</ele><time>2026-04-25T09:17:21.999Z</time></trkpt><trkpt lat="45.93096543463467" lon="12.350572512319049"><ele>70.0</ele><time>2026-04-25T09:17:22.999Z</time></trkpt><trkpt lat="45.93089935987214" lon="12.350724582433132"><ele>70.0</ele><time>2026-04-25T09:17:24.999Z</time></trkpt><trkpt lat="45.93086171386342" lon="12.350804899158648"><ele>70.0</ele><time>2026-04-25T09:17:25.999Z</time></trkpt><trkpt lat="45.930826287149785" lon="12.350891123687099"><ele>70.0</ele><time>2026-04-25T09:17:26.999Z</time></trkpt><trkpt lat="45.93080251027997" lon="12.350981538130904"><ele>70.0</ele><time>2026-04-25T09:17:27.999Z</time></trkpt><trkpt lat="45.930772445555036" lon="12.351077537581068"><ele>70.0</ele><time>2026-04-25T09:17:28.999Z</time></trkpt><trkpt lat="45.93074408792468" lon="12.351180927433752"><ele>69.5</ele><time>2026-04-25T09:17:29.999Z</time></trkpt><trkpt lat="45.93071978052864" lon="12.35127810772395"><ele>69.0</ele><time>2026-04-25T09:17:30.999Z</time></trkpt><trkpt lat="45.930696147264946" lon="12.35137867141323"><ele>68.5</ele><time>2026-04-25T09:17:31.999Z</time></trkpt><trkpt lat="45.93067064859891" lon="12.351477535398937"><ele>68.0</ele><time>2026-04-25T09:17:32.999Z</time></trkpt><trkpt lat="45.930645138828574" lon="12.351583309490662"><ele>67.5</ele><time>2026-04-25T09:17:33.999Z</time></trkpt><trkpt lat="45.930619347164374" lon="12.351686233848092"><ele>67.0</ele><time>2026-04-25T09:17:34.999Z</time></trkpt><trkpt lat="45.93059593179272" lon="12.351792812314951"><ele>67.0</ele><time>2026-04-25T09:17:35.999Z</time></trkpt><trkpt lat="45.930574481658994" lon="12.351906889875528"><ele>67.0</ele><time>2026-04-25T09:17:36.999Z</time></trkpt><trkpt lat="45.93055230049073" lon="12.352008314825223"><ele>67.0</ele><time>2026-04-25T09:17:37.999Z</time></trkpt><trkpt lat="45.93053292949703" lon="12.352102107022787"><ele>67.0</ele><time>2026-04-25T09:17:38.999Z</time></trkpt><trkpt lat="45.930495926368984" lon="12.352219359952905"><ele>67.0</ele><time>2026-04-25T09:17:40.999Z</time></trkpt><trkpt lat="45.93042770501391" lon="12.352225329914521"><ele>67.0</ele><time>2026-04-25T09:17:42.999Z</time></trkpt><trkpt lat="45.93033866046455" lon="12.352128162109215"><ele>67.0</ele><time>2026-04-25T09:17:45Z</time></trkpt><trkpt lat="45.93028658940472" lon="12.352067048364185"><ele>67.0</ele><time>2026-04-25T09:17:46Z</time></trkpt><trkpt lat="45.93023109612367" lon="12.352002950047916"><ele>67.0</ele><time>2026-04-25T09:17:47Z</time></trkpt><trkpt lat="45.93016945721206" lon="12.351936999423852"><ele>67.0</ele><time>2026-04-25T09:17:48Z</time></trkpt><trkpt lat="45.93010613024938" lon="12.351866124647104"><ele>67.0</ele><time>2026-04-25T09:17:49Z</time></trkpt><trkpt lat="45.93004876001889" lon="12.351789379753674"><ele>67.0</ele><time>2026-04-25T09:17:50Z</time></trkpt><trkpt lat="45.92999176510835" lon="12.351698802296232"><ele>66.5</ele><time>2026-04-25T09:17:51Z</time></trkpt><trkpt lat="45.92994537895752" lon="12.351591842259888"><ele>66.0</ele><time>2026-04-25T09:17:52Z</time></trkpt><trkpt lat="45.929897932004565" lon="12.35149038874362"><ele>65.5</ele><time>2026-04-25T09:17:53Z</time></trkpt><trkpt lat="45.92984105424649" lon="12.351397153600132"><ele>65.0</ele><time>2026-04-25T09:17:54Z</time></trkpt><trkpt lat="45.929772861884835" lon="12.35131999881217"><ele>64.5</ele><time>2026-04-25T09:17:55Z</time></trkpt><trkpt lat="45.92970005500574" lon="12.351258219980311"><ele>64.0</ele><time>2026-04-25T09:17:56Z</time></trkpt><trkpt lat="45.92962264649911" lon="12.351204822638875"><ele>64.0</ele><time>2026-04-25T09:17:57Z</time></trkpt><trkpt lat="45.92954807881732" lon="12.351154742760434"><ele>63.99999999999999</ele><time>2026-04-25T09:17:58Z</time></trkpt><trkpt lat="45.929479046356455" lon="12.351093545676562"><ele>64.0</ele><time>2026-04-25T09:17:59Z</time></trkpt><trkpt lat="45.92942195965484" lon="12.351026656680434"><ele>64.0</ele><time>2026-04-25T09:18:00Z</time></trkpt><trkpt lat="45.92937376575319" lon="12.350948320391746"><ele>63.99999999999999</ele><time>2026-04-25T09:18:01Z</time></trkpt><trkpt lat="45.92932779362749" lon="12.350869451192086"><ele>64.0</ele><time>2026-04-25T09:18:02Z</time></trkpt><trkpt lat="45.92928492093409" lon="12.35079843251859"><ele>64.0</ele><time>2026-04-25T09:18:03Z</time></trkpt><trkpt lat="45.92924299063723" lon="12.350724529624022"><ele>64.16666666666666</ele><time>2026-04-25T09:18:04Z</time></trkpt><trkpt lat="45.9291606323533" lon="12.350600221527651"><ele>64.33333333333333</ele><time>2026-04-25T09:18:06Z</time></trkpt><trkpt lat="45.929116445296486" lon="12.350533803390261"><ele>64.5</ele><time>2026-04-25T09:18:07Z</time></trkpt><trkpt lat="45.92907512284996" lon="12.350460327237109"><ele>64.66666666666667</ele><time>2026-04-25T09:18:08Z</time></trkpt><trkpt lat="45.92900085044321" lon="12.35031400419961"><ele>64.83333333333334</ele><time>2026-04-25T09:18:10Z</time></trkpt><trkpt lat="45.928956511194784" lon="12.350246753564104"><ele>65.0</ele><time>2026-04-25T09:18:11Z</time></trkpt><trkpt lat="45.92887062604432" lon="12.350125999319355"><ele>65.0</ele><time>2026-04-25T09:18:13Z</time></trkpt><trkpt lat="45.92878236203365" lon="12.350004582574963"><ele>65.0</ele><time>2026-04-25T09:18:15Z</time></trkpt><trkpt lat="45.92868505383474" lon="12.34990358491917"><ele>65.0</ele><time>2026-04-25T09:18:17Z</time></trkpt><trkpt lat="45.92858623713175" lon="12.349802403450644"><ele>65.0</ele><time>2026-04-25T09:18:19Z</time></trkpt><trkpt lat="45.92849813494477" lon="12.349688125845054"><ele>65.25</ele><time>2026-04-25T09:18:21Z</time></trkpt><trkpt lat="45.92841655658739" lon="12.349563900359465"><ele>65.5</ele><time>2026-04-25T09:18:23Z</time></trkpt><trkpt lat="45.928326664146745" lon="12.34946216646854"><ele>65.75</ele><time>2026-04-25T09:18:25Z</time></trkpt><trkpt lat="45.92824580381706" lon="12.349349160532844"><ele>66.0</ele><time>2026-04-25T09:18:27Z</time></trkpt><trkpt lat="45.92815959556799" lon="12.349234355962896"><ele>67.0</ele><time>2026-04-25T09:18:29Z</time></trkpt><trkpt lat="45.928062251079844" lon="12.349158344535127"><ele>68.0</ele><time>2026-04-25T09:18:31Z</time></trkpt><trkpt lat="45.927931599096084" lon="12.349148880961039"><ele>69.0</ele><time>2026-04-25T09:18:33Z</time></trkpt><trkpt lat="45.92787091982417" lon="12.349179531477755"><ele>70.0</ele><time>2026-04-25T09:18:34Z</time></trkpt><trkpt lat="45.92782197756594" lon="12.349238011927447"><ele>71.0</ele><time>2026-04-25T09:18:35Z</time></trkpt><trkpt lat="45.92777932971101" lon="12.349323586129701"><ele>72.0</ele><time>2026-04-25T09:18:36Z</time></trkpt><trkpt lat="45.92774061044208" lon="12.34940785481912"><ele>72.0</ele><time>2026-04-25T09:18:37Z</time></trkpt><trkpt lat="45.92769999747861" lon="12.349485201308791"><ele>72.0</ele><time>2026-04-25T09:18:38Z</time></trkpt><trkpt lat="45.927643295061564" lon="12.349552531921155"><ele>72.0</ele><time>2026-04-25T09:18:39Z</time></trkpt><trkpt lat="45.92758303938835" lon="12.349615947080984"><ele>72.0</ele><time>2026-04-25T09:18:39.999Z</time></trkpt><trkpt lat="45.92751404546613" lon="12.34966512083844"><ele>72.0</ele><time>2026-04-25T09:18:40.999Z</time></trkpt><trkpt lat="45.92743762291484" lon="12.349705759742578"><ele>72.0</ele><time>2026-04-25T09:18:41.999Z</time></trkpt><trkpt lat="45.927358915685474" lon="12.349742938555169"><ele>71.33333333333333</ele><time>2026-04-25T09:18:42.999Z</time></trkpt><trkpt lat="45.92728336640886" lon="12.34977676256912"><ele>70.66666666666667</ele><time>2026-04-25T09:18:43.999Z</time></trkpt><trkpt lat="45.92720611415602" lon="12.34979463514675"><ele>70.0</ele><time>2026-04-25T09:18:44.999Z</time></trkpt><trkpt lat="45.927129543308844" lon="12.349805796207283"><ele>69.33333333333334</ele><time>2026-04-25T09:18:45.999Z</time></trkpt><trkpt lat="45.92705625545134" lon="12.34981067898321"><ele>68.66666666666667</ele><time>2026-04-25T09:18:46.999Z</time></trkpt><trkpt lat="45.926972617922836" lon="12.349796783846877"><ele>68.0</ele><time>2026-04-25T09:18:47.999Z</time></trkpt><trkpt lat="45.92689747604802" lon="12.349763770651297"><ele>67.99999999999999</ele><time>2026-04-25T09:18:48.999Z</time></trkpt><trkpt lat="45.92682188010562" lon="12.349725533332142"><ele>68.0</ele><time>2026-04-25T09:18:49.999Z</time></trkpt><trkpt lat="45.92675439983573" lon="12.349674708705091"><ele>68.0</ele><time>2026-04-25T09:18:50.999Z</time></trkpt><trkpt lat="45.926694674031125" lon="12.349615854172823"><ele>68.0</ele><time>2026-04-25T09:18:51.999Z</time></trkpt><trkpt lat="45.92662987845059" lon="12.349558702852176"><ele>68.0</ele><time>2026-04-25T09:18:52.999Z</time></trkpt><trkpt lat="45.92656645397035" lon="12.349507097574447"><ele>67.99999999999999</ele><time>2026-04-25T09:18:53.999Z</time></trkpt><trkpt lat="45.926503992988444" lon="12.349467652399916"><ele>68.0</ele><time>2026-04-25T09:18:54.999Z</time></trkpt><trkpt lat="45.92643991885282" lon="12.34943498688235"><ele>68.6</ele><time>2026-04-25T09:18:55.999Z</time></trkpt><trkpt lat="45.92637865140951" lon="12.349399548373203"><ele>69.19999999999999</ele><time>2026-04-25T09:18:56.999Z</time></trkpt><trkpt lat="45.926266116792874" lon="12.34935850328433"><ele>69.8</ele><time>2026-04-25T09:18:58.999Z</time></trkpt><trkpt lat="45.92617245997918" lon="12.349279902381223"><ele>70.39999999999999</ele><time>2026-04-25T09:19:00.999Z</time></trkpt><trkpt lat="45.92617018776426" lon="12.349116590897756"><ele>71.0</ele><time>2026-04-25T09:19:02.999Z</time></trkpt><trkpt lat="45.92624197832574" lon="12.348977390938948"><ele>71.6</ele><time>2026-04-25T09:19:04.999Z</time></trkpt><trkpt lat="45.926326027343286" lon="12.348845365904825"><ele>72.19999999999999</ele><time>2026-04-25T09:19:06.999Z</time></trkpt><trkpt lat="45.926356213760826" lon="12.348757191129144"><ele>72.80000000000001</ele><time>2026-04-25T09:19:07.999Z</time></trkpt><trkpt lat="45.92642317882223" lon="12.348607055080798"><ele>73.4</ele><time>2026-04-25T09:19:09.999Z</time></trkpt><trkpt lat="45.926481634372216" lon="12.34846644097911"><ele>74.0</ele><time>2026-04-25T09:19:11.999Z</time></trkpt><trkpt lat="45.92652161358929" lon="12.348391670784645"><ele>74.0</ele><time>2026-04-25T09:19:12.999Z</time></trkpt><trkpt lat="45.926598536330644" lon="12.34824900523366"><ele>74.0</ele><time>2026-04-25T09:19:14.999Z</time></trkpt><trkpt lat="45.926671799235194" lon="12.34811793753638"><ele>74.0</ele><time>2026-04-25T09:19:16.999Z</time></trkpt><trkpt lat="45.92673520550975" lon="12.347970990697773"><ele>74.0</ele><time>2026-04-25T09:19:18.999Z</time></trkpt><trkpt lat="45.92679775161919" lon="12.347832239224328"><ele>74.2</ele><time>2026-04-25T09:19:20.999Z</time></trkpt><trkpt lat="45.92686385950122" lon="12.347688019758937"><ele>74.4</ele><time>2026-04-25T09:19:22.999Z</time></trkpt><trkpt lat="45.92689545903545" lon="12.347606390751677"><ele>74.6</ele><time>2026-04-25T09:19:23.999Z</time></trkpt><trkpt lat="45.92694863002924" lon="12.347460059607876"><ele>74.8</ele><time>2026-04-25T09:19:25.999Z</time></trkpt><trkpt lat="45.92700809884849" lon="12.347317615495795"><ele>75.0</ele><time>2026-04-25T09:19:27.999Z</time></trkpt><trkpt lat="45.92706768786423" lon="12.347167155236555"><ele>75.75</ele><time>2026-04-25T09:19:29.999Z</time></trkpt><trkpt lat="45.92711927869506" lon="12.347011421418348"><ele>76.5</ele><time>2026-04-25T09:19:31.999Z</time></trkpt><trkpt lat="45.92717098611755" lon="12.346855925038664"><ele>77.25</ele><time>2026-04-25T09:19:33.999Z</time></trkpt><trkpt lat="45.92722410506582" lon="12.346695822705037"><ele>78.0</ele><time>2026-04-25T09:19:35.999Z</time></trkpt><trkpt lat="45.9272746207543" lon="12.34653495105769"><ele>78.0</ele><time>2026-04-25T09:19:37.999Z</time></trkpt><trkpt lat="45.92730418833177" lon="12.346449860414463"><ele>78.0</ele><time>2026-04-25T09:19:38.999Z</time></trkpt><trkpt lat="45.927327245441546" lon="12.346360737984618"><ele>78.0</ele><time>2026-04-25T09:19:39.999Z</time></trkpt><trkpt lat="45.927350444862995" lon="12.346276124646929"><ele>78.0</ele><time>2026-04-25T09:19:40.999Z</time></trkpt><trkpt lat="45.92737011284383" lon="12.346184755451628"><ele>78.0</ele><time>2026-04-25T09:19:41.999Z</time></trkpt><trkpt lat="45.92741539082286" lon="12.346023594719878"><ele>78.0</ele><time>2026-04-25T09:19:43.999Z</time></trkpt><trkpt lat="45.927436316486435" lon="12.345934916241568"><ele>78.0</ele><time>2026-04-25T09:19:44.999Z</time></trkpt><trkpt lat="45.92748099577878" lon="12.345773854833872"><ele>78.8</ele><time>2026-04-25T09:19:46.999Z</time></trkpt><trkpt lat="45.92751358210694" lon="12.345625722375416"><ele>79.6</ele><time>2026-04-25T09:19:48.999Z</time></trkpt><trkpt lat="45.92748084872268" lon="12.34549874147074"><ele>80.39999999999999</ele><time>2026-04-25T09:19:51Z</time></trkpt><trkpt lat="45.92738990855382" lon="12.34539454917126"><ele>81.19999999999999</ele><time>2026-04-25T09:19:53Z</time></trkpt><trkpt lat="45.92733781342629" lon="12.345337650465645"><ele>82.0</ele><time>2026-04-25T09:19:54Z</time></trkpt><trkpt lat="45.927237731598716" lon="12.345231422848302"><ele>82.33333333333333</ele><time>2026-04-25T09:19:56Z</time></trkpt><trkpt lat="45.92718281511607" lon="12.345178192703605"><ele>82.66666666666666</ele><time>2026-04-25T09:19:57Z</time></trkpt><trkpt lat="45.92712927690813" lon="12.345108268988195"><ele>83.0</ele><time>2026-04-25T09:19:58Z</time></trkpt><trkpt lat="45.92707693870609" lon="12.345026609009338"><ele>83.33333333333333</ele><time>2026-04-25T09:19:59Z</time></trkpt><trkpt lat="45.92702271395332" lon="12.344927792369093"><ele>83.66666666666667</ele><time>2026-04-25T09:20:00Z</time></trkpt><trkpt lat="45.92697375975668" lon="12.344815953912223"><ele>84.0</ele><time>2026-04-25T09:20:01Z</time></trkpt><trkpt lat="45.92692083964831" lon="12.344702685507112"><ele>84.4</ele><time>2026-04-25T09:20:02Z</time></trkpt><trkpt lat="45.92686475075517" lon="12.344593378506717"><ele>84.80000000000001</ele><time>2026-04-25T09:20:03Z</time></trkpt><trkpt lat="45.92680124467854" lon="12.344491623907713"><ele>85.19999999999999</ele><time>2026-04-25T09:20:04Z</time></trkpt><trkpt lat="45.9267328378138" lon="12.344382805098826"><ele>85.6</ele><time>2026-04-25T09:20:05Z</time></trkpt><trkpt lat="45.926662597196206" lon="12.344280240834516"><ele>86.0</ele><time>2026-04-25T09:20:06Z</time></trkpt><trkpt lat="45.92659480835911" lon="12.344168807723875"><ele>84.8</ele><time>2026-04-25T09:20:07Z</time></trkpt><trkpt lat="45.92652820873818" lon="12.34406080962772"><ele>83.6</ele><time>2026-04-25T09:20:08Z</time></trkpt><trkpt lat="45.92646149895235" lon="12.343961773374376"><ele>82.4</ele><time>2026-04-25T09:20:09Z</time></trkpt><trkpt lat="45.92640284653487" lon="12.34385201834755"><ele>81.2</ele><time>2026-04-25T09:20:10Z</time></trkpt><trkpt lat="45.92634304060146" lon="12.343745354956944"><ele>80.0</ele><time>2026-04-25T09:20:11Z</time></trkpt><trkpt lat="45.92628377618425" lon="12.343637339961688"><ele>80.0</ele><time>2026-04-25T09:20:12Z</time></trkpt><trkpt lat="45.92622256970965" lon="12.343534856400634"><ele>80.0</ele><time>2026-04-25T09:20:13Z</time></trkpt><trkpt lat="45.92616678581385" lon="12.343427770742462"><ele>80.0</ele><time>2026-04-25T09:20:14Z</time></trkpt><trkpt lat="45.92611010948492" lon="12.343326492078784"><ele>80.0</ele><time>2026-04-25T09:20:15Z</time></trkpt><trkpt lat="45.92605112998063" lon="12.343229084656263"><ele>80.0</ele><time>2026-04-25T09:20:16Z</time></trkpt><trkpt lat="45.92599096756081" lon="12.343132922364319"><ele>80.2</ele><time>2026-04-25T09:20:17Z</time></trkpt><trkpt lat="45.92593291197815" lon="12.34303537625205"><ele>80.4</ele><time>2026-04-25T09:20:18Z</time></trkpt><trkpt lat="45.925875192655624" lon="12.3429351822076"><ele>80.6</ele><time>2026-04-25T09:20:19Z</time></trkpt><trkpt lat="45.92581794339502" lon="12.34283779392981"><ele>80.8</ele><time>2026-04-25T09:20:20Z</time></trkpt><trkpt lat="45.925762266559374" lon="12.34273254856198"><ele>81.0</ele><time>2026-04-25T09:20:21Z</time></trkpt><trkpt lat="45.925705895207564" lon="12.34263093076505"><ele>79.5</ele><time>2026-04-25T09:20:22Z</time></trkpt><trkpt lat="45.92565439151201" lon="12.342534769193199"><ele>78.0</ele><time>2026-04-25T09:20:23Z</time></trkpt><trkpt lat="45.92560932630803" lon="12.34242560542151"><ele>76.5</ele><time>2026-04-25T09:20:24Z</time></trkpt><trkpt lat="45.92556328433684" lon="12.342313578055405"><ele>75.0</ele><time>2026-04-25T09:20:25Z</time></trkpt><trkpt lat="45.925516759555805" lon="12.342199478493466"><ele>73.5</ele><time>2026-04-25T09:20:26Z</time></trkpt><trkpt lat="45.92547343957038" lon="12.342087790650584"><ele>72.0</ele><time>2026-04-25T09:20:27Z</time></trkpt><trkpt lat="45.925439911218575" lon="12.341974658958426"><ele>72.0</ele><time>2026-04-25T09:20:28Z</time></trkpt><trkpt lat="45.9253990762718" lon="12.341861763977601"><ele>72.0</ele><time>2026-04-25T09:20:29Z</time></trkpt><trkpt lat="45.92537416499106" lon="12.34173978459378"><ele>72.0</ele><time>2026-04-25T09:20:30Z</time></trkpt><trkpt lat="45.925354578025775" lon="12.34162276623652"><ele>72.0</ele><time>2026-04-25T09:20:31Z</time></trkpt><trkpt lat="45.92534323506298" lon="12.341507680212416"><ele>72.0</ele><time>2026-04-25T09:20:32Z</time></trkpt><trkpt lat="45.92533265609361" lon="12.341384114780446"><ele>72.0</ele><time>2026-04-25T09:20:33Z</time></trkpt><trkpt lat="45.92531631065278" lon="12.34126804895082"><ele>72.16666666666667</ele><time>2026-04-25T09:20:34Z</time></trkpt><trkpt lat="45.92529495374686" lon="12.341155819849043"><ele>72.33333333333333</ele><time>2026-04-25T09:20:35Z</time></trkpt><trkpt lat="45.9252810668108" lon="12.34104522139686"><ele>72.5</ele><time>2026-04-25T09:20:36Z</time></trkpt><trkpt lat="45.92526794402711" lon="12.34093840307843"><ele>72.66666666666666</ele><time>2026-04-25T09:20:37Z</time></trkpt><trkpt lat="45.9252504326889" lon="12.340841724087959"><ele>72.83333333333333</ele><time>2026-04-25T09:20:38Z</time></trkpt><trkpt lat="45.925231473842025" lon="12.340745834619979"><ele>73.0</ele><time>2026-04-25T09:20:39Z</time></trkpt><trkpt lat="45.92520192067699" lon="12.340574307610433"><ele>72.8</ele><time>2026-04-25T09:20:41Z</time></trkpt><trkpt lat="45.92517356146676" lon="12.340419935359229"><ele>72.6</ele><time>2026-04-25T09:20:43Z</time></trkpt><trkpt lat="45.92513342507552" lon="12.340298926958063"><ele>72.4</ele><time>2026-04-25T09:20:45Z</time></trkpt><trkpt lat="45.92504734696651" lon="12.340266201785766"><ele>72.2</ele><time>2026-04-25T09:20:47Z</time></trkpt><trkpt lat="45.9249843345999" lon="12.340280367569793"><ele>72.0</ele><time>2026-04-25T09:20:48Z</time></trkpt><trkpt lat="45.92485893465186" lon="12.340271046971607"><ele>72.00000000000001</ele><time>2026-04-25T09:20:50Z</time></trkpt><trkpt lat="45.92479445908309" lon="12.340239553064547"><ele>72.0</ele><time>2026-04-25T09:20:51Z</time></trkpt><trkpt lat="45.92473301842485" lon="12.340182310245195"><ele>72.0</ele><time>2026-04-25T09:20:52Z</time></trkpt><trkpt lat="45.924676806800306" lon="12.340114009882567"><ele>72.0</ele><time>2026-04-25T09:20:53Z</time></trkpt><trkpt lat="45.924624943492006" lon="12.340049060309994"><ele>72.0</ele><time>2026-04-25T09:20:54Z</time></trkpt><trkpt lat="45.92457663802773" lon="12.339980524253349"><ele>72.00000000000001</ele><time>2026-04-25T09:20:55Z</time></trkpt><trkpt lat="45.92452894241232" lon="12.339905511253164"><ele>72.0</ele><time>2026-04-25T09:20:56Z</time></trkpt><trkpt lat="45.92447710739722" lon="12.339844612821851"><ele>72.0</ele><time>2026-04-25T09:20:57Z</time></trkpt><trkpt lat="45.92442487480387" lon="12.33977760341951"><ele>72.0</ele><time>2026-04-25T09:20:58Z</time></trkpt><trkpt lat="45.92432155692325" lon="12.33968779620183"><ele>72.0</ele><time>2026-04-25T09:21:00Z</time></trkpt><trkpt lat="45.924229632818474" lon="12.33963435127247"><ele>72.0</ele><time>2026-04-25T09:21:02Z</time></trkpt><trkpt lat="45.92414865458226" lon="12.339587022220563"><ele>72.0</ele><time>2026-04-25T09:21:04Z</time></trkpt><trkpt lat="45.924065393834795" lon="12.339544090176789"><ele>72.16666666666667</ele><time>2026-04-25T09:21:07Z</time></trkpt><trkpt lat="45.92399394235057" lon="12.33948546880209"><ele>72.33333333333333</ele><time>2026-04-25T09:21:10Z</time></trkpt><trkpt lat="45.92392302108179" lon="12.33944343588596"><ele>72.5</ele><time>2026-04-25T09:21:13Z</time></trkpt><trkpt lat="45.92387071775443" lon="12.339375803602806"><ele>72.66666666666666</ele><time>2026-04-25T09:21:16Z</time></trkpt><trkpt lat="45.92379919312009" lon="12.33930078040325"><ele>72.83333333333333</ele><time>2026-04-25T09:21:19.999Z</time></trkpt><trkpt lat="45.923736741598134" lon="12.339231168517324"><ele>73.0</ele><time>2026-04-25T09:21:22.999Z</time></trkpt><trkpt lat="45.923691185231114" lon="12.339136707341419"><ele>73.0</ele><time>2026-04-25T09:21:25.999Z</time></trkpt><trkpt lat="45.9236313531687" lon="12.339066124161862"><ele>73.0</ele><time>2026-04-25T09:21:28.999Z</time></trkpt><trkpt lat="45.923574557102924" lon="12.338998486502064"><ele>73.0</ele><time>2026-04-25T09:21:31.999Z</time></trkpt><trkpt lat="45.9235172495707" lon="12.338925383498406"><ele>73.0</ele><time>2026-04-25T09:21:34.999Z</time></trkpt><trkpt lat="45.92346752602659" lon="12.338863792544624"><ele>73.0</ele><time>2026-04-25T09:21:37.999Z</time></trkpt><trkpt lat="45.923404896357745" lon="12.338813518736332"><ele>73.0</ele><time>2026-04-25T09:21:42.999Z</time></trkpt><trkpt lat="45.92332722021313" lon="12.338771338334508"><ele>73.0</ele><time>2026-04-25T09:21:48.999Z</time></trkpt><trkpt lat="45.923262414893706" lon="12.338800520547798"><ele>75.0</ele><time>2026-04-25T09:21:53.999Z</time></trkpt><trkpt lat="45.923193880555715" lon="12.338845865123716"><ele>77.0</ele><time>2026-04-25T09:21:59Z</time></trkpt><trkpt lat="45.92313279256233" lon="12.33890750214605"><ele>79.0</ele><time>2026-04-25T09:22:04Z</time></trkpt><trkpt lat="45.9230663740533" lon="12.338943816552808"><ele>81.0</ele><time>2026-04-25T09:22:08Z</time></trkpt><trkpt lat="45.922997685107774" lon="12.339008850334599"><ele>83.0</ele><time>2026-04-25T09:22:14Z</time></trkpt><trkpt lat="45.922924593466504" lon="12.339077341829439"><ele>85.0</ele><time>2026-04-25T09:22:19Z</time></trkpt><trkpt lat="45.922862674545165" lon="12.339125281338253"><ele>85.0</ele><time>2026-04-25T09:22:24Z</time></trkpt><trkpt lat="45.922812719562536" lon="12.339193935642674"><ele>85.0</ele><time>2026-04-25T09:22:28Z</time></trkpt><trkpt lat="45.922749897004365" lon="12.339209118209219"><ele>85.0</ele><time>2026-04-25T09:22:33Z</time></trkpt><trkpt lat="45.92268319668308" lon="12.339248580435077"><ele>85.0</ele><time>2026-04-25T09:22:37Z</time></trkpt><trkpt lat="45.92261426117962" lon="12.339248506393098"><ele>85.0</ele><time>2026-04-25T09:22:42Z</time></trkpt><trkpt lat="45.92255261385963" lon="12.339280952102918"><ele>85.0</ele><time>2026-04-25T09:22:45Z</time></trkpt><trkpt lat="45.92248632611694" lon="12.339242617810338"><ele>85.0</ele><time>2026-04-25T09:22:50Z</time></trkpt><trkpt lat="45.922403267976435" lon="12.33922676055706"><ele>88.33333333333333</ele><time>2026-04-25T09:22:54Z</time></trkpt><trkpt lat="45.92233625356135" lon="12.339285429952335"><ele>91.66666666666666</ele><time>2026-04-25T09:22:58Z</time></trkpt><trkpt lat="45.92236143138655" lon="12.33936993520678"><ele>95.0</ele><time>2026-04-25T09:23:00Z</time></trkpt><trkpt lat="45.92234939578532" lon="12.339482568700666"><ele>98.33333333333333</ele><time>2026-04-25T09:23:04Z</time></trkpt><trkpt lat="45.92233737151328" lon="12.339586023335823"><ele>101.66666666666667</ele><time>2026-04-25T09:23:06Z</time></trkpt><trkpt lat="45.92229537855938" lon="12.339709617628767"><ele>105.0</ele><time>2026-04-25T09:23:10Z</time></trkpt><trkpt lat="45.92226558755237" lon="12.33979836370211"><ele>105.0</ele><time>2026-04-25T09:23:12Z</time></trkpt><trkpt lat="45.92223878569245" lon="12.339917180237634"><ele>105.0</ele><time>2026-04-25T09:23:16Z</time></trkpt><trkpt lat="45.922208899784934" lon="12.340014879855865"><ele>105.0</ele><time>2026-04-25T09:23:18Z</time></trkpt><trkpt lat="45.92218329247956" lon="12.340125431499025"><ele>105.0</ele><time>2026-04-25T09:23:20Z</time></trkpt><trkpt lat="45.922164225414654" lon="12.340245879900424"><ele>105.0</ele><time>2026-04-25T09:23:22Z</time></trkpt><trkpt lat="45.92211847848876" lon="12.340396469082972"><ele>105.0</ele><time>2026-04-25T09:23:24Z</time></trkpt><trkpt lat="45.92209917614963" lon="12.340539581445395"><ele>105.0</ele><time>2026-04-25T09:23:26Z</time></trkpt><trkpt lat="45.9220834453442" lon="12.340659974183307"><ele>105.0</ele><time>2026-04-25T09:23:27Z</time></trkpt><trkpt lat="45.92205728710069" lon="12.340811028286423"><ele>105.0</ele><time>2026-04-25T09:23:28Z</time></trkpt><trkpt lat="45.922038986206466" lon="12.340951734335352"><ele>105.0</ele><time>2026-04-25T09:23:29Z</time></trkpt><trkpt lat="45.92202054100759" lon="12.341088071879474"><ele>105.0</ele><time>2026-04-25T09:23:30Z</time></trkpt><trkpt lat="45.922013651898176" lon="12.341216653723452"><ele>105.0</ele><time>2026-04-25T09:23:31Z</time></trkpt><trkpt lat="45.922002487780055" lon="12.341350577593053"><ele>105.0</ele><time>2026-04-25T09:23:32Z</time></trkpt><trkpt lat="45.921990971066" lon="12.341479907964727"><ele>105.0</ele><time>2026-04-25T09:23:32.999Z</time></trkpt><trkpt lat="45.92196794449192" lon="12.341614483122536"><ele>105.0</ele><time>2026-04-25T09:23:33.999Z</time></trkpt><trkpt lat="45.921918609318425" lon="12.341786512212675"><ele>105.0</ele><time>2026-04-25T09:23:34.999Z</time></trkpt><trkpt lat="45.92187834204507" lon="12.341943398665636"><ele>102.6</ele><time>2026-04-25T09:23:35.999Z</time></trkpt><trkpt lat="45.921852531053055" lon="12.34208722590105"><ele>100.2</ele><time>2026-04-25T09:23:36.999Z</time></trkpt><trkpt lat="45.9218193810002" lon="12.342228788813694"><ele>97.80000000000001</ele><time>2026-04-25T09:23:37.999Z</time></trkpt><trkpt lat="45.921804884650044" lon="12.342373678870866"><ele>95.4</ele><time>2026-04-25T09:23:38.999Z</time></trkpt><trkpt lat="45.921812992682106" lon="12.342523699363559"><ele>93.0</ele><time>2026-04-25T09:23:39.999Z</time></trkpt><trkpt lat="45.92184494743691" lon="12.342677687711511"><ele>92.0</ele><time>2026-04-25T09:23:40.999Z</time></trkpt><trkpt lat="45.92189479398472" lon="12.342827734420661"><ele>91.0</ele><time>2026-04-25T09:23:41.999Z</time></trkpt><trkpt lat="45.92192097965786" lon="12.342998321819982"><ele>90.0</ele><time>2026-04-25T09:23:42.999Z</time></trkpt><trkpt lat="45.92193289047723" lon="12.343162954092483"><ele>89.0</ele><time>2026-04-25T09:23:43.999Z</time></trkpt><trkpt lat="45.921926085289364" lon="12.343341734192567"><ele>87.75</ele><time>2026-04-25T09:23:44.999Z</time></trkpt><trkpt lat="45.92191519998494" lon="12.343512673517164"><ele>86.5</ele><time>2026-04-25T09:23:45.999Z</time></trkpt><trkpt lat="45.92188486030234" lon="12.343676162024547"><ele>85.25</ele><time>2026-04-25T09:23:46.999Z</time></trkpt><trkpt lat="45.92184089799867" lon="12.343840751681393"><ele>84.0</ele><time>2026-04-25T09:23:47.999Z</time></trkpt><trkpt lat="45.921812447372425" lon="12.343994717076598"><ele>83.4</ele><time>2026-04-25T09:23:48.999Z</time></trkpt><trkpt lat="45.921782194963775" lon="12.344152718462917"><ele>82.80000000000001</ele><time>2026-04-25T09:23:49.999Z</time></trkpt><trkpt lat="45.92174583334913" lon="12.344302017540603"><ele>82.19999999999999</ele><time>2026-04-25T09:23:50.999Z</time></trkpt><trkpt lat="45.92171820281152" lon="12.344447132510185"><ele>81.6</ele><time>2026-04-25T09:23:51.999Z</time></trkpt><trkpt lat="45.92168546307063" lon="12.344593643921128"><ele>81.0</ele><time>2026-04-25T09:23:52.999Z</time></trkpt><trkpt lat="45.92165924821356" lon="12.344744515088072"><ele>83.75</ele><time>2026-04-25T09:23:53.999Z</time></trkpt><trkpt lat="45.92165735704592" lon="12.34489590766006"><ele>86.5</ele><time>2026-04-25T09:23:54.999Z</time></trkpt><trkpt lat="45.921674555024836" lon="12.345054480188443"><ele>89.25</ele><time>2026-04-25T09:23:55.999Z</time></trkpt><trkpt lat="45.92169582932265" lon="12.345214292084984"><ele>92.0</ele><time>2026-04-25T09:23:56.999Z</time></trkpt><trkpt lat="45.92172207207187" lon="12.345384235626996"><ele>89.75</ele><time>2026-04-25T09:23:57.999Z</time></trkpt><trkpt lat="45.92175600139276" lon="12.345556864092975"><ele>87.5</ele><time>2026-04-25T09:23:58.999Z</time></trkpt><trkpt lat="45.92178084013096" lon="12.345745466006258"><ele>85.25</ele><time>2026-04-25T09:23:59.999Z</time></trkpt><trkpt lat="45.92180149869758" lon="12.345949474003662"><ele>83.0</ele><time>2026-04-25T09:24:00.999Z</time></trkpt><trkpt lat="45.92181774984149" lon="12.346150691321084"><ele>83.0</ele><time>2026-04-25T09:24:02Z</time></trkpt><trkpt lat="45.92181650324157" lon="12.346350445768897"><ele>83.0</ele><time>2026-04-25T09:24:03Z</time></trkpt><trkpt lat="45.92181167339878" lon="12.34654405664662"><ele>83.0</ele><time>2026-04-25T09:24:04Z</time></trkpt><trkpt lat="45.92180853080412" lon="12.346725478588967"><ele>83.0</ele><time>2026-04-25T09:24:05Z</time></trkpt><trkpt lat="45.921806636584336" lon="12.34687369521194"><ele>81.80000000000001</ele><time>2026-04-25T09:24:06Z</time></trkpt><trkpt lat="45.921795935419325" lon="12.347012944744387"><ele>80.60000000000001</ele><time>2026-04-25T09:24:07Z</time></trkpt><trkpt lat="45.921780923089834" lon="12.347137719156146"><ele>79.4</ele><time>2026-04-25T09:24:08Z</time></trkpt><trkpt lat="45.92174417949397" lon="12.347259236176416"><ele>78.2</ele><time>2026-04-25T09:24:09Z</time></trkpt><trkpt lat="45.92168994634761" lon="12.347382621997362"><ele>77.0</ele><time>2026-04-25T09:24:10Z</time></trkpt><trkpt lat="45.92161382533052" lon="12.34750097605462"><ele>74.75</ele><time>2026-04-25T09:24:11Z</time></trkpt><trkpt lat="45.921533317055925" lon="12.347613189953604"><ele>72.5</ele><time>2026-04-25T09:24:12Z</time></trkpt><trkpt lat="45.92144381819282" lon="12.34772484073982"><ele>70.25</ele><time>2026-04-25T09:24:13Z</time></trkpt><trkpt lat="45.92134529625657" lon="12.347829730822877"><ele>68.0</ele><time>2026-04-25T09:24:14Z</time></trkpt><trkpt lat="45.92124843360823" lon="12.34793909133773"><ele>66.4</ele><time>2026-04-25T09:24:15Z</time></trkpt><trkpt lat="45.921174870651626" lon="12.348063222620395"><ele>64.8</ele><time>2026-04-25T09:24:16Z</time></trkpt><trkpt lat="45.92112182881024" lon="12.34819367456179"><ele>63.2</ele><time>2026-04-25T09:24:17Z</time></trkpt><trkpt lat="45.92108405904142" lon="12.348308704273597"><ele>61.6</ele><time>2026-04-25T09:24:18Z</time></trkpt><trkpt lat="45.921040713130765" lon="12.348416769633308"><ele>60.0</ele><time>2026-04-25T09:24:20Z</time></trkpt><trkpt lat="45.92094436532597" lon="12.348364988359526"><ele>59.833333333333336</ele><time>2026-04-25T09:24:22Z</time></trkpt><trkpt lat="45.92089284307457" lon="12.348292877452517"><ele>59.66666666666667</ele><time>2026-04-25T09:24:23Z</time></trkpt><trkpt lat="45.92083602106832" lon="12.348213387246908"><ele>59.5</ele><time>2026-04-25T09:24:24Z</time></trkpt><trkpt lat="45.920780358858416" lon="12.348131570452523"><ele>59.333333333333336</ele><time>2026-04-25T09:24:25Z</time></trkpt><trkpt lat="45.92071786519412" lon="12.34806629405713"><ele>59.16666666666667</ele><time>2026-04-25T09:24:26Z</time></trkpt><trkpt lat="45.920656197324995" lon="12.348003105143393"><ele>59.0</ele><time>2026-04-25T09:24:27Z</time></trkpt><trkpt lat="45.92059141792942" lon="12.347943930225929"><ele>59.833333333333336</ele><time>2026-04-25T09:24:28Z</time></trkpt><trkpt lat="45.92052935354126" lon="12.347869642634647"><ele>60.66666666666667</ele><time>2026-04-25T09:24:29Z</time></trkpt><trkpt lat="45.920469846496296" lon="12.34778275590572"><ele>61.5</ele><time>2026-04-25T09:24:30Z</time></trkpt><trkpt lat="45.92041159536364" lon="12.34769044452302"><ele>62.33333333333333</ele><time>2026-04-25T09:24:31Z</time></trkpt><trkpt lat="45.92035263097943" lon="12.34760846932896"><ele>63.166666666666664</ele><time>2026-04-25T09:24:32Z</time></trkpt><trkpt lat="45.92028907184978" lon="12.347535446738595"><ele>64.0</ele><time>2026-04-25T09:24:33Z</time></trkpt><trkpt lat="45.920226494208485" lon="12.347465437495403"><ele>64.0</ele><time>2026-04-25T09:24:34Z</time></trkpt><trkpt lat="45.9201618140134" lon="12.34739581803549"><ele>63.99999999999999</ele><time>2026-04-25T09:24:35Z</time></trkpt><trkpt lat="45.9201007896869" lon="12.34732273165614"><ele>64.0</ele><time>2026-04-25T09:24:36Z</time></trkpt><trkpt lat="45.920049693900516" lon="12.347237938078832"><ele>64.0</ele><time>2026-04-25T09:24:37Z</time></trkpt><trkpt lat="45.92000851644354" lon="12.347150055216247"><ele>63.99999999999999</ele><time>2026-04-25T09:24:38Z</time></trkpt><trkpt lat="45.91998441390362" lon="12.347057643138385"><ele>64.0</ele><time>2026-04-25T09:24:39Z</time></trkpt><trkpt lat="45.91996642441931" lon="12.346967448375075"><ele>64.0</ele><time>2026-04-25T09:24:40Z</time></trkpt><trkpt lat="45.91992481184932" lon="12.346817533567478"><ele>64.0</ele><time>2026-04-25T09:24:42Z</time></trkpt><trkpt lat="45.919871699580106" lon="12.346676716291437"><ele>64.0</ele><time>2026-04-25T09:24:44Z</time></trkpt><trkpt lat="45.91981348677812" lon="12.346555864238477"><ele>64.0</ele><time>2026-04-25T09:24:46Z</time></trkpt><trkpt lat="45.919748855187095" lon="12.34643892513599"><ele>64.0</ele><time>2026-04-25T09:24:48Z</time></trkpt><trkpt lat="45.91967615736935" lon="12.346315102257762"><ele>64.0</ele><time>2026-04-25T09:24:50Z</time></trkpt><trkpt lat="45.91959349896857" lon="12.34617687896072"><ele>64.42857142857143</ele><time>2026-04-25T09:24:52Z</time></trkpt><trkpt lat="45.91955153597806" lon="12.346097577056165"><ele>64.85714285714285</ele><time>2026-04-25T09:24:53Z</time></trkpt><trkpt lat="45.919509418046516" lon="12.346019395797528"><ele>65.28571428571428</ele><time>2026-04-25T09:24:54Z</time></trkpt><trkpt lat="45.91946487545432" lon="12.3459439548339"><ele>65.71428571428571</ele><time>2026-04-25T09:24:55Z</time></trkpt><trkpt lat="45.91941653463371" lon="12.345866776414425"><ele>66.14285714285714</ele><time>2026-04-25T09:24:56Z</time></trkpt><trkpt lat="45.9193714447382" lon="12.345796017217785"><ele>66.57142857142857</ele><time>2026-04-25T09:24:57Z</time></trkpt><trkpt lat="45.91932421040666" lon="12.34572055212358"><ele>67.0</ele><time>2026-04-25T09:24:58Z</time></trkpt><trkpt lat="45.919281099823046" lon="12.345637514217525"><ele>67.0</ele><time>2026-04-25T09:24:59Z</time></trkpt><trkpt lat="45.9192417274559" lon="12.345565051576173"><ele>67.0</ele><time>2026-04-25T09:25:00Z</time></trkpt><trkpt lat="45.91919773634985" lon="12.345484936545107"><ele>67.0</ele><time>2026-04-25T09:25:01Z</time></trkpt><trkpt lat="45.919149018214526" lon="12.345401860628103"><ele>67.0</ele><time>2026-04-25T09:25:02Z</time></trkpt><trkpt lat="45.91910275160307" lon="12.345322916549412"><ele>67.0</ele><time>2026-04-25T09:25:03Z</time></trkpt><trkpt lat="45.919058463302825" lon="12.345243743496846"><ele>67.0</ele><time>2026-04-25T09:25:04Z</time></trkpt><trkpt lat="45.91901264522028" lon="12.345166821642625"><ele>67.0</ele><time>2026-04-25T09:25:05Z</time></trkpt><trkpt lat="45.91897266105662" lon="12.345090352420936"><ele>66.8</ele><time>2026-04-25T09:25:06Z</time></trkpt><trkpt lat="45.91893817892539" lon="12.345014200740595"><ele>66.6</ele><time>2026-04-25T09:25:07Z</time></trkpt><trkpt lat="45.91888611529292" lon="12.344851074558862"><ele>66.39999999999999</ele><time>2026-04-25T09:25:09Z</time></trkpt><trkpt lat="45.91884865252065" lon="12.344696235793762"><ele>66.2</ele><time>2026-04-25T09:25:11Z</time></trkpt><trkpt lat="45.9187955307364" lon="12.344564690584528"><ele>66.0</ele><time>2026-04-25T09:25:13Z</time></trkpt><trkpt lat="45.918726348522654" lon="12.344424088218803"><ele>66.0</ele><time>2026-04-25T09:25:15Z</time></trkpt><trkpt lat="45.91865426005636" lon="12.344297315670746"><ele>66.0</ele><time>2026-04-25T09:25:17Z</time></trkpt><trkpt lat="45.91857572469398" lon="12.344173599188585"><ele>66.0</ele><time>2026-04-25T09:25:18.999Z</time></trkpt><trkpt lat="45.91849746249303" lon="12.344046864794063"><ele>66.0</ele><time>2026-04-25T09:25:20.999Z</time></trkpt><trkpt lat="45.91840715675942" lon="12.343923094641598"><ele>65.85714285714286</ele><time>2026-04-25T09:25:22.999Z</time></trkpt><trkpt lat="45.918358442938874" lon="12.343862840465926"><ele>65.71428571428572</ele><time>2026-04-25T09:25:23.999Z</time></trkpt><trkpt lat="45.91830974447343" lon="12.343805305932854"><ele>65.57142857142858</ele><time>2026-04-25T09:25:24.999Z</time></trkpt><trkpt lat="45.918259421632136" lon="12.343735064699576"><ele>65.42857142857143</ele><time>2026-04-25T09:25:25.999Z</time></trkpt><trkpt lat="45.91820669378747" lon="12.34366610856504"><ele>65.28571428571429</ele><time>2026-04-25T09:25:26.999Z</time></trkpt><trkpt lat="45.918152607021035" lon="12.34359816028417"><ele>65.14285714285715</ele><time>2026-04-25T09:25:27.999Z</time></trkpt><trkpt lat="45.918103649226694" lon="12.343523025580234"><ele>65.0</ele><time>2026-04-25T09:25:28.999Z</time></trkpt><trkpt lat="45.918052674169424" lon="12.34343565759802"><ele>65.0</ele><time>2026-04-25T09:25:29.999Z</time></trkpt><trkpt lat="45.918011581144015" lon="12.343344790386148"><ele>65.0</ele><time>2026-04-25T09:25:30.999Z</time></trkpt><trkpt lat="45.91797220740906" lon="12.343260133141364"><ele>65.0</ele><time>2026-04-25T09:25:31.999Z</time></trkpt><trkpt lat="45.917846457583664" lon="12.343201982879577"><ele>65.0</ele><time>2026-04-25T09:25:33.999Z</time></trkpt><trkpt lat="45.91776914153402" lon="12.343214212263593"><ele>65.0</ele><time>2026-04-25T09:25:34.999Z</time></trkpt><trkpt lat="45.91769207109045" lon="12.343239106569964"><ele>65.0</ele><time>2026-04-25T09:25:35.999Z</time></trkpt><trkpt lat="45.91761418918503" lon="12.34325969362478"><ele>64.83333333333334</ele><time>2026-04-25T09:25:36.999Z</time></trkpt><trkpt lat="45.91753786163181" lon="12.343275681229507"><ele>64.66666666666667</ele><time>2026-04-25T09:25:37.999Z</time></trkpt><trkpt lat="45.917459696981574" lon="12.343284040447916"><ele>64.5</ele><time>2026-04-25T09:25:38.999Z</time></trkpt><trkpt lat="45.917377633510924" lon="12.343300548813826"><ele>64.33333333333333</ele><time>2026-04-25T09:25:39.999Z</time></trkpt><trkpt lat="45.91729675919221" lon="12.343332577618412"><ele>64.16666666666666</ele><time>2026-04-25T09:25:40.999Z</time></trkpt><trkpt lat="45.91722035047207" lon="12.343377738354357"><ele>64.0</ele><time>2026-04-25T09:25:41.999Z</time></trkpt><trkpt lat="45.91714073491242" lon="12.34342251641202"><ele>63.99999999999999</ele><time>2026-04-25T09:25:42.999Z</time></trkpt><trkpt lat="45.91706414198971" lon="12.343467136071474"><ele>64.0</ele><time>2026-04-25T09:25:43.999Z</time></trkpt><trkpt lat="45.91698905042905" lon="12.343510596794209"><ele>64.0</ele><time>2026-04-25T09:25:44.999Z</time></trkpt><trkpt lat="45.91691580326139" lon="12.343551876356598"><ele>64.0</ele><time>2026-04-25T09:25:45.999Z</time></trkpt><trkpt lat="45.91684212283473" lon="12.343594373449214"><ele>63.99999999999999</ele><time>2026-04-25T09:25:46.999Z</time></trkpt><trkpt lat="45.91676677773282" lon="12.343627310698597"><ele>64.0</ele><time>2026-04-25T09:25:47.999Z</time></trkpt><trkpt lat="45.91669442136465" lon="12.343658472221986"><ele>63.857142857142854</ele><time>2026-04-25T09:25:48.999Z</time></trkpt><trkpt lat="45.91661661545919" lon="12.343686580811845"><ele>63.71428571428571</ele><time>2026-04-25T09:25:49.999Z</time></trkpt><trkpt lat="45.91654491641503" lon="12.343711254959917"><ele>63.57142857142857</ele><time>2026-04-25T09:25:50.999Z</time></trkpt><trkpt lat="45.91647132023555" lon="12.343729514121936"><ele>63.42857142857143</ele><time>2026-04-25T09:25:51.999Z</time></trkpt><trkpt lat="45.916400810522426" lon="12.34374119456383"><ele>63.285714285714285</ele><time>2026-04-25T09:25:52.999Z</time></trkpt><trkpt lat="45.91633336881893" lon="12.343749144902583"><ele>63.14285714285714</ele><time>2026-04-25T09:25:53.999Z</time></trkpt><trkpt lat="45.91626019293666" lon="12.343763367280829"><ele>63.0</ele><time>2026-04-25T09:25:54.999Z</time></trkpt><trkpt lat="45.91618923999506" lon="12.34377326637124"><ele>63.0</ele><time>2026-04-25T09:25:55.999Z</time></trkpt><trkpt lat="45.91612152577618" lon="12.343780422269562"><ele>63.0</ele><time>2026-04-25T09:25:56.999Z</time></trkpt><trkpt lat="45.91600340361454" lon="12.343735430822342"><ele>63.0</ele><time>2026-04-25T09:25:58.999Z</time></trkpt><trkpt lat="45.91597064793801" lon="12.343653777149477"><ele>63.0</ele><time>2026-04-25T09:25:59.999Z</time></trkpt><trkpt lat="45.91596776725696" lon="12.343557401905208"><ele>63.0</ele><time>2026-04-25T09:26:00.999Z</time></trkpt><trkpt lat="45.915996872052375" lon="12.343381627138761"><ele>63.0</ele><time>2026-04-25T09:26:02.999Z</time></trkpt><trkpt lat="45.91600577474369" lon="12.343276388725538"><ele>63.0</ele><time>2026-04-25T09:26:03.999Z</time></trkpt><trkpt lat="45.91602303818824" lon="12.343183728615745"><ele>63.0</ele><time>2026-04-25T09:26:04.999Z</time></trkpt><trkpt lat="45.916061597616995" lon="12.343017057161285"><ele>63.0</ele><time>2026-04-25T09:26:06.999Z</time></trkpt><trkpt lat="45.91608938297528" lon="12.342849613562494"><ele>63.0</ele><time>2026-04-25T09:26:09Z</time></trkpt><trkpt lat="45.916109271184055" lon="12.342760460001445"><ele>63.0</ele><time>2026-04-25T09:26:10Z</time></trkpt><trkpt lat="45.91616348270182" lon="12.342624769559684"><ele>63.2</ele><time>2026-04-25T09:26:12Z</time></trkpt><trkpt lat="45.916205615414576" lon="12.342549800764393"><ele>63.4</ele><time>2026-04-25T09:26:13Z</time></trkpt><trkpt lat="45.91625123788457" lon="12.342474337639883"><ele>63.60000000000001</ele><time>2026-04-25T09:26:14Z</time></trkpt><trkpt lat="45.91632224857427" lon="12.34232127001429"><ele>63.800000000000004</ele><time>2026-04-25T09:26:16Z</time></trkpt><trkpt lat="45.916356016729296" lon="12.34223824840952"><ele>64.0</ele><time>2026-04-25T09:26:17Z</time></trkpt><trkpt lat="45.91642061477595" lon="12.342082466965302"><ele>64.8</ele><time>2026-04-25T09:26:19Z</time></trkpt><trkpt lat="45.91649088436072" lon="12.341936524231494"><ele>65.60000000000001</ele><time>2026-04-25T09:26:21Z</time></trkpt><trkpt lat="45.91653009898108" lon="12.341865643040954"><ele>66.4</ele><time>2026-04-25T09:26:22Z</time></trkpt><trkpt lat="45.91660427595599" lon="12.34174777555053"><ele>67.2</ele><time>2026-04-25T09:26:24Z</time></trkpt><trkpt lat="45.91666161929716" lon="12.341605140120718"><ele>68.0</ele><time>2026-04-25T09:26:26Z</time></trkpt><trkpt lat="45.9166404289993" lon="12.341449457316138"><ele>68.83333333333334</ele><time>2026-04-25T09:26:28Z</time></trkpt><trkpt lat="45.916607549947756" lon="12.341346629248784"><ele>69.66666666666667</ele><time>2026-04-25T09:26:30Z</time></trkpt><trkpt lat="45.916589777379684" lon="12.341213061484606"><ele>70.5</ele><time>2026-04-25T09:26:33Z</time></trkpt><trkpt lat="45.916584187845146" lon="12.341121414675593"><ele>71.33333333333333</ele><time>2026-04-25T09:26:35Z</time></trkpt><trkpt lat="45.916584001431595" lon="12.340991416081772"><ele>72.16666666666666</ele><time>2026-04-25T09:26:38Z</time></trkpt><trkpt lat="45.91658095446109" lon="12.34089947013857"><ele>73.0</ele><time>2026-04-25T09:26:40Z</time></trkpt><trkpt lat="45.91658235622873" lon="12.34078702185632"><ele>73.0</ele><time>2026-04-25T09:26:42Z</time></trkpt><trkpt lat="45.916578652285274" lon="12.340685227220373"><ele>73.0</ele><time>2026-04-25T09:26:44Z</time></trkpt><trkpt lat="45.91657876230187" lon="12.340589001784142"><ele>73.0</ele><time>2026-04-25T09:26:46Z</time></trkpt><trkpt lat="45.91659407803321" lon="12.340487915680468"><ele>73.0</ele><time>2026-04-25T09:26:48Z</time></trkpt><trkpt lat="45.916615413548286" lon="12.340390710830734"><ele>73.0</ele><time>2026-04-25T09:26:50Z</time></trkpt><trkpt lat="45.91665460443064" lon="12.340306859957263"><ele>73.0</ele><time>2026-04-25T09:26:52Z</time></trkpt><trkpt lat="45.916703934464216" lon="12.340216346709559"><ele>73.0</ele><time>2026-04-25T09:26:54Z</time></trkpt><trkpt lat="45.9167485196685" lon="12.340148792107737"><ele>73.0</ele><time>2026-04-25T09:26:56Z</time></trkpt><trkpt lat="45.916795852802025" lon="12.340069655703656"><ele>73.0</ele><time>2026-04-25T09:26:58Z</time></trkpt><trkpt lat="45.9168336744441" lon="12.339949872063917"><ele>73.0</ele><time>2026-04-25T09:27:00Z</time></trkpt><trkpt lat="45.9168697801132" lon="12.339863703596317"><ele>73.0</ele><time>2026-04-25T09:27:02Z</time></trkpt><trkpt lat="45.91689988972159" lon="12.339753462429943"><ele>73.0</ele><time>2026-04-25T09:27:04Z</time></trkpt><trkpt lat="45.91692329899898" lon="12.339637894169213"><ele>73.0</ele><time>2026-04-25T09:27:06Z</time></trkpt><trkpt lat="45.91694442262798" lon="12.339522566535578"><ele>73.0</ele><time>2026-04-25T09:27:08Z</time></trkpt><trkpt lat="45.91696981343147" lon="12.339421819376987"><ele>73.0</ele><time>2026-04-25T09:27:10Z</time></trkpt><trkpt lat="45.916987850417755" lon="12.33930257898781"><ele>73.0</ele><time>2026-04-25T09:27:12Z</time></trkpt><trkpt lat="45.91701367170949" lon="12.33920236621186"><ele>73.0</ele><time>2026-04-25T09:27:14Z</time></trkpt><trkpt lat="45.91702923305937" lon="12.339082585052719"><ele>73.0</ele><time>2026-04-25T09:27:16Z</time></trkpt><trkpt lat="45.91704746430942" lon="12.33897252487754"><ele>73.0</ele><time>2026-04-25T09:27:18Z</time></trkpt><trkpt lat="45.91706798122189" lon="12.33886339497483"><ele>74.0</ele><time>2026-04-25T09:27:20Z</time></trkpt><trkpt lat="45.917098966355596" lon="12.338742240188973"><ele>75.0</ele><time>2026-04-25T09:27:22Z</time></trkpt><trkpt lat="45.9171360963029" lon="12.338627390620257"><ele>76.0</ele><time>2026-04-25T09:27:24Z</time></trkpt><trkpt lat="45.917177579877595" lon="12.338481084440549"><ele>77.0</ele><time>2026-04-25T09:27:26Z</time></trkpt><trkpt lat="45.91722004569617" lon="12.338333874337534"><ele>78.0</ele><time>2026-04-25T09:27:28Z</time></trkpt><trkpt lat="45.91725646829917" lon="12.338169904664202"><ele>78.33333333333333</ele><time>2026-04-25T09:27:29.999Z</time></trkpt><trkpt lat="45.917302575406296" lon="12.338022045803795"><ele>78.66666666666667</ele><time>2026-04-25T09:27:31.999Z</time></trkpt><trkpt lat="45.917313834950946" lon="12.337932622321125"><ele>79.0</ele><time>2026-04-25T09:27:32.999Z</time></trkpt><trkpt lat="45.91731417780615" lon="12.337842017948194"><ele>79.33333333333334</ele><time>2026-04-25T09:27:33.999Z</time></trkpt><trkpt lat="45.91732001416531" lon="12.33774659554525"><ele>79.66666666666667</ele><time>2026-04-25T09:27:34.999Z</time></trkpt><trkpt lat="45.91731323619603" lon="12.337566029732958"><ele>80.0</ele><time>2026-04-25T09:27:36.999Z</time></trkpt><trkpt lat="45.91724312157377" lon="12.337413542289248"><ele>80.0</ele><time>2026-04-25T09:27:38.999Z</time></trkpt><trkpt lat="45.91718392145106" lon="12.33735002890156"><ele>80.0</ele><time>2026-04-25T09:27:39.999Z</time></trkpt><trkpt lat="45.91712385821903" lon="12.337296505005549"><ele>80.0</ele><time>2026-04-25T09:27:40.999Z</time></trkpt><trkpt lat="45.91707189640786" lon="12.337243993998227"><ele>80.0</ele><time>2026-04-25T09:27:41.999Z</time></trkpt><trkpt lat="45.91702408321201" lon="12.337174531920791"><ele>80.0</ele><time>2026-04-25T09:27:42.999Z</time></trkpt><trkpt lat="45.917001858735404" lon="12.337089513994508"><ele>80.0</ele><time>2026-04-25T09:27:43.999Z</time></trkpt><trkpt lat="45.917017629542" lon="12.336982985427506"><ele>80.0</ele><time>2026-04-25T09:27:44.999Z</time></trkpt><trkpt lat="45.917043136572474" lon="12.336886014598626"><ele>80.28571428571428</ele><time>2026-04-25T09:27:45.999Z</time></trkpt><trkpt lat="45.91707809700963" lon="12.336800994630146"><ele>80.57142857142857</ele><time>2026-04-25T09:27:46.999Z</time></trkpt><trkpt lat="45.91711437813668" lon="12.336714445202293"><ele>80.85714285714286</ele><time>2026-04-25T09:27:47.999Z</time></trkpt><trkpt lat="45.91714603052111" lon="12.336624951184985"><ele>81.14285714285714</ele><time>2026-04-25T09:27:48.999Z</time></trkpt><trkpt lat="45.91717771707272" lon="12.336538424739002"><ele>81.42857142857143</ele><time>2026-04-25T09:27:49.999Z</time></trkpt><trkpt lat="45.91721000384261" lon="12.336456760415555"><ele>81.71428571428571</ele><time>2026-04-25T09:27:50.999Z</time></trkpt><trkpt lat="45.91724040323324" lon="12.336375740741332"><ele>82.0</ele><time>2026-04-25T09:27:51.999Z</time></trkpt><trkpt lat="45.91727067500849" lon="12.336287922353822"><ele>82.8</ele><time>2026-04-25T09:27:52.999Z</time></trkpt><trkpt lat="45.91729948451646" lon="12.336202830107448"><ele>83.6</ele><time>2026-04-25T09:27:53.999Z</time></trkpt><trkpt lat="45.91735540719644" lon="12.336060421255127"><ele>84.39999999999999</ele><time>2026-04-25T09:27:55.999Z</time></trkpt><trkpt lat="45.91742739039493" lon="12.335927178811968"><ele>85.19999999999999</ele><time>2026-04-25T09:27:57.999Z</time></trkpt><trkpt lat="45.91749027768866" lon="12.33581521783204"><ele>86.0</ele><time>2026-04-25T09:27:59.999Z</time></trkpt><trkpt lat="45.91755140407565" lon="12.335712060264472"><ele>87.00000000000001</ele><time>2026-04-25T09:28:01.999Z</time></trkpt><trkpt lat="45.91761366224462" lon="12.335633176919371"><ele>88.0</ele><time>2026-04-25T09:28:03.999Z</time></trkpt><trkpt lat="45.917681150926796" lon="12.33558229716045"><ele>89.0</ele><time>2026-04-25T09:28:05.999Z</time></trkpt><trkpt lat="45.917745268248" lon="12.335514626837549"><ele>90.0</ele><time>2026-04-25T09:28:07.999Z</time></trkpt><trkpt lat="45.91780665901799" lon="12.335462185021155"><ele>91.0</ele><time>2026-04-25T09:28:09.999Z</time></trkpt><trkpt lat="45.91786952002485" lon="12.335418801323915"><ele>92.00000000000001</ele><time>2026-04-25T09:28:11.999Z</time></trkpt><trkpt lat="45.9179262970421" lon="12.335364387090175"><ele>93.0</ele><time>2026-04-25T09:28:14Z</time></trkpt><trkpt lat="45.91799352508084" lon="12.335296616821442"><ele>93.14285714285715</ele><time>2026-04-25T09:28:16Z</time></trkpt><trkpt lat="45.918042262398" lon="12.335238419047903"><ele>93.28571428571429</ele><time>2026-04-25T09:28:18Z</time></trkpt><trkpt lat="45.91809870030058" lon="12.33517661673431"><ele>93.42857142857143</ele><time>2026-04-25T09:28:20Z</time></trkpt><trkpt lat="45.918149691664816" lon="12.335120908040183"><ele>93.57142857142858</ele><time>2026-04-25T09:28:22Z</time></trkpt><trkpt lat="45.91820431856217" lon="12.335064497176875"><ele>93.71428571428571</ele><time>2026-04-25T09:28:24Z</time></trkpt><trkpt lat="45.91826532082776" lon="12.334969194275818"><ele>93.85714285714286</ele><time>2026-04-25T09:28:27Z</time></trkpt><trkpt lat="45.91830399071582" lon="12.334891800119639"><ele>94.0</ele><time>2026-04-25T09:28:29Z</time></trkpt><trkpt lat="45.918347582940626" lon="12.334821932118452"><ele>94.0</ele><time>2026-04-25T09:28:31Z</time></trkpt><trkpt lat="45.9183811380566" lon="12.334737930281957"><ele>94.0</ele><time>2026-04-25T09:28:33Z</time></trkpt><trkpt lat="45.91840849388114" lon="12.334632715508064"><ele>94.0</ele><time>2026-04-25T09:28:35Z</time></trkpt><trkpt lat="45.91841595832936" lon="12.334538249198301"><ele>94.0</ele><time>2026-04-25T09:28:37Z</time></trkpt><trkpt lat="45.91842369949217" lon="12.33442741658174"><ele>94.0</ele><time>2026-04-25T09:28:39Z</time></trkpt><trkpt lat="45.9184204213119" lon="12.334321846084244"><ele>94.0</ele><time>2026-04-25T09:28:41Z</time></trkpt><trkpt lat="45.918415067986075" lon="12.334220062052198"><ele>94.0</ele><time>2026-04-25T09:28:43Z</time></trkpt><trkpt lat="45.91840581066407" lon="12.334120695971468"><ele>94.33333333333333</ele><time>2026-04-25T09:28:45Z</time></trkpt><trkpt lat="45.91838909087016" lon="12.334016908246953"><ele>94.66666666666666</ele><time>2026-04-25T09:28:47Z</time></trkpt><trkpt lat="45.91836518885896" lon="12.333926960170336"><ele>95.0</ele><time>2026-04-25T09:28:49Z</time></trkpt><trkpt lat="45.91833009527018" lon="12.333838651552835"><ele>95.33333333333333</ele><time>2026-04-25T09:28:51Z</time></trkpt><trkpt lat="45.91830152653001" lon="12.333737893814373"><ele>95.66666666666667</ele><time>2026-04-25T09:28:53Z</time></trkpt><trkpt lat="45.918258543535444" lon="12.333635371862387"><ele>96.0</ele><time>2026-04-25T09:28:55Z</time></trkpt><trkpt lat="45.918214089685044" lon="12.33352042596602"><ele>96.66666666666667</ele><time>2026-04-25T09:28:57Z</time></trkpt><trkpt lat="45.918167044448765" lon="12.333423630153067"><ele>97.33333333333334</ele><time>2026-04-25T09:28:59Z</time></trkpt><trkpt lat="45.91811266860241" lon="12.333337168790441"><ele>98.0</ele><time>2026-04-25T09:29:01Z</time></trkpt><trkpt lat="45.91802309593083" lon="12.333296609740257"><ele>98.66666666666667</ele><time>2026-04-25T09:29:03Z</time></trkpt><trkpt lat="45.917956696132926" lon="12.333330682234374"><ele>99.33333333333334</ele><time>2026-04-25T09:29:04Z</time></trkpt><trkpt lat="45.917840515624704" lon="12.33337343862694"><ele>100.0</ele><time>2026-04-25T09:29:06Z</time></trkpt><trkpt lat="45.91771558806837" lon="12.3333609876587"><ele>100.00000000000001</ele><time>2026-04-25T09:29:08Z</time></trkpt><trkpt lat="45.91764899733762" lon="12.333339265481525"><ele>100.0</ele><time>2026-04-25T09:29:09Z</time></trkpt><trkpt lat="45.91758606594528" lon="12.333315132438635"><ele>100.0</ele><time>2026-04-25T09:29:10Z</time></trkpt><trkpt lat="45.917520407956175" lon="12.333284547002632"><ele>100.0</ele><time>2026-04-25T09:29:11Z</time></trkpt><trkpt lat="45.917450187371855" lon="12.333259808198683"><ele>100.00000000000001</ele><time>2026-04-25T09:29:12Z</time></trkpt><trkpt lat="45.91731542325352" lon="12.333235263062976"><ele>100.0</ele><time>2026-04-25T09:29:14Z</time></trkpt><trkpt lat="45.91723896728949" lon="12.333224775986894"><ele>99.50000000000001</ele><time>2026-04-25T09:29:15Z</time></trkpt><trkpt lat="45.917163067519844" lon="12.333227686558997"><ele>99.0</ele><time>2026-04-25T09:29:16Z</time></trkpt><trkpt lat="45.917086246216535" lon="12.333240026464399"><ele>98.5</ele><time>2026-04-25T09:29:17Z</time></trkpt><trkpt lat="45.91701043010952" lon="12.333264654931126"><ele>98.0</ele><time>2026-04-25T09:29:18Z</time></trkpt><trkpt lat="45.91693846264565" lon="12.333302049678098"><ele>97.50000000000001</ele><time>2026-04-25T09:29:19Z</time></trkpt><trkpt lat="45.9168742305317" lon="12.333355430302621"><ele>97.0</ele><time>2026-04-25T09:29:20Z</time></trkpt><trkpt lat="45.91681854547642" lon="12.333418617593074"><ele>97.0</ele><time>2026-04-25T09:29:21Z</time></trkpt><trkpt lat="45.916761481761036" lon="12.333471443512726"><ele>97.0</ele><time>2026-04-25T09:29:22Z</time></trkpt><trkpt lat="45.9166999079067" lon="12.333515320643636"><ele>97.0</ele><time>2026-04-25T09:29:23Z</time></trkpt><trkpt lat="45.916636171767145" lon="12.333551916336198"><ele>97.0</ele><time>2026-04-25T09:29:24Z</time></trkpt><trkpt lat="45.91656538426806" lon="12.333571613195378"><ele>97.0</ele><time>2026-04-25T09:29:25Z</time></trkpt><trkpt lat="45.91648534375015" lon="12.333568521703029"><ele>97.0</ele><time>2026-04-25T09:29:26Z</time></trkpt><trkpt lat="45.916411984477655" lon="12.333559393319693"><ele>97.0</ele><time>2026-04-25T09:29:27Z</time></trkpt><trkpt lat="45.916337071484584" lon="12.333555350758171"><ele>96.39999999999999</ele><time>2026-04-25T09:29:28Z</time></trkpt><trkpt lat="45.91625763684984" lon="12.333574733107444"><ele>95.8</ele><time>2026-04-25T09:29:29Z</time></trkpt><trkpt lat="45.91617551904141" lon="12.333607160845576"><ele>95.2</ele><time>2026-04-25T09:29:30Z</time></trkpt><trkpt lat="45.916088362712436" lon="12.33364538973048"><ele>94.6</ele><time>2026-04-25T09:29:31Z</time></trkpt><trkpt lat="45.91599445657092" lon="12.333682462262741"><ele>94.0</ele><time>2026-04-25T09:29:31.999Z</time></trkpt><trkpt lat="45.91589387197598" lon="12.333717873886975"><ele>93.4</ele><time>2026-04-25T09:29:32.999Z</time></trkpt><trkpt lat="45.91579717384342" lon="12.33373687765029"><ele>92.80000000000001</ele><time>2026-04-25T09:29:33.999Z</time></trkpt><trkpt lat="45.915689435074505" lon="12.333749211797125"><ele>92.19999999999999</ele><time>2026-04-25T09:29:34.999Z</time></trkpt><trkpt lat="45.915571849792144" lon="12.333779332658935"><ele>91.6</ele><time>2026-04-25T09:29:35.999Z</time></trkpt><trkpt lat="45.91546282771081" lon="12.333817442912652"><ele>91.0</ele><time>2026-04-25T09:29:36.999Z</time></trkpt><trkpt lat="45.91534742177572" lon="12.333829128553804"><ele>91.0</ele><time>2026-04-25T09:29:37.999Z</time></trkpt><trkpt lat="45.915228796947886" lon="12.333840425658328"><ele>91.0</ele><time>2026-04-25T09:29:38.999Z</time></trkpt><trkpt lat="45.915105549213266" lon="12.33384911618051"><ele>91.0</ele><time>2026-04-25T09:29:39.999Z</time></trkpt><trkpt lat="45.9149851319437" lon="12.333870795369576"><ele>91.0</ele><time>2026-04-25T09:29:40.999Z</time></trkpt><trkpt lat="45.91488457253693" lon="12.333912482068953"><ele>89.19999999999999</ele><time>2026-04-25T09:29:41.999Z</time></trkpt><trkpt lat="45.914798444538086" lon="12.333962442221754"><ele>87.39999999999999</ele><time>2026-04-25T09:29:42.999Z</time></trkpt><trkpt lat="45.91470504601357" lon="12.33403106489179"><ele>85.6</ele><time>2026-04-25T09:29:43.999Z</time></trkpt><trkpt lat="45.91461470565255" lon="12.334119477407036"><ele>83.8</ele><time>2026-04-25T09:29:44.999Z</time></trkpt><trkpt lat="45.91452497143168" lon="12.334206261512056"><ele>82.0</ele><time>2026-04-25T09:29:45.999Z</time></trkpt><trkpt lat="45.91443455805519" lon="12.334297840702675"><ele>82.0</ele><time>2026-04-25T09:29:46.999Z</time></trkpt><trkpt lat="45.91434635459077" lon="12.334401970179176"><ele>82.0</ele><time>2026-04-25T09:29:47.999Z</time></trkpt><trkpt lat="45.91426031241701" lon="12.334511237110961"><ele>82.0</ele><time>2026-04-25T09:29:48.999Z</time></trkpt><trkpt lat="45.914167244372294" lon="12.334605934020127"><ele>82.0</ele><time>2026-04-25T09:29:49.999Z</time></trkpt><trkpt lat="45.914063300011485" lon="12.334688774243762"><ele>80.25</ele><time>2026-04-25T09:29:50.999Z</time></trkpt><trkpt lat="45.91396199158283" lon="12.334777391943904"><ele>78.5</ele><time>2026-04-25T09:29:51.999Z</time></trkpt><trkpt lat="45.913858535566185" lon="12.334864141987827"><ele>76.75</ele><time>2026-04-25T09:29:52.999Z</time></trkpt><trkpt lat="45.91375606944551" lon="12.334948003638544"><ele>75.0</ele><time>2026-04-25T09:29:53.999Z</time></trkpt><trkpt lat="45.9136584304867" lon="12.335035550324509"><ele>75.0</ele><time>2026-04-25T09:29:54.999Z</time></trkpt><trkpt lat="45.913560612146" lon="12.335122956640719"><ele>75.0</ele><time>2026-04-25T09:29:55.999Z</time></trkpt><trkpt lat="45.913462087871466" lon="12.335208873222891"><ele>75.0</ele><time>2026-04-25T09:29:56.999Z</time></trkpt><trkpt lat="45.91337506733825" lon="12.33529172320144"><ele>75.0</ele><time>2026-04-25T09:29:57.999Z</time></trkpt><trkpt lat="45.913302200837705" lon="12.33535854784581"><ele>75.0</ele><time>2026-04-25T09:29:58.999Z</time></trkpt><trkpt lat="45.91324283499462" lon="12.3354114571511"><ele>74.8</ele><time>2026-04-25T09:29:59.999Z</time></trkpt><trkpt lat="45.91315976601406" lon="12.335473938078742"><ele>74.6</ele><time>2026-04-25T09:30:01.999Z</time></trkpt><trkpt lat="45.91306971817572" lon="12.335443161800777"><ele>74.4</ele><time>2026-04-25T09:30:03.999Z</time></trkpt><trkpt lat="45.9130024051333" lon="12.335323746536739"><ele>74.2</ele><time>2026-04-25T09:30:05.999Z</time></trkpt><trkpt lat="45.912954766304466" lon="12.335183975576678"><ele>74.0</ele><time>2026-04-25T09:30:07.999Z</time></trkpt><trkpt lat="45.91290443446953" lon="12.335063150115145"><ele>74.0</ele><time>2026-04-25T09:30:09.999Z</time></trkpt><trkpt lat="45.912852175042715" lon="12.33492608400081"><ele>74.0</ele><time>2026-04-25T09:30:11.999Z</time></trkpt><trkpt lat="45.912810460165" lon="12.334819598469274"><ele>74.0</ele><time>2026-04-25T09:30:12.999Z</time></trkpt><trkpt lat="45.91271588830883" lon="12.334806814955758"><ele>74.0</ele><time>2026-04-25T09:30:13.999Z</time></trkpt><trkpt lat="45.91262634645348" lon="12.334799481759125"><ele>74.0</ele><time>2026-04-25T09:30:15.999Z</time></trkpt><trkpt lat="45.91256173866259" lon="12.334796658844612"><ele>74.0</ele><time>2026-04-25T09:30:16.999Z</time></trkpt><trkpt lat="45.912494411803955" lon="12.334773752807186"><ele>73.83333333333334</ele><time>2026-04-25T09:30:17.999Z</time></trkpt><trkpt lat="45.91243056587181" lon="12.334763190032522"><ele>73.66666666666667</ele><time>2026-04-25T09:30:18.999Z</time></trkpt><trkpt lat="45.9123665415939" lon="12.334750167353759"><ele>73.5</ele><time>2026-04-25T09:30:20Z</time></trkpt><trkpt lat="45.91230359009846" lon="12.334735474890657"><ele>73.33333333333333</ele><time>2026-04-25T09:30:21Z</time></trkpt><trkpt lat="45.91219216812072" lon="12.334696859553832"><ele>73.16666666666666</ele><time>2026-04-25T09:30:23Z</time></trkpt><trkpt lat="45.912075352587955" lon="12.334663074301542"><ele>73.0</ele><time>2026-04-25T09:30:25Z</time></trkpt><trkpt lat="45.91201163888873" lon="12.334662916934114"><ele>73.0</ele><time>2026-04-25T09:30:26Z</time></trkpt><trkpt lat="45.9119462161534" lon="12.334677275105205"><ele>73.0</ele><time>2026-04-25T09:30:27Z</time></trkpt><trkpt lat="45.911878292094784" lon="12.334723664485896"><ele>73.0</ele><time>2026-04-25T09:30:28Z</time></trkpt><trkpt lat="45.91181582058549" lon="12.334793637519004"><ele>73.0</ele><time>2026-04-25T09:30:29Z</time></trkpt><trkpt lat="45.91174870448962" lon="12.334871867662157"><ele>73.0</ele><time>2026-04-25T09:30:30Z</time></trkpt><trkpt lat="45.911677908583506" lon="12.334939975048087"><ele>73.0</ele><time>2026-04-25T09:30:31Z</time></trkpt><trkpt lat="45.911604163022744" lon="12.33500472503794"><ele>72.0</ele><time>2026-04-25T09:30:32Z</time></trkpt><trkpt lat="45.911535945679795" lon="12.335082063444652"><ele>71.0</ele><time>2026-04-25T09:30:33Z</time></trkpt><trkpt lat="45.91146341778655" lon="12.335165304880087"><ele>70.0</ele><time>2026-04-25T09:30:34Z</time></trkpt><trkpt lat="45.91139275986216" lon="12.335247624716315"><ele>69.0</ele><time>2026-04-25T09:30:35Z</time></trkpt><trkpt lat="45.91132480757796" lon="12.33534335255714"><ele>68.0</ele><time>2026-04-25T09:30:36Z</time></trkpt><trkpt lat="45.91126334168605" lon="12.3354380481522"><ele>68.0</ele><time>2026-04-25T09:30:37Z</time></trkpt><trkpt lat="45.911198485634806" lon="12.335526792681916"><ele>68.0</ele><time>2026-04-25T09:30:38Z</time></trkpt><trkpt lat="45.91113176148324" lon="12.335610856352229"><ele>68.0</ele><time>2026-04-25T09:30:39Z</time></trkpt><trkpt lat="45.91106086067685" lon="12.33568868299015"><ele>68.0</ele><time>2026-04-25T09:30:40Z</time></trkpt><trkpt lat="45.91098657873086" lon="12.33575921461616"><ele>68.0</ele><time>2026-04-25T09:30:41Z</time></trkpt><trkpt lat="45.91091130973142" lon="12.335826406381956"><ele>68.0</ele><time>2026-04-25T09:30:42Z</time></trkpt><trkpt lat="45.91084191594297" lon="12.335902810094423"><ele>67.5</ele><time>2026-04-25T09:30:43Z</time></trkpt><trkpt lat="45.91077185161959" lon="12.335978869898435"><ele>67.0</ele><time>2026-04-25T09:30:44Z</time></trkpt><trkpt lat="45.9107052100346" lon="12.336051031331488"><ele>66.5</ele><time>2026-04-25T09:30:45Z</time></trkpt><trkpt lat="45.910644266091275" lon="12.336126325631612"><ele>66.0</ele><time>2026-04-25T09:30:46Z</time></trkpt><trkpt lat="45.91058553754206" lon="12.336206876962965"><ele>65.5</ele><time>2026-04-25T09:30:47Z</time></trkpt><trkpt lat="45.91052932942275" lon="12.336292926907399"><ele>65.0</ele><time>2026-04-25T09:30:48Z</time></trkpt><trkpt lat="45.91047918024002" lon="12.336364408788425"><ele>65.0</ele><time>2026-04-25T09:30:49Z</time></trkpt><trkpt lat="45.9104234093226" lon="12.336442324332745"><ele>65.0</ele><time>2026-04-25T09:30:50Z</time></trkpt><trkpt lat="45.91037974705602" lon="12.336513412293932"><ele>65.0</ele><time>2026-04-25T09:30:51Z</time></trkpt><trkpt lat="45.91029558121383" lon="12.336576910535957"><ele>65.0</ele><time>2026-04-25T09:30:53Z</time></trkpt><trkpt lat="45.91018357423568" lon="12.336490950722569"><ele>65.0</ele><time>2026-04-25T09:30:55Z</time></trkpt><trkpt lat="45.91012817216076" lon="12.336430883620691"><ele>65.0</ele><time>2026-04-25T09:30:56Z</time></trkpt><trkpt lat="45.91006747111373" lon="12.336367983853453"><ele>65.0</ele><time>2026-04-25T09:30:57Z</time></trkpt><trkpt lat="45.91000841059916" lon="12.336295022024157"><ele>65.0</ele><time>2026-04-25T09:30:58Z</time></trkpt><trkpt lat="45.909949171800065" lon="12.336228617253338"><ele>65.0</ele><time>2026-04-25T09:30:59Z</time></trkpt><trkpt lat="45.90988886134163" lon="12.336149560054288"><ele>65.0</ele><time>2026-04-25T09:31:00Z</time></trkpt><trkpt lat="45.90983268847465" lon="12.336078040053055"><ele>65.0</ele><time>2026-04-25T09:31:01Z</time></trkpt><trkpt lat="45.90977762166929" lon="12.336002065578299"><ele>65.0</ele><time>2026-04-25T09:31:02Z</time></trkpt><trkpt lat="45.909727656673574" lon="12.33592689182866"><ele>65.0</ele><time>2026-04-25T09:31:03Z</time></trkpt><trkpt lat="45.90967371085226" lon="12.335851576563229"><ele>65.0</ele><time>2026-04-25T09:31:04Z</time></trkpt><trkpt lat="45.90962234354979" lon="12.335772330094239"><ele>65.0</ele><time>2026-04-25T09:31:05Z</time></trkpt><trkpt lat="45.90957229333073" lon="12.335693643871654"><ele>65.0</ele><time>2026-04-25T09:31:06Z</time></trkpt><trkpt lat="45.90951939350133" lon="12.33561294716703"><ele>65.0</ele><time>2026-04-25T09:31:07Z</time></trkpt><trkpt lat="45.90946790351776" lon="12.335530400244902"><ele>65.0</ele><time>2026-04-25T09:31:08Z</time></trkpt><trkpt lat="45.909420976772466" lon="12.335454756853212"><ele>65.16666666666667</ele><time>2026-04-25T09:31:09Z</time></trkpt><trkpt lat="45.90937505930546" lon="12.335367366190585"><ele>65.33333333333334</ele><time>2026-04-25T09:31:10Z</time></trkpt><trkpt lat="45.90933858528668" lon="12.33527175124484"><ele>65.5</ele><time>2026-04-25T09:31:11Z</time></trkpt><trkpt lat="45.90931222616124" lon="12.335166112716378"><ele>65.66666666666667</ele><time>2026-04-25T09:31:12Z</time></trkpt><trkpt lat="45.9092930253998" lon="12.335057681143969"><ele>65.83333333333333</ele><time>2026-04-25T09:31:13Z</time></trkpt><trkpt lat="45.909273503370336" lon="12.334952254652798"><ele>66.0</ele><time>2026-04-25T09:31:14Z</time></trkpt><trkpt lat="45.909249888991376" lon="12.334846383070841"><ele>65.83333333333333</ele><time>2026-04-25T09:31:15Z</time></trkpt><trkpt lat="45.909221984821535" lon="12.334741316423276"><ele>65.66666666666667</ele><time>2026-04-25T09:31:16Z</time></trkpt><trkpt lat="45.909187227785594" lon="12.334646369411786"><ele>65.5</ele><time>2026-04-25T09:31:17Z</time></trkpt><trkpt lat="45.90914794374196" lon="12.334554001624864"><ele>65.33333333333334</ele><time>2026-04-25T09:31:18Z</time></trkpt><trkpt lat="45.909093698054605" lon="12.334460776851353"><ele>65.16666666666667</ele><time>2026-04-25T09:31:19Z</time></trkpt><trkpt lat="45.909046107715305" lon="12.334382076002308"><ele>65.0</ele><time>2026-04-25T09:31:20Z</time></trkpt><trkpt lat="45.90899645940456" lon="12.33429125907278"><ele>64.83333333333334</ele><time>2026-04-25T09:31:21Z</time></trkpt><trkpt lat="45.90895023686047" lon="12.334202995855653"><ele>64.66666666666667</ele><time>2026-04-25T09:31:22Z</time></trkpt><trkpt lat="45.90889895834867" lon="12.334115419137143"><ele>64.5</ele><time>2026-04-25T09:31:23Z</time></trkpt><trkpt lat="45.90885703828359" lon="12.334027569885063"><ele>64.33333333333333</ele><time>2026-04-25T09:31:24Z</time></trkpt><trkpt lat="45.90880579491762" lon="12.33393867248964"><ele>64.16666666666666</ele><time>2026-04-25T09:31:25Z</time></trkpt><trkpt lat="45.90875963687587" lon="12.33384659879562"><ele>64.0</ele><time>2026-04-25T09:31:26Z</time></trkpt><trkpt lat="45.90870660204417" lon="12.333750391122827"><ele>63.99999999999999</ele><time>2026-04-25T09:31:27Z</time></trkpt><trkpt lat="45.908661485683744" lon="12.333665893141633"><ele>64.0</ele><time>2026-04-25T09:31:27.999Z</time></trkpt><trkpt lat="45.90861075723551" lon="12.333579253928228"><ele>64.0</ele><time>2026-04-25T09:31:28.999Z</time></trkpt><trkpt lat="45.90856462785187" lon="12.33348496585578"><ele>64.0</ele><time>2026-04-25T09:31:29.999Z</time></trkpt><trkpt lat="45.90851887673902" lon="12.333392143775187"><ele>63.99999999999999</ele><time>2026-04-25T09:31:30.999Z</time></trkpt><trkpt lat="45.90847166417891" lon="12.333298641726469"><ele>64.0</ele><time>2026-04-25T09:31:31.999Z</time></trkpt><trkpt lat="45.90842189699038" lon="12.333203896850089"><ele>63.99999999999999</ele><time>2026-04-25T09:31:32.999Z</time></trkpt><trkpt lat="45.90836350285214" lon="12.333112959372933"><ele>64.0</ele><time>2026-04-25T09:31:33.999Z</time></trkpt><trkpt lat="45.908289002241546" lon="12.333034896364447"><ele>64.0</ele><time>2026-04-25T09:31:34.999Z</time></trkpt><trkpt lat="45.90820570907877" lon="12.332977143648439"><ele>64.0</ele><time>2026-04-25T09:31:35.999Z</time></trkpt><trkpt lat="45.90812006279941" lon="12.332924477008195"><ele>63.99999999999999</ele><time>2026-04-25T09:31:36.999Z</time></trkpt><trkpt lat="45.90804200204228" lon="12.332880084320104"><ele>64.0</ele><time>2026-04-25T09:31:37.999Z</time></trkpt><trkpt lat="45.90796616885697" lon="12.332831313064013"><ele>63.83333333333333</ele><time>2026-04-25T09:31:38.999Z</time></trkpt><trkpt lat="45.90788651799646" lon="12.332772857097382"><ele>63.666666666666664</ele><time>2026-04-25T09:31:39.999Z</time></trkpt><trkpt lat="45.9078024334862" lon="12.33271374917753"><ele>63.5</ele><time>2026-04-25T09:31:40.999Z</time></trkpt><trkpt lat="45.90772873561886" lon="12.33266053990995"><ele>63.33333333333333</ele><time>2026-04-25T09:31:41.999Z</time></trkpt><trkpt lat="45.90765162539107" lon="12.332612858174576"><ele>63.166666666666664</ele><time>2026-04-25T09:31:42.999Z</time></trkpt><trkpt lat="45.90757579511058" lon="12.33255753122487"><ele>63.0</ele><time>2026-04-25T09:31:43.999Z</time></trkpt><trkpt lat="45.90750273178492" lon="12.33249741675892"><ele>63.333333333333336</ele><time>2026-04-25T09:31:44.999Z</time></trkpt><trkpt lat="45.90743436623593" lon="12.332432234707127"><ele>63.66666666666667</ele><time>2026-04-25T09:31:45.999Z</time></trkpt><trkpt lat="45.907376648419316" lon="12.332341479493294"><ele>64.0</ele><time>2026-04-25T09:31:46.999Z</time></trkpt><trkpt lat="45.90731849999032" lon="12.332261891232273"><ele>64.33333333333334</ele><time>2026-04-25T09:31:47.999Z</time></trkpt><trkpt lat="45.907263960040915" lon="12.332184403989059"><ele>64.66666666666667</ele><time>2026-04-25T09:31:48.999Z</time></trkpt><trkpt lat="45.90721133410605" lon="12.332098586721612"><ele>65.0</ele><time>2026-04-25T09:31:49.999Z</time></trkpt><trkpt lat="45.90715566060135" lon="12.332013891462568"><ele>65.0</ele><time>2026-04-25T09:31:50.999Z</time></trkpt><trkpt lat="45.90709988063038" lon="12.331923098914862"><ele>65.0</ele><time>2026-04-25T09:31:51.999Z</time></trkpt><trkpt lat="45.90704190673502" lon="12.331830359114484"><ele>65.0</ele><time>2026-04-25T09:31:52.999Z</time></trkpt><trkpt lat="45.90698085673993" lon="12.33175589227252"><ele>65.0</ele><time>2026-04-25T09:31:53.999Z</time></trkpt><trkpt lat="45.906903280569956" lon="12.331704328000127"><ele>65.0</ele><time>2026-04-25T09:31:54.999Z</time></trkpt><trkpt lat="45.906824824482136" lon="12.331689128873435"><ele>65.0</ele><time>2026-04-25T09:31:55.999Z</time></trkpt><trkpt lat="45.90674259047343" lon="12.331719287344928"><ele>65.0</ele><time>2026-04-25T09:31:56.999Z</time></trkpt><trkpt lat="45.906670580904766" lon="12.331790792461963"><ele>65.0</ele><time>2026-04-25T09:31:57.999Z</time></trkpt><trkpt lat="45.906610151989824" lon="12.331868634631482"><ele>65.0</ele><time>2026-04-25T09:31:58.999Z</time></trkpt><trkpt lat="45.906546512526525" lon="12.331920904537819"><ele>65.0</ele><time>2026-04-25T09:31:59.999Z</time></trkpt><trkpt lat="45.90647481784705" lon="12.331915051615878"><ele>65.0</ele><time>2026-04-25T09:32:00.999Z</time></trkpt><trkpt lat="45.90640601661974" lon="12.331865710634064"><ele>65.0</ele><time>2026-04-25T09:32:01.999Z</time></trkpt><trkpt lat="45.90634962099251" lon="12.331779866712992"><ele>65.0</ele><time>2026-04-25T09:32:02.999Z</time></trkpt><trkpt lat="45.90629564402646" lon="12.33169517132048"><ele>65.0</ele><time>2026-04-25T09:32:03.999Z</time></trkpt><trkpt lat="45.9062439313866" lon="12.331594263755415"><ele>65.0</ele><time>2026-04-25T09:32:04.999Z</time></trkpt><trkpt lat="45.90619737393937" lon="12.331497636763588"><ele>65.0</ele><time>2026-04-25T09:32:05.999Z</time></trkpt><trkpt lat="45.90614671699781" lon="12.331417421745988"><ele>65.0</ele><time>2026-04-25T09:32:06.999Z</time></trkpt><trkpt lat="45.90609243565187" lon="12.33133299298391"><ele>65.0</ele><time>2026-04-25T09:32:07.999Z</time></trkpt><trkpt lat="45.90603894249555" lon="12.33125200208058"><ele>65.14285714285715</ele><time>2026-04-25T09:32:08.999Z</time></trkpt><trkpt lat="45.90598048710103" lon="12.331188581615427"><ele>65.28571428571429</ele><time>2026-04-25T09:32:09.999Z</time></trkpt><trkpt lat="45.905923495228286" lon="12.331120500852707"><ele>65.42857142857143</ele><time>2026-04-25T09:32:10.999Z</time></trkpt><trkpt lat="45.90587359473494" lon="12.331064261875179"><ele>65.57142857142858</ele><time>2026-04-25T09:32:11.999Z</time></trkpt><trkpt lat="45.905795711971216" lon="12.33106255370518"><ele>65.71428571428572</ele><time>2026-04-25T09:32:12.999Z</time></trkpt><trkpt lat="45.90573201595176" lon="12.3310949882334"><ele>65.85714285714286</ele><time>2026-04-25T09:32:13.999Z</time></trkpt><trkpt lat="45.905685151552156" lon="12.331182602437067"><ele>66.0</ele><time>2026-04-25T09:32:14.999Z</time></trkpt><trkpt lat="45.90564135621542" lon="12.331278060275581"><ele>66.0</ele><time>2026-04-25T09:32:15.999Z</time></trkpt><trkpt lat="45.905597741492805" lon="12.331357129583104"><ele>66.0</ele><time>2026-04-25T09:32:16.999Z</time></trkpt><trkpt lat="45.905547192863054" lon="12.331422719054782"><ele>66.0</ele><time>2026-04-25T09:32:17.999Z</time></trkpt><trkpt lat="45.905493288747344" lon="12.331485774410949"><ele>66.0</ele><time>2026-04-25T09:32:18.999Z</time></trkpt><trkpt lat="45.90543905542029" lon="12.331548171590496"><ele>66.0</ele><time>2026-04-25T09:32:19.999Z</time></trkpt><trkpt lat="45.90538254951873" lon="12.331606527311969"><ele>66.0</ele><time>2026-04-25T09:32:20.999Z</time></trkpt><trkpt lat="45.905330967703755" lon="12.331673643367148"><ele>66.0</ele><time>2026-04-25T09:32:21.999Z</time></trkpt><trkpt lat="45.905278441585295" lon="12.33174343409545"><ele>65.83333333333333</ele><time>2026-04-25T09:32:22.999Z</time></trkpt><trkpt lat="45.905226817602106" lon="12.33181090965999"><ele>65.66666666666667</ele><time>2026-04-25T09:32:23.999Z</time></trkpt><trkpt lat="45.905173809386696" lon="12.331876705495095"><ele>65.5</ele><time>2026-04-25T09:32:24.999Z</time></trkpt><trkpt lat="45.905115326604495" lon="12.331939089345747"><ele>65.33333333333334</ele><time>2026-04-25T09:32:26Z</time></trkpt><trkpt lat="45.905066498692754" lon="12.33200412574115"><ele>65.16666666666667</ele><time>2026-04-25T09:32:27Z</time></trkpt><trkpt lat="45.904985311256624" lon="12.332143877171227"><ele>65.0</ele><time>2026-04-25T09:32:29Z</time></trkpt><trkpt lat="45.90493003741356" lon="12.332211533227412"><ele>64.57142857142858</ele><time>2026-04-25T09:32:30Z</time></trkpt><trkpt lat="45.9048690910504" lon="12.33227108927455"><ele>64.14285714285714</ele><time>2026-04-25T09:32:31Z</time></trkpt><trkpt lat="45.90481130503653" lon="12.332335280544573"><ele>63.71428571428572</ele><time>2026-04-25T09:32:32Z</time></trkpt><trkpt lat="45.90475908428879" lon="12.332402916008744"><ele>63.28571428571429</ele><time>2026-04-25T09:32:33Z</time></trkpt><trkpt lat="45.90470667701215" lon="12.33246816800483"><ele>62.85714285714286</ele><time>2026-04-25T09:32:34Z</time></trkpt><trkpt lat="45.9046539539305" lon="12.3325264279527"><ele>62.42857142857143</ele><time>2026-04-25T09:32:35Z</time></trkpt><trkpt lat="45.904604262291016" lon="12.332584667509174"><ele>62.0</ele><time>2026-04-25T09:32:36Z</time></trkpt><trkpt lat="45.90455443062153" lon="12.332643567371974"><ele>62.00000000000001</ele><time>2026-04-25T09:32:37Z</time></trkpt><trkpt lat="45.90450434890499" lon="12.332701206232159"><ele>62.0</ele><time>2026-04-25T09:32:38Z</time></trkpt><trkpt lat="45.90441163834132" lon="12.332795042860065"><ele>62.0</ele><time>2026-04-25T09:32:40Z</time></trkpt><trkpt lat="45.90433043950459" lon="12.332787993518963"><ele>62.0</ele><time>2026-04-25T09:32:42Z</time></trkpt><trkpt lat="45.90425502135682" lon="12.332667669755836"><ele>62.00000000000001</ele><time>2026-04-25T09:32:44Z</time></trkpt><trkpt lat="45.90420818745623" lon="12.33259737649636"><ele>62.0</ele><time>2026-04-25T09:32:45Z</time></trkpt><trkpt lat="45.90416672830249" lon="12.332522527135755"><ele>61.85714285714286</ele><time>2026-04-25T09:32:46Z</time></trkpt><trkpt lat="45.90411703939771" lon="12.332454333787354"><ele>61.71428571428572</ele><time>2026-04-25T09:32:47Z</time></trkpt><trkpt lat="45.90406663785599" lon="12.332378556121785"><ele>61.57142857142857</ele><time>2026-04-25T09:32:48Z</time></trkpt><trkpt lat="45.90401444557116" lon="12.332306271066793"><ele>61.42857142857143</ele><time>2026-04-25T09:32:49Z</time></trkpt><trkpt lat="45.903959664358844" lon="12.332242705788591"><ele>61.285714285714285</ele><time>2026-04-25T09:32:50Z</time></trkpt><trkpt lat="45.90389695280514" lon="12.33218292101829"><ele>61.14285714285714</ele><time>2026-04-25T09:32:51Z</time></trkpt><trkpt lat="45.903837474659476" lon="12.332120889443607"><ele>60.99999999999999</ele><time>2026-04-25T09:32:52Z</time></trkpt><trkpt lat="45.903788746118686" lon="12.332043804294315"><ele>60.85714285714285</ele><time>2026-04-25T09:32:53Z</time></trkpt><trkpt lat="45.90373964789364" lon="12.33196670120896"><ele>60.71428571428571</ele><time>2026-04-25T09:32:54Z</time></trkpt><trkpt lat="45.903691373272075" lon="12.33188523183392"><ele>60.57142857142857</ele><time>2026-04-25T09:32:55Z</time></trkpt><trkpt lat="45.9036402842125" lon="12.331811383467718"><ele>60.42857142857142</ele><time>2026-04-25T09:32:56Z</time></trkpt><trkpt lat="45.90358627704995" lon="12.33174056664327"><ele>60.28571428571428</ele><time>2026-04-25T09:32:57Z</time></trkpt><trkpt lat="45.90353519295657" lon="12.331660495736774"><ele>60.142857142857146</ele><time>2026-04-25T09:32:58Z</time></trkpt><trkpt lat="45.90348355498865" lon="12.331589774918745"><ele>60.0</ele><time>2026-04-25T09:32:59Z</time></trkpt><trkpt lat="45.90342609637405" lon="12.331514967602345"><ele>60.57142857142857</ele><time>2026-04-25T09:33:00Z</time></trkpt><trkpt lat="45.90337441716112" lon="12.331454855090485"><ele>61.14285714285714</ele><time>2026-04-25T09:33:01Z</time></trkpt><trkpt lat="45.90332265574953" lon="12.331390906343287"><ele>61.71428571428571</ele><time>2026-04-25T09:33:02Z</time></trkpt><trkpt lat="45.903270577178574" lon="12.331319325848938"><ele>62.285714285714285</ele><time>2026-04-25T09:33:03Z</time></trkpt><trkpt lat="45.903222786551005" lon="12.331245128475713"><ele>62.85714285714285</ele><time>2026-04-25T09:33:04Z</time></trkpt><trkpt lat="45.90316841770988" lon="12.331164702255442"><ele>63.42857142857142</ele><time>2026-04-25T09:33:05Z</time></trkpt><trkpt lat="45.903117549455864" lon="12.331087918349583"><ele>64.0</ele><time>2026-04-25T09:33:06Z</time></trkpt><trkpt lat="45.90306646254944" lon="12.331008058364937"><ele>63.99999999999999</ele><time>2026-04-25T09:33:07Z</time></trkpt><trkpt lat="45.90301381938962" lon="12.330934791296327"><ele>64.0</ele><time>2026-04-25T09:33:08Z</time></trkpt><trkpt lat="45.902959759988484" lon="12.330855826309918"><ele>64.0</ele><time>2026-04-25T09:33:09Z</time></trkpt><trkpt lat="45.90290511401901" lon="12.330778965301903"><ele>64.0</ele><time>2026-04-25T09:33:10Z</time></trkpt><trkpt lat="45.90285081648282" lon="12.330700407625852"><ele>63.99999999999999</ele><time>2026-04-25T09:33:11Z</time></trkpt><trkpt lat="45.90279928824121" lon="12.330624060650123"><ele>64.0</ele><time>2026-04-25T09:33:12Z</time></trkpt><trkpt lat="45.90274355435424" lon="12.33054553434634"><ele>63.83333333333333</ele><time>2026-04-25T09:33:13Z</time></trkpt><trkpt lat="45.90268717970232" lon="12.330469764777446"><ele>63.666666666666664</ele><time>2026-04-25T09:33:14Z</time></trkpt><trkpt lat="45.90263205378068" lon="12.330389871134365"><ele>63.5</ele><time>2026-04-25T09:33:15Z</time></trkpt><trkpt lat="45.90258095625705" lon="12.330315658028377"><ele>63.33333333333333</ele><time>2026-04-25T09:33:16Z</time></trkpt><trkpt lat="45.902528613800484" lon="12.330233870859459"><ele>63.166666666666664</ele><time>2026-04-25T09:33:17Z</time></trkpt><trkpt lat="45.90248114940533" lon="12.330158117731719"><ele>63.0</ele><time>2026-04-25T09:33:18Z</time></trkpt><trkpt lat="45.90242869770281" lon="12.330076621117064"><ele>62.714285714285715</ele><time>2026-04-25T09:33:19Z</time></trkpt><trkpt lat="45.902375187079244" lon="12.330006152909386"><ele>62.42857142857143</ele><time>2026-04-25T09:33:20Z</time></trkpt><trkpt lat="45.902320167956326" lon="12.329936270464389"><ele>62.14285714285714</ele><time>2026-04-25T09:33:21Z</time></trkpt><trkpt lat="45.902266241165265" lon="12.329873611180371"><ele>61.857142857142854</ele><time>2026-04-25T09:33:22Z</time></trkpt><trkpt lat="45.90221787393861" lon="12.32980829105748"><ele>61.57142857142857</ele><time>2026-04-25T09:33:23Z</time></trkpt><trkpt lat="45.90217256097952" lon="12.329744792158923"><ele>61.28571428571428</ele><time>2026-04-25T09:33:24Z</time></trkpt><trkpt lat="45.90212888277098" lon="12.329679231351674"><ele>60.99999999999999</ele><time>2026-04-25T09:33:25Z</time></trkpt><trkpt lat="45.90206277076453" lon="12.329585111566532"><ele>61.0</ele><time>2026-04-25T09:33:27Z</time></trkpt><trkpt lat="45.902017091045934" lon="12.329511452498986"><ele>60.99999999999999</ele><time>2026-04-25T09:33:30Z</time></trkpt><trkpt lat="45.90195363257838" lon="12.329458769861057"><ele>60.99999999999999</ele><time>2026-04-25T09:34:21.999Z</time></trkpt><trkpt lat="45.90190180006721" lon="12.329373715096898"><ele>61.0</ele><time>2026-04-25T09:34:23.999Z</time></trkpt><trkpt lat="45.90182344904802" lon="12.329265162002741"><ele>61.0</ele><time>2026-04-25T09:34:25.999Z</time></trkpt><trkpt lat="45.90173045399728" lon="12.329138912041273"><ele>60.83333333333333</ele><time>2026-04-25T09:34:27.999Z</time></trkpt><trkpt lat="45.90168564078247" lon="12.329068372259373"><ele>60.666666666666664</ele><time>2026-04-25T09:34:28.999Z</time></trkpt><trkpt lat="45.9016342992869" lon="12.328999791983373"><ele>60.5</ele><time>2026-04-25T09:34:29.999Z</time></trkpt><trkpt lat="45.90158302006191" lon="12.328933403479695"><ele>60.33333333333333</ele><time>2026-04-25T09:34:30.999Z</time></trkpt><trkpt lat="45.901529014194175" lon="12.328853989479219"><ele>60.166666666666664</ele><time>2026-04-25T09:34:32Z</time></trkpt><trkpt lat="45.9014772689679" lon="12.328786317639944"><ele>60.0</ele><time>2026-04-25T09:34:33Z</time></trkpt><trkpt lat="45.901383264337625" lon="12.328657974492558"><ele>60.0</ele><time>2026-04-25T09:34:35Z</time></trkpt><trkpt lat="45.90133239857029" lon="12.328591729053878"><ele>60.0</ele><time>2026-04-25T09:34:36Z</time></trkpt><trkpt lat="45.9012847881947" lon="12.328522329462396"><ele>60.0</ele><time>2026-04-25T09:34:37Z</time></trkpt><trkpt lat="45.901236538848465" lon="12.328462957597933"><ele>60.0</ele><time>2026-04-25T09:34:38Z</time></trkpt><trkpt lat="45.90114356722201" lon="12.32836141326397"><ele>60.0</ele><time>2026-04-25T09:34:40Z</time></trkpt><trkpt lat="45.90107705430733" lon="12.328225198212245"><ele>60.0</ele><time>2026-04-25T09:34:42Z</time></trkpt><trkpt lat="45.90110181405843" lon="12.3281160682545"><ele>60.5</ele><time>2026-04-25T09:34:44Z</time></trkpt><trkpt lat="45.90122211582384" lon="12.328054844728404"><ele>61.0</ele><time>2026-04-25T09:34:46Z</time></trkpt><trkpt lat="45.9012971102864" lon="12.328046829626237"><ele>61.5</ele><time>2026-04-25T09:34:47Z</time></trkpt><trkpt lat="45.90136869363625" lon="12.32803025891823"><ele>62.0</ele><time>2026-04-25T09:34:48Z</time></trkpt><trkpt lat="45.90145140789847" lon="12.328011290867078"><ele>62.5</ele><time>2026-04-25T09:34:49Z</time></trkpt><trkpt lat="45.90152350861586" lon="12.328001044245767"><ele>63.0</ele><time>2026-04-25T09:34:50Z</time></trkpt><trkpt lat="45.901598485609306" lon="12.327987763234756"><ele>63.0</ele><time>2026-04-25T09:34:51Z</time></trkpt><trkpt lat="45.90167230231277" lon="12.327977526986876"><ele>63.0</ele><time>2026-04-25T09:34:52Z</time></trkpt><trkpt lat="45.90174049722754" lon="12.327960502976783"><ele>63.0</ele><time>2026-04-25T09:34:53Z</time></trkpt><trkpt lat="45.901813885285" lon="12.327945456010381"><ele>63.0</ele><time>2026-04-25T09:34:54Z</time></trkpt><trkpt lat="45.901887184979394" lon="12.327930895620202"><ele>63.0</ele><time>2026-04-25T09:34:55Z</time></trkpt><trkpt lat="45.90195957935517" lon="12.327923434265832"><ele>63.0</ele><time>2026-04-25T09:34:56Z</time></trkpt><trkpt lat="45.9020239688251" lon="12.32790993787676"><ele>63.0</ele><time>2026-04-25T09:34:57Z</time></trkpt><trkpt lat="45.9021529200032" lon="12.327866378996465"><ele>62.85714285714286</ele><time>2026-04-25T09:34:59Z</time></trkpt><trkpt lat="45.90221053500794" lon="12.32782042263181"><ele>62.714285714285715</ele><time>2026-04-25T09:35:00Z</time></trkpt><trkpt lat="45.90226559936194" lon="12.327757882106113"><ele>62.57142857142857</ele><time>2026-04-25T09:35:01Z</time></trkpt><trkpt lat="45.90231388849326" lon="12.327683141669995"><ele>62.42857142857143</ele><time>2026-04-25T09:35:02Z</time></trkpt><trkpt lat="45.90235286864021" lon="12.32760050815073"><ele>62.28571428571429</ele><time>2026-04-25T09:35:03Z</time></trkpt><trkpt lat="45.90238352194704" lon="12.327508253455125"><ele>62.142857142857146</ele><time>2026-04-25T09:35:04Z</time></trkpt><trkpt lat="45.90241170575247" lon="12.327421138074453"><ele>62.0</ele><time>2026-04-25T09:35:05Z</time></trkpt><trkpt lat="45.90243468385262" lon="12.3273276577698"><ele>62.0</ele><time>2026-04-25T09:35:06Z</time></trkpt><trkpt lat="45.90245746100287" lon="12.327233861935046"><ele>62.00000000000001</ele><time>2026-04-25T09:35:07Z</time></trkpt><trkpt lat="45.90247025629272" lon="12.327129393298394"><ele>62.0</ele><time>2026-04-25T09:35:08Z</time></trkpt><trkpt lat="45.90247736950228" lon="12.327031902087695"><ele>62.0</ele><time>2026-04-25T09:35:09Z</time></trkpt><trkpt lat="45.90247914499779" lon="12.326931645479773"><ele>62.00000000000001</ele><time>2026-04-25T09:35:10Z</time></trkpt><trkpt lat="45.90247725582731" lon="12.326829201986122"><ele>62.0</ele><time>2026-04-25T09:35:11Z</time></trkpt><trkpt lat="45.90246833103523" lon="12.326735352792745"><ele>62.0</ele><time>2026-04-25T09:35:12Z</time></trkpt><trkpt lat="45.902458949029054" lon="12.32664266920031"><ele>62.85714285714286</ele><time>2026-04-25T09:35:13Z</time></trkpt><trkpt lat="45.9024545890937" lon="12.326545640388751"><ele>63.71428571428572</ele><time>2026-04-25T09:35:14Z</time></trkpt><trkpt lat="45.90245257783613" lon="12.326454017045778"><ele>64.57142857142857</ele><time>2026-04-25T09:35:15Z</time></trkpt><trkpt lat="45.90244813299841" lon="12.326354631352384"><ele>65.42857142857143</ele><time>2026-04-25T09:35:16Z</time></trkpt><trkpt lat="45.90244964020654" lon="12.326251253968886"><ele>66.28571428571428</ele><time>2026-04-25T09:35:17Z</time></trkpt><trkpt lat="45.90244761507083" lon="12.326149840852107"><ele>67.14285714285714</ele><time>2026-04-25T09:35:18Z</time></trkpt><trkpt lat="45.902451577558075" lon="12.32604677999659"><ele>68.0</ele><time>2026-04-25T09:35:19Z</time></trkpt><trkpt lat="45.902481658532786" lon="12.325960772577266"><ele>67.99999999999999</ele><time>2026-04-25T09:35:20Z</time></trkpt><trkpt lat="45.90252365790263" lon="12.325880683746039"><ele>68.0</ele><time>2026-04-25T09:35:21Z</time></trkpt><trkpt lat="45.90258190765214" lon="12.32581830206631"><ele>68.0</ele><time>2026-04-25T09:35:22Z</time></trkpt><trkpt lat="45.90264635191811" lon="12.325770739799186"><ele>68.0</ele><time>2026-04-25T09:35:23Z</time></trkpt><trkpt lat="45.90271306053933" lon="12.325720643288994"><ele>68.0</ele><time>2026-04-25T09:35:24Z</time></trkpt><trkpt lat="45.902766765153025" lon="12.325649597656264"><ele>67.99999999999999</ele><time>2026-04-25T09:35:25Z</time></trkpt><trkpt lat="45.90282198274108" lon="12.3255808685832"><ele>68.0</ele><time>2026-04-25T09:35:26Z</time></trkpt><trkpt lat="45.902876915220105" lon="12.32550901943457"><ele>67.42857142857142</ele><time>2026-04-25T09:35:27Z</time></trkpt><trkpt lat="45.90293255990936" lon="12.325440313995676"><ele>66.85714285714286</ele><time>2026-04-25T09:35:28Z</time></trkpt><trkpt lat="45.90299161467984" lon="12.325374199350412"><ele>66.28571428571428</ele><time>2026-04-25T09:35:29Z</time></trkpt><trkpt lat="45.9030475144073" lon="12.32530924450122"><ele>65.71428571428571</ele><time>2026-04-25T09:35:30Z</time></trkpt><trkpt lat="45.90310547834251" lon="12.325245840426344"><ele>65.14285714285714</ele><time>2026-04-25T09:35:30.999Z</time></trkpt><trkpt lat="45.90316652830254" lon="12.325178643386508"><ele>64.57142857142857</ele><time>2026-04-25T09:35:31.999Z</time></trkpt><trkpt lat="45.90322780660148" lon="12.325117322313467"><ele>64.0</ele><time>2026-04-25T09:35:32.999Z</time></trkpt><trkpt lat="45.90329089885767" lon="12.325051912315276"><ele>63.99999999999999</ele><time>2026-04-25T09:35:33.999Z</time></trkpt><trkpt lat="45.90335540620541" lon="12.324989836761851"><ele>64.0</ele><time>2026-04-25T09:35:34.999Z</time></trkpt><trkpt lat="45.903420482219445" lon="12.324927168701977"><ele>64.0</ele><time>2026-04-25T09:35:35.999Z</time></trkpt><trkpt lat="45.903482814675215" lon="12.324863242624312"><ele>64.0</ele><time>2026-04-25T09:35:36.999Z</time></trkpt><trkpt lat="45.90354380127157" lon="12.324793741571602"><ele>63.99999999999999</ele><time>2026-04-25T09:35:37.999Z</time></trkpt><trkpt lat="45.903606080412274" lon="12.324722948656492"><ele>64.0</ele><time>2026-04-25T09:35:38.999Z</time></trkpt><trkpt lat="45.90366971086468" lon="12.32465239539778"><ele>64.42857142857143</ele><time>2026-04-25T09:35:39.999Z</time></trkpt><trkpt lat="45.90372933822427" lon="12.324593938099284"><ele>64.85714285714285</ele><time>2026-04-25T09:35:40.999Z</time></trkpt><trkpt lat="45.9037871322651" lon="12.324530907453351"><ele>65.28571428571428</ele><time>2026-04-25T09:35:41.999Z</time></trkpt><trkpt lat="45.90384556726314" lon="12.324465965066485"><ele>65.71428571428571</ele><time>2026-04-25T09:35:42.999Z</time></trkpt><trkpt lat="45.90390642986634" lon="12.324408352329215"><ele>66.14285714285714</ele><time>2026-04-25T09:35:43.999Z</time></trkpt><trkpt lat="45.9039629726779" lon="12.324350686863527"><ele>66.57142857142857</ele><time>2026-04-25T09:35:44.999Z</time></trkpt><trkpt lat="45.90401806265091" lon="12.324281721234186"><ele>67.0</ele><time>2026-04-25T09:35:45.999Z</time></trkpt><trkpt lat="45.904078626247085" lon="12.324214766438983"><ele>67.0</ele><time>2026-04-25T09:35:46.999Z</time></trkpt><trkpt lat="45.904137020599194" lon="12.324148993338268"><ele>67.0</ele><time>2026-04-25T09:35:47.999Z</time></trkpt><trkpt lat="45.90419575189848" lon="12.324084829866308"><ele>67.0</ele><time>2026-04-25T09:35:48.999Z</time></trkpt><trkpt lat="45.90425411998966" lon="12.324032655465981"><ele>67.0</ele><time>2026-04-25T09:35:49.999Z</time></trkpt><trkpt lat="45.90430986521521" lon="12.323973272865581"><ele>67.0</ele><time>2026-04-25T09:35:50.999Z</time></trkpt><trkpt lat="45.9043676140155" lon="12.323915828045251"><ele>67.0</ele><time>2026-04-25T09:35:51.999Z</time></trkpt><trkpt lat="45.9044217435089" lon="12.323856792096887"><ele>67.0</ele><time>2026-04-25T09:35:52.999Z</time></trkpt><trkpt lat="45.9044760662774" lon="12.323793942044958"><ele>67.42857142857143</ele><time>2026-04-25T09:35:53.999Z</time></trkpt><trkpt lat="45.904537498420105" lon="12.323733306885151"><ele>67.85714285714286</ele><time>2026-04-25T09:35:54.999Z</time></trkpt><trkpt lat="45.904594224519094" lon="12.323673529533146"><ele>68.28571428571428</ele><time>2026-04-25T09:35:55.999Z</time></trkpt><trkpt lat="45.90464531505065" lon="12.323618140619029"><ele>68.71428571428572</ele><time>2026-04-25T09:35:56.999Z</time></trkpt><trkpt lat="45.90469554608403" lon="12.323557886197369"><ele>69.14285714285714</ele><time>2026-04-25T09:35:57.999Z</time></trkpt><trkpt lat="45.90475596985221" lon="12.323495260387695"><ele>69.57142857142857</ele><time>2026-04-25T09:35:58.999Z</time></trkpt><trkpt lat="45.90482051176258" lon="12.323428656092828"><ele>70.0</ele><time>2026-04-25T09:35:59.999Z</time></trkpt><trkpt lat="45.90487513101938" lon="12.32336197613657"><ele>70.0</ele><time>2026-04-25T09:36:00.999Z</time></trkpt><trkpt lat="45.9049389895768" lon="12.32330237153484"><ele>70.0</ele><time>2026-04-25T09:36:01.999Z</time></trkpt><trkpt lat="45.90499329379903" lon="12.323239902627027"><ele>70.0</ele><time>2026-04-25T09:36:02.999Z</time></trkpt><trkpt lat="45.9050413760007" lon="12.32315910616012"><ele>70.0</ele><time>2026-04-25T09:36:03.999Z</time></trkpt><trkpt lat="45.905075771337" lon="12.323062352311604"><ele>70.0</ele><time>2026-04-25T09:36:04.999Z</time></trkpt><trkpt lat="45.905107037339334" lon="12.322964003006708"><ele>70.0</ele><time>2026-04-25T09:36:05.999Z</time></trkpt><trkpt lat="45.90514809643748" lon="12.322877176651577"><ele>70.0</ele><time>2026-04-25T09:36:06.999Z</time></trkpt><trkpt lat="45.905194636810094" lon="12.32278819568458"><ele>69.85714285714286</ele><time>2026-04-25T09:36:07.999Z</time></trkpt><trkpt lat="45.90523703852336" lon="12.322706529353848"><ele>69.71428571428572</ele><time>2026-04-25T09:36:08.999Z</time></trkpt><trkpt lat="45.90527824688732" lon="12.32260843032482"><ele>69.57142857142857</ele><time>2026-04-25T09:36:09.999Z</time></trkpt><trkpt lat="45.905311313758496" lon="12.322513550183693"><ele>69.42857142857143</ele><time>2026-04-25T09:36:10.999Z</time></trkpt><trkpt lat="45.90534446866188" lon="12.322420107159317"><ele>69.28571428571429</ele><time>2026-04-25T09:36:11.999Z</time></trkpt><trkpt lat="45.90538412872019" lon="12.32232761466784"><ele>69.14285714285714</ele><time>2026-04-25T09:36:12.999Z</time></trkpt><trkpt lat="45.90542683728603" lon="12.322239052404"><ele>69.0</ele><time>2026-04-25T09:36:13.999Z</time></trkpt><trkpt lat="45.90547511076059" lon="12.322151092722127"><ele>68.83333333333333</ele><time>2026-04-25T09:36:14.999Z</time></trkpt><trkpt lat="45.90551914885056" lon="12.322068390748568"><ele>68.66666666666667</ele><time>2026-04-25T09:36:15.999Z</time></trkpt><trkpt lat="45.905564653683264" lon="12.32198325832057"><ele>68.5</ele><time>2026-04-25T09:36:16.999Z</time></trkpt><trkpt lat="45.905613285759024" lon="12.321898071968906"><ele>68.33333333333334</ele><time>2026-04-25T09:36:17.999Z</time></trkpt><trkpt lat="45.9056568454506" lon="12.32182002403602"><ele>68.16666666666667</ele><time>2026-04-25T09:36:18.999Z</time></trkpt><trkpt lat="45.905699763700675" lon="12.321725966272384"><ele>68.0</ele><time>2026-04-25T09:36:19.999Z</time></trkpt><trkpt lat="45.905730358309576" lon="12.321621423858277"><ele>67.99999999999999</ele><time>2026-04-25T09:36:20.999Z</time></trkpt><trkpt lat="45.90575964271746" lon="12.3215256077376"><ele>68.0</ele><time>2026-04-25T09:36:21.999Z</time></trkpt><trkpt lat="45.9057794980365" lon="12.32142390473369"><ele>68.0</ele><time>2026-04-25T09:36:22.999Z</time></trkpt><trkpt lat="45.90579191246705" lon="12.321318309587625"><ele>68.0</ele><time>2026-04-25T09:36:23.999Z</time></trkpt><trkpt lat="45.905803249765405" lon="12.321217444615757"><ele>68.0</ele><time>2026-04-25T09:36:24.999Z</time></trkpt><trkpt lat="45.905816645219694" lon="12.321112871338492"><ele>67.99999999999999</ele><time>2026-04-25T09:36:25.999Z</time></trkpt><trkpt lat="45.905829645977356" lon="12.321018574203768"><ele>68.0</ele><time>2026-04-25T09:36:26.999Z</time></trkpt><trkpt lat="45.905847112060684" lon="12.320922897472014"><ele>68.2</ele><time>2026-04-25T09:36:27.999Z</time></trkpt><trkpt lat="45.90587196157567" lon="12.320758369054113"><ele>68.4</ele><time>2026-04-25T09:36:29.999Z</time></trkpt><trkpt lat="45.905906396496746" lon="12.320620502979844"><ele>68.60000000000001</ele><time>2026-04-25T09:36:31.999Z</time></trkpt><trkpt lat="45.90596884708537" lon="12.320526348091784"><ele>68.8</ele><time>2026-04-25T09:36:33.999Z</time></trkpt><trkpt lat="45.90606306130888" lon="12.320486133778513"><ele>69.0</ele><time>2026-04-25T09:36:35.999Z</time></trkpt><trkpt lat="45.906166644791604" lon="12.320482872619229"><ele>69.66666666666667</ele><time>2026-04-25T09:36:38Z</time></trkpt><trkpt lat="45.90627813366865" lon="12.32043389655479"><ele>70.33333333333333</ele><time>2026-04-25T09:36:40Z</time></trkpt><trkpt lat="45.90633978525908" lon="12.320386864594552"><ele>71.0</ele><time>2026-04-25T09:36:41Z</time></trkpt><trkpt lat="45.906398872110955" lon="12.32033462746601"><ele>71.66666666666666</ele><time>2026-04-25T09:36:42Z</time></trkpt><trkpt lat="45.906452501681876" lon="12.320279153240843"><ele>72.33333333333333</ele><time>2026-04-25T09:36:43Z</time></trkpt><trkpt lat="45.90650487843995" lon="12.32020828408076"><ele>73.0</ele><time>2026-04-25T09:36:44Z</time></trkpt><trkpt lat="45.90654868707973" lon="12.320135090614526"><ele>73.0</ele><time>2026-04-25T09:36:45Z</time></trkpt><trkpt lat="45.90659761254142" lon="12.32006661841901"><ele>73.0</ele><time>2026-04-25T09:36:46Z</time></trkpt><trkpt lat="45.906715753104386" lon="12.32002652381883"><ele>73.0</ele><time>2026-04-25T09:36:48Z</time></trkpt><trkpt lat="45.90677517415585" lon="12.320070869907873"><ele>73.0</ele><time>2026-04-25T09:36:49Z</time></trkpt><trkpt lat="45.90682278891982" lon="12.320157391252943"><ele>73.0</ele><time>2026-04-25T09:36:50Z</time></trkpt><trkpt lat="45.90686307492937" lon="12.320245013984483"><ele>73.0</ele><time>2026-04-25T09:36:51Z</time></trkpt><trkpt lat="45.90690816060534" lon="12.320329825720307"><ele>72.66666666666666</ele><time>2026-04-25T09:36:52Z</time></trkpt><trkpt lat="45.906961235317276" lon="12.320408274464473"><ele>72.33333333333333</ele><time>2026-04-25T09:36:53Z</time></trkpt><trkpt lat="45.90701266577187" lon="12.320489599547114"><ele>72.0</ele><time>2026-04-25T09:36:54Z</time></trkpt><trkpt lat="45.90707426961253" lon="12.320572012173415"><ele>71.66666666666667</ele><time>2026-04-25T09:36:55Z</time></trkpt><trkpt lat="45.907137666047284" lon="12.32063192505444"><ele>71.33333333333334</ele><time>2026-04-25T09:36:56Z</time></trkpt><trkpt lat="45.90722459346361" lon="12.320659616555034"><ele>71.0</ele><time>2026-04-25T09:36:57Z</time></trkpt><trkpt lat="45.90731298257856" lon="12.320638480722668"><ele>71.0</ele><time>2026-04-25T09:36:58Z</time></trkpt><trkpt lat="45.90739071714012" lon="12.320595271085184"><ele>71.0</ele><time>2026-04-25T09:36:59Z</time></trkpt><trkpt lat="45.90746347862371" lon="12.320541697894528"><ele>71.0</ele><time>2026-04-25T09:37:00Z</time></trkpt><trkpt lat="45.907534681940334" lon="12.320489898545748"><ele>71.0</ele><time>2026-04-25T09:37:01Z</time></trkpt><trkpt lat="45.90760681234846" lon="12.320449529395002"><ele>71.0</ele><time>2026-04-25T09:37:02Z</time></trkpt><trkpt lat="45.90768449702929" lon="12.320411658693304"><ele>71.0</ele><time>2026-04-25T09:37:03Z</time></trkpt><trkpt lat="45.907757499582154" lon="12.320375577503173"><ele>70.33333333333334</ele><time>2026-04-25T09:37:04Z</time></trkpt><trkpt lat="45.90783260329825" lon="12.320342138815278"><ele>69.66666666666667</ele><time>2026-04-25T09:37:05Z</time></trkpt><trkpt lat="45.90790657375809" lon="12.320303244593088"><ele>69.0</ele><time>2026-04-25T09:37:06Z</time></trkpt><trkpt lat="45.90798031485837" lon="12.320265916005713"><ele>68.33333333333333</ele><time>2026-04-25T09:37:07Z</time></trkpt><trkpt lat="45.908057047183355" lon="12.320226881995412"><ele>67.66666666666666</ele><time>2026-04-25T09:37:08Z</time></trkpt><trkpt lat="45.90812603206905" lon="12.320184213720642"><ele>67.0</ele><time>2026-04-25T09:37:09Z</time></trkpt><trkpt lat="45.90819218667541" lon="12.320142807553978"><ele>67.0</ele><time>2026-04-25T09:37:10Z</time></trkpt><trkpt lat="45.908264113308135" lon="12.320107132224921"><ele>67.0</ele><time>2026-04-25T09:37:11Z</time></trkpt><trkpt lat="45.9083826915547" lon="12.320156414789492"><ele>67.0</ele><time>2026-04-25T09:37:13Z</time></trkpt><trkpt lat="45.90842248566701" lon="12.32023665867107"><ele>67.0</ele><time>2026-04-25T09:37:14Z</time></trkpt><trkpt lat="45.90843521224476" lon="12.3203320054112"><ele>67.0</ele><time>2026-04-25T09:37:15Z</time></trkpt><trkpt lat="45.90843245833722" lon="12.320432084851332"><ele>67.0</ele><time>2026-04-25T09:37:16Z</time></trkpt><trkpt lat="45.90843238119587" lon="12.320608698981056"><ele>67.33333333333333</ele><time>2026-04-25T09:37:18Z</time></trkpt><trkpt lat="45.90850507432398" lon="12.320726887678761"><ele>67.66666666666666</ele><time>2026-04-25T09:37:20Z</time></trkpt><trkpt lat="45.9086242937965" lon="12.320694273312435"><ele>68.0</ele><time>2026-04-25T09:37:22Z</time></trkpt><trkpt lat="45.908680940222666" lon="12.320637446141083"><ele>68.33333333333333</ele><time>2026-04-25T09:37:23Z</time></trkpt><trkpt lat="45.90873412052877" lon="12.320588769609685"><ele>68.66666666666667</ele><time>2026-04-25T09:37:24Z</time></trkpt><trkpt lat="45.90880608416228" lon="12.32053661166816"><ele>69.0</ele><time>2026-04-25T09:37:25Z</time></trkpt><trkpt lat="45.90888086953164" lon="12.320502044742614"><ele>69.14285714285714</ele><time>2026-04-25T09:37:26Z</time></trkpt><trkpt lat="45.90895195504761" lon="12.320467278054782"><ele>69.28571428571429</ele><time>2026-04-25T09:37:27Z</time></trkpt><trkpt lat="45.909028600100775" lon="12.320434105040746"><ele>69.42857142857143</ele><time>2026-04-25T09:37:28Z</time></trkpt><trkpt lat="45.909102781894155" lon="12.32039842646338"><ele>69.57142857142857</ele><time>2026-04-25T09:37:29Z</time></trkpt><trkpt lat="45.90916786190562" lon="12.320373726722343"><ele>69.71428571428572</ele><time>2026-04-25T09:37:30Z</time></trkpt><trkpt lat="45.90923873774884" lon="12.320341515321692"><ele>69.85714285714286</ele><time>2026-04-25T09:37:31Z</time></trkpt><trkpt lat="45.90929759500887" lon="12.320304982691837"><ele>70.0</ele><time>2026-04-25T09:37:32Z</time></trkpt><trkpt lat="45.909361515907875" lon="12.320265623492217"><ele>70.0</ele><time>2026-04-25T09:37:33Z</time></trkpt><trkpt lat="45.90943249921595" lon="12.320238564682995"><ele>70.0</ele><time>2026-04-25T09:37:34Z</time></trkpt><trkpt lat="45.909503772083184" lon="12.320200950968308"><ele>70.0</ele><time>2026-04-25T09:37:35Z</time></trkpt><trkpt lat="45.90956773324078" lon="12.32016936082651"><ele>70.0</ele><time>2026-04-25T09:37:36Z</time></trkpt><trkpt lat="45.909633665541286" lon="12.32014796054044"><ele>70.0</ele><time>2026-04-25T09:37:37Z</time></trkpt><trkpt lat="45.909696067454725" lon="12.320112039121959"><ele>70.0</ele><time>2026-04-25T09:37:38Z</time></trkpt><trkpt lat="45.90982143670798" lon="12.320056793872604"><ele>70.0</ele><time>2026-04-25T09:37:40Z</time></trkpt><trkpt lat="45.909895059899746" lon="12.320025981760512"><ele>70.0</ele><time>2026-04-25T09:37:40.999Z</time></trkpt><trkpt lat="45.90995917116826" lon="12.319992337409186"><ele>70.0</ele><time>2026-04-25T09:37:41.999Z</time></trkpt><trkpt lat="45.91002118574882" lon="12.319957842776136"><ele>70.0</ele><time>2026-04-25T09:37:42.999Z</time></trkpt><trkpt lat="45.91009774183075" lon="12.319919698797786"><ele>70.0</ele><time>2026-04-25T09:37:43.999Z</time></trkpt><trkpt lat="45.91017770883036" lon="12.319898223929012"><ele>70.0</ele><time>2026-04-25T09:37:44.999Z</time></trkpt><trkpt lat="45.91025210219003" lon="12.319874719985346"><ele>70.14285714285714</ele><time>2026-04-25T09:37:45.999Z</time></trkpt><trkpt lat="45.91032242073956" lon="12.31985115482969"><ele>70.28571428571428</ele><time>2026-04-25T09:37:46.999Z</time></trkpt><trkpt lat="45.91039067519954" lon="12.319823764924806"><ele>70.42857142857143</ele><time>2026-04-25T09:37:47.999Z</time></trkpt><trkpt lat="45.910465406735284" lon="12.319792535328574"><ele>70.57142857142857</ele><time>2026-04-25T09:37:48.999Z</time></trkpt><trkpt lat="45.910536356901375" lon="12.31977120027817"><ele>70.71428571428571</ele><time>2026-04-25T09:37:49.999Z</time></trkpt><trkpt lat="45.91061018036995" lon="12.319738823283378"><ele>70.85714285714286</ele><time>2026-04-25T09:37:50.999Z</time></trkpt><trkpt lat="45.910670185518626" lon="12.319680765498347"><ele>71.0</ele><time>2026-04-25T09:37:51.999Z</time></trkpt><trkpt lat="45.910705303841326" lon="12.319570844894656"><ele>71.0</ele><time>2026-04-25T09:37:52.999Z</time></trkpt><trkpt lat="45.91071915448815" lon="12.319460148537473"><ele>71.0</ele><time>2026-04-25T09:37:53.999Z</time></trkpt><trkpt lat="45.91071618006929" lon="12.319350306145036"><ele>71.0</ele><time>2026-04-25T09:37:54.999Z</time></trkpt><trkpt lat="45.91070505444141" lon="12.319236023557643"><ele>71.0</ele><time>2026-04-25T09:37:55.999Z</time></trkpt><trkpt lat="45.910688623202994" lon="12.319132352841711"><ele>71.0</ele><time>2026-04-25T09:37:56.999Z</time></trkpt><trkpt lat="45.910667347113" lon="12.319028597972338"><ele>71.0</ele><time>2026-04-25T09:37:57.999Z</time></trkpt><trkpt lat="45.910639918243135" lon="12.318917803363641"><ele>71.0</ele><time>2026-04-25T09:37:58.999Z</time></trkpt><trkpt lat="45.910615218886065" lon="12.318814994353188"><ele>71.0</ele><time>2026-04-25T09:37:59.999Z</time></trkpt><trkpt lat="45.91059311706785" lon="12.31870834717515"><ele>71.0</ele><time>2026-04-25T09:38:00.999Z</time></trkpt><trkpt lat="45.910572483288234" lon="12.318599074259847"><ele>71.0</ele><time>2026-04-25T09:38:01.999Z</time></trkpt><trkpt lat="45.9105548838551" lon="12.318490408225976"><ele>71.0</ele><time>2026-04-25T09:38:02.999Z</time></trkpt><trkpt lat="45.910540693922854" lon="12.318382974181977"><ele>71.0</ele><time>2026-04-25T09:38:03.999Z</time></trkpt><trkpt lat="45.910534773114385" lon="12.318265755521272"><ele>71.0</ele><time>2026-04-25T09:38:04.999Z</time></trkpt><trkpt lat="45.910531448324015" lon="12.318145179074726"><ele>71.0</ele><time>2026-04-25T09:38:05.999Z</time></trkpt><trkpt lat="45.91052833671296" lon="12.318028050183385"><ele>71.0</ele><time>2026-04-25T09:38:06.999Z</time></trkpt><trkpt lat="45.91051681284994" lon="12.317914908192186"><ele>71.0</ele><time>2026-04-25T09:38:07.999Z</time></trkpt><trkpt lat="45.91049384869678" lon="12.31780122220052"><ele>71.0</ele><time>2026-04-25T09:38:08.999Z</time></trkpt><trkpt lat="45.91046595022022" lon="12.317683487379911"><ele>71.0</ele><time>2026-04-25T09:38:09.999Z</time></trkpt><trkpt lat="45.91043715400027" lon="12.317569006233999"><ele>71.16666666666667</ele><time>2026-04-25T09:38:10.999Z</time></trkpt><trkpt lat="45.910408383677925" lon="12.317456610554851"><ele>71.33333333333334</ele><time>2026-04-25T09:38:11.999Z</time></trkpt><trkpt lat="45.91037780849736" lon="12.3173423329286"><ele>71.5</ele><time>2026-04-25T09:38:12.999Z</time></trkpt><trkpt lat="45.91034081893875" lon="12.317244847479783"><ele>71.66666666666667</ele><time>2026-04-25T09:38:13.999Z</time></trkpt><trkpt lat="45.9103000639992" lon="12.317145202666058"><ele>71.83333333333333</ele><time>2026-04-25T09:38:14.999Z</time></trkpt><trkpt lat="45.91026264953693" lon="12.317050525284426"><ele>72.0</ele><time>2026-04-25T09:38:15.999Z</time></trkpt><trkpt lat="45.91022898018332" lon="12.316956758730814"><ele>72.5</ele><time>2026-04-25T09:38:16.999Z</time></trkpt><trkpt lat="45.910183375836915" lon="12.316860379000877"><ele>73.0</ele><time>2026-04-25T09:38:18.999Z</time></trkpt><trkpt lat="45.910196168626314" lon="12.316754446241676"><ele>73.5</ele><time>2026-04-25T09:38:20.999Z</time></trkpt><trkpt lat="45.910258491230316" lon="12.316694864524463"><ele>74.0</ele><time>2026-04-25T09:38:22.999Z</time></trkpt><trkpt lat="45.910352806009286" lon="12.316645562345046"><ele>74.5</ele><time>2026-04-25T09:38:24.999Z</time></trkpt><trkpt lat="45.91044470424566" lon="12.316563557756849"><ele>75.0</ele><time>2026-04-25T09:38:26.999Z</time></trkpt><trkpt lat="45.91053442309615" lon="12.316525807034319"><ele>75.0</ele><time>2026-04-25T09:38:28.999Z</time></trkpt><trkpt lat="45.9106487589154" lon="12.316521476107516"><ele>75.0</ele><time>2026-04-25T09:38:30.999Z</time></trkpt><trkpt lat="45.91071723382063" lon="12.316539909870476"><ele>75.0</ele><time>2026-04-25T09:38:31.999Z</time></trkpt><trkpt lat="45.91084242060071" lon="12.31658128729306"><ele>75.0</ele><time>2026-04-25T09:38:33.999Z</time></trkpt><trkpt lat="45.91091644843846" lon="12.316621952707468"><ele>75.0</ele><time>2026-04-25T09:38:34.999Z</time></trkpt><trkpt lat="45.91099259296233" lon="12.316651899158668"><ele>74.8</ele><time>2026-04-25T09:38:35.999Z</time></trkpt><trkpt lat="45.9110698380911" lon="12.316680089121077"><ele>74.6</ele><time>2026-04-25T09:38:36.999Z</time></trkpt><trkpt lat="45.91123354283229" lon="12.316693578527358"><ele>74.4</ele><time>2026-04-25T09:38:38.999Z</time></trkpt><trkpt lat="45.911312577955016" lon="12.316688316299832"><ele>74.2</ele><time>2026-04-25T09:38:39.999Z</time></trkpt><trkpt lat="45.911389740790526" lon="12.316678413206553"><ele>74.0</ele><time>2026-04-25T09:38:40.999Z</time></trkpt><trkpt lat="45.91146773386879" lon="12.316661753305908"><ele>74.0</ele><time>2026-04-25T09:38:41.999Z</time></trkpt><trkpt lat="45.91154377674894" lon="12.316665123815074"><ele>74.0</ele><time>2026-04-25T09:38:42.999Z</time></trkpt><trkpt lat="45.911620008937874" lon="12.316694831845961"><ele>74.0</ele><time>2026-04-25T09:38:44Z</time></trkpt><trkpt lat="45.91169086776554" lon="12.316734722230992"><ele>74.0</ele><time>2026-04-25T09:38:45Z</time></trkpt><trkpt lat="45.91175596979329" lon="12.316790988380086"><ele>74.0</ele><time>2026-04-25T09:38:46Z</time></trkpt><trkpt lat="45.911811236983354" lon="12.31687242595426"><ele>74.0</ele><time>2026-04-25T09:38:47Z</time></trkpt><trkpt lat="45.91186117946313" lon="12.316964471824797"><ele>74.5</ele><time>2026-04-25T09:38:48Z</time></trkpt><trkpt lat="45.911911284659695" lon="12.317059843920374"><ele>75.0</ele><time>2026-04-25T09:38:49Z</time></trkpt><trkpt lat="45.911956357049" lon="12.317153668170423"><ele>75.5</ele><time>2026-04-25T09:38:50Z</time></trkpt><trkpt lat="45.91200091913968" lon="12.31724288966295"><ele>76.0</ele><time>2026-04-25T09:38:51Z</time></trkpt><trkpt lat="45.912043918813445" lon="12.317335166539394"><ele>76.5</ele><time>2026-04-25T09:38:52Z</time></trkpt><trkpt lat="45.9120953457164" lon="12.317411505537766"><ele>77.0</ele><time>2026-04-25T09:38:53Z</time></trkpt><trkpt lat="45.91214324339956" lon="12.317487331392439"><ele>77.0</ele><time>2026-04-25T09:38:54Z</time></trkpt><trkpt lat="45.912187006999766" lon="12.317562267433033"><ele>77.0</ele><time>2026-04-25T09:38:55Z</time></trkpt><trkpt lat="45.912279125353606" lon="12.317613963844455"><ele>77.0</ele><time>2026-04-25T09:38:57Z</time></trkpt><trkpt lat="45.912354533205864" lon="12.31755183745156"><ele>77.0</ele><time>2026-04-25T09:38:59Z</time></trkpt><trkpt lat="45.91240113454503" lon="12.317457535362554"><ele>77.0</ele><time>2026-04-25T09:39:01Z</time></trkpt><trkpt lat="45.91246133625713" lon="12.317382550260849"><ele>77.0</ele><time>2026-04-25T09:39:03Z</time></trkpt><trkpt lat="45.912525826990255" lon="12.317300781342713"><ele>77.0</ele><time>2026-04-25T09:39:05Z</time></trkpt><trkpt lat="45.91257202077519" lon="12.317223449198597"><ele>77.0</ele><time>2026-04-25T09:39:07Z</time></trkpt><trkpt lat="45.91262912981571" lon="12.317146431312265"><ele>77.0</ele><time>2026-04-25T09:39:09Z</time></trkpt><trkpt lat="45.91269568688741" lon="12.317062151766333"><ele>77.0</ele><time>2026-04-25T09:39:11Z</time></trkpt><trkpt lat="45.91275835050359" lon="12.316981893436278"><ele>77.0</ele><time>2026-04-25T09:39:13Z</time></trkpt><trkpt lat="45.91281732987641" lon="12.316911881735235"><ele>77.0</ele><time>2026-04-25T09:39:15Z</time></trkpt><trkpt lat="45.912883552969426" lon="12.316847993948716"><ele>77.83333333333334</ele><time>2026-04-25T09:39:17Z</time></trkpt><trkpt lat="45.91295314369655" lon="12.31679678367638"><ele>78.66666666666667</ele><time>2026-04-25T09:39:19Z</time></trkpt><trkpt lat="45.91303234478937" lon="12.316840242157276"><ele>79.5</ele><time>2026-04-25T09:39:21Z</time></trkpt><trkpt lat="45.91310197986606" lon="12.316912697939982"><ele>80.33333333333333</ele><time>2026-04-25T09:39:23Z</time></trkpt><trkpt lat="45.91317203650102" lon="12.31697230843671"><ele>81.16666666666666</ele><time>2026-04-25T09:39:25Z</time></trkpt><trkpt lat="45.91326201445802" lon="12.316957374629958"><ele>82.0</ele><time>2026-04-25T09:39:27Z</time></trkpt><trkpt lat="45.91333960505641" lon="12.316905206468512"><ele>82.0</ele><time>2026-04-25T09:39:29Z</time></trkpt><trkpt lat="45.91340491377761" lon="12.316840058599938"><ele>82.0</ele><time>2026-04-25T09:39:31Z</time></trkpt><trkpt lat="45.91346577598888" lon="12.316773371135401"><ele>82.0</ele><time>2026-04-25T09:39:33Z</time></trkpt><trkpt lat="45.91353262149358" lon="12.31670907833071"><ele>82.0</ele><time>2026-04-25T09:39:35Z</time></trkpt><trkpt lat="45.91359317524335" lon="12.316629695232333"><ele>82.0</ele><time>2026-04-25T09:39:37Z</time></trkpt><trkpt lat="45.913649182247404" lon="12.316555411192954"><ele>82.0</ele><time>2026-04-25T09:39:39Z</time></trkpt><trkpt lat="45.913708964910796" lon="12.316496244503796"><ele>82.33333333333333</ele><time>2026-04-25T09:39:41Z</time></trkpt><trkpt lat="45.91378050085477" lon="12.316428178945003"><ele>82.66666666666666</ele><time>2026-04-25T09:39:42.999Z</time></trkpt><trkpt lat="45.91384750218059" lon="12.316348917228312"><ele>83.0</ele><time>2026-04-25T09:39:44.999Z</time></trkpt><trkpt lat="45.91392420619725" lon="12.316269275183373"><ele>83.33333333333333</ele><time>2026-04-25T09:39:46.999Z</time></trkpt><trkpt lat="45.91400495111534" lon="12.3162201206094"><ele>83.66666666666667</ele><time>2026-04-25T09:39:48.999Z</time></trkpt><trkpt lat="45.91409854176463" lon="12.316231455487957"><ele>84.0</ele><time>2026-04-25T09:39:50.999Z</time></trkpt><trkpt lat="45.9141634897369" lon="12.316271414810629"><ele>84.71428571428571</ele><time>2026-04-25T09:39:51.999Z</time></trkpt><trkpt lat="45.91422525265687" lon="12.31632138473014"><ele>85.42857142857143</ele><time>2026-04-25T09:39:52.999Z</time></trkpt><trkpt lat="45.914285199702505" lon="12.316367553709844"><ele>86.14285714285714</ele><time>2026-04-25T09:39:53.999Z</time></trkpt><trkpt lat="45.91434764793759" lon="12.31641344083573"><ele>86.85714285714286</ele><time>2026-04-25T09:39:54.999Z</time></trkpt><trkpt lat="45.914414393317465" lon="12.316449265355041"><ele>87.57142857142857</ele><time>2026-04-25T09:39:55.999Z</time></trkpt><trkpt lat="45.914492763620245" lon="12.31644369861013"><ele>88.28571428571428</ele><time>2026-04-25T09:39:56.999Z</time></trkpt><trkpt lat="45.91456470312739" lon="12.316402096776953"><ele>89.0</ele><time>2026-04-25T09:39:57.999Z</time></trkpt><trkpt lat="45.914613707461264" lon="12.316335419738923"><ele>90.33333333333334</ele><time>2026-04-25T09:39:58.999Z</time></trkpt><trkpt lat="45.91469151766553" lon="12.316213711949022"><ele>91.66666666666667</ele><time>2026-04-25T09:40:00.999Z</time></trkpt><trkpt lat="45.91473800598575" lon="12.316092611217552"><ele>93.0</ele><time>2026-04-25T09:40:02.999Z</time></trkpt><trkpt lat="45.914794671867156" lon="12.316008486449658"><ele>94.33333333333334</ele><time>2026-04-25T09:40:04.999Z</time></trkpt><trkpt lat="45.91484094799388" lon="12.315939979174054"><ele>95.66666666666667</ele><time>2026-04-25T09:40:06.999Z</time></trkpt><trkpt lat="45.91488864586292" lon="12.315872986232819"><ele>97.0</ele><time>2026-04-25T09:40:08.999Z</time></trkpt><trkpt lat="45.91493683330961" lon="12.315781307622201"><ele>97.0</ele><time>2026-04-25T09:40:10.999Z</time></trkpt><trkpt lat="45.91498069937117" lon="12.315706327864596"><ele>97.0</ele><time>2026-04-25T09:40:12.999Z</time></trkpt><trkpt lat="45.915021971305386" lon="12.31563108848938"><ele>97.0</ele><time>2026-04-25T09:40:14.999Z</time></trkpt><trkpt lat="45.91506665522866" lon="12.315534161267307"><ele>97.0</ele><time>2026-04-25T09:40:16.999Z</time></trkpt><trkpt lat="45.915092450150276" lon="12.3154399994046"><ele>97.0</ele><time>2026-04-25T09:40:18.999Z</time></trkpt><trkpt lat="45.915132961811246" lon="12.315369530330365"><ele>97.0</ele><time>2026-04-25T09:40:20.999Z</time></trkpt><trkpt lat="45.91517732325869" lon="12.31529614269328"><ele>97.0</ele><time>2026-04-25T09:40:22.999Z</time></trkpt><trkpt lat="45.9152113975023" lon="12.315196073872578"><ele>96.83333333333334</ele><time>2026-04-25T09:40:25.999Z</time></trkpt><trkpt lat="45.91525036246164" lon="12.315086799624389"><ele>96.66666666666667</ele><time>2026-04-25T09:40:28.999Z</time></trkpt><trkpt lat="45.915290520660704" lon="12.315007967654452"><ele>96.5</ele><time>2026-04-25T09:40:30.999Z</time></trkpt><trkpt lat="45.91532650246923" lon="12.314914447612738"><ele>96.33333333333334</ele><time>2026-04-25T09:40:32.999Z</time></trkpt><trkpt lat="45.915361547854005" lon="12.314829645976474"><ele>96.16666666666667</ele><time>2026-04-25T09:40:34.999Z</time></trkpt><trkpt lat="45.91542308226066" lon="12.31472121375281"><ele>96.0</ele><time>2026-04-25T09:40:36.999Z</time></trkpt><trkpt lat="45.91545963888747" lon="12.314645639892769"><ele>96.75</ele><time>2026-04-25T09:40:39.999Z</time></trkpt><trkpt lat="45.91555519844175" lon="12.314497893722997"><ele>97.5</ele><time>2026-04-25T09:40:41.999Z</time></trkpt><trkpt lat="45.91563809067331" lon="12.314409746957496"><ele>98.25</ele><time>2026-04-25T09:40:43.999Z</time></trkpt><trkpt lat="45.9157212858496" lon="12.314306124779604"><ele>99.0</ele><time>2026-04-25T09:40:45.999Z</time></trkpt><trkpt lat="45.91581171398862" lon="12.314207056039328"><ele>99.0</ele><time>2026-04-25T09:40:47.999Z</time></trkpt><trkpt lat="45.91590314919355" lon="12.314096040728787"><ele>99.0</ele><time>2026-04-25T09:40:50Z</time></trkpt><trkpt lat="45.91595022058631" lon="12.31403556383312"><ele>99.0</ele><time>2026-04-25T09:40:51Z</time></trkpt><trkpt lat="45.91605245891723" lon="12.313924852576895"><ele>99.0</ele><time>2026-04-25T09:40:53Z</time></trkpt><trkpt lat="45.91616132741344" lon="12.313819154548034"><ele>99.0</ele><time>2026-04-25T09:40:55Z</time></trkpt><trkpt lat="45.91627236182995" lon="12.313721440092175"><ele>100.25</ele><time>2026-04-25T09:40:57Z</time></trkpt><trkpt lat="45.91638147745987" lon="12.313631493278944"><ele>101.5</ele><time>2026-04-25T09:40:59Z</time></trkpt><trkpt lat="45.9164946578569" lon="12.313553968135832"><ele>102.75</ele><time>2026-04-25T09:41:01Z</time></trkpt><trkpt lat="45.9165862269681" lon="12.313480011737848"><ele>104.0</ele><time>2026-04-25T09:41:03Z</time></trkpt><trkpt lat="45.91667465654792" lon="12.313395579223918"><ele>104.0</ele><time>2026-04-25T09:41:05Z</time></trkpt><trkpt lat="45.9167603465174" lon="12.313342171214781"><ele>104.0</ele><time>2026-04-25T09:41:07Z</time></trkpt><trkpt lat="45.916853043749995" lon="12.31327201390847"><ele>104.0</ele><time>2026-04-25T09:41:09Z</time></trkpt><trkpt lat="45.916942566762025" lon="12.313201390668343"><ele>104.0</ele><time>2026-04-25T09:41:11Z</time></trkpt><trkpt lat="45.91702396139544" lon="12.313137819847423"><ele>104.0</ele><time>2026-04-25T09:41:13Z</time></trkpt><trkpt lat="45.917102997455224" lon="12.313073304217232"><ele>104.83333333333333</ele><time>2026-04-25T09:41:15Z</time></trkpt><trkpt lat="45.91718366631895" lon="12.313015894577195"><ele>105.66666666666666</ele><time>2026-04-25T09:41:17Z</time></trkpt><trkpt lat="45.9172560643927" lon="12.312957117759819"><ele>106.5</ele><time>2026-04-25T09:41:19Z</time></trkpt><trkpt lat="45.91732863444055" lon="12.312901097334644"><ele>107.33333333333334</ele><time>2026-04-25T09:41:21Z</time></trkpt><trkpt lat="45.91740317825096" lon="12.3128450588547"><ele>108.16666666666667</ele><time>2026-04-25T09:41:23Z</time></trkpt><trkpt lat="45.917471962245635" lon="12.312782018718362"><ele>109.0</ele><time>2026-04-25T09:41:25Z</time></trkpt><trkpt lat="45.91753049038625" lon="12.312715661197586"><ele>109.83333333333334</ele><time>2026-04-25T09:41:27Z</time></trkpt><trkpt lat="45.91760871950721" lon="12.312675205524695"><ele>110.66666666666667</ele><time>2026-04-25T09:41:29Z</time></trkpt><trkpt lat="45.9176771561419" lon="12.312631463608389"><ele>111.5</ele><time>2026-04-25T09:41:31Z</time></trkpt><trkpt lat="45.91773093353249" lon="12.312564181379482"><ele>112.33333333333334</ele><time>2026-04-25T09:41:33Z</time></trkpt><trkpt lat="45.91777922960781" lon="12.312500733593327"><ele>113.16666666666667</ele><time>2026-04-25T09:41:35Z</time></trkpt><trkpt lat="45.917828886229" lon="12.312392056894733"><ele>114.0</ele><time>2026-04-25T09:41:38Z</time></trkpt><trkpt lat="45.91785670925644" lon="12.312306726214711"><ele>114.80000000000001</ele><time>2026-04-25T09:41:40Z</time></trkpt><trkpt lat="45.91785909217319" lon="12.312162946764964"><ele>115.60000000000001</ele><time>2026-04-25T09:41:43Z</time></trkpt><trkpt lat="45.917836779919924" lon="12.312033353157377"><ele>116.4</ele><time>2026-04-25T09:41:45Z</time></trkpt><trkpt lat="45.917769577997085" lon="12.311923034801602"><ele>117.2</ele><time>2026-04-25T09:41:47Z</time></trkpt><trkpt lat="45.91770514924865" lon="12.311803851291918"><ele>118.0</ele><time>2026-04-25T09:41:49Z</time></trkpt><trkpt lat="45.91767118316061" lon="12.311658302121542"><ele>118.0</ele><time>2026-04-25T09:41:51Z</time></trkpt><trkpt lat="45.91769455357512" lon="12.31150983500548"><ele>118.00000000000001</ele><time>2026-04-25T09:41:53Z</time></trkpt><trkpt lat="45.917720786102436" lon="12.311369786207868"><ele>118.00000000000001</ele><time>2026-04-25T09:41:55Z</time></trkpt><trkpt lat="45.91776560464034" lon="12.311231091310601"><ele>118.0</ele><time>2026-04-25T09:41:57Z</time></trkpt><trkpt lat="45.917811191324425" lon="12.311110384187904"><ele>118.0</ele><time>2026-04-25T09:41:59Z</time></trkpt><trkpt lat="45.917840374230245" lon="12.310979347087477"><ele>118.2</ele><time>2026-04-25T09:42:01Z</time></trkpt><trkpt lat="45.917873244252014" lon="12.310839516006373"><ele>118.4</ele><time>2026-04-25T09:42:03Z</time></trkpt><trkpt lat="45.91791967333512" lon="12.310697250755192"><ele>118.60000000000001</ele><time>2026-04-25T09:42:04.999Z</time></trkpt><trkpt lat="45.91797174041641" lon="12.310553659155065"><ele>118.80000000000001</ele><time>2026-04-25T09:42:06.999Z</time></trkpt><trkpt lat="45.91802586558384" lon="12.31041789269236"><ele>119.0</ele><time>2026-04-25T09:42:08.999Z</time></trkpt><trkpt lat="45.91807830835652" lon="12.310284353999522"><ele>119.0</ele><time>2026-04-25T09:42:10.999Z</time></trkpt><trkpt lat="45.918150804437246" lon="12.31015556548235"><ele>119.0</ele><time>2026-04-25T09:42:12.999Z</time></trkpt><trkpt lat="45.918217980226984" lon="12.310034407059346"><ele>119.0</ele><time>2026-04-25T09:42:14.999Z</time></trkpt><trkpt lat="45.9182851593937" lon="12.309915579245121"><ele>119.0</ele><time>2026-04-25T09:42:16.999Z</time></trkpt><trkpt lat="45.91834390338787" lon="12.309806545489037"><ele>119.0</ele><time>2026-04-25T09:42:18.999Z</time></trkpt><trkpt lat="45.91841589711914" lon="12.309694908896306"><ele>119.6</ele><time>2026-04-25T09:42:20.999Z</time></trkpt><trkpt lat="45.91848893194783" lon="12.309596605293615"><ele>120.2</ele><time>2026-04-25T09:42:22.999Z</time></trkpt><trkpt lat="45.91855855621778" lon="12.309488108784679"><ele>120.79999999999998</ele><time>2026-04-25T09:42:24.999Z</time></trkpt><trkpt lat="45.9186384198912" lon="12.309384844634945"><ele>121.39999999999999</ele><time>2026-04-25T09:42:26.999Z</time></trkpt><trkpt lat="45.91871101578114" lon="12.309266139557831"><ele>122.0</ele><time>2026-04-25T09:42:28.999Z</time></trkpt><trkpt lat="45.91876623456569" lon="12.309138328728661"><ele>122.0</ele><time>2026-04-25T09:42:30.999Z</time></trkpt><trkpt lat="45.918804414249365" lon="12.309005612297765"><ele>121.99999999999999</ele><time>2026-04-25T09:42:32.999Z</time></trkpt><trkpt lat="45.91883258962151" lon="12.30884341477734"><ele>121.99999999999999</ele><time>2026-04-25T09:42:34.999Z</time></trkpt><trkpt lat="45.91885698186957" lon="12.308704515460542"><ele>122.0</ele><time>2026-04-25T09:42:36.999Z</time></trkpt><trkpt lat="45.91888317871214" lon="12.308586792640813"><ele>122.0</ele><time>2026-04-25T09:42:38.999Z</time></trkpt><trkpt lat="45.918937218769265" lon="12.308474738300324"><ele>121.99999999999999</ele><time>2026-04-25T09:42:40.999Z</time></trkpt><trkpt lat="45.91902724908864" lon="12.308462911476846"><ele>122.0</ele><time>2026-04-25T09:42:42.999Z</time></trkpt><trkpt lat="45.91912066842927" lon="12.308496714235284"><ele>122.0</ele><time>2026-04-25T09:42:44.999Z</time></trkpt><trkpt lat="45.919207606821544" lon="12.308517886388191"><ele>122.0</ele><time>2026-04-25T09:42:46.999Z</time></trkpt><trkpt lat="45.919278741499106" lon="12.308541192423279"><ele>121.99999999999999</ele><time>2026-04-25T09:42:48.999Z</time></trkpt><trkpt lat="45.9193580268585" lon="12.308569460281733"><ele>122.0</ele><time>2026-04-25T09:42:50.999Z</time></trkpt><trkpt lat="45.91943229263833" lon="12.308586820156368"><ele>123.33333333333333</ele><time>2026-04-25T09:42:52.999Z</time></trkpt><trkpt lat="45.919510477302005" lon="12.308603079440529"><ele>124.66666666666666</ele><time>2026-04-25T09:42:54.999Z</time></trkpt><trkpt lat="45.91958628355127" lon="12.308626094615889"><ele>126.0</ele><time>2026-04-25T09:42:57Z</time></trkpt><trkpt lat="45.91967688069341" lon="12.308634657501157"><ele>127.33333333333334</ele><time>2026-04-25T09:43:00Z</time></trkpt><trkpt lat="45.919742370531" lon="12.308637041094531"><ele>128.66666666666669</ele><time>2026-04-25T09:43:02Z</time></trkpt><trkpt lat="45.91981488559415" lon="12.308645163173853"><ele>130.0</ele><time>2026-04-25T09:43:04Z</time></trkpt><trkpt lat="45.919889796249755" lon="12.308637742209257"><ele>130.0</ele><time>2026-04-25T09:43:06Z</time></trkpt><trkpt lat="45.919960692356995" lon="12.308625323896523"><ele>130.0</ele><time>2026-04-25T09:43:08Z</time></trkpt><trkpt lat="45.92002382767206" lon="12.30862318215091"><ele>130.0</ele><time>2026-04-25T09:43:10Z</time></trkpt><trkpt lat="45.9201039329346" lon="12.308604119709665"><ele>130.0</ele><time>2026-04-25T09:43:12Z</time></trkpt><trkpt lat="45.920173727210596" lon="12.308593609337947"><ele>130.0</ele><time>2026-04-25T09:43:14Z</time></trkpt><trkpt lat="45.920270513247125" lon="12.308577764639566"><ele>130.0</ele><time>2026-04-25T09:43:17Z</time></trkpt><trkpt lat="45.920339131095794" lon="12.308561752695681"><ele>131.2857142857143</ele><time>2026-04-25T09:43:19Z</time></trkpt><trkpt lat="45.920406775669456" lon="12.30854481363638"><ele>132.57142857142858</ele><time>2026-04-25T09:43:21Z</time></trkpt><trkpt lat="45.9204794770943" lon="12.308529123888514"><ele>133.85714285714286</ele><time>2026-04-25T09:43:23Z</time></trkpt><trkpt lat="45.920543302492" lon="12.308519427190424"><ele>135.14285714285717</ele><time>2026-04-25T09:43:25Z</time></trkpt><trkpt lat="45.920602611226236" lon="12.308487585365308"><ele>136.42857142857144</ele><time>2026-04-25T09:43:27Z</time></trkpt><trkpt lat="45.92067494133389" lon="12.308469471185418"><ele>137.71428571428572</ele><time>2026-04-25T09:43:29Z</time></trkpt><trkpt lat="45.92074617703348" lon="12.308436750545726"><ele>139.0</ele><time>2026-04-25T09:43:31Z</time></trkpt><trkpt lat="45.92081332279248" lon="12.30839859773074"><ele>139.0</ele><time>2026-04-25T09:43:33Z</time></trkpt><trkpt lat="45.92087670599998" lon="12.30836231086486"><ele>139.0</ele><time>2026-04-25T09:43:35Z</time></trkpt><trkpt lat="45.92094663762578" lon="12.308317743743773"><ele>139.0</ele><time>2026-04-25T09:43:37Z</time></trkpt><trkpt lat="45.921022450399306" lon="12.308268764618397"><ele>139.0</ele><time>2026-04-25T09:43:39Z</time></trkpt><trkpt lat="45.92110509583757" lon="12.30821917495902"><ele>139.0</ele><time>2026-04-25T09:43:41Z</time></trkpt><trkpt lat="45.92118445720578" lon="12.308165571866583"><ele>139.0</ele><time>2026-04-25T09:43:43Z</time></trkpt><trkpt lat="45.92127810236606" lon="12.308110986789824"><ele>140.0</ele><time>2026-04-25T09:43:45Z</time></trkpt><trkpt lat="45.92134694926097" lon="12.30805300957462"><ele>141.0</ele><time>2026-04-25T09:43:47Z</time></trkpt><trkpt lat="45.92143266095618" lon="12.30799680935183"><ele>142.0</ele><time>2026-04-25T09:43:49Z</time></trkpt><trkpt lat="45.92151981700666" lon="12.307942595601835"><ele>143.0</ele><time>2026-04-25T09:43:51Z</time></trkpt><trkpt lat="45.92160764419775" lon="12.307893276293122"><ele>144.0</ele><time>2026-04-25T09:43:53Z</time></trkpt><trkpt lat="45.92168443844569" lon="12.307822482670202"><ele>143.0</ele><time>2026-04-25T09:43:55Z</time></trkpt><trkpt lat="45.92177209078856" lon="12.307763782706317"><ele>142.0</ele><time>2026-04-25T09:43:57Z</time></trkpt><trkpt lat="45.921851966837785" lon="12.307680645377467"><ele>141.0</ele><time>2026-04-25T09:43:59Z</time></trkpt><trkpt lat="45.9219304724104" lon="12.307597877834588"><ele>140.0</ele><time>2026-04-25T09:44:01Z</time></trkpt><trkpt lat="45.92201461839577" lon="12.307517871530033"><ele>139.0</ele><time>2026-04-25T09:44:03Z</time></trkpt><trkpt lat="45.922097606209064" lon="12.307436213092956"><ele>139.0</ele><time>2026-04-25T09:44:05Z</time></trkpt><trkpt lat="45.922187065339116" lon="12.307348456094696"><ele>139.0</ele><time>2026-04-25T09:44:07Z</time></trkpt><trkpt lat="45.92227535782454" lon="12.307247172734913"><ele>139.0</ele><time>2026-04-25T09:44:09Z</time></trkpt><trkpt lat="45.92237088664995" lon="12.307130206276906"><ele>139.0</ele><time>2026-04-25T09:44:11Z</time></trkpt><trkpt lat="45.92246259485122" lon="12.30701072645924"><ele>139.16666666666669</ele><time>2026-04-25T09:44:13Z</time></trkpt><trkpt lat="45.92256564102831" lon="12.306898541299658"><ele>139.33333333333334</ele><time>2026-04-25T09:44:14.999Z</time></trkpt><trkpt lat="45.92261933614037" lon="12.306829791406557"><ele>139.5</ele><time>2026-04-25T09:44:15.999Z</time></trkpt><trkpt lat="45.922672973792736" lon="12.306765658674555"><ele>139.66666666666666</ele><time>2026-04-25T09:44:16.999Z</time></trkpt><trkpt lat="45.92272875707546" lon="12.306702131830686"><ele>139.83333333333331</ele><time>2026-04-25T09:44:17.999Z</time></trkpt><trkpt lat="45.92278003162013" lon="12.306639790188743"><ele>140.0</ele><time>2026-04-25T09:44:18.999Z</time></trkpt><trkpt lat="45.92283265162827" lon="12.306571462375873"><ele>140.0</ele><time>2026-04-25T09:44:19.999Z</time></trkpt><trkpt lat="45.92288813381784" lon="12.306506575610792"><ele>140.0</ele><time>2026-04-25T09:44:20.999Z</time></trkpt><trkpt lat="45.922945120810205" lon="12.306439442123466"><ele>140.0</ele><time>2026-04-25T09:44:21.999Z</time></trkpt><trkpt lat="45.92300045929339" lon="12.306368712038987"><ele>140.0</ele><time>2026-04-25T09:44:22.999Z</time></trkpt><trkpt lat="45.923056370866" lon="12.30629776476308"><ele>140.0</ele><time>2026-04-25T09:44:23.999Z</time></trkpt><trkpt lat="45.92311673475925" lon="12.306224459714949"><ele>140.0</ele><time>2026-04-25T09:44:24.999Z</time></trkpt><trkpt lat="45.923216555720586" lon="12.306102976707589"><ele>140.16666666666666</ele><time>2026-04-25T09:44:26.999Z</time></trkpt><trkpt lat="45.92327089549036" lon="12.30603472753806"><ele>140.33333333333331</ele><time>2026-04-25T09:44:27.999Z</time></trkpt><trkpt lat="45.92336891013233" lon="12.305915131003248"><ele>140.5</ele><time>2026-04-25T09:44:29.999Z</time></trkpt><trkpt lat="45.92345081846224" lon="12.305801492366301"><ele>140.66666666666666</ele><time>2026-04-25T09:44:31.999Z</time></trkpt><trkpt lat="45.923500850327756" lon="12.305740049548518"><ele>140.83333333333334</ele><time>2026-04-25T09:44:32.999Z</time></trkpt><trkpt lat="45.92355432808279" lon="12.305691693624642"><ele>141.0</ele><time>2026-04-25T09:44:33.999Z</time></trkpt><trkpt lat="45.923644984119555" lon="12.305578293787779"><ele>141.33333333333334</ele><time>2026-04-25T09:44:35.999Z</time></trkpt><trkpt lat="45.92372944738078" lon="12.305463409563492"><ele>141.66666666666666</ele><time>2026-04-25T09:44:37.999Z</time></trkpt><trkpt lat="45.92378540552945" lon="12.305395472248213"><ele>142.0</ele><time>2026-04-25T09:44:41.999Z</time></trkpt><trkpt lat="45.923847639410404" lon="12.305321303758689"><ele>142.33333333333331</ele><time>2026-04-25T09:44:44.999Z</time></trkpt><trkpt lat="45.923902911455386" lon="12.305258364322007"><ele>142.66666666666666</ele><time>2026-04-25T09:44:46.999Z</time></trkpt><trkpt lat="45.92396159885877" lon="12.305142895520293"><ele>143.0</ele><time>2026-04-25T09:44:47.999Z</time></trkpt><trkpt lat="45.9240224307889" lon="12.305069095306406"><ele>142.99999999999997</ele><time>2026-04-25T09:44:48.999Z</time></trkpt><trkpt lat="45.924080626927775" lon="12.30498975227658"><ele>143.0</ele><time>2026-04-25T09:44:49.999Z</time></trkpt><trkpt lat="45.92414827637524" lon="12.304936572820901"><ele>143.0</ele><time>2026-04-25T09:44:50.999Z</time></trkpt><trkpt lat="45.924211687669015" lon="12.30490532061132"><ele>143.0</ele><time>2026-04-25T09:44:51.999Z</time></trkpt><trkpt lat="45.92427596210855" lon="12.304878861319832"><ele>143.0</ele><time>2026-04-25T09:44:52.999Z</time></trkpt><trkpt lat="45.92435345906176" lon="12.304848982350512"><ele>142.99999999999997</ele><time>2026-04-25T09:44:56.999Z</time></trkpt><trkpt lat="45.92441656188189" lon="12.30482784920915"><ele>143.0</ele><time>2026-04-25T09:44:57.999Z</time></trkpt><trkpt lat="45.92451045008332" lon="12.3047715950694"><ele>143.8</ele><time>2026-04-25T09:44:58.999Z</time></trkpt><trkpt lat="45.924585206388706" lon="12.30472048466993"><ele>144.60000000000002</ele><time>2026-04-25T09:44:59.999Z</time></trkpt><trkpt lat="45.924646036264356" lon="12.304671269927368"><ele>145.39999999999998</ele><time>2026-04-25T09:45:00.999Z</time></trkpt><trkpt lat="45.924745602804" lon="12.304564975798586"><ele>146.2</ele><time>2026-04-25T09:45:02.999Z</time></trkpt><trkpt lat="45.924803355389415" lon="12.304510538067195"><ele>147.0</ele><time>2026-04-25T09:45:03.999Z</time></trkpt><trkpt lat="45.92490749352154" lon="12.304412000622076"><ele>147.0</ele><time>2026-04-25T09:45:05.999Z</time></trkpt><trkpt lat="45.92496510657199" lon="12.30435401834994"><ele>147.0</ele><time>2026-04-25T09:45:06.999Z</time></trkpt><trkpt lat="45.92501980832453" lon="12.304301788053666"><ele>147.0</ele><time>2026-04-25T09:45:07.999Z</time></trkpt><trkpt lat="45.9250829067068" lon="12.304250537772722"><ele>147.0</ele><time>2026-04-25T09:45:08.999Z</time></trkpt><trkpt lat="45.92515145214949" lon="12.304200239017407"><ele>147.0</ele><time>2026-04-25T09:45:09.999Z</time></trkpt><trkpt lat="45.925224114445115" lon="12.304154414436416"><ele>147.0</ele><time>2026-04-25T09:45:10.999Z</time></trkpt><trkpt lat="45.92529600595089" lon="12.304117590849227"><ele>147.0</ele><time>2026-04-25T09:45:11.999Z</time></trkpt><trkpt lat="45.92537195265292" lon="12.30406622556484"><ele>147.0</ele><time>2026-04-25T09:45:12.999Z</time></trkpt><trkpt lat="45.925456996063936" lon="12.30400719579833"><ele>147.0</ele><time>2026-04-25T09:45:13.999Z</time></trkpt><trkpt lat="45.925544315364384" lon="12.303949989941854"><ele>147.0</ele><time>2026-04-25T09:45:14.999Z</time></trkpt><trkpt lat="45.925638746436086" lon="12.30390101748923"><ele>147.0</ele><time>2026-04-25T09:45:15.999Z</time></trkpt><trkpt lat="45.925730479529946" lon="12.303865326472808"><ele>147.0</ele><time>2026-04-25T09:45:16.999Z</time></trkpt><trkpt lat="45.92583572512446" lon="12.303858142741461"><ele>145.25</ele><time>2026-04-25T09:45:17.999Z</time></trkpt><trkpt lat="45.92595069695754" lon="12.30388736577937"><ele>143.5</ele><time>2026-04-25T09:45:18.999Z</time></trkpt><trkpt lat="45.92605745015984" lon="12.303930483374758"><ele>141.75</ele><time>2026-04-25T09:45:19.999Z</time></trkpt><trkpt lat="45.926173979839376" lon="12.303996527507719"><ele>140.0</ele><time>2026-04-25T09:45:20.999Z</time></trkpt><trkpt lat="45.92628747124699" lon="12.304074366807928"><ele>138.25</ele><time>2026-04-25T09:45:21.999Z</time></trkpt><trkpt lat="45.926405717223005" lon="12.304146268932994"><ele>136.5</ele><time>2026-04-25T09:45:22.999Z</time></trkpt><trkpt lat="45.92652387632082" lon="12.304203433976607"><ele>134.75</ele><time>2026-04-25T09:45:23.999Z</time></trkpt><trkpt lat="45.92665425920165" lon="12.304244438165751"><ele>133.0</ele><time>2026-04-25T09:45:24.999Z</time></trkpt><trkpt lat="45.92678386088736" lon="12.304282264758516"><ele>131.5</ele><time>2026-04-25T09:45:25.999Z</time></trkpt><trkpt lat="45.926905971136996" lon="12.304313482881856"><ele>130.0</ele><time>2026-04-25T09:45:26.999Z</time></trkpt><trkpt lat="45.92702913461537" lon="12.30434878145203"><ele>128.5</ele><time>2026-04-25T09:45:27.999Z</time></trkpt><trkpt lat="45.92715339187525" lon="12.304394249213933"><ele>127.0</ele><time>2026-04-25T09:45:28.999Z</time></trkpt><trkpt lat="45.92725589651418" lon="12.304443673635948"><ele>127.0</ele><time>2026-04-25T09:45:29.999Z</time></trkpt><trkpt lat="45.927345144630415" lon="12.304502975675087"><ele>126.99999999999999</ele><time>2026-04-25T09:45:30.999Z</time></trkpt><trkpt lat="45.92743278189498" lon="12.304591222189082"><ele>126.99999999999999</ele><time>2026-04-25T09:45:31.999Z</time></trkpt><trkpt lat="45.927502835341855" lon="12.30471526506297"><ele>127.0</ele><time>2026-04-25T09:45:32.999Z</time></trkpt><trkpt lat="45.927562937132" lon="12.304851933833461"><ele>127.0</ele><time>2026-04-25T09:45:33.999Z</time></trkpt><trkpt lat="45.927615857288565" lon="12.30499654205425"><ele>126.0</ele><time>2026-04-25T09:45:34.999Z</time></trkpt><trkpt lat="45.927673927348245" lon="12.305152617766694"><ele>125.0</ele><time>2026-04-25T09:45:35.999Z</time></trkpt><trkpt lat="45.927754470667054" lon="12.30527637033886"><ele>124.0</ele><time>2026-04-25T09:45:36.999Z</time></trkpt><trkpt lat="45.92783522841823" lon="12.30538841401544"><ele>123.0</ele><time>2026-04-25T09:45:37.999Z</time></trkpt><trkpt lat="45.9279319662575" lon="12.305472957886668"><ele>123.0</ele><time>2026-04-25T09:45:38.999Z</time></trkpt><trkpt lat="45.92804160080582" lon="12.305533947910456"><ele>123.0</ele><time>2026-04-25T09:45:39.999Z</time></trkpt><trkpt lat="45.928153599180725" lon="12.30558836524328"><ele>123.0</ele><time>2026-04-25T09:45:40.999Z</time></trkpt><trkpt lat="45.92826652654017" lon="12.305652074572736"><ele>123.0</ele><time>2026-04-25T09:45:41.999Z</time></trkpt><trkpt lat="45.92837535081503" lon="12.305714930729547"><ele>119.75</ele><time>2026-04-25T09:45:42.999Z</time></trkpt><trkpt lat="45.92849321424764" lon="12.305785464224854"><ele>116.5</ele><time>2026-04-25T09:45:43.999Z</time></trkpt><trkpt lat="45.9286148678091" lon="12.305852025034495"><ele>113.25</ele><time>2026-04-25T09:45:44.999Z</time></trkpt><trkpt lat="45.9287250521134" lon="12.305927741269135"><ele>110.0</ele><time>2026-04-25T09:45:45.999Z</time></trkpt><trkpt lat="45.928822001565415" lon="12.306020059917817"><ele>110.0</ele><time>2026-04-25T09:45:46.999Z</time></trkpt><trkpt lat="45.92891159861175" lon="12.30611278881912"><ele>110.0</ele><time>2026-04-25T09:45:47.999Z</time></trkpt><trkpt lat="45.928987455310335" lon="12.30622657065051"><ele>110.0</ele><time>2026-04-25T09:45:48.999Z</time></trkpt><trkpt lat="45.92903970566287" lon="12.306387963037661"><ele>110.0</ele><time>2026-04-25T09:45:49.999Z</time></trkpt><trkpt lat="45.92908580924244" lon="12.306571546510488"><ele>109.25</ele><time>2026-04-25T09:45:50.999Z</time></trkpt><trkpt lat="45.929132546896795" lon="12.306751242549895"><ele>108.5</ele><time>2026-04-25T09:45:51.999Z</time></trkpt><trkpt lat="45.929170759177254" lon="12.306936398278108"><ele>107.75</ele><time>2026-04-25T09:45:52.999Z</time></trkpt><trkpt lat="45.929206060782306" lon="12.307118548388033"><ele>107.0</ele><time>2026-04-25T09:45:53.999Z</time></trkpt><trkpt lat="45.92924153799304" lon="12.30730034948289"><ele>104.0</ele><time>2026-04-25T09:45:54.999Z</time></trkpt><trkpt lat="45.92927888804878" lon="12.307494019186475"><ele>101.0</ele><time>2026-04-25T09:45:55.999Z</time></trkpt><trkpt lat="45.92932448428888" lon="12.307684672908596"><ele>98.0</ele><time>2026-04-25T09:45:56.999Z</time></trkpt><trkpt lat="45.92936843205857" lon="12.307860701366675"><ele>95.0</ele><time>2026-04-25T09:45:57.999Z</time></trkpt><trkpt lat="45.92939552400641" lon="12.307995452270736"><ele>95.0</ele><time>2026-04-25T09:45:58.999Z</time></trkpt><trkpt lat="45.92942358735238" lon="12.308113665017073"><ele>95.0</ele><time>2026-04-25T09:45:59.999Z</time></trkpt><trkpt lat="45.92944982593093" lon="12.308202088143972"><ele>95.0</ele><time>2026-04-25T09:46:00.999Z</time></trkpt><trkpt lat="45.92950391295043" lon="12.308305000498178"><ele>95.0</ele><time>2026-04-25T09:46:02.999Z</time></trkpt><trkpt lat="45.92960948664055" lon="12.308246747977828"><ele>95.0</ele><time>2026-04-25T09:46:04.999Z</time></trkpt><trkpt lat="45.92965409386592" lon="12.308165433304664"><ele>95.0</ele><time>2026-04-25T09:46:05.999Z</time></trkpt><trkpt lat="45.92968021523773" lon="12.308068796024221"><ele>95.0</ele><time>2026-04-25T09:46:06.999Z</time></trkpt><trkpt lat="45.92968717506003" lon="12.307945241882747"><ele>95.0</ele><time>2026-04-25T09:46:07.999Z</time></trkpt><trkpt lat="45.929700697416635" lon="12.307827698493009"><ele>95.0</ele><time>2026-04-25T09:46:08.999Z</time></trkpt><trkpt lat="45.92971781712385" lon="12.307726511757036"><ele>95.0</ele><time>2026-04-25T09:46:09.999Z</time></trkpt><trkpt lat="45.929743473663876" lon="12.307637119110591"><ele>95.0</ele><time>2026-04-25T09:46:10.999Z</time></trkpt><trkpt lat="45.9297744747472" lon="12.307539563915915"><ele>95.0</ele><time>2026-04-25T09:46:11.999Z</time></trkpt><trkpt lat="45.929792202989304" lon="12.307424744508884"><ele>95.0</ele><time>2026-04-25T09:46:12.999Z</time></trkpt><trkpt lat="45.92982220274445" lon="12.307327756591675"><ele>95.0</ele><time>2026-04-25T09:46:13.999Z</time></trkpt><trkpt lat="45.92987387412662" lon="12.307218630949349"><ele>95.0</ele><time>2026-04-25T09:46:14.999Z</time></trkpt><trkpt lat="45.92992022430725" lon="12.307127053082318"><ele>95.0</ele><time>2026-04-25T09:46:15.999Z</time></trkpt><trkpt lat="45.9299675848358" lon="12.307036930145589"><ele>95.0</ele><time>2026-04-25T09:46:16.999Z</time></trkpt><trkpt lat="45.93001246591991" lon="12.306949939235555"><ele>95.0</ele><time>2026-04-25T09:46:17.999Z</time></trkpt><trkpt lat="45.930050577436845" lon="12.30685327535589"><ele>95.0</ele><time>2026-04-25T09:46:18.999Z</time></trkpt><trkpt lat="45.930085553450006" lon="12.306760156425387"><ele>95.0</ele><time>2026-04-25T09:46:19.999Z</time></trkpt><trkpt lat="45.93011644826619" lon="12.306673773441736"><ele>95.0</ele><time>2026-04-25T09:46:20.999Z</time></trkpt><trkpt lat="45.93014902653782" lon="12.30657633225282"><ele>95.0</ele><time>2026-04-25T09:46:21.999Z</time></trkpt><trkpt lat="45.9301861267283" lon="12.30647187740484"><ele>95.0</ele><time>2026-04-25T09:46:22.999Z</time></trkpt><trkpt lat="45.930222996029435" lon="12.306392873663247"><ele>95.0</ele><time>2026-04-25T09:46:23.999Z</time></trkpt><trkpt lat="45.93026769061682" lon="12.306306131818577"><ele>95.0</ele><time>2026-04-25T09:46:24.999Z</time></trkpt><trkpt lat="45.930305204315985" lon="12.306230837977058"><ele>95.2</ele><time>2026-04-25T09:46:25.999Z</time></trkpt><trkpt lat="45.93038994514719" lon="12.306099789049885"><ele>95.4</ele><time>2026-04-25T09:46:27.999Z</time></trkpt><trkpt lat="45.93042068094206" lon="12.30601999777032"><ele>95.6</ele><time>2026-04-25T09:46:28.999Z</time></trkpt><trkpt lat="45.93045068315041" lon="12.305927710243655"><ele>95.8</ele><time>2026-04-25T09:46:29.999Z</time></trkpt><trkpt lat="45.93045940431077" lon="12.30574995652069"><ele>96.0</ele><time>2026-04-25T09:46:31.999Z</time></trkpt><trkpt lat="45.930448000727424" lon="12.305644459863661"><ele>96.4</ele><time>2026-04-25T09:46:32.999Z</time></trkpt><trkpt lat="45.930433928170004" lon="12.305487505299748"><ele>96.8</ele><time>2026-04-25T09:46:34.999Z</time></trkpt><trkpt lat="45.93043729257147" lon="12.305342762818814"><ele>97.2</ele><time>2026-04-25T09:46:36.999Z</time></trkpt><trkpt lat="45.93045402703339" lon="12.305248659823617"><ele>97.60000000000001</ele><time>2026-04-25T09:46:37.999Z</time></trkpt><trkpt lat="45.93047487405461" lon="12.30508561275932"><ele>98.0</ele><time>2026-04-25T09:46:39.999Z</time></trkpt><trkpt lat="45.93052522908499" lon="12.304941984945438"><ele>98.0</ele><time>2026-04-25T09:46:41.999Z</time></trkpt><trkpt lat="45.930595018897684" lon="12.304834853390066"><ele>98.0</ele><time>2026-04-25T09:46:43.999Z</time></trkpt><trkpt lat="45.93069673117468" lon="12.304773101264532"><ele>98.0</ele><time>2026-04-25T09:46:45.999Z</time></trkpt><trkpt lat="45.930830094365966" lon="12.3047774914538"><ele>98.0</ele><time>2026-04-25T09:46:48.999Z</time></trkpt><trkpt lat="45.93093148726634" lon="12.30473441418596"><ele>98.99999999999999</ele><time>2026-04-25T09:46:50.999Z</time></trkpt><trkpt lat="45.931011450467025" lon="12.304657895563135"><ele>100.0</ele><time>2026-04-25T09:46:52.999Z</time></trkpt><trkpt lat="45.93107252199138" lon="12.304567926944808"><ele>101.0</ele><time>2026-04-25T09:46:54.999Z</time></trkpt><trkpt lat="45.93113328261524" lon="12.304482279668132"><ele>102.0</ele><time>2026-04-25T09:46:56.999Z</time></trkpt><trkpt lat="45.93120599002665" lon="12.30439809924407"><ele>102.99999999999999</ele><time>2026-04-25T09:46:58.999Z</time></trkpt><trkpt lat="45.931277104315605" lon="12.304333052204916"><ele>104.0</ele><time>2026-04-25T09:47:00.999Z</time></trkpt><trkpt lat="45.93133774132703" lon="12.304268268074484"><ele>104.0</ele><time>2026-04-25T09:47:02.999Z</time></trkpt><trkpt lat="45.9313966712585" lon="12.304206101806175"><ele>104.0</ele><time>2026-04-25T09:47:04.999Z</time></trkpt><trkpt lat="45.931469900166825" lon="12.304141596374727"><ele>104.0</ele><time>2026-04-25T09:47:06.999Z</time></trkpt><trkpt lat="45.93153687820048" lon="12.304099787312152"><ele>104.0</ele><time>2026-04-25T09:47:09Z</time></trkpt><trkpt lat="45.931597745103126" lon="12.304074351704676"><ele>104.0</ele><time>2026-04-25T09:47:11Z</time></trkpt><trkpt lat="45.931648948045044" lon="12.304013003032047"><ele>104.0</ele><time>2026-04-25T09:47:13Z</time></trkpt><trkpt lat="45.931702506948824" lon="12.303957792515567"><ele>104.0</ele><time>2026-04-25T09:47:15Z</time></trkpt><trkpt lat="45.93179346059317" lon="12.30392801158498"><ele>104.66666666666666</ele><time>2026-04-25T09:47:18Z</time></trkpt><trkpt lat="45.9318734390143" lon="12.303863545364202"><ele>105.33333333333333</ele><time>2026-04-25T09:47:20Z</time></trkpt><trkpt lat="45.93194042412182" lon="12.303802951189098"><ele>106.0</ele><time>2026-04-25T09:47:22Z</time></trkpt><trkpt lat="45.93200634292159" lon="12.303740239870592"><ele>106.66666666666666</ele><time>2026-04-25T09:47:24Z</time></trkpt><trkpt lat="45.932074094162225" lon="12.303689500160152"><ele>107.33333333333333</ele><time>2026-04-25T09:47:26Z</time></trkpt><trkpt lat="45.93213720627613" lon="12.30363636929533"><ele>108.0</ele><time>2026-04-25T09:47:28Z</time></trkpt><trkpt lat="45.932197640914325" lon="12.30357790937718"><ele>108.0</ele><time>2026-04-25T09:47:30Z</time></trkpt><trkpt lat="45.93225553898667" lon="12.303516673718406"><ele>108.0</ele><time>2026-04-25T09:47:32Z</time></trkpt><trkpt lat="45.932324868025425" lon="12.303461559093526"><ele>108.0</ele><time>2026-04-25T09:47:34Z</time></trkpt><trkpt lat="45.932389936428976" lon="12.303398225710945"><ele>108.0</ele><time>2026-04-25T09:47:36Z</time></trkpt><trkpt lat="45.932458515917766" lon="12.303339737082421"><ele>108.0</ele><time>2026-04-25T09:47:38Z</time></trkpt><trkpt lat="45.93252868570255" lon="12.303282361716837"><ele>108.0</ele><time>2026-04-25T09:47:40Z</time></trkpt><trkpt lat="45.9326102915119" lon="12.303205186136768"><ele>108.0</ele><time>2026-04-25T09:47:42Z</time></trkpt><trkpt lat="45.932681194795315" lon="12.303143542429082"><ele>108.0</ele><time>2026-04-25T09:47:44Z</time></trkpt><trkpt lat="45.932762393356796" lon="12.303068752772809"><ele>108.0</ele><time>2026-04-25T09:47:46Z</time></trkpt><trkpt lat="45.932822580633896" lon="12.302981589384746"><ele>108.0</ele><time>2026-04-25T09:47:48Z</time></trkpt><trkpt lat="45.932863232187735" lon="12.30287190206606"><ele>108.0</ele><time>2026-04-25T09:47:50Z</time></trkpt><trkpt lat="45.93292676600068" lon="12.30278299454888"><ele>108.0</ele><time>2026-04-25T09:47:52Z</time></trkpt><trkpt lat="45.93296067640599" lon="12.302700093975593"><ele>109.0</ele><time>2026-04-25T09:47:53.999Z</time></trkpt><trkpt lat="45.93300944021128" lon="12.302620267518664"><ele>110.0</ele><time>2026-04-25T09:47:55.999Z</time></trkpt><trkpt lat="45.93305930985125" lon="12.302538569873606"><ele>111.0</ele><time>2026-04-25T09:47:57.999Z</time></trkpt><trkpt lat="45.93310916084076" lon="12.302439061681156"><ele>112.0</ele><time>2026-04-25T09:47:59.999Z</time></trkpt><trkpt lat="45.93314678351272" lon="12.302360355956674"><ele>113.0</ele><time>2026-04-25T09:48:01.999Z</time></trkpt><trkpt lat="45.93319559760749" lon="12.302278515873699"><ele>114.0</ele><time>2026-04-25T09:48:03.999Z</time></trkpt><trkpt lat="45.933252914380944" lon="12.302209475545009"><ele>114.66666666666667</ele><time>2026-04-25T09:48:05.999Z</time></trkpt><trkpt lat="45.93331476265666" lon="12.302137622316714"><ele>115.33333333333334</ele><time>2026-04-25T09:48:07.999Z</time></trkpt><trkpt lat="45.93336889649923" lon="12.302048952000986"><ele>116.0</ele><time>2026-04-25T09:48:09.999Z</time></trkpt><trkpt lat="45.933429595699565" lon="12.30195029229454"><ele>116.66666666666667</ele><time>2026-04-25T09:48:11.999Z</time></trkpt><trkpt lat="45.93349534800974" lon="12.301880587407087"><ele>117.33333333333334</ele><time>2026-04-25T09:48:13.999Z</time></trkpt><trkpt lat="45.93355968888589" lon="12.301820262585325"><ele>118.0</ele><time>2026-04-25T09:48:15.999Z</time></trkpt><trkpt lat="45.93362985377208" lon="12.301779266995045"><ele>118.50000000000001</ele><time>2026-04-25T09:48:17.999Z</time></trkpt><trkpt lat="45.93370855884392" lon="12.301713683823056"><ele>119.0</ele><time>2026-04-25T09:48:19.999Z</time></trkpt><trkpt lat="45.93377834894969" lon="12.301656429409926"><ele>119.5</ele><time>2026-04-25T09:48:21.999Z</time></trkpt><trkpt lat="45.933833887438375" lon="12.301598933711706"><ele>120.0</ele><time>2026-04-25T09:48:23.999Z</time></trkpt><trkpt lat="45.93387695555643" lon="12.301506713533946"><ele>120.50000000000001</ele><time>2026-04-25T09:48:25.999Z</time></trkpt><trkpt lat="45.93392908834399" lon="12.301429317340164"><ele>121.0</ele><time>2026-04-25T09:48:27.999Z</time></trkpt><trkpt lat="45.933989024176775" lon="12.30134082721259"><ele>121.00000000000001</ele><time>2026-04-25T09:48:29.999Z</time></trkpt><trkpt lat="45.93404301802765" lon="12.301239192613547"><ele>121.0</ele><time>2026-04-25T09:48:31.999Z</time></trkpt><trkpt lat="45.934101453137245" lon="12.301180836516481"><ele>121.0</ele><time>2026-04-25T09:48:33.999Z</time></trkpt><trkpt lat="45.934169025331734" lon="12.301105303630324"><ele>121.0</ele><time>2026-04-25T09:48:35.999Z</time></trkpt><trkpt lat="45.934223186017064" lon="12.301031753081425"><ele>121.00000000000001</ele><time>2026-04-25T09:48:37.999Z</time></trkpt><trkpt lat="45.93428376380211" lon="12.300961362192368"><ele>121.0</ele><time>2026-04-25T09:48:39.999Z</time></trkpt><trkpt lat="45.93433816793519" lon="12.300861670374516"><ele>121.0</ele><time>2026-04-25T09:48:41.999Z</time></trkpt><trkpt lat="45.93439664775128" lon="12.300772810854538"><ele>121.0</ele><time>2026-04-25T09:48:43.999Z</time></trkpt><trkpt lat="45.93445262232092" lon="12.300700072800167"><ele>121.0</ele><time>2026-04-25T09:48:45.999Z</time></trkpt><trkpt lat="45.93451493357753" lon="12.300596574613218"><ele>121.0</ele><time>2026-04-25T09:48:47.999Z</time></trkpt><trkpt lat="45.93459072955271" lon="12.300510333104096"><ele>121.0</ele><time>2026-04-25T09:48:49.999Z</time></trkpt><trkpt lat="45.93466368881372" lon="12.300402698359974"><ele>122.19999999999999</ele><time>2026-04-25T09:48:51.999Z</time></trkpt><trkpt lat="45.934731259780975" lon="12.300311141213035"><ele>123.39999999999999</ele><time>2026-04-25T09:48:53.999Z</time></trkpt><trkpt lat="45.934807344054946" lon="12.300226552168832"><ele>124.6</ele><time>2026-04-25T09:48:55.999Z</time></trkpt><trkpt lat="45.93488263434751" lon="12.300124849830153"><ele>125.8</ele><time>2026-04-25T09:48:57.999Z</time></trkpt><trkpt lat="45.934963245448195" lon="12.300004908488045"><ele>127.0</ele><time>2026-04-25T09:48:59.999Z</time></trkpt><trkpt lat="45.93504754120667" lon="12.299898477461646"><ele>127.19999999999999</ele><time>2026-04-25T09:49:01.999Z</time></trkpt><trkpt lat="45.935128092428535" lon="12.29979232625811"><ele>127.39999999999999</ele><time>2026-04-25T09:49:03.999Z</time></trkpt><trkpt lat="45.93520650323365" lon="12.299705283970905"><ele>127.60000000000001</ele><time>2026-04-25T09:49:05.999Z</time></trkpt><trkpt lat="45.93530001480102" lon="12.299624622348675"><ele>127.80000000000001</ele><time>2026-04-25T09:49:07.999Z</time></trkpt><trkpt lat="45.9353907025911" lon="12.299527293637224"><ele>128.0</ele><time>2026-04-25T09:49:09.999Z</time></trkpt><trkpt lat="45.93546251457197" lon="12.299395549270262"><ele>128.0</ele><time>2026-04-25T09:49:11.999Z</time></trkpt><trkpt lat="45.93552229347029" lon="12.299269662680137"><ele>128.0</ele><time>2026-04-25T09:49:14Z</time></trkpt><trkpt lat="45.93557658660709" lon="12.299179683496751"><ele>128.0</ele><time>2026-04-25T09:49:16Z</time></trkpt><trkpt lat="45.93564013619001" lon="12.299120728031715"><ele>128.0</ele><time>2026-04-25T09:49:18Z</time></trkpt><trkpt lat="45.935714277405545" lon="12.299041509450094"><ele>128.0</ele><time>2026-04-25T09:49:20Z</time></trkpt><trkpt lat="45.9357870876926" lon="12.29893965150867"><ele>128.8</ele><time>2026-04-25T09:49:22Z</time></trkpt><trkpt lat="45.93584596406921" lon="12.29881253178167"><ele>129.60000000000002</ele><time>2026-04-25T09:49:24Z</time></trkpt><trkpt lat="45.93581373408737" lon="12.298673221846105"><ele>130.39999999999998</ele><time>2026-04-25T09:49:26Z</time></trkpt><trkpt lat="45.935759141457346" lon="12.298587610936123"><ele>131.2</ele><time>2026-04-25T09:49:28Z</time></trkpt><trkpt lat="45.93574172589806" lon="12.298499843137341"><ele>132.0</ele><time>2026-04-25T09:49:29Z</time></trkpt><trkpt lat="45.93568837957606" lon="12.29834591612193"><ele>132.0</ele><time>2026-04-25T09:49:31Z</time></trkpt><trkpt lat="45.935659854091746" lon="12.298262019851206"><ele>132.0</ele><time>2026-04-25T09:49:32Z</time></trkpt><trkpt lat="45.93560672584285" lon="12.298101203434406"><ele>132.0</ele><time>2026-04-25T09:49:34Z</time></trkpt><trkpt lat="45.93557457915995" lon="12.298012362136568"><ele>132.0</ele><time>2026-04-25T09:49:35Z</time></trkpt><trkpt lat="45.93554134090642" lon="12.297931715078517"><ele>132.0</ele><time>2026-04-25T09:49:36Z</time></trkpt><trkpt lat="45.93546491795401" lon="12.297815044441197"><ele>132.0</ele><time>2026-04-25T09:49:38Z</time></trkpt><trkpt lat="45.9353872544276" lon="12.29771763409816"><ele>132.16666666666666</ele><time>2026-04-25T09:49:40Z</time></trkpt><trkpt lat="45.93532120094052" lon="12.29765303406391"><ele>132.33333333333334</ele><time>2026-04-25T09:49:42Z</time></trkpt><trkpt lat="45.93527055484214" lon="12.297571580287174"><ele>132.5</ele><time>2026-04-25T09:49:44Z</time></trkpt><trkpt lat="45.93523364290481" lon="12.297496097513315"><ele>132.66666666666669</ele><time>2026-04-25T09:49:46Z</time></trkpt><trkpt lat="45.935192532786765" lon="12.297377248309854"><ele>132.83333333333334</ele><time>2026-04-25T09:49:49Z</time></trkpt><trkpt lat="45.93514859617305" lon="12.297279988192766"><ele>133.0</ele><time>2026-04-25T09:49:52Z</time></trkpt><trkpt lat="45.93509882648683" lon="12.29718381551622"><ele>133.14285714285714</ele><time>2026-04-25T09:49:55Z</time></trkpt><trkpt lat="45.93507766091193" lon="12.297087966856928"><ele>133.28571428571428</ele><time>2026-04-25T09:49:57Z</time></trkpt><trkpt lat="45.935065149896076" lon="12.29695876378974"><ele>133.42857142857144</ele><time>2026-04-25T09:50:00Z</time></trkpt><trkpt lat="45.93506538503977" lon="12.296867367561413"><ele>133.57142857142856</ele><time>2026-04-25T09:50:03Z</time></trkpt><trkpt lat="45.93506509373425" lon="12.296769615671625"><ele>133.71428571428572</ele><time>2026-04-25T09:50:05Z</time></trkpt><trkpt lat="45.93506041305655" lon="12.296669406936417"><ele>133.85714285714286</ele><time>2026-04-25T09:50:08Z</time></trkpt><trkpt lat="45.935059300592094" lon="12.296561247151713"><ele>134.0</ele><time>2026-04-25T09:50:12Z</time></trkpt><trkpt lat="45.93503330841046" lon="12.296468964447246"><ele>135.71428571428572</ele><time>2026-04-25T09:50:15Z</time></trkpt><trkpt lat="45.93501204319467" lon="12.296377062156138"><ele>137.42857142857142</ele><time>2026-04-25T09:50:19Z</time></trkpt><trkpt lat="45.934992291564406" lon="12.296281952438747"><ele>139.14285714285714</ele><time>2026-04-25T09:50:22Z</time></trkpt><trkpt lat="45.93495645913821" lon="12.296204600955678"><ele>140.85714285714286</ele><time>2026-04-25T09:50:26Z</time></trkpt><trkpt lat="45.934910229126146" lon="12.2961289494568"><ele>142.57142857142858</ele><time>2026-04-25T09:50:30Z</time></trkpt><trkpt lat="45.934872190232895" lon="12.296052071567953"><ele>144.28571428571428</ele><time>2026-04-25T09:50:33Z</time></trkpt><trkpt lat="45.93481437025206" lon="12.295972147737"><ele>146.0</ele><time>2026-04-25T09:50:37Z</time></trkpt><trkpt lat="45.934762772473206" lon="12.295890285453067"><ele>146.0</ele><time>2026-04-25T09:50:41Z</time></trkpt><trkpt lat="45.93470022534765" lon="12.29585225432018"><ele>146.0</ele><time>2026-04-25T09:50:44Z</time></trkpt><trkpt lat="45.93463543012684" lon="12.295812576594395"><ele>146.0</ele><time>2026-04-25T09:50:47Z</time></trkpt><trkpt lat="45.93456417889603" lon="12.29574384038669"><ele>146.0</ele><time>2026-04-25T09:50:50.999Z</time></trkpt><trkpt lat="45.934484788756066" lon="12.295702446657836"><ele>146.0</ele><time>2026-04-25T09:50:54.999Z</time></trkpt><trkpt lat="45.9344185256336" lon="12.295657848783058"><ele>146.0</ele><time>2026-04-25T09:50:57.999Z</time></trkpt><trkpt lat="45.93435812584294" lon="12.295618837260632"><ele>146.0</ele><time>2026-04-25T09:51:00.999Z</time></trkpt><trkpt lat="45.93428899314673" lon="12.295559526126704"><ele>146.85714285714286</ele><time>2026-04-25T09:51:04.999Z</time></trkpt><trkpt lat="45.934238476912945" lon="12.29549988826553"><ele>147.71428571428572</ele><time>2026-04-25T09:51:07.999Z</time></trkpt><trkpt lat="45.93418259026318" lon="12.295442622345202"><ele>148.57142857142856</ele><time>2026-04-25T09:51:10.999Z</time></trkpt><trkpt lat="45.93412840834416" lon="12.2953921983154"><ele>149.42857142857144</ele><time>2026-04-25T09:51:13.999Z</time></trkpt><trkpt lat="45.93408333537398" lon="12.29532691684162"><ele>150.2857142857143</ele><time>2026-04-25T09:51:16.999Z</time></trkpt><trkpt lat="45.93402855956069" lon="12.295244676876784"><ele>151.14285714285714</ele><time>2026-04-25T09:51:21Z</time></trkpt><trkpt lat="45.9339571989105" lon="12.295246092094366"><ele>152.0</ele><time>2026-04-25T09:51:24Z</time></trkpt><trkpt lat="45.933893411617916" lon="12.295294701133644"><ele>153.0</ele><time>2026-04-25T09:51:27Z</time></trkpt><trkpt lat="45.933823884022615" lon="12.295315727139393"><ele>154.0</ele><time>2026-04-25T09:51:30Z</time></trkpt><trkpt lat="45.93370237128564" lon="12.295313858485605"><ele>155.0</ele><time>2026-04-25T09:51:32Z</time></trkpt><trkpt lat="45.93361765391398" lon="12.295310374735903"><ele>156.0</ele><time>2026-04-25T09:51:33Z</time></trkpt><trkpt lat="45.93353609663963" lon="12.29531438543597"><ele>157.0</ele><time>2026-04-25T09:51:34Z</time></trkpt><trkpt lat="45.933452677926695" lon="12.295316600060819"><ele>158.0</ele><time>2026-04-25T09:51:35Z</time></trkpt><trkpt lat="45.93336993445208" lon="12.295306080998941"><ele>158.0</ele><time>2026-04-25T09:51:36Z</time></trkpt><trkpt lat="45.933281475702756" lon="12.295304710368217"><ele>158.0</ele><time>2026-04-25T09:51:37Z</time></trkpt><trkpt lat="45.93319878356395" lon="12.295298119263066"><ele>158.0</ele><time>2026-04-25T09:51:38Z</time></trkpt><trkpt lat="45.9331107455654" lon="12.295292669928193"><ele>158.0</ele><time>2026-04-25T09:51:39Z</time></trkpt><trkpt lat="45.933017650462695" lon="12.295297081389126"><ele>158.0</ele><time>2026-04-25T09:51:40Z</time></trkpt><trkpt lat="45.93293208730825" lon="12.295301830119728"><ele>158.0</ele><time>2026-04-25T09:51:41Z</time></trkpt><trkpt lat="45.932841915701516" lon="12.295319936436009"><ele>158.0</ele><time>2026-04-25T09:51:42Z</time></trkpt><trkpt lat="45.932748715004415" lon="12.295317794511194"><ele>158.0</ele><time>2026-04-25T09:51:43Z</time></trkpt><trkpt lat="45.93266693228594" lon="12.295271216254896"><ele>158.0</ele><time>2026-04-25T09:51:44Z</time></trkpt><trkpt lat="45.932584500611696" lon="12.295218144023988"><ele>158.0</ele><time>2026-04-25T09:51:45Z</time></trkpt><trkpt lat="45.932506009581026" lon="12.295132946440464"><ele>158.0</ele><time>2026-04-25T09:51:46Z</time></trkpt><trkpt lat="45.93241136064637" lon="12.295089046505854"><ele>157.20000000000002</ele><time>2026-04-25T09:51:47Z</time></trkpt><trkpt lat="45.932319151375424" lon="12.295036912613309"><ele>156.4</ele><time>2026-04-25T09:51:48Z</time></trkpt><trkpt lat="45.932207113342585" lon="12.295012150401385"><ele>155.60000000000002</ele><time>2026-04-25T09:51:49Z</time></trkpt><trkpt lat="45.93209058060858" lon="12.295021544480184"><ele>154.8</ele><time>2026-04-25T09:51:50Z</time></trkpt><trkpt lat="45.931977731608086" lon="12.295044030234603"><ele>154.0</ele><time>2026-04-25T09:51:51Z</time></trkpt><trkpt lat="45.93186165868057" lon="12.29505274471495"><ele>154.0</ele><time>2026-04-25T09:51:52Z</time></trkpt><trkpt lat="45.93175023837212" lon="12.295042205298785"><ele>154.0</ele><time>2026-04-25T09:51:53Z</time></trkpt><trkpt lat="45.93164018346074" lon="12.295031072677089"><ele>154.0</ele><time>2026-04-25T09:51:54Z</time></trkpt><trkpt lat="45.93153112058022" lon="12.295046776248052"><ele>154.0</ele><time>2026-04-25T09:51:55Z</time></trkpt><trkpt lat="45.93142104423597" lon="12.295060558864288"><ele>154.0</ele><time>2026-04-25T09:51:56Z</time></trkpt><trkpt lat="45.931320978805886" lon="12.29503874596484"><ele>153.2</ele><time>2026-04-25T09:51:57Z</time></trkpt><trkpt lat="45.93121553407331" lon="12.2950689064138"><ele>152.4</ele><time>2026-04-25T09:51:58Z</time></trkpt><trkpt lat="45.931120643709846" lon="12.295092350797505"><ele>151.6</ele><time>2026-04-25T09:51:59Z</time></trkpt><trkpt lat="45.93102618715398" lon="12.295108891754213"><ele>150.8</ele><time>2026-04-25T09:52:00Z</time></trkpt><trkpt lat="45.93094773816039" lon="12.295122284156312"><ele>150.0</ele><time>2026-04-25T09:52:01Z</time></trkpt><trkpt lat="45.93086966344139" lon="12.295117058626657"><ele>149.83333333333334</ele><time>2026-04-25T09:52:02Z</time></trkpt><trkpt lat="45.93080692760854" lon="12.295102991945058"><ele>149.66666666666666</ele><time>2026-04-25T09:52:03Z</time></trkpt><trkpt lat="45.93074151592175" lon="12.295092196350616"><ele>149.5</ele><time>2026-04-25T09:52:04Z</time></trkpt><trkpt lat="45.93066483197167" lon="12.295089601273284"><ele>149.33333333333331</ele><time>2026-04-25T09:52:05Z</time></trkpt><trkpt lat="45.93058180702674" lon="12.295079162029154"><ele>149.16666666666666</ele><time>2026-04-25T09:52:06Z</time></trkpt><trkpt lat="45.930497578140105" lon="12.295073868709002"><ele>149.0</ele><time>2026-04-25T09:52:07Z</time></trkpt><trkpt lat="45.93041732321697" lon="12.295082286081314"><ele>149.0</ele><time>2026-04-25T09:52:08Z</time></trkpt><trkpt lat="45.93031595662341" lon="12.295106085295044"><ele>149.0</ele><time>2026-04-25T09:52:09Z</time></trkpt><trkpt lat="45.93023570250971" lon="12.29515299546364"><ele>149.0</ele><time>2026-04-25T09:52:10Z</time></trkpt><trkpt lat="45.930161427398886" lon="12.295203757408764"><ele>149.0</ele><time>2026-04-25T09:52:11Z</time></trkpt><trkpt lat="45.930080403468274" lon="12.295267707723934"><ele>149.0</ele><time>2026-04-25T09:52:12Z</time></trkpt><trkpt lat="45.929993272349044" lon="12.295317600812908"><ele>148.6</ele><time>2026-04-25T09:52:13Z</time></trkpt><trkpt lat="45.92990531390706" lon="12.295359302747794"><ele>148.2</ele><time>2026-04-25T09:52:14Z</time></trkpt><trkpt lat="45.9298194741436" lon="12.295417997843224"><ele>147.79999999999998</ele><time>2026-04-25T09:52:15Z</time></trkpt><trkpt lat="45.929731925772046" lon="12.295461459893897"><ele>147.4</ele><time>2026-04-25T09:52:16Z</time></trkpt><trkpt lat="45.92964650677229" lon="12.295468875697301"><ele>147.0</ele><time>2026-04-25T09:52:17Z</time></trkpt><trkpt lat="45.92955058787956" lon="12.295435826789852"><ele>147.0</ele><time>2026-04-25T09:52:18Z</time></trkpt><trkpt lat="45.92946761246933" lon="12.295329682185926"><ele>147.0</ele><time>2026-04-25T09:52:19Z</time></trkpt><trkpt lat="45.929405697983825" lon="12.295191004832756"><ele>147.0</ele><time>2026-04-25T09:52:20Z</time></trkpt><trkpt lat="45.92935215955286" lon="12.295082577946035"><ele>147.0</ele><time>2026-04-25T09:52:21Z</time></trkpt><trkpt lat="45.92929088183031" lon="12.294985915649237"><ele>147.0</ele><time>2026-04-25T09:52:22Z</time></trkpt><trkpt lat="45.92922879106973" lon="12.294895726854191"><ele>145.79999999999998</ele><time>2026-04-25T09:52:23Z</time></trkpt><trkpt lat="45.92916234068445" lon="12.294803961891052"><ele>144.6</ele><time>2026-04-25T09:52:24Z</time></trkpt><trkpt lat="45.92908425673635" lon="12.294707723934808"><ele>143.39999999999998</ele><time>2026-04-25T09:52:25Z</time></trkpt><trkpt lat="45.928995861827815" lon="12.29464661338629"><ele>142.2</ele><time>2026-04-25T09:52:26Z</time></trkpt><trkpt lat="45.92888948683069" lon="12.294602112763632"><ele>141.0</ele><time>2026-04-25T09:52:27Z</time></trkpt><trkpt lat="45.92877748653845" lon="12.294562370017875"><ele>139.0</ele><time>2026-04-25T09:52:28Z</time></trkpt><trkpt lat="45.92866254778408" lon="12.294532208019401"><ele>137.0</ele><time>2026-04-25T09:52:29Z</time></trkpt><trkpt lat="45.928536552739466" lon="12.294490911427891"><ele>135.0</ele><time>2026-04-25T09:52:30Z</time></trkpt><trkpt lat="45.92842415661594" lon="12.29444234945723"><ele>133.0</ele><time>2026-04-25T09:52:31Z</time></trkpt><trkpt lat="45.92831285650583" lon="12.294394318621915"><ele>132.0</ele><time>2026-04-25T09:52:32Z</time></trkpt><trkpt lat="45.92821655922142" lon="12.294303734086858"><ele>131.0</ele><time>2026-04-25T09:52:33Z</time></trkpt><trkpt lat="45.92813271215711" lon="12.294202259090035"><ele>130.0</ele><time>2026-04-25T09:52:34Z</time></trkpt><trkpt lat="45.928053616791544" lon="12.294054834639848"><ele>129.0</ele><time>2026-04-25T09:52:35Z</time></trkpt><trkpt lat="45.927989646451145" lon="12.293904959698555"><ele>127.0</ele><time>2026-04-25T09:52:36Z</time></trkpt><trkpt lat="45.92791827301328" lon="12.293757400612794"><ele>125.0</ele><time>2026-04-25T09:52:37Z</time></trkpt><trkpt lat="45.927819350210264" lon="12.293658896850806"><ele>123.0</ele><time>2026-04-25T09:52:38Z</time></trkpt><trkpt lat="45.92770239239386" lon="12.293579513012682"><ele>121.0</ele><time>2026-04-25T09:52:39Z</time></trkpt><trkpt lat="45.92758452699321" lon="12.293504648561688"><ele>121.5</ele><time>2026-04-25T09:52:40Z</time></trkpt><trkpt lat="45.92746382782499" lon="12.293443604076401"><ele>122.0</ele><time>2026-04-25T09:52:41Z</time></trkpt><trkpt lat="45.9273564549051" lon="12.293365316828101"><ele>122.5</ele><time>2026-04-25T09:52:42Z</time></trkpt><trkpt lat="45.9272399258128" lon="12.293273399873069"><ele>123.0</ele><time>2026-04-25T09:52:43Z</time></trkpt><trkpt lat="45.92712694079525" lon="12.293170170855023"><ele>120.25</ele><time>2026-04-25T09:52:44Z</time></trkpt><trkpt lat="45.92702350287322" lon="12.293059405742001"><ele>117.5</ele><time>2026-04-25T09:52:45Z</time></trkpt><trkpt lat="45.92691695653416" lon="12.292964784042043"><ele>114.75</ele><time>2026-04-25T09:52:46Z</time></trkpt><trkpt lat="45.92678709837958" lon="12.292898242942018"><ele>112.0</ele><time>2026-04-25T09:52:47Z</time></trkpt><trkpt lat="45.92666426743524" lon="12.292839954229935"><ele>111.5</ele><time>2026-04-25T09:52:48Z</time></trkpt><trkpt lat="45.926535441578935" lon="12.292783550837013"><ele>111.0</ele><time>2026-04-25T09:52:49Z</time></trkpt><trkpt lat="45.92640835481528" lon="12.292731042997758"><ele>110.5</ele><time>2026-04-25T09:52:50Z</time></trkpt><trkpt lat="45.92628274188659" lon="12.292685501887155"><ele>110.0</ele><time>2026-04-25T09:52:51Z</time></trkpt><trkpt lat="45.9261661758537" lon="12.292635028701373"><ele>110.0</ele><time>2026-04-25T09:52:52Z</time></trkpt><trkpt lat="45.9260690011728" lon="12.292544260354763"><ele>110.0</ele><time>2026-04-25T09:52:53Z</time></trkpt><trkpt lat="45.926002475897924" lon="12.292429887734574"><ele>110.0</ele><time>2026-04-25T09:52:54Z</time></trkpt><trkpt lat="45.92597369401599" lon="12.292338620513823"><ele>110.0</ele><time>2026-04-25T09:52:55Z</time></trkpt><trkpt lat="45.92590351877685" lon="12.292188898923417"><ele>110.0</ele><time>2026-04-25T09:52:57Z</time></trkpt><trkpt lat="45.92583133261491" lon="12.292098123745342"><ele>108.2</ele><time>2026-04-25T09:52:59Z</time></trkpt><trkpt lat="45.925933043681326" lon="12.292081549335348"><ele>106.4</ele><time>2026-04-25T09:53:03Z</time></trkpt><trkpt lat="45.92602134238625" lon="12.29214293859051"><ele>104.6</ele><time>2026-04-25T09:53:04.999Z</time></trkpt><trkpt lat="45.9260620529841" lon="12.291991561108206"><ele>102.8</ele><time>2026-04-25T09:53:06.999Z</time></trkpt><trkpt lat="45.92605215787256" lon="12.29188604184428"><ele>101.0</ele><time>2026-04-25T09:53:07.999Z</time></trkpt><trkpt lat="45.92604035877783" lon="12.29178236774378"><ele>101.0</ele><time>2026-04-25T09:53:08.999Z</time></trkpt><trkpt lat="45.9260201646813" lon="12.291653969617546"><ele>101.0</ele><time>2026-04-25T09:53:09.999Z</time></trkpt><trkpt lat="45.926004645261806" lon="12.29151630506035"><ele>101.0</ele><time>2026-04-25T09:53:10.999Z</time></trkpt><trkpt lat="45.92598504912235" lon="12.291365688556748"><ele>101.0</ele><time>2026-04-25T09:53:11.999Z</time></trkpt><trkpt lat="45.92596363513918" lon="12.291215640529455"><ele>101.0</ele><time>2026-04-25T09:53:12.999Z</time></trkpt><trkpt lat="45.925943963188644" lon="12.291063669321133"><ele>99.4</ele><time>2026-04-25T09:53:13.999Z</time></trkpt><trkpt lat="45.92593279276319" lon="12.290914901496295"><ele>97.8</ele><time>2026-04-25T09:53:14.999Z</time></trkpt><trkpt lat="45.9259155965188" lon="12.290775672433941"><ele>96.2</ele><time>2026-04-25T09:53:15.999Z</time></trkpt><trkpt lat="45.92589520906267" lon="12.290622947253064"><ele>94.60000000000001</ele><time>2026-04-25T09:53:16.999Z</time></trkpt><trkpt lat="45.92586941831465" lon="12.290491261265007"><ele>93.0</ele><time>2026-04-25T09:53:17.999Z</time></trkpt><trkpt lat="45.92584683775194" lon="12.290382831497702"><ele>92.4</ele><time>2026-04-25T09:53:18.999Z</time></trkpt><trkpt lat="45.92581344756623" lon="12.290285797355466"><ele>91.80000000000001</ele><time>2026-04-25T09:53:19.999Z</time></trkpt><trkpt lat="45.925734229483304" lon="12.290210490055589"><ele>91.2</ele><time>2026-04-25T09:53:20.999Z</time></trkpt><trkpt lat="45.92563193097463" lon="12.290165034358534"><ele>90.6</ele><time>2026-04-25T09:53:21.999Z</time></trkpt><trkpt lat="45.92553539851056" lon="12.290124068441795"><ele>90.0</ele><time>2026-04-25T09:53:22.999Z</time></trkpt><trkpt lat="45.92543473222194" lon="12.290082826267598"><ele>90.0</ele><time>2026-04-25T09:53:23.999Z</time></trkpt><trkpt lat="45.92533928298451" lon="12.290003457079377"><ele>90.0</ele><time>2026-04-25T09:53:24.999Z</time></trkpt><trkpt lat="45.92525121939089" lon="12.289903777088217"><ele>90.0</ele><time>2026-04-25T09:53:26Z</time></trkpt><trkpt lat="45.92517212871111" lon="12.289804122338365"><ele>90.0</ele><time>2026-04-25T09:53:27Z</time></trkpt><trkpt lat="45.92510901225665" lon="12.28970865478305"><ele>90.0</ele><time>2026-04-25T09:53:28Z</time></trkpt><trkpt lat="45.92505884183722" lon="12.289594401362386"><ele>88.4</ele><time>2026-04-25T09:53:29Z</time></trkpt><trkpt lat="45.9250187702312" lon="12.289471992919934"><ele>86.8</ele><time>2026-04-25T09:53:30Z</time></trkpt><trkpt lat="45.92500775728922" lon="12.289316346483186"><ele>85.19999999999999</ele><time>2026-04-25T09:53:31Z</time></trkpt><trkpt lat="45.92501830229841" lon="12.289171955702367"><ele>83.6</ele><time>2026-04-25T09:53:32Z</time></trkpt><trkpt lat="45.92503287744529" lon="12.28903219131603"><ele>82.0</ele><time>2026-04-25T09:53:33Z</time></trkpt><trkpt lat="45.92505030429044" lon="12.288902607383008"><ele>82.19999999999999</ele><time>2026-04-25T09:53:34Z</time></trkpt><trkpt lat="45.92507947323453" lon="12.288779499797233"><ele>82.4</ele><time>2026-04-25T09:53:35Z</time></trkpt><trkpt lat="45.92510687037374" lon="12.288627390187674"><ele>82.6</ele><time>2026-04-25T09:53:36Z</time></trkpt><trkpt lat="45.92514451359484" lon="12.28850290682189"><ele>82.80000000000001</ele><time>2026-04-25T09:53:37Z</time></trkpt><trkpt lat="45.92518483721992" lon="12.288367827085114"><ele>83.0</ele><time>2026-04-25T09:53:38Z</time></trkpt><trkpt lat="45.92523170177953" lon="12.288255889463388"><ele>83.0</ele><time>2026-04-25T09:53:39Z</time></trkpt><trkpt lat="45.92526747001052" lon="12.288135894820897"><ele>83.0</ele><time>2026-04-25T09:53:40Z</time></trkpt><trkpt lat="45.925302461133654" lon="12.288035598133396"><ele>83.0</ele><time>2026-04-25T09:53:41Z</time></trkpt><trkpt lat="45.92533610130584" lon="12.287920665445231"><ele>83.0</ele><time>2026-04-25T09:53:42Z</time></trkpt><trkpt lat="45.92535148800298" lon="12.287807629897182"><ele>83.0</ele><time>2026-04-25T09:53:43Z</time></trkpt><trkpt lat="45.925337601585674" lon="12.287671400728994"><ele>83.0</ele><time>2026-04-25T09:53:44Z</time></trkpt><trkpt lat="45.925329535660644" lon="12.287546783852033"><ele>83.0</ele><time>2026-04-25T09:53:45Z</time></trkpt><trkpt lat="45.92534628397298" lon="12.287430171382677"><ele>83.0</ele><time>2026-04-25T09:53:46Z</time></trkpt><trkpt lat="45.92538521572075" lon="12.287315795916774"><ele>83.0</ele><time>2026-04-25T09:53:47Z</time></trkpt><trkpt lat="45.92543329949976" lon="12.287234633817835"><ele>83.0</ele><time>2026-04-25T09:53:48Z</time></trkpt><trkpt lat="45.92548498977077" lon="12.287144868793082"><ele>83.0</ele><time>2026-04-25T09:53:49Z</time></trkpt><trkpt lat="45.92553770336722" lon="12.287055255909033"><ele>83.0</ele><time>2026-04-25T09:53:50Z</time></trkpt><trkpt lat="45.925592406877314" lon="12.286963448229583"><ele>82.85714285714285</ele><time>2026-04-25T09:53:51Z</time></trkpt><trkpt lat="45.92564293418714" lon="12.286878211300913"><ele>82.71428571428572</ele><time>2026-04-25T09:53:52Z</time></trkpt><trkpt lat="45.925692255253786" lon="12.286799462126757"><ele>82.57142857142857</ele><time>2026-04-25T09:53:53Z</time></trkpt><trkpt lat="45.92573894682683" lon="12.286736840701343"><ele>82.42857142857142</ele><time>2026-04-25T09:53:54Z</time></trkpt><trkpt lat="45.925790365256134" lon="12.2866761001754"><ele>82.28571428571428</ele><time>2026-04-25T09:53:55Z</time></trkpt><trkpt lat="45.92585892341512" lon="12.286634834181339"><ele>82.14285714285714</ele><time>2026-04-25T09:53:56Z</time></trkpt><trkpt lat="45.92591804573349" lon="12.286573340291019"><ele>82.0</ele><time>2026-04-25T09:53:57Z</time></trkpt><trkpt lat="45.92597819027408" lon="12.286522733399458"><ele>82.0</ele><time>2026-04-25T09:53:58Z</time></trkpt><trkpt lat="45.92603923810415" lon="12.286495789394069"><ele>82.0</ele><time>2026-04-25T09:53:59Z</time></trkpt><trkpt lat="45.92610811099596" lon="12.28647837492039"><ele>82.0</ele><time>2026-04-25T09:54:00Z</time></trkpt><trkpt lat="45.92617641668098" lon="12.286486070389149"><ele>82.0</ele><time>2026-04-25T09:54:01Z</time></trkpt><trkpt lat="45.92624694176083" lon="12.286539071311138"><ele>82.0</ele><time>2026-04-25T09:54:02Z</time></trkpt><trkpt lat="45.926305412851605" lon="12.286599432224715"><ele>82.0</ele><time>2026-04-25T09:54:03Z</time></trkpt><trkpt lat="45.92641145558381" lon="12.286642312849313"><ele>82.0</ele><time>2026-04-25T09:54:05Z</time></trkpt><trkpt lat="45.92647581716066" lon="12.286599905580843"><ele>82.0</ele><time>2026-04-25T09:54:06Z</time></trkpt><trkpt lat="45.92653839586928" lon="12.28655774287936"><ele>82.0</ele><time>2026-04-25T09:54:07Z</time></trkpt><trkpt lat="45.926630876598175" lon="12.286462993791282"><ele>82.0</ele><time>2026-04-25T09:54:09Z</time></trkpt><trkpt lat="45.92673006701983" lon="12.286352492488032"><ele>82.0</ele><time>2026-04-25T09:54:11Z</time></trkpt><trkpt lat="45.9268294910632" lon="12.286247142512986"><ele>81.99999999999999</ele><time>2026-04-25T09:54:13Z</time></trkpt><trkpt lat="45.92688522121318" lon="12.28619047872055"><ele>82.0</ele><time>2026-04-25T09:54:14Z</time></trkpt><trkpt lat="45.92693775078516" lon="12.286136253403978"><ele>82.0</ele><time>2026-04-25T09:54:15Z</time></trkpt><trkpt lat="45.92699815662131" lon="12.286086437186194"><ele>82.0</ele><time>2026-04-25T09:54:16Z</time></trkpt><trkpt lat="45.927053859211476" lon="12.286029183760514"><ele>82.0</ele><time>2026-04-25T09:54:17Z</time></trkpt><trkpt lat="45.92711438911701" lon="12.285977264752788"><ele>81.99999999999999</ele><time>2026-04-25T09:54:18Z</time></trkpt><trkpt lat="45.92717212599331" lon="12.285930870698637"><ele>82.0</ele><time>2026-04-25T09:54:19Z</time></trkpt><trkpt lat="45.927224020375185" lon="12.285875666080484"><ele>81.99999999999999</ele><time>2026-04-25T09:54:20Z</time></trkpt><trkpt lat="45.92728408022247" lon="12.28582343975625"><ele>82.0</ele><time>2026-04-25T09:54:21Z</time></trkpt><trkpt lat="45.92734599389046" lon="12.285773843115342"><ele>82.0</ele><time>2026-04-25T09:54:22Z</time></trkpt><trkpt lat="45.927398033870716" lon="12.285721858612472"><ele>82.0</ele><time>2026-04-25T09:54:23Z</time></trkpt><trkpt lat="45.927458448160074" lon="12.28566857171212"><ele>82.0</ele><time>2026-04-25T09:54:24Z</time></trkpt><trkpt lat="45.927514795578695" lon="12.285613847231547"><ele>81.99999999999999</ele><time>2026-04-25T09:54:25Z</time></trkpt><trkpt lat="45.927571322677935" lon="12.285556092120824"><ele>82.0</ele><time>2026-04-25T09:54:26Z</time></trkpt><trkpt lat="45.92767926837133" lon="12.285461819260542"><ele>82.83333333333333</ele><time>2026-04-25T09:54:28Z</time></trkpt><trkpt lat="45.92773735876658" lon="12.285404843390578"><ele>83.66666666666666</ele><time>2026-04-25T09:54:29Z</time></trkpt><trkpt lat="45.927795608696066" lon="12.2853484641833"><ele>84.5</ele><time>2026-04-25T09:54:30Z</time></trkpt><trkpt lat="45.92784955542853" lon="12.285292607259965"><ele>85.33333333333333</ele><time>2026-04-25T09:54:31Z</time></trkpt><trkpt lat="45.927905775022964" lon="12.285242755171323"><ele>86.16666666666667</ele><time>2026-04-25T09:54:32Z</time></trkpt><trkpt lat="45.92796735680146" lon="12.28518262370715"><ele>87.0</ele><time>2026-04-25T09:54:33Z</time></trkpt><trkpt lat="45.92807383158557" lon="12.28507174387111"><ele>87.0</ele><time>2026-04-25T09:54:35Z</time></trkpt><trkpt lat="45.92812487901613" lon="12.285005500939675"><ele>87.0</ele><time>2026-04-25T09:54:36Z</time></trkpt><trkpt lat="45.928165282793664" lon="12.284925194119323"><ele>87.0</ele><time>2026-04-25T09:54:37Z</time></trkpt><trkpt lat="45.92820026893542" lon="12.284838493236068"><ele>87.0</ele><time>2026-04-25T09:54:38Z</time></trkpt><trkpt lat="45.928227061536596" lon="12.28474434776667"><ele>87.0</ele><time>2026-04-25T09:54:39Z</time></trkpt><trkpt lat="45.928246792494285" lon="12.284652252519173"><ele>87.0</ele><time>2026-04-25T09:54:40Z</time></trkpt><trkpt lat="45.92828266863624" lon="12.284527288789686"><ele>87.0</ele><time>2026-04-25T09:54:42Z</time></trkpt><trkpt lat="45.92833167536502" lon="12.284423877708235"><ele>87.33333333333333</ele><time>2026-04-25T09:54:44Z</time></trkpt><trkpt lat="45.92838548324268" lon="12.284339747600137"><ele>87.66666666666667</ele><time>2026-04-25T09:54:46Z</time></trkpt><trkpt lat="45.928455544683025" lon="12.284287405577183"><ele>88.0</ele><time>2026-04-25T09:54:49Z</time></trkpt><trkpt lat="45.92853793061476" lon="12.28423796042693"><ele>88.33333333333334</ele><time>2026-04-25T09:54:52Z</time></trkpt><trkpt lat="45.928608440791855" lon="12.284198158166221"><ele>88.66666666666667</ele><time>2026-04-25T09:54:55Z</time></trkpt><trkpt lat="45.92866913567897" lon="12.284165941817513"><ele>89.0</ele><time>2026-04-25T09:54:58Z</time></trkpt><trkpt lat="45.92873622777929" lon="12.28410288058008"><ele>89.71428571428571</ele><time>2026-04-25T09:55:01Z</time></trkpt><trkpt lat="45.92878939796646" lon="12.28404317490958"><ele>90.42857142857143</ele><time>2026-04-25T09:55:04Z</time></trkpt><trkpt lat="45.92884868495696" lon="12.283999452117719"><ele>91.14285714285714</ele><time>2026-04-25T09:55:06.999Z</time></trkpt><trkpt lat="45.92892056019839" lon="12.28394189397758"><ele>91.85714285714286</ele><time>2026-04-25T09:55:10.999Z</time></trkpt><trkpt lat="45.92897904998487" lon="12.283896349785945"><ele>92.57142857142857</ele><time>2026-04-25T09:55:14.999Z</time></trkpt><trkpt lat="45.92904118477376" lon="12.283821293628453"><ele>93.28571428571428</ele><time>2026-04-25T09:55:19.999Z</time></trkpt><trkpt lat="45.9291021249368" lon="12.283795312268488"><ele>94.0</ele><time>2026-04-25T09:55:24.999Z</time></trkpt><trkpt lat="45.92917955569485" lon="12.283735542544632"><ele>95.66666666666666</ele><time>2026-04-25T09:55:28.999Z</time></trkpt><trkpt lat="45.92924009757311" lon="12.283688523598423"><ele>97.33333333333333</ele><time>2026-04-25T09:55:33Z</time></trkpt><trkpt lat="45.92929769703145" lon="12.28362530686717"><ele>99.0</ele><time>2026-04-25T09:55:37Z</time></trkpt><trkpt lat="45.92936799684752" lon="12.283580922371417"><ele>100.66666666666666</ele><time>2026-04-25T09:55:40Z</time></trkpt><trkpt lat="45.92944749205103" lon="12.283530927158052"><ele>102.33333333333333</ele><time>2026-04-25T09:55:44Z</time></trkpt><trkpt lat="45.92950282998948" lon="12.283474239471198"><ele>104.0</ele><time>2026-04-25T09:55:47Z</time></trkpt><trkpt lat="45.92957887207917" lon="12.283416591689326"><ele>103.99999999999999</ele><time>2026-04-25T09:55:50Z</time></trkpt><trkpt lat="45.929639389040624" lon="12.283355876673026"><ele>104.0</ele><time>2026-04-25T09:55:53Z</time></trkpt><trkpt lat="45.92969793998962" lon="12.283308027773517"><ele>104.0</ele><time>2026-04-25T09:55:56Z</time></trkpt><trkpt lat="45.929755922122" lon="12.283260014979094"><ele>104.0</ele><time>2026-04-25T09:55:58Z</time></trkpt><trkpt lat="45.92983020105754" lon="12.283211976737176"><ele>103.99999999999999</ele><time>2026-04-25T09:56:01Z</time></trkpt><trkpt lat="45.92990976461011" lon="12.28314489987207"><ele>104.0</ele><time>2026-04-25T09:56:03Z</time></trkpt><trkpt lat="45.92997304761642" lon="12.283090773017753"><ele>103.83333333333333</ele><time>2026-04-25T09:56:06Z</time></trkpt><trkpt lat="45.93005086637014" lon="12.283028162322536"><ele>103.66666666666666</ele><time>2026-04-25T09:56:09Z</time></trkpt><trkpt lat="45.93010481445517" lon="12.28297636585925"><ele>103.5</ele><time>2026-04-25T09:56:11Z</time></trkpt><trkpt lat="45.930183687070446" lon="12.282914042110653"><ele>103.33333333333334</ele><time>2026-04-25T09:56:14Z</time></trkpt><trkpt lat="45.93026866498142" lon="12.282869350063462"><ele>103.16666666666667</ele><time>2026-04-25T09:56:17Z</time></trkpt><trkpt lat="45.93034098039083" lon="12.282813945490647"><ele>103.0</ele><time>2026-04-25T09:56:20Z</time></trkpt><trkpt lat="45.93042536526457" lon="12.28275736576317"><ele>104.83333333333334</ele><time>2026-04-25T09:56:23Z</time></trkpt><trkpt lat="45.930483123054586" lon="12.282713373240979"><ele>106.66666666666667</ele><time>2026-04-25T09:56:25Z</time></trkpt><trkpt lat="45.930544128732954" lon="12.282665726431574"><ele>108.5</ele><time>2026-04-25T09:56:27Z</time></trkpt><trkpt lat="45.93061926339295" lon="12.28261509206987"><ele>110.33333333333334</ele><time>2026-04-25T09:56:30Z</time></trkpt><trkpt lat="45.930699174414016" lon="12.282531255380016"><ele>112.16666666666667</ele><time>2026-04-25T09:56:33Z</time></trkpt><trkpt lat="45.93078558371492" lon="12.282494125932157"><ele>114.0</ele><time>2026-04-25T09:56:36Z</time></trkpt><trkpt lat="45.930847165536974" lon="12.282437227886694"><ele>114.28571428571428</ele><time>2026-04-25T09:56:38Z</time></trkpt><trkpt lat="45.93090065298485" lon="12.28238200075187"><ele>114.57142857142856</ele><time>2026-04-25T09:56:41Z</time></trkpt><trkpt lat="45.93096016828329" lon="12.282346329361825"><ele>114.85714285714286</ele><time>2026-04-25T09:56:43Z</time></trkpt><trkpt lat="45.93103147199772" lon="12.282411398267268"><ele>115.14285714285714</ele><time>2026-04-25T09:56:45Z</time></trkpt><trkpt lat="45.931095524517" lon="12.282401217935458"><ele>115.42857142857143</ele><time>2026-04-25T09:56:48Z</time></trkpt><trkpt lat="45.931160540608055" lon="12.282344129532369"><ele>115.71428571428572</ele><time>2026-04-25T09:56:50Z</time></trkpt><trkpt lat="45.93120952953431" lon="12.282277173891417"><ele>116.00000000000001</ele><time>2026-04-25T09:56:52Z</time></trkpt><trkpt lat="45.93125158611066" lon="12.282173277574516"><ele>116.66666666666666</ele><time>2026-04-25T09:56:54Z</time></trkpt><trkpt lat="45.93129226266717" lon="12.282092080665167"><ele>117.33333333333333</ele><time>2026-04-25T09:56:55Z</time></trkpt><trkpt lat="45.931340490124285" lon="12.282011215242266"><ele>118.0</ele><time>2026-04-25T09:56:56Z</time></trkpt><trkpt lat="45.93140098823273" lon="12.281935531757936"><ele>118.66666666666666</ele><time>2026-04-25T09:56:57Z</time></trkpt><trkpt lat="45.93145864704684" lon="12.281864910159554"><ele>119.33333333333333</ele><time>2026-04-25T09:56:58Z</time></trkpt><trkpt lat="45.93152039095182" lon="12.281789464923607"><ele>120.0</ele><time>2026-04-25T09:56:59Z</time></trkpt><trkpt lat="45.93158813985339" lon="12.281717073091308"><ele>120.0</ele><time>2026-04-25T09:57:00Z</time></trkpt><trkpt lat="45.93165001308999" lon="12.281646853905354"><ele>120.0</ele><time>2026-04-25T09:57:01Z</time></trkpt><trkpt lat="45.93170848925403" lon="12.281591873357552"><ele>120.0</ele><time>2026-04-25T09:57:02Z</time></trkpt><trkpt lat="45.93178778879236" lon="12.281525605164315"><ele>120.0</ele><time>2026-04-25T09:57:03Z</time></trkpt><trkpt lat="45.931890179508144" lon="12.28145400960562"><ele>120.0</ele><time>2026-04-25T09:57:04Z</time></trkpt><trkpt lat="45.93198252678376" lon="12.281407100462367"><ele>119.0</ele><time>2026-04-25T09:57:05Z</time></trkpt><trkpt lat="45.93205545721326" lon="12.281353753102275"><ele>118.0</ele><time>2026-04-25T09:57:06Z</time></trkpt><trkpt lat="45.9321184485047" lon="12.28131003621616"><ele>117.0</ele><time>2026-04-25T09:57:06.999Z</time></trkpt><trkpt lat="45.93218077933631" lon="12.281269467389233"><ele>116.0</ele><time>2026-04-25T09:57:07.999Z</time></trkpt><trkpt lat="45.932245820448095" lon="12.281228403260116"><ele>115.0</ele><time>2026-04-25T09:57:08.999Z</time></trkpt><trkpt lat="45.93235058098327" lon="12.281167156867324"><ele>114.0</ele><time>2026-04-25T09:57:09.999Z</time></trkpt><trkpt lat="45.93242578604296" lon="12.281115080005472"><ele>114.0</ele><time>2026-04-25T09:57:10.999Z</time></trkpt><trkpt lat="45.93248592111583" lon="12.281065282941377"><ele>113.99999999999999</ele><time>2026-04-25T09:57:11.999Z</time></trkpt><trkpt lat="45.93254708968836" lon="12.281016027867782"><ele>114.0</ele><time>2026-04-25T09:57:12.999Z</time></trkpt><trkpt lat="45.93260411413887" lon="12.280958885917384"><ele>114.0</ele><time>2026-04-25T09:57:13.999Z</time></trkpt><trkpt lat="45.93265699691626" lon="12.280896269006305"><ele>113.99999999999999</ele><time>2026-04-25T09:57:14.999Z</time></trkpt><trkpt lat="45.93270968450122" lon="12.280833982709465"><ele>114.0</ele><time>2026-04-25T09:57:15.999Z</time></trkpt><trkpt lat="45.932758478140066" lon="12.280776556663914"><ele>114.0</ele><time>2026-04-25T09:57:16.999Z</time></trkpt><trkpt lat="45.93285228748458" lon="12.280666325016169"><ele>116.25</ele><time>2026-04-25T09:57:18.999Z</time></trkpt><trkpt lat="45.93295045038873" lon="12.280587312242051"><ele>118.5</ele><time>2026-04-25T09:57:20.999Z</time></trkpt><trkpt lat="45.93305223803215" lon="12.280552343759418"><ele>120.75</ele><time>2026-04-25T09:57:22.999Z</time></trkpt><trkpt lat="45.933169390744254" lon="12.28053609636604"><ele>123.0</ele><time>2026-04-25T09:57:24.999Z</time></trkpt><trkpt lat="45.93329127149141" lon="12.280530646511455"><ele>124.0</ele><time>2026-04-25T09:57:26.999Z</time></trkpt><trkpt lat="45.93342223374337" lon="12.280510167273887"><ele>125.00000000000001</ele><time>2026-04-25T09:57:28.999Z</time></trkpt><trkpt lat="45.93353915341074" lon="12.280522042539094"><ele>126.00000000000001</ele><time>2026-04-25T09:57:30.999Z</time></trkpt><trkpt lat="45.93366781954772" lon="12.280505434289267"><ele>127.0</ele><time>2026-04-25T09:57:32.999Z</time></trkpt><trkpt lat="45.93373130932171" lon="12.280501386918651"><ele>128.0</ele><time>2026-04-25T09:57:33.999Z</time></trkpt><trkpt lat="45.93379601899713" lon="12.280481021824372"><ele>128.0</ele><time>2026-04-25T09:57:34.999Z</time></trkpt><trkpt lat="45.933916553022605" lon="12.280477961083928"><ele>128.0</ele><time>2026-04-25T09:57:36.999Z</time></trkpt><trkpt lat="45.93403716611588" lon="12.280466059598275"><ele>128.0</ele><time>2026-04-25T09:57:39Z</time></trkpt><trkpt lat="45.934157125597565" lon="12.280451874299654"><ele>128.0</ele><time>2026-04-25T09:57:41Z</time></trkpt><trkpt lat="45.93425540633342" lon="12.280449964203283"><ele>128.8</ele><time>2026-04-25T09:57:43Z</time></trkpt><trkpt lat="45.93436912585426" lon="12.280429256662684"><ele>129.60000000000002</ele><time>2026-04-25T09:57:44.999Z</time></trkpt><trkpt lat="45.93446687796365" lon="12.280412538314039"><ele>130.39999999999998</ele><time>2026-04-25T09:57:46.999Z</time></trkpt><trkpt lat="45.93456190187886" lon="12.280394724757244"><ele>131.2</ele><time>2026-04-25T09:57:48.999Z</time></trkpt><trkpt lat="45.93463985619879" lon="12.280386347145422"><ele>132.0</ele><time>2026-04-25T09:57:50.999Z</time></trkpt><trkpt lat="45.93472691011352" lon="12.28037290464424"><ele>132.0</ele><time>2026-04-25T09:57:52.999Z</time></trkpt><trkpt lat="45.93480525329609" lon="12.280380578886845"><ele>132.0</ele><time>2026-04-25T09:57:54.999Z</time></trkpt><trkpt lat="45.93488076628543" lon="12.280370689840144"><ele>132.0</ele><time>2026-04-25T09:57:57Z</time></trkpt><trkpt lat="45.93495905842549" lon="12.280345296877075"><ele>132.0</ele><time>2026-04-25T09:57:59Z</time></trkpt><trkpt lat="45.93503281750746" lon="12.280342110021653"><ele>132.0</ele><time>2026-04-25T09:58:01Z</time></trkpt><trkpt lat="45.93511366652662" lon="12.280340587803416"><ele>132.0</ele><time>2026-04-25T09:58:03Z</time></trkpt><trkpt lat="45.935179823217304" lon="12.280322723256036"><ele>130.66666666666666</ele><time>2026-04-25T09:58:05Z</time></trkpt><trkpt lat="45.93524649937177" lon="12.280310514562151"><ele>129.33333333333334</ele><time>2026-04-25T09:58:07Z</time></trkpt><trkpt lat="45.93531893933251" lon="12.28029974879436"><ele>128.0</ele><time>2026-04-25T09:58:09Z</time></trkpt><trkpt lat="45.93540006546434" lon="12.28029682546753"><ele>126.66666666666667</ele><time>2026-04-25T09:58:11Z</time></trkpt><trkpt lat="45.93549091671426" lon="12.280304611176822"><ele>125.33333333333334</ele><time>2026-04-25T09:58:13Z</time></trkpt><trkpt lat="45.935575146609935" lon="12.280354137297401"><ele>124.0</ele><time>2026-04-25T09:58:15Z</time></trkpt><trkpt lat="45.93565764296966" lon="12.280383708657011"><ele>124.0</ele><time>2026-04-25T09:58:17Z</time></trkpt><trkpt lat="45.93573737437889" lon="12.280425028914593"><ele>124.0</ele><time>2026-04-25T09:58:19Z</time></trkpt><trkpt lat="45.9358156440763" lon="12.280489831305417"><ele>124.0</ele><time>2026-04-25T09:58:21Z</time></trkpt><trkpt lat="45.93591633051974" lon="12.280538391818256"><ele>124.0</ele><time>2026-04-25T09:58:23Z</time></trkpt><trkpt lat="45.93600423647486" lon="12.280588278696213"><ele>124.0</ele><time>2026-04-25T09:58:25Z</time></trkpt><trkpt lat="45.93609101826162" lon="12.280620163777334"><ele>124.6</ele><time>2026-04-25T09:58:27Z</time></trkpt><trkpt lat="45.936184861285334" lon="12.280637127911465"><ele>125.2</ele><time>2026-04-25T09:58:29Z</time></trkpt><trkpt lat="45.93627923804705" lon="12.28068066857438"><ele>125.79999999999998</ele><time>2026-04-25T09:58:31Z</time></trkpt><trkpt lat="45.93637927553939" lon="12.28070007256255"><ele>126.39999999999999</ele><time>2026-04-25T09:58:33Z</time></trkpt><trkpt lat="45.93648705784521" lon="12.280712115041235"><ele>127.0</ele><time>2026-04-25T09:58:35Z</time></trkpt><trkpt lat="45.93660583276506" lon="12.28072599840189"><ele>128.0</ele><time>2026-04-25T09:58:37Z</time></trkpt><trkpt lat="45.936721300265745" lon="12.280756237022619"><ele>129.0</ele><time>2026-04-25T09:58:39Z</time></trkpt><trkpt lat="45.93683231168178" lon="12.280771705337058"><ele>130.0</ele><time>2026-04-25T09:58:41Z</time></trkpt><trkpt lat="45.936895652863946" lon="12.280776253905374"><ele>131.0</ele><time>2026-04-25T09:58:42Z</time></trkpt><trkpt lat="45.93701390927472" lon="12.280797030582574"><ele>132.0</ele><time>2026-04-25T09:58:44Z</time></trkpt><trkpt lat="45.9371292591106" lon="12.280828148389592"><ele>132.0</ele><time>2026-04-25T09:58:46Z</time></trkpt><trkpt lat="45.93723790652898" lon="12.280873688419797"><ele>132.0</ele><time>2026-04-25T09:58:48Z</time></trkpt><trkpt lat="45.937348725362696" lon="12.280902824975083"><ele>132.0</ele><time>2026-04-25T09:58:50Z</time></trkpt><trkpt lat="45.93746412397738" lon="12.280931253823814"><ele>132.0</ele><time>2026-04-25T09:58:52Z</time></trkpt><trkpt lat="45.937563631753974" lon="12.280977958885162"><ele>132.0</ele><time>2026-04-25T09:58:54Z</time></trkpt><trkpt lat="45.93767713608632" lon="12.281003380693043"><ele>132.6</ele><time>2026-04-25T09:58:56Z</time></trkpt><trkpt lat="45.937780860789815" lon="12.281015311556466"><ele>133.2</ele><time>2026-04-25T09:58:57.999Z</time></trkpt><trkpt lat="45.937896038970536" lon="12.28100327893249"><ele>133.8</ele><time>2026-04-25T09:58:59.999Z</time></trkpt><trkpt lat="45.93798102197345" lon="12.280893963436275"><ele>134.4</ele><time>2026-04-25T09:59:01.999Z</time></trkpt><trkpt lat="45.93803846374769" lon="12.28080646154212"><ele>135.0</ele><time>2026-04-25T09:59:03.999Z</time></trkpt><trkpt lat="45.938109815106344" lon="12.280676364250905"><ele>135.0</ele><time>2026-04-25T09:59:05.999Z</time></trkpt><trkpt lat="45.93818908959387" lon="12.280565918630932"><ele>135.0</ele><time>2026-04-25T09:59:07.999Z</time></trkpt><trkpt lat="45.93826962397592" lon="12.280446973955259"><ele>135.0</ele><time>2026-04-25T09:59:09.999Z</time></trkpt><trkpt lat="45.93835420933282" lon="12.280326889126064"><ele>135.0</ele><time>2026-04-25T09:59:11.999Z</time></trkpt><trkpt lat="45.93840429989164" lon="12.28026196660749"><ele>135.0</ele><time>2026-04-25T09:59:12.999Z</time></trkpt><trkpt lat="45.938456265957385" lon="12.280195862402273"><ele>135.0</ele><time>2026-04-25T09:59:13.999Z</time></trkpt><trkpt lat="45.93851066886351" lon="12.280137117140825"><ele>135.0</ele><time>2026-04-25T09:59:14.999Z</time></trkpt><trkpt lat="45.938571404843564" lon="12.280082343382672"><ele>135.0</ele><time>2026-04-25T09:59:15.999Z</time></trkpt><trkpt lat="45.938635493809734" lon="12.280037923816241"><ele>135.0</ele><time>2026-04-25T09:59:16.999Z</time></trkpt><trkpt lat="45.93870046859401" lon="12.280012754396894"><ele>135.0</ele><time>2026-04-25T09:59:17.999Z</time></trkpt><trkpt lat="45.93876969651104" lon="12.27998667715399"><ele>135.0</ele><time>2026-04-25T09:59:18.999Z</time></trkpt><trkpt lat="45.9388393409003" lon="12.279960354403768"><ele>135.0</ele><time>2026-04-25T09:59:19.999Z</time></trkpt><trkpt lat="45.938905634133945" lon="12.279930195211762"><ele>135.0</ele><time>2026-04-25T09:59:20.999Z</time></trkpt><trkpt lat="45.938979245854945" lon="12.279895207248659"><ele>135.0</ele><time>2026-04-25T09:59:21.999Z</time></trkpt><trkpt lat="45.93904469306757" lon="12.279864233717106"><ele>135.0</ele><time>2026-04-25T09:59:22.999Z</time></trkpt><trkpt lat="45.93911523100836" lon="12.279840701980799"><ele>135.0</ele><time>2026-04-25T09:59:23.999Z</time></trkpt><trkpt lat="45.93918657398261" lon="12.27983011732156"><ele>135.0</ele><time>2026-04-25T09:59:24.999Z</time></trkpt><trkpt lat="45.939257195578186" lon="12.279847163519714"><ele>135.0</ele><time>2026-04-25T09:59:25.999Z</time></trkpt><trkpt lat="45.93931860443526" lon="12.279872251726227"><ele>135.0</ele><time>2026-04-25T09:59:26.999Z</time></trkpt><trkpt lat="45.93939957184481" lon="12.280028658986623"><ele>134.71428571428572</ele><time>2026-04-25T09:59:28.999Z</time></trkpt><trkpt lat="45.93944124226413" lon="12.280115357429835"><ele>134.42857142857142</ele><time>2026-04-25T09:59:29.999Z</time></trkpt><trkpt lat="45.939477950284726" lon="12.280203844398462"><ele>134.14285714285714</ele><time>2026-04-25T09:59:30.999Z</time></trkpt><trkpt lat="45.939515403512516" lon="12.28029148654053"><ele>133.85714285714286</ele><time>2026-04-25T09:59:31.999Z</time></trkpt><trkpt lat="45.93954868713525" lon="12.280372822266159"><ele>133.57142857142856</ele><time>2026-04-25T09:59:32.999Z</time></trkpt><trkpt lat="45.939588423138446" lon="12.280447806086611"><ele>133.28571428571428</ele><time>2026-04-25T09:59:33.999Z</time></trkpt><trkpt lat="45.93962632289754" lon="12.280521775514954"><ele>133.0</ele><time>2026-04-25T09:59:34.999Z</time></trkpt><trkpt lat="45.93965892531022" lon="12.280600474617877"><ele>134.20000000000002</ele><time>2026-04-25T09:59:35.999Z</time></trkpt><trkpt lat="45.9397304758" lon="12.280729094291905"><ele>135.4</ele><time>2026-04-25T09:59:37.999Z</time></trkpt><trkpt lat="45.93979408653235" lon="12.28084668232944"><ele>136.60000000000002</ele><time>2026-04-25T09:59:39.999Z</time></trkpt><trkpt lat="45.93985478482033" lon="12.28095291116818"><ele>137.8</ele><time>2026-04-25T09:59:41.999Z</time></trkpt><trkpt lat="45.93991088921211" lon="12.28107711317515"><ele>139.0</ele><time>2026-04-25T09:59:43.999Z</time></trkpt><trkpt lat="45.93996683600549" lon="12.281171484610889"><ele>139.0</ele><time>2026-04-25T09:59:45.999Z</time></trkpt><trkpt lat="45.94002718489277" lon="12.28126019818007"><ele>139.0</ele><time>2026-04-25T09:59:47.999Z</time></trkpt><trkpt lat="45.9401057152472" lon="12.281316571644853"><ele>139.0</ele><time>2026-04-25T09:59:49.999Z</time></trkpt><trkpt lat="45.94018906950902" lon="12.281383012730963"><ele>139.0</ele><time>2026-04-25T09:59:51.999Z</time></trkpt><trkpt lat="45.940285336230076" lon="12.281460389131917"><ele>139.0</ele><time>2026-04-25T09:59:53.999Z</time></trkpt><trkpt lat="45.94034465579573" lon="12.281507110990436"><ele>139.0</ele><time>2026-04-25T09:59:54.999Z</time></trkpt><trkpt lat="45.94044539731537" lon="12.281633086011535"><ele>139.66666666666669</ele><time>2026-04-25T09:59:58.999Z</time></trkpt><trkpt lat="45.94050047952024" lon="12.281706040921808"><ele>140.33333333333334</ele><time>2026-04-25T09:59:59.999Z</time></trkpt><trkpt lat="45.94055566697382" lon="12.281773763910328"><ele>141.0</ele><time>2026-04-25T10:00:00.999Z</time></trkpt><trkpt lat="45.940605212143886" lon="12.28183196250913"><ele>141.66666666666666</ele><time>2026-04-25T10:00:01.999Z</time></trkpt><trkpt lat="45.9407213158036" lon="12.281910838041112"><ele>142.33333333333331</ele><time>2026-04-25T10:00:03.999Z</time></trkpt><trkpt lat="45.94078814968329" lon="12.281922343593095"><ele>143.0</ele><time>2026-04-25T10:00:04.999Z</time></trkpt><trkpt lat="45.94085258205892" lon="12.281890700239195"><ele>142.8</ele><time>2026-04-25T10:00:05.999Z</time></trkpt><trkpt lat="45.94091126462381" lon="12.281851365808835"><ele>142.60000000000002</ele><time>2026-04-25T10:00:06.999Z</time></trkpt><trkpt lat="45.941004577383964" lon="12.281758322056175"><ele>142.39999999999998</ele><time>2026-04-25T10:00:08.999Z</time></trkpt><trkpt lat="45.94109958901499" lon="12.281653075503264"><ele>142.2</ele><time>2026-04-25T10:00:10.999Z</time></trkpt><trkpt lat="45.94118764180318" lon="12.281552089789942"><ele>142.0</ele><time>2026-04-25T10:00:12.999Z</time></trkpt><trkpt lat="45.941273442090484" lon="12.281445123720816"><ele>143.5</ele><time>2026-04-25T10:00:14.999Z</time></trkpt><trkpt lat="45.94135950711515" lon="12.281323420870493"><ele>145.0</ele><time>2026-04-25T10:00:16.999Z</time></trkpt><trkpt lat="45.941452232826215" lon="12.281221695505705"><ele>146.5</ele><time>2026-04-25T10:00:18.999Z</time></trkpt><trkpt lat="45.94154373357941" lon="12.281101805512792"><ele>148.0</ele><time>2026-04-25T10:00:20.999Z</time></trkpt><trkpt lat="45.94163142681227" lon="12.280981517341468"><ele>148.0</ele><time>2026-04-25T10:00:22.999Z</time></trkpt><trkpt lat="45.94168075421841" lon="12.280923260465318"><ele>148.0</ele><time>2026-04-25T10:00:23.999Z</time></trkpt><trkpt lat="45.94177975169291" lon="12.280836991083868"><ele>148.0</ele><time>2026-04-25T10:00:25.999Z</time></trkpt><trkpt lat="45.94186546971546" lon="12.28072780945095"><ele>148.0</ele><time>2026-04-25T10:00:27.999Z</time></trkpt><trkpt lat="45.94194709987293" lon="12.28061735486688"><ele>148.0</ele><time>2026-04-25T10:00:29.999Z</time></trkpt><trkpt lat="45.941997284259" lon="12.280496844697957"><ele>148.0</ele><time>2026-04-25T10:00:31.999Z</time></trkpt><trkpt lat="45.942022506316455" lon="12.280347659920327"><ele>148.0</ele><time>2026-04-25T10:00:33.999Z</time></trkpt><trkpt lat="45.94201026071969" lon="12.280192703535816"><ele>148.0</ele><time>2026-04-25T10:00:35.999Z</time></trkpt><trkpt lat="45.942012154337256" lon="12.280014180005393"><ele>148.0</ele><time>2026-04-25T10:00:37.999Z</time></trkpt><trkpt lat="45.94199593307476" lon="12.279840343761212"><ele>147.83333333333334</ele><time>2026-04-25T10:00:39.999Z</time></trkpt><trkpt lat="45.9419674633549" lon="12.279758063159216"><ele>147.66666666666669</ele><time>2026-04-25T10:00:40.999Z</time></trkpt><trkpt lat="45.94194308085345" lon="12.27966490868576"><ele>147.5</ele><time>2026-04-25T10:00:41.999Z</time></trkpt><trkpt lat="45.94192385569998" lon="12.279561198444942"><ele>147.33333333333334</ele><time>2026-04-25T10:00:42.999Z</time></trkpt><trkpt lat="45.94190313924667" lon="12.27945083976165"><ele>147.16666666666666</ele><time>2026-04-25T10:00:43.999Z</time></trkpt><trkpt lat="45.94188223172336" lon="12.279340541111534"><ele>147.0</ele><time>2026-04-25T10:00:44.999Z</time></trkpt><trkpt lat="45.94186505514389" lon="12.279208113359836"><ele>147.0</ele><time>2026-04-25T10:00:45.999Z</time></trkpt><trkpt lat="45.941843096061504" lon="12.2791031774383"><ele>147.0</ele><time>2026-04-25T10:00:46.999Z</time></trkpt><trkpt lat="45.94182705651946" lon="12.278987113364638"><ele>147.0</ele><time>2026-04-25T10:00:47.999Z</time></trkpt><trkpt lat="45.9417907459057" lon="12.278871544393981"><ele>147.0</ele><time>2026-04-25T10:00:48.999Z</time></trkpt><trkpt lat="45.941739277535326" lon="12.278780302408926"><ele>147.0</ele><time>2026-04-25T10:00:49.999Z</time></trkpt><trkpt lat="45.941671923117866" lon="12.2787065300204"><ele>147.0</ele><time>2026-04-25T10:00:50.999Z</time></trkpt><trkpt lat="45.94160135514659" lon="12.278648792391365"><ele>145.5</ele><time>2026-04-25T10:00:51.999Z</time></trkpt><trkpt lat="45.94153239994663" lon="12.27859773170995"><ele>144.0</ele><time>2026-04-25T10:00:52.999Z</time></trkpt><trkpt lat="45.94146186714007" lon="12.278542745202989"><ele>142.5</ele><time>2026-04-25T10:00:53.999Z</time></trkpt><trkpt lat="45.94138714238614" lon="12.27849398663802"><ele>141.0</ele><time>2026-04-25T10:00:54.999Z</time></trkpt><trkpt lat="45.94132249986973" lon="12.278449743496875"><ele>139.5</ele><time>2026-04-25T10:00:55.999Z</time></trkpt><trkpt lat="45.94124752018971" lon="12.278424119455913"><ele>138.0</ele><time>2026-04-25T10:00:56.999Z</time></trkpt><trkpt lat="45.941168894718025" lon="12.278419540375056"><ele>138.0</ele><time>2026-04-25T10:00:57.999Z</time></trkpt><trkpt lat="45.94109024702897" lon="12.278436067980705"><ele>138.0</ele><time>2026-04-25T10:00:58.999Z</time></trkpt><trkpt lat="45.941010364496506" lon="12.27844402440829"><ele>138.0</ele><time>2026-04-25T10:00:59.999Z</time></trkpt><trkpt lat="45.940932057875834" lon="12.278439766781563"><ele>138.0</ele><time>2026-04-25T10:01:00.999Z</time></trkpt><trkpt lat="45.94086105108183" lon="12.278429284907459"><ele>138.0</ele><time>2026-04-25T10:01:01.999Z</time></trkpt><trkpt lat="45.94079521244868" lon="12.278405157561268"><ele>138.0</ele><time>2026-04-25T10:01:02.999Z</time></trkpt><trkpt lat="45.94072042978264" lon="12.278331276097253"><ele>137.83333333333334</ele><time>2026-04-25T10:01:04.999Z</time></trkpt><trkpt lat="45.940691484445985" lon="12.278246913630976"><ele>137.66666666666666</ele><time>2026-04-25T10:01:09.999Z</time></trkpt><trkpt lat="45.940630025018706" lon="12.278361173079437"><ele>137.5</ele><time>2026-04-25T10:01:19.999Z</time></trkpt><trkpt lat="45.94056567376167" lon="12.278451388903498"><ele>137.33333333333331</ele><time>2026-04-25T10:01:21.999Z</time></trkpt><trkpt lat="45.9404789665902" lon="12.278533721905452"><ele>137.16666666666666</ele><time>2026-04-25T10:01:23.999Z</time></trkpt><trkpt lat="45.9404094205927" lon="12.27853330793597"><ele>137.0</ele><time>2026-04-25T10:01:25.999Z</time></trkpt><trkpt lat="45.94033827611884" lon="12.278417613808445"><ele>137.0</ele><time>2026-04-25T10:01:27.999Z</time></trkpt><trkpt lat="45.94027573944516" lon="12.278272751548142"><ele>137.0</ele><time>2026-04-25T10:01:29.999Z</time></trkpt><trkpt lat="45.94019173861291" lon="12.278141465729606"><ele>137.0</ele><time>2026-04-25T10:01:31.999Z</time></trkpt><trkpt lat="45.940137781739914" lon="12.27806328089776"><ele>137.0</ele><time>2026-04-25T10:01:32.999Z</time></trkpt><trkpt lat="45.94008021223483" lon="12.277971044090858"><ele>137.0</ele><time>2026-04-25T10:01:33.999Z</time></trkpt><trkpt lat="45.94003425703446" lon="12.277873084954063"><ele>134.5</ele><time>2026-04-25T10:01:34.999Z</time></trkpt><trkpt lat="45.93999243889613" lon="12.27777632936835"><ele>132.0</ele><time>2026-04-25T10:01:35.999Z</time></trkpt><trkpt lat="45.93994281188661" lon="12.277671096851119"><ele>129.5</ele><time>2026-04-25T10:01:36.999Z</time></trkpt><trkpt lat="45.939886504774606" lon="12.277565889836156"><ele>127.0</ele><time>2026-04-25T10:01:37.999Z</time></trkpt><trkpt lat="45.93983886822166" lon="12.2774620405181"><ele>124.49999999999999</ele><time>2026-04-25T10:01:38.999Z</time></trkpt><trkpt lat="45.93978244999283" lon="12.277354313764532"><ele>122.0</ele><time>2026-04-25T10:01:39.999Z</time></trkpt><trkpt lat="45.939723710272446" lon="12.277252122065981"><ele>121.49999999999999</ele><time>2026-04-25T10:01:40.999Z</time></trkpt><trkpt lat="45.939675054215165" lon="12.277149727445062"><ele>121.0</ele><time>2026-04-25T10:01:41.999Z</time></trkpt><trkpt lat="45.9396239705827" lon="12.277043663996771"><ele>120.5</ele><time>2026-04-25T10:01:42.999Z</time></trkpt><trkpt lat="45.93957434064111" lon="12.27693749507808"><ele>120.0</ele><time>2026-04-25T10:01:43.999Z</time></trkpt><trkpt lat="45.939523636023075" lon="12.276836888120222"><ele>119.49999999999999</ele><time>2026-04-25T10:01:44.999Z</time></trkpt><trkpt lat="45.939477668812" lon="12.276737098290365"><ele>119.0</ele><time>2026-04-25T10:01:45.999Z</time></trkpt><trkpt lat="45.93943605581399" lon="12.27664926183228"><ele>119.0</ele><time>2026-04-25T10:01:46.999Z</time></trkpt><trkpt lat="45.939386734749135" lon="12.276543002229454"><ele>119.0</ele><time>2026-04-25T10:01:47.999Z</time></trkpt><trkpt lat="45.93932886559792" lon="12.27644393307721"><ele>119.0</ele><time>2026-04-25T10:01:48.999Z</time></trkpt><trkpt lat="45.939271913932885" lon="12.276338461418346"><ele>119.0</ele><time>2026-04-25T10:01:49.999Z</time></trkpt><trkpt lat="45.939202939555216" lon="12.276226389552098"><ele>119.0</ele><time>2026-04-25T10:01:50.999Z</time></trkpt><trkpt lat="45.939135724817106" lon="12.276126767264193"><ele>116.4</ele><time>2026-04-25T10:01:51.999Z</time></trkpt><trkpt lat="45.93907518018174" lon="12.27603412917226"><ele>113.80000000000001</ele><time>2026-04-25T10:01:52.999Z</time></trkpt><trkpt lat="45.93901285207281" lon="12.275935007575107"><ele>111.19999999999999</ele><time>2026-04-25T10:01:53.999Z</time></trkpt><trkpt lat="45.93894831948419" lon="12.275821100096694"><ele>108.6</ele><time>2026-04-25T10:01:54.999Z</time></trkpt><trkpt lat="45.93889548291537" lon="12.275714283776473"><ele>106.0</ele><time>2026-04-25T10:01:55.999Z</time></trkpt><trkpt lat="45.938852276729385" lon="12.27562121367108"><ele>105.66666666666667</ele><time>2026-04-25T10:01:56.999Z</time></trkpt><trkpt lat="45.93881567401614" lon="12.275520472448076"><ele>105.33333333333334</ele><time>2026-04-25T10:01:58Z</time></trkpt><trkpt lat="45.938776931295465" lon="12.275413901458025"><ele>105.0</ele><time>2026-04-25T10:01:59Z</time></trkpt><trkpt lat="45.93873472556089" lon="12.275315196686865"><ele>104.66666666666666</ele><time>2026-04-25T10:02:00Z</time></trkpt><trkpt lat="45.93867274131605" lon="12.275254009531185"><ele>104.33333333333333</ele><time>2026-04-25T10:02:01Z</time></trkpt><trkpt lat="45.93861537804408" lon="12.27519488028759"><ele>104.0</ele><time>2026-04-25T10:02:02Z</time></trkpt><trkpt lat="45.93854772262104" lon="12.275051485345402"><ele>104.0</ele><time>2026-04-25T10:02:04Z</time></trkpt><trkpt lat="45.938518958194486" lon="12.274961532773121"><ele>104.0</ele><time>2026-04-25T10:02:05Z</time></trkpt><trkpt lat="45.93849214972605" lon="12.27480192086628"><ele>104.0</ele><time>2026-04-25T10:02:07Z</time></trkpt><trkpt lat="45.93846067060211" lon="12.274659450802549"><ele>104.0</ele><time>2026-04-25T10:02:09Z</time></trkpt><trkpt lat="45.9384359504945" lon="12.2745174542779"><ele>104.0</ele><time>2026-04-25T10:02:11Z</time></trkpt><trkpt lat="45.93838869926936" lon="12.274381431548905"><ele>103.66666666666666</ele><time>2026-04-25T10:02:13Z</time></trkpt><trkpt lat="45.93835785336996" lon="12.274250753379484"><ele>103.33333333333333</ele><time>2026-04-25T10:02:15Z</time></trkpt><trkpt lat="45.93832936645622" lon="12.274135436762565"><ele>103.0</ele><time>2026-04-25T10:02:17Z</time></trkpt><trkpt lat="45.938324013597274" lon="12.274023244453467"><ele>102.66666666666666</ele><time>2026-04-25T10:02:19Z</time></trkpt><trkpt lat="45.93839117655894" lon="12.273967437434816"><ele>102.33333333333333</ele><time>2026-04-25T10:02:21Z</time></trkpt><trkpt lat="45.93847466795676" lon="12.273942949804567"><ele>102.0</ele><time>2026-04-25T10:02:23Z</time></trkpt><trkpt lat="45.93860829930154" lon="12.273949576896907"><ele>102.0</ele><time>2026-04-25T10:02:26Z</time></trkpt><trkpt lat="45.9387044357914" lon="12.273953409788483"><ele>102.0</ele><time>2026-04-25T10:02:28Z</time></trkpt><trkpt lat="45.93879464498443" lon="12.273950326197754"><ele>102.0</ele><time>2026-04-25T10:02:30Z</time></trkpt><trkpt lat="45.93889180988222" lon="12.273929761513056"><ele>102.0</ele><time>2026-04-25T10:02:32Z</time></trkpt><trkpt lat="45.938986745013" lon="12.27393589935833"><ele>102.0</ele><time>2026-04-25T10:02:34Z</time></trkpt><trkpt lat="45.93906817718401" lon="12.273938784568484"><ele>101.83333333333333</ele><time>2026-04-25T10:02:37Z</time></trkpt><trkpt lat="45.93905318171424" lon="12.273812591219587"><ele>101.66666666666666</ele><time>2026-04-25T10:02:40Z</time></trkpt><trkpt lat="45.93899223594663" lon="12.273749173638876"><ele>101.5</ele><time>2026-04-25T10:02:42Z</time></trkpt><trkpt lat="45.93890831132032" lon="12.27368927462285"><ele>101.33333333333333</ele><time>2026-04-25T10:02:44Z</time></trkpt><trkpt lat="45.93882680849294" lon="12.273637679430776"><ele>101.16666666666666</ele><time>2026-04-25T10:02:46Z</time></trkpt><trkpt lat="45.93877499742288" lon="12.273547636466093"><ele>101.0</ele><time>2026-04-25T10:02:48Z</time></trkpt><trkpt lat="45.938692114876055" lon="12.273460373105634"><ele>101.0</ele><time>2026-04-25T10:02:50Z</time></trkpt><trkpt lat="45.938631200077815" lon="12.273420760974755"><ele>101.0</ele><time>2026-04-25T10:02:51Z</time></trkpt><trkpt lat="45.93856705994887" lon="12.273397711645476"><ele>101.0</ele><time>2026-04-25T10:02:52Z</time></trkpt><trkpt lat="45.93849414414773" lon="12.273385049029871"><ele>101.0</ele><time>2026-04-25T10:02:53Z</time></trkpt><trkpt lat="45.93841464342298" lon="12.273367535823345"><ele>101.0</ele><time>2026-04-25T10:02:54Z</time></trkpt><trkpt lat="45.938348107721026" lon="12.273358624981595"><ele>101.0</ele><time>2026-04-25T10:02:55Z</time></trkpt><trkpt lat="45.93826875304678" lon="12.273349864150974"><ele>101.0</ele><time>2026-04-25T10:02:56Z</time></trkpt><trkpt lat="45.93819833972821" lon="12.273347278025074"><ele>101.16666666666666</ele><time>2026-04-25T10:02:57Z</time></trkpt><trkpt lat="45.938125372920275" lon="12.273343329867757"><ele>101.33333333333333</ele><time>2026-04-25T10:02:58Z</time></trkpt><trkpt lat="45.93805234294002" lon="12.273345099286686"><ele>101.5</ele><time>2026-04-25T10:02:59Z</time></trkpt><trkpt lat="45.9379802604711" lon="12.273339100843852"><ele>101.66666666666666</ele><time>2026-04-25T10:03:00Z</time></trkpt><trkpt lat="45.937898504757264" lon="12.273345102880011"><ele>101.83333333333333</ele><time>2026-04-25T10:03:01Z</time></trkpt><trkpt lat="45.937818845535034" lon="12.273343770030984"><ele>102.0</ele><time>2026-04-25T10:03:02Z</time></trkpt><trkpt lat="45.9377419305023" lon="12.273362589046057"><ele>102.0</ele><time>2026-04-25T10:03:03Z</time></trkpt><trkpt lat="45.93764196373022" lon="12.27339632136189"><ele>102.0</ele><time>2026-04-25T10:03:04Z</time></trkpt><trkpt lat="45.937556840715" lon="12.273417930020939"><ele>102.0</ele><time>2026-04-25T10:03:05Z</time></trkpt><trkpt lat="45.93748440266791" lon="12.273435609791234"><ele>102.0</ele><time>2026-04-25T10:03:06Z</time></trkpt><trkpt lat="45.93740561829237" lon="12.273446303442796"><ele>102.0</ele><time>2026-04-25T10:03:07Z</time></trkpt><trkpt lat="45.937331603590685" lon="12.27346759723755"><ele>102.0</ele><time>2026-04-25T10:03:08Z</time></trkpt><trkpt lat="45.93725798072914" lon="12.273489217385324"><ele>102.14285714285714</ele><time>2026-04-25T10:03:09Z</time></trkpt><trkpt lat="45.93718492712445" lon="12.273508103982909"><ele>102.28571428571429</ele><time>2026-04-25T10:03:10Z</time></trkpt><trkpt lat="45.93711522254374" lon="12.27351786234309"><ele>102.42857142857142</ele><time>2026-04-25T10:03:11Z</time></trkpt><trkpt lat="45.93704251509424" lon="12.273535964143944"><ele>102.57142857142857</ele><time>2026-04-25T10:03:12Z</time></trkpt><trkpt lat="45.93696946882661" lon="12.273543636887393"><ele>102.71428571428571</ele><time>2026-04-25T10:03:13Z</time></trkpt><trkpt lat="45.93689691370145" lon="12.273552950271636"><ele>102.85714285714285</ele><time>2026-04-25T10:03:14Z</time></trkpt><trkpt lat="45.93682415508716" lon="12.273570273539773"><ele>103.0</ele><time>2026-04-25T10:03:15Z</time></trkpt><trkpt lat="45.93675366580674" lon="12.273593704595424"><ele>103.28571428571428</ele><time>2026-04-25T10:03:16Z</time></trkpt><trkpt lat="45.936690569060914" lon="12.273615276333823"><ele>103.57142857142857</ele><time>2026-04-25T10:03:17Z</time></trkpt><trkpt lat="45.936610898339545" lon="12.27364113505333"><ele>103.85714285714286</ele><time>2026-04-25T10:03:18Z</time></trkpt><trkpt lat="45.93654556834885" lon="12.273661576895194"><ele>104.14285714285714</ele><time>2026-04-25T10:03:19Z</time></trkpt><trkpt lat="45.936479237444715" lon="12.273680486251788"><ele>104.42857142857143</ele><time>2026-04-25T10:03:20Z</time></trkpt><trkpt lat="45.93641475973303" lon="12.273687235937745"><ele>104.71428571428571</ele><time>2026-04-25T10:03:21Z</time></trkpt><trkpt lat="45.93634958318255" lon="12.27370886883518"><ele>105.0</ele><time>2026-04-25T10:03:22Z</time></trkpt><trkpt lat="45.93628649147776" lon="12.273741216274681"><ele>105.0</ele><time>2026-04-25T10:03:23Z</time></trkpt><trkpt lat="45.9362229216923" lon="12.273763035852275"><ele>105.0</ele><time>2026-04-25T10:03:24Z</time></trkpt><trkpt lat="45.93615606738635" lon="12.273778039163789"><ele>105.0</ele><time>2026-04-25T10:03:25Z</time></trkpt><trkpt lat="45.93608049075277" lon="12.273790829862245"><ele>105.0</ele><time>2026-04-25T10:03:26Z</time></trkpt><trkpt lat="45.93601109033685" lon="12.273811721241755"><ele>105.0</ele><time>2026-04-25T10:03:27Z</time></trkpt><trkpt lat="45.935944000709746" lon="12.273823281703562"><ele>105.0</ele><time>2026-04-25T10:03:28Z</time></trkpt><trkpt lat="45.93587775858002" lon="12.2738382980834"><ele>105.0</ele><time>2026-04-25T10:03:29Z</time></trkpt><trkpt lat="45.935810563037215" lon="12.273848111650205"><ele>104.83333333333333</ele><time>2026-04-25T10:03:30Z</time></trkpt><trkpt lat="45.93574029700608" lon="12.273849591343774"><ele>104.66666666666666</ele><time>2026-04-25T10:03:31Z</time></trkpt><trkpt lat="45.93561553085653" lon="12.27391045011078"><ele>104.5</ele><time>2026-04-25T10:03:33Z</time></trkpt><trkpt lat="45.9355488005867" lon="12.273928918425204"><ele>104.33333333333333</ele><time>2026-04-25T10:03:34Z</time></trkpt><trkpt lat="45.935486479350246" lon="12.27394633561251"><ele>104.16666666666666</ele><time>2026-04-25T10:03:35Z</time></trkpt><trkpt lat="45.93541987492148" lon="12.273959331008797"><ele>104.0</ele><time>2026-04-25T10:03:36Z</time></trkpt><trkpt lat="45.93535444410499" lon="12.273978361416685"><ele>103.49999999999999</ele><time>2026-04-25T10:03:37Z</time></trkpt><trkpt lat="45.935288676919455" lon="12.273995100182717"><ele>103.0</ele><time>2026-04-25T10:03:38Z</time></trkpt><trkpt lat="45.93522473534131" lon="12.274015081425881"><ele>102.5</ele><time>2026-04-25T10:03:39Z</time></trkpt><trkpt lat="45.935159823279285" lon="12.274026127035322"><ele>102.0</ele><time>2026-04-25T10:03:40Z</time></trkpt><trkpt lat="45.93503117973188" lon="12.27404976990667"><ele>101.49999999999999</ele><time>2026-04-25T10:03:42Z</time></trkpt><trkpt lat="45.93496865045256" lon="12.27406775064635"><ele>101.0</ele><time>2026-04-25T10:03:43Z</time></trkpt><trkpt lat="45.934903358938854" lon="12.274079450265583"><ele>100.99999999999999</ele><time>2026-04-25T10:03:44Z</time></trkpt><trkpt lat="45.93478304119401" lon="12.274106424801245"><ele>101.0</ele><time>2026-04-25T10:03:46Z</time></trkpt><trkpt lat="45.93471723628057" lon="12.274120895405508"><ele>101.0</ele><time>2026-04-25T10:03:47Z</time></trkpt><trkpt lat="45.93465333129306" lon="12.274140098465072"><ele>101.0</ele><time>2026-04-25T10:03:48Z</time></trkpt><trkpt lat="45.934539419553566" lon="12.274179831566718"><ele>100.99999999999999</ele><time>2026-04-25T10:03:50Z</time></trkpt><trkpt lat="45.9344767824706" lon="12.274195089368272"><ele>101.0</ele><time>2026-04-25T10:03:51Z</time></trkpt><trkpt lat="45.93435435593329" lon="12.274223101718018"><ele>101.0</ele><time>2026-04-25T10:03:53Z</time></trkpt><trkpt lat="45.93424129434042" lon="12.274245892478817"><ele>101.0</ele><time>2026-04-25T10:03:55Z</time></trkpt><trkpt lat="45.93412446409099" lon="12.274271170561732"><ele>101.0</ele><time>2026-04-25T10:03:56.999Z</time></trkpt><trkpt lat="45.934011432955536" lon="12.274303157403837"><ele>101.0</ele><time>2026-04-25T10:03:58.999Z</time></trkpt><trkpt lat="45.93389745108708" lon="12.274337043099859"><ele>101.6</ele><time>2026-04-25T10:04:00.999Z</time></trkpt><trkpt lat="45.93379215235653" lon="12.274367659564176"><ele>102.19999999999999</ele><time>2026-04-25T10:04:02.999Z</time></trkpt><trkpt lat="45.93368431900773" lon="12.274391065498087"><ele>102.80000000000001</ele><time>2026-04-25T10:04:04.999Z</time></trkpt><trkpt lat="45.933590139461685" lon="12.27441535753196"><ele>103.4</ele><time>2026-04-25T10:04:06.999Z</time></trkpt><trkpt lat="45.93350428910113" lon="12.274438387921926"><ele>104.0</ele><time>2026-04-25T10:04:08.999Z</time></trkpt><trkpt lat="45.93342473980426" lon="12.274466025762598"><ele>105.14285714285714</ele><time>2026-04-25T10:04:10.999Z</time></trkpt><trkpt lat="45.93334349177582" lon="12.274478138019804"><ele>106.28571428571429</ele><time>2026-04-25T10:04:12.999Z</time></trkpt><trkpt lat="45.93326956755698" lon="12.274497468222139"><ele>107.42857142857143</ele><time>2026-04-25T10:04:14.999Z</time></trkpt><trkpt lat="45.93320297414619" lon="12.27451637419048"><ele>108.57142857142857</ele><time>2026-04-25T10:04:16.999Z</time></trkpt><trkpt lat="45.93313421574706" lon="12.274542707357094"><ele>109.71428571428572</ele><time>2026-04-25T10:04:18.999Z</time></trkpt><trkpt lat="45.93306987440734" lon="12.274549789074422"><ele>110.85714285714286</ele><time>2026-04-25T10:04:20.999Z</time></trkpt><trkpt lat="45.932985106949936" lon="12.274535879614234"><ele>112.0</ele><time>2026-04-25T10:04:24Z</time></trkpt><trkpt lat="45.932925281141664" lon="12.274485186083362"><ele>112.0</ele><time>2026-04-25T10:04:26Z</time></trkpt><trkpt lat="45.93284898195274" lon="12.274426580172117"><ele>112.0</ele><time>2026-04-25T10:04:29Z</time></trkpt><trkpt lat="45.932801708610356" lon="12.274336059125291"><ele>112.0</ele><time>2026-04-25T10:04:32Z</time></trkpt><trkpt lat="45.932781732604376" lon="12.27424055280579"><ele>112.0</ele><time>2026-04-25T10:04:35Z</time></trkpt><trkpt lat="45.932781536199215" lon="12.274145501601541"><ele>112.0</ele><time>2026-04-25T10:04:38Z</time></trkpt><trkpt lat="45.93280104332112" lon="12.274048793802036"><ele>112.0</ele><time>2026-04-25T10:04:41Z</time></trkpt><trkpt lat="45.932822753797595" lon="12.273959778571967"><ele>112.0</ele><time>2026-04-25T10:04:44Z</time></trkpt><trkpt lat="45.93286219938743" lon="12.27385438916076"><ele>113.00000000000001</ele><time>2026-04-25T10:04:47Z</time></trkpt><trkpt lat="45.93293042857239" lon="12.273777825128365"><ele>114.0</ele><time>2026-04-25T10:04:50Z</time></trkpt><trkpt lat="45.93296210377869" lon="12.2736794695644"><ele>115.0</ele><time>2026-04-25T10:04:53Z</time></trkpt><trkpt lat="45.933011381789385" lon="12.27358230502575"><ele>116.0</ele><time>2026-04-25T10:04:55Z</time></trkpt><trkpt lat="45.93303661533826" lon="12.273492872368573"><ele>117.00000000000001</ele><time>2026-04-25T10:04:57Z</time></trkpt><trkpt lat="45.933064425020326" lon="12.273385000021715"><ele>118.0</ele><time>2026-04-25T10:05:00Z</time></trkpt><trkpt lat="45.933087135439635" lon="12.27327361134313"><ele>118.00000000000001</ele><time>2026-04-25T10:05:03Z</time></trkpt><trkpt lat="45.93308844419254" lon="12.27316567706083"><ele>118.0</ele><time>2026-04-25T10:05:06Z</time></trkpt><trkpt lat="45.93308300768555" lon="12.273057447618198"><ele>118.0</ele><time>2026-04-25T10:05:09Z</time></trkpt><trkpt lat="45.93308033221873" lon="12.272947881182814"><ele>118.0</ele><time>2026-04-25T10:05:12Z</time></trkpt><trkpt lat="45.93305909585224" lon="12.27284053940223"><ele>118.00000000000001</ele><time>2026-04-25T10:05:15Z</time></trkpt><trkpt lat="45.93302794255848" lon="12.272740872587132"><ele>118.0</ele><time>2026-04-25T10:05:18Z</time></trkpt><trkpt lat="45.932989712319696" lon="12.27263792951514"><ele>118.50000000000001</ele><time>2026-04-25T10:05:22Z</time></trkpt><trkpt lat="45.93293915294479" lon="12.272561623969105"><ele>119.0</ele><time>2026-04-25T10:05:25Z</time></trkpt><trkpt lat="45.93289520668877" lon="12.272473667554424"><ele>119.5</ele><time>2026-04-25T10:05:28Z</time></trkpt><trkpt lat="45.932835747927" lon="12.272363910918589"><ele>120.0</ele><time>2026-04-25T10:05:32Z</time></trkpt><trkpt lat="45.93278219674357" lon="12.27228538657203"><ele>120.50000000000001</ele><time>2026-04-25T10:05:34Z</time></trkpt><trkpt lat="45.932716672387336" lon="12.272238763160049"><ele>121.0</ele><time>2026-04-25T10:05:38Z</time></trkpt><trkpt lat="45.93265376319513" lon="12.272190975275535"><ele>122.28571428571428</ele><time>2026-04-25T10:05:42Z</time></trkpt><trkpt lat="45.93259913603984" lon="12.272144939469134"><ele>123.57142857142856</ele><time>2026-04-25T10:05:45Z</time></trkpt><trkpt lat="45.93252310447149" lon="12.272126903553136"><ele>124.85714285714286</ele><time>2026-04-25T10:05:49Z</time></trkpt><trkpt lat="45.93245474956815" lon="12.272119026483175"><ele>126.14285714285714</ele><time>2026-04-25T10:05:52Z</time></trkpt><trkpt lat="45.932391727690586" lon="12.272084768303012"><ele>127.42857142857143</ele><time>2026-04-25T10:05:55Z</time></trkpt><trkpt lat="45.93232725077447" lon="12.272056416951592"><ele>128.71428571428572</ele><time>2026-04-25T10:05:58Z</time></trkpt><trkpt lat="45.932253493111546" lon="12.272009330337683"><ele>130.0</ele><time>2026-04-25T10:06:01Z</time></trkpt><trkpt lat="45.9321799729096" lon="12.271995250981972"><ele>131.2857142857143</ele><time>2026-04-25T10:06:03.999Z</time></trkpt><trkpt lat="45.93211639859747" lon="12.271964250016197"><ele>132.57142857142858</ele><time>2026-04-25T10:06:06.999Z</time></trkpt><trkpt lat="45.93205300678099" lon="12.271935531678917"><ele>133.85714285714286</ele><time>2026-04-25T10:06:09.999Z</time></trkpt><trkpt lat="45.931985587433985" lon="12.271902176204046"><ele>135.14285714285717</ele><time>2026-04-25T10:06:12.999Z</time></trkpt><trkpt lat="45.931924728642805" lon="12.271877385302476"><ele>136.42857142857144</ele><time>2026-04-25T10:06:15.999Z</time></trkpt><trkpt lat="45.93185877355507" lon="12.271824197744046"><ele>137.71428571428572</ele><time>2026-04-25T10:06:19Z</time></trkpt><trkpt lat="45.93178393334097" lon="12.271758287028707"><ele>139.0</ele><time>2026-04-25T10:06:22Z</time></trkpt><trkpt lat="45.93172880151611" lon="12.271703880566065"><ele>140.0</ele><time>2026-04-25T10:06:25Z</time></trkpt><trkpt lat="45.93167752022342" lon="12.271626879713963"><ele>141.0</ele><time>2026-04-25T10:06:28Z</time></trkpt><trkpt lat="45.931626004842755" lon="12.271565846791667"><ele>142.0</ele><time>2026-04-25T10:06:31Z</time></trkpt><trkpt lat="45.93157347982719" lon="12.271485230291406"><ele>143.0</ele><time>2026-04-25T10:06:34Z</time></trkpt><trkpt lat="45.931517061202484" lon="12.271407142026177"><ele>144.0</ele><time>2026-04-25T10:06:37Z</time></trkpt><trkpt lat="45.9314762488528" lon="12.27130193468715"><ele>145.0</ele><time>2026-04-25T10:06:40Z</time></trkpt><trkpt lat="45.93143141838187" lon="12.271223766156398"><ele>147.33333333333334</ele><time>2026-04-25T10:06:43Z</time></trkpt><trkpt lat="45.93138609495275" lon="12.271142765261189"><ele>149.66666666666669</ele><time>2026-04-25T10:06:46Z</time></trkpt><trkpt lat="45.93134633579769" lon="12.271060420773201"><ele>152.0</ele><time>2026-04-25T10:06:49Z</time></trkpt><trkpt lat="45.93129710793494" lon="12.270948492307024"><ele>154.33333333333334</ele><time>2026-04-25T10:06:53Z</time></trkpt><trkpt lat="45.931253898371196" lon="12.270855853295396"><ele>156.66666666666666</ele><time>2026-04-25T10:06:57Z</time></trkpt><trkpt lat="45.931223974100476" lon="12.270762010071513"><ele>159.0</ele><time>2026-04-25T10:07:01Z</time></trkpt><trkpt lat="45.93117679596681" lon="12.270669922389695"><ele>161.28571428571428</ele><time>2026-04-25T10:07:05Z</time></trkpt><trkpt lat="45.93115066005256" lon="12.270572015832064"><ele>163.57142857142858</ele><time>2026-04-25T10:07:09Z</time></trkpt><trkpt lat="45.931123304077516" lon="12.270464681920965"><ele>165.85714285714286</ele><time>2026-04-25T10:07:13Z</time></trkpt><trkpt lat="45.93109224187502" lon="12.27036535063472"><ele>168.14285714285714</ele><time>2026-04-25T10:07:17Z</time></trkpt><trkpt lat="45.931046365687635" lon="12.27027063236724"><ele>170.42857142857144</ele><time>2026-04-25T10:07:21Z</time></trkpt><trkpt lat="45.93100129194509" lon="12.27019803963184"><ele>172.71428571428572</ele><time>2026-04-25T10:07:24Z</time></trkpt><trkpt lat="45.93096324651282" lon="12.270121285612396"><ele>175.0</ele><time>2026-04-25T10:07:27Z</time></trkpt><trkpt lat="45.93092973382781" lon="12.270020684985848"><ele>175.0</ele><time>2026-04-25T10:07:30Z</time></trkpt><trkpt lat="45.93089468404434" lon="12.269905681622214"><ele>175.0</ele><time>2026-04-25T10:07:33Z</time></trkpt><trkpt lat="45.930856338137296" lon="12.26979760048993"><ele>175.0</ele><time>2026-04-25T10:07:37Z</time></trkpt><trkpt lat="45.930820930174335" lon="12.269702577934522"><ele>175.0</ele><time>2026-04-25T10:07:40Z</time></trkpt><trkpt lat="45.930766161943694" lon="12.269604039579333"><ele>175.0</ele><time>2026-04-25T10:07:43Z</time></trkpt><trkpt lat="45.93072686725836" lon="12.269482462912285"><ele>175.0</ele><time>2026-04-25T10:07:45Z</time></trkpt><trkpt lat="45.93068296212042" lon="12.269357454605995"><ele>173.8</ele><time>2026-04-25T10:07:47Z</time></trkpt><trkpt lat="45.930620260418905" lon="12.26925128095981"><ele>172.6</ele><time>2026-04-25T10:07:49Z</time></trkpt><trkpt lat="45.93056388988104" lon="12.26914324440893"><ele>171.39999999999998</ele><time>2026-04-25T10:07:51Z</time></trkpt><trkpt lat="45.93046663709714" lon="12.269051618572012"><ele>170.2</ele><time>2026-04-25T10:07:53Z</time></trkpt><trkpt lat="45.930359747594196" lon="12.268944670339096"><ele>169.0</ele><time>2026-04-25T10:07:55Z</time></trkpt><trkpt lat="45.93028052546288" lon="12.268896962626993"><ele>168.5</ele><time>2026-04-25T10:07:59Z</time></trkpt><trkpt lat="45.93017289429124" lon="12.268877220783157"><ele>168.0</ele><time>2026-04-25T10:08:00Z</time></trkpt><trkpt lat="45.930088588104816" lon="12.26885217318897"><ele>167.5</ele><time>2026-04-25T10:08:01Z</time></trkpt><trkpt lat="45.930010962153766" lon="12.268859511258626"><ele>167.0</ele><time>2026-04-25T10:08:02Z</time></trkpt><trkpt lat="45.92994398038859" lon="12.268880516329009"><ele>166.5</ele><time>2026-04-25T10:08:03Z</time></trkpt><trkpt lat="45.92988255820783" lon="12.268905500338972"><ele>166.0</ele><time>2026-04-25T10:08:04Z</time></trkpt><trkpt lat="45.92980739149771" lon="12.26892842342753"><ele>166.5</ele><time>2026-04-25T10:08:05Z</time></trkpt><trkpt lat="45.92972905143215" lon="12.268955093524443"><ele>167.0</ele><time>2026-04-25T10:08:06Z</time></trkpt><trkpt lat="45.929663079900294" lon="12.268980284762359"><ele>167.5</ele><time>2026-04-25T10:08:07Z</time></trkpt><trkpt lat="45.92959385275355" lon="12.269002997985227"><ele>168.0</ele><time>2026-04-25T10:08:08Z</time></trkpt><trkpt lat="45.929515161143215" lon="12.269048535577483"><ele>168.5</ele><time>2026-04-25T10:08:09Z</time></trkpt><trkpt lat="45.92944943535583" lon="12.26909689691706"><ele>169.0</ele><time>2026-04-25T10:08:10Z</time></trkpt><trkpt lat="45.92937971317511" lon="12.269135678643211"><ele>169.0</ele><time>2026-04-25T10:08:11Z</time></trkpt><trkpt lat="45.92931377487534" lon="12.269178872173354"><ele>169.0</ele><time>2026-04-25T10:08:12Z</time></trkpt><trkpt lat="45.929249164687654" lon="12.269219760687903"><ele>169.0</ele><time>2026-04-25T10:08:13Z</time></trkpt><trkpt lat="45.92917686572154" lon="12.269254729254214"><ele>169.0</ele><time>2026-04-25T10:08:14Z</time></trkpt><trkpt lat="45.929113126052584" lon="12.269300612506461"><ele>169.0</ele><time>2026-04-25T10:08:15Z</time></trkpt><trkpt lat="45.92903581594166" lon="12.269334624418251"><ele>169.0</ele><time>2026-04-25T10:08:16Z</time></trkpt><trkpt lat="45.9289586563364" lon="12.26936911076223"><ele>168.33333333333334</ele><time>2026-04-25T10:08:17Z</time></trkpt><trkpt lat="45.928885417750216" lon="12.26941470753354"><ele>167.66666666666669</ele><time>2026-04-25T10:08:18Z</time></trkpt><trkpt lat="45.928816334501334" lon="12.26946070539996"><ele>167.0</ele><time>2026-04-25T10:08:19Z</time></trkpt><trkpt lat="45.928751711032355" lon="12.269503304216284"><ele>166.33333333333334</ele><time>2026-04-25T10:08:20Z</time></trkpt><trkpt lat="45.92867471920617" lon="12.269559037564699"><ele>165.66666666666666</ele><time>2026-04-25T10:08:21Z</time></trkpt><trkpt lat="45.92859966145832" lon="12.269610071288007"><ele>165.0</ele><time>2026-04-25T10:08:22Z</time></trkpt><trkpt lat="45.92852746138422" lon="12.269663990546576"><ele>165.0</ele><time>2026-04-25T10:08:23Z</time></trkpt><trkpt lat="45.9284460312835" lon="12.269732823122157"><ele>165.0</ele><time>2026-04-25T10:08:24Z</time></trkpt><trkpt lat="45.92838076318498" lon="12.26979511542315"><ele>165.0</ele><time>2026-04-25T10:08:25Z</time></trkpt><trkpt lat="45.92831069506745" lon="12.26986933311904"><ele>165.0</ele><time>2026-04-25T10:08:26Z</time></trkpt><trkpt lat="45.928238951393794" lon="12.269946648129846"><ele>165.0</ele><time>2026-04-25T10:08:27Z</time></trkpt><trkpt lat="45.92816968399718" lon="12.270012946336704"><ele>165.0</ele><time>2026-04-25T10:08:28Z</time></trkpt><trkpt lat="45.928109162547806" lon="12.27009806304347"><ele>164.83333333333334</ele><time>2026-04-25T10:08:29Z</time></trkpt><trkpt lat="45.928047846629376" lon="12.270183013461127"><ele>164.66666666666666</ele><time>2026-04-25T10:08:30Z</time></trkpt><trkpt lat="45.927984391948335" lon="12.270262987736377"><ele>164.5</ele><time>2026-04-25T10:08:31Z</time></trkpt><trkpt lat="45.927923108853534" lon="12.270342909794563"><ele>164.33333333333331</ele><time>2026-04-25T10:08:32Z</time></trkpt><trkpt lat="45.927861768846284" lon="12.270430354954124"><ele>164.16666666666666</ele><time>2026-04-25T10:08:33Z</time></trkpt><trkpt lat="45.92781189795053" lon="12.270508947528054"><ele>164.0</ele><time>2026-04-25T10:08:34Z</time></trkpt><trkpt lat="45.92776338524464" lon="12.270593356979045"><ele>163.0</ele><time>2026-04-25T10:08:35Z</time></trkpt><trkpt lat="45.92770383167523" lon="12.270682676051374"><ele>162.0</ele><time>2026-04-25T10:08:36Z</time></trkpt><trkpt lat="45.927640905210296" lon="12.270762389956282"><ele>161.0</ele><time>2026-04-25T10:08:37Z</time></trkpt><trkpt lat="45.927573812543486" lon="12.270842992634684"><ele>160.0</ele><time>2026-04-25T10:08:38Z</time></trkpt><trkpt lat="45.92751765364729" lon="12.27092150537945"><ele>159.0</ele><time>2026-04-25T10:08:39Z</time></trkpt><trkpt lat="45.92746399521711" lon="12.27100769161992"><ele>158.0</ele><time>2026-04-25T10:08:40Z</time></trkpt><trkpt lat="45.927410298484354" lon="12.271093467929678"><ele>158.0</ele><time>2026-04-25T10:08:41Z</time></trkpt><trkpt lat="45.927352411266426" lon="12.271183818950371"><ele>158.0</ele><time>2026-04-25T10:08:42Z</time></trkpt><trkpt lat="45.92729734099246" lon="12.271273941152504"><ele>158.0</ele><time>2026-04-25T10:08:43Z</time></trkpt><trkpt lat="45.92724098332163" lon="12.271359091135986"><ele>158.0</ele><time>2026-04-25T10:08:44Z</time></trkpt><trkpt lat="45.927174491965104" lon="12.271441683034098"><ele>158.0</ele><time>2026-04-25T10:08:45Z</time></trkpt><trkpt lat="45.92711462212197" lon="12.271528765656953"><ele>158.0</ele><time>2026-04-25T10:08:46Z</time></trkpt><trkpt lat="45.92705905422871" lon="12.271616612718965"><ele>158.5</ele><time>2026-04-25T10:08:47Z</time></trkpt><trkpt lat="45.927005758875445" lon="12.271705781082165"><ele>159.0</ele><time>2026-04-25T10:08:48Z</time></trkpt><trkpt lat="45.92694965107212" lon="12.271788116410242"><ele>159.5</ele><time>2026-04-25T10:08:49Z</time></trkpt><trkpt lat="45.92688196443708" lon="12.271865774239778"><ele>160.0</ele><time>2026-04-25T10:08:50Z</time></trkpt><trkpt lat="45.9267984735199" lon="12.271934579386846"><ele>160.5</ele><time>2026-04-25T10:08:51Z</time></trkpt><trkpt lat="45.92670344705171" lon="12.271990157919408"><ele>161.0</ele><time>2026-04-25T10:08:52Z</time></trkpt><trkpt lat="45.92661272907286" lon="12.27205794761472"><ele>161.0</ele><time>2026-04-25T10:08:53Z</time></trkpt><trkpt lat="45.92652946409084" lon="12.27212790211899"><ele>161.0</ele><time>2026-04-25T10:08:54Z</time></trkpt><trkpt lat="45.926449581694094" lon="12.272194898382148"><ele>161.0</ele><time>2026-04-25T10:08:55Z</time></trkpt><trkpt lat="45.926376810053874" lon="12.272257331741342"><ele>161.0</ele><time>2026-04-25T10:08:56Z</time></trkpt><trkpt lat="45.9263204903002" lon="12.272328294839351"><ele>161.0</ele><time>2026-04-25T10:08:57Z</time></trkpt><trkpt lat="45.926252500062716" lon="12.272407712794086"><ele>161.0</ele><time>2026-04-25T10:08:58Z</time></trkpt><trkpt lat="45.92617383865889" lon="12.272481517395"><ele>161.25</ele><time>2026-04-25T10:08:59Z</time></trkpt><trkpt lat="45.92609133046116" lon="12.272547081364598"><ele>161.5</ele><time>2026-04-25T10:09:00Z</time></trkpt><trkpt lat="45.92593855409586" lon="12.272689304870235"><ele>161.75</ele><time>2026-04-25T10:09:02Z</time></trkpt><trkpt lat="45.92586167322206" lon="12.272743990670556"><ele>162.0</ele><time>2026-04-25T10:09:03Z</time></trkpt><trkpt lat="45.9257817246504" lon="12.272822958011016"><ele>162.0</ele><time>2026-04-25T10:09:04Z</time></trkpt><trkpt lat="45.9256926768757" lon="12.27293067668514"><ele>162.0</ele><time>2026-04-25T10:09:05Z</time></trkpt><trkpt lat="45.92561131409806" lon="12.272999751687133"><ele>162.0</ele><time>2026-04-25T10:09:06Z</time></trkpt><trkpt lat="45.92553399254114" lon="12.273068444849336"><ele>162.0</ele><time>2026-04-25T10:09:07Z</time></trkpt><trkpt lat="45.92545713432165" lon="12.273143647548178"><ele>162.0</ele><time>2026-04-25T10:09:08Z</time></trkpt><trkpt lat="45.92536897433173" lon="12.273222350392686"><ele>161.0</ele><time>2026-04-25T10:09:09Z</time></trkpt><trkpt lat="45.92528140989503" lon="12.273311056000583"><ele>160.0</ele><time>2026-04-25T10:09:10Z</time></trkpt><trkpt lat="45.925200374871075" lon="12.273396378646114"><ele>159.0</ele><time>2026-04-25T10:09:11Z</time></trkpt><trkpt lat="45.92511964242372" lon="12.273475135881828"><ele>158.0</ele><time>2026-04-25T10:09:12Z</time></trkpt><trkpt lat="45.92503897956649" lon="12.27355580619097"><ele>157.0</ele><time>2026-04-25T10:09:13Z</time></trkpt><trkpt lat="45.92496099059341" lon="12.273653268753444"><ele>157.0</ele><time>2026-04-25T10:09:14Z</time></trkpt><trkpt lat="45.924883009866576" lon="12.273754156040573"><ele>157.0</ele><time>2026-04-25T10:09:15Z</time></trkpt><trkpt lat="45.92480734117633" lon="12.27385016801034"><ele>157.0</ele><time>2026-04-25T10:09:16Z</time></trkpt><trkpt lat="45.92473287666502" lon="12.273949149441625"><ele>157.0</ele><time>2026-04-25T10:09:17Z</time></trkpt><trkpt lat="45.92465408933004" lon="12.274048405770639"><ele>157.0</ele><time>2026-04-25T10:09:18Z</time></trkpt><trkpt lat="45.9245795788052" lon="12.274151950085512"><ele>155.79999999999998</ele><time>2026-04-25T10:09:19Z</time></trkpt><trkpt lat="45.92450075977072" lon="12.274254206618881"><ele>154.6</ele><time>2026-04-25T10:09:20Z</time></trkpt><trkpt lat="45.924426824515706" lon="12.274357673896022"><ele>153.39999999999998</ele><time>2026-04-25T10:09:21Z</time></trkpt><trkpt lat="45.92433637002734" lon="12.27445177911265"><ele>152.2</ele><time>2026-04-25T10:09:22Z</time></trkpt><trkpt lat="45.92425452110432" lon="12.274547173298215"><ele>151.0</ele><time>2026-04-25T10:09:23Z</time></trkpt><trkpt lat="45.924167053794" lon="12.274640400382205"><ele>150.4</ele><time>2026-04-25T10:09:24Z</time></trkpt><trkpt lat="45.924082646696355" lon="12.274729148126637"><ele>149.8</ele><time>2026-04-25T10:09:25Z</time></trkpt><trkpt lat="45.92399951873872" lon="12.274806161603909"><ele>149.20000000000002</ele><time>2026-04-25T10:09:26Z</time></trkpt><trkpt lat="45.92391358852282" lon="12.274887959543333"><ele>148.6</ele><time>2026-04-25T10:09:27Z</time></trkpt><trkpt lat="45.92383564210774" lon="12.274967367940913"><ele>148.0</ele><time>2026-04-25T10:09:28Z</time></trkpt><trkpt lat="45.92375425967558" lon="12.275048327135492"><ele>148.0</ele><time>2026-04-25T10:09:29Z</time></trkpt><trkpt lat="45.92367337107987" lon="12.275133631426305"><ele>148.0</ele><time>2026-04-25T10:09:30Z</time></trkpt><trkpt lat="45.923590566707325" lon="12.275210863198884"><ele>148.0</ele><time>2026-04-25T10:09:31Z</time></trkpt><trkpt lat="45.92350784468549" lon="12.275292334688961"><ele>148.0</ele><time>2026-04-25T10:09:32Z</time></trkpt><trkpt lat="45.923426069650134" lon="12.27536962048694"><ele>148.0</ele><time>2026-04-25T10:09:33Z</time></trkpt><trkpt lat="45.923349361379465" lon="12.275447506958733"><ele>148.0</ele><time>2026-04-25T10:09:34Z</time></trkpt><trkpt lat="45.923271656706554" lon="12.27553789157467"><ele>148.0</ele><time>2026-04-25T10:09:35Z</time></trkpt><trkpt lat="45.923192995504145" lon="12.27562312825942"><ele>148.0</ele><time>2026-04-25T10:09:36Z</time></trkpt><trkpt lat="45.923117715713325" lon="12.275698310054587"><ele>148.0</ele><time>2026-04-25T10:09:37Z</time></trkpt><trkpt lat="45.92304438999376" lon="12.275780625119054"><ele>148.0</ele><time>2026-04-25T10:09:38Z</time></trkpt><trkpt lat="45.922964698765426" lon="12.27586362892228"><ele>148.0</ele><time>2026-04-25T10:09:39Z</time></trkpt><trkpt lat="45.92288359119803" lon="12.275944297877682"><ele>148.0</ele><time>2026-04-25T10:09:40Z</time></trkpt><trkpt lat="45.922803309412245" lon="12.276017486291762"><ele>148.0</ele><time>2026-04-25T10:09:41Z</time></trkpt><trkpt lat="45.922715720566195" lon="12.276092410047323"><ele>148.0</ele><time>2026-04-25T10:09:42Z</time></trkpt><trkpt lat="45.922627787332836" lon="12.276152723150735"><ele>148.0</ele><time>2026-04-25T10:09:43Z</time></trkpt><trkpt lat="45.92253794535411" lon="12.276208766541444"><ele>146.6</ele><time>2026-04-25T10:09:44Z</time></trkpt><trkpt lat="45.922451108309474" lon="12.276265133944571"><ele>145.20000000000002</ele><time>2026-04-25T10:09:45Z</time></trkpt><trkpt lat="45.922368126618316" lon="12.276313491789166"><ele>143.8</ele><time>2026-04-25T10:09:46Z</time></trkpt><trkpt lat="45.922292684768166" lon="12.276349716768529"><ele>142.4</ele><time>2026-04-25T10:09:47Z</time></trkpt><trkpt lat="45.92220867933747" lon="12.276386209109804"><ele>141.0</ele><time>2026-04-25T10:09:48Z</time></trkpt><trkpt lat="45.92211092553523" lon="12.276405543070963"><ele>141.5</ele><time>2026-04-25T10:09:49Z</time></trkpt><trkpt lat="45.92203023203212" lon="12.276450480643813"><ele>142.0</ele><time>2026-04-25T10:09:50Z</time></trkpt><trkpt lat="45.921949528162884" lon="12.276502320384017"><ele>142.5</ele><time>2026-04-25T10:09:51Z</time></trkpt><trkpt lat="45.9218755927294" lon="12.27652615350823"><ele>143.0</ele><time>2026-04-25T10:09:52Z</time></trkpt><trkpt lat="45.921800089898404" lon="12.27654996948384"><ele>143.5</ele><time>2026-04-25T10:09:53Z</time></trkpt><trkpt lat="45.92172558853152" lon="12.276575775595772"><ele>144.0</ele><time>2026-04-25T10:09:54Z</time></trkpt><trkpt lat="45.92165352953355" lon="12.276595253720751"><ele>144.0</ele><time>2026-04-25T10:09:55Z</time></trkpt><trkpt lat="45.921582686284665" lon="12.276629440459795"><ele>144.0</ele><time>2026-04-25T10:09:56Z</time></trkpt><trkpt lat="45.92150612652896" lon="12.276653361386227"><ele>144.0</ele><time>2026-04-25T10:09:57Z</time></trkpt><trkpt lat="45.92143162400031" lon="12.276680193020514"><ele>144.0</ele><time>2026-04-25T10:09:58Z</time></trkpt><trkpt lat="45.9213511228339" lon="12.276681697584975"><ele>144.0</ele><time>2026-04-25T10:09:59Z</time></trkpt><trkpt lat="45.92126698347223" lon="12.276695616907997"><ele>144.0</ele><time>2026-04-25T10:10:00Z</time></trkpt><trkpt lat="45.92118206043608" lon="12.27672546067315"><ele>144.0</ele><time>2026-04-25T10:10:01Z</time></trkpt><trkpt lat="45.92109363959906" lon="12.276744393955395"><ele>144.0</ele><time>2026-04-25T10:10:02Z</time></trkpt><trkpt lat="45.921006185218054" lon="12.276762502693556"><ele>144.0</ele><time>2026-04-25T10:10:03Z</time></trkpt><trkpt lat="45.92091578118947" lon="12.276778272397175"><ele>144.0</ele><time>2026-04-25T10:10:04Z</time></trkpt><trkpt lat="45.92082714063542" lon="12.276797302619634"><ele>144.0</ele><time>2026-04-25T10:10:05Z</time></trkpt><trkpt lat="45.92074488170426" lon="12.276820925800031"><ele>144.0</ele><time>2026-04-25T10:10:06Z</time></trkpt><trkpt lat="45.92065288954218" lon="12.276854819424685"><ele>143.8</ele><time>2026-04-25T10:10:07Z</time></trkpt><trkpt lat="45.92055733161301" lon="12.276903962680986"><ele>143.60000000000002</ele><time>2026-04-25T10:10:08Z</time></trkpt><trkpt lat="45.92045722099723" lon="12.276952927351216"><ele>143.4</ele><time>2026-04-25T10:10:09Z</time></trkpt><trkpt lat="45.92036123757238" lon="12.277022035700089"><ele>143.20000000000002</ele><time>2026-04-25T10:10:10Z</time></trkpt><trkpt lat="45.92026494209082" lon="12.277105525461534"><ele>143.0</ele><time>2026-04-25T10:10:11Z</time></trkpt><trkpt lat="45.92016678659922" lon="12.277176004095194"><ele>143.0</ele><time>2026-04-25T10:10:12Z</time></trkpt><trkpt lat="45.92006950913852" lon="12.277248944441363"><ele>143.0</ele><time>2026-04-25T10:10:13Z</time></trkpt><trkpt lat="45.91996577622757" lon="12.277324687332719"><ele>143.0</ele><time>2026-04-25T10:10:14Z</time></trkpt><trkpt lat="45.91985853436388" lon="12.277413068068185"><ele>143.0</ele><time>2026-04-25T10:10:15Z</time></trkpt><trkpt lat="45.91974998693195" lon="12.277489089960788"><ele>141.5</ele><time>2026-04-25T10:10:16Z</time></trkpt><trkpt lat="45.91963684206187" lon="12.277569126913958"><ele>140.0</ele><time>2026-04-25T10:10:17Z</time></trkpt><trkpt lat="45.9195272569889" lon="12.277647378965149"><ele>138.5</ele><time>2026-04-25T10:10:18Z</time></trkpt><trkpt lat="45.91941859054368" lon="12.277724078595712"><ele>137.0</ele><time>2026-04-25T10:10:19Z</time></trkpt><trkpt lat="45.91930864129159" lon="12.277788787384404"><ele>134.5</ele><time>2026-04-25T10:10:20Z</time></trkpt><trkpt lat="45.91919237179447" lon="12.277851323770136"><ele>132.0</ele><time>2026-04-25T10:10:21Z</time></trkpt><trkpt lat="45.91907400382796" lon="12.27789750944981"><ele>129.5</ele><time>2026-04-25T10:10:22Z</time></trkpt><trkpt lat="45.918956423766396" lon="12.277923455159636"><ele>127.0</ele><time>2026-04-25T10:10:23Z</time></trkpt><trkpt lat="45.91883415802525" lon="12.277947165112163"><ele>127.0</ele><time>2026-04-25T10:10:24Z</time></trkpt><trkpt lat="45.91870803650798" lon="12.277961546000965"><ele>127.0</ele><time>2026-04-25T10:10:25Z</time></trkpt><trkpt lat="45.91858272011855" lon="12.277971360192767"><ele>127.0</ele><time>2026-04-25T10:10:26Z</time></trkpt><trkpt lat="45.91846211556747" lon="12.277979690474142"><ele>127.0</ele><time>2026-04-25T10:10:27Z</time></trkpt><trkpt lat="45.91834221641142" lon="12.27798289668955"><ele>124.25</ele><time>2026-04-25T10:10:28Z</time></trkpt><trkpt lat="45.91821778178752" lon="12.277994987703075"><ele>121.5</ele><time>2026-04-25T10:10:29Z</time></trkpt><trkpt lat="45.91809057563328" lon="12.278014864198314"><ele>118.75</ele><time>2026-04-25T10:10:30Z</time></trkpt><trkpt lat="45.91796634001186" lon="12.278042626341684"><ele>116.0</ele><time>2026-04-25T10:10:31Z</time></trkpt><trkpt lat="45.917846456207" lon="12.278088188002155"><ele>117.0</ele><time>2026-04-25T10:10:32Z</time></trkpt><trkpt lat="45.91773589032945" lon="12.278157190116287"><ele>118.0</ele><time>2026-04-25T10:10:33Z</time></trkpt><trkpt lat="45.91762537313888" lon="12.278246085720857"><ele>119.0</ele><time>2026-04-25T10:10:34Z</time></trkpt><trkpt lat="45.91752218374177" lon="12.278329334883583"><ele>120.0</ele><time>2026-04-25T10:10:35Z</time></trkpt><trkpt lat="45.91742109077264" lon="12.278405513449394"><ele>120.0</ele><time>2026-04-25T10:10:36Z</time></trkpt><trkpt lat="45.91731218717754" lon="12.278471327414685"><ele>120.0</ele><time>2026-04-25T10:10:37Z</time></trkpt><trkpt lat="45.917208862244955" lon="12.278542300073022"><ele>120.0</ele><time>2026-04-25T10:10:38Z</time></trkpt><trkpt lat="45.917109063126354" lon="12.278618210130306"><ele>120.0</ele><time>2026-04-25T10:10:39Z</time></trkpt><trkpt lat="45.91701377814876" lon="12.278693352015628"><ele>120.0</ele><time>2026-04-25T10:10:40Z</time></trkpt><trkpt lat="45.91692320952024" lon="12.278763797090154"><ele>120.0</ele><time>2026-04-25T10:10:41Z</time></trkpt><trkpt lat="45.916833997359376" lon="12.278835005660156"><ele>120.0</ele><time>2026-04-25T10:10:42Z</time></trkpt><trkpt lat="45.916739292273874" lon="12.278891702577878"><ele>120.0</ele><time>2026-04-25T10:10:43Z</time></trkpt><trkpt lat="45.916651138241654" lon="12.278952221123426"><ele>120.0</ele><time>2026-04-25T10:10:44Z</time></trkpt><trkpt lat="45.91656467119344" lon="12.279017302964576"><ele>119.6</ele><time>2026-04-25T10:10:45Z</time></trkpt><trkpt lat="45.916477314797454" lon="12.279082782845137"><ele>119.2</ele><time>2026-04-25T10:10:46Z</time></trkpt><trkpt lat="45.91639415220635" lon="12.279146671877603"><ele>118.80000000000001</ele><time>2026-04-25T10:10:47Z</time></trkpt><trkpt lat="45.91630552844694" lon="12.279218359145302"><ele>118.4</ele><time>2026-04-25T10:10:48Z</time></trkpt><trkpt lat="45.916213606632645" lon="12.279288571438189"><ele>118.0</ele><time>2026-04-25T10:10:49Z</time></trkpt><trkpt lat="45.91611580160622" lon="12.279351535076424"><ele>118.0</ele><time>2026-04-25T10:10:50Z</time></trkpt><trkpt lat="45.91601536119223" lon="12.27939219827422"><ele>118.00000000000001</ele><time>2026-04-25T10:10:51Z</time></trkpt><trkpt lat="45.91590827565094" lon="12.279409436972706"><ele>118.00000000000001</ele><time>2026-04-25T10:10:52Z</time></trkpt><trkpt lat="45.915798619382755" lon="12.279401756410092"><ele>118.0</ele><time>2026-04-25T10:10:53Z</time></trkpt><trkpt lat="45.91568980682006" lon="12.279379609648075"><ele>118.0</ele><time>2026-04-25T10:10:54Z</time></trkpt><trkpt lat="45.91558256094914" lon="12.279359785908518"><ele>117.0</ele><time>2026-04-25T10:10:55Z</time></trkpt><trkpt lat="45.915475104499805" lon="12.279337832269876"><ele>116.00000000000001</ele><time>2026-04-25T10:10:56Z</time></trkpt><trkpt lat="45.91536875744714" lon="12.279324799334464"><ele>115.00000000000001</ele><time>2026-04-25T10:10:57Z</time></trkpt><trkpt lat="45.91525482597827" lon="12.279311335563602"><ele>114.0</ele><time>2026-04-25T10:10:58Z</time></trkpt><trkpt lat="45.91514054100998" lon="12.279306230439705"><ele>113.0</ele><time>2026-04-25T10:10:59Z</time></trkpt><trkpt lat="45.9150291023226" lon="12.279308877408079"><ele>113.0</ele><time>2026-04-25T10:11:00Z</time></trkpt><trkpt lat="45.91491710825375" lon="12.279323501236794"><ele>113.00000000000001</ele><time>2026-04-25T10:11:01Z</time></trkpt><trkpt lat="45.914810667612656" lon="12.279349423676521"><ele>113.00000000000001</ele><time>2026-04-25T10:11:02Z</time></trkpt><trkpt lat="45.914711100991894" lon="12.279381362822773"><ele>113.0</ele><time>2026-04-25T10:11:03Z</time></trkpt><trkpt lat="45.91460935219888" lon="12.279422480611753"><ele>113.0</ele><time>2026-04-25T10:11:04Z</time></trkpt><trkpt lat="45.91450771090132" lon="12.279446159662964"><ele>113.0</ele><time>2026-04-25T10:11:05Z</time></trkpt><trkpt lat="45.91440806031476" lon="12.27948345246197"><ele>113.00000000000001</ele><time>2026-04-25T10:11:06Z</time></trkpt><trkpt lat="45.91431220206352" lon="12.27951924545193"><ele>113.00000000000001</ele><time>2026-04-25T10:11:07Z</time></trkpt><trkpt lat="45.914213655331125" lon="12.279545710280544"><ele>113.0</ele><time>2026-04-25T10:11:08Z</time></trkpt><trkpt lat="45.91412518461016" lon="12.279597550338867"><ele>113.0</ele><time>2026-04-25T10:11:09Z</time></trkpt><trkpt lat="45.91404315916865" lon="12.279643657860383"><ele>112.60000000000001</ele><time>2026-04-25T10:11:10Z</time></trkpt><trkpt lat="45.91395901540156" lon="12.279697526609327"><ele>112.20000000000002</ele><time>2026-04-25T10:11:11Z</time></trkpt><trkpt lat="45.91387126706755" lon="12.279743287634824"><ele>111.8</ele><time>2026-04-25T10:11:12Z</time></trkpt><trkpt lat="45.91378479873005" lon="12.279779050892989"><ele>111.4</ele><time>2026-04-25T10:11:13Z</time></trkpt><trkpt lat="45.91369906716823" lon="12.279808586309205"><ele>111.0</ele><time>2026-04-25T10:11:14Z</time></trkpt><trkpt lat="45.91360941626627" lon="12.279825961079316"><ele>110.19999999999999</ele><time>2026-04-25T10:11:15Z</time></trkpt><trkpt lat="45.913513606159064" lon="12.279842799334201"><ele>109.39999999999999</ele><time>2026-04-25T10:11:16Z</time></trkpt><trkpt lat="45.91341192725664" lon="12.279859554037376"><ele>108.6</ele><time>2026-04-25T10:11:17Z</time></trkpt><trkpt lat="45.91330533527163" lon="12.279867445665504"><ele>107.8</ele><time>2026-04-25T10:11:18Z</time></trkpt><trkpt lat="45.913194459891095" lon="12.279871405004537"><ele>107.0</ele><time>2026-04-25T10:11:19Z</time></trkpt><trkpt lat="45.91307881113379" lon="12.27986947078189"><ele>107.0</ele><time>2026-04-25T10:11:20Z</time></trkpt><trkpt lat="45.91296297330025" lon="12.279861060391156"><ele>107.0</ele><time>2026-04-25T10:11:21Z</time></trkpt><trkpt lat="45.91284102166693" lon="12.279854949606417"><ele>107.0</ele><time>2026-04-25T10:11:22Z</time></trkpt><trkpt lat="45.912710456477846" lon="12.279843287259196"><ele>107.0</ele><time>2026-04-25T10:11:23Z</time></trkpt><trkpt lat="45.912567074978476" lon="12.279850439549238"><ele>105.25</ele><time>2026-04-25T10:11:24Z</time></trkpt><trkpt lat="45.9124344436049" lon="12.279876523704132"><ele>103.5</ele><time>2026-04-25T10:11:25Z</time></trkpt><trkpt lat="45.912304244418394" lon="12.279905562513864"><ele>101.75</ele><time>2026-04-25T10:11:26Z</time></trkpt><trkpt lat="45.912167271272274" lon="12.279948383502475"><ele>100.0</ele><time>2026-04-25T10:11:27Z</time></trkpt><trkpt lat="45.91202793296832" lon="12.279979199584503"><ele>100.0</ele><time>2026-04-25T10:11:28Z</time></trkpt><trkpt lat="45.911891430781196" lon="12.28001185592709"><ele>100.0</ele><time>2026-04-25T10:11:29Z</time></trkpt><trkpt lat="45.911756640494595" lon="12.280046451023054"><ele>100.0</ele><time>2026-04-25T10:11:30Z</time></trkpt><trkpt lat="45.91162099979183" lon="12.28007449323224"><ele>100.0</ele><time>2026-04-25T10:11:31Z</time></trkpt><trkpt lat="45.91149382741577" lon="12.28010487273653"><ele>98.5</ele><time>2026-04-25T10:11:32Z</time></trkpt><trkpt lat="45.91136029299445" lon="12.280141060007338"><ele>97.0</ele><time>2026-04-25T10:11:33Z</time></trkpt><trkpt lat="45.91124910290742" lon="12.280230041370979"><ele>95.5</ele><time>2026-04-25T10:11:34Z</time></trkpt><trkpt lat="45.911146992972775" lon="12.280341446319527"><ele>94.0</ele><time>2026-04-25T10:11:35Z</time></trkpt><trkpt lat="45.911059826799146" lon="12.280464327649058"><ele>94.0</ele><time>2026-04-25T10:11:36Z</time></trkpt><trkpt lat="45.910978712279" lon="12.280580511322182"><ele>94.0</ele><time>2026-04-25T10:11:37Z</time></trkpt><trkpt lat="45.91089593686169" lon="12.280695188574638"><ele>94.0</ele><time>2026-04-25T10:11:38Z</time></trkpt><trkpt lat="45.910812392933245" lon="12.280804917554676"><ele>94.0</ele><time>2026-04-25T10:11:39Z</time></trkpt><trkpt lat="45.91072687934692" lon="12.28092135386381"><ele>93.0</ele><time>2026-04-25T10:11:40Z</time></trkpt><trkpt lat="45.91064421774616" lon="12.281032676007978"><ele>92.0</ele><time>2026-04-25T10:11:41Z</time></trkpt><trkpt lat="45.91055316090486" lon="12.281147093525037"><ele>91.0</ele><time>2026-04-25T10:11:42Z</time></trkpt><trkpt lat="45.910470398677624" lon="12.281253832759592"><ele>90.0</ele><time>2026-04-25T10:11:43Z</time></trkpt><trkpt lat="45.91038023112502" lon="12.281366354352727"><ele>89.25</ele><time>2026-04-25T10:11:44Z</time></trkpt><trkpt lat="45.91029673793931" lon="12.281479318365728"><ele>88.5</ele><time>2026-04-25T10:11:45Z</time></trkpt><trkpt lat="45.91021085912757" lon="12.28159394517546"><ele>87.75</ele><time>2026-04-25T10:11:46Z</time></trkpt><trkpt lat="45.910121135587005" lon="12.281702348781824"><ele>87.0</ele><time>2026-04-25T10:11:47Z</time></trkpt><trkpt lat="45.91003190129893" lon="12.281813850557583"><ele>85.75</ele><time>2026-04-25T10:11:48Z</time></trkpt><trkpt lat="45.9099467823595" lon="12.28191753434632"><ele>84.5</ele><time>2026-04-25T10:11:49Z</time></trkpt><trkpt lat="45.90986629778008" lon="12.282027805893902"><ele>83.25</ele><time>2026-04-25T10:11:50Z</time></trkpt><trkpt lat="45.90978442568561" lon="12.282142848836624"><ele>82.0</ele><time>2026-04-25T10:11:51Z</time></trkpt><trkpt lat="45.90970966986568" lon="12.282263650436292"><ele>81.8</ele><time>2026-04-25T10:11:52Z</time></trkpt><trkpt lat="45.90963450639472" lon="12.28237859305203"><ele>81.6</ele><time>2026-04-25T10:11:53Z</time></trkpt><trkpt lat="45.90955637321541" lon="12.282495546002982"><ele>81.39999999999999</ele><time>2026-04-25T10:11:54Z</time></trkpt><trkpt lat="45.90948096321505" lon="12.282612236119737"><ele>81.19999999999999</ele><time>2026-04-25T10:11:55Z</time></trkpt><trkpt lat="45.90940827780505" lon="12.282729280738774"><ele>81.0</ele><time>2026-04-25T10:11:56Z</time></trkpt><trkpt lat="45.90932944176288" lon="12.282844965243"><ele>81.0</ele><time>2026-04-25T10:11:57Z</time></trkpt><trkpt lat="45.90924466369933" lon="12.282955465260208"><ele>81.0</ele><time>2026-04-25T10:11:58Z</time></trkpt><trkpt lat="45.909149005614665" lon="12.283046932578143"><ele>81.0</ele><time>2026-04-25T10:11:59Z</time></trkpt><trkpt lat="45.90904482123423" lon="12.283123699258782"><ele>81.0</ele><time>2026-04-25T10:12:00Z</time></trkpt><trkpt lat="45.90893556436548" lon="12.283175105115284"><ele>80.6</ele><time>2026-04-25T10:12:01Z</time></trkpt><trkpt lat="45.908825239028424" lon="12.283222909503529"><ele>80.19999999999999</ele><time>2026-04-25T10:12:02Z</time></trkpt><trkpt lat="45.90871731323792" lon="12.2832703639783"><ele>79.80000000000001</ele><time>2026-04-25T10:12:03Z</time></trkpt><trkpt lat="45.90861051199399" lon="12.283305752168415"><ele>79.4</ele><time>2026-04-25T10:12:04Z</time></trkpt><trkpt lat="45.90850120267951" lon="12.283329743755784"><ele>79.0</ele><time>2026-04-25T10:12:05Z</time></trkpt><trkpt lat="45.90839410920972" lon="12.28332081111963"><ele>78.4</ele><time>2026-04-25T10:12:06Z</time></trkpt><trkpt lat="45.90828773374826" lon="12.283294535166718"><ele>77.80000000000001</ele><time>2026-04-25T10:12:07Z</time></trkpt><trkpt lat="45.90819400460181" lon="12.283243677346498"><ele>77.19999999999999</ele><time>2026-04-25T10:12:08Z</time></trkpt><trkpt lat="45.90810420173701" lon="12.283178264901759"><ele>76.6</ele><time>2026-04-25T10:12:09Z</time></trkpt><trkpt lat="45.90802977718128" lon="12.283093691276141"><ele>76.0</ele><time>2026-04-25T10:12:10Z</time></trkpt><trkpt lat="45.9079583947377" lon="12.283010261697553"><ele>75.8</ele><time>2026-04-25T10:12:11Z</time></trkpt><trkpt lat="45.907882304610794" lon="12.282942516755"><ele>75.6</ele><time>2026-04-25T10:12:12Z</time></trkpt><trkpt lat="45.90779804394382" lon="12.28290165372695"><ele>75.4</ele><time>2026-04-25T10:12:13Z</time></trkpt><trkpt lat="45.90771378920955" lon="12.282891925804252"><ele>75.2</ele><time>2026-04-25T10:12:14Z</time></trkpt><trkpt lat="45.90762306485663" lon="12.282927097742451"><ele>75.0</ele><time>2026-04-25T10:12:15Z</time></trkpt><trkpt lat="45.90754144741751" lon="12.28299224085631"><ele>75.0</ele><time>2026-04-25T10:12:16Z</time></trkpt><trkpt lat="45.907484538689076" lon="12.283087146975499"><ele>75.0</ele><time>2026-04-25T10:12:17Z</time></trkpt><trkpt lat="45.90744967094896" lon="12.283206008389124"><ele>75.0</ele><time>2026-04-25T10:12:18Z</time></trkpt><trkpt lat="45.90741286119044" lon="12.28330889512948"><ele>75.0</ele><time>2026-04-25T10:12:19Z</time></trkpt><trkpt lat="45.90738147073962" lon="12.283417034502921"><ele>75.0</ele><time>2026-04-25T10:12:20Z</time></trkpt><trkpt lat="45.90735636342206" lon="12.283527218971578"><ele>75.0</ele><time>2026-04-25T10:12:21Z</time></trkpt><trkpt lat="45.907321670818156" lon="12.283631464466374"><ele>75.0</ele><time>2026-04-25T10:12:22Z</time></trkpt><trkpt lat="45.90728573677198" lon="12.283734057054687"><ele>75.0</ele><time>2026-04-25T10:12:23Z</time></trkpt><trkpt lat="45.90725487934651" lon="12.28382458198497"><ele>75.0</ele><time>2026-04-25T10:12:24Z</time></trkpt><trkpt lat="45.90720022602689" lon="12.283964169052043"><ele>75.0</ele><time>2026-04-25T10:12:26Z</time></trkpt><trkpt lat="45.907131378971215" lon="12.283984513836923"><ele>75.0</ele><time>2026-04-25T10:12:30Z</time></trkpt><trkpt lat="45.90715033353004" lon="12.283865405431726"><ele>75.0</ele><time>2026-04-25T10:12:33Z</time></trkpt><trkpt lat="45.90717021672734" lon="12.283725115852521"><ele>75.0</ele><time>2026-04-25T10:12:35Z</time></trkpt><trkpt lat="45.9071808743831" lon="12.283589185232927"><ele>75.0</ele><time>2026-04-25T10:12:37Z</time></trkpt><trkpt lat="45.90721897204339" lon="12.283434205355002"><ele>75.0</ele><time>2026-04-25T10:12:39Z</time></trkpt><trkpt lat="45.90725090369519" lon="12.283263344846556"><ele>75.0</ele><time>2026-04-25T10:12:41Z</time></trkpt><trkpt lat="45.90728028298036" lon="12.283091149616125"><ele>75.0</ele><time>2026-04-25T10:12:43Z</time></trkpt><trkpt lat="45.90730759041899" lon="12.282935381371633"><ele>75.0</ele><time>2026-04-25T10:12:45Z</time></trkpt><trkpt lat="45.907338169124664" lon="12.282795778689048"><ele>75.0</ele><time>2026-04-25T10:12:47Z</time></trkpt><trkpt lat="45.90737751292006" lon="12.282641279796088"><ele>75.0</ele><time>2026-04-25T10:12:49Z</time></trkpt><trkpt lat="45.90742690939029" lon="12.282505790609289"><ele>75.0</ele><time>2026-04-25T10:12:51Z</time></trkpt><trkpt lat="45.90746621918235" lon="12.282350955492435"><ele>75.0</ele><time>2026-04-25T10:12:53Z</time></trkpt><trkpt lat="45.90752032358275" lon="12.282207500356794"><ele>75.0</ele><time>2026-04-25T10:12:55Z</time></trkpt><trkpt lat="45.90759152237687" lon="12.282060335808776"><ele>75.0</ele><time>2026-04-25T10:12:57Z</time></trkpt><trkpt lat="45.90763402649788" lon="12.28199215961549"><ele>75.0</ele><time>2026-04-25T10:12:58Z</time></trkpt><trkpt lat="45.907720268955536" lon="12.281867834431075"><ele>75.0</ele><time>2026-04-25T10:13:00Z</time></trkpt><trkpt lat="45.907796208000065" lon="12.281757085536514"><ele>75.0</ele><time>2026-04-25T10:13:02Z</time></trkpt><trkpt lat="45.907874487869286" lon="12.281656516025706"><ele>75.0</ele><time>2026-04-25T10:13:04Z</time></trkpt><trkpt lat="45.90795234484564" lon="12.281560152751393"><ele>75.0</ele><time>2026-04-25T10:13:06Z</time></trkpt><trkpt lat="45.90804506337644" lon="12.28145673773911"><ele>75.0</ele><time>2026-04-25T10:13:08Z</time></trkpt><trkpt lat="45.908138609768145" lon="12.281352839616881"><ele>75.0</ele><time>2026-04-25T10:13:10Z</time></trkpt><trkpt lat="45.90819012270566" lon="12.281293288079192"><ele>75.25</ele><time>2026-04-25T10:13:11Z</time></trkpt><trkpt lat="45.908290617909145" lon="12.28119105393399"><ele>75.5</ele><time>2026-04-25T10:13:13Z</time></trkpt><trkpt lat="45.908377028494506" lon="12.281080179824237"><ele>75.75</ele><time>2026-04-25T10:13:15Z</time></trkpt><trkpt lat="45.90846208028851" lon="12.280977126635582"><ele>76.0</ele><time>2026-04-25T10:13:17Z</time></trkpt><trkpt lat="45.90855009949393" lon="12.28085423550413"><ele>76.25</ele><time>2026-04-25T10:13:19Z</time></trkpt><trkpt lat="45.90863335242591" lon="12.280726022975115"><ele>76.5</ele><time>2026-04-25T10:13:21Z</time></trkpt><trkpt lat="45.908700433266674" lon="12.28058973445582"><ele>76.75</ele><time>2026-04-25T10:13:23Z</time></trkpt><trkpt lat="45.908769076551934" lon="12.280451069503318"><ele>77.0</ele><time>2026-04-25T10:13:25Z</time></trkpt><trkpt lat="45.908825741855516" lon="12.280290197154079"><ele>77.0</ele><time>2026-04-25T10:13:27Z</time></trkpt><trkpt lat="45.908855557089936" lon="12.280200636188992"><ele>77.0</ele><time>2026-04-25T10:13:28Z</time></trkpt><trkpt lat="45.90888244239081" lon="12.280112410398404"><ele>77.0</ele><time>2026-04-25T10:13:29Z</time></trkpt><trkpt lat="45.90893167632308" lon="12.27995290537688"><ele>77.0</ele><time>2026-04-25T10:13:31Z</time></trkpt><trkpt lat="45.90896571747723" lon="12.27978090206623"><ele>77.0</ele><time>2026-04-25T10:13:33Z</time></trkpt><trkpt lat="45.90899070137586" lon="12.279615828576883"><ele>77.16666666666667</ele><time>2026-04-25T10:13:35Z</time></trkpt><trkpt lat="45.90900620225408" lon="12.279527907568301"><ele>77.33333333333334</ele><time>2026-04-25T10:13:36Z</time></trkpt><trkpt lat="45.90902686332357" lon="12.279438987456002"><ele>77.5</ele><time>2026-04-25T10:13:37Z</time></trkpt><trkpt lat="45.90904027095972" lon="12.279346816836503"><ele>77.66666666666667</ele><time>2026-04-25T10:13:38Z</time></trkpt><trkpt lat="45.909054216950814" lon="12.279186781235712"><ele>77.83333333333333</ele><time>2026-04-25T10:13:40Z</time></trkpt><trkpt lat="45.90908298045871" lon="12.279024847044512"><ele>78.0</ele><time>2026-04-25T10:13:42Z</time></trkpt><trkpt lat="45.9091166510288" lon="12.278847280345396"><ele>78.2</ele><time>2026-04-25T10:13:44Z</time></trkpt><trkpt lat="45.90912372349259" lon="12.278754181510692"><ele>78.4</ele><time>2026-04-25T10:13:45Z</time></trkpt><trkpt lat="45.90915721316485" lon="12.27859312317178"><ele>78.60000000000001</ele><time>2026-04-25T10:13:47Z</time></trkpt><trkpt lat="45.90917104905364" lon="12.278504666985302"><ele>78.8</ele><time>2026-04-25T10:13:48Z</time></trkpt><trkpt lat="45.90921226572264" lon="12.278337248467487"><ele>79.0</ele><time>2026-04-25T10:13:50Z</time></trkpt><trkpt lat="45.909246957442114" lon="12.278177267610744"><ele>79.0</ele><time>2026-04-25T10:13:52Z</time></trkpt><trkpt lat="45.909290584186394" lon="12.278023416832529"><ele>79.0</ele><time>2026-04-25T10:13:54Z</time></trkpt><trkpt lat="45.90931828579536" lon="12.277933440119716"><ele>79.0</ele><time>2026-04-25T10:13:55Z</time></trkpt><trkpt lat="45.909344518988675" lon="12.2778451640406"><ele>79.0</ele><time>2026-04-25T10:13:56Z</time></trkpt><trkpt lat="45.90938917305599" lon="12.277680635567664"><ele>79.0</ele><time>2026-04-25T10:13:58Z</time></trkpt><trkpt lat="45.90943870968381" lon="12.277511314897462"><ele>79.0</ele><time>2026-04-25T10:14:00Z</time></trkpt><trkpt lat="45.90946855776902" lon="12.277431241387458"><ele>79.0</ele><time>2026-04-25T10:14:01Z</time></trkpt><trkpt lat="45.909501041571616" lon="12.277353283371127"><ele>79.0</ele><time>2026-04-25T10:14:02Z</time></trkpt><trkpt lat="45.909536600996695" lon="12.277274947192979"><ele>79.0</ele><time>2026-04-25T10:14:03Z</time></trkpt><trkpt lat="45.90957380362619" lon="12.277201609949575"><ele>79.0</ele><time>2026-04-25T10:14:04Z</time></trkpt><trkpt lat="45.90965313055692" lon="12.27707061537408"><ele>79.0</ele><time>2026-04-25T10:14:06Z</time></trkpt><trkpt lat="45.90974366221497" lon="12.276948362124587"><ele>79.2</ele><time>2026-04-25T10:14:08Z</time></trkpt><trkpt lat="45.90985488867947" lon="12.276865687963673"><ele>79.4</ele><time>2026-04-25T10:14:10Z</time></trkpt><trkpt lat="45.9099122664759" lon="12.276823197641916"><ele>79.6</ele><time>2026-04-25T10:14:11Z</time></trkpt><trkpt lat="45.91002980342694" lon="12.276755192682508"><ele>79.8</ele><time>2026-04-25T10:14:13Z</time></trkpt><trkpt lat="45.910143420462205" lon="12.276683344602633"><ele>80.0</ele><time>2026-04-25T10:14:15Z</time></trkpt><trkpt lat="45.910257396469255" lon="12.276628975853757"><ele>80.0</ele><time>2026-04-25T10:14:17Z</time></trkpt><trkpt lat="45.910321696625616" lon="12.27660329688538"><ele>80.0</ele><time>2026-04-25T10:14:18Z</time></trkpt><trkpt lat="45.91039011660675" lon="12.276587533265928"><ele>80.0</ele><time>2026-04-25T10:14:19Z</time></trkpt><trkpt lat="45.91051544174811" lon="12.276569477833482"><ele>80.0</ele><time>2026-04-25T10:14:21Z</time></trkpt><trkpt lat="45.91064244079585" lon="12.276556454930006"><ele>80.0</ele><time>2026-04-25T10:14:23Z</time></trkpt><trkpt lat="45.91076529233641" lon="12.27653153788447"><ele>80.0</ele><time>2026-04-25T10:14:25Z</time></trkpt><trkpt lat="45.91083024776951" lon="12.276519480746046"><ele>80.0</ele><time>2026-04-25T10:14:26.001Z</time></trkpt><trkpt lat="45.91089382123498" lon="12.276508695785664"><ele>80.0</ele><time>2026-04-25T10:14:27.001Z</time></trkpt><trkpt lat="45.91095807663247" lon="12.27649724588629"><ele>80.0</ele><time>2026-04-25T10:14:28.001Z</time></trkpt><trkpt lat="45.91102775897064" lon="12.276490439615316"><ele>80.0</ele><time>2026-04-25T10:14:29.001Z</time></trkpt><trkpt lat="45.91109734856032" lon="12.27648013922406"><ele>80.0</ele><time>2026-04-25T10:14:30.001Z</time></trkpt><trkpt lat="45.9111665981346" lon="12.276474961543228"><ele>80.0</ele><time>2026-04-25T10:14:31.001Z</time></trkpt><trkpt lat="45.911233737390184" lon="12.276467537149033"><ele>80.28571428571428</ele><time>2026-04-25T10:14:32.001Z</time></trkpt><trkpt lat="45.91130696324978" lon="12.276458979546998"><ele>80.57142857142857</ele><time>2026-04-25T10:14:33.001Z</time></trkpt><trkpt lat="45.91138121632568" lon="12.276449014228593"><ele>80.85714285714286</ele><time>2026-04-25T10:14:34.001Z</time></trkpt><trkpt lat="45.91145545937021" lon="12.27644494152113"><ele>81.14285714285714</ele><time>2026-04-25T10:14:35.001Z</time></trkpt><trkpt lat="45.91152662891943" lon="12.276432682043184"><ele>81.42857142857143</ele><time>2026-04-25T10:14:36.001Z</time></trkpt><trkpt lat="45.91159800235161" lon="12.276413600318524"><ele>81.71428571428571</ele><time>2026-04-25T10:14:37.001Z</time></trkpt><trkpt lat="45.91167135818973" lon="12.276398667162086"><ele>82.0</ele><time>2026-04-25T10:14:38.001Z</time></trkpt><trkpt lat="45.91174568490489" lon="12.27637682454042"><ele>81.99999999999999</ele><time>2026-04-25T10:14:39.001Z</time></trkpt><trkpt lat="45.91181603620592" lon="12.276350593945864"><ele>82.0</ele><time>2026-04-25T10:14:40.001Z</time></trkpt><trkpt lat="45.911884434651206" lon="12.276325110410706"><ele>82.0</ele><time>2026-04-25T10:14:41.001Z</time></trkpt><trkpt lat="45.9119477951876" lon="12.276294836861775"><ele>82.0</ele><time>2026-04-25T10:14:42.001Z</time></trkpt><trkpt lat="45.912014425670556" lon="12.276259673501036"><ele>82.0</ele><time>2026-04-25T10:14:43.001Z</time></trkpt><trkpt lat="45.91207600046152" lon="12.276218381951704"><ele>81.99999999999999</ele><time>2026-04-25T10:14:44.001Z</time></trkpt><trkpt lat="45.912134222031824" lon="12.276172186436831"><ele>82.0</ele><time>2026-04-25T10:14:45.001Z</time></trkpt><trkpt lat="45.91219580039905" lon="12.2761222369401"><ele>81.99999999999999</ele><time>2026-04-25T10:14:46.001Z</time></trkpt><trkpt lat="45.91225716097704" lon="12.2760745535005"><ele>82.0</ele><time>2026-04-25T10:14:47.001Z</time></trkpt><trkpt lat="45.912317010933656" lon="12.276022483003793"><ele>82.0</ele><time>2026-04-25T10:14:48.001Z</time></trkpt><trkpt lat="45.912373460128514" lon="12.275956817809528"><ele>82.0</ele><time>2026-04-25T10:14:49.001Z</time></trkpt><trkpt lat="45.91242903175862" lon="12.27589362820771"><ele>82.0</ele><time>2026-04-25T10:14:50.001Z</time></trkpt><trkpt lat="45.912479705047645" lon="12.275831270678497"><ele>81.99999999999999</ele><time>2026-04-25T10:14:51.001Z</time></trkpt><trkpt lat="45.91253809300791" lon="12.275768952131354"><ele>82.0</ele><time>2026-04-25T10:14:52.001Z</time></trkpt><trkpt lat="45.912582068700395" lon="12.275701029223995"><ele>82.0</ele><time>2026-04-25T10:14:53.001Z</time></trkpt><trkpt lat="45.91262854745702" lon="12.275638036675543"><ele>82.0</ele><time>2026-04-25T10:14:54.001Z</time></trkpt><trkpt lat="45.91267908034031" lon="12.275574024195954"><ele>82.0</ele><time>2026-04-25T10:14:55.001Z</time></trkpt><trkpt lat="45.91272980285657" lon="12.2755127831308"><ele>82.0</ele><time>2026-04-25T10:14:56.001Z</time></trkpt><trkpt lat="45.91278230727257" lon="12.27545696404621"><ele>82.0</ele><time>2026-04-25T10:14:57.001Z</time></trkpt><trkpt lat="45.91287701668321" lon="12.27534106174202"><ele>82.0</ele><time>2026-04-25T10:14:59Z</time></trkpt><trkpt lat="45.91294466872862" lon="12.275225545147359"><ele>82.0</ele><time>2026-04-25T10:15:01Z</time></trkpt><trkpt lat="45.91303477749717" lon="12.27509059469139"><ele>82.0</ele><time>2026-04-25T10:15:03Z</time></trkpt><trkpt lat="45.91309223367996" lon="12.275035991630988"><ele>82.0</ele><time>2026-04-25T10:15:04Z</time></trkpt><trkpt lat="45.91314084022685" lon="12.274968329905937"><ele>82.0</ele><time>2026-04-25T10:15:05Z</time></trkpt><trkpt lat="45.91319208308367" lon="12.274897038895986"><ele>82.0</ele><time>2026-04-25T10:15:06Z</time></trkpt><trkpt lat="45.91323970155866" lon="12.274817448053678"><ele>82.0</ele><time>2026-04-25T10:15:07Z</time></trkpt><trkpt lat="45.91328461930545" lon="12.274734057084906"><ele>82.14285714285714</ele><time>2026-04-25T10:15:08Z</time></trkpt><trkpt lat="45.91333841677206" lon="12.274666679296415"><ele>82.28571428571428</ele><time>2026-04-25T10:15:09Z</time></trkpt><trkpt lat="45.9133990210971" lon="12.274602325921224"><ele>82.42857142857142</ele><time>2026-04-25T10:15:10Z</time></trkpt><trkpt lat="45.91345250329473" lon="12.274538693758531"><ele>82.57142857142857</ele><time>2026-04-25T10:15:11Z</time></trkpt><trkpt lat="45.913504283478794" lon="12.274470649114058"><ele>82.71428571428572</ele><time>2026-04-25T10:15:12Z</time></trkpt><trkpt lat="45.91355324672805" lon="12.274407411003939"><ele>82.85714285714285</ele><time>2026-04-25T10:15:13Z</time></trkpt><trkpt lat="45.913602900886765" lon="12.2743449644457"><ele>83.0</ele><time>2026-04-25T10:15:14Z</time></trkpt><trkpt lat="45.9136545746158" lon="12.274280651857612"><ele>83.14285714285714</ele><time>2026-04-25T10:15:15Z</time></trkpt><trkpt lat="45.91370429761663" lon="12.274217004405982"><ele>83.28571428571429</ele><time>2026-04-25T10:15:16Z</time></trkpt><trkpt lat="45.91375485123647" lon="12.274153652748081"><ele>83.42857142857143</ele><time>2026-04-25T10:15:17Z</time></trkpt><trkpt lat="45.913808825380855" lon="12.274086636722796"><ele>83.57142857142857</ele><time>2026-04-25T10:15:18Z</time></trkpt><trkpt lat="45.91386062420824" lon="12.274020884418286"><ele>83.71428571428572</ele><time>2026-04-25T10:15:19Z</time></trkpt><trkpt lat="45.9139129556503" lon="12.27394921950767"><ele>83.85714285714286</ele><time>2026-04-25T10:15:20Z</time></trkpt><trkpt lat="45.91396166437295" lon="12.273882487333157"><ele>84.0</ele><time>2026-04-25T10:15:21Z</time></trkpt><trkpt lat="45.91401627805082" lon="12.273820736531208"><ele>84.0</ele><time>2026-04-25T10:15:22Z</time></trkpt><trkpt lat="45.91407358174376" lon="12.27375378523034"><ele>84.0</ele><time>2026-04-25T10:15:23Z</time></trkpt><trkpt lat="45.914125024537285" lon="12.273686296997385"><ele>84.0</ele><time>2026-04-25T10:15:24Z</time></trkpt><trkpt lat="45.914177653911835" lon="12.27361862572895"><ele>84.0</ele><time>2026-04-25T10:15:25Z</time></trkpt><trkpt lat="45.91422924308766" lon="12.273551693823377"><ele>84.0</ele><time>2026-04-25T10:15:26Z</time></trkpt><trkpt lat="45.91428236263329" lon="12.2734865094175"><ele>84.0</ele><time>2026-04-25T10:15:27Z</time></trkpt><trkpt lat="45.914336392492835" lon="12.27342480120576"><ele>84.0</ele><time>2026-04-25T10:15:28Z</time></trkpt><trkpt lat="45.91438976567451" lon="12.273359638731064"><ele>84.16666666666667</ele><time>2026-04-25T10:15:29Z</time></trkpt><trkpt lat="45.914442211305506" lon="12.27329176994218"><ele>84.33333333333333</ele><time>2026-04-25T10:15:30Z</time></trkpt><trkpt lat="45.914502815998205" lon="12.273229318197572"><ele>84.5</ele><time>2026-04-25T10:15:31Z</time></trkpt><trkpt lat="45.91455720953644" lon="12.273156145103176"><ele>84.66666666666666</ele><time>2026-04-25T10:15:32Z</time></trkpt><trkpt lat="45.91461019342744" lon="12.273083712889699"><ele>84.83333333333333</ele><time>2026-04-25T10:15:33Z</time></trkpt><trkpt lat="45.914694822120644" lon="12.272947645267406"><ele>85.0</ele><time>2026-04-25T10:15:35Z</time></trkpt><trkpt lat="45.91473969179396" lon="12.272882435229691"><ele>85.0</ele><time>2026-04-25T10:15:36Z</time></trkpt><trkpt lat="45.914832605301065" lon="12.27275491040193"><ele>85.0</ele><time>2026-04-25T10:15:38Z</time></trkpt><trkpt lat="45.91488315808156" lon="12.27270098419438"><ele>85.0</ele><time>2026-04-25T10:15:39Z</time></trkpt><trkpt lat="45.914933868933204" lon="12.272646425098019"><ele>85.0</ele><time>2026-04-25T10:15:40Z</time></trkpt><trkpt lat="45.91498340995932" lon="12.272582532967698"><ele>85.0</ele><time>2026-04-25T10:15:41Z</time></trkpt><trkpt lat="45.915085561630704" lon="12.272472158381339"><ele>85.0</ele><time>2026-04-25T10:15:43Z</time></trkpt><trkpt lat="45.91518707633416" lon="12.272371373987125"><ele>85.14285714285715</ele><time>2026-04-25T10:15:45Z</time></trkpt><trkpt lat="45.9152408636769" lon="12.272319611265935"><ele>85.28571428571428</ele><time>2026-04-25T10:15:46Z</time></trkpt><trkpt lat="45.915297386673465" lon="12.272269953298824"><ele>85.42857142857143</ele><time>2026-04-25T10:15:47Z</time></trkpt><trkpt lat="45.9153529643973" lon="12.272219141625913"><ele>85.57142857142858</ele><time>2026-04-25T10:15:48Z</time></trkpt><trkpt lat="45.91540845787341" lon="12.272165325374866"><ele>85.71428571428572</ele><time>2026-04-25T10:15:49Z</time></trkpt><trkpt lat="45.915466115122605" lon="12.2721155164894"><ele>85.85714285714286</ele><time>2026-04-25T10:15:50Z</time></trkpt><trkpt lat="45.915529371411544" lon="12.272070825650465"><ele>86.0</ele><time>2026-04-25T10:15:51Z</time></trkpt><trkpt lat="45.915590242446314" lon="12.272040198330295"><ele>86.14285714285715</ele><time>2026-04-25T10:15:52Z</time></trkpt><trkpt lat="45.91566179259615" lon="12.272011145374009"><ele>86.28571428571429</ele><time>2026-04-25T10:15:53Z</time></trkpt><trkpt lat="45.91572023777275" lon="12.271953622249084"><ele>86.42857142857143</ele><time>2026-04-25T10:15:54Z</time></trkpt><trkpt lat="45.91577252507021" lon="12.271878141300494"><ele>86.57142857142858</ele><time>2026-04-25T10:15:55Z</time></trkpt><trkpt lat="45.91582671787568" lon="12.271810959282886"><ele>86.71428571428572</ele><time>2026-04-25T10:15:56Z</time></trkpt><trkpt lat="45.915885588629514" lon="12.271747227189692"><ele>86.85714285714286</ele><time>2026-04-25T10:15:57Z</time></trkpt><trkpt lat="45.91594731618717" lon="12.2716850005573"><ele>87.0</ele><time>2026-04-25T10:15:58Z</time></trkpt><trkpt lat="45.91600715416948" lon="12.271624287536449"><ele>87.0</ele><time>2026-04-25T10:15:59Z</time></trkpt><trkpt lat="45.916067027955506" lon="12.271566547391679"><ele>87.0</ele><time>2026-04-25T10:16:00Z</time></trkpt><trkpt lat="45.916128144877106" lon="12.2715103019907"><ele>87.0</ele><time>2026-04-25T10:16:01Z</time></trkpt><trkpt lat="45.9161872490187" lon="12.271453737941792"><ele>87.0</ele><time>2026-04-25T10:16:02Z</time></trkpt><trkpt lat="45.9162449562139" lon="12.271398189134944"><ele>87.0</ele><time>2026-04-25T10:16:03Z</time></trkpt><trkpt lat="45.91630345904153" lon="12.27134286356996"><ele>87.0</ele><time>2026-04-25T10:16:04Z</time></trkpt><trkpt lat="45.916364235407755" lon="12.2712943476484"><ele>87.0</ele><time>2026-04-25T10:16:05Z</time></trkpt><trkpt lat="45.916426791882664" lon="12.27124001398332"><ele>87.0</ele><time>2026-04-25T10:16:06Z</time></trkpt><trkpt lat="45.91648873023868" lon="12.27118188413311"><ele>87.0</ele><time>2026-04-25T10:16:07Z</time></trkpt><trkpt lat="45.91655133208209" lon="12.271115944723066"><ele>87.0</ele><time>2026-04-25T10:16:08Z</time></trkpt><trkpt lat="45.91660360173308" lon="12.271052899878953"><ele>87.0</ele><time>2026-04-25T10:16:09Z</time></trkpt><trkpt lat="45.9166547741458" lon="12.270988260625959"><ele>87.0</ele><time>2026-04-25T10:16:10Z</time></trkpt><trkpt lat="45.916708666285416" lon="12.270928873713236"><ele>87.0</ele><time>2026-04-25T10:16:11Z</time></trkpt><trkpt lat="45.916760270355645" lon="12.270870976477278"><ele>87.0</ele><time>2026-04-25T10:16:12Z</time></trkpt><trkpt lat="45.91681244940518" lon="12.270804189274191"><ele>87.0</ele><time>2026-04-25T10:16:13Z</time></trkpt><trkpt lat="45.9168634177738" lon="12.270734374644187"><ele>87.0</ele><time>2026-04-25T10:16:14Z</time></trkpt><trkpt lat="45.916915095300496" lon="12.270667569613709"><ele>87.0</ele><time>2026-04-25T10:16:15Z</time></trkpt><trkpt lat="45.91695908969978" lon="12.270595166389514"><ele>87.0</ele><time>2026-04-25T10:16:16Z</time></trkpt><trkpt lat="45.91699962328111" lon="12.270522063710455"><ele>87.0</ele><time>2026-04-25T10:16:17Z</time></trkpt><trkpt lat="45.91704513109479" lon="12.270452484042538"><ele>87.0</ele><time>2026-04-25T10:16:18Z</time></trkpt><trkpt lat="45.91708713056824" lon="12.27038488252342"><ele>87.0</ele><time>2026-04-25T10:16:19Z</time></trkpt><trkpt lat="45.91713430037211" lon="12.270320844465413"><ele>87.0</ele><time>2026-04-25T10:16:20Z</time></trkpt><trkpt lat="45.91718132736895" lon="12.270260212600572"><ele>87.0</ele><time>2026-04-25T10:16:21Z</time></trkpt><trkpt lat="45.917264072799874" lon="12.270127263659544"><ele>87.0</ele><time>2026-04-25T10:16:23Z</time></trkpt><trkpt lat="45.917344234196385" lon="12.26999874180008"><ele>87.0</ele><time>2026-04-25T10:16:25Z</time></trkpt><trkpt lat="45.917425522680674" lon="12.269865262597456"><ele>87.0</ele><time>2026-04-25T10:16:27Z</time></trkpt><trkpt lat="45.91750144574261" lon="12.26974260780525"><ele>87.5</ele><time>2026-04-25T10:16:29Z</time></trkpt><trkpt lat="45.91757071696914" lon="12.269620061793589"><ele>88.0</ele><time>2026-04-25T10:16:31Z</time></trkpt><trkpt lat="45.91764667403205" lon="12.269490692407496"><ele>88.5</ele><time>2026-04-25T10:16:33.001Z</time></trkpt><trkpt lat="45.91770714168455" lon="12.269351396242305"><ele>89.0</ele><time>2026-04-25T10:16:35.001Z</time></trkpt><trkpt lat="45.91778177586847" lon="12.269216250727014"><ele>89.0</ele><time>2026-04-25T10:16:37.001Z</time></trkpt><trkpt lat="45.917852136470586" lon="12.269085001308012"><ele>89.0</ele><time>2026-04-25T10:16:39.001Z</time></trkpt><trkpt lat="45.917890645151004" lon="12.26901057542991"><ele>89.0</ele><time>2026-04-25T10:16:40.001Z</time></trkpt><trkpt lat="45.917963090334766" lon="12.268878649231931"><ele>89.0</ele><time>2026-04-25T10:16:42.001Z</time></trkpt><trkpt lat="45.91803537210103" lon="12.268740263800494"><ele>89.0</ele><time>2026-04-25T10:16:44.001Z</time></trkpt><trkpt lat="45.91810230073" lon="12.268596979317259"><ele>89.0</ele><time>2026-04-25T10:16:46.001Z</time></trkpt><trkpt lat="45.9181720174628" lon="12.268463124009978"><ele>89.0</ele><time>2026-04-25T10:16:48.001Z</time></trkpt><trkpt lat="45.91824857379396" lon="12.268329740063773"><ele>89.0</ele><time>2026-04-25T10:16:50.001Z</time></trkpt><trkpt lat="45.918313244403876" lon="12.268183991217661"><ele>89.0</ele><time>2026-04-25T10:16:52.001Z</time></trkpt><trkpt lat="45.91837812201884" lon="12.268045397960353"><ele>89.0</ele><time>2026-04-25T10:16:54.001Z</time></trkpt><trkpt lat="45.918415534550725" lon="12.26797050397625"><ele>89.0</ele><time>2026-04-25T10:16:55.001Z</time></trkpt><trkpt lat="45.91848407292835" lon="12.267840388035127"><ele>89.0</ele><time>2026-04-25T10:16:57.001Z</time></trkpt><trkpt lat="45.91854544779421" lon="12.267703984541797"><ele>89.0</ele><time>2026-04-25T10:16:59.001Z</time></trkpt><trkpt lat="45.91862102531345" lon="12.267582276429229"><ele>89.0</ele><time>2026-04-25T10:17:01.001Z</time></trkpt><trkpt lat="45.91869459248568" lon="12.26746402779344"><ele>89.0</ele><time>2026-04-25T10:17:03.001Z</time></trkpt><trkpt lat="45.918767647377344" lon="12.2673458690517"><ele>89.0</ele><time>2026-04-25T10:17:05.001Z</time></trkpt><trkpt lat="45.91884060940247" lon="12.26724104615432"><ele>89.0</ele><time>2026-04-25T10:17:07.001Z</time></trkpt><trkpt lat="45.91891196985481" lon="12.267140978932362"><ele>89.0</ele><time>2026-04-25T10:17:09.001Z</time></trkpt><trkpt lat="45.918985356763315" lon="12.267040820400815"><ele>89.0</ele><time>2026-04-25T10:17:11.001Z</time></trkpt><trkpt lat="45.91904994468536" lon="12.266955865744265"><ele>89.0</ele><time>2026-04-25T10:17:13Z</time></trkpt><trkpt lat="45.919124557767866" lon="12.266873022100702"><ele>89.0</ele><time>2026-04-25T10:17:15Z</time></trkpt><trkpt lat="45.91920094433253" lon="12.266777653859872"><ele>89.0</ele><time>2026-04-25T10:17:17Z</time></trkpt><trkpt lat="45.91928028827092" lon="12.26665765679175"><ele>89.0</ele><time>2026-04-25T10:17:19Z</time></trkpt><trkpt lat="45.91936286736011" lon="12.266531382996448"><ele>89.0</ele><time>2026-04-25T10:17:21Z</time></trkpt><trkpt lat="45.919407596866" lon="12.26646545791313"><ele>89.0</ele><time>2026-04-25T10:17:22Z</time></trkpt><trkpt lat="45.91948902991038" lon="12.266331470364154"><ele>89.0</ele><time>2026-04-25T10:17:24Z</time></trkpt><trkpt lat="45.91957876919217" lon="12.266216094160388"><ele>89.0</ele><time>2026-04-25T10:17:26Z</time></trkpt><trkpt lat="45.91967583884184" lon="12.266109411066783"><ele>89.0</ele><time>2026-04-25T10:17:28Z</time></trkpt><trkpt lat="45.91972333466218" lon="12.26604539570222"><ele>89.0</ele><time>2026-04-25T10:17:29Z</time></trkpt><trkpt lat="45.919769148355655" lon="12.265981322708727"><ele>89.0</ele><time>2026-04-25T10:17:30Z</time></trkpt><trkpt lat="45.91981737876833" lon="12.265920347247178"><ele>89.0</ele><time>2026-04-25T10:17:31Z</time></trkpt><trkpt lat="45.919863420404965" lon="12.265857740204178"><ele>89.0</ele><time>2026-04-25T10:17:32Z</time></trkpt><trkpt lat="45.91995715338061" lon="12.265733342477995"><ele>89.0</ele><time>2026-04-25T10:17:34Z</time></trkpt><trkpt lat="45.92000699948133" lon="12.265676710000205"><ele>89.0</ele><time>2026-04-25T10:17:35Z</time></trkpt><trkpt lat="45.920102033078166" lon="12.265558765514644"><ele>89.0</ele><time>2026-04-25T10:17:37Z</time></trkpt><trkpt lat="45.920199745839966" lon="12.265439018361754"><ele>90.0</ele><time>2026-04-25T10:17:39Z</time></trkpt><trkpt lat="45.92025212010446" lon="12.265376848390007"><ele>91.0</ele><time>2026-04-25T10:17:40Z</time></trkpt><trkpt lat="45.92034797388963" lon="12.265275949899225"><ele>92.0</ele><time>2026-04-25T10:17:42Z</time></trkpt><trkpt lat="45.9204552564768" lon="12.265162587222688"><ele>93.0</ele><time>2026-04-25T10:17:44Z</time></trkpt><trkpt lat="45.92056017858429" lon="12.265075375855622"><ele>94.0</ele><time>2026-04-25T10:17:46Z</time></trkpt><trkpt lat="45.92061446760317" lon="12.265020789940463"><ele>94.0</ele><time>2026-04-25T10:17:47Z</time></trkpt><trkpt lat="45.92066732693364" lon="12.264959947169158"><ele>94.0</ele><time>2026-04-25T10:17:48Z</time></trkpt><trkpt lat="45.92077682723343" lon="12.26487801979006"><ele>94.0</ele><time>2026-04-25T10:17:50Z</time></trkpt><trkpt lat="45.920886303847425" lon="12.26478833332963"><ele>94.0</ele><time>2026-04-25T10:17:52Z</time></trkpt><trkpt lat="45.92099382331061" lon="12.26470656747943"><ele>94.0</ele><time>2026-04-25T10:17:54Z</time></trkpt><trkpt lat="45.921108156085374" lon="12.26463599778238"><ele>94.0</ele><time>2026-04-25T10:17:56Z</time></trkpt><trkpt lat="45.921225431732964" lon="12.264556177925595"><ele>94.0</ele><time>2026-04-25T10:17:58Z</time></trkpt><trkpt lat="45.92128670613695" lon="12.264521842420129"><ele>94.0</ele><time>2026-04-25T10:17:59Z</time></trkpt><trkpt lat="45.921404612328985" lon="12.264454128990991"><ele>94.0</ele><time>2026-04-25T10:18:01Z</time></trkpt><trkpt lat="45.92146821048643" lon="12.264422729439623"><ele>94.0</ele><time>2026-04-25T10:18:02Z</time></trkpt><trkpt lat="45.92158953800656" lon="12.264361245316625"><ele>94.0</ele><time>2026-04-25T10:18:04Z</time></trkpt><trkpt lat="45.92164927338215" lon="12.264328750715027"><ele>94.0</ele><time>2026-04-25T10:18:05Z</time></trkpt><trkpt lat="45.92171381433345" lon="12.264300419293546"><ele>94.0</ele><time>2026-04-25T10:18:06Z</time></trkpt><trkpt lat="45.92177794115568" lon="12.26426995440265"><ele>94.0</ele><time>2026-04-25T10:18:07Z</time></trkpt><trkpt lat="45.921842873646945" lon="12.264239339070828"><ele>94.0</ele><time>2026-04-25T10:18:08Z</time></trkpt><trkpt lat="45.92190964883384" lon="12.264216420485239"><ele>94.0</ele><time>2026-04-25T10:18:09Z</time></trkpt><trkpt lat="45.921973592283706" lon="12.264195245050487"><ele>94.0</ele><time>2026-04-25T10:18:10Z</time></trkpt><trkpt lat="45.922036172091104" lon="12.264167201698488"><ele>93.85714285714286</ele><time>2026-04-25T10:18:11Z</time></trkpt><trkpt lat="45.92209792282754" lon="12.264144341292502"><ele>93.71428571428571</ele><time>2026-04-25T10:18:12Z</time></trkpt><trkpt lat="45.922162429644885" lon="12.26412512621456"><ele>93.57142857142858</ele><time>2026-04-25T10:18:13Z</time></trkpt><trkpt lat="45.92222598128724" lon="12.26409387414783"><ele>93.42857142857143</ele><time>2026-04-25T10:18:14Z</time></trkpt><trkpt lat="45.92229295984146" lon="12.264072073011947"><ele>93.28571428571429</ele><time>2026-04-25T10:18:15Z</time></trkpt><trkpt lat="45.92236424394202" lon="12.264047686781746"><ele>93.14285714285715</ele><time>2026-04-25T10:18:16Z</time></trkpt><trkpt lat="45.922429112512454" lon="12.264027396175006"><ele>93.0</ele><time>2026-04-25T10:18:17Z</time></trkpt><trkpt lat="45.92254993786812" lon="12.263986205779924"><ele>93.25</ele><time>2026-04-25T10:18:19Z</time></trkpt><trkpt lat="45.922653408222274" lon="12.263929185196357"><ele>93.5</ele><time>2026-04-25T10:18:21Z</time></trkpt><trkpt lat="45.92277330574436" lon="12.263865776376564"><ele>93.75</ele><time>2026-04-25T10:18:23Z</time></trkpt><trkpt lat="45.92286014787373" lon="12.263790431926116"><ele>94.0</ele><time>2026-04-25T10:18:25Z</time></trkpt><trkpt lat="45.92296551580923" lon="12.263746020479807"><ele>94.0</ele><time>2026-04-25T10:18:27Z</time></trkpt><trkpt lat="45.92306898393956" lon="12.263687681780809"><ele>94.0</ele><time>2026-04-25T10:18:29Z</time></trkpt><trkpt lat="45.9231818270821" lon="12.263629028154037"><ele>94.0</ele><time>2026-04-25T10:18:31Z</time></trkpt><trkpt lat="45.923289324413766" lon="12.263583337513678"><ele>94.0</ele><time>2026-04-25T10:18:33Z</time></trkpt><trkpt lat="45.92340368226179" lon="12.263533134828387"><ele>94.5</ele><time>2026-04-25T10:18:35Z</time></trkpt><trkpt lat="45.923464018911055" lon="12.263507019505273"><ele>95.0</ele><time>2026-04-25T10:18:36Z</time></trkpt><trkpt lat="45.92358169511331" lon="12.263448519304022"><ele>95.5</ele><time>2026-04-25T10:18:38.001Z</time></trkpt><trkpt lat="45.92370182933889" lon="12.263387182409991"><ele>96.0</ele><time>2026-04-25T10:18:40.001Z</time></trkpt><trkpt lat="45.92376306787376" lon="12.263361979906044"><ele>96.50000000000001</ele><time>2026-04-25T10:18:41.001Z</time></trkpt><trkpt lat="45.92382661680024" lon="12.263336227008914"><ele>97.0</ele><time>2026-04-25T10:18:42.001Z</time></trkpt><trkpt lat="45.92394792374642" lon="12.26328774790348"><ele>97.0</ele><time>2026-04-25T10:18:44.001Z</time></trkpt><trkpt lat="45.92400943787663" lon="12.263262119892609"><ele>97.0</ele><time>2026-04-25T10:18:45.001Z</time></trkpt><trkpt lat="45.92407021312394" lon="12.263234198045128"><ele>97.0</ele><time>2026-04-25T10:18:46.001Z</time></trkpt><trkpt lat="45.92418996716373" lon="12.263185503490634"><ele>97.0</ele><time>2026-04-25T10:18:48.001Z</time></trkpt><trkpt lat="45.92430561674522" lon="12.263129354173948"><ele>97.0</ele><time>2026-04-25T10:18:50.001Z</time></trkpt><trkpt lat="45.924426966272755" lon="12.263080427068836"><ele>97.39999999999999</ele><time>2026-04-25T10:18:52.001Z</time></trkpt><trkpt lat="45.9244868608719" lon="12.263042814000897"><ele>97.8</ele><time>2026-04-25T10:18:53.001Z</time></trkpt><trkpt lat="45.9245476675364" lon="12.263016301476167"><ele>98.2</ele><time>2026-04-25T10:18:54.001Z</time></trkpt><trkpt lat="45.92466208881952" lon="12.262967133818174"><ele>98.6</ele><time>2026-04-25T10:18:56.001Z</time></trkpt><trkpt lat="45.924774384751196" lon="12.262921647005781"><ele>99.0</ele><time>2026-04-25T10:18:58Z</time></trkpt><trkpt lat="45.9248806760403" lon="12.262868708106149"><ele>99.0</ele><time>2026-04-25T10:19:00Z</time></trkpt><trkpt lat="45.92499154807483" lon="12.262815807234677"><ele>99.0</ele><time>2026-04-25T10:19:02Z</time></trkpt><trkpt lat="45.925103969202866" lon="12.262764251402118"><ele>99.0</ele><time>2026-04-25T10:19:04Z</time></trkpt><trkpt lat="45.92521341201627" lon="12.262709673252981"><ele>99.0</ele><time>2026-04-25T10:19:06Z</time></trkpt><trkpt lat="45.925323293038744" lon="12.26265442192039"><ele>99.0</ele><time>2026-04-25T10:19:08Z</time></trkpt><trkpt lat="45.9254372499674" lon="12.26259904935749"><ele>99.0</ele><time>2026-04-25T10:19:10Z</time></trkpt><trkpt lat="45.92554892318886" lon="12.26252950759653"><ele>99.0</ele><time>2026-04-25T10:19:12Z</time></trkpt><trkpt lat="45.92565569263536" lon="12.262456794692893"><ele>99.0</ele><time>2026-04-25T10:19:14Z</time></trkpt><trkpt lat="45.92576607507059" lon="12.26238092318063"><ele>99.0</ele><time>2026-04-25T10:19:16Z</time></trkpt><trkpt lat="45.92586837752919" lon="12.26230311203821"><ele>99.0</ele><time>2026-04-25T10:19:18Z</time></trkpt><trkpt lat="45.925970880773875" lon="12.262227413649509"><ele>99.0</ele><time>2026-04-25T10:19:20Z</time></trkpt><trkpt lat="45.92608242754402" lon="12.262139429836694"><ele>99.0</ele><time>2026-04-25T10:19:22Z</time></trkpt><trkpt lat="45.926194400357026" lon="12.262064452392169"><ele>98.83333333333333</ele><time>2026-04-25T10:19:24Z</time></trkpt><trkpt lat="45.92625398428627" lon="12.26203481907213"><ele>98.66666666666666</ele><time>2026-04-25T10:19:25Z</time></trkpt><trkpt lat="45.92631262026416" lon="12.261998673066373"><ele>98.5</ele><time>2026-04-25T10:19:26Z</time></trkpt><trkpt lat="45.92641616432152" lon="12.261904401958919"><ele>98.33333333333333</ele><time>2026-04-25T10:19:28Z</time></trkpt><trkpt lat="45.926462072937426" lon="12.261819344796724"><ele>98.16666666666666</ele><time>2026-04-25T10:19:29Z</time></trkpt><trkpt lat="45.92650833095326" lon="12.261751871389244"><ele>98.0</ele><time>2026-04-25T10:19:30Z</time></trkpt><trkpt lat="45.92655544485378" lon="12.261685928344349"><ele>98.0</ele><time>2026-04-25T10:19:31Z</time></trkpt><trkpt lat="45.926643219059976" lon="12.261578134526816"><ele>98.0</ele><time>2026-04-25T10:19:33Z</time></trkpt><trkpt lat="45.92675038807989" lon="12.261505188337118"><ele>98.0</ele><time>2026-04-25T10:19:35Z</time></trkpt><trkpt lat="45.9267868776934" lon="12.261403391565107"><ele>98.0</ele><time>2026-04-25T10:19:38Z</time></trkpt><trkpt lat="45.92677332869177" lon="12.261298493719845"><ele>98.0</ele><time>2026-04-25T10:19:42Z</time></trkpt><trkpt lat="45.92683570631905" lon="12.261201766566572"><ele>98.66666666666666</ele><time>2026-04-25T10:19:44Z</time></trkpt><trkpt lat="45.92687973647291" lon="12.261110825443996"><ele>99.33333333333333</ele><time>2026-04-25T10:19:46Z</time></trkpt><trkpt lat="45.92693057314643" lon="12.261033444011902"><ele>100.0</ele><time>2026-04-25T10:19:48Z</time></trkpt><trkpt lat="45.92698171108124" lon="12.260922907617418"><ele>100.66666666666666</ele><time>2026-04-25T10:19:50Z</time></trkpt><trkpt lat="45.9270167659773" lon="12.26082086225174"><ele>101.33333333333333</ele><time>2026-04-25T10:19:52Z</time></trkpt><trkpt lat="45.927056454165886" lon="12.260748167030012"><ele>102.0</ele><time>2026-04-25T10:19:54Z</time></trkpt><trkpt lat="45.9270916150447" lon="12.260647045024252"><ele>101.83333333333333</ele><time>2026-04-25T10:19:56Z</time></trkpt><trkpt lat="45.92715104509734" lon="12.260600429504574"><ele>101.66666666666666</ele><time>2026-04-25T10:19:59Z</time></trkpt><trkpt lat="45.92721338293212" lon="12.260569810229848"><ele>101.5</ele><time>2026-04-25T10:20:01Z</time></trkpt><trkpt lat="45.92728403235511" lon="12.260478669537845"><ele>101.33333333333333</ele><time>2026-04-25T10:20:04Z</time></trkpt><trkpt lat="45.92734732954892" lon="12.26042560637676"><ele>101.16666666666666</ele><time>2026-04-25T10:20:06Z</time></trkpt><trkpt lat="45.92740792274502" lon="12.260314677208223"><ele>101.0</ele><time>2026-04-25T10:20:08Z</time></trkpt><trkpt lat="45.927452722774916" lon="12.260210958196929"><ele>100.99999999999999</ele><time>2026-04-25T10:20:10Z</time></trkpt><trkpt lat="45.92749201731776" lon="12.260102607918862"><ele>101.0</ele><time>2026-04-25T10:20:12Z</time></trkpt><trkpt lat="45.927540979707885" lon="12.259983719651656"><ele>101.0</ele><time>2026-04-25T10:20:14Z</time></trkpt><trkpt lat="45.92761632702746" lon="12.259886940005403"><ele>101.0</ele><time>2026-04-25T10:20:16Z</time></trkpt><trkpt lat="45.92765602783135" lon="12.25979606151209"><ele>100.99999999999999</ele><time>2026-04-25T10:20:18Z</time></trkpt><trkpt lat="45.927684528393655" lon="12.259690526982585"><ele>101.0</ele><time>2026-04-25T10:20:20Z</time></trkpt><trkpt lat="45.92775118079916" lon="12.259615160897594"><ele>100.99999999999999</ele><time>2026-04-25T10:20:22Z</time></trkpt><trkpt lat="45.92778360405079" lon="12.259534914498774"><ele>101.0</ele><time>2026-04-25T10:20:24Z</time></trkpt><trkpt lat="45.927828991307166" lon="12.259398582540548"><ele>101.0</ele><time>2026-04-25T10:20:26Z</time></trkpt><trkpt lat="45.927830148331836" lon="12.259286331923338"><ele>101.0</ele><time>2026-04-25T10:20:28Z</time></trkpt><trkpt lat="45.92786025786636" lon="12.25915358440484"><ele>100.99999999999999</ele><time>2026-04-25T10:20:31Z</time></trkpt><trkpt lat="45.92789594428205" lon="12.259031951610554"><ele>101.0</ele><time>2026-04-25T10:20:33Z</time></trkpt><trkpt lat="45.92790119328697" lon="12.25893792336179"><ele>100.99999999999999</ele><time>2026-04-25T10:20:35Z</time></trkpt><trkpt lat="45.92793748860009" lon="12.258847197651779"><ele>101.0</ele><time>2026-04-25T10:20:38Z</time></trkpt><trkpt lat="45.9279749757553" lon="12.258759073089495"><ele>101.0</ele><time>2026-04-25T10:20:41Z</time></trkpt><trkpt lat="45.92798011733046" lon="12.25864747770131"><ele>101.0</ele><time>2026-04-25T10:20:44Z</time></trkpt><trkpt lat="45.92798983692741" lon="12.258518250488798"><ele>100.99999999999999</ele><time>2026-04-25T10:20:47Z</time></trkpt><trkpt lat="45.9280168247772" lon="12.258432545711525"><ele>101.0</ele><time>2026-04-25T10:20:49Z</time></trkpt><trkpt lat="45.92802045075979" lon="12.258324739538116"><ele>100.99999999999999</ele><time>2026-04-25T10:20:51Z</time></trkpt><trkpt lat="45.92802942209609" lon="12.258192596178096"><ele>101.0</ele><time>2026-04-25T10:20:53Z</time></trkpt><trkpt lat="45.92804851321404" lon="12.258071469298773"><ele>101.0</ele><time>2026-04-25T10:20:56Z</time></trkpt><trkpt lat="45.928057335405995" lon="12.257974659182734"><ele>101.0</ele><time>2026-04-25T10:20:58Z</time></trkpt><trkpt lat="45.92806755642574" lon="12.257869361013045"><ele>100.99999999999999</ele><time>2026-04-25T10:21:00Z</time></trkpt><trkpt lat="45.92807641179203" lon="12.25777554321297"><ele>101.0</ele><time>2026-04-25T10:21:02Z</time></trkpt><trkpt lat="45.9280933566533" lon="12.257662559141654"><ele>101.19999999999999</ele><time>2026-04-25T10:21:04Z</time></trkpt><trkpt lat="45.928146079895456" lon="12.257547720827068"><ele>101.39999999999999</ele><time>2026-04-25T10:21:06Z</time></trkpt><trkpt lat="45.92817117294056" lon="12.257406935968506"><ele>101.6</ele><time>2026-04-25T10:21:08Z</time></trkpt><trkpt lat="45.928239826452455" lon="12.257272849949219"><ele>101.8</ele><time>2026-04-25T10:21:10Z</time></trkpt><trkpt lat="45.92832762861218" lon="12.257165685023613"><ele>102.0</ele><time>2026-04-25T10:21:12Z</time></trkpt><trkpt lat="45.92841383610145" lon="12.257099654218594"><ele>102.19999999999999</ele><time>2026-04-25T10:21:14Z</time></trkpt><trkpt lat="45.92851075432365" lon="12.257045898961133"><ele>102.4</ele><time>2026-04-25T10:21:16Z</time></trkpt><trkpt lat="45.92861976234458" lon="12.25695355192966"><ele>102.6</ele><time>2026-04-25T10:21:18Z</time></trkpt><trkpt lat="45.92866919713689" lon="12.256892392078962"><ele>102.80000000000001</ele><time>2026-04-25T10:21:19Z</time></trkpt><trkpt lat="45.92871467552977" lon="12.256827757397865"><ele>103.0</ele><time>2026-04-25T10:21:20Z</time></trkpt><trkpt lat="45.9288098683598" lon="12.256708855851718"><ele>103.0</ele><time>2026-04-25T10:21:22Z</time></trkpt><trkpt lat="45.92885635153911" lon="12.256643218013178"><ele>103.0</ele><time>2026-04-25T10:21:23Z</time></trkpt><trkpt lat="45.92893707492716" lon="12.256516373603777"><ele>103.0</ele><time>2026-04-25T10:21:25Z</time></trkpt><trkpt lat="45.92902342646741" lon="12.256392331115718"><ele>103.0</ele><time>2026-04-25T10:21:27Z</time></trkpt><trkpt lat="45.92911533266219" lon="12.256267983293995"><ele>103.0</ele><time>2026-04-25T10:21:29Z</time></trkpt><trkpt lat="45.929164755564905" lon="12.256207781717803"><ele>103.00000000000001</ele><time>2026-04-25T10:21:30Z</time></trkpt><trkpt lat="45.9292192797842" lon="12.256146405349947"><ele>103.0</ele><time>2026-04-25T10:21:31Z</time></trkpt><trkpt lat="45.92927364092344" lon="12.256095262294384"><ele>103.0</ele><time>2026-04-25T10:21:32Z</time></trkpt><trkpt lat="45.92937933679314" lon="12.255985357967754"><ele>103.0</ele><time>2026-04-25T10:21:34Z</time></trkpt><trkpt lat="45.929432791729404" lon="12.255932636063223"><ele>103.00000000000001</ele><time>2026-04-25T10:21:35Z</time></trkpt><trkpt lat="45.9294868743809" lon="12.25588092840014"><ele>103.0</ele><time>2026-04-25T10:21:36Z</time></trkpt><trkpt lat="45.929542604524144" lon="12.255828438841467"><ele>102.99999999999999</ele><time>2026-04-25T10:21:37Z</time></trkpt><trkpt lat="45.9295998656729" lon="12.255782807642014"><ele>103.0</ele><time>2026-04-25T10:21:38Z</time></trkpt><trkpt lat="45.9296535868136" lon="12.255727015859085"><ele>103.0</ele><time>2026-04-25T10:21:39Z</time></trkpt><trkpt lat="45.92970503361359" lon="12.25567050764409"><ele>103.0</ele><time>2026-04-25T10:21:40Z</time></trkpt><trkpt lat="45.92975792225192" lon="12.255611825713684"><ele>103.0</ele><time>2026-04-25T10:21:41Z</time></trkpt><trkpt lat="45.929810111047516" lon="12.25555821726064"><ele>102.99999999999999</ele><time>2026-04-25T10:21:42Z</time></trkpt><trkpt lat="45.92986342646268" lon="12.255503444841946"><ele>103.0</ele><time>2026-04-25T10:21:43Z</time></trkpt><trkpt lat="45.92992057548929" lon="12.25545156857496"><ele>103.16666666666667</ele><time>2026-04-25T10:21:44Z</time></trkpt><trkpt lat="45.929974703275214" lon="12.255394938847518"><ele>103.33333333333334</ele><time>2026-04-25T10:21:45Z</time></trkpt><trkpt lat="45.93002883122792" lon="12.255342639410914"><ele>103.5</ele><time>2026-04-25T10:21:46Z</time></trkpt><trkpt lat="45.93007917439472" lon="12.255284934598672"><ele>103.66666666666666</ele><time>2026-04-25T10:21:47Z</time></trkpt><trkpt lat="45.93017349065731" lon="12.255169360049061"><ele>103.83333333333333</ele><time>2026-04-25T10:21:49Z</time></trkpt><trkpt lat="45.930280697213234" lon="12.255068290186564"><ele>104.0</ele><time>2026-04-25T10:21:51Z</time></trkpt><trkpt lat="45.93034167274484" lon="12.255016428140168"><ele>104.14285714285714</ele><time>2026-04-25T10:21:52Z</time></trkpt><trkpt lat="45.9303985911871" lon="12.254971095698739"><ele>104.28571428571429</ele><time>2026-04-25T10:21:53Z</time></trkpt><trkpt lat="45.93045686118395" lon="12.25492359139455"><ele>104.42857142857143</ele><time>2026-04-25T10:21:54Z</time></trkpt><trkpt lat="45.93050841464195" lon="12.254868046922756"><ele>104.57142857142857</ele><time>2026-04-25T10:21:55Z</time></trkpt><trkpt lat="45.93056355241631" lon="12.254811689910209"><ele>104.71428571428572</ele><time>2026-04-25T10:21:56Z</time></trkpt><trkpt lat="45.930616259286055" lon="12.25475369509525"><ele>104.85714285714286</ele><time>2026-04-25T10:21:57Z</time></trkpt><trkpt lat="45.93066928860874" lon="12.254696152037267"><ele>105.0</ele><time>2026-04-25T10:21:58Z</time></trkpt><trkpt lat="45.930770609462066" lon="12.254601158820993"><ele>105.16666666666667</ele><time>2026-04-25T10:22:00Z</time></trkpt><trkpt lat="45.930861208040355" lon="12.254519661785546"><ele>105.33333333333334</ele><time>2026-04-25T10:22:02Z</time></trkpt><trkpt lat="45.93091433875277" lon="12.254447245958335"><ele>105.5</ele><time>2026-04-25T10:22:05Z</time></trkpt><trkpt lat="45.930983679540425" lon="12.254403195742224"><ele>105.66666666666667</ele><time>2026-04-25T10:22:08Z</time></trkpt><trkpt lat="45.93104321269867" lon="12.254350023569398"><ele>105.83333333333334</ele><time>2026-04-25T10:22:10Z</time></trkpt><trkpt lat="45.93109746592845" lon="12.25429086948042"><ele>106.0</ele><time>2026-04-25T10:22:12Z</time></trkpt><trkpt lat="45.93115597717025" lon="12.254251306446568"><ele>106.0</ele><time>2026-04-25T10:22:14Z</time></trkpt><trkpt lat="45.931218951518666" lon="12.254196240170984"><ele>106.0</ele><time>2026-04-25T10:22:16Z</time></trkpt><trkpt lat="45.93130458855297" lon="12.25414529362058"><ele>106.0</ele><time>2026-04-25T10:22:18Z</time></trkpt><trkpt lat="45.931404245448576" lon="12.254105210902505"><ele>106.0</ele><time>2026-04-25T10:22:20Z</time></trkpt><trkpt lat="45.93150735981278" lon="12.25405301223321"><ele>106.0</ele><time>2026-04-25T10:22:22Z</time></trkpt><trkpt lat="45.93161428275131" lon="12.254034554601079"><ele>106.0</ele><time>2026-04-25T10:22:24Z</time></trkpt><trkpt lat="45.93171232169013" lon="12.254014722826737"><ele>106.0</ele><time>2026-04-25T10:22:26Z</time></trkpt><trkpt lat="45.93181717991918" lon="12.253965067502033"><ele>106.0</ele><time>2026-04-25T10:22:28Z</time></trkpt><trkpt lat="45.93191887285798" lon="12.253929573885168"><ele>106.0</ele><time>2026-04-25T10:22:30Z</time></trkpt><trkpt lat="45.932012116303405" lon="12.253894690112768"><ele>106.0</ele><time>2026-04-25T10:22:32Z</time></trkpt><trkpt lat="45.9321134180525" lon="12.253844778295063"><ele>106.00000000000001</ele><time>2026-04-25T10:22:34Z</time></trkpt><trkpt lat="45.93221699913173" lon="12.253808205918597"><ele>106.0</ele><time>2026-04-25T10:22:36Z</time></trkpt><trkpt lat="45.93230569427999" lon="12.253778684303416"><ele>106.0</ele><time>2026-04-25T10:22:38Z</time></trkpt><trkpt lat="45.93238431467129" lon="12.253746661991403"><ele>106.0</ele><time>2026-04-25T10:22:40Z</time></trkpt><trkpt lat="45.93245644260769" lon="12.253709437808723"><ele>106.00000000000001</ele><time>2026-04-25T10:22:42Z</time></trkpt><trkpt lat="45.93251291789019" lon="12.253662744608182"><ele>106.0</ele><time>2026-04-25T10:22:44Z</time></trkpt><trkpt lat="45.93257098108761" lon="12.253733717002042"><ele>106.0</ele><time>2026-04-25T10:23:01Z</time></trkpt><trkpt lat="45.93250896513692" lon="12.253697087293554"><ele>106.0</ele><time>2026-04-25T10:23:08Z</time></trkpt><trkpt lat="45.932432852750885" lon="12.253761001442971"><ele>106.0</ele><time>2026-04-25T10:23:10Z</time></trkpt><trkpt lat="45.93233441461232" lon="12.253792472626227"><ele>106.0</ele><time>2026-04-25T10:23:12Z</time></trkpt><trkpt lat="45.93223162654402" lon="12.253829355257908"><ele>106.0</ele><time>2026-04-25T10:23:14Z</time></trkpt><trkpt lat="45.932116277685466" lon="12.253872258285961"><ele>106.00000000000001</ele><time>2026-04-25T10:23:16Z</time></trkpt><trkpt lat="45.93205422057042" lon="12.253893338788739"><ele>106.0</ele><time>2026-04-25T10:23:17Z</time></trkpt><trkpt lat="45.931991625910314" lon="12.253909416701458"><ele>106.0</ele><time>2026-04-25T10:23:18Z</time></trkpt><trkpt lat="45.931926222381136" lon="12.253924170242852"><ele>106.0</ele><time>2026-04-25T10:23:19Z</time></trkpt><trkpt lat="45.931809815552334" lon="12.253989001271405"><ele>106.00000000000001</ele><time>2026-04-25T10:23:21Z</time></trkpt><trkpt lat="45.931700076983915" lon="12.254052175939172"><ele>106.0</ele><time>2026-04-25T10:23:23Z</time></trkpt><trkpt lat="45.931634492959525" lon="12.254068468373411"><ele>106.00000000000001</ele><time>2026-04-25T10:23:24Z</time></trkpt><trkpt lat="45.93153103373205" lon="12.25410998770388"><ele>106.0</ele><time>2026-04-25T10:23:26Z</time></trkpt><trkpt lat="45.93152318571067" lon="12.254004843212149"><ele>106.0</ele><time>2026-04-25T10:23:34Z</time></trkpt><trkpt lat="45.931566108279185" lon="12.253913315412644"><ele>106.0</ele><time>2026-04-25T10:23:38Z</time></trkpt><trkpt lat="45.931646954836104" lon="12.253891190202458"><ele>106.00000000000001</ele><time>2026-04-25T10:23:40Z</time></trkpt><trkpt lat="45.93172551091668" lon="12.253837535242964"><ele>106.0</ele><time>2026-04-25T10:23:42Z</time></trkpt><trkpt lat="45.93183226855703" lon="12.253780477239905"><ele>106.0</ele><time>2026-04-25T10:23:44Z</time></trkpt><trkpt lat="45.931891125205574" lon="12.253747919003512"><ele>106.0</ele><time>2026-04-25T10:23:45Z</time></trkpt><trkpt lat="45.93196359875059" lon="12.253719740646474"><ele>106.0</ele><time>2026-04-25T10:23:46Z</time></trkpt><trkpt lat="45.93202757310605" lon="12.253682875259527"><ele>106.0</ele><time>2026-04-25T10:23:47Z</time></trkpt><trkpt lat="45.93209421997874" lon="12.253652778649377"><ele>106.0</ele><time>2026-04-25T10:23:48Z</time></trkpt><trkpt lat="45.93216008145827" lon="12.25362222353306"><ele>106.0</ele><time>2026-04-25T10:23:49Z</time></trkpt><trkpt lat="45.93223398059965" lon="12.253602408439539"><ele>106.0</ele><time>2026-04-25T10:23:50Z</time></trkpt><trkpt lat="45.9323033309378" lon="12.25357762010004"><ele>106.00000000000001</ele><time>2026-04-25T10:23:51Z</time></trkpt><trkpt lat="45.93237107167633" lon="12.253551495458941"><ele>106.0</ele><time>2026-04-25T10:23:52Z</time></trkpt><trkpt lat="45.93244057936715" lon="12.253522091129522"><ele>106.0</ele><time>2026-04-25T10:23:53Z</time></trkpt><trkpt lat="45.93250349097615" lon="12.253485803228461"><ele>106.0</ele><time>2026-04-25T10:23:54Z</time></trkpt><trkpt lat="45.93256857349195" lon="12.253462099277597"><ele>106.00000000000001</ele><time>2026-04-25T10:23:55Z</time></trkpt><trkpt lat="45.93269036076501" lon="12.253427707619704"><ele>106.0</ele><time>2026-04-25T10:23:57Z</time></trkpt><trkpt lat="45.93275325973772" lon="12.25340974951385"><ele>106.75</ele><time>2026-04-25T10:23:58Z</time></trkpt><trkpt lat="45.93286351926381" lon="12.25335701780653"><ele>107.5</ele><time>2026-04-25T10:24:00Z</time></trkpt><trkpt lat="45.932981821925075" lon="12.253299333051965"><ele>108.25</ele><time>2026-04-25T10:24:02Z</time></trkpt><trkpt lat="45.93309821734928" lon="12.253236444291533"><ele>109.0</ele><time>2026-04-25T10:24:04Z</time></trkpt><trkpt lat="45.933215018874016" lon="12.253192537347246"><ele>109.0</ele><time>2026-04-25T10:24:06Z</time></trkpt><trkpt lat="45.93332264456822" lon="12.253189688754665"><ele>109.0</ele><time>2026-04-25T10:24:08Z</time></trkpt><trkpt lat="45.933416502691834" lon="12.253145269803097"><ele>109.0</ele><time>2026-04-25T10:24:10Z</time></trkpt><trkpt lat="45.93350746524779" lon="12.253113504239849"><ele>109.0</ele><time>2026-04-25T10:24:12Z</time></trkpt><trkpt lat="45.93360629724605" lon="12.253079412139996"><ele>109.0</ele><time>2026-04-25T10:24:14Z</time></trkpt><trkpt lat="45.93371095509914" lon="12.253027005643935"><ele>109.2</ele><time>2026-04-25T10:24:16Z</time></trkpt><trkpt lat="45.93381481471484" lon="12.252955355274421"><ele>109.4</ele><time>2026-04-25T10:24:18Z</time></trkpt><trkpt lat="45.93390671326445" lon="12.252898886346387"><ele>109.6</ele><time>2026-04-25T10:24:20Z</time></trkpt><trkpt lat="45.93399897614068" lon="12.252867788898449"><ele>109.8</ele><time>2026-04-25T10:24:22Z</time></trkpt><trkpt lat="45.93409961620281" lon="12.2527859905871"><ele>110.0</ele><time>2026-04-25T10:24:24Z</time></trkpt><trkpt lat="45.934158459215425" lon="12.252750840514212"><ele>109.99999999999999</ele><time>2026-04-25T10:24:25Z</time></trkpt><trkpt lat="45.934225849809216" lon="12.252741335915838"><ele>110.0</ele><time>2026-04-25T10:24:26Z</time></trkpt><trkpt lat="45.93429321419486" lon="12.25274400693339"><ele>110.0</ele><time>2026-04-25T10:24:27Z</time></trkpt><trkpt lat="45.93435875322607" lon="12.252756924252305"><ele>110.0</ele><time>2026-04-25T10:24:28Z</time></trkpt><trkpt lat="45.93442165522676" lon="12.252766620253468"><ele>109.99999999999999</ele><time>2026-04-25T10:24:29Z</time></trkpt><trkpt lat="45.934485140290114" lon="12.252776056116305"><ele>110.0</ele><time>2026-04-25T10:24:30Z</time></trkpt><trkpt lat="45.93460678469793" lon="12.25274034313219"><ele>110.0</ele><time>2026-04-25T10:24:32Z</time></trkpt><trkpt lat="45.934717389042525" lon="12.252649425315909"><ele>110.0</ele><time>2026-04-25T10:24:34Z</time></trkpt><trkpt lat="45.93481122413815" lon="12.252535308350597"><ele>110.0</ele><time>2026-04-25T10:24:36Z</time></trkpt><trkpt lat="45.93487076898372" lon="12.252503984760102"><ele>110.0</ele><time>2026-04-25T10:24:37Z</time></trkpt><trkpt lat="45.93499706756999" lon="12.252475172875071"><ele>110.0</ele><time>2026-04-25T10:24:39Z</time></trkpt><trkpt lat="45.93505948022266" lon="12.252498162847468"><ele>110.6</ele><time>2026-04-25T10:24:40Z</time></trkpt><trkpt lat="45.935123881400344" lon="12.252504987786342"><ele>111.2</ele><time>2026-04-25T10:24:41Z</time></trkpt><trkpt lat="45.9352412910117" lon="12.252464553746576"><ele>111.80000000000001</ele><time>2026-04-25T10:24:43Z</time></trkpt><trkpt lat="45.93534678125165" lon="12.252418012819323"><ele>112.4</ele><time>2026-04-25T10:24:44.999Z</time></trkpt><trkpt lat="45.93539429268634" lon="12.252331585942503"><ele>113.0</ele><time>2026-04-25T10:24:46.999Z</time></trkpt><trkpt lat="45.935382374794294" lon="12.252211224898382"><ele>112.99999999999999</ele><time>2026-04-25T10:24:48.999Z</time></trkpt><trkpt lat="45.935313273000666" lon="12.252092815738324"><ele>113.0</ele><time>2026-04-25T10:24:50.999Z</time></trkpt><trkpt lat="45.935245531362895" lon="12.2519547170919"><ele>113.0</ele><time>2026-04-25T10:24:52.999Z</time></trkpt><trkpt lat="45.93521054157244" lon="12.251877007920113"><ele>113.0</ele><time>2026-04-25T10:24:53.999Z</time></trkpt><trkpt lat="45.935174407612784" lon="12.251798363230648"><ele>112.99999999999999</ele><time>2026-04-25T10:24:54.999Z</time></trkpt><trkpt lat="45.93513852814018" lon="12.251712265287711"><ele>113.0</ele><time>2026-04-25T10:24:56Z</time></trkpt><trkpt lat="45.935106591607415" lon="12.251618329352127"><ele>113.0</ele><time>2026-04-25T10:24:57Z</time></trkpt><trkpt lat="45.93508958821168" lon="12.251517853835441"><ele>113.0</ele><time>2026-04-25T10:24:58Z</time></trkpt><trkpt lat="45.935090862268694" lon="12.25141356245498"><ele>113.0</ele><time>2026-04-25T10:24:59Z</time></trkpt><trkpt lat="45.93510683691144" lon="12.251307069632766"><ele>113.0</ele><time>2026-04-25T10:25:00Z</time></trkpt><trkpt lat="45.935128957142176" lon="12.251210053334999"><ele>113.0</ele><time>2026-04-25T10:25:01Z</time></trkpt><trkpt lat="45.93515756134173" lon="12.251109988175969"><ele>113.0</ele><time>2026-04-25T10:25:02Z</time></trkpt><trkpt lat="45.93517656194533" lon="12.250998194792526"><ele>113.0</ele><time>2026-04-25T10:25:03Z</time></trkpt><trkpt lat="45.935208081677004" lon="12.250896805748534"><ele>113.16666666666666</ele><time>2026-04-25T10:25:04Z</time></trkpt><trkpt lat="45.93524253705587" lon="12.250790039064162"><ele>113.33333333333333</ele><time>2026-04-25T10:25:05Z</time></trkpt><trkpt lat="45.93527307143103" lon="12.250677158477156"><ele>113.5</ele><time>2026-04-25T10:25:06Z</time></trkpt><trkpt lat="45.9353033797707" lon="12.250572393519848"><ele>113.66666666666666</ele><time>2026-04-25T10:25:07Z</time></trkpt><trkpt lat="45.935333440656315" lon="12.250467679714616"><ele>113.83333333333333</ele><time>2026-04-25T10:25:08Z</time></trkpt><trkpt lat="45.93535895195082" lon="12.250360570411917"><ele>114.0</ele><time>2026-04-25T10:25:09Z</time></trkpt><trkpt lat="45.93538521269708" lon="12.250256578832463"><ele>114.0</ele><time>2026-04-25T10:25:10Z</time></trkpt><trkpt lat="45.93541720996353" lon="12.250162857496727"><ele>114.0</ele><time>2026-04-25T10:25:11Z</time></trkpt><trkpt lat="45.935445445574686" lon="12.250068826386993"><ele>114.0</ele><time>2026-04-25T10:25:12Z</time></trkpt><trkpt lat="45.93547590831182" lon="12.24996643342043"><ele>114.0</ele><time>2026-04-25T10:25:13Z</time></trkpt><trkpt lat="45.93550341466886" lon="12.249858114769017"><ele>114.0</ele><time>2026-04-25T10:25:14Z</time></trkpt><trkpt lat="45.935538223513696" lon="12.249759943603143"><ele>114.0</ele><time>2026-04-25T10:25:15Z</time></trkpt><trkpt lat="45.93558170943422" lon="12.24966667724483"><ele>114.0</ele><time>2026-04-25T10:25:16Z</time></trkpt><trkpt lat="45.93562431865053" lon="12.249577456511041"><ele>114.0</ele><time>2026-04-25T10:25:17Z</time></trkpt><trkpt lat="45.93566755519022" lon="12.249492201092304"><ele>114.0</ele><time>2026-04-25T10:25:18Z</time></trkpt><trkpt lat="45.93571028999198" lon="12.24941927964999"><ele>114.0</ele><time>2026-04-25T10:25:19Z</time></trkpt><trkpt lat="45.935777717162864" lon="12.249291162100882"><ele>114.0</ele><time>2026-04-25T10:25:21Z</time></trkpt><trkpt lat="45.93585075041842" lon="12.249190267865389"><ele>114.0</ele><time>2026-04-25T10:25:23Z</time></trkpt><trkpt lat="45.93594091259758" lon="12.24907614737769"><ele>113.83333333333333</ele><time>2026-04-25T10:25:25Z</time></trkpt><trkpt lat="45.935991761693906" lon="12.249018730834509"><ele>113.66666666666666</ele><time>2026-04-25T10:25:26Z</time></trkpt><trkpt lat="45.93604079004137" lon="12.248954743770105"><ele>113.5</ele><time>2026-04-25T10:25:27Z</time></trkpt><trkpt lat="45.936135506909196" lon="12.24882143631588"><ele>113.33333333333333</ele><time>2026-04-25T10:25:29Z</time></trkpt><trkpt lat="45.93619163786987" lon="12.248757968653335"><ele>113.16666666666666</ele><time>2026-04-25T10:25:30Z</time></trkpt><trkpt lat="45.936250062634954" lon="12.248693524870525"><ele>113.0</ele><time>2026-04-25T10:25:31Z</time></trkpt><trkpt lat="45.93630191404196" lon="12.248627393684261"><ele>113.42857142857143</ele><time>2026-04-25T10:25:32Z</time></trkpt><trkpt lat="45.9363535212722" lon="12.248560037911158"><ele>113.85714285714286</ele><time>2026-04-25T10:25:33Z</time></trkpt><trkpt lat="45.93640848085429" lon="12.248485236071803"><ele>114.28571428571429</ele><time>2026-04-25T10:25:34Z</time></trkpt><trkpt lat="45.936464218941296" lon="12.248416822147227"><ele>114.71428571428572</ele><time>2026-04-25T10:25:35Z</time></trkpt><trkpt lat="45.93651561814769" lon="12.248349066524353"><ele>115.14285714285714</ele><time>2026-04-25T10:25:36Z</time></trkpt><trkpt lat="45.93657059295057" lon="12.248274893477097"><ele>115.57142857142858</ele><time>2026-04-25T10:25:37Z</time></trkpt><trkpt lat="45.936629436307" lon="12.248205330646744"><ele>116.00000000000001</ele><time>2026-04-25T10:25:38Z</time></trkpt><trkpt lat="45.93667991620866" lon="12.248128850501162"><ele>116.42857142857144</ele><time>2026-04-25T10:25:39Z</time></trkpt><trkpt lat="45.9367335815727" lon="12.24805488531343"><ele>116.85714285714286</ele><time>2026-04-25T10:25:40Z</time></trkpt><trkpt lat="45.93679258919288" lon="12.247989309873285"><ele>117.28571428571429</ele><time>2026-04-25T10:25:41Z</time></trkpt><trkpt lat="45.93685123712444" lon="12.247924243018984"><ele>117.71428571428572</ele><time>2026-04-25T10:25:42Z</time></trkpt><trkpt lat="45.93691003316676" lon="12.24785565787042"><ele>118.14285714285714</ele><time>2026-04-25T10:25:43Z</time></trkpt><trkpt lat="45.9369658742419" lon="12.247785218692087"><ele>118.57142857142857</ele><time>2026-04-25T10:25:44Z</time></trkpt><trkpt lat="45.93702143947939" lon="12.24771863383742"><ele>119.0</ele><time>2026-04-25T10:25:45Z</time></trkpt><trkpt lat="45.93707632019365" lon="12.247649816111757"><ele>119.0</ele><time>2026-04-25T10:25:46Z</time></trkpt><trkpt lat="45.93713055448484" lon="12.247589688052033"><ele>119.0</ele><time>2026-04-25T10:25:47Z</time></trkpt><trkpt lat="45.937187322446654" lon="12.247531577411669"><ele>119.0</ele><time>2026-04-25T10:25:48Z</time></trkpt><trkpt lat="45.9372415914598" lon="12.24747493549191"><ele>119.0</ele><time>2026-04-25T10:25:49Z</time></trkpt><trkpt lat="45.937292720158254" lon="12.24740742498131"><ele>119.0</ele><time>2026-04-25T10:25:50Z</time></trkpt><trkpt lat="45.93734329817895" lon="12.247329396045892"><ele>119.0</ele><time>2026-04-25T10:25:51Z</time></trkpt><trkpt lat="45.937392531435705" lon="12.247258816427946"><ele>119.0</ele><time>2026-04-25T10:25:52Z</time></trkpt><trkpt lat="45.937441854204316" lon="12.247193196188466"><ele>119.14285714285714</ele><time>2026-04-25T10:25:53Z</time></trkpt><trkpt lat="45.9374909088392" lon="12.247127811634801"><ele>119.28571428571428</ele><time>2026-04-25T10:25:54Z</time></trkpt><trkpt lat="45.93754589182602" lon="12.247057590165594"><ele>119.42857142857143</ele><time>2026-04-25T10:25:55Z</time></trkpt><trkpt lat="45.937607395663434" lon="12.246992388200562"><ele>119.57142857142857</ele><time>2026-04-25T10:25:56Z</time></trkpt><trkpt lat="45.93767006696445" lon="12.246937046524707"><ele>119.71428571428571</ele><time>2026-04-25T10:25:57Z</time></trkpt><trkpt lat="45.93772626503256" lon="12.246878256171323"><ele>119.85714285714286</ele><time>2026-04-25T10:25:58Z</time></trkpt><trkpt lat="45.93777959812667" lon="12.246810465686858"><ele>120.0</ele><time>2026-04-25T10:25:59Z</time></trkpt><trkpt lat="45.937830761377576" lon="12.24673986628662"><ele>120.0</ele><time>2026-04-25T10:26:00Z</time></trkpt><trkpt lat="45.93788152251815" lon="12.24666744086855"><ele>120.0</ele><time>2026-04-25T10:26:01Z</time></trkpt><trkpt lat="45.9379291510667" lon="12.246601214778503"><ele>120.0</ele><time>2026-04-25T10:26:02Z</time></trkpt><trkpt lat="45.937981041887724" lon="12.246535478873552"><ele>120.0</ele><time>2026-04-25T10:26:03Z</time></trkpt><trkpt lat="45.93803222550517" lon="12.246478160000251"><ele>120.0</ele><time>2026-04-25T10:26:04Z</time></trkpt><trkpt lat="45.93808509008259" lon="12.246420996453587"><ele>120.0</ele><time>2026-04-25T10:26:05Z</time></trkpt><trkpt lat="45.93813553364081" lon="12.246362214574877"><ele>120.0</ele><time>2026-04-25T10:26:06Z</time></trkpt><trkpt lat="45.93818926445971" lon="12.246304305619626"><ele>120.0</ele><time>2026-04-25T10:26:07Z</time></trkpt><trkpt lat="45.93824232697164" lon="12.246240100270198"><ele>120.0</ele><time>2026-04-25T10:26:08Z</time></trkpt><trkpt lat="45.938295238097936" lon="12.246179395524518"><ele>120.0</ele><time>2026-04-25T10:26:09Z</time></trkpt><trkpt lat="45.9383529242127" lon="12.24612751582454"><ele>120.0</ele><time>2026-04-25T10:26:10Z</time></trkpt><trkpt lat="45.938411305580075" lon="12.246065721594936"><ele>120.0</ele><time>2026-04-25T10:26:11Z</time></trkpt><trkpt lat="45.93846591184707" lon="12.246005663923242"><ele>120.0</ele><time>2026-04-25T10:26:12Z</time></trkpt><trkpt lat="45.938525443630496" lon="12.245945801916688"><ele>120.0</ele><time>2026-04-25T10:26:13Z</time></trkpt><trkpt lat="45.93858389553856" lon="12.24588940776104"><ele>120.0</ele><time>2026-04-25T10:26:14Z</time></trkpt><trkpt lat="45.93864745938721" lon="12.245831448786396"><ele>120.0</ele><time>2026-04-25T10:26:15Z</time></trkpt><trkpt lat="45.93870818651166" lon="12.245775378341214"><ele>120.0</ele><time>2026-04-25T10:26:16Z</time></trkpt><trkpt lat="45.938772970422264" lon="12.245718852064625"><ele>120.0</ele><time>2026-04-25T10:26:17Z</time></trkpt><trkpt lat="45.93883137309741" lon="12.245654480012982"><ele>120.0</ele><time>2026-04-25T10:26:18Z</time></trkpt><trkpt lat="45.93889332513828" lon="12.245590442473125"><ele>120.0</ele><time>2026-04-25T10:26:19Z</time></trkpt><trkpt lat="45.93895547935224" lon="12.245529975921555"><ele>120.0</ele><time>2026-04-25T10:26:20Z</time></trkpt><trkpt lat="45.93901984048226" lon="12.245475940614446"><ele>120.0</ele><time>2026-04-25T10:26:21Z</time></trkpt><trkpt lat="45.939084776886325" lon="12.245417958474112"><ele>120.0</ele><time>2026-04-25T10:26:22Z</time></trkpt><trkpt lat="45.939145294009556" lon="12.245360688417724"><ele>120.0</ele><time>2026-04-25T10:26:23Z</time></trkpt><trkpt lat="45.93920492645818" lon="12.24529891936322"><ele>120.0</ele><time>2026-04-25T10:26:24Z</time></trkpt><trkpt lat="45.93926572686508" lon="12.245239916390231"><ele>120.0</ele><time>2026-04-25T10:26:25Z</time></trkpt><trkpt lat="45.93932760202415" lon="12.245183340773563"><ele>120.0</ele><time>2026-04-25T10:26:26Z</time></trkpt><trkpt lat="45.939388281731595" lon="12.24512814241624"><ele>120.0</ele><time>2026-04-25T10:26:27Z</time></trkpt><trkpt lat="45.93945294257502" lon="12.245072242205588"><ele>120.42857142857143</ele><time>2026-04-25T10:26:28Z</time></trkpt><trkpt lat="45.939506624572644" lon="12.245012836402198"><ele>120.85714285714286</ele><time>2026-04-25T10:26:29Z</time></trkpt><trkpt lat="45.93956713479233" lon="12.24495513064512"><ele>121.28571428571429</ele><time>2026-04-25T10:26:30Z</time></trkpt><trkpt lat="45.93962584591265" lon="12.244891477713999"><ele>121.71428571428572</ele><time>2026-04-25T10:26:31Z</time></trkpt><trkpt lat="45.939675351347965" lon="12.244826858943638"><ele>122.14285714285714</ele><time>2026-04-25T10:26:32Z</time></trkpt><trkpt lat="45.93973182707904" lon="12.244762984337049"><ele>122.57142857142858</ele><time>2026-04-25T10:26:33Z</time></trkpt><trkpt lat="45.939783301579325" lon="12.24470958907142"><ele>123.00000000000001</ele><time>2026-04-25T10:26:34Z</time></trkpt><trkpt lat="45.93983741477736" lon="12.244640623798949"><ele>123.14285714285717</ele><time>2026-04-25T10:26:35Z</time></trkpt><trkpt lat="45.93989121504878" lon="12.244577616762724"><ele>123.28571428571429</ele><time>2026-04-25T10:26:36Z</time></trkpt><trkpt lat="45.93994619313417" lon="12.24451647365267"><ele>123.42857142857144</ele><time>2026-04-25T10:26:37Z</time></trkpt><trkpt lat="45.940005554055894" lon="12.24446158313555"><ele>123.57142857142858</ele><time>2026-04-25T10:26:38Z</time></trkpt><trkpt lat="45.940063494295146" lon="12.244408040468429"><ele>123.71428571428572</ele><time>2026-04-25T10:26:39Z</time></trkpt><trkpt lat="45.94012291241241" lon="12.244352215664994"><ele>123.85714285714286</ele><time>2026-04-25T10:26:40Z</time></trkpt><trkpt lat="45.94018036988016" lon="12.244290866814982"><ele>124.0</ele><time>2026-04-25T10:26:41Z</time></trkpt><trkpt lat="45.94023658468093" lon="12.24423373226466"><ele>124.0</ele><time>2026-04-25T10:26:42Z</time></trkpt><trkpt lat="45.940292213665444" lon="12.244174445379379"><ele>124.00000000000001</ele><time>2026-04-25T10:26:43Z</time></trkpt><trkpt lat="45.94035002366228" lon="12.24412299988899"><ele>124.0</ele><time>2026-04-25T10:26:44Z</time></trkpt><trkpt lat="45.940407156128316" lon="12.244071932935142"><ele>124.0</ele><time>2026-04-25T10:26:45Z</time></trkpt><trkpt lat="45.94046402319318" lon="12.244018387468817"><ele>124.00000000000001</ele><time>2026-04-25T10:26:46Z</time></trkpt><trkpt lat="45.94052251094056" lon="12.243966646595444"><ele>124.0</ele><time>2026-04-25T10:26:46.999Z</time></trkpt><trkpt lat="45.94057787696447" lon="12.243911336982517"><ele>124.0</ele><time>2026-04-25T10:26:47.999Z</time></trkpt><trkpt lat="45.94063252396598" lon="12.243855806110421"><ele>124.00000000000001</ele><time>2026-04-25T10:26:48.999Z</time></trkpt><trkpt lat="45.94069008223805" lon="12.243803568774819"><ele>124.0</ele><time>2026-04-25T10:26:49.999Z</time></trkpt><trkpt lat="45.94076497471641" lon="12.243719162361213"><ele>124.0</ele><time>2026-04-25T10:26:51.999Z</time></trkpt><trkpt lat="45.94085721141592" lon="12.243687172373265"><ele>124.0</ele><time>2026-04-25T10:27:33Z</time></trkpt><trkpt lat="45.94091140127157" lon="12.243616964200884"><ele>124.00000000000001</ele><time>2026-04-25T10:27:35Z</time></trkpt><trkpt lat="45.94099011258437" lon="12.243536157490228"><ele>124.0</ele><time>2026-04-25T10:27:37Z</time></trkpt><trkpt lat="45.94108279412404" lon="12.243443525766274"><ele>124.33333333333334</ele><time>2026-04-25T10:27:39Z</time></trkpt><trkpt lat="45.94113529040477" lon="12.243385924621094"><ele>124.66666666666667</ele><time>2026-04-25T10:27:40Z</time></trkpt><trkpt lat="45.94118849216287" lon="12.243333010299173"><ele>125.0</ele><time>2026-04-25T10:27:41Z</time></trkpt><trkpt lat="45.94124211742194" lon="12.243278663185398"><ele>125.33333333333334</ele><time>2026-04-25T10:27:42Z</time></trkpt><trkpt lat="45.94133549881398" lon="12.243184541697842"><ele>125.66666666666667</ele><time>2026-04-25T10:27:44Z</time></trkpt><trkpt lat="45.94138838164579" lon="12.243054669326309"><ele>126.0</ele><time>2026-04-25T10:27:46Z</time></trkpt><trkpt lat="45.94138150938214" lon="12.242888076670889"><ele>126.0</ele><time>2026-04-25T10:27:48Z</time></trkpt><trkpt lat="45.94138027972121" lon="12.242736273071092"><ele>126.0</ele><time>2026-04-25T10:27:50Z</time></trkpt><trkpt lat="45.941359703927134" lon="12.24255359196498"><ele>126.0</ele><time>2026-04-25T10:27:52Z</time></trkpt><trkpt lat="45.94127569210662" lon="12.24241534333805"><ele>126.0</ele><time>2026-04-25T10:27:54Z</time></trkpt><trkpt lat="45.941221207823894" lon="12.242347423793895"><ele>126.0</ele><time>2026-04-25T10:27:55Z</time></trkpt><trkpt lat="45.94118343564648" lon="12.242271814814428"><ele>126.14285714285714</ele><time>2026-04-25T10:27:56Z</time></trkpt><trkpt lat="45.94115867674374" lon="12.242175476491797"><ele>126.28571428571428</ele><time>2026-04-25T10:27:57Z</time></trkpt><trkpt lat="45.94114138828611" lon="12.242074245082177"><ele>126.42857142857143</ele><time>2026-04-25T10:27:58Z</time></trkpt><trkpt lat="45.94112160873823" lon="12.241983016705042"><ele>126.57142857142857</ele><time>2026-04-25T10:27:59Z</time></trkpt><trkpt lat="45.94110637666561" lon="12.241883772196518"><ele>126.71428571428571</ele><time>2026-04-25T10:28:00Z</time></trkpt><trkpt lat="45.94109386267539" lon="12.241777571747175"><ele>126.85714285714286</ele><time>2026-04-25T10:28:01Z</time></trkpt><trkpt lat="45.94108092264949" lon="12.241677204638687"><ele>127.0</ele><time>2026-04-25T10:28:02Z</time></trkpt><trkpt lat="45.941068218847235" lon="12.241576271350626"><ele>127.0</ele><time>2026-04-25T10:28:03Z</time></trkpt><trkpt lat="45.941054532003825" lon="12.241476008794914"><ele>127.0</ele><time>2026-04-25T10:28:04Z</time></trkpt><trkpt lat="45.94103558664841" lon="12.241380071023045"><ele>127.0</ele><time>2026-04-25T10:28:05Z</time></trkpt><trkpt lat="45.94101715576906" lon="12.241283296120342"><ele>127.0</ele><time>2026-04-25T10:28:06Z</time></trkpt><trkpt lat="45.94099622572217" lon="12.241182030857336"><ele>127.0</ele><time>2026-04-25T10:28:07Z</time></trkpt><trkpt lat="45.94097290703558" lon="12.241086929648748"><ele>127.0</ele><time>2026-04-25T10:28:08Z</time></trkpt><trkpt lat="45.94094077036086" lon="12.24099890972452"><ele>127.0</ele><time>2026-04-25T10:28:09Z</time></trkpt><trkpt lat="45.94090570652511" lon="12.240913038348282"><ele>127.0</ele><time>2026-04-25T10:28:10Z</time></trkpt><trkpt lat="45.940873360768286" lon="12.240819817055945"><ele>127.0</ele><time>2026-04-25T10:28:11Z</time></trkpt><trkpt lat="45.940839965820544" lon="12.240737918139455"><ele>127.0</ele><time>2026-04-25T10:28:12Z</time></trkpt><trkpt lat="45.940801157710844" lon="12.24066259614102"><ele>127.0</ele><time>2026-04-25T10:28:13Z</time></trkpt><trkpt lat="45.94076096601076" lon="12.240586014138648"><ele>127.0</ele><time>2026-04-25T10:28:14Z</time></trkpt><trkpt lat="45.9407206202824" lon="12.240511476501885"><ele>127.0</ele><time>2026-04-25T10:28:15Z</time></trkpt><trkpt lat="45.94068106218428" lon="12.24043377116001"><ele>127.0</ele><time>2026-04-25T10:28:16Z</time></trkpt><trkpt lat="45.94061583860122" lon="12.240271939801794"><ele>127.28571428571429</ele><time>2026-04-25T10:28:18Z</time></trkpt><trkpt lat="45.940581284902436" lon="12.240189285100147"><ele>127.57142857142856</ele><time>2026-04-25T10:28:19Z</time></trkpt><trkpt lat="45.94054863156925" lon="12.240106218548737"><ele>127.85714285714285</ele><time>2026-04-25T10:28:20Z</time></trkpt><trkpt lat="45.94051601584264" lon="12.240026897917177"><ele>128.14285714285714</ele><time>2026-04-25T10:28:21Z</time></trkpt><trkpt lat="45.94045825107402" lon="12.239877898646455"><ele>128.42857142857142</ele><time>2026-04-25T10:28:23Z</time></trkpt><trkpt lat="45.9404368670685" lon="12.23979142842715"><ele>128.7142857142857</ele><time>2026-04-25T10:28:24Z</time></trkpt><trkpt lat="45.940423368654066" lon="12.239698075063421"><ele>129.0</ele><time>2026-04-25T10:28:25Z</time></trkpt><trkpt lat="45.94041457776878" lon="12.239608026579122"><ele>130.0</ele><time>2026-04-25T10:28:26Z</time></trkpt><trkpt lat="45.940411680526125" lon="12.239517576715649"><ele>131.0</ele><time>2026-04-25T10:28:27Z</time></trkpt><trkpt lat="45.940414473613956" lon="12.239345763456273"><ele>132.0</ele><time>2026-04-25T10:28:29Z</time></trkpt><trkpt lat="45.94041923641999" lon="12.239174076922302"><ele>133.0</ele><time>2026-04-25T10:28:31Z</time></trkpt><trkpt lat="45.940439316541855" lon="12.239011911190797"><ele>134.0</ele><time>2026-04-25T10:28:33Z</time></trkpt><trkpt lat="45.940454832553876" lon="12.238850503380208"><ele>134.0</ele><time>2026-04-25T10:28:35Z</time></trkpt><trkpt lat="45.940471705199485" lon="12.238696718465594"><ele>134.0</ele><time>2026-04-25T10:28:37Z</time></trkpt><trkpt lat="45.94047995928594" lon="12.238549073110445"><ele>134.0</ele><time>2026-04-25T10:28:39Z</time></trkpt><trkpt lat="45.94049997937603" lon="12.238389182344907"><ele>134.0</ele><time>2026-04-25T10:28:41Z</time></trkpt><trkpt lat="45.94054374237297" lon="12.238253497930984"><ele>134.0</ele><time>2026-04-25T10:28:43Z</time></trkpt><trkpt lat="45.940605964886046" lon="12.238123010318308"><ele>133.8</ele><time>2026-04-25T10:28:45Z</time></trkpt><trkpt lat="45.94066390221543" lon="12.238005326890718"><ele>133.60000000000002</ele><time>2026-04-25T10:28:47Z</time></trkpt><trkpt lat="45.94072940712222" lon="12.237898940321017"><ele>133.4</ele><time>2026-04-25T10:28:49Z</time></trkpt><trkpt lat="45.9407958468412" lon="12.237800896645432"><ele>133.20000000000002</ele><time>2026-04-25T10:28:50.999Z</time></trkpt><trkpt lat="45.94086683170183" lon="12.237691658747478"><ele>133.0</ele><time>2026-04-25T10:28:52.999Z</time></trkpt><trkpt lat="45.94094746724214" lon="12.237570717987577"><ele>133.83333333333334</ele><time>2026-04-25T10:28:54.999Z</time></trkpt><trkpt lat="45.94102223691061" lon="12.237410236066918"><ele>134.66666666666669</ele><time>2026-04-25T10:28:56.999Z</time></trkpt><trkpt lat="45.94105974834658" lon="12.23731490245754"><ele>135.5</ele><time>2026-04-25T10:28:57.999Z</time></trkpt><trkpt lat="45.94108870638943" lon="12.237222177536566"><ele>136.33333333333334</ele><time>2026-04-25T10:28:58.999Z</time></trkpt><trkpt lat="45.94110559910426" lon="12.237120567953323"><ele>137.16666666666666</ele><time>2026-04-25T10:28:59.999Z</time></trkpt><trkpt lat="45.941118515907675" lon="12.237021718874571"><ele>138.0</ele><time>2026-04-25T10:29:00.999Z</time></trkpt><trkpt lat="45.94112529147317" lon="12.236922117816718"><ele>138.0</ele><time>2026-04-25T10:29:01.999Z</time></trkpt><trkpt lat="45.94112875090002" lon="12.23681706554993"><ele>138.0</ele><time>2026-04-25T10:29:02.999Z</time></trkpt><trkpt lat="45.94113547273848" lon="12.236717989536663"><ele>138.0</ele><time>2026-04-25T10:29:03.999Z</time></trkpt><trkpt lat="45.94114384199683" lon="12.236614800025546"><ele>138.0</ele><time>2026-04-25T10:29:04.999Z</time></trkpt><trkpt lat="45.94114722418716" lon="12.23652357860951"><ele>138.0</ele><time>2026-04-25T10:29:05.999Z</time></trkpt><trkpt lat="45.941150105259204" lon="12.236432435645536"><ele>138.0</ele><time>2026-04-25T10:29:06.999Z</time></trkpt><trkpt lat="45.941159917999336" lon="12.236338954427532"><ele>138.0</ele><time>2026-04-25T10:29:08Z</time></trkpt><trkpt lat="45.94116995201836" lon="12.236245806277909"><ele>138.6</ele><time>2026-04-25T10:29:09Z</time></trkpt><trkpt lat="45.941174099409174" lon="12.236063474483995"><ele>139.20000000000002</ele><time>2026-04-25T10:29:11Z</time></trkpt><trkpt lat="45.941176300411314" lon="12.23590112065237"><ele>139.8</ele><time>2026-04-25T10:29:13Z</time></trkpt><trkpt lat="45.94116862113939" lon="12.235738176110573"><ele>140.4</ele><time>2026-04-25T10:29:15Z</time></trkpt><trkpt lat="45.941161717652236" lon="12.235646490859692"><ele>141.0</ele><time>2026-04-25T10:29:16Z</time></trkpt><trkpt lat="45.9411202235294" lon="12.235450168463752"><ele>141.5</ele><time>2026-04-25T10:29:18Z</time></trkpt><trkpt lat="45.94109915498855" lon="12.235337025359746"><ele>142.0</ele><time>2026-04-25T10:29:19Z</time></trkpt><trkpt lat="45.94106307230095" lon="12.23523295311086"><ele>142.5</ele><time>2026-04-25T10:29:20Z</time></trkpt><trkpt lat="45.94102762672815" lon="12.23512928309672"><ele>143.0</ele><time>2026-04-25T10:29:21Z</time></trkpt><trkpt lat="45.940992094295794" lon="12.23502957394196"><ele>143.5</ele><time>2026-04-25T10:29:22Z</time></trkpt><trkpt lat="45.94095575650323" lon="12.234924510594732"><ele>144.0</ele><time>2026-04-25T10:29:23Z</time></trkpt><trkpt lat="45.94090782182907" lon="12.234821586288467"><ele>142.33333333333334</ele><time>2026-04-25T10:29:24Z</time></trkpt><trkpt lat="45.940862729174675" lon="12.234733598790164"><ele>140.66666666666666</ele><time>2026-04-25T10:29:25Z</time></trkpt><trkpt lat="45.94082466062255" lon="12.234651824256089"><ele>139.0</ele><time>2026-04-25T10:29:26Z</time></trkpt><trkpt lat="45.94079920663523" lon="12.2345438065361"><ele>137.33333333333331</ele><time>2026-04-25T10:29:27Z</time></trkpt><trkpt lat="45.94077993090627" lon="12.234438875494236"><ele>135.66666666666666</ele><time>2026-04-25T10:29:28Z</time></trkpt><trkpt lat="45.9407665083836" lon="12.234330915350963"><ele>134.0</ele><time>2026-04-25T10:29:29Z</time></trkpt><trkpt lat="45.940759052438466" lon="12.234218932477463"><ele>134.0</ele><time>2026-04-25T10:29:30Z</time></trkpt><trkpt lat="45.94075450578299" lon="12.234117104201122"><ele>134.0</ele><time>2026-04-25T10:29:31Z</time></trkpt><trkpt lat="45.94074742560897" lon="12.234019421286211"><ele>134.0</ele><time>2026-04-25T10:29:32Z</time></trkpt><trkpt lat="45.94074439750664" lon="12.233904035765994"><ele>134.0</ele><time>2026-04-25T10:29:33Z</time></trkpt><trkpt lat="45.94073800053377" lon="12.233797498926767"><ele>134.0</ele><time>2026-04-25T10:29:34Z</time></trkpt><trkpt lat="45.94072544821966" lon="12.233691775925982"><ele>134.0</ele><time>2026-04-25T10:29:35Z</time></trkpt><trkpt lat="45.940716505616315" lon="12.233587660937753"><ele>134.0</ele><time>2026-04-25T10:29:36Z</time></trkpt><trkpt lat="45.94070403009503" lon="12.23349056338732"><ele>134.14285714285714</ele><time>2026-04-25T10:29:37Z</time></trkpt><trkpt lat="45.94069217464621" lon="12.233389454931048"><ele>134.28571428571428</ele><time>2026-04-25T10:29:38Z</time></trkpt><trkpt lat="45.94068087312494" lon="12.233285173540407"><ele>134.42857142857142</ele><time>2026-04-25T10:29:39Z</time></trkpt><trkpt lat="45.94066948279949" lon="12.233188262126738"><ele>134.57142857142856</ele><time>2026-04-25T10:29:40Z</time></trkpt><trkpt lat="45.94065926128324" lon="12.233087331862636"><ele>134.7142857142857</ele><time>2026-04-25T10:29:41Z</time></trkpt><trkpt lat="45.94064786544957" lon="12.232983488926065"><ele>134.85714285714286</ele><time>2026-04-25T10:29:42Z</time></trkpt><trkpt lat="45.94063466239018" lon="12.232888137738765"><ele>135.0</ele><time>2026-04-25T10:29:43Z</time></trkpt><trkpt lat="45.94062346115147" lon="12.232785135898729"><ele>134.66666666666666</ele><time>2026-04-25T10:29:44Z</time></trkpt><trkpt lat="45.94062109136501" lon="12.232689708145115"><ele>134.33333333333334</ele><time>2026-04-25T10:29:45Z</time></trkpt><trkpt lat="45.94061765062099" lon="12.232588896141744"><ele>134.0</ele><time>2026-04-25T10:29:46Z</time></trkpt><trkpt lat="45.94061355280484" lon="12.232494860322166"><ele>133.66666666666669</ele><time>2026-04-25T10:29:47Z</time></trkpt><trkpt lat="45.940605929845646" lon="12.232404307288355"><ele>133.33333333333334</ele><time>2026-04-25T10:29:48Z</time></trkpt><trkpt lat="45.94058019573852" lon="12.232231319085193"><ele>133.0</ele><time>2026-04-25T10:29:50Z</time></trkpt><trkpt lat="45.940564388898025" lon="12.232142317686694"><ele>134.0</ele><time>2026-04-25T10:29:51Z</time></trkpt><trkpt lat="45.940551275688875" lon="12.231965446602477"><ele>135.0</ele><time>2026-04-25T10:29:53Z</time></trkpt><trkpt lat="45.94054552285645" lon="12.23179387892832"><ele>136.0</ele><time>2026-04-25T10:29:55Z</time></trkpt><trkpt lat="45.940535308421346" lon="12.231636660342758"><ele>137.0</ele><time>2026-04-25T10:29:57Z</time></trkpt><trkpt lat="45.94051701900808" lon="12.231469720349487"><ele>138.0</ele><time>2026-04-25T10:29:59Z</time></trkpt><trkpt lat="45.94049287806982" lon="12.231306379410347"><ele>139.0</ele><time>2026-04-25T10:30:01Z</time></trkpt><trkpt lat="45.940484304390004" lon="12.231159049030046"><ele>140.0</ele><time>2026-04-25T10:30:03Z</time></trkpt><trkpt lat="45.940476101034214" lon="12.230996314025123"><ele>141.0</ele><time>2026-04-25T10:30:05Z</time></trkpt><trkpt lat="45.94044980547619" lon="12.230835679826114"><ele>142.0</ele><time>2026-04-25T10:30:07Z</time></trkpt><trkpt lat="45.9404233673283" lon="12.230669967863626"><ele>144.0</ele><time>2026-04-25T10:30:09Z</time></trkpt><trkpt lat="45.940410346267875" lon="12.230505913973277"><ele>146.0</ele><time>2026-04-25T10:30:11Z</time></trkpt><trkpt lat="45.94039361438779" lon="12.230343667993312"><ele>148.0</ele><time>2026-04-25T10:30:13Z</time></trkpt><trkpt lat="45.94036999625346" lon="12.230175441977394"><ele>150.0</ele><time>2026-04-25T10:30:15Z</time></trkpt><trkpt lat="45.94034221138062" lon="12.230003273104762"><ele>150.0</ele><time>2026-04-25T10:30:17Z</time></trkpt><trkpt lat="45.94033799382083" lon="12.229911356037896"><ele>150.0</ele><time>2026-04-25T10:30:18Z</time></trkpt><trkpt lat="45.94034865561749" lon="12.229750344605073"><ele>150.0</ele><time>2026-04-25T10:30:20Z</time></trkpt><trkpt lat="45.940377559310825" lon="12.229590276252312"><ele>150.0</ele><time>2026-04-25T10:30:22Z</time></trkpt><trkpt lat="45.94041312811585" lon="12.229428692065873"><ele>150.0</ele><time>2026-04-25T10:30:24Z</time></trkpt><trkpt lat="45.940449302220415" lon="12.229274442335697"><ele>150.66666666666666</ele><time>2026-04-25T10:30:26Z</time></trkpt><trkpt lat="45.94049721089009" lon="12.229132904515195"><ele>151.33333333333334</ele><time>2026-04-25T10:30:28Z</time></trkpt><trkpt lat="45.94050229380923" lon="12.229007364469776"><ele>152.0</ele><time>2026-04-25T10:30:30Z</time></trkpt><trkpt lat="45.94046199682983" lon="12.228907483838778"><ele>152.66666666666669</ele><time>2026-04-25T10:30:32Z</time></trkpt><trkpt lat="45.94042390754652" lon="12.228825073686108"><ele>153.33333333333334</ele><time>2026-04-25T10:30:34Z</time></trkpt><trkpt lat="45.940360922787065" lon="12.228718436682056"><ele>154.0</ele><time>2026-04-25T10:30:37Z</time></trkpt><trkpt lat="45.940293737720374" lon="12.228643686513978"><ele>153.5</ele><time>2026-04-25T10:30:39Z</time></trkpt><trkpt lat="45.94023262360316" lon="12.228587742637604"><ele>153.0</ele><time>2026-04-25T10:30:41Z</time></trkpt><trkpt lat="45.94015285162435" lon="12.228471505444945"><ele>152.5</ele><time>2026-04-25T10:30:43Z</time></trkpt><trkpt lat="45.94007526351511" lon="12.228398731183967"><ele>152.0</ele><time>2026-04-25T10:30:45Z</time></trkpt><trkpt lat="45.94000683614653" lon="12.228322469676735"><ele>151.5</ele><time>2026-04-25T10:30:47Z</time></trkpt><trkpt lat="45.93995585136593" lon="12.22822773113232"><ele>151.0</ele><time>2026-04-25T10:30:49Z</time></trkpt><trkpt lat="45.939886334098105" lon="12.228119439904548"><ele>151.00000000000003</ele><time>2026-04-25T10:30:51.999Z</time></trkpt><trkpt lat="45.9398457184197" lon="12.22803407713066"><ele>151.0</ele><time>2026-04-25T10:30:53.999Z</time></trkpt><trkpt lat="45.939820314276204" lon="12.227947501120235"><ele>151.0</ele><time>2026-04-25T10:30:55.999Z</time></trkpt><trkpt lat="45.93980997160467" lon="12.22785312379783"><ele>151.0</ele><time>2026-04-25T10:30:57.999Z</time></trkpt><trkpt lat="45.939778127761095" lon="12.227732420983564"><ele>151.0</ele><time>2026-04-25T10:31:00.999Z</time></trkpt><trkpt lat="45.9397458097024" lon="12.227618551562598"><ele>151.00000000000003</ele><time>2026-04-25T10:31:03.999Z</time></trkpt><trkpt lat="45.939723479189205" lon="12.227533869862395"><ele>151.0</ele><time>2026-04-25T10:31:05.999Z</time></trkpt><trkpt lat="45.93969470661186" lon="12.227449357150642"><ele>151.0</ele><time>2026-04-25T10:31:07.999Z</time></trkpt><trkpt lat="45.93966750137099" lon="12.227361359118985"><ele>151.0</ele><time>2026-04-25T10:31:09.999Z</time></trkpt><trkpt lat="45.93963619029706" lon="12.22727122317626"><ele>151.0</ele><time>2026-04-25T10:31:11.999Z</time></trkpt><trkpt lat="45.939588882744985" lon="12.227177978680087"><ele>151.0</ele><time>2026-04-25T10:31:14Z</time></trkpt><trkpt lat="45.939541926001404" lon="12.227099002672702"><ele>151.0</ele><time>2026-04-25T10:31:17Z</time></trkpt><trkpt lat="45.93946025896555" lon="12.226877857440373"><ele>151.0</ele><time>2026-04-25T10:31:19Z</time></trkpt><trkpt lat="45.93940336174926" lon="12.226753342863386"><ele>151.0</ele><time>2026-04-25T10:31:20Z</time></trkpt><trkpt lat="45.93934572425387" lon="12.226652779890362"><ele>151.0</ele><time>2026-04-25T10:31:21Z</time></trkpt><trkpt lat="45.93928534347289" lon="12.226562002143393"><ele>151.0</ele><time>2026-04-25T10:31:22Z</time></trkpt><trkpt lat="45.939217465368294" lon="12.226480549202257"><ele>151.0</ele><time>2026-04-25T10:31:23Z</time></trkpt><trkpt lat="45.939156634531855" lon="12.22640049046601"><ele>151.0</ele><time>2026-04-25T10:31:24Z</time></trkpt><trkpt lat="45.93908608061579" lon="12.226335944527106"><ele>151.0</ele><time>2026-04-25T10:31:25Z</time></trkpt><trkpt lat="45.93902352967178" lon="12.22626190228048"><ele>151.0</ele><time>2026-04-25T10:31:26Z</time></trkpt><trkpt lat="45.938978490982436" lon="12.226173751070586"><ele>151.0</ele><time>2026-04-25T10:31:27Z</time></trkpt><trkpt lat="45.93895129172883" lon="12.226063044826908"><ele>151.0</ele><time>2026-04-25T10:31:28Z</time></trkpt><trkpt lat="45.93895918233716" lon="12.22595628478637"><ele>151.0</ele><time>2026-04-25T10:31:29Z</time></trkpt><trkpt lat="45.93899037940559" lon="12.225861644135938"><ele>151.0</ele><time>2026-04-25T10:31:30Z</time></trkpt><trkpt lat="45.93904479490397" lon="12.22573755852713"><ele>151.0</ele><time>2026-04-25T10:31:32Z</time></trkpt><trkpt lat="45.93910001438208" lon="12.225552148478288"><ele>151.0</ele><time>2026-04-25T10:31:34Z</time></trkpt><trkpt lat="45.939122785657844" lon="12.225456152575573"><ele>151.0</ele><time>2026-04-25T10:31:35Z</time></trkpt><trkpt lat="45.939151567972424" lon="12.225374266302124"><ele>151.0</ele><time>2026-04-25T10:31:36Z</time></trkpt><trkpt lat="45.93922943626583" lon="12.225214570112339"><ele>152.8</ele><time>2026-04-25T10:31:38Z</time></trkpt><trkpt lat="45.9392730327069" lon="12.225144010649137"><ele>154.6</ele><time>2026-04-25T10:31:39Z</time></trkpt><trkpt lat="45.939359035578214" lon="12.225030676921742"><ele>156.4</ele><time>2026-04-25T10:31:41Z</time></trkpt><trkpt lat="45.93944125923028" lon="12.224899207440759"><ele>158.2</ele><time>2026-04-25T10:31:43Z</time></trkpt><trkpt lat="45.93950261100586" lon="12.224778178754294"><ele>160.0</ele><time>2026-04-25T10:31:45Z</time></trkpt><trkpt lat="45.93956283152564" lon="12.224637819540693"><ele>160.0</ele><time>2026-04-25T10:31:47Z</time></trkpt><trkpt lat="45.93960296642381" lon="12.224552859134969"><ele>160.0</ele><time>2026-04-25T10:31:48Z</time></trkpt><trkpt lat="45.93967519971613" lon="12.224411055252265"><ele>160.0</ele><time>2026-04-25T10:31:50Z</time></trkpt><trkpt lat="45.93974149921637" lon="12.224288508694553"><ele>160.0</ele><time>2026-04-25T10:31:52Z</time></trkpt><trkpt lat="45.939801493402" lon="12.224146319226557"><ele>160.0</ele><time>2026-04-25T10:31:54Z</time></trkpt><trkpt lat="45.93981952578127" lon="12.223971614965436"><ele>159.75</ele><time>2026-04-25T10:31:56Z</time></trkpt><trkpt lat="45.93979519970582" lon="12.223805864210936"><ele>159.5</ele><time>2026-04-25T10:31:58Z</time></trkpt><trkpt lat="45.93976261420954" lon="12.22365349621504"><ele>159.25</ele><time>2026-04-25T10:32:00Z</time></trkpt><trkpt lat="45.93973937553528" lon="12.223486892765212"><ele>159.0</ele><time>2026-04-25T10:32:02Z</time></trkpt><trkpt lat="45.93973742859913" lon="12.223314931986236"><ele>159.0</ele><time>2026-04-25T10:32:04Z</time></trkpt><trkpt lat="45.939768214055334" lon="12.223158616586703"><ele>159.0</ele><time>2026-04-25T10:32:06Z</time></trkpt><trkpt lat="45.939844181861986" lon="12.223051920953857"><ele>159.0</ele><time>2026-04-25T10:32:08Z</time></trkpt><trkpt lat="45.93991881776974" lon="12.222957144212"><ele>159.0</ele><time>2026-04-25T10:32:10Z</time></trkpt><trkpt lat="45.939983282647056" lon="12.222855383783417"><ele>159.0</ele><time>2026-04-25T10:32:12Z</time></trkpt><trkpt lat="45.94004252929117" lon="12.222743573519374"><ele>159.75</ele><time>2026-04-25T10:32:14Z</time></trkpt><trkpt lat="45.9401188098602" lon="12.222623312634896"><ele>160.5</ele><time>2026-04-25T10:32:16Z</time></trkpt><trkpt lat="45.940207225729154" lon="12.222510547662186"><ele>161.25</ele><time>2026-04-25T10:32:18Z</time></trkpt><trkpt lat="45.94028822251059" lon="12.222384696543223"><ele>162.0</ele><time>2026-04-25T10:32:20Z</time></trkpt><trkpt lat="45.94036860025566" lon="12.222267542585582"><ele>162.0</ele><time>2026-04-25T10:32:22Z</time></trkpt><trkpt lat="45.94040612686313" lon="12.222193369964117"><ele>162.0</ele><time>2026-04-25T10:32:23Z</time></trkpt><trkpt lat="45.94044750446105" lon="12.222114977901473"><ele>162.0</ele><time>2026-04-25T10:32:24Z</time></trkpt><trkpt lat="45.940490772163066" lon="12.222042359947832"><ele>162.0</ele><time>2026-04-25T10:32:25Z</time></trkpt><trkpt lat="45.94053180660412" lon="12.221963063609177"><ele>162.0</ele><time>2026-04-25T10:32:26Z</time></trkpt><trkpt lat="45.94057356997345" lon="12.221887194532277"><ele>162.0</ele><time>2026-04-25T10:32:27Z</time></trkpt><trkpt lat="45.94061541268642" lon="12.2218118731894"><ele>162.0</ele><time>2026-04-25T10:32:28Z</time></trkpt><trkpt lat="45.94065170689752" lon="12.2217352542543"><ele>162.0</ele><time>2026-04-25T10:32:29Z</time></trkpt><trkpt lat="45.940683684733315" lon="12.221655798240034"><ele>162.0</ele><time>2026-04-25T10:32:30Z</time></trkpt><trkpt lat="45.9407406620473" lon="12.221508830555145"><ele>162.0</ele><time>2026-04-25T10:32:32Z</time></trkpt><trkpt lat="45.9407997259063" lon="12.221400911543325"><ele>162.0</ele><time>2026-04-25T10:32:34Z</time></trkpt><trkpt lat="45.94084394955626" lon="12.221276911909966"><ele>162.0</ele><time>2026-04-25T10:32:36Z</time></trkpt><trkpt lat="45.94088959798358" lon="12.221164935459766"><ele>165.33333333333334</ele><time>2026-04-25T10:32:38Z</time></trkpt><trkpt lat="45.94093124646468" lon="12.221078713592114"><ele>168.66666666666666</ele><time>2026-04-25T10:32:40Z</time></trkpt><trkpt lat="45.940974395331956" lon="12.220998495891303"><ele>172.0</ele><time>2026-04-25T10:32:43Z</time></trkpt><trkpt lat="45.941018344679435" lon="12.22088572828506"><ele>175.33333333333331</ele><time>2026-04-25T10:32:45.999Z</time></trkpt><trkpt lat="45.941032763128824" lon="12.220796351110279"><ele>178.66666666666666</ele><time>2026-04-25T10:32:47.999Z</time></trkpt><trkpt lat="45.9410524712828" lon="12.220657476879877"><ele>182.0</ele><time>2026-04-25T10:32:50.999Z</time></trkpt><trkpt lat="45.94105714705351" lon="12.22055513098149"><ele>182.33333333333331</ele><time>2026-04-25T10:32:52.999Z</time></trkpt><trkpt lat="45.94107001119998" lon="12.220459367591161"><ele>182.66666666666666</ele><time>2026-04-25T10:32:54.999Z</time></trkpt><trkpt lat="45.941081512229005" lon="12.220333938902057"><ele>183.0</ele><time>2026-04-25T10:32:57.999Z</time></trkpt><trkpt lat="45.94109326816645" lon="12.220216411863591"><ele>183.33333333333334</ele><time>2026-04-25T10:33:00.999Z</time></trkpt><trkpt lat="45.94111144647199" lon="12.220087243531035"><ele>183.66666666666669</ele><time>2026-04-25T10:33:03.999Z</time></trkpt><trkpt lat="45.941124386437586" lon="12.219993784628768"><ele>184.0</ele><time>2026-04-25T10:33:05.999Z</time></trkpt><trkpt lat="45.94113788008046" lon="12.219893563347997"><ele>182.33333333333334</ele><time>2026-04-25T10:33:07.999Z</time></trkpt><trkpt lat="45.941137484757846" lon="12.219791585554626"><ele>180.66666666666669</ele><time>2026-04-25T10:33:09.999Z</time></trkpt><trkpt lat="45.94115039447297" lon="12.219667108452859"><ele>179.0</ele><time>2026-04-25T10:33:11.999Z</time></trkpt><trkpt lat="45.94116708929402" lon="12.219540923131678"><ele>177.33333333333334</ele><time>2026-04-25T10:33:15.999Z</time></trkpt><trkpt lat="45.941205033604874" lon="12.219452703715024"><ele>175.66666666666666</ele><time>2026-04-25T10:33:17.999Z</time></trkpt><trkpt lat="45.941266147009074" lon="12.219386540749625"><ele>174.0</ele><time>2026-04-25T10:33:20Z</time></trkpt><trkpt lat="45.94132535770043" lon="12.21930448938172"><ele>174.0</ele><time>2026-04-25T10:33:22Z</time></trkpt><trkpt lat="45.94135824873305" lon="12.219225004407114"><ele>174.0</ele><time>2026-04-25T10:33:24Z</time></trkpt><trkpt lat="45.94137308288541" lon="12.219110931512136"><ele>174.0</ele><time>2026-04-25T10:33:26Z</time></trkpt><trkpt lat="45.94137713855394" lon="12.218987472137618"><ele>174.0</ele><time>2026-04-25T10:33:28Z</time></trkpt><trkpt lat="45.941364336634514" lon="12.218889008232596"><ele>174.0</ele><time>2026-04-25T10:33:30Z</time></trkpt><trkpt lat="45.94136306545389" lon="12.218754299287994"><ele>174.0</ele><time>2026-04-25T10:33:32Z</time></trkpt><trkpt lat="45.941375135651185" lon="12.218659054383455"><ele>173.16666666666666</ele><time>2026-04-25T10:33:34Z</time></trkpt><trkpt lat="45.9413934765764" lon="12.21853127589825"><ele>172.33333333333334</ele><time>2026-04-25T10:33:37Z</time></trkpt><trkpt lat="45.94141903512187" lon="12.218435174499673"><ele>171.5</ele><time>2026-04-25T10:33:39Z</time></trkpt><trkpt lat="45.941438185875015" lon="12.218297354895645"><ele>170.66666666666669</ele><time>2026-04-25T10:33:42Z</time></trkpt><trkpt lat="45.94145407277738" lon="12.218199057466425"><ele>169.83333333333334</ele><time>2026-04-25T10:33:44Z</time></trkpt><trkpt lat="45.9414599172046" lon="12.21807027680127"><ele>169.0</ele><time>2026-04-25T10:33:47Z</time></trkpt><trkpt lat="45.941480100548404" lon="12.217932600485145"><ele>169.0</ele><time>2026-04-25T10:33:50Z</time></trkpt><trkpt lat="45.94151423841464" lon="12.21782930124242"><ele>169.0</ele><time>2026-04-25T10:33:52Z</time></trkpt><trkpt lat="45.941575251078184" lon="12.217727610343406"><ele>169.0</ele><time>2026-04-25T10:33:54Z</time></trkpt><trkpt lat="45.94162784143005" lon="12.217590730195898"><ele>169.0</ele><time>2026-04-25T10:33:55Z</time></trkpt><trkpt lat="45.94166259362811" lon="12.217475963595453"><ele>169.0</ele><time>2026-04-25T10:33:56Z</time></trkpt><trkpt lat="45.94167605388395" lon="12.217368152146221"><ele>169.0</ele><time>2026-04-25T10:33:57Z</time></trkpt><trkpt lat="45.94167627199305" lon="12.2172688032911"><ele>169.6</ele><time>2026-04-25T10:33:58Z</time></trkpt><trkpt lat="45.94165905668933" lon="12.21710146007331"><ele>170.2</ele><time>2026-04-25T10:34:00Z</time></trkpt><trkpt lat="45.94162627648195" lon="12.216948248890308"><ele>170.79999999999998</ele><time>2026-04-25T10:34:02Z</time></trkpt><trkpt lat="45.941599167302705" lon="12.216814842714776"><ele>171.39999999999998</ele><time>2026-04-25T10:34:04Z</time></trkpt><trkpt lat="45.94157942396041" lon="12.216672117563666"><ele>172.0</ele><time>2026-04-25T10:34:06Z</time></trkpt><trkpt lat="45.941558266852354" lon="12.21653460817076"><ele>173.16666666666669</ele><time>2026-04-25T10:34:08Z</time></trkpt><trkpt lat="45.941531005941904" lon="12.21644553778101"><ele>174.33333333333334</ele><time>2026-04-25T10:34:10Z</time></trkpt><trkpt lat="45.94150960323413" lon="12.216343005915082"><ele>175.5</ele><time>2026-04-25T10:34:12Z</time></trkpt><trkpt lat="45.941474322687306" lon="12.216236233303496"><ele>176.66666666666666</ele><time>2026-04-25T10:34:15Z</time></trkpt><trkpt lat="45.94144627727657" lon="12.21612256077834"><ele>177.83333333333331</ele><time>2026-04-25T10:34:18Z</time></trkpt><trkpt lat="45.941429869343196" lon="12.21601516138791"><ele>179.0</ele><time>2026-04-25T10:34:21Z</time></trkpt><trkpt lat="45.94142610176836" lon="12.215894467194476"><ele>179.00000000000003</ele><time>2026-04-25T10:34:24Z</time></trkpt><trkpt lat="45.941439781802586" lon="12.215795198133932"><ele>179.0</ele><time>2026-04-25T10:34:28Z</time></trkpt><trkpt lat="45.94143915328565" lon="12.215671180570057"><ele>179.0</ele><time>2026-04-25T10:34:33Z</time></trkpt><trkpt lat="45.94142672837703" lon="12.215573881714702"><ele>179.0</ele><time>2026-04-25T10:34:36.999Z</time></trkpt><trkpt lat="45.94141185258896" lon="12.215473115495236"><ele>179.0</ele><time>2026-04-25T10:34:40.999Z</time></trkpt><trkpt lat="45.94139959076435" lon="12.215380009688754"><ele>179.00000000000003</ele><time>2026-04-25T10:34:44.999Z</time></trkpt><trkpt lat="45.94137852651869" lon="12.215263602977474"><ele>179.0</ele><time>2026-04-25T10:34:49.999Z</time></trkpt><trkpt lat="45.94136733877726" lon="12.21517419323623"><ele>180.83333333333331</ele><time>2026-04-25T10:34:53.999Z</time></trkpt><trkpt lat="45.94134226321846" lon="12.215066076304616"><ele>182.66666666666666</ele><time>2026-04-25T10:34:58.999Z</time></trkpt><trkpt lat="45.94132463568817" lon="12.214947782927368"><ele>184.5</ele><time>2026-04-25T10:35:03.999Z</time></trkpt><trkpt lat="45.94131386796841" lon="12.214851041673974"><ele>186.33333333333334</ele><time>2026-04-25T10:35:07.999Z</time></trkpt><trkpt lat="45.94130811080775" lon="12.214754291629681"><ele>188.16666666666669</ele><time>2026-04-25T10:35:11.999Z</time></trkpt><trkpt lat="45.94130471281672" lon="12.214630067459867"><ele>190.0</ele><time>2026-04-25T10:35:16.999Z</time></trkpt><trkpt lat="45.9413170268643" lon="12.214514571626621"><ele>191.5</ele><time>2026-04-25T10:35:21.999Z</time></trkpt><trkpt lat="45.941323141852216" lon="12.214391453850872"><ele>193.0</ele><time>2026-04-25T10:35:27Z</time></trkpt><trkpt lat="45.9413408788652" lon="12.21427861262623"><ele>194.5</ele><time>2026-04-25T10:35:32Z</time></trkpt><trkpt lat="45.941365356311216" lon="12.214163956056005"><ele>196.0</ele><time>2026-04-25T10:35:38Z</time></trkpt><trkpt lat="45.94139317460063" lon="12.214064687426552"><ele>197.49999999999997</ele><time>2026-04-25T10:35:43Z</time></trkpt><trkpt lat="45.94142770530216" lon="12.213978733137603"><ele>199.0</ele><time>2026-04-25T10:35:47Z</time></trkpt><trkpt lat="45.941453780661334" lon="12.213867108568843"><ele>200.7142857142857</ele><time>2026-04-25T10:35:53Z</time></trkpt><trkpt lat="45.941486332185356" lon="12.213777645457007"><ele>202.42857142857142</ele><time>2026-04-25T10:35:58Z</time></trkpt><trkpt lat="45.941522064494634" lon="12.213684808920842"><ele>204.14285714285714</ele><time>2026-04-25T10:36:03Z</time></trkpt><trkpt lat="45.941557545708925" lon="12.213587720662112"><ele>205.85714285714283</ele><time>2026-04-25T10:36:08Z</time></trkpt><trkpt lat="45.94159067377629" lon="12.213504406966235"><ele>207.57142857142858</ele><time>2026-04-25T10:36:12Z</time></trkpt><trkpt lat="45.94162318487221" lon="12.213420488071444"><ele>209.28571428571428</ele><time>2026-04-25T10:36:17Z</time></trkpt><trkpt lat="45.94166567142251" lon="12.213334102900879"><ele>211.0</ele><time>2026-04-25T10:36:22Z</time></trkpt><trkpt lat="45.94172164304253" lon="12.213264593524455"><ele>213.14285714285714</ele><time>2026-04-25T10:36:27Z</time></trkpt><trkpt lat="45.941780170920296" lon="12.213193396218834"><ele>215.28571428571428</ele><time>2026-04-25T10:36:32Z</time></trkpt><trkpt lat="45.94184106196592" lon="12.21315187898891"><ele>217.42857142857144</ele><time>2026-04-25T10:36:37Z</time></trkpt><trkpt lat="45.94190452555305" lon="12.213144831253826"><ele>219.57142857142856</ele><time>2026-04-25T10:36:41Z</time></trkpt><trkpt lat="45.941956489994816" lon="12.21321221632665"><ele>221.7142857142857</ele><time>2026-04-25T10:36:48Z</time></trkpt><trkpt lat="45.941957743642924" lon="12.213305155379928"><ele>223.85714285714286</ele><time>2026-04-25T10:36:53Z</time></trkpt><trkpt lat="45.941965786428426" lon="12.213403835666659"><ele>226.0</ele><time>2026-04-25T10:36:57Z</time></trkpt><trkpt lat="45.9419768633883" lon="12.213497244265495"><ele>226.0</ele><time>2026-04-25T10:37:02Z</time></trkpt><trkpt lat="45.94201111890124" lon="12.213584776282541"><ele>226.0</ele><time>2026-04-25T10:37:07Z</time></trkpt><trkpt lat="45.94206970227923" lon="12.213635510889626"><ele>226.0</ele><time>2026-04-25T10:37:12Z</time></trkpt><trkpt lat="45.94214904792205" lon="12.213654654365467"><ele>226.0</ele><time>2026-04-25T10:37:17Z</time></trkpt><trkpt lat="45.94221532193932" lon="12.213636005501593"><ele>226.0</ele><time>2026-04-25T10:37:22Z</time></trkpt><trkpt lat="45.94226999730198" lon="12.213568143669074"><ele>226.0</ele><time>2026-04-25T10:37:27Z</time></trkpt><trkpt lat="45.94229608537703" lon="12.213475250638872"><ele>226.0</ele><time>2026-04-25T10:37:32.999Z</time></trkpt><trkpt lat="45.94230158166989" lon="12.213383647877576"><ele>226.0</ele><time>2026-04-25T10:37:37.999Z</time></trkpt><trkpt lat="45.94232366031283" lon="12.213296593767268"><ele>226.0</ele><time>2026-04-25T10:37:42.999Z</time></trkpt><trkpt lat="45.94234996888654" lon="12.213213599564034"><ele>226.0</ele><time>2026-04-25T10:37:47.999Z</time></trkpt><trkpt lat="45.94237841612659" lon="12.213131337203352"><ele>226.0</ele><time>2026-04-25T10:37:52.999Z</time></trkpt><trkpt lat="45.942397240153966" lon="12.213028084013285"><ele>226.0</ele><time>2026-04-25T10:37:58.999Z</time></trkpt><trkpt lat="45.94241474301313" lon="12.212914286867056"><ele>226.0</ele><time>2026-04-25T10:38:04.999Z</time></trkpt><trkpt lat="45.94240864007194" lon="12.212818289037825"><ele>226.0</ele><time>2026-04-25T10:38:10.999Z</time></trkpt><trkpt lat="45.942402252496066" lon="12.212723343412673"><ele>229.14285714285717</ele><time>2026-04-25T10:38:15.999Z</time></trkpt><trkpt lat="45.94236702778422" lon="12.21263324967278"><ele>232.28571428571428</ele><time>2026-04-25T10:38:20.999Z</time></trkpt><trkpt lat="45.94231368065453" lon="12.212570457320384"><ele>235.42857142857144</ele><time>2026-04-25T10:38:25.999Z</time></trkpt><trkpt lat="45.942255110468984" lon="12.212535644887504"><ele>238.57142857142858</ele><time>2026-04-25T10:38:30.999Z</time></trkpt><trkpt lat="45.942199635615275" lon="12.212471291826665"><ele>241.71428571428572</ele><time>2026-04-25T10:38:35.999Z</time></trkpt><trkpt lat="45.94214329000385" lon="12.212407689761807"><ele>244.85714285714286</ele><time>2026-04-25T10:38:39.999Z</time></trkpt><trkpt lat="45.942079702487376" lon="12.212346161519873"><ele>248.0</ele><time>2026-04-25T10:38:44.999Z</time></trkpt><trkpt lat="45.94201276119635" lon="12.212282242226376"><ele>251.42857142857144</ele><time>2026-04-25T10:38:49.999Z</time></trkpt><trkpt lat="45.94195229984973" lon="12.212198481363027"><ele>254.8571428571429</ele><time>2026-04-25T10:38:54.999Z</time></trkpt><trkpt lat="45.941904859092155" lon="12.212111809205744"><ele>258.2857142857143</ele><time>2026-04-25T10:38:59.999Z</time></trkpt><trkpt lat="45.941861828760466" lon="12.212036711213367"><ele>261.7142857142857</ele><time>2026-04-25T10:39:03.999Z</time></trkpt><trkpt lat="45.9418308178647" lon="12.21194630419275"><ele>265.1428571428571</ele><time>2026-04-25T10:39:07.999Z</time></trkpt><trkpt lat="45.94178479195324" lon="12.211857044843708"><ele>268.57142857142856</ele><time>2026-04-25T10:39:12.999Z</time></trkpt><trkpt lat="45.94175011897336" lon="12.211774857750667"><ele>272.0</ele><time>2026-04-25T10:39:17.999Z</time></trkpt><trkpt lat="45.94171596014312" lon="12.211697409060353"><ele>270.2857142857143</ele><time>2026-04-25T10:39:21.999Z</time></trkpt><trkpt lat="45.94167693094003" lon="12.211612829942327"><ele>268.57142857142856</ele><time>2026-04-25T10:39:25.999Z</time></trkpt><trkpt lat="45.941631899777384" lon="12.211541569396378"><ele>266.8571428571429</ele><time>2026-04-25T10:39:29.999Z</time></trkpt><trkpt lat="45.941580126195674" lon="12.211475729178803"><ele>265.1428571428571</ele><time>2026-04-25T10:39:33.999Z</time></trkpt><trkpt lat="45.94152804433035" lon="12.211411976749453"><ele>263.42857142857144</ele><time>2026-04-25T10:39:37.999Z</time></trkpt><trkpt lat="45.941455631083066" lon="12.211376366054484"><ele>261.7142857142857</ele><time>2026-04-25T10:39:42.999Z</time></trkpt><trkpt lat="45.94137769866105" lon="12.211384851664944"><ele>260.0</ele><time>2026-04-25T10:39:49.999Z</time></trkpt><trkpt lat="45.94130986508939" lon="12.211374966758665"><ele>260.0</ele><time>2026-04-25T10:39:53.999Z</time></trkpt><trkpt lat="45.94122676280242" lon="12.211362365342728"><ele>260.0</ele><time>2026-04-25T10:39:58.999Z</time></trkpt><trkpt lat="45.941147711229654" lon="12.21137249175762"><ele>260.0</ele><time>2026-04-25T10:40:03.999Z</time></trkpt><trkpt lat="45.941059041497134" lon="12.211380766277154"><ele>260.0</ele><time>2026-04-25T10:40:08.999Z</time></trkpt><trkpt lat="45.9409853576634" lon="12.211422822665906"><ele>260.0</ele><time>2026-04-25T10:40:11.999Z</time></trkpt><trkpt lat="45.94090461189997" lon="12.211484858266648"><ele>260.0</ele><time>2026-04-25T10:40:14.999Z</time></trkpt><trkpt lat="45.940829136176426" lon="12.211523181016629"><ele>258.33333333333337</ele><time>2026-04-25T10:40:17.999Z</time></trkpt><trkpt lat="45.94073824136252" lon="12.211549698685916"><ele>256.6666666666667</ele><time>2026-04-25T10:40:19.999Z</time></trkpt><trkpt lat="45.94065568795656" lon="12.211565521764843"><ele>255.0</ele><time>2026-04-25T10:40:21Z</time></trkpt><trkpt lat="45.940583716005" lon="12.211571341502435"><ele>253.33333333333331</ele><time>2026-04-25T10:40:22Z</time></trkpt><trkpt lat="45.94051747493614" lon="12.211573276251926"><ele>251.66666666666666</ele><time>2026-04-25T10:40:23Z</time></trkpt><trkpt lat="45.940385630823044" lon="12.21153926775295"><ele>250.0</ele><time>2026-04-25T10:40:25Z</time></trkpt><trkpt lat="45.940262322954474" lon="12.211501411364019"><ele>249.33333333333331</ele><time>2026-04-25T10:40:27Z</time></trkpt><trkpt lat="45.940193219895875" lon="12.211485911631181"><ele>248.66666666666666</ele><time>2026-04-25T10:40:28Z</time></trkpt><trkpt lat="45.94012571511356" lon="12.21146871090151"><ele>248.0</ele><time>2026-04-25T10:40:29Z</time></trkpt><trkpt lat="45.94005315339791" lon="12.21145059535517"><ele>247.33333333333331</ele><time>2026-04-25T10:40:30Z</time></trkpt><trkpt lat="45.9399847222186" lon="12.21145753588812"><ele>246.66666666666666</ele><time>2026-04-25T10:40:31Z</time></trkpt><trkpt lat="45.93987478727235" lon="12.21150726398441"><ele>246.0</ele><time>2026-04-25T10:40:33Z</time></trkpt><trkpt lat="45.93981205486235" lon="12.211548763855632"><ele>246.00000000000003</ele><time>2026-04-25T10:40:35Z</time></trkpt><trkpt lat="45.93973589459229" lon="12.211604310599846"><ele>246.0</ele><time>2026-04-25T10:40:38Z</time></trkpt><trkpt lat="45.93967628614783" lon="12.211654284867041"><ele>246.00000000000003</ele><time>2026-04-25T10:40:41Z</time></trkpt><trkpt lat="45.93961179448578" lon="12.211701740011815"><ele>246.00000000000003</ele><time>2026-04-25T10:40:45Z</time></trkpt><trkpt lat="45.93955936577333" lon="12.211775164700859"><ele>246.0</ele><time>2026-04-25T10:40:50Z</time></trkpt><trkpt lat="45.939512113360095" lon="12.211845005910256"><ele>246.00000000000003</ele><time>2026-04-25T10:40:55Z</time></trkpt><trkpt lat="45.93944966255396" lon="12.211905137053733"><ele>246.00000000000003</ele><time>2026-04-25T10:41:00Z</time></trkpt><trkpt lat="45.939409658025454" lon="12.211981552407"><ele>246.00000000000003</ele><time>2026-04-25T10:41:06Z</time></trkpt><trkpt lat="45.939351666378776" lon="12.212025842913157"><ele>246.0</ele><time>2026-04-25T10:41:11Z</time></trkpt><trkpt lat="45.93928508578294" lon="12.212063151470616"><ele>246.00000000000003</ele><time>2026-04-25T10:41:16Z</time></trkpt><trkpt lat="45.93922513445279" lon="12.212125330423016"><ele>246.00000000000003</ele><time>2026-04-25T10:41:20Z</time></trkpt><trkpt lat="45.93918216158055" lon="12.21220483710397"><ele>246.0</ele><time>2026-04-25T10:41:23Z</time></trkpt><trkpt lat="45.93913851435359" lon="12.212291289534132"><ele>246.00000000000003</ele><time>2026-04-25T10:41:25Z</time></trkpt><trkpt lat="45.939071149908024" lon="12.212333975398948"><ele>246.00000000000003</ele><time>2026-04-25T10:41:29Z</time></trkpt><trkpt lat="45.93900024827136" lon="12.21238869978362"><ele>248.00000000000003</ele><time>2026-04-25T10:41:32Z</time></trkpt><trkpt lat="45.93893913073676" lon="12.212428104128277"><ele>250.0</ele><time>2026-04-25T10:41:34Z</time></trkpt><trkpt lat="45.938873037177544" lon="12.212448445804828"><ele>252.00000000000003</ele><time>2026-04-25T10:41:39Z</time></trkpt><trkpt lat="45.93881011518979" lon="12.212432866820281"><ele>254.00000000000003</ele><time>2026-04-25T10:41:44.999Z</time></trkpt><trkpt lat="45.938745851195435" lon="12.21242459057996"><ele>256.0</ele><time>2026-04-25T10:41:49.999Z</time></trkpt><trkpt lat="45.93867154672627" lon="12.212402168032083"><ele>258.00000000000006</ele><time>2026-04-25T10:41:55.999Z</time></trkpt><trkpt lat="45.93859853996906" lon="12.212384712047534"><ele>260.0</ele><time>2026-04-25T10:42:00.999Z</time></trkpt><trkpt lat="45.938536420917046" lon="12.212403243662882"><ele>260.00000000000006</ele><time>2026-04-25T10:42:06Z</time></trkpt><trkpt lat="45.93855789451253" lon="12.212489587808244"><ele>260.0</ele><time>2026-04-25T10:42:17Z</time></trkpt><trkpt lat="45.938554728695905" lon="12.212592821492935"><ele>260.0</ele><time>2026-04-25T10:42:24Z</time></trkpt><trkpt lat="45.93848955932367" lon="12.212633809129807"><ele>260.0</ele><time>2026-04-25T10:42:32Z</time></trkpt><trkpt lat="45.93841452192521" lon="12.212609614961346"><ele>260.0</ele><time>2026-04-25T10:42:40Z</time></trkpt><trkpt lat="45.93835053370378" lon="12.21261404241213"><ele>260.00000000000006</ele><time>2026-04-25T10:42:45Z</time></trkpt><trkpt lat="45.938271019039206" lon="12.21262774730229"><ele>260.0</ele><time>2026-04-25T10:42:54Z</time></trkpt><trkpt lat="45.93819922175565" lon="12.212622406471699"><ele>262.42857142857144</ele><time>2026-04-25T10:42:58Z</time></trkpt><trkpt lat="45.9381329590355" lon="12.212620674989195"><ele>264.8571428571429</ele><time>2026-04-25T10:43:04Z</time></trkpt><trkpt lat="45.9380554825069" lon="12.212601186710405"><ele>267.2857142857143</ele><time>2026-04-25T10:43:09Z</time></trkpt><trkpt lat="45.937992610858785" lon="12.212584232091448"><ele>269.7142857142857</ele><time>2026-04-25T10:43:13Z</time></trkpt><trkpt lat="45.93792679741917" lon="12.212584108278499"><ele>272.1428571428571</ele><time>2026-04-25T10:43:16Z</time></trkpt><trkpt lat="45.937851557692774" lon="12.212612853137227"><ele>274.57142857142856</ele><time>2026-04-25T10:43:20Z</time></trkpt><trkpt lat="45.937776129775536" lon="12.212588857020693"><ele>277.0</ele><time>2026-04-25T10:43:24Z</time></trkpt><trkpt lat="45.937728357914956" lon="12.212520784149664"><ele>277.0</ele><time>2026-04-25T10:43:28Z</time></trkpt><trkpt lat="45.93766877371193" lon="12.212481005460374"><ele>277.0</ele><time>2026-04-25T10:43:31Z</time></trkpt><trkpt lat="45.937596601151" lon="12.212409714086798"><ele>277.0</ele><time>2026-04-25T10:43:35Z</time></trkpt><trkpt lat="45.937551154242556" lon="12.212337109299222"><ele>277.0</ele><time>2026-04-25T10:43:38Z</time></trkpt><trkpt lat="45.93751912543547" lon="12.212226685638797"><ele>277.0</ele><time>2026-04-25T10:43:42Z</time></trkpt><trkpt lat="45.93747668213864" lon="12.212141365276272"><ele>277.0</ele><time>2026-04-25T10:43:45Z</time></trkpt><trkpt lat="45.93743462180438" lon="12.21205275541121"><ele>277.8333333333333</ele><time>2026-04-25T10:43:48Z</time></trkpt><trkpt lat="45.937394983420674" lon="12.211953914419563"><ele>278.66666666666663</ele><time>2026-04-25T10:43:51Z</time></trkpt><trkpt lat="45.93733998492537" lon="12.2118718697883"><ele>279.5</ele><time>2026-04-25T10:43:54Z</time></trkpt><trkpt lat="45.93726725788502" lon="12.211877110716518"><ele>280.3333333333333</ele><time>2026-04-25T10:43:58Z</time></trkpt><trkpt lat="45.93720397025397" lon="12.211863376396417"><ele>281.1666666666667</ele><time>2026-04-25T10:44:01Z</time></trkpt><trkpt lat="45.937127045080786" lon="12.21182421965743"><ele>282.0</ele><time>2026-04-25T10:44:04Z</time></trkpt><trkpt lat="45.9370538467944" lon="12.211780272103661"><ele>282.0</ele><time>2026-04-25T10:44:07Z</time></trkpt><trkpt lat="45.936991950825266" lon="12.211751286294355"><ele>282.0</ele><time>2026-04-25T10:44:09Z</time></trkpt><trkpt lat="45.93691737632685" lon="12.211744803795392"><ele>282.0</ele><time>2026-04-25T10:44:11Z</time></trkpt><trkpt lat="45.93682915317061" lon="12.21171764380229"><ele>282.0</ele><time>2026-04-25T10:44:13Z</time></trkpt><trkpt lat="45.93674010600229" lon="12.211608866673124"><ele>282.0</ele><time>2026-04-25T10:44:15Z</time></trkpt><trkpt lat="45.93667820237035" lon="12.211532852257042"><ele>282.0</ele><time>2026-04-25T10:44:16Z</time></trkpt><trkpt lat="45.93661498222667" lon="12.211454261931038"><ele>280.5</ele><time>2026-04-25T10:44:17Z</time></trkpt><trkpt lat="45.9365381105246" lon="12.211415058466724"><ele>279.0</ele><time>2026-04-25T10:44:18Z</time></trkpt><trkpt lat="45.936445357608406" lon="12.211390552880284"><ele>277.5</ele><time>2026-04-25T10:44:19Z</time></trkpt><trkpt lat="45.93629033126747" lon="12.211328826610888"><ele>276.0</ele><time>2026-04-25T10:44:20Z</time></trkpt><trkpt lat="45.93615553504744" lon="12.211285074918244"><ele>276.0</ele><time>2026-04-25T10:44:21Z</time></trkpt><trkpt lat="45.93606280114722" lon="12.21125518494517"><ele>276.0</ele><time>2026-04-25T10:44:22Z</time></trkpt><trkpt lat="45.935986530050045" lon="12.21123248529569"><ele>276.0</ele><time>2026-04-25T10:44:23Z</time></trkpt><trkpt lat="45.93591046990518" lon="12.211041352515492"><ele>276.0</ele><time>2026-04-25T10:44:24Z</time></trkpt><trkpt lat="45.93580889180352" lon="12.211033126694446"><ele>276.0</ele><time>2026-04-25T10:44:25Z</time></trkpt><trkpt lat="45.9356722596661" lon="12.211233118880449"><ele>277.0</ele><time>2026-04-25T10:44:26Z</time></trkpt><trkpt lat="45.935558539264925" lon="12.211234040054496"><ele>278.0</ele><time>2026-04-25T10:44:27Z</time></trkpt><trkpt lat="45.935456992353664" lon="12.21123846924914"><ele>279.0</ele><time>2026-04-25T10:44:28Z</time></trkpt><trkpt lat="45.935366432243384" lon="12.21127345763788"><ele>280.0</ele><time>2026-04-25T10:44:29Z</time></trkpt><trkpt lat="45.93533828246573" lon="12.211435526046829"><ele>281.0</ele><time>2026-04-25T10:44:30Z</time></trkpt><trkpt lat="45.93529964771099" lon="12.211536636171564"><ele>281.0</ele><time>2026-04-25T10:44:31Z</time></trkpt><trkpt lat="45.93526204509682" lon="12.21164803773996"><ele>281.0</ele><time>2026-04-25T10:44:32Z</time></trkpt><trkpt lat="45.93515180615413" lon="12.21168179245875"><ele>281.0</ele><time>2026-04-25T10:44:34Z</time></trkpt><trkpt lat="45.93506609410868" lon="12.211606381876981"><ele>281.0</ele><time>2026-04-25T10:44:36Z</time></trkpt><trkpt lat="45.93499371406528" lon="12.211520709004708"><ele>281.0</ele><time>2026-04-25T10:44:38Z</time></trkpt><trkpt lat="45.934912957626295" lon="12.211427056477127"><ele>283.0</ele><time>2026-04-25T10:44:40Z</time></trkpt><trkpt lat="45.934843399118016" lon="12.211386577554002"><ele>285.0</ele><time>2026-04-25T10:44:42Z</time></trkpt><trkpt lat="45.934747454061856" lon="12.211284228729188"><ele>287.0</ele><time>2026-04-25T10:44:45Z</time></trkpt><trkpt lat="45.93468806712603" lon="12.211209321459442"><ele>289.0</ele><time>2026-04-25T10:44:46Z</time></trkpt><trkpt lat="45.93464008416766" lon="12.21113951364257"><ele>291.0</ele><time>2026-04-25T10:44:47Z</time></trkpt><trkpt lat="45.934556748209836" lon="12.211021502804119"><ele>291.0</ele><time>2026-04-25T10:44:49Z</time></trkpt><trkpt lat="45.93446171810253" lon="12.210902320255567"><ele>291.0</ele><time>2026-04-25T10:44:51Z</time></trkpt><trkpt lat="45.93441965686805" lon="12.210819638674815"><ele>291.0</ele><time>2026-04-25T10:44:52Z</time></trkpt><trkpt lat="45.93438039343573" lon="12.210739257676211"><ele>291.0</ele><time>2026-04-25T10:44:53Z</time></trkpt><trkpt lat="45.93434303828235" lon="12.210640757688447"><ele>291.0</ele><time>2026-04-25T10:44:54Z</time></trkpt><trkpt lat="45.934310908908664" lon="12.210526831708163"><ele>291.0</ele><time>2026-04-25T10:44:55Z</time></trkpt><trkpt lat="45.93428606557392" lon="12.21040888636004"><ele>290.0</ele><time>2026-04-25T10:44:56Z</time></trkpt><trkpt lat="45.934253624989765" lon="12.210290793262491"><ele>289.0</ele><time>2026-04-25T10:44:57Z</time></trkpt><trkpt lat="45.934221180662334" lon="12.210181147179041"><ele>288.0</ele><time>2026-04-25T10:44:58Z</time></trkpt><trkpt lat="45.93416597255791" lon="12.210069712816317"><ele>287.0</ele><time>2026-04-25T10:44:59Z</time></trkpt><trkpt lat="45.93408662392764" lon="12.209961438937555"><ele>286.0</ele><time>2026-04-25T10:45:00Z</time></trkpt><trkpt lat="45.93401405193883" lon="12.20983931351199"><ele>285.25</ele><time>2026-04-25T10:45:01Z</time></trkpt><trkpt lat="45.93393780261878" lon="12.209721497855176"><ele>284.5</ele><time>2026-04-25T10:45:02Z</time></trkpt><trkpt lat="45.933854933074095" lon="12.209589434464956"><ele>283.75</ele><time>2026-04-25T10:45:03Z</time></trkpt><trkpt lat="45.933776575970114" lon="12.209454419214563"><ele>283.0</ele><time>2026-04-25T10:45:04Z</time></trkpt><trkpt lat="45.93369427948097" lon="12.209320553402636"><ele>283.0</ele><time>2026-04-25T10:45:05Z</time></trkpt><trkpt lat="45.93361306284169" lon="12.209199356075416"><ele>283.0</ele><time>2026-04-25T10:45:06Z</time></trkpt><trkpt lat="45.93353693413622" lon="12.209082261743784"><ele>283.0</ele><time>2026-04-25T10:45:07Z</time></trkpt><trkpt lat="45.933448967143725" lon="12.208983042646894"><ele>283.0</ele><time>2026-04-25T10:45:08Z</time></trkpt><trkpt lat="45.93333871476091" lon="12.20891029838337"><ele>279.0</ele><time>2026-04-25T10:45:09Z</time></trkpt><trkpt lat="45.933231061290044" lon="12.208849448696636"><ele>275.0</ele><time>2026-04-25T10:45:10Z</time></trkpt><trkpt lat="45.933125871221314" lon="12.208810032214735"><ele>271.0</ele><time>2026-04-25T10:45:11Z</time></trkpt><trkpt lat="45.93302436766808" lon="12.208802704521526"><ele>267.0</ele><time>2026-04-25T10:45:12Z</time></trkpt><trkpt lat="45.932915543437" lon="12.208819883395934"><ele>263.0</ele><time>2026-04-25T10:45:13Z</time></trkpt><trkpt lat="45.93281297923115" lon="12.208833647638622"><ele>263.0</ele><time>2026-04-25T10:45:14Z</time></trkpt><trkpt lat="45.932716281027474" lon="12.208799541995184"><ele>263.0</ele><time>2026-04-25T10:45:15Z</time></trkpt><trkpt lat="45.932626298232755" lon="12.208739970505839"><ele>263.0</ele><time>2026-04-25T10:45:16Z</time></trkpt><trkpt lat="45.932537156347856" lon="12.208676681326551"><ele>263.0</ele><time>2026-04-25T10:45:17Z</time></trkpt><trkpt lat="45.93244045097954" lon="12.208634956028515"><ele>263.0</ele><time>2026-04-25T10:45:18Z</time></trkpt><trkpt lat="45.93233263535454" lon="12.208621366775734"><ele>261.4</ele><time>2026-04-25T10:45:19Z</time></trkpt><trkpt lat="45.93222581205289" lon="12.208644758425102"><ele>259.8</ele><time>2026-04-25T10:45:20Z</time></trkpt><trkpt lat="45.93212726346162" lon="12.208694518460396"><ele>258.2</ele><time>2026-04-25T10:45:21Z</time></trkpt><trkpt lat="45.93203600401675" lon="12.208779819292896"><ele>256.6</ele><time>2026-04-25T10:45:22Z</time></trkpt><trkpt lat="45.93194173019847" lon="12.208870166199432"><ele>255.0</ele><time>2026-04-25T10:45:23Z</time></trkpt><trkpt lat="45.931850696854625" lon="12.20897197180221"><ele>255.0</ele><time>2026-04-25T10:45:24Z</time></trkpt><trkpt lat="45.931757347119394" lon="12.209061334213024"><ele>255.0</ele><time>2026-04-25T10:45:25Z</time></trkpt><trkpt lat="45.93166845355584" lon="12.20915452551939"><ele>255.0</ele><time>2026-04-25T10:45:26Z</time></trkpt><trkpt lat="45.93158973148961" lon="12.209238325716512"><ele>255.0</ele><time>2026-04-25T10:45:27Z</time></trkpt><trkpt lat="45.93149796704898" lon="12.209313114834366"><ele>255.0</ele><time>2026-04-25T10:45:28Z</time></trkpt><trkpt lat="45.93139122270312" lon="12.20934759426413"><ele>254.6</ele><time>2026-04-25T10:45:29Z</time></trkpt><trkpt lat="45.93128951584081" lon="12.20937699077131"><ele>254.2</ele><time>2026-04-25T10:45:30Z</time></trkpt><trkpt lat="45.931206312998484" lon="12.209400182494814"><ele>253.8</ele><time>2026-04-25T10:45:31Z</time></trkpt><trkpt lat="45.93112394521543" lon="12.209435411791333"><ele>253.4</ele><time>2026-04-25T10:45:32Z</time></trkpt><trkpt lat="45.93102866378678" lon="12.209462967175847"><ele>253.0</ele><time>2026-04-25T10:45:33Z</time></trkpt><trkpt lat="45.93092696140465" lon="12.209467727541082"><ele>253.4</ele><time>2026-04-25T10:45:34Z</time></trkpt><trkpt lat="45.930830538275195" lon="12.209458223929005"><ele>253.8</ele><time>2026-04-25T10:45:35Z</time></trkpt><trkpt lat="45.93071911341366" lon="12.209452003890059"><ele>254.2</ele><time>2026-04-25T10:45:36Z</time></trkpt><trkpt lat="45.930611765768546" lon="12.209454274226388"><ele>254.6</ele><time>2026-04-25T10:45:37Z</time></trkpt><trkpt lat="45.93049897828549" lon="12.209458685942247"><ele>255.0</ele><time>2026-04-25T10:45:38Z</time></trkpt><trkpt lat="45.9303970319696" lon="12.209486856804336"><ele>255.0</ele><time>2026-04-25T10:45:39Z</time></trkpt><trkpt lat="45.93030302225165" lon="12.209520707026284"><ele>255.0</ele><time>2026-04-25T10:45:40Z</time></trkpt><trkpt lat="45.930214639477846" lon="12.209574225003726"><ele>255.0</ele><time>2026-04-25T10:45:41Z</time></trkpt><trkpt lat="45.93014064162214" lon="12.209667819755715"><ele>255.0</ele><time>2026-04-25T10:45:42Z</time></trkpt><trkpt lat="45.93007468637538" lon="12.209752293778351"><ele>255.0</ele><time>2026-04-25T10:45:43Z</time></trkpt><trkpt lat="45.93002929272438" lon="12.209849481240816"><ele>253.33333333333334</ele><time>2026-04-25T10:45:44Z</time></trkpt><trkpt lat="45.93000995351634" lon="12.209965090677118"><ele>251.66666666666669</ele><time>2026-04-25T10:45:45Z</time></trkpt><trkpt lat="45.92999522667195" lon="12.210090890188072"><ele>250.0</ele><time>2026-04-25T10:45:46Z</time></trkpt><trkpt lat="45.92997170309296" lon="12.210202202352225"><ele>248.33333333333334</ele><time>2026-04-25T10:45:47Z</time></trkpt><trkpt lat="45.9299184140958" lon="12.210287320388616"><ele>246.66666666666669</ele><time>2026-04-25T10:45:48Z</time></trkpt><trkpt lat="45.92984449817186" lon="12.210346054776593"><ele>245.0</ele><time>2026-04-25T10:45:49Z</time></trkpt><trkpt lat="45.92975891321897" lon="12.21036859017124"><ele>245.0</ele><time>2026-04-25T10:45:50Z</time></trkpt><trkpt lat="45.929686391700265" lon="12.210383946486681"><ele>245.0</ele><time>2026-04-25T10:45:51Z</time></trkpt><trkpt lat="45.929617419454345" lon="12.21040164570801"><ele>245.0</ele><time>2026-04-25T10:45:52Z</time></trkpt><trkpt lat="45.92955517770239" lon="12.210423335525478"><ele>245.0</ele><time>2026-04-25T10:45:53Z</time></trkpt><trkpt lat="45.929488248443505" lon="12.210455216728926"><ele>245.0</ele><time>2026-04-25T10:45:54Z</time></trkpt><trkpt lat="45.929414393018135" lon="12.210462738123308"><ele>245.0</ele><time>2026-04-25T10:45:55Z</time></trkpt><trkpt lat="45.929335678787474" lon="12.210457338691183"><ele>245.0</ele><time>2026-04-25T10:45:56Z</time></trkpt><trkpt lat="45.92925604077186" lon="12.21044709072753"><ele>244.16666666666669</ele><time>2026-04-25T10:45:57Z</time></trkpt><trkpt lat="45.92917858310325" lon="12.210436403079777"><ele>243.33333333333334</ele><time>2026-04-25T10:45:58Z</time></trkpt><trkpt lat="45.92909186683956" lon="12.21043371225356"><ele>242.5</ele><time>2026-04-25T10:45:59Z</time></trkpt><trkpt lat="45.929007857941876" lon="12.210428262498274"><ele>241.66666666666669</ele><time>2026-04-25T10:46:00Z</time></trkpt><trkpt lat="45.92892649623242" lon="12.210414770749246"><ele>240.83333333333334</ele><time>2026-04-25T10:46:01Z</time></trkpt><trkpt lat="45.928851776484784" lon="12.210407534526675"><ele>240.0</ele><time>2026-04-25T10:46:02Z</time></trkpt><trkpt lat="45.92877671685919" lon="12.210402831872933"><ele>240.0</ele><time>2026-04-25T10:46:03Z</time></trkpt><trkpt lat="45.928699888183274" lon="12.210398935398045"><ele>240.0</ele><time>2026-04-25T10:46:04Z</time></trkpt><trkpt lat="45.928625146134806" lon="12.21039554225775"><ele>240.0</ele><time>2026-04-25T10:46:05Z</time></trkpt><trkpt lat="45.92855743150556" lon="12.210372540719092"><ele>240.0</ele><time>2026-04-25T10:46:06Z</time></trkpt><trkpt lat="45.928490244358684" lon="12.210326751392577"><ele>240.0</ele><time>2026-04-25T10:46:07Z</time></trkpt><trkpt lat="45.92842607631171" lon="12.210252377129954"><ele>240.0</ele><time>2026-04-25T10:46:08Z</time></trkpt><trkpt lat="45.92836902536862" lon="12.210163049122059"><ele>239.33333333333334</ele><time>2026-04-25T10:46:09Z</time></trkpt><trkpt lat="45.928313276079685" lon="12.210069484467391"><ele>238.66666666666669</ele><time>2026-04-25T10:46:10Z</time></trkpt><trkpt lat="45.928255170335845" lon="12.209988480359254"><ele>238.0</ele><time>2026-04-25T10:46:11Z</time></trkpt><trkpt lat="45.92818640826165" lon="12.209932641714747"><ele>237.33333333333334</ele><time>2026-04-25T10:46:12Z</time></trkpt><trkpt lat="45.92810617900333" lon="12.209908260877336"><ele>236.66666666666669</ele><time>2026-04-25T10:46:13Z</time></trkpt><trkpt lat="45.928020747735935" lon="12.209933838368165"><ele>236.0</ele><time>2026-04-25T10:46:14Z</time></trkpt><trkpt lat="45.92794029035652" lon="12.209988772893587"><ele>236.00000000000003</ele><time>2026-04-25T10:46:15Z</time></trkpt><trkpt lat="45.92786500610561" lon="12.2100565123733"><ele>236.0</ele><time>2026-04-25T10:46:16Z</time></trkpt><trkpt lat="45.92778607244085" lon="12.210117868340136"><ele>236.0</ele><time>2026-04-25T10:46:17Z</time></trkpt><trkpt lat="45.92770410197706" lon="12.210168408633153"><ele>236.0</ele><time>2026-04-25T10:46:18Z</time></trkpt><trkpt lat="45.92762251337027" lon="12.210210645641055"><ele>236.00000000000003</ele><time>2026-04-25T10:46:19Z</time></trkpt><trkpt lat="45.92755362733287" lon="12.210266807827205"><ele>236.0</ele><time>2026-04-25T10:46:20Z</time></trkpt><trkpt lat="45.92749311604655" lon="12.21032774497995"><ele>235.16666666666669</ele><time>2026-04-25T10:46:21Z</time></trkpt><trkpt lat="45.92743126428106" lon="12.210393179038107"><ele>234.33333333333334</ele><time>2026-04-25T10:46:22Z</time></trkpt><trkpt lat="45.92737952190235" lon="12.210447512504164"><ele>233.5</ele><time>2026-04-25T10:46:23Z</time></trkpt><trkpt lat="45.927284372531005" lon="12.210511393503303"><ele>232.66666666666669</ele><time>2026-04-25T10:46:25Z</time></trkpt><trkpt lat="45.92720212497702" lon="12.210528720459381"><ele>231.83333333333334</ele><time>2026-04-25T10:46:27Z</time></trkpt><trkpt lat="45.92712262963984" lon="12.21062974055943"><ele>231.0</ele><time>2026-04-25T10:46:29Z</time></trkpt><trkpt lat="45.92709158921196" lon="12.210777789162357"><ele>231.0</ele><time>2026-04-25T10:46:31Z</time></trkpt><trkpt lat="45.92706884332203" lon="12.210877736514806"><ele>231.0</ele><time>2026-04-25T10:46:33Z</time></trkpt><trkpt lat="45.92705912488863" lon="12.210981236879086"><ele>231.0</ele><time>2026-04-25T10:46:36Z</time></trkpt><trkpt lat="45.92704325237652" lon="12.211074807111656"><ele>231.0</ele><time>2026-04-25T10:46:41Z</time></trkpt><trkpt lat="45.92707974482685" lon="12.210974885096554"><ele>231.0</ele><time>2026-04-25T10:46:51Z</time></trkpt><trkpt lat="45.92709209766109" lon="12.210869951564282"><ele>231.0</ele><time>2026-04-25T10:46:53Z</time></trkpt><trkpt lat="45.9271195614131" lon="12.210714708094848"><ele>230.83333333333334</ele><time>2026-04-25T10:46:55Z</time></trkpt><trkpt lat="45.927148810016156" lon="12.210547432211667"><ele>230.66666666666669</ele><time>2026-04-25T10:46:57Z</time></trkpt><trkpt lat="45.927174712729794" lon="12.210459325707145"><ele>230.5</ele><time>2026-04-25T10:46:58Z</time></trkpt><trkpt lat="45.9272099202748" lon="12.210291769501959"><ele>230.33333333333334</ele><time>2026-04-25T10:47:00Z</time></trkpt><trkpt lat="45.92722990879803" lon="12.21019917995658"><ele>230.16666666666669</ele><time>2026-04-25T10:47:01Z</time></trkpt><trkpt lat="45.92724988178392" lon="12.210101804699235"><ele>230.0</ele><time>2026-04-25T10:47:02Z</time></trkpt><trkpt lat="45.92726172567947" lon="12.209996685170356"><ele>230.00000000000003</ele><time>2026-04-25T10:47:03Z</time></trkpt><trkpt lat="45.92725832367053" lon="12.209886362017473"><ele>230.0</ele><time>2026-04-25T10:47:04Z</time></trkpt><trkpt lat="45.92724159761444" lon="12.209767460485727"><ele>230.0</ele><time>2026-04-25T10:47:05Z</time></trkpt><trkpt lat="45.927213314002984" lon="12.209646142010444"><ele>230.0</ele><time>2026-04-25T10:47:06Z</time></trkpt><trkpt lat="45.92717539553172" lon="12.209529109409171"><ele>230.00000000000003</ele><time>2026-04-25T10:47:07Z</time></trkpt><trkpt lat="45.92711611999537" lon="12.209426089175384"><ele>230.0</ele><time>2026-04-25T10:47:08Z</time></trkpt><trkpt lat="45.927043925949256" lon="12.20934583070987"><ele>229.0</ele><time>2026-04-25T10:47:09Z</time></trkpt><trkpt lat="45.926951968747225" lon="12.209298342071751"><ele>228.0</ele><time>2026-04-25T10:47:10Z</time></trkpt><trkpt lat="45.926852218321486" lon="12.209258441542499"><ele>227.0</ele><time>2026-04-25T10:47:11Z</time></trkpt><trkpt lat="45.92675402823737" lon="12.209242273136113"><ele>226.0</ele><time>2026-04-25T10:47:12Z</time></trkpt><trkpt lat="45.92664900026814" lon="12.209227534432841"><ele>225.0</ele><time>2026-04-25T10:47:13Z</time></trkpt><trkpt lat="45.92654453845681" lon="12.209216994338444"><ele>224.8</ele><time>2026-04-25T10:47:14Z</time></trkpt><trkpt lat="45.92643888964703" lon="12.209210584492517"><ele>224.6</ele><time>2026-04-25T10:47:15Z</time></trkpt><trkpt lat="45.926329758468434" lon="12.20920530381176"><ele>224.39999999999998</ele><time>2026-04-25T10:47:16Z</time></trkpt><trkpt lat="45.92622113503398" lon="12.20920296138431"><ele>224.2</ele><time>2026-04-25T10:47:17Z</time></trkpt><trkpt lat="45.926111507268224" lon="12.209219785025455"><ele>224.0</ele><time>2026-04-25T10:47:18Z</time></trkpt><trkpt lat="45.926003800230646" lon="12.20923790518795"><ele>224.0</ele><time>2026-04-25T10:47:19Z</time></trkpt><trkpt lat="45.92589554287406" lon="12.209269268539268"><ele>224.0</ele><time>2026-04-25T10:47:20Z</time></trkpt><trkpt lat="45.92578404493483" lon="12.209298184002963"><ele>224.0</ele><time>2026-04-25T10:47:21Z</time></trkpt><trkpt lat="45.92567017930675" lon="12.20933424296355"><ele>224.0</ele><time>2026-04-25T10:47:22Z</time></trkpt><trkpt lat="45.925560403886195" lon="12.209371810754421"><ele>222.39999999999998</ele><time>2026-04-25T10:47:23Z</time></trkpt><trkpt lat="45.92546668209114" lon="12.209396534288116"><ele>220.79999999999998</ele><time>2026-04-25T10:47:24Z</time></trkpt><trkpt lat="45.92537912725794" lon="12.209414878325589"><ele>219.20000000000002</ele><time>2026-04-25T10:47:25Z</time></trkpt><trkpt lat="45.92529696953626" lon="12.209408448735228"><ele>217.60000000000002</ele><time>2026-04-25T10:47:26Z</time></trkpt><trkpt lat="45.92520967431886" lon="12.2093784370565"><ele>216.0</ele><time>2026-04-25T10:47:27Z</time></trkpt><trkpt lat="45.92512166223545" lon="12.209330811342861"><ele>214.8</ele><time>2026-04-25T10:47:28Z</time></trkpt><trkpt lat="45.92503838109029" lon="12.209268376743697"><ele>213.60000000000002</ele><time>2026-04-25T10:47:29Z</time></trkpt><trkpt lat="45.92496116386852" lon="12.209185490641465"><ele>212.4</ele><time>2026-04-25T10:47:30Z</time></trkpt><trkpt lat="45.924894944695374" lon="12.209082013347128"><ele>211.2</ele><time>2026-04-25T10:47:31Z</time></trkpt><trkpt lat="45.92483273382784" lon="12.208970471009346"><ele>210.0</ele><time>2026-04-25T10:47:32Z</time></trkpt><trkpt lat="45.924776184419535" lon="12.208858005045565"><ele>209.0</ele><time>2026-04-25T10:47:33Z</time></trkpt><trkpt lat="45.92472347308536" lon="12.208738693407003"><ele>208.0</ele><time>2026-04-25T10:47:34Z</time></trkpt><trkpt lat="45.924668317943016" lon="12.208615484088966"><ele>207.0</ele><time>2026-04-25T10:47:35Z</time></trkpt><trkpt lat="45.92461041305188" lon="12.20850008026761"><ele>206.0</ele><time>2026-04-25T10:47:36Z</time></trkpt><trkpt lat="45.92455852511112" lon="12.208405330246487"><ele>205.0</ele><time>2026-04-25T10:47:37Z</time></trkpt><trkpt lat="45.92450763679192" lon="12.208306933906204"><ele>204.99999999999997</ele><time>2026-04-25T10:47:38Z</time></trkpt><trkpt lat="45.924470604175816" lon="12.208213597655945"><ele>205.0</ele><time>2026-04-25T10:47:39Z</time></trkpt><trkpt lat="45.9244583430488" lon="12.208121888600315"><ele>205.0</ele><time>2026-04-25T10:47:41Z</time></trkpt><trkpt lat="45.92455647932057" lon="12.208110802884159"><ele>205.0</ele><time>2026-04-25T10:47:46Z</time></trkpt><trkpt lat="45.924651739103105" lon="12.208058242793905"><ele>204.99999999999997</ele><time>2026-04-25T10:47:48Z</time></trkpt><trkpt lat="45.92470395208173" lon="12.207945272099636"><ele>205.0</ele><time>2026-04-25T10:47:50Z</time></trkpt><trkpt lat="45.92466449999225" lon="12.207806857818117"><ele>204.83333333333331</ele><time>2026-04-25T10:47:52Z</time></trkpt><trkpt lat="45.92465583172815" lon="12.207648349129704"><ele>204.66666666666666</ele><time>2026-04-25T10:47:54Z</time></trkpt><trkpt lat="45.92466660376622" lon="12.207554689066432"><ele>204.5</ele><time>2026-04-25T10:47:55Z</time></trkpt><trkpt lat="45.92469403237233" lon="12.207456002066811"><ele>204.33333333333331</ele><time>2026-04-25T10:47:56Z</time></trkpt><trkpt lat="45.924727375667885" lon="12.207363735095315"><ele>204.16666666666666</ele><time>2026-04-25T10:47:57Z</time></trkpt><trkpt lat="45.92477563638362" lon="12.207278971387236"><ele>204.0</ele><time>2026-04-25T10:47:58Z</time></trkpt><trkpt lat="45.924819653072376" lon="12.2071954391414"><ele>203.33333333333334</ele><time>2026-04-25T10:47:59Z</time></trkpt><trkpt lat="45.92486743210799" lon="12.207111693370928"><ele>202.66666666666669</ele><time>2026-04-25T10:48:00Z</time></trkpt><trkpt lat="45.92491718985883" lon="12.207012615170088"><ele>202.0</ele><time>2026-04-25T10:48:01Z</time></trkpt><trkpt lat="45.924965895012356" lon="12.206910244180825"><ele>201.33333333333334</ele><time>2026-04-25T10:48:02Z</time></trkpt><trkpt lat="45.92500089919697" lon="12.20679109594131"><ele>200.66666666666669</ele><time>2026-04-25T10:48:03Z</time></trkpt><trkpt lat="45.925016929047004" lon="12.206661508866931"><ele>200.0</ele><time>2026-04-25T10:48:04Z</time></trkpt><trkpt lat="45.92501463422866" lon="12.206522644460806"><ele>199.0</ele><time>2026-04-25T10:48:05Z</time></trkpt><trkpt lat="45.925009016600676" lon="12.206387414519332"><ele>198.0</ele><time>2026-04-25T10:48:06Z</time></trkpt><trkpt lat="45.9250042933009" lon="12.206251812713026"><ele>197.0</ele><time>2026-04-25T10:48:07Z</time></trkpt><trkpt lat="45.92499509394797" lon="12.206118037762163"><ele>196.0</ele><time>2026-04-25T10:48:08Z</time></trkpt><trkpt lat="45.92500476170161" lon="12.205973302875474"><ele>195.0</ele><time>2026-04-25T10:48:09Z</time></trkpt><trkpt lat="45.92500840450683" lon="12.20583260473974"><ele>195.0</ele><time>2026-04-25T10:48:10Z</time></trkpt><trkpt lat="45.92498782820142" lon="12.205726264322868"><ele>195.0</ele><time>2026-04-25T10:48:11Z</time></trkpt><trkpt lat="45.92494572758495" lon="12.205643906675355"><ele>195.0</ele><time>2026-04-25T10:48:12Z</time></trkpt><trkpt lat="45.92487412647118" lon="12.205569978988436"><ele>195.0</ele><time>2026-04-25T10:48:13Z</time></trkpt><trkpt lat="45.92478694977193" lon="12.205526980283386"><ele>195.0</ele><time>2026-04-25T10:48:14Z</time></trkpt><trkpt lat="45.924692323372476" lon="12.205500033144908"><ele>195.0</ele><time>2026-04-25T10:48:15Z</time></trkpt><trkpt lat="45.92459417134581" lon="12.205475471800389"><ele>193.0</ele><time>2026-04-25T10:48:16Z</time></trkpt><trkpt lat="45.92451943999049" lon="12.205453191106512"><ele>191.0</ele><time>2026-04-25T10:48:17Z</time></trkpt><trkpt lat="45.92446341278652" lon="12.205350526367022"><ele>189.0</ele><time>2026-04-25T10:48:19Z</time></trkpt><trkpt lat="45.92453010899268" lon="12.205213348347554"><ele>187.0</ele><time>2026-04-25T10:48:21Z</time></trkpt><trkpt lat="45.92459585107272" lon="12.20516650781131"><ele>185.0</ele><time>2026-04-25T10:48:22Z</time></trkpt><trkpt lat="45.924679336625324" lon="12.205153465735894"><ele>183.0</ele><time>2026-04-25T10:48:23Z</time></trkpt><trkpt lat="45.924751109228815" lon="12.205159119142941"><ele>183.0</ele><time>2026-04-25T10:48:24Z</time></trkpt><trkpt lat="45.9248249512626" lon="12.205146514929794"><ele>183.0</ele><time>2026-04-25T10:48:25Z</time></trkpt><trkpt lat="45.92491853579988" lon="12.205110677163129"><ele>183.0</ele><time>2026-04-25T10:48:26Z</time></trkpt><trkpt lat="45.92500774719931" lon="12.205069761412496"><ele>183.0</ele><time>2026-04-25T10:48:27Z</time></trkpt><trkpt lat="45.92509074224446" lon="12.20500281717324"><ele>183.0</ele><time>2026-04-25T10:48:28Z</time></trkpt><trkpt lat="45.92516440048453" lon="12.20490521012865"><ele>182.60000000000002</ele><time>2026-04-25T10:48:29Z</time></trkpt><trkpt lat="45.92523354738696" lon="12.204794595250704"><ele>182.20000000000002</ele><time>2026-04-25T10:48:30Z</time></trkpt><trkpt lat="45.92530016375014" lon="12.204680774589612"><ele>181.8</ele><time>2026-04-25T10:48:31Z</time></trkpt><trkpt lat="45.925368254774554" lon="12.204574727178494"><ele>181.4</ele><time>2026-04-25T10:48:32Z</time></trkpt><trkpt lat="45.92543850924229" lon="12.204465460829203"><ele>181.0</ele><time>2026-04-25T10:48:33Z</time></trkpt><trkpt lat="45.92549273122787" lon="12.204343841823619"><ele>181.0</ele><time>2026-04-25T10:48:34Z</time></trkpt><trkpt lat="45.92552380424938" lon="12.20421174277389"><ele>181.0</ele><time>2026-04-25T10:48:35Z</time></trkpt><trkpt lat="45.9255334808318" lon="12.204087348248155"><ele>181.0</ele><time>2026-04-25T10:48:36Z</time></trkpt><trkpt lat="45.92553353592371" lon="12.203952866533168"><ele>181.0</ele><time>2026-04-25T10:48:37Z</time></trkpt><trkpt lat="45.925517769764404" lon="12.203829410325337"><ele>181.0</ele><time>2026-04-25T10:48:38Z</time></trkpt><trkpt lat="45.925503588897065" lon="12.20372285568381"><ele>181.0</ele><time>2026-04-25T10:48:39Z</time></trkpt><trkpt lat="45.92549209455363" lon="12.203610305581353"><ele>180.83333333333334</ele><time>2026-04-25T10:48:40Z</time></trkpt><trkpt lat="45.92547026623497" lon="12.203514851969647"><ele>180.66666666666669</ele><time>2026-04-25T10:48:41Z</time></trkpt><trkpt lat="45.92546572637142" lon="12.203394620805826"><ele>180.5</ele><time>2026-04-25T10:48:42Z</time></trkpt><trkpt lat="45.92546145172943" lon="12.20327837215325"><ele>180.33333333333334</ele><time>2026-04-25T10:48:43Z</time></trkpt><trkpt lat="45.92545514697577" lon="12.20315786228889"><ele>180.16666666666666</ele><time>2026-04-25T10:48:44Z</time></trkpt><trkpt lat="45.92544716671939" lon="12.20304013453484"><ele>180.0</ele><time>2026-04-25T10:48:45Z</time></trkpt><trkpt lat="45.92542391656199" lon="12.202919246198219"><ele>180.0</ele><time>2026-04-25T10:48:46Z</time></trkpt><trkpt lat="45.92538006392438" lon="12.202812968347622"><ele>180.0</ele><time>2026-04-25T10:48:47Z</time></trkpt><trkpt lat="45.925326753887205" lon="12.202702982485114"><ele>180.0</ele><time>2026-04-25T10:48:48Z</time></trkpt><trkpt lat="45.925265478378584" lon="12.202603637743358"><ele>180.0</ele><time>2026-04-25T10:48:49Z</time></trkpt><trkpt lat="45.92519450190985" lon="12.202507314437515"><ele>180.0</ele><time>2026-04-25T10:48:50Z</time></trkpt><trkpt lat="45.92512128330519" lon="12.202408923448537"><ele>178.83333333333334</ele><time>2026-04-25T10:48:51Z</time></trkpt><trkpt lat="45.92506977291411" lon="12.202306207787805"><ele>177.66666666666666</ele><time>2026-04-25T10:48:52Z</time></trkpt><trkpt lat="45.92505457421826" lon="12.202191120569074"><ele>176.5</ele><time>2026-04-25T10:48:53Z</time></trkpt><trkpt lat="45.9250751060346" lon="12.202087659314769"><ele>175.33333333333331</ele><time>2026-04-25T10:48:54Z</time></trkpt><trkpt lat="45.92512632270738" lon="12.202000374870034"><ele>174.16666666666666</ele><time>2026-04-25T10:48:55Z</time></trkpt><trkpt lat="45.92520248139934" lon="12.20193879108798"><ele>173.0</ele><time>2026-04-25T10:48:56Z</time></trkpt><trkpt lat="45.92528195675177" lon="12.201889981729865"><ele>173.0</ele><time>2026-04-25T10:48:57Z</time></trkpt><trkpt lat="45.92535835656459" lon="12.201846628683807"><ele>173.0</ele><time>2026-04-25T10:48:58Z</time></trkpt><trkpt lat="45.925429575707305" lon="12.201788013302817"><ele>173.0</ele><time>2026-04-25T10:48:59Z</time></trkpt><trkpt lat="45.925505289634586" lon="12.201728217264533"><ele>173.0</ele><time>2026-04-25T10:49:00Z</time></trkpt><trkpt lat="45.925582911138825" lon="12.201664003013361"><ele>173.0</ele><time>2026-04-25T10:49:01Z</time></trkpt><trkpt lat="45.92566299835006" lon="12.20160073312376"><ele>173.0</ele><time>2026-04-25T10:49:02Z</time></trkpt><trkpt lat="45.92574489480397" lon="12.201538178854586"><ele>172.60000000000002</ele><time>2026-04-25T10:49:03Z</time></trkpt><trkpt lat="45.92582430642964" lon="12.20146692449878"><ele>172.20000000000002</ele><time>2026-04-25T10:49:04Z</time></trkpt><trkpt lat="45.92589173269094" lon="12.201384249084693"><ele>171.8</ele><time>2026-04-25T10:49:05Z</time></trkpt><trkpt lat="45.925960111309145" lon="12.201285335193749"><ele>171.4</ele><time>2026-04-25T10:49:06Z</time></trkpt><trkpt lat="45.92602168824626" lon="12.201181945717058"><ele>171.0</ele><time>2026-04-25T10:49:07Z</time></trkpt><trkpt lat="45.92607719635263" lon="12.20108520022753"><ele>172.0</ele><time>2026-04-25T10:49:08Z</time></trkpt><trkpt lat="45.92612892417211" lon="12.200985694825283"><ele>173.0</ele><time>2026-04-25T10:49:09Z</time></trkpt><trkpt lat="45.92617654191916" lon="12.2008842495864"><ele>174.0</ele><time>2026-04-25T10:49:10Z</time></trkpt><trkpt lat="45.92622123786049" lon="12.200794206690855"><ele>175.0</ele><time>2026-04-25T10:49:11Z</time></trkpt><trkpt lat="45.92626172748617" lon="12.200707274646069"><ele>176.0</ele><time>2026-04-25T10:49:12Z</time></trkpt><trkpt lat="45.92630714746051" lon="12.200626683345742"><ele>177.0</ele><time>2026-04-25T10:49:13Z</time></trkpt><trkpt lat="45.926342473207434" lon="12.200542592009835"><ele>177.0</ele><time>2026-04-25T10:49:14Z</time></trkpt><trkpt lat="45.92637593776479" lon="12.20046175751602"><ele>177.0</ele><time>2026-04-25T10:49:15Z</time></trkpt><trkpt lat="45.926434203279904" lon="12.200308151281556"><ele>177.0</ele><time>2026-04-25T10:49:17Z</time></trkpt><trkpt lat="45.92648049363243" lon="12.200149921195877"><ele>177.0</ele><time>2026-04-25T10:49:19Z</time></trkpt><trkpt lat="45.926498741994095" lon="12.200062618337972"><ele>177.0</ele><time>2026-04-25T10:49:20Z</time></trkpt><trkpt lat="45.92653258200227" lon="12.199895560891154"><ele>176.5</ele><time>2026-04-25T10:49:22Z</time></trkpt><trkpt lat="45.92657850897897" lon="12.19973083181706"><ele>176.0</ele><time>2026-04-25T10:49:24Z</time></trkpt><trkpt lat="45.926612933068625" lon="12.199650103978536"><ele>175.5</ele><time>2026-04-25T10:49:25Z</time></trkpt><trkpt lat="45.9266523124435" lon="12.199579087070584"><ele>175.0</ele><time>2026-04-25T10:49:26Z</time></trkpt><trkpt lat="45.9266964319069" lon="12.199507358526464"><ele>174.5</ele><time>2026-04-25T10:49:27Z</time></trkpt><trkpt lat="45.926748549045364" lon="12.19943517852144"><ele>174.0</ele><time>2026-04-25T10:49:28Z</time></trkpt><trkpt lat="45.92679825001926" lon="12.199363325698682"><ele>174.0</ele><time>2026-04-25T10:49:29Z</time></trkpt><trkpt lat="45.92685647810062" lon="12.199285631530358"><ele>174.0</ele><time>2026-04-25T10:49:30Z</time></trkpt><trkpt lat="45.92691793873166" lon="12.199211108212419"><ele>174.0</ele><time>2026-04-25T10:49:31Z</time></trkpt><trkpt lat="45.926994498992215" lon="12.199157071253099"><ele>174.0</ele><time>2026-04-25T10:49:32Z</time></trkpt><trkpt lat="45.92708198296787" lon="12.199130608471794"><ele>174.0</ele><time>2026-04-25T10:49:33Z</time></trkpt><trkpt lat="45.927176480901416" lon="12.199143643690878"><ele>174.0</ele><time>2026-04-25T10:49:34Z</time></trkpt><trkpt lat="45.92727456861578" lon="12.199161684504519"><ele>174.0</ele><time>2026-04-25T10:49:35Z</time></trkpt><trkpt lat="45.92737004100343" lon="12.199201062717465"><ele>174.0</ele><time>2026-04-25T10:49:36Z</time></trkpt><trkpt lat="45.92746648163787" lon="12.199218016155731"><ele>174.0</ele><time>2026-04-25T10:49:37Z</time></trkpt><trkpt lat="45.92756511177449" lon="12.199214561410848"><ele>174.0</ele><time>2026-04-25T10:49:38Z</time></trkpt><trkpt lat="45.92766233216569" lon="12.199167656874417"><ele>174.0</ele><time>2026-04-25T10:49:39Z</time></trkpt><trkpt lat="45.92775078429357" lon="12.199097606107513"><ele>174.39999999999998</ele><time>2026-04-25T10:49:40Z</time></trkpt><trkpt lat="45.92783623629852" lon="12.199025884853677"><ele>174.8</ele><time>2026-04-25T10:49:41Z</time></trkpt><trkpt lat="45.9279188786593" lon="12.198955940321978"><ele>175.2</ele><time>2026-04-25T10:49:42Z</time></trkpt><trkpt lat="45.928002498838936" lon="12.198887340583703"><ele>175.60000000000002</ele><time>2026-04-25T10:49:43Z</time></trkpt><trkpt lat="45.92808897370736" lon="12.1988220574377"><ele>176.0</ele><time>2026-04-25T10:49:44Z</time></trkpt><trkpt lat="45.92817228482235" lon="12.198751384892251"><ele>173.8</ele><time>2026-04-25T10:49:45Z</time></trkpt><trkpt lat="45.928247426636744" lon="12.198669381029763"><ele>171.60000000000002</ele><time>2026-04-25T10:49:46Z</time></trkpt><trkpt lat="45.92832016377354" lon="12.198584563105175"><ele>169.4</ele><time>2026-04-25T10:49:47Z</time></trkpt><trkpt lat="45.92839474556089" lon="12.198490923175909"><ele>167.2</ele><time>2026-04-25T10:49:48Z</time></trkpt><trkpt lat="45.928477017432044" lon="12.198409003589672"><ele>165.0</ele><time>2026-04-25T10:49:49Z</time></trkpt><trkpt lat="45.92853184553638" lon="12.198279887461691"><ele>164.0</ele><time>2026-04-25T10:49:50Z</time></trkpt><trkpt lat="45.92859801046823" lon="12.198167191496259"><ele>163.0</ele><time>2026-04-25T10:49:51Z</time></trkpt><trkpt lat="45.92867326864989" lon="12.198060894624595"><ele>162.0</ele><time>2026-04-25T10:49:52Z</time></trkpt><trkpt lat="45.928764750785824" lon="12.197978106520063"><ele>161.0</ele><time>2026-04-25T10:49:53Z</time></trkpt><trkpt lat="45.92886484887855" lon="12.197923538633551"><ele>160.0</ele><time>2026-04-25T10:49:54Z</time></trkpt><trkpt lat="45.92896440524591" lon="12.19789384431121"><ele>160.0</ele><time>2026-04-25T10:49:55Z</time></trkpt><trkpt lat="45.92906889590039" lon="12.197879185539987"><ele>160.0</ele><time>2026-04-25T10:49:56Z</time></trkpt><trkpt lat="45.92917141090945" lon="12.19786321290322"><ele>160.0</ele><time>2026-04-25T10:49:57Z</time></trkpt><trkpt lat="45.92926977839215" lon="12.197844638372462"><ele>160.0</ele><time>2026-04-25T10:49:58Z</time></trkpt><trkpt lat="45.92936781458065" lon="12.197824446121151"><ele>160.0</ele><time>2026-04-25T10:49:59Z</time></trkpt><trkpt lat="45.92946304052659" lon="12.197807805614195"><ele>160.6</ele><time>2026-04-25T10:50:00Z</time></trkpt><trkpt lat="45.92955700361989" lon="12.197783365262701"><ele>161.2</ele><time>2026-04-25T10:50:01Z</time></trkpt><trkpt lat="45.92964966790002" lon="12.197762928570171"><ele>161.8</ele><time>2026-04-25T10:50:02Z</time></trkpt><trkpt lat="45.9297402400463" lon="12.1977528820263"><ele>162.4</ele><time>2026-04-25T10:50:03Z</time></trkpt><trkpt lat="45.92982898664654" lon="12.197746075005284"><ele>163.0</ele><time>2026-04-25T10:50:04Z</time></trkpt><trkpt lat="45.92991522978107" lon="12.19774213017429"><ele>163.0</ele><time>2026-04-25T10:50:05Z</time></trkpt><trkpt lat="45.93000303768667" lon="12.197733321968165"><ele>163.0</ele><time>2026-04-25T10:50:06Z</time></trkpt><trkpt lat="45.93008164945527" lon="12.197709578251574"><ele>163.0</ele><time>2026-04-25T10:50:07Z</time></trkpt><trkpt lat="45.93016301496071" lon="12.197695782911516"><ele>163.0</ele><time>2026-04-25T10:50:08Z</time></trkpt><trkpt lat="45.93024751264955" lon="12.197686131388219"><ele>163.0</ele><time>2026-04-25T10:50:09Z</time></trkpt><trkpt lat="45.930317770896686" lon="12.197675556725805"><ele>163.0</ele><time>2026-04-25T10:50:10Z</time></trkpt><trkpt lat="45.930397116637394" lon="12.197661712582455"><ele>163.14285714285714</ele><time>2026-04-25T10:50:11Z</time></trkpt><trkpt lat="45.93047551981044" lon="12.197659339654303"><ele>163.28571428571428</ele><time>2026-04-25T10:50:12Z</time></trkpt><trkpt lat="45.930552165693285" lon="12.197653477637438"><ele>163.42857142857142</ele><time>2026-04-25T10:50:13Z</time></trkpt><trkpt lat="45.930620078849614" lon="12.197631185850106"><ele>163.57142857142856</ele><time>2026-04-25T10:50:14Z</time></trkpt><trkpt lat="45.930693177125846" lon="12.19760856490511"><ele>163.71428571428572</ele><time>2026-04-25T10:50:15Z</time></trkpt><trkpt lat="45.93076588990425" lon="12.197579665328167"><ele>163.85714285714283</ele><time>2026-04-25T10:50:16Z</time></trkpt><trkpt lat="45.93083317539471" lon="12.197542628170238"><ele>164.0</ele><time>2026-04-25T10:50:17Z</time></trkpt><trkpt lat="45.93090009872631" lon="12.197494111898656"><ele>164.0</ele><time>2026-04-25T10:50:18Z</time></trkpt><trkpt lat="45.93095608838714" lon="12.197434394648749"><ele>164.0</ele><time>2026-04-25T10:50:19Z</time></trkpt><trkpt lat="45.931010069287666" lon="12.197356899060384"><ele>164.0</ele><time>2026-04-25T10:50:20Z</time></trkpt><trkpt lat="45.931050534372886" lon="12.19725963319032"><ele>164.0</ele><time>2026-04-25T10:50:21Z</time></trkpt><trkpt lat="45.93107332364815" lon="12.19715270506402"><ele>164.0</ele><time>2026-04-25T10:50:22Z</time></trkpt><trkpt lat="45.93108648827703" lon="12.197038488837245"><ele>164.0</ele><time>2026-04-25T10:50:23Z</time></trkpt><trkpt lat="45.931094342000655" lon="12.196925971949597"><ele>164.0</ele><time>2026-04-25T10:50:24Z</time></trkpt><trkpt lat="45.93109676700581" lon="12.196814595906122"><ele>164.0</ele><time>2026-04-25T10:50:25Z</time></trkpt><trkpt lat="45.93110722396287" lon="12.196710407267505"><ele>164.0</ele><time>2026-04-25T10:50:26Z</time></trkpt><trkpt lat="45.93112853864293" lon="12.196604056505546"><ele>164.0</ele><time>2026-04-25T10:50:27Z</time></trkpt><trkpt lat="45.93116190831973" lon="12.19650200227688"><ele>164.0</ele><time>2026-04-25T10:50:28Z</time></trkpt><trkpt lat="45.93121447764286" lon="12.196423348586416"><ele>164.0</ele><time>2026-04-25T10:50:29Z</time></trkpt><trkpt lat="45.93128541001661" lon="12.19635944073935"><ele>163.85714285714283</ele><time>2026-04-25T10:50:30Z</time></trkpt><trkpt lat="45.931358366316346" lon="12.19631801047809"><ele>163.71428571428572</ele><time>2026-04-25T10:50:31Z</time></trkpt><trkpt lat="45.93143127014809" lon="12.196288827434035"><ele>163.57142857142856</ele><time>2026-04-25T10:50:32Z</time></trkpt><trkpt lat="45.931503637357565" lon="12.1962692600228"><ele>163.42857142857142</ele><time>2026-04-25T10:50:33Z</time></trkpt><trkpt lat="45.93157485245631" lon="12.196249519205491"><ele>163.28571428571428</ele><time>2026-04-25T10:50:34Z</time></trkpt><trkpt lat="45.93164052876358" lon="12.196224690713862"><ele>163.14285714285714</ele><time>2026-04-25T10:50:35Z</time></trkpt><trkpt lat="45.93170766288559" lon="12.196196948383006"><ele>163.0</ele><time>2026-04-25T10:50:36Z</time></trkpt><trkpt lat="45.93177823969639" lon="12.196170464961808"><ele>163.0</ele><time>2026-04-25T10:50:37Z</time></trkpt><trkpt lat="45.93185368007064" lon="12.196143578230433"><ele>163.0</ele><time>2026-04-25T10:50:38Z</time></trkpt><trkpt lat="45.931917292852376" lon="12.196118867295338"><ele>163.0</ele><time>2026-04-25T10:50:39Z</time></trkpt><trkpt lat="45.931985747286134" lon="12.196090937726412"><ele>163.0</ele><time>2026-04-25T10:50:40Z</time></trkpt><trkpt lat="45.93205052330936" lon="12.196069110917849"><ele>163.0</ele><time>2026-04-25T10:50:41Z</time></trkpt><trkpt lat="45.93211797879145" lon="12.196037278343175"><ele>163.0</ele><time>2026-04-25T10:50:42Z</time></trkpt><trkpt lat="45.93218158895524" lon="12.196013906343515"><ele>163.0</ele><time>2026-04-25T10:50:43Z</time></trkpt><trkpt lat="45.93224955795023" lon="12.195985992839821"><ele>163.0</ele><time>2026-04-25T10:50:44Z</time></trkpt><trkpt lat="45.93231647338556" lon="12.195963346262937"><ele>163.0</ele><time>2026-04-25T10:50:45Z</time></trkpt><trkpt lat="45.9323814892679" lon="12.19593554801875"><ele>163.0</ele><time>2026-04-25T10:50:46Z</time></trkpt><trkpt lat="45.93244471380198" lon="12.195912805219368"><ele>163.0</ele><time>2026-04-25T10:50:47Z</time></trkpt><trkpt lat="45.93250502419794" lon="12.195885970828558"><ele>163.0</ele><time>2026-04-25T10:50:48Z</time></trkpt><trkpt lat="45.932563816307606" lon="12.195852519431659"><ele>163.0</ele><time>2026-04-25T10:50:49Z</time></trkpt><trkpt lat="45.93262792087047" lon="12.195825147347332"><ele>163.0</ele><time>2026-04-25T10:50:50Z</time></trkpt><trkpt lat="45.93268539948124" lon="12.195778204178437"><ele>163.14285714285714</ele><time>2026-04-25T10:50:51Z</time></trkpt><trkpt lat="45.932751860098314" lon="12.195739298674448"><ele>163.28571428571428</ele><time>2026-04-25T10:50:52Z</time></trkpt><trkpt lat="45.93282970891666" lon="12.195732280825291"><ele>163.42857142857142</ele><time>2026-04-25T10:50:53Z</time></trkpt><trkpt lat="45.9328994159627" lon="12.195724215977878"><ele>163.57142857142856</ele><time>2026-04-25T10:50:54Z</time></trkpt><trkpt lat="45.93297013789098" lon="12.195701350420142"><ele>163.71428571428572</ele><time>2026-04-25T10:50:55Z</time></trkpt><trkpt lat="45.93304440759194" lon="12.195669293964107"><ele>163.85714285714283</ele><time>2026-04-25T10:50:56Z</time></trkpt><trkpt lat="45.93311491002703" lon="12.195643007924303"><ele>164.0</ele><time>2026-04-25T10:50:57Z</time></trkpt><trkpt lat="45.9331855793481" lon="12.195613948392698"><ele>163.99999999999997</ele><time>2026-04-25T10:50:58Z</time></trkpt><trkpt lat="45.93325839917755" lon="12.195582967076097"><ele>164.0</ele><time>2026-04-25T10:50:59Z</time></trkpt><trkpt lat="45.93332844222114" lon="12.195553826118035"><ele>164.0</ele><time>2026-04-25T10:51:00Z</time></trkpt><trkpt lat="45.93340058223233" lon="12.195525098247948"><ele>164.0</ele><time>2026-04-25T10:51:01Z</time></trkpt><trkpt lat="45.93347496606621" lon="12.195495147102767"><ele>164.0</ele><time>2026-04-25T10:51:02Z</time></trkpt><trkpt lat="45.93354731912282" lon="12.195462220529667"><ele>163.99999999999997</ele><time>2026-04-25T10:51:03Z</time></trkpt><trkpt lat="45.933616615096334" lon="12.195435014910503"><ele>164.0</ele><time>2026-04-25T10:51:04Z</time></trkpt><trkpt lat="45.93369260248012" lon="12.19540610424203"><ele>164.5</ele><time>2026-04-25T10:51:05Z</time></trkpt><trkpt lat="45.93376466832475" lon="12.195375257643489"><ele>165.0</ele><time>2026-04-25T10:51:06Z</time></trkpt><trkpt lat="45.933838395905184" lon="12.195341239077718"><ele>165.5</ele><time>2026-04-25T10:51:07Z</time></trkpt><trkpt lat="45.93391066123578" lon="12.19531148098046"><ele>166.0</ele><time>2026-04-25T10:51:08Z</time></trkpt><trkpt lat="45.93398363714658" lon="12.195273175709024"><ele>166.5</ele><time>2026-04-25T10:51:09Z</time></trkpt><trkpt lat="45.934051447744594" lon="12.19524116236342"><ele>167.0</ele><time>2026-04-25T10:51:10Z</time></trkpt><trkpt lat="45.93412157018303" lon="12.195206834704381"><ele>167.0</ele><time>2026-04-25T10:51:11Z</time></trkpt><trkpt lat="45.93419206025717" lon="12.195181302971067"><ele>167.0</ele><time>2026-04-25T10:51:12Z</time></trkpt><trkpt lat="45.93426463404393" lon="12.195151730518008"><ele>167.0</ele><time>2026-04-25T10:51:13Z</time></trkpt><trkpt lat="45.93433812096363" lon="12.195119627920421"><ele>167.0</ele><time>2026-04-25T10:51:14Z</time></trkpt><trkpt lat="45.93440983195147" lon="12.195079406803202"><ele>167.0</ele><time>2026-04-25T10:51:15Z</time></trkpt><trkpt lat="45.934478095125854" lon="12.195048732062974"><ele>167.0</ele><time>2026-04-25T10:51:16Z</time></trkpt><trkpt lat="45.93455570161227" lon="12.195023285097507"><ele>167.5</ele><time>2026-04-25T10:51:17Z</time></trkpt><trkpt lat="45.93462493683751" lon="12.19499380862903"><ele>168.0</ele><time>2026-04-25T10:51:18Z</time></trkpt><trkpt lat="45.93469900000158" lon="12.194954996484668"><ele>168.5</ele><time>2026-04-25T10:51:19Z</time></trkpt><trkpt lat="45.93476660455935" lon="12.194922899938987"><ele>169.0</ele><time>2026-04-25T10:51:20Z</time></trkpt><trkpt lat="45.934825113574604" lon="12.19488270534413"><ele>169.5</ele><time>2026-04-25T10:51:21Z</time></trkpt><trkpt lat="45.93488745089913" lon="12.19483807050407"><ele>170.0</ele><time>2026-04-25T10:51:22Z</time></trkpt><trkpt lat="45.934987713771854" lon="12.194742300731598"><ele>170.0</ele><time>2026-04-25T10:51:24Z</time></trkpt><trkpt lat="45.93504674201764" lon="12.194675136355345"><ele>170.0</ele><time>2026-04-25T10:51:25Z</time></trkpt><trkpt lat="45.93509845661958" lon="12.194614126855027"><ele>170.0</ele><time>2026-04-25T10:51:26Z</time></trkpt><trkpt lat="45.93515881931595" lon="12.19449171334071"><ele>170.0</ele><time>2026-04-25T10:51:28Z</time></trkpt><trkpt lat="45.93519573159164" lon="12.194404319860912"><ele>170.0</ele><time>2026-04-25T10:51:29Z</time></trkpt><trkpt lat="45.93524858495005" lon="12.19431134661746"><ele>170.0</ele><time>2026-04-25T10:51:30Z</time></trkpt><trkpt lat="45.935298745545175" lon="12.194210897813942"><ele>171.16666666666666</ele><time>2026-04-25T10:51:31Z</time></trkpt><trkpt lat="45.93535180361361" lon="12.19413118252138"><ele>172.33333333333331</ele><time>2026-04-25T10:51:32Z</time></trkpt><trkpt lat="45.935400772427194" lon="12.194053233025937"><ele>173.5</ele><time>2026-04-25T10:51:33Z</time></trkpt><trkpt lat="45.935447910752856" lon="12.19397089222009"><ele>174.66666666666666</ele><time>2026-04-25T10:51:34Z</time></trkpt><trkpt lat="45.935494580642896" lon="12.193894456837626"><ele>175.83333333333334</ele><time>2026-04-25T10:51:35Z</time></trkpt><trkpt lat="45.93554115803629" lon="12.193820380239986"><ele>177.0</ele><time>2026-04-25T10:51:36Z</time></trkpt><trkpt lat="45.935608478437786" lon="12.193655483629193"><ele>177.0</ele><time>2026-04-25T10:51:38Z</time></trkpt><trkpt lat="45.9356623056155" lon="12.193553016658006"><ele>177.0</ele><time>2026-04-25T10:51:39Z</time></trkpt><trkpt lat="45.93571982951068" lon="12.19346278416879"><ele>177.0</ele><time>2026-04-25T10:51:40Z</time></trkpt><trkpt lat="45.93576622931491" lon="12.193372152028186"><ele>177.0</ele><time>2026-04-25T10:51:41Z</time></trkpt><trkpt lat="45.935801876563886" lon="12.193262372053521"><ele>177.0</ele><time>2026-04-25T10:51:42Z</time></trkpt><trkpt lat="45.93583699018743" lon="12.19317323237576"><ele>177.0</ele><time>2026-04-25T10:51:43Z</time></trkpt><trkpt lat="45.93586638996428" lon="12.193069662566721"><ele>176.0</ele><time>2026-04-25T10:51:44Z</time></trkpt><trkpt lat="45.93590001402637" lon="12.192979006709514"><ele>175.0</ele><time>2026-04-25T10:51:45Z</time></trkpt><trkpt lat="45.935937063633816" lon="12.19289412910277"><ele>174.0</ele><time>2026-04-25T10:51:46Z</time></trkpt><trkpt lat="45.935963247678664" lon="12.192805451878833"><ele>173.0</ele><time>2026-04-25T10:51:47Z</time></trkpt><trkpt lat="45.935996408286705" lon="12.192715551869366"><ele>172.0</ele><time>2026-04-25T10:51:48Z</time></trkpt><trkpt lat="45.93602578647043" lon="12.192629252828615"><ele>171.0</ele><time>2026-04-25T10:51:49Z</time></trkpt><trkpt lat="45.93604184568601" lon="12.19253670508241"><ele>170.0</ele><time>2026-04-25T10:51:50Z</time></trkpt><trkpt lat="45.9360630378395" lon="12.192448879559013"><ele>170.0</ele><time>2026-04-25T10:51:51Z</time></trkpt><trkpt lat="45.93608869639785" lon="12.192362942815215"><ele>170.0</ele><time>2026-04-25T10:51:52Z</time></trkpt><trkpt lat="45.93611746875888" lon="12.192278695047062"><ele>170.0</ele><time>2026-04-25T10:51:53Z</time></trkpt><trkpt lat="45.93614905741991" lon="12.192189011032237"><ele>170.0</ele><time>2026-04-25T10:51:54Z</time></trkpt><trkpt lat="45.93622433617913" lon="12.192039513657367"><ele>170.0</ele><time>2026-04-25T10:51:56Z</time></trkpt><trkpt lat="45.93626587052357" lon="12.191966511301692"><ele>170.0</ele><time>2026-04-25T10:51:57Z</time></trkpt><trkpt lat="45.93630914988327" lon="12.191890251394195"><ele>170.16666666666666</ele><time>2026-04-25T10:51:58Z</time></trkpt><trkpt lat="45.93634034888688" lon="12.19180062482259"><ele>170.33333333333331</ele><time>2026-04-25T10:51:59Z</time></trkpt><trkpt lat="45.936372807924215" lon="12.19172285393187"><ele>170.5</ele><time>2026-04-25T10:52:00Z</time></trkpt><trkpt lat="45.93640286284937" lon="12.19164047986832"><ele>170.66666666666666</ele><time>2026-04-25T10:52:01Z</time></trkpt><trkpt lat="45.93643717005771" lon="12.191559980182307"><ele>170.83333333333334</ele><time>2026-04-25T10:52:02Z</time></trkpt><trkpt lat="45.93650535770908" lon="12.19140978249583"><ele>171.0</ele><time>2026-04-25T10:52:04Z</time></trkpt><trkpt lat="45.93653996040939" lon="12.19132955893997"><ele>172.16666666666666</ele><time>2026-04-25T10:52:05Z</time></trkpt><trkpt lat="45.93657413874918" lon="12.19125117682817"><ele>173.33333333333334</ele><time>2026-04-25T10:52:06Z</time></trkpt><trkpt lat="45.93662482772595" lon="12.191100621065406"><ele>174.5</ele><time>2026-04-25T10:52:08Z</time></trkpt><trkpt lat="45.93663060096481" lon="12.1909920616406"><ele>175.66666666666669</ele><time>2026-04-25T10:52:10Z</time></trkpt><trkpt lat="45.93665553470522" lon="12.190897354157535"><ele>176.83333333333334</ele><time>2026-04-25T10:52:13Z</time></trkpt><trkpt lat="45.93669781198646" lon="12.190798870044544"><ele>178.0</ele><time>2026-04-25T10:52:17Z</time></trkpt><trkpt lat="45.93673693821324" lon="12.190724975585596"><ele>178.60000000000002</ele><time>2026-04-25T10:52:20Z</time></trkpt><trkpt lat="45.936809202150904" lon="12.190658747600258"><ele>179.20000000000002</ele><time>2026-04-25T10:52:24Z</time></trkpt><trkpt lat="45.93702520204733" lon="12.190642166520755"><ele>179.8</ele><time>2026-04-25T10:52:39Z</time></trkpt><trkpt lat="45.93708537581739" lon="12.190679583675971"><ele>180.4</ele><time>2026-04-25T10:52:43Z</time></trkpt><trkpt lat="45.937152553914096" lon="12.190698187460548"><ele>181.0</ele><time>2026-04-25T10:52:47Z</time></trkpt><trkpt lat="45.93723251529908" lon="12.190718868742985"><ele>181.0</ele><time>2026-04-25T10:52:51Z</time></trkpt><trkpt lat="45.93730244543849" lon="12.190728786656619"><ele>181.0</ele><time>2026-04-25T10:52:54Z</time></trkpt><trkpt lat="45.93737232584003" lon="12.190725482338346"><ele>181.0</ele><time>2026-04-25T10:52:57Z</time></trkpt><trkpt lat="45.93744098978545" lon="12.190726338560456"><ele>181.0</ele><time>2026-04-25T10:53:00Z</time></trkpt><trkpt lat="45.93751692511945" lon="12.190739822802062"><ele>181.0</ele><time>2026-04-25T10:53:03Z</time></trkpt><trkpt lat="45.937606997926956" lon="12.190732445045454"><ele>181.0</ele><time>2026-04-25T10:53:07Z</time></trkpt><trkpt lat="45.93767070708241" lon="12.190726320858063"><ele>181.0</ele><time>2026-04-25T10:53:10Z</time></trkpt><trkpt lat="45.937908957692" lon="12.190699746190404"><ele>181.75</ele><time>2026-04-25T10:53:16Z</time></trkpt><trkpt lat="45.93797230520376" lon="12.19068060701176"><ele>182.5</ele><time>2026-04-25T10:53:17Z</time></trkpt><trkpt lat="45.93822896416955" lon="12.190649809424121"><ele>183.25</ele><time>2026-04-25T10:53:22Z</time></trkpt><trkpt lat="45.938332676599735" lon="12.19058542568018"><ele>184.0</ele><time>2026-04-25T10:53:24Z</time></trkpt><trkpt lat="45.93845543748359" lon="12.190544255673135"><ele>186.83333333333334</ele><time>2026-04-25T10:53:26Z</time></trkpt><trkpt lat="45.93851700491408" lon="12.190524282314097"><ele>189.66666666666669</ele><time>2026-04-25T10:53:27Z</time></trkpt><trkpt lat="45.9385862771646" lon="12.190518095052985"><ele>192.5</ele><time>2026-04-25T10:53:28Z</time></trkpt><trkpt lat="45.938653275817074" lon="12.190526494570063"><ele>195.33333333333334</ele><time>2026-04-25T10:53:29Z</time></trkpt><trkpt lat="45.9387746060181" lon="12.190529511105765"><ele>198.16666666666666</ele><time>2026-04-25T10:53:31Z</time></trkpt><trkpt lat="45.938841201223546" lon="12.19053867652763"><ele>201.0</ele><time>2026-04-25T10:53:32Z</time></trkpt><trkpt lat="45.93896291362344" lon="12.190529973657386"><ele>201.0</ele><time>2026-04-25T10:53:34Z</time></trkpt><trkpt lat="45.93905766171809" lon="12.190553855881188"><ele>201.0</ele><time>2026-04-25T10:53:35Z</time></trkpt><trkpt lat="45.939121042641126" lon="12.19052931753123"><ele>201.0</ele><time>2026-04-25T10:53:36Z</time></trkpt><trkpt lat="45.93925570496014" lon="12.190556975194825"><ele>201.0</ele><time>2026-04-25T10:53:38Z</time></trkpt><trkpt lat="45.939360030688306" lon="12.190522531715015"><ele>201.0</ele><time>2026-04-25T10:53:40Z</time></trkpt><trkpt lat="45.93942176700152" lon="12.190436562529111"><ele>199.60000000000002</ele><time>2026-04-25T10:53:42Z</time></trkpt><trkpt lat="45.93950803283109" lon="12.190366512260873"><ele>198.2</ele><time>2026-04-25T10:53:44Z</time></trkpt><trkpt lat="45.93960337582655" lon="12.190267059807018"><ele>196.8</ele><time>2026-04-25T10:53:46Z</time></trkpt><trkpt lat="45.93970340501273" lon="12.190189340088152"><ele>195.39999999999998</ele><time>2026-04-25T10:53:48Z</time></trkpt><trkpt lat="45.93979377642845" lon="12.190103274941501"><ele>194.0</ele><time>2026-04-25T10:53:50Z</time></trkpt><trkpt lat="45.939881897950244" lon="12.190011609945765"><ele>194.00000000000003</ele><time>2026-04-25T10:53:52Z</time></trkpt><trkpt lat="45.93997938264046" lon="12.189927980654748"><ele>194.0</ele><time>2026-04-25T10:53:54Z</time></trkpt><trkpt lat="45.940091154283664" lon="12.18986034490473"><ele>194.0</ele><time>2026-04-25T10:53:56Z</time></trkpt><trkpt lat="45.94015129919471" lon="12.189824432402988"><ele>194.0</ele><time>2026-04-25T10:53:57Z</time></trkpt><trkpt lat="45.940210072157186" lon="12.18978666033436"><ele>194.00000000000003</ele><time>2026-04-25T10:53:58Z</time></trkpt><trkpt lat="45.94027238240345" lon="12.189751695454152"><ele>194.0</ele><time>2026-04-25T10:53:59Z</time></trkpt><trkpt lat="45.94033132467218" lon="12.189711800109885"><ele>194.79999999999998</ele><time>2026-04-25T10:54:00Z</time></trkpt><trkpt lat="45.940442470231844" lon="12.189618062041811"><ele>195.6</ele><time>2026-04-25T10:54:02Z</time></trkpt><trkpt lat="45.94053387764204" lon="12.189509331422373"><ele>196.4</ele><time>2026-04-25T10:54:04Z</time></trkpt><trkpt lat="45.94058612289111" lon="12.189443679328535"><ele>197.2</ele><time>2026-04-25T10:54:05Z</time></trkpt><trkpt lat="45.940675083735776" lon="12.18933660326519"><ele>198.0</ele><time>2026-04-25T10:54:07Z</time></trkpt><trkpt lat="45.94072699559424" lon="12.18928172866236"><ele>198.0</ele><time>2026-04-25T10:54:08Z</time></trkpt><trkpt lat="45.94079224766177" lon="12.189228802426195"><ele>198.0</ele><time>2026-04-25T10:54:09Z</time></trkpt><trkpt lat="45.9408559256128" lon="12.189188568762134"><ele>198.0</ele><time>2026-04-25T10:54:10Z</time></trkpt><trkpt lat="45.940909767110554" lon="12.189139308569247"><ele>198.0</ele><time>2026-04-25T10:54:11Z</time></trkpt><trkpt lat="45.94096146239915" lon="12.189068910905986"><ele>198.0</ele><time>2026-04-25T10:54:12Z</time></trkpt><trkpt lat="45.94100448980216" lon="12.18899535390202"><ele>198.0</ele><time>2026-04-25T10:54:13Z</time></trkpt><trkpt lat="45.94102733762161" lon="12.18890646754894"><ele>198.0</ele><time>2026-04-25T10:54:14Z</time></trkpt><trkpt lat="45.94107338899414" lon="12.18875948579534"><ele>197.2857142857143</ele><time>2026-04-25T10:54:16Z</time></trkpt><trkpt lat="45.94110637683321" lon="12.188669811927534"><ele>196.57142857142856</ele><time>2026-04-25T10:54:17Z</time></trkpt><trkpt lat="45.94113683653934" lon="12.188579165803354"><ele>195.85714285714286</ele><time>2026-04-25T10:54:18Z</time></trkpt><trkpt lat="45.94118335990456" lon="12.188496444167992"><ele>195.14285714285717</ele><time>2026-04-25T10:54:19Z</time></trkpt><trkpt lat="45.94122815421477" lon="12.188423271222298"><ele>194.42857142857144</ele><time>2026-04-25T10:54:20Z</time></trkpt><trkpt lat="45.941277584448656" lon="12.188352388573218"><ele>193.71428571428572</ele><time>2026-04-25T10:54:21Z</time></trkpt><trkpt lat="45.941328721668626" lon="12.188293387521052"><ele>193.0</ele><time>2026-04-25T10:54:22Z</time></trkpt><trkpt lat="45.94138287595439" lon="12.188236766501008"><ele>193.0</ele><time>2026-04-25T10:54:23Z</time></trkpt><trkpt lat="45.94144647601444" lon="12.188193440218688"><ele>193.0</ele><time>2026-04-25T10:54:24Z</time></trkpt><trkpt lat="45.941562502623924" lon="12.188119989898974"><ele>193.0</ele><time>2026-04-25T10:54:26Z</time></trkpt><trkpt lat="45.941671022461854" lon="12.188047716879936"><ele>193.0</ele><time>2026-04-25T10:54:28Z</time></trkpt><trkpt lat="45.941772876296426" lon="12.187955964733279"><ele>193.0</ele><time>2026-04-25T10:54:30Z</time></trkpt><trkpt lat="45.94182351357383" lon="12.187900609075433"><ele>194.0</ele><time>2026-04-25T10:54:31Z</time></trkpt><trkpt lat="45.94191203405814" lon="12.18777627241987"><ele>195.0</ele><time>2026-04-25T10:54:33Z</time></trkpt><trkpt lat="45.94200327082735" lon="12.187660905386936"><ele>196.0</ele><time>2026-04-25T10:54:35Z</time></trkpt><trkpt lat="45.94208818358361" lon="12.187550119846724"><ele>197.0</ele><time>2026-04-25T10:54:37Z</time></trkpt><trkpt lat="45.942179463535425" lon="12.18744232063278"><ele>197.00000000000003</ele><time>2026-04-25T10:54:39Z</time></trkpt><trkpt lat="45.94225598781635" lon="12.187337340351196"><ele>197.0</ele><time>2026-04-25T10:54:41Z</time></trkpt><trkpt lat="45.942316419673176" lon="12.187363679551051"><ele>197.0</ele><time>2026-04-25T10:54:44Z</time></trkpt><trkpt lat="45.942319627008786" lon="12.187471594018339"><ele>197.0</ele><time>2026-04-25T10:54:47Z</time></trkpt><trkpt lat="45.94234647087651" lon="12.187556617578693"><ele>197.00000000000003</ele><time>2026-04-25T10:54:49Z</time></trkpt><trkpt lat="45.94238587619038" lon="12.187637660788644"><ele>197.0</ele><time>2026-04-25T10:54:51Z</time></trkpt><trkpt lat="45.942426536967616" lon="12.187739157467554"><ele>197.0</ele><time>2026-04-25T10:54:53Z</time></trkpt><trkpt lat="45.94246891598676" lon="12.187843853500947"><ele>197.0</ele><time>2026-04-25T10:54:55Z</time></trkpt><trkpt lat="45.94252482046815" lon="12.187956835439188"><ele>197.0</ele><time>2026-04-25T10:54:57Z</time></trkpt><trkpt lat="45.94259254254137" lon="12.188054396712229"><ele>197.0</ele><time>2026-04-25T10:54:59Z</time></trkpt><trkpt lat="45.942693638611495" lon="12.188107363777023"><ele>197.0</ele><time>2026-04-25T10:55:01Z</time></trkpt><trkpt lat="45.942759841658486" lon="12.188103256434909"><ele>197.66666666666669</ele><time>2026-04-25T10:55:02Z</time></trkpt><trkpt lat="45.94285719003419" lon="12.188058565260283"><ele>198.33333333333334</ele><time>2026-04-25T10:55:04Z</time></trkpt><trkpt lat="45.94294836312705" lon="12.18803322433845"><ele>199.0</ele><time>2026-04-25T10:55:06Z</time></trkpt><trkpt lat="45.94305611080363" lon="12.188010142479435"><ele>199.66666666666669</ele><time>2026-04-25T10:55:08Z</time></trkpt><trkpt lat="45.94312207268081" lon="12.188037045573026"><ele>200.33333333333334</ele><time>2026-04-25T10:55:09Z</time></trkpt><trkpt lat="45.94318903629994" lon="12.18806375325795"><ele>201.0</ele><time>2026-04-25T10:55:10Z</time></trkpt><trkpt lat="45.943245284713754" lon="12.188116637506583"><ele>201.0</ele><time>2026-04-25T10:55:11Z</time></trkpt><trkpt lat="45.9433034132216" lon="12.188158453086249"><ele>201.0</ele><time>2026-04-25T10:55:12Z</time></trkpt><trkpt lat="45.94338994152523" lon="12.188246457542277"><ele>201.0</ele><time>2026-04-25T10:55:14Z</time></trkpt><trkpt lat="45.94345559484056" lon="12.188323960461044"><ele>201.0</ele><time>2026-04-25T10:55:16Z</time></trkpt><trkpt lat="45.94351609203526" lon="12.188377184087456"><ele>201.0</ele><time>2026-04-25T10:55:18Z</time></trkpt><trkpt lat="45.94358889440109" lon="12.188409549758585"><ele>201.0</ele><time>2026-04-25T10:55:20Z</time></trkpt><trkpt lat="45.94368005181456" lon="12.188480698996802"><ele>199.8</ele><time>2026-04-25T10:55:22Z</time></trkpt><trkpt lat="45.94376768698108" lon="12.188506306544406"><ele>198.60000000000002</ele><time>2026-04-25T10:55:24Z</time></trkpt><trkpt lat="45.94387201210631" lon="12.188490156609072"><ele>197.4</ele><time>2026-04-25T10:55:26Z</time></trkpt><trkpt lat="45.94396601095012" lon="12.188462734997666"><ele>196.2</ele><time>2026-04-25T10:55:28Z</time></trkpt><trkpt lat="45.944036103131914" lon="12.188371642282373"><ele>195.0</ele><time>2026-04-25T10:55:30Z</time></trkpt><trkpt lat="45.944123458364466" lon="12.188323495976695"><ele>196.2</ele><time>2026-04-25T10:55:32Z</time></trkpt><trkpt lat="45.94422160261791" lon="12.188287036899768"><ele>197.4</ele><time>2026-04-25T10:55:34Z</time></trkpt><trkpt lat="45.94431676494995" lon="12.188248697202091"><ele>198.60000000000002</ele><time>2026-04-25T10:55:36Z</time></trkpt><trkpt lat="45.9444060496191" lon="12.188220353123214"><ele>199.8</ele><time>2026-04-25T10:55:38Z</time></trkpt><trkpt lat="45.944549204905975" lon="12.188213320750759"><ele>201.0</ele><time>2026-04-25T10:55:41Z</time></trkpt><trkpt lat="45.944698252380526" lon="12.18822500673063"><ele>201.0</ele><time>2026-04-25T10:55:44Z</time></trkpt><trkpt lat="45.94479522064053" lon="12.188226447099881"><ele>201.0</ele><time>2026-04-25T10:55:46Z</time></trkpt><trkpt lat="45.944885200127715" lon="12.188224264466188"><ele>201.0</ele><time>2026-04-25T10:55:48Z</time></trkpt><trkpt lat="45.944976969034926" lon="12.188230878973327"><ele>201.0</ele><time>2026-04-25T10:55:50Z</time></trkpt><trkpt lat="45.94505961152037" lon="12.188217681553706"><ele>201.0</ele><time>2026-04-25T10:55:52Z</time></trkpt><trkpt lat="45.945131516324736" lon="12.188254335033962"><ele>201.0</ele><time>2026-04-25T10:55:54Z</time></trkpt><trkpt lat="45.9452099766511" lon="12.188254882561813"><ele>201.60000000000002</ele><time>2026-04-25T10:55:56Z</time></trkpt><trkpt lat="45.9453062068113" lon="12.188292086622765"><ele>202.2</ele><time>2026-04-25T10:55:58Z</time></trkpt><trkpt lat="45.94539128777961" lon="12.188315287012095"><ele>202.8</ele><time>2026-04-25T10:56:00Z</time></trkpt><trkpt lat="45.94547890619" lon="12.18832532412707"><ele>203.39999999999998</ele><time>2026-04-25T10:56:02Z</time></trkpt><trkpt lat="45.9455664742779" lon="12.188337470448205"><ele>204.0</ele><time>2026-04-25T10:56:04Z</time></trkpt><trkpt lat="45.94566863208221" lon="12.188308369470466"><ele>204.0</ele><time>2026-04-25T10:56:06Z</time></trkpt><trkpt lat="45.94576597349568" lon="12.188300072996688"><ele>204.0</ele><time>2026-04-25T10:56:08Z</time></trkpt><trkpt lat="45.94586806906495" lon="12.188312943067466"><ele>204.0</ele><time>2026-04-25T10:56:10Z</time></trkpt><trkpt lat="45.945923935809645" lon="12.18836630847533"><ele>204.0</ele><time>2026-04-25T10:56:11Z</time></trkpt><trkpt lat="45.94597834993251" lon="12.188422002965691"><ele>204.0</ele><time>2026-04-25T10:56:12Z</time></trkpt><trkpt lat="45.94606726759891" lon="12.188528636239566"><ele>205.83333333333334</ele><time>2026-04-25T10:56:14Z</time></trkpt><trkpt lat="45.94614553728855" lon="12.188637404440254"><ele>207.66666666666669</ele><time>2026-04-25T10:56:16Z</time></trkpt><trkpt lat="45.946199496521785" lon="12.188755365009015"><ele>209.5</ele><time>2026-04-25T10:56:18Z</time></trkpt><trkpt lat="45.94622970817413" lon="12.18886516471468"><ele>211.33333333333334</ele><time>2026-04-25T10:56:20Z</time></trkpt><trkpt lat="45.94625129824278" lon="12.188974638436264"><ele>213.16666666666669</ele><time>2026-04-25T10:56:22Z</time></trkpt><trkpt lat="45.94627013922147" lon="12.189081238411262"><ele>215.0</ele><time>2026-04-25T10:56:24Z</time></trkpt><trkpt lat="45.94628610872643" lon="12.189178461679688"><ele>215.83333333333334</ele><time>2026-04-25T10:56:26Z</time></trkpt><trkpt lat="45.9463064298592" lon="12.18929106873685"><ele>216.66666666666669</ele><time>2026-04-25T10:56:28Z</time></trkpt><trkpt lat="45.946335657602084" lon="12.18940877614349"><ele>217.5</ele><time>2026-04-25T10:56:30Z</time></trkpt><trkpt lat="45.946365030811855" lon="12.18950852525229"><ele>218.33333333333331</ele><time>2026-04-25T10:56:32Z</time></trkpt><trkpt lat="45.9464044648705" lon="12.189624005607566"><ele>219.16666666666666</ele><time>2026-04-25T10:56:34Z</time></trkpt><trkpt lat="45.94643500320802" lon="12.18973807791808"><ele>220.0</ele><time>2026-04-25T10:56:36Z</time></trkpt><trkpt lat="45.9464645720417" lon="12.189858307801654"><ele>219.99999999999997</ele><time>2026-04-25T10:56:38Z</time></trkpt><trkpt lat="45.94648888848566" lon="12.189993552065342"><ele>220.0</ele><time>2026-04-25T10:56:40Z</time></trkpt><trkpt lat="45.94651488511181" lon="12.190101214722608"><ele>220.0</ele><time>2026-04-25T10:56:42Z</time></trkpt><trkpt lat="45.94655175177103" lon="12.190205272805438"><ele>220.0</ele><time>2026-04-25T10:56:44Z</time></trkpt><trkpt lat="45.94659905333206" lon="12.190300713971693"><ele>219.99999999999997</ele><time>2026-04-25T10:56:46Z</time></trkpt><trkpt lat="45.94664464467487" lon="12.190380676289315"><ele>220.0</ele><time>2026-04-25T10:56:48Z</time></trkpt><trkpt lat="45.94669300366956" lon="12.19047076023076"><ele>223.16666666666666</ele><time>2026-04-25T10:56:50Z</time></trkpt><trkpt lat="45.94673537037322" lon="12.19055386815822"><ele>226.33333333333331</ele><time>2026-04-25T10:56:52Z</time></trkpt><trkpt lat="45.94679004624463" lon="12.190644922436952"><ele>229.5</ele><time>2026-04-25T10:56:54Z</time></trkpt><trkpt lat="45.94683930942153" lon="12.190739190805449"><ele>232.66666666666669</ele><time>2026-04-25T10:56:56Z</time></trkpt><trkpt lat="45.94687736708361" lon="12.190826205851737"><ele>235.83333333333334</ele><time>2026-04-25T10:56:58Z</time></trkpt><trkpt lat="45.946916951469696" lon="12.190924077545901"><ele>239.0</ele><time>2026-04-25T10:57:00Z</time></trkpt><trkpt lat="45.946951752112106" lon="12.19102933352152"><ele>239.0</ele><time>2026-04-25T10:57:02Z</time></trkpt><trkpt lat="45.946998180987656" lon="12.191121861807634"><ele>238.99999999999997</ele><time>2026-04-25T10:57:04Z</time></trkpt><trkpt lat="45.9470401566948" lon="12.191225207664624"><ele>238.99999999999997</ele><time>2026-04-25T10:57:06Z</time></trkpt><trkpt lat="45.947094150168546" lon="12.191367768972162"><ele>239.0</ele><time>2026-04-25T10:57:08Z</time></trkpt><trkpt lat="45.947162798628106" lon="12.191488526018096"><ele>239.0</ele><time>2026-04-25T10:57:10Z</time></trkpt><trkpt lat="45.94723184740569" lon="12.191596473008833"><ele>240.0</ele><time>2026-04-25T10:57:12Z</time></trkpt><trkpt lat="45.94731515730798" lon="12.191693597360175"><ele>240.99999999999997</ele><time>2026-04-25T10:57:14Z</time></trkpt><trkpt lat="45.947392653765625" lon="12.191797589902919"><ele>241.99999999999997</ele><time>2026-04-25T10:57:16Z</time></trkpt><trkpt lat="45.94746865291596" lon="12.191893855806319"><ele>243.0</ele><time>2026-04-25T10:57:18Z</time></trkpt><trkpt lat="45.94754417459369" lon="12.191996956202154"><ele>244.0</ele><time>2026-04-25T10:57:20Z</time></trkpt><trkpt lat="45.947615269394404" lon="12.192110737180448"><ele>244.0</ele><time>2026-04-25T10:57:22Z</time></trkpt><trkpt lat="45.947691446465214" lon="12.19222934736281"><ele>243.99999999999997</ele><time>2026-04-25T10:57:24Z</time></trkpt><trkpt lat="45.94775812630012" lon="12.192336494578083"><ele>243.99999999999997</ele><time>2026-04-25T10:57:26Z</time></trkpt><trkpt lat="45.94784985988009" lon="12.192395871330083"><ele>244.0</ele><time>2026-04-25T10:57:28Z</time></trkpt><trkpt lat="45.94794282330369" lon="12.192465404055602"><ele>244.0</ele><time>2026-04-25T10:57:30Z</time></trkpt><trkpt lat="45.94802505122266" lon="12.192556052735238"><ele>242.66666666666666</ele><time>2026-04-25T10:57:32Z</time></trkpt><trkpt lat="45.94810418528298" lon="12.192656026018202"><ele>241.33333333333331</ele><time>2026-04-25T10:57:34Z</time></trkpt><trkpt lat="45.948159192891765" lon="12.192752884574121"><ele>240.0</ele><time>2026-04-25T10:57:36Z</time></trkpt><trkpt lat="45.94819651539879" lon="12.19283103856071"><ele>238.66666666666669</ele><time>2026-04-25T10:57:38Z</time></trkpt><trkpt lat="45.94824812777843" lon="12.192929651245064"><ele>237.33333333333334</ele><time>2026-04-25T10:57:40Z</time></trkpt><trkpt lat="45.94831194030722" lon="12.193014989669734"><ele>236.0</ele><time>2026-04-25T10:57:42Z</time></trkpt><trkpt lat="45.9483880071833" lon="12.193072350760442"><ele>236.0</ele><time>2026-04-25T10:57:44Z</time></trkpt><trkpt lat="45.94845935870152" lon="12.193109684454319"><ele>236.00000000000003</ele><time>2026-04-25T10:57:46Z</time></trkpt><trkpt lat="45.948562159582956" lon="12.193121910267646"><ele>236.00000000000003</ele><time>2026-04-25T10:57:48Z</time></trkpt><trkpt lat="45.94866199073867" lon="12.193107789956223"><ele>236.0</ele><time>2026-04-25T10:57:50Z</time></trkpt><trkpt lat="45.948768177698426" lon="12.193083506414455"><ele>236.0</ele><time>2026-04-25T10:57:52Z</time></trkpt><trkpt lat="45.94887246572185" lon="12.193049420118355"><ele>236.00000000000003</ele><time>2026-04-25T10:57:54Z</time></trkpt><trkpt lat="45.94897671861382" lon="12.193039593763753"><ele>236.0</ele><time>2026-04-25T10:57:56Z</time></trkpt><trkpt lat="45.94907953053837" lon="12.193063126656856"><ele>236.0</ele><time>2026-04-25T10:57:58Z</time></trkpt><trkpt lat="45.94915802408865" lon="12.193080891728476"><ele>236.0</ele><time>2026-04-25T10:58:00Z</time></trkpt><trkpt lat="45.949222178668656" lon="12.19311506762258"><ele>236.00000000000003</ele><time>2026-04-25T10:58:02Z</time></trkpt><trkpt lat="45.949285384279015" lon="12.193191518460779"><ele>236.0</ele><time>2026-04-25T10:58:04Z</time></trkpt><trkpt lat="45.94934934386782" lon="12.193294820046557"><ele>234.50000000000003</ele><time>2026-04-25T10:58:06Z</time></trkpt><trkpt lat="45.94940434767621" lon="12.193420651784379"><ele>233.0</ele><time>2026-04-25T10:58:08Z</time></trkpt><trkpt lat="45.949439294026966" lon="12.193532338418953"><ele>231.5</ele><time>2026-04-25T10:58:10Z</time></trkpt><trkpt lat="45.94948152814206" lon="12.193640873578559"><ele>230.0</ele><time>2026-04-25T10:58:12Z</time></trkpt><trkpt lat="45.949520548294636" lon="12.193754548871757"><ele>228.50000000000003</ele><time>2026-04-25T10:58:14Z</time></trkpt><trkpt lat="45.949549143162415" lon="12.193866141218496"><ele>227.0</ele><time>2026-04-25T10:58:16Z</time></trkpt><trkpt lat="45.94953866781955" lon="12.193964268919744"><ele>228.00000000000003</ele><time>2026-04-25T10:58:18Z</time></trkpt><trkpt lat="45.949522099734985" lon="12.194083079106164"><ele>229.0</ele><time>2026-04-25T10:58:20Z</time></trkpt><trkpt lat="45.94952899803248" lon="12.19418641585758"><ele>230.0</ele><time>2026-04-25T10:58:22Z</time></trkpt><trkpt lat="45.94956222518928" lon="12.194305763702893"><ele>231.0</ele><time>2026-04-25T10:58:24Z</time></trkpt><trkpt lat="45.949615052978494" lon="12.19440063285246"><ele>232.00000000000003</ele><time>2026-04-25T10:58:26Z</time></trkpt><trkpt lat="45.94968575966467" lon="12.194523098627236"><ele>233.0</ele><time>2026-04-25T10:58:28Z</time></trkpt><trkpt lat="45.94972794231883" lon="12.194655103647328"><ele>233.00000000000003</ele><time>2026-04-25T10:58:30Z</time></trkpt><trkpt lat="45.94978636759135" lon="12.194798420439746"><ele>233.0</ele><time>2026-04-25T10:58:32Z</time></trkpt><trkpt lat="45.94984969126912" lon="12.194895226604626"><ele>233.0</ele><time>2026-04-25T10:58:34Z</time></trkpt><trkpt lat="45.94989642559154" lon="12.194982753176646"><ele>233.0</ele><time>2026-04-25T10:58:36Z</time></trkpt><trkpt lat="45.94995965489775" lon="12.195082819452132"><ele>233.00000000000003</ele><time>2026-04-25T10:58:38Z</time></trkpt><trkpt lat="45.950011077099845" lon="12.195139460140672"><ele>233.0</ele><time>2026-04-25T10:58:40Z</time></trkpt><trkpt lat="45.95007985515397" lon="12.195247993751957"><ele>233.0</ele><time>2026-04-25T10:58:42Z</time></trkpt><trkpt lat="45.950144856954715" lon="12.195369333426353"><ele>233.0</ele><time>2026-04-25T10:58:44Z</time></trkpt><trkpt lat="45.95022802858048" lon="12.195449294942058"><ele>233.0</ele><time>2026-04-25T10:58:46Z</time></trkpt><trkpt lat="45.950290594362514" lon="12.19553412049642"><ele>233.0</ele><time>2026-04-25T10:58:48Z</time></trkpt><trkpt lat="45.950357656303225" lon="12.195598455970739"><ele>233.0</ele><time>2026-04-25T10:58:50Z</time></trkpt><trkpt lat="45.95041739552598" lon="12.195689202861002"><ele>233.00000000000003</ele><time>2026-04-25T10:58:52Z</time></trkpt><trkpt lat="45.95047752290933" lon="12.195764338421709"><ele>233.0</ele><time>2026-04-25T10:58:54Z</time></trkpt><trkpt lat="45.950554973999985" lon="12.195859413728467"><ele>233.0</ele><time>2026-04-25T10:58:57Z</time></trkpt><trkpt lat="45.9506091619248" lon="12.195908301916814"><ele>233.0</ele><time>2026-04-25T10:58:59Z</time></trkpt><trkpt lat="45.95069178759132" lon="12.19597219248829"><ele>233.00000000000003</ele><time>2026-04-25T10:59:02Z</time></trkpt><trkpt lat="45.950749754998704" lon="12.19601421787621"><ele>233.0</ele><time>2026-04-25T10:59:04Z</time></trkpt><trkpt lat="45.95083684627074" lon="12.196022306762481"><ele>234.66666666666669</ele><time>2026-04-25T10:59:07Z</time></trkpt><trkpt lat="45.95092381712939" lon="12.196015333015408"><ele>236.33333333333334</ele><time>2026-04-25T10:59:10Z</time></trkpt><trkpt lat="45.950995450257786" lon="12.196038172918238"><ele>238.0</ele><time>2026-04-25T10:59:12Z</time></trkpt><trkpt lat="45.95107338753741" lon="12.19607095791304"><ele>239.66666666666669</ele><time>2026-04-25T10:59:14Z</time></trkpt><trkpt lat="45.95114806392458" lon="12.196114526050533"><ele>241.33333333333334</ele><time>2026-04-25T10:59:17Z</time></trkpt><trkpt lat="45.951246618869064" lon="12.196139469300372"><ele>243.0</ele><time>2026-04-25T10:59:20Z</time></trkpt><trkpt lat="45.951330015014356" lon="12.196155047430981"><ele>243.0</ele><time>2026-04-25T10:59:23Z</time></trkpt><trkpt lat="45.95140830320861" lon="12.196168237967152"><ele>243.0</ele><time>2026-04-25T10:59:27Z</time></trkpt><trkpt lat="45.951478088911614" lon="12.196174719896257"><ele>243.0</ele><time>2026-04-25T10:59:30Z</time></trkpt><trkpt lat="45.951551937648894" lon="12.196193399156764"><ele>243.0</ele><time>2026-04-25T10:59:33Z</time></trkpt><trkpt lat="45.95163050945939" lon="12.196209497125155"><ele>243.0</ele><time>2026-04-25T10:59:36Z</time></trkpt><trkpt lat="45.95170755296865" lon="12.196227266248638"><ele>243.0</ele><time>2026-04-25T10:59:39Z</time></trkpt><trkpt lat="45.95179141360767" lon="12.196243102595195"><ele>242.83333333333334</ele><time>2026-04-25T10:59:42Z</time></trkpt><trkpt lat="45.951882801339536" lon="12.196251064228338"><ele>242.66666666666669</ele><time>2026-04-25T10:59:45Z</time></trkpt><trkpt lat="45.951945498057555" lon="12.196278645381797"><ele>242.5</ele><time>2026-04-25T10:59:47Z</time></trkpt><trkpt lat="45.952028813605" lon="12.196351992423589"><ele>242.33333333333334</ele><time>2026-04-25T10:59:50Z</time></trkpt><trkpt lat="45.95207988213354" lon="12.196445589525144"><ele>242.16666666666669</ele><time>2026-04-25T10:59:53Z</time></trkpt><trkpt lat="45.952124503487724" lon="12.196536513544253"><ele>242.0</ele><time>2026-04-25T10:59:56Z</time></trkpt><trkpt lat="45.95218578707964" lon="12.196617457581784"><ele>242.00000000000003</ele><time>2026-04-25T10:59:59Z</time></trkpt><trkpt lat="45.95221462178135" lon="12.19671583647214"><ele>242.0</ele><time>2026-04-25T11:00:02Z</time></trkpt><trkpt lat="45.95226718038884" lon="12.196808379321554"><ele>242.0</ele><time>2026-04-25T11:00:05Z</time></trkpt><trkpt lat="45.95231784353092" lon="12.196904162767389"><ele>242.0</ele><time>2026-04-25T11:00:08Z</time></trkpt><trkpt lat="45.952380989276" lon="12.197004904890207"><ele>242.00000000000003</ele><time>2026-04-25T11:00:12Z</time></trkpt><trkpt lat="45.952435428422426" lon="12.197103069303607"><ele>242.0</ele><time>2026-04-25T11:00:16Z</time></trkpt><trkpt lat="45.95247696946298" lon="12.197174910341255"><ele>242.00000000000003</ele><time>2026-04-25T11:00:19Z</time></trkpt><trkpt lat="45.95251078929173" lon="12.197253560284281"><ele>242.0</ele><time>2026-04-25T11:00:22Z</time></trkpt><trkpt lat="45.9525526625401" lon="12.197357374010117"><ele>242.0</ele><time>2026-04-25T11:00:26Z</time></trkpt><trkpt lat="45.95257814883893" lon="12.197476918293194"><ele>242.0</ele><time>2026-04-25T11:00:30Z</time></trkpt><trkpt lat="45.95263079900794" lon="12.197576637401516"><ele>242.00000000000003</ele><time>2026-04-25T11:00:34Z</time></trkpt><trkpt lat="45.95267729533686" lon="12.197678502962495"><ele>242.0</ele><time>2026-04-25T11:00:38Z</time></trkpt><trkpt lat="45.952716530430244" lon="12.19775110036704"><ele>245.28571428571428</ele><time>2026-04-25T11:00:41Z</time></trkpt><trkpt lat="45.952759761619554" lon="12.19784383828391"><ele>248.57142857142856</ele><time>2026-04-25T11:00:45Z</time></trkpt><trkpt lat="45.952797547897205" lon="12.197921970745284"><ele>251.85714285714283</ele><time>2026-04-25T11:00:48Z</time></trkpt><trkpt lat="45.95282673441981" lon="12.198004775503223"><ele>255.1428571428571</ele><time>2026-04-25T11:00:51Z</time></trkpt><trkpt lat="45.952858771561814" lon="12.198111858322358"><ele>258.42857142857144</ele><time>2026-04-25T11:00:55Z</time></trkpt><trkpt lat="45.95290471517527" lon="12.19818508317366"><ele>261.71428571428567</ele><time>2026-04-25T11:00:58Z</time></trkpt><trkpt lat="45.95295228351655" lon="12.198283741045813"><ele>265.0</ele><time>2026-04-25T11:01:02Z</time></trkpt><trkpt lat="45.95298286777896" lon="12.19837155197077"><ele>264.66666666666663</ele><time>2026-04-25T11:01:05Z</time></trkpt><trkpt lat="45.95299183742418" lon="12.1984803299267"><ele>264.3333333333333</ele><time>2026-04-25T11:01:08Z</time></trkpt><trkpt lat="45.95300175207968" lon="12.19859333851514"><ele>264.0</ele><time>2026-04-25T11:01:11Z</time></trkpt><trkpt lat="45.95302411403215" lon="12.198714866887158"><ele>263.6666666666667</ele><time>2026-04-25T11:01:14Z</time></trkpt><trkpt lat="45.95307369476648" lon="12.198816011914422"><ele>263.33333333333337</ele><time>2026-04-25T11:01:17Z</time></trkpt><trkpt lat="45.953117072280286" lon="12.198921888349375"><ele>263.0</ele><time>2026-04-25T11:01:20Z</time></trkpt><trkpt lat="45.953176119309845" lon="12.19900644111396"><ele>263.0</ele><time>2026-04-25T11:01:23Z</time></trkpt><trkpt lat="45.95321518767891" lon="12.199107097803417"><ele>263.0</ele><time>2026-04-25T11:01:28Z</time></trkpt><trkpt lat="45.953300107884914" lon="12.199135865051204"><ele>263.0</ele><time>2026-04-25T11:01:31Z</time></trkpt><trkpt lat="45.95339762143477" lon="12.199157163843061"><ele>263.0</ele><time>2026-04-25T11:01:34Z</time></trkpt><trkpt lat="45.95346301232518" lon="12.199187374192517"><ele>263.0</ele><time>2026-04-25T11:01:36Z</time></trkpt><trkpt lat="45.95352469727932" lon="12.199232569475203"><ele>263.0</ele><time>2026-04-25T11:01:39Z</time></trkpt><trkpt lat="45.95356138814237" lon="12.19932864349656"><ele>263.5</ele><time>2026-04-25T11:01:42Z</time></trkpt><trkpt lat="45.95359504271131" lon="12.199434431426294"><ele>264.0</ele><time>2026-04-25T11:01:45Z</time></trkpt><trkpt lat="45.95361458377628" lon="12.199539432516286"><ele>264.5</ele><time>2026-04-25T11:01:48Z</time></trkpt><trkpt lat="45.95364212060334" lon="12.19964606535979"><ele>265.0</ele><time>2026-04-25T11:01:51Z</time></trkpt><trkpt lat="45.95368572459858" lon="12.19975393815523"><ele>265.5</ele><time>2026-04-25T11:01:54Z</time></trkpt><trkpt lat="45.95372892808853" lon="12.199857180490216"><ele>266.0</ele><time>2026-04-25T11:01:57Z</time></trkpt><trkpt lat="45.95377866604608" lon="12.199949350051387"><ele>266.0</ele><time>2026-04-25T11:02:00Z</time></trkpt><trkpt lat="45.95381764012934" lon="12.200048910267451"><ele>266.0</ele><time>2026-04-25T11:02:03Z</time></trkpt><trkpt lat="45.95385573391102" lon="12.2001513475008"><ele>266.0</ele><time>2026-04-25T11:02:06Z</time></trkpt><trkpt lat="45.953888489231346" lon="12.200246949178043"><ele>266.0</ele><time>2026-04-25T11:02:09Z</time></trkpt><trkpt lat="45.95392761419544" lon="12.200329626469482"><ele>266.0</ele><time>2026-04-25T11:02:12Z</time></trkpt><trkpt lat="45.95396958250292" lon="12.200426351316656"><ele>266.0</ele><time>2026-04-25T11:02:16Z</time></trkpt><trkpt lat="45.9540149108845" lon="12.200518971080895"><ele>266.0</ele><time>2026-04-25T11:02:20Z</time></trkpt><trkpt lat="45.95407214904136" lon="12.200589139385245"><ele>266.0</ele><time>2026-04-25T11:02:23Z</time></trkpt><trkpt lat="45.95411849472335" lon="12.20068657085856"><ele>266.0</ele><time>2026-04-25T11:02:26Z</time></trkpt><trkpt lat="45.95418781756022" lon="12.200739732763754"><ele>266.0</ele><time>2026-04-25T11:02:29Z</time></trkpt><trkpt lat="45.95424429324611" lon="12.200840278688442"><ele>266.0</ele><time>2026-04-25T11:02:32Z</time></trkpt><trkpt lat="45.9542925113202" lon="12.200956986355587"><ele>266.0</ele><time>2026-04-25T11:02:35Z</time></trkpt><trkpt lat="45.95433604675473" lon="12.201059518145248"><ele>268.1666666666667</ele><time>2026-04-25T11:02:38Z</time></trkpt><trkpt lat="45.95438880966079" lon="12.201120194405874"><ele>270.33333333333337</ele><time>2026-04-25T11:02:42Z</time></trkpt><trkpt lat="45.954416662597666" lon="12.20120843187541"><ele>272.5</ele><time>2026-04-25T11:02:45Z</time></trkpt><trkpt lat="45.95444372751487" lon="12.2013248400147"><ele>274.6666666666667</ele><time>2026-04-25T11:02:48Z</time></trkpt><trkpt lat="45.95448172759299" lon="12.201447323282485"><ele>276.8333333333333</ele><time>2026-04-25T11:02:51Z</time></trkpt><trkpt lat="45.954531557953324" lon="12.201557256479932"><ele>279.0</ele><time>2026-04-25T11:02:54Z</time></trkpt><trkpt lat="45.954579930485274" lon="12.201669490583605"><ele>279.0</ele><time>2026-04-25T11:02:57Z</time></trkpt><trkpt lat="45.95463588385361" lon="12.201762247574385"><ele>279.0</ele><time>2026-04-25T11:03:00Z</time></trkpt><trkpt lat="45.95469381861353" lon="12.201838539415071"><ele>279.0</ele><time>2026-04-25T11:03:03Z</time></trkpt><trkpt lat="45.95474831849329" lon="12.201909978911303"><ele>279.0</ele><time>2026-04-25T11:03:06Z</time></trkpt><trkpt lat="45.954812487139044" lon="12.201993475765965"><ele>279.0</ele><time>2026-04-25T11:03:09Z</time></trkpt><trkpt lat="45.95489356953676" lon="12.202072644328913"><ele>279.0</ele><time>2026-04-25T11:03:11Z</time></trkpt><trkpt lat="45.95493894521651" lon="12.202155435000547"><ele>279.0</ele><time>2026-04-25T11:03:13Z</time></trkpt><trkpt lat="45.954983452603564" lon="12.202231931174884"><ele>279.0</ele><time>2026-04-25T11:03:15Z</time></trkpt><trkpt lat="45.95502960004918" lon="12.20234395251182"><ele>279.0</ele><time>2026-04-25T11:03:17Z</time></trkpt><trkpt lat="45.95508572023042" lon="12.20246731768696"><ele>279.0</ele><time>2026-04-25T11:03:19Z</time></trkpt><trkpt lat="45.95513601455066" lon="12.202561454453502"><ele>279.0</ele><time>2026-04-25T11:03:21Z</time></trkpt><trkpt lat="45.955206287288945" lon="12.202633393598447"><ele>279.0</ele><time>2026-04-25T11:03:23Z</time></trkpt><trkpt lat="45.95527879112776" lon="12.20270704881914"><ele>279.1666666666667</ele><time>2026-04-25T11:03:25Z</time></trkpt><trkpt lat="45.955355568821844" lon="12.202815380425752"><ele>279.3333333333333</ele><time>2026-04-25T11:03:27Z</time></trkpt><trkpt lat="45.955419323501566" lon="12.202909198790868"><ele>279.5</ele><time>2026-04-25T11:03:30Z</time></trkpt><trkpt lat="45.955487995660704" lon="12.202981378824829"><ele>279.66666666666663</ele><time>2026-04-25T11:03:33Z</time></trkpt><trkpt lat="45.95553827385727" lon="12.203043542102627"><ele>279.8333333333333</ele><time>2026-04-25T11:03:36Z</time></trkpt><trkpt lat="45.95560132776814" lon="12.203084943813723"><ele>280.0</ele><time>2026-04-25T11:03:39Z</time></trkpt><trkpt lat="45.955652466836874" lon="12.203180425640658"><ele>280.16666666666663</ele><time>2026-04-25T11:03:42Z</time></trkpt><trkpt lat="45.955718935036344" lon="12.203253416309819"><ele>280.3333333333333</ele><time>2026-04-25T11:03:45Z</time></trkpt><trkpt lat="45.95577315134932" lon="12.203368246302357"><ele>280.5</ele><time>2026-04-25T11:03:48Z</time></trkpt><trkpt lat="45.955821108997995" lon="12.203437732348249"><ele>280.6666666666667</ele><time>2026-04-25T11:03:50Z</time></trkpt><trkpt lat="45.95587598350811" lon="12.203535496191689"><ele>280.83333333333337</ele><time>2026-04-25T11:03:53Z</time></trkpt><trkpt lat="45.95592014639166" lon="12.203629603479998"><ele>281.0</ele><time>2026-04-25T11:03:55Z</time></trkpt><trkpt lat="45.955965400270394" lon="12.203749020684185"><ele>281.6666666666667</ele><time>2026-04-25T11:03:58Z</time></trkpt><trkpt lat="45.95600330332399" lon="12.203837739512656"><ele>282.33333333333337</ele><time>2026-04-25T11:03:59Z</time></trkpt><trkpt lat="45.95604577973013" lon="12.203917833417314"><ele>283.0</ele><time>2026-04-25T11:04:01Z</time></trkpt><trkpt lat="45.956097089897305" lon="12.20403915086601"><ele>283.6666666666667</ele><time>2026-04-25T11:04:04Z</time></trkpt><trkpt lat="45.956142148086556" lon="12.204108906808322"><ele>284.3333333333333</ele><time>2026-04-25T11:04:06Z</time></trkpt><trkpt lat="45.9561834837355" lon="12.204184844384281"><ele>285.0</ele><time>2026-04-25T11:04:08Z</time></trkpt><trkpt lat="45.95623361298963" lon="12.20427085174383"><ele>285.0</ele><time>2026-04-25T11:04:10Z</time></trkpt><trkpt lat="45.95627371011332" lon="12.20436103959823"><ele>285.0</ele><time>2026-04-25T11:04:12Z</time></trkpt><trkpt lat="45.956330420063814" lon="12.204493812962369"><ele>285.0</ele><time>2026-04-25T11:04:14Z</time></trkpt><trkpt lat="45.95637550583561" lon="12.204597161324543"><ele>285.0</ele><time>2026-04-25T11:04:16Z</time></trkpt><trkpt lat="45.95641944223044" lon="12.204706947447443"><ele>285.0</ele><time>2026-04-25T11:04:18Z</time></trkpt><trkpt lat="45.956472081791944" lon="12.20483897045897"><ele>284.6</ele><time>2026-04-25T11:04:20Z</time></trkpt><trkpt lat="45.95652293444295" lon="12.204961923756626"><ele>284.2</ele><time>2026-04-25T11:04:22Z</time></trkpt><trkpt lat="45.95656905896266" lon="12.205085255877975"><ele>283.8</ele><time>2026-04-25T11:04:24Z</time></trkpt><trkpt lat="45.956599898219245" lon="12.205170898931316"><ele>283.4</ele><time>2026-04-25T11:04:25Z</time></trkpt><trkpt lat="45.956657913784966" lon="12.205309064373623"><ele>283.0</ele><time>2026-04-25T11:04:27Z</time></trkpt><trkpt lat="45.95671782183972" lon="12.205434132109824"><ele>282.66666666666663</ele><time>2026-04-25T11:04:29Z</time></trkpt><trkpt lat="45.956761375072574" lon="12.205550195819841"><ele>282.3333333333333</ele><time>2026-04-25T11:04:31Z</time></trkpt><trkpt lat="45.956799744325245" lon="12.205661432044728"><ele>282.0</ele><time>2026-04-25T11:04:33Z</time></trkpt><trkpt lat="45.956839798826984" lon="12.205762963204451"><ele>281.6666666666667</ele><time>2026-04-25T11:04:35Z</time></trkpt><trkpt lat="45.95688257507378" lon="12.205869987792978"><ele>281.33333333333337</ele><time>2026-04-25T11:04:37Z</time></trkpt><trkpt lat="45.95694379639497" lon="12.205922454276482"><ele>281.0</ele><time>2026-04-25T11:04:39Z</time></trkpt><trkpt lat="45.95702456884537" lon="12.20593706533108"><ele>281.0</ele><time>2026-04-25T11:04:41Z</time></trkpt><trkpt lat="45.95709303628452" lon="12.205901467882203"><ele>281.0</ele><time>2026-04-25T11:04:43Z</time></trkpt><trkpt lat="45.957175259590166" lon="12.205865735699964"><ele>281.0</ele><time>2026-04-25T11:04:45Z</time></trkpt><trkpt lat="45.9572652790188" lon="12.205830014873"><ele>281.0</ele><time>2026-04-25T11:04:47Z</time></trkpt><trkpt lat="45.95735839118387" lon="12.205803153978017"><ele>281.0</ele><time>2026-04-25T11:04:49Z</time></trkpt><trkpt lat="45.957441568119435" lon="12.20574851794161"><ele>281.0</ele><time>2026-04-25T11:04:51Z</time></trkpt><trkpt lat="45.957512520020714" lon="12.205670380194428"><ele>280.6666666666667</ele><time>2026-04-25T11:04:53Z</time></trkpt><trkpt lat="45.957575862283264" lon="12.205581682757709"><ele>280.33333333333337</ele><time>2026-04-25T11:04:55Z</time></trkpt><trkpt lat="45.95762836453633" lon="12.20550223833421"><ele>280.0</ele><time>2026-04-25T11:04:57Z</time></trkpt><trkpt lat="45.95768641257118" lon="12.205424537013188"><ele>279.6666666666667</ele><time>2026-04-25T11:05:01Z</time></trkpt><trkpt lat="45.95773390039967" lon="12.2053640321558"><ele>279.3333333333333</ele><time>2026-04-25T11:05:03Z</time></trkpt><trkpt lat="45.957780895116315" lon="12.205280961666013"><ele>279.0</ele><time>2026-04-25T11:05:06Z</time></trkpt><trkpt lat="45.95782362823173" lon="12.205182244407402"><ele>278.99999999999994</ele><time>2026-04-25T11:05:09Z</time></trkpt><trkpt lat="45.957843536272364" lon="12.205076777643272"><ele>279.0</ele><time>2026-04-25T11:05:12Z</time></trkpt><trkpt lat="45.95786353704072" lon="12.204981698700989"><ele>279.0</ele><time>2026-04-25T11:05:15Z</time></trkpt><trkpt lat="45.95786646047192" lon="12.204869240535347"><ele>279.0</ele><time>2026-04-25T11:05:19Z</time></trkpt><trkpt lat="45.95784646509394" lon="12.204755867676171"><ele>279.0</ele><time>2026-04-25T11:05:22Z</time></trkpt><trkpt lat="45.95782452668479" lon="12.204654901338323"><ele>278.99999999999994</ele><time>2026-04-25T11:05:25Z</time></trkpt><trkpt lat="45.9577983924805" lon="12.204570152487003"><ele>279.0</ele><time>2026-04-25T11:05:27Z</time></trkpt><trkpt lat="45.95776587709531" lon="12.204471638500074"><ele>278.6666666666667</ele><time>2026-04-25T11:05:30Z</time></trkpt><trkpt lat="45.95773900164492" lon="12.204365769521592"><ele>278.3333333333333</ele><time>2026-04-25T11:05:33Z</time></trkpt><trkpt lat="45.95771034228556" lon="12.204270334125084"><ele>278.0</ele><time>2026-04-25T11:05:35Z</time></trkpt><trkpt lat="45.957678484415666" lon="12.204173040106822"><ele>277.66666666666663</ele><time>2026-04-25T11:05:38Z</time></trkpt><trkpt lat="45.957660382700745" lon="12.204055413169238"><ele>277.3333333333333</ele><time>2026-04-25T11:05:41Z</time></trkpt><trkpt lat="45.957644110558284" lon="12.203933090261083"><ele>277.0</ele><time>2026-04-25T11:05:44Z</time></trkpt><trkpt lat="45.957637855325565" lon="12.203801370847101"><ele>278.7142857142857</ele><time>2026-04-25T11:05:47Z</time></trkpt><trkpt lat="45.9576523472872" lon="12.203707181457643"><ele>280.4285714285714</ele><time>2026-04-25T11:05:49Z</time></trkpt><trkpt lat="45.957670814784755" lon="12.203604028317761"><ele>282.1428571428571</ele><time>2026-04-25T11:05:51Z</time></trkpt><trkpt lat="45.957693137386165" lon="12.203515950283478"><ele>283.85714285714283</ele><time>2026-04-25T11:05:53Z</time></trkpt><trkpt lat="45.95771844749926" lon="12.203407706739783"><ele>285.57142857142856</ele><time>2026-04-25T11:05:56Z</time></trkpt><trkpt lat="45.95772289980386" lon="12.203311127723577"><ele>287.2857142857143</ele><time>2026-04-25T11:05:59Z</time></trkpt><trkpt lat="45.95775394179882" lon="12.203202481147535"><ele>289.0</ele><time>2026-04-25T11:06:03Z</time></trkpt><trkpt lat="45.957772378619225" lon="12.203096944069518"><ele>291.42857142857144</ele><time>2026-04-25T11:06:07Z</time></trkpt><trkpt lat="45.95779657834055" lon="12.202997218525914"><ele>293.85714285714283</ele><time>2026-04-25T11:06:11Z</time></trkpt><trkpt lat="45.95783146949312" lon="12.202908247113811"><ele>296.2857142857143</ele><time>2026-04-25T11:06:15Z</time></trkpt><trkpt lat="45.95787514299371" lon="12.202829651915172"><ele>298.7142857142857</ele><time>2026-04-25T11:06:19Z</time></trkpt><trkpt lat="45.957921209909486" lon="12.202748764348254"><ele>301.14285714285717</ele><time>2026-04-25T11:06:23Z</time></trkpt><trkpt lat="45.95796813561727" lon="12.202666339892328"><ele>303.57142857142856</ele><time>2026-04-25T11:06:27Z</time></trkpt><trkpt lat="45.95802395238235" lon="12.202583661007091"><ele>306.0</ele><time>2026-04-25T11:06:32Z</time></trkpt><trkpt lat="45.95807209367721" lon="12.20250572635345"><ele>306.0</ele><time>2026-04-25T11:06:37Z</time></trkpt><trkpt lat="45.95812046136272" lon="12.202439797793247"><ele>306.0</ele><time>2026-04-25T11:06:41Z</time></trkpt><trkpt lat="45.95815838164673" lon="12.202364180928024"><ele>306.0</ele><time>2026-04-25T11:06:45Z</time></trkpt><trkpt lat="45.958202735722175" lon="12.202286674504064"><ele>306.0</ele><time>2026-04-25T11:06:49Z</time></trkpt><trkpt lat="45.958263329380635" lon="12.202205261173715"><ele>306.0</ele><time>2026-04-25T11:06:53Z</time></trkpt><trkpt lat="45.95833025677686" lon="12.202167499371305"><ele>306.0</ele><time>2026-04-25T11:06:57Z</time></trkpt><trkpt lat="45.95841643957216" lon="12.202133724442835"><ele>306.0</ele><time>2026-04-25T11:07:01Z</time></trkpt><trkpt lat="45.95849893136812" lon="12.20211182597494"><ele>307.8333333333333</ele><time>2026-04-25T11:07:05Z</time></trkpt><trkpt lat="45.95856291594266" lon="12.202085858549536"><ele>309.6666666666667</ele><time>2026-04-25T11:07:08Z</time></trkpt><trkpt lat="45.95863289475666" lon="12.202055738580908"><ele>311.5</ele><time>2026-04-25T11:07:11Z</time></trkpt><trkpt lat="45.95870406152793" lon="12.202052811135836"><ele>313.33333333333337</ele><time>2026-04-25T11:07:14Z</time></trkpt><trkpt lat="45.958783811896296" lon="12.202029169588503"><ele>315.1666666666667</ele><time>2026-04-25T11:07:17Z</time></trkpt><trkpt lat="45.95886659415779" lon="12.202003308404429"><ele>317.0</ele><time>2026-04-25T11:07:20Z</time></trkpt><trkpt lat="45.958940306637565" lon="12.202013333267434"><ele>317.0</ele><time>2026-04-25T11:07:23Z</time></trkpt><trkpt lat="45.95900875620695" lon="12.20202391803801"><ele>317.0</ele><time>2026-04-25T11:07:25Z</time></trkpt><trkpt lat="45.95907124259206" lon="12.202041272045872"><ele>317.0</ele><time>2026-04-25T11:07:27Z</time></trkpt><trkpt lat="45.959153907820976" lon="12.20203674985363"><ele>317.0</ele><time>2026-04-25T11:07:30Z</time></trkpt><trkpt lat="45.9592372164339" lon="12.2020452581896"><ele>317.0</ele><time>2026-04-25T11:07:33Z</time></trkpt><trkpt lat="45.95932136162993" lon="12.202041858702053"><ele>317.0</ele><time>2026-04-25T11:07:36Z</time></trkpt><trkpt lat="45.959401872251476" lon="12.202041814993935"><ele>318.5</ele><time>2026-04-25T11:07:40Z</time></trkpt><trkpt lat="45.95947500301446" lon="12.2020164215108"><ele>320.0</ele><time>2026-04-25T11:07:44Z</time></trkpt><trkpt lat="45.95954713313572" lon="12.201997993259285"><ele>321.5</ele><time>2026-04-25T11:07:48Z</time></trkpt><trkpt lat="45.95961592942797" lon="12.20195484419724"><ele>323.0</ele><time>2026-04-25T11:07:53Z</time></trkpt><trkpt lat="45.959681203916766" lon="12.201908465718615"><ele>324.5</ele><time>2026-04-25T11:07:58Z</time></trkpt><trkpt lat="45.959754659995134" lon="12.201877877756985"><ele>326.0</ele><time>2026-04-25T11:08:02Z</time></trkpt><trkpt lat="45.959830501779074" lon="12.201833208291678"><ele>326.0</ele><time>2026-04-25T11:08:06Z</time></trkpt><trkpt lat="45.95990865061233" lon="12.201806772273654"><ele>326.0</ele><time>2026-04-25T11:08:09Z</time></trkpt><trkpt lat="45.95997793199882" lon="12.201784390884429"><ele>326.0</ele><time>2026-04-25T11:08:12Z</time></trkpt><trkpt lat="45.9600530284886" lon="12.201774584449076"><ele>326.0</ele><time>2026-04-25T11:08:15Z</time></trkpt><trkpt lat="45.960160742686725" lon="12.201750222181463"><ele>326.0</ele><time>2026-04-25T11:08:17Z</time></trkpt><trkpt lat="45.96025975831541" lon="12.201731623366332"><ele>326.0</ele><time>2026-04-25T11:08:19Z</time></trkpt><trkpt lat="45.960367115915176" lon="12.20170991227998"><ele>328.0</ele><time>2026-04-25T11:08:21Z</time></trkpt><trkpt lat="45.96047376359586" lon="12.201703932485026"><ele>330.0</ele><time>2026-04-25T11:08:23Z</time></trkpt><trkpt lat="45.96056657361139" lon="12.201678944850034"><ele>332.0</ele><time>2026-04-25T11:08:25Z</time></trkpt><trkpt lat="45.96064686767152" lon="12.201663878260439"><ele>334.0</ele><time>2026-04-25T11:08:27Z</time></trkpt><trkpt lat="45.96071779353591" lon="12.201684261301125"><ele>336.0</ele><time>2026-04-25T11:08:29Z</time></trkpt><trkpt lat="45.960798727317645" lon="12.201684409044237"><ele>338.0</ele><time>2026-04-25T11:08:31Z</time></trkpt><trkpt lat="45.96088965756399" lon="12.201667624327486"><ele>341.83333333333337</ele><time>2026-04-25T11:08:34Z</time></trkpt><trkpt lat="45.96096616770933" lon="12.201640149344941"><ele>345.6666666666667</ele><time>2026-04-25T11:08:37Z</time></trkpt><trkpt lat="45.96103668692174" lon="12.201606464863243"><ele>349.5</ele><time>2026-04-25T11:08:40Z</time></trkpt><trkpt lat="45.961106635789804" lon="12.201618957253077"><ele>353.3333333333333</ele><time>2026-04-25T11:08:43Z</time></trkpt><trkpt lat="45.961175224982476" lon="12.201659976234115"><ele>357.16666666666663</ele><time>2026-04-25T11:08:46Z</time></trkpt><trkpt lat="45.96123850309337" lon="12.201732387523437"><ele>361.0</ele><time>2026-04-25T11:08:50Z</time></trkpt><trkpt lat="45.96126981514708" lon="12.201825975389546"><ele>361.0</ele><time>2026-04-25T11:08:54Z</time></trkpt><trkpt lat="45.96130016687665" lon="12.201918727769128"><ele>361.0</ele><time>2026-04-25T11:08:58Z</time></trkpt><trkpt lat="45.961352840128114" lon="12.202013630571761"><ele>361.0</ele><time>2026-04-25T11:09:02Z</time></trkpt><trkpt lat="45.96140058955965" lon="12.202095950133627"><ele>361.0</ele><time>2026-04-25T11:09:06Z</time></trkpt><trkpt lat="45.9614457241332" lon="12.202183360524211"><ele>361.0</ele><time>2026-04-25T11:09:10Z</time></trkpt><trkpt lat="45.96149242296832" lon="12.202263408812458"><ele>361.0</ele><time>2026-04-25T11:09:14Z</time></trkpt><trkpt lat="45.961520183116974" lon="12.20236195263374"><ele>359.42857142857144</ele><time>2026-04-25T11:09:18Z</time></trkpt><trkpt lat="45.961529125312744" lon="12.202460960321647"><ele>357.85714285714283</ele><time>2026-04-25T11:09:22Z</time></trkpt><trkpt lat="45.961529474133336" lon="12.202569556972946"><ele>356.2857142857143</ele><time>2026-04-25T11:09:27Z</time></trkpt><trkpt lat="45.96152019122312" lon="12.202672267099922"><ele>354.7142857142857</ele><time>2026-04-25T11:09:31Z</time></trkpt><trkpt lat="45.961522739934374" lon="12.202799727013089"><ele>353.1428571428571</ele><time>2026-04-25T11:09:35Z</time></trkpt><trkpt lat="45.96153495560191" lon="12.202893187764712"><ele>351.57142857142856</ele><time>2026-04-25T11:09:38Z</time></trkpt><trkpt lat="45.96152864772772" lon="12.202991587074422"><ele>350.0</ele><time>2026-04-25T11:09:41Z</time></trkpt><trkpt lat="45.96152302063502" lon="12.203124059987552"><ele>350.7142857142857</ele><time>2026-04-25T11:09:46Z</time></trkpt><trkpt lat="45.96151830177614" lon="12.203231552453351"><ele>351.42857142857144</ele><time>2026-04-25T11:09:50Z</time></trkpt><trkpt lat="45.96152440523745" lon="12.203339000281225"><ele>352.1428571428571</ele><time>2026-04-25T11:09:54Z</time></trkpt><trkpt lat="45.96154191648949" lon="12.203432160679778"><ele>352.8571428571429</ele><time>2026-04-25T11:09:58Z</time></trkpt><trkpt lat="45.961564705850506" lon="12.203527199607915"><ele>353.57142857142856</ele><time>2026-04-25T11:10:02Z</time></trkpt><trkpt lat="45.961584301941784" lon="12.203626571165916"><ele>354.2857142857143</ele><time>2026-04-25T11:10:06Z</time></trkpt><trkpt lat="45.96163292483194" lon="12.203692338101026"><ele>355.0</ele><time>2026-04-25T11:10:10Z</time></trkpt><trkpt lat="45.96169194629776" lon="12.203724160732145"><ele>357.8333333333333</ele><time>2026-04-25T11:10:13Z</time></trkpt><trkpt lat="45.961757344180164" lon="12.203750102758894"><ele>360.66666666666663</ele><time>2026-04-25T11:10:16Z</time></trkpt><trkpt lat="45.96183442339276" lon="12.203771043752015"><ele>363.5</ele><time>2026-04-25T11:10:19Z</time></trkpt><trkpt lat="45.961904059477995" lon="12.20380806224676"><ele>366.3333333333333</ele><time>2026-04-25T11:10:22Z</time></trkpt><trkpt lat="45.96197821237708" lon="12.203820571135298"><ele>369.1666666666667</ele><time>2026-04-25T11:10:25Z</time></trkpt><trkpt lat="45.96204263213926" lon="12.203853853216316"><ele>372.0</ele><time>2026-04-25T11:10:28Z</time></trkpt><trkpt lat="45.9621310631127" lon="12.203869195392599"><ele>372.00000000000006</ele><time>2026-04-25T11:10:32Z</time></trkpt><trkpt lat="45.96220839968993" lon="12.203869980921517"><ele>372.0</ele><time>2026-04-25T11:10:36Z</time></trkpt><trkpt lat="45.96227423584838" lon="12.203825141762232"><ele>372.0</ele><time>2026-04-25T11:10:40Z</time></trkpt><trkpt lat="45.96232606704033" lon="12.20376690606751"><ele>372.0</ele><time>2026-04-25T11:10:44Z</time></trkpt><trkpt lat="45.96236731068405" lon="12.203692853735825"><ele>372.0</ele><time>2026-04-25T11:10:48Z</time></trkpt><trkpt lat="45.96239616727614" lon="12.203589932572772"><ele>372.00000000000006</ele><time>2026-04-25T11:10:53Z</time></trkpt><trkpt lat="45.96241658834811" lon="12.203481170136868"><ele>372.0</ele><time>2026-04-25T11:10:58Z</time></trkpt><trkpt lat="45.962412785207945" lon="12.203386069558489"><ele>372.0</ele><time>2026-04-25T11:11:03Z</time></trkpt><trkpt lat="45.96239701033333" lon="12.203294192223339"><ele>372.0</ele><time>2026-04-25T11:11:07Z</time></trkpt><trkpt lat="45.96237743003955" lon="12.203189019545503"><ele>372.0</ele><time>2026-04-25T11:11:11Z</time></trkpt><trkpt lat="45.9623517176961" lon="12.203105703857755"><ele>372.0</ele><time>2026-04-25T11:11:14Z</time></trkpt><trkpt lat="45.96232116912257" lon="12.202992813957835"><ele>372.0</ele><time>2026-04-25T11:11:18Z</time></trkpt><trkpt lat="45.962289814547184" lon="12.202897556541089"><ele>372.0</ele><time>2026-04-25T11:11:21Z</time></trkpt><trkpt lat="45.962254435851335" lon="12.20276892829481"><ele>373.0</ele><time>2026-04-25T11:11:24Z</time></trkpt><trkpt lat="45.962235102478964" lon="12.202659288655298"><ele>374.0</ele><time>2026-04-25T11:11:26Z</time></trkpt><trkpt lat="45.96220956588984" lon="12.202528888089114"><ele>375.0</ele><time>2026-04-25T11:11:28Z</time></trkpt><trkpt lat="45.962185535921286" lon="12.202444307215917"><ele>376.0</ele><time>2026-04-25T11:11:29Z</time></trkpt><trkpt lat="45.962151953814335" lon="12.202300029160517"><ele>377.0</ele><time>2026-04-25T11:11:31Z</time></trkpt><trkpt lat="45.962117783062624" lon="12.202156692649412"><ele>378.0</ele><time>2026-04-25T11:11:33Z</time></trkpt><trkpt lat="45.962082915574356" lon="12.202015917288408"><ele>379.6666666666667</ele><time>2026-04-25T11:11:35Z</time></trkpt><trkpt lat="45.96205929166686" lon="12.20188067270412"><ele>381.33333333333337</ele><time>2026-04-25T11:11:37Z</time></trkpt><trkpt lat="45.96202706429602" lon="12.201774965811827"><ele>383.0</ele><time>2026-04-25T11:11:39Z</time></trkpt><trkpt lat="45.962012352472726" lon="12.201675643013123"><ele>384.6666666666667</ele><time>2026-04-25T11:11:41Z</time></trkpt><trkpt lat="45.961996487379885" lon="12.201583847204809"><ele>386.33333333333337</ele><time>2026-04-25T11:11:43Z</time></trkpt><trkpt lat="45.961975044363484" lon="12.201439096334612"><ele>388.0</ele><time>2026-04-25T11:11:45Z</time></trkpt><trkpt lat="45.96195479556734" lon="12.20133314778662"><ele>390.6666666666667</ele><time>2026-04-25T11:11:47Z</time></trkpt><trkpt lat="45.9619396333927" lon="12.201204061659881"><ele>393.33333333333337</ele><time>2026-04-25T11:11:50Z</time></trkpt><trkpt lat="45.961914821397286" lon="12.201103460510877"><ele>396.0</ele><time>2026-04-25T11:11:54Z</time></trkpt><trkpt lat="45.96189071444177" lon="12.200994268842381"><ele>398.66666666666663</ele><time>2026-04-25T11:11:58Z</time></trkpt><trkpt lat="45.96185543442731" lon="12.200917592942039"><ele>401.3333333333333</ele><time>2026-04-25T11:12:01Z</time></trkpt><trkpt lat="45.961802338609026" lon="12.200839566385278"><ele>404.0</ele><time>2026-04-25T11:12:04Z</time></trkpt><trkpt lat="45.96173202678192" lon="12.200750415459305"><ele>402.16666666666663</ele><time>2026-04-25T11:12:07Z</time></trkpt><trkpt lat="45.96166908743967" lon="12.200683504997892"><ele>400.3333333333333</ele><time>2026-04-25T11:12:09Z</time></trkpt><trkpt lat="45.961603926022086" lon="12.200638754003522"><ele>398.5</ele><time>2026-04-25T11:12:10Z</time></trkpt><trkpt lat="45.961549433850074" lon="12.200582326375637"><ele>396.66666666666663</ele><time>2026-04-25T11:12:11Z</time></trkpt><trkpt lat="45.961453253648536" lon="12.200465087835122"><ele>394.8333333333333</ele><time>2026-04-25T11:12:13Z</time></trkpt><trkpt lat="45.96140818819241" lon="12.200393436150646"><ele>393.0</ele><time>2026-04-25T11:12:14Z</time></trkpt><trkpt lat="45.96136350787552" lon="12.200326528583854"><ele>393.0</ele><time>2026-04-25T11:12:15Z</time></trkpt><trkpt lat="45.961314309520105" lon="12.200264073257264"><ele>393.0</ele><time>2026-04-25T11:12:16Z</time></trkpt><trkpt lat="45.96126909431828" lon="12.200183556792853"><ele>393.0</ele><time>2026-04-25T11:12:17Z</time></trkpt><trkpt lat="45.96122453536986" lon="12.200099422731249"><ele>393.0</ele><time>2026-04-25T11:12:18Z</time></trkpt><trkpt lat="45.96118247761425" lon="12.20001395951971"><ele>393.0</ele><time>2026-04-25T11:12:19Z</time></trkpt><trkpt lat="45.96113320617237" lon="12.199905644203582"><ele>393.0</ele><time>2026-04-25T11:12:20Z</time></trkpt><trkpt lat="45.96109729740164" lon="12.199808928444911"><ele>390.6666666666667</ele><time>2026-04-25T11:12:21Z</time></trkpt><trkpt lat="45.96105500593699" lon="12.199714817890714"><ele>388.3333333333333</ele><time>2026-04-25T11:12:22Z</time></trkpt><trkpt lat="45.96101766315235" lon="12.199631237579903"><ele>386.0</ele><time>2026-04-25T11:12:23Z</time></trkpt><trkpt lat="45.960978355948875" lon="12.199552803511583"><ele>383.66666666666663</ele><time>2026-04-25T11:12:24Z</time></trkpt><trkpt lat="45.96093945426696" lon="12.19947689165335"><ele>381.3333333333333</ele><time>2026-04-25T11:12:25Z</time></trkpt><trkpt lat="45.960864144257386" lon="12.19934467410846"><ele>379.0</ele><time>2026-04-25T11:12:27Z</time></trkpt><trkpt lat="45.960801900078984" lon="12.199219558516525"><ele>379.0</ele><time>2026-04-25T11:12:29Z</time></trkpt><trkpt lat="45.96074088072458" lon="12.199075086929659"><ele>379.0</ele><time>2026-04-25T11:12:31Z</time></trkpt><trkpt lat="45.9607010460529" lon="12.19892046399341"><ele>379.0</ele><time>2026-04-25T11:12:33Z</time></trkpt><trkpt lat="45.96067498321245" lon="12.198762956697777"><ele>379.0</ele><time>2026-04-25T11:12:35Z</time></trkpt><trkpt lat="45.96067857540249" lon="12.198604009531463"><ele>379.79999999999995</ele><time>2026-04-25T11:12:37Z</time></trkpt><trkpt lat="45.9606924857306" lon="12.198443222400043"><ele>380.59999999999997</ele><time>2026-04-25T11:12:39Z</time></trkpt><trkpt lat="45.96070556296608" lon="12.198276683189794"><ele>381.4</ele><time>2026-04-25T11:12:41Z</time></trkpt><trkpt lat="45.96071840668941" lon="12.198120876464197"><ele>382.2</ele><time>2026-04-25T11:12:43Z</time></trkpt><trkpt lat="45.96072709885378" lon="12.198029688286228"><ele>383.0</ele><time>2026-04-25T11:12:44Z</time></trkpt><trkpt lat="45.960741267557005" lon="12.197862472492519"><ele>383.42857142857144</ele><time>2026-04-25T11:12:46Z</time></trkpt><trkpt lat="45.960745760347635" lon="12.197764340346684"><ele>383.85714285714283</ele><time>2026-04-25T11:12:47Z</time></trkpt><trkpt lat="45.96073679258135" lon="12.197666625357273"><ele>384.28571428571433</ele><time>2026-04-25T11:12:48Z</time></trkpt><trkpt lat="45.960720007779614" lon="12.197573172957025"><ele>384.7142857142857</ele><time>2026-04-25T11:12:49Z</time></trkpt><trkpt lat="45.960696984362755" lon="12.197477361579566"><ele>385.14285714285717</ele><time>2026-04-25T11:12:50Z</time></trkpt><trkpt lat="45.9606692620868" lon="12.19738642284416"><ele>385.5714285714286</ele><time>2026-04-25T11:12:51Z</time></trkpt><trkpt lat="45.960635941102815" lon="12.19729020834131"><ele>386.0</ele><time>2026-04-25T11:12:52Z</time></trkpt><trkpt lat="45.960611226966996" lon="12.197190593669145"><ele>386.28571428571433</ele><time>2026-04-25T11:12:53Z</time></trkpt><trkpt lat="45.96059208321206" lon="12.19709352853155"><ele>386.57142857142856</ele><time>2026-04-25T11:12:54Z</time></trkpt><trkpt lat="45.960573771709434" lon="12.196993191941212"><ele>386.8571428571429</ele><time>2026-04-25T11:12:55Z</time></trkpt><trkpt lat="45.96056544782352" lon="12.196885811910155"><ele>387.14285714285717</ele><time>2026-04-25T11:12:56Z</time></trkpt><trkpt lat="45.96056162802844" lon="12.196782309847096"><ele>387.42857142857144</ele><time>2026-04-25T11:12:57Z</time></trkpt><trkpt lat="45.960559433318515" lon="12.196671585443223"><ele>387.7142857142857</ele><time>2026-04-25T11:12:58Z</time></trkpt><trkpt lat="45.96055683934428" lon="12.196558355850852"><ele>388.0</ele><time>2026-04-25T11:12:59Z</time></trkpt><trkpt lat="45.96054963067374" lon="12.196443577300297"><ele>389.33333333333337</ele><time>2026-04-25T11:13:00Z</time></trkpt><trkpt lat="45.96053677871141" lon="12.196326820565522"><ele>390.6666666666667</ele><time>2026-04-25T11:13:01Z</time></trkpt><trkpt lat="45.960522665466286" lon="12.196212133797127"><ele>392.0</ele><time>2026-04-25T11:13:02Z</time></trkpt><trkpt lat="45.960515247224066" lon="12.196095386432855"><ele>393.33333333333337</ele><time>2026-04-25T11:13:03Z</time></trkpt><trkpt lat="45.960499434540644" lon="12.195978178203202"><ele>394.6666666666667</ele><time>2026-04-25T11:13:04Z</time></trkpt><trkpt lat="45.96047047444106" lon="12.195863136450091"><ele>396.0</ele><time>2026-04-25T11:13:05Z</time></trkpt><trkpt lat="45.960436808256546" lon="12.19575126530506"><ele>398.5</ele><time>2026-04-25T11:13:06Z</time></trkpt><trkpt lat="45.96039279193881" lon="12.195641487190281"><ele>401.0</ele><time>2026-04-25T11:13:07Z</time></trkpt><trkpt lat="45.960343817595245" lon="12.195536718004345"><ele>403.5</ele><time>2026-04-25T11:13:08Z</time></trkpt><trkpt lat="45.9602899468852" lon="12.195434608916635"><ele>406.0</ele><time>2026-04-25T11:13:09Z</time></trkpt><trkpt lat="45.960232638306195" lon="12.195327072653154"><ele>408.5</ele><time>2026-04-25T11:13:10Z</time></trkpt><trkpt lat="45.96017659756517" lon="12.195236723890977"><ele>411.0</ele><time>2026-04-25T11:13:11Z</time></trkpt><trkpt lat="45.960119197572936" lon="12.195138542484719"><ele>411.0</ele><time>2026-04-25T11:13:12Z</time></trkpt><trkpt lat="45.96007623541809" lon="12.195023439333593"><ele>411.0</ele><time>2026-04-25T11:13:13Z</time></trkpt><trkpt lat="45.96004695631264" lon="12.19487581610161"><ele>411.0</ele><time>2026-04-25T11:13:14Z</time></trkpt><trkpt lat="45.96002924297957" lon="12.194722718885945"><ele>411.0</ele><time>2026-04-25T11:13:15Z</time></trkpt><trkpt lat="45.960008658873676" lon="12.194573849767718"><ele>411.0</ele><time>2026-04-25T11:13:16Z</time></trkpt><trkpt lat="45.95998954806703" lon="12.19441809688281"><ele>402.75</ele><time>2026-04-25T11:13:17Z</time></trkpt><trkpt lat="45.95997137378373" lon="12.194252662771014"><ele>394.5</ele><time>2026-04-25T11:13:18Z</time></trkpt><trkpt lat="45.95995159014512" lon="12.194078131942183"><ele>386.25</ele><time>2026-04-25T11:13:19Z</time></trkpt><trkpt lat="45.95992406497192" lon="12.193912205436888"><ele>378.0</ele><time>2026-04-25T11:13:20Z</time></trkpt><trkpt lat="45.959880008523" lon="12.193768721965775"><ele>378.0</ele><time>2026-04-25T11:13:21Z</time></trkpt><trkpt lat="45.95982405078946" lon="12.193611276564388"><ele>378.0</ele><time>2026-04-25T11:13:22Z</time></trkpt><trkpt lat="45.95975426221811" lon="12.19346556312611"><ele>378.0</ele><time>2026-04-25T11:13:23Z</time></trkpt><trkpt lat="45.95967822815617" lon="12.193332472663398"><ele>378.0</ele><time>2026-04-25T11:13:24Z</time></trkpt><trkpt lat="45.95957252956888" lon="12.193238028466876"><ele>379.75</ele><time>2026-04-25T11:13:25Z</time></trkpt><trkpt lat="45.95946962839901" lon="12.19315720186911"><ele>381.5</ele><time>2026-04-25T11:13:26Z</time></trkpt><trkpt lat="45.95936921810509" lon="12.19306258998879"><ele>383.25</ele><time>2026-04-25T11:13:27Z</time></trkpt><trkpt lat="45.959271482325704" lon="12.192968876342865"><ele>385.0</ele><time>2026-04-25T11:13:28Z</time></trkpt><trkpt lat="45.959173737948404" lon="12.192864625132499"><ele>379.6</ele><time>2026-04-25T11:13:29Z</time></trkpt><trkpt lat="45.95907876886464" lon="12.192778411023326"><ele>374.2</ele><time>2026-04-25T11:13:30Z</time></trkpt><trkpt lat="45.95899083457545" lon="12.192704280904403"><ele>368.79999999999995</ele><time>2026-04-25T11:13:31Z</time></trkpt><trkpt lat="45.95891317303911" lon="12.192641370603994"><ele>363.4</ele><time>2026-04-25T11:13:32Z</time></trkpt><trkpt lat="45.95884295908779" lon="12.19258194001347"><ele>358.0</ele><time>2026-04-25T11:13:33Z</time></trkpt><trkpt lat="45.95878438500329" lon="12.192515196877533"><ele>358.0</ele><time>2026-04-25T11:13:34Z</time></trkpt><trkpt lat="45.95873954486018" lon="12.192439323011465"><ele>358.0</ele><time>2026-04-25T11:13:35Z</time></trkpt><trkpt lat="45.958711457733756" lon="12.192311893259033"><ele>358.0</ele><time>2026-04-25T11:13:36Z</time></trkpt><trkpt lat="45.958692987530334" lon="12.192184281920575"><ele>358.0</ele><time>2026-04-25T11:13:37Z</time></trkpt><trkpt lat="45.95867734124509" lon="12.19204234896242"><ele>358.0</ele><time>2026-04-25T11:13:38Z</time></trkpt><trkpt lat="45.95867271332249" lon="12.191883186973223"><ele>357.4</ele><time>2026-04-25T11:13:39Z</time></trkpt><trkpt lat="45.95868263032423" lon="12.191724053944807"><ele>356.79999999999995</ele><time>2026-04-25T11:13:40Z</time></trkpt><trkpt lat="45.95869037017329" lon="12.191569351429276"><ele>356.2</ele><time>2026-04-25T11:13:41Z</time></trkpt><trkpt lat="45.95871394506097" lon="12.191412045012923"><ele>355.6</ele><time>2026-04-25T11:13:42Z</time></trkpt><trkpt lat="45.958755328595416" lon="12.191252119639621"><ele>355.0</ele><time>2026-04-25T11:13:43Z</time></trkpt><trkpt lat="45.95880184104947" lon="12.191108066414852"><ele>352.4</ele><time>2026-04-25T11:13:44Z</time></trkpt><trkpt lat="45.95886858667277" lon="12.190973033277487"><ele>349.8</ele><time>2026-04-25T11:13:45Z</time></trkpt><trkpt lat="45.958928971060054" lon="12.190835742122902"><ele>347.20000000000005</ele><time>2026-04-25T11:13:46Z</time></trkpt><trkpt lat="45.958993403024415" lon="12.190712786776947"><ele>344.6</ele><time>2026-04-25T11:13:47Z</time></trkpt><trkpt lat="45.95907332076004" lon="12.190596884225236"><ele>342.0</ele><time>2026-04-25T11:13:48Z</time></trkpt><trkpt lat="45.9591609052145" lon="12.190484495902462"><ele>344.40000000000003</ele><time>2026-04-25T11:13:49Z</time></trkpt><trkpt lat="45.95923934632552" lon="12.19035162787078"><ele>346.8</ele><time>2026-04-25T11:13:50Z</time></trkpt><trkpt lat="45.959306693085516" lon="12.19021487239075"><ele>349.2</ele><time>2026-04-25T11:13:51Z</time></trkpt><trkpt lat="45.9593673585399" lon="12.190109342365243"><ele>351.6</ele><time>2026-04-25T11:13:52Z</time></trkpt><trkpt lat="45.95943014812634" lon="12.190008967371604"><ele>354.0</ele><time>2026-04-25T11:13:53Z</time></trkpt><trkpt lat="45.95948056003599" lon="12.18987312526895"><ele>348.2</ele><time>2026-04-25T11:13:54Z</time></trkpt><trkpt lat="45.95949655475276" lon="12.189710064109972"><ele>342.4</ele><time>2026-04-25T11:13:55Z</time></trkpt><trkpt lat="45.95951293976766" lon="12.189563997248378"><ele>336.6</ele><time>2026-04-25T11:13:56Z</time></trkpt><trkpt lat="45.95953460769254" lon="12.189437872456832"><ele>330.8</ele><time>2026-04-25T11:13:57Z</time></trkpt><trkpt lat="45.959564478226454" lon="12.189329425927742"><ele>325.0</ele><time>2026-04-25T11:13:58Z</time></trkpt><trkpt lat="45.95962635694924" lon="12.189187644929257"><ele>325.0</ele><time>2026-04-25T11:14:00Z</time></trkpt><trkpt lat="45.95970546660908" lon="12.189147679725657"><ele>325.0</ele><time>2026-04-25T11:14:01Z</time></trkpt><trkpt lat="45.959804354419745" lon="12.189131115686548"><ele>325.0</ele><time>2026-04-25T11:14:02Z</time></trkpt><trkpt lat="45.95990858349339" lon="12.189112624467898"><ele>325.0</ele><time>2026-04-25T11:14:03Z</time></trkpt><trkpt lat="45.96001055675001" lon="12.189080582422712"><ele>325.0</ele><time>2026-04-25T11:14:04Z</time></trkpt><trkpt lat="45.960100250041485" lon="12.188997062957908"><ele>324.0</ele><time>2026-04-25T11:14:05Z</time></trkpt><trkpt lat="45.96018649310689" lon="12.188876710641347"><ele>323.0</ele><time>2026-04-25T11:14:06Z</time></trkpt><trkpt lat="45.96026837226106" lon="12.188758491089235"><ele>322.0</ele><time>2026-04-25T11:14:07Z</time></trkpt><trkpt lat="45.9603492711826" lon="12.18863313252409"><ele>321.0</ele><time>2026-04-25T11:14:08Z</time></trkpt><trkpt lat="45.96044121895781" lon="12.188518005042154"><ele>321.0</ele><time>2026-04-25T11:14:09Z</time></trkpt><trkpt lat="45.960528597006665" lon="12.188398358564884"><ele>321.0</ele><time>2026-04-25T11:14:10Z</time></trkpt><trkpt lat="45.96059629480633" lon="12.188272534555818"><ele>321.0</ele><time>2026-04-25T11:14:11Z</time></trkpt><trkpt lat="45.960641975591216" lon="12.188129468430082"><ele>321.0</ele><time>2026-04-25T11:14:12Z</time></trkpt><trkpt lat="45.96065622273722" lon="12.187969620043102"><ele>320.8</ele><time>2026-04-25T11:14:13Z</time></trkpt><trkpt lat="45.96063342945851" lon="12.18780998768342"><ele>320.6</ele><time>2026-04-25T11:14:14Z</time></trkpt><trkpt lat="45.960583674148815" lon="12.18767558185497"><ele>320.4</ele><time>2026-04-25T11:14:15Z</time></trkpt><trkpt lat="45.96051457382115" lon="12.187574468114478"><ele>320.2</ele><time>2026-04-25T11:14:16Z</time></trkpt><trkpt lat="45.96043348564917" lon="12.187508396982158"><ele>320.0</ele><time>2026-04-25T11:14:17Z</time></trkpt><trkpt lat="45.960357773675064" lon="12.187465373937558"><ele>320.0</ele><time>2026-04-25T11:14:18Z</time></trkpt><trkpt lat="45.96028215743523" lon="12.18746514725332"><ele>320.0</ele><time>2026-04-25T11:14:19Z</time></trkpt><trkpt lat="45.9602133510171" lon="12.18748169632076"><ele>320.0</ele><time>2026-04-25T11:14:20Z</time></trkpt><trkpt lat="45.96015062097762" lon="12.18749929700617"><ele>320.0</ele><time>2026-04-25T11:14:21Z</time></trkpt><trkpt lat="45.9600955280558" lon="12.187627263076264"><ele>320.0</ele><time>2026-04-25T11:14:23Z</time></trkpt><trkpt lat="45.96006850514365" lon="12.187741995412367"><ele>320.0</ele><time>2026-04-25T11:14:25Z</time></trkpt><trkpt lat="45.96003189976787" lon="12.18783803749362"><ele>321.1666666666667</ele><time>2026-04-25T11:14:28Z</time></trkpt><trkpt lat="45.95994257347196" lon="12.187906473204643"><ele>322.33333333333337</ele><time>2026-04-25T11:14:29Z</time></trkpt><trkpt lat="45.959869617607964" lon="12.187958067640167"><ele>323.5</ele><time>2026-04-25T11:14:31Z</time></trkpt><trkpt lat="45.95979939040232" lon="12.188005692984676"><ele>324.6666666666667</ele><time>2026-04-25T11:14:33Z</time></trkpt><trkpt lat="45.95973806107909" lon="12.188085245112685"><ele>325.8333333333333</ele><time>2026-04-25T11:14:35Z</time></trkpt><trkpt lat="45.95966426380362" lon="12.188131243934073"><ele>327.0</ele><time>2026-04-25T11:14:37Z</time></trkpt><trkpt lat="45.959595907599265" lon="12.188157934964096"><ele>326.42857142857144</ele><time>2026-04-25T11:14:39Z</time></trkpt><trkpt lat="45.95956491621644" lon="12.188238873587508"><ele>325.8571428571429</ele><time>2026-04-25T11:14:41Z</time></trkpt><trkpt lat="45.959522659350085" lon="12.188312470926256"><ele>325.28571428571433</ele><time>2026-04-25T11:14:43Z</time></trkpt><trkpt lat="45.959476581792" lon="12.188382481892265"><ele>324.7142857142857</ele><time>2026-04-25T11:14:45Z</time></trkpt><trkpt lat="45.95940135741995" lon="12.188450353471318"><ele>324.14285714285717</ele><time>2026-04-25T11:14:48Z</time></trkpt><trkpt lat="45.95931396332171" lon="12.188489465455385"><ele>323.5714285714286</ele><time>2026-04-25T11:14:51Z</time></trkpt><trkpt lat="45.9592480241462" lon="12.188484518878669"><ele>323.0</ele><time>2026-04-25T11:14:54Z</time></trkpt><trkpt lat="45.95918725563852" lon="12.188425372731105"><ele>323.00000000000006</ele><time>2026-04-25T11:14:57Z</time></trkpt><trkpt lat="45.9591294578169" lon="12.188386680909815"><ele>323.0</ele><time>2026-04-25T11:15:00Z</time></trkpt><trkpt lat="45.95907050135282" lon="12.188345046644388"><ele>323.0</ele><time>2026-04-25T11:15:03Z</time></trkpt><trkpt lat="45.95899871502481" lon="12.188275699185002"><ele>323.0</ele><time>2026-04-25T11:15:07Z</time></trkpt><trkpt lat="45.9589435339129" lon="12.188229783477267"><ele>323.0</ele><time>2026-04-25T11:15:10Z</time></trkpt><trkpt lat="45.95887015473001" lon="12.188159170861466"><ele>323.00000000000006</ele><time>2026-04-25T11:15:14Z</time></trkpt><trkpt lat="45.958806935225994" lon="12.188106135412507"><ele>323.0</ele><time>2026-04-25T11:15:17Z</time></trkpt><trkpt lat="45.958740015890946" lon="12.188077722537114"><ele>325.00000000000006</ele><time>2026-04-25T11:15:20Z</time></trkpt><trkpt lat="45.958671048960234" lon="12.188019067068229"><ele>327.0</ele><time>2026-04-25T11:15:24Z</time></trkpt><trkpt lat="45.958625327850314" lon="12.18795166365756"><ele>329.0</ele><time>2026-04-25T11:15:27Z</time></trkpt><trkpt lat="45.95856465047185" lon="12.187895603808757"><ele>331.0</ele><time>2026-04-25T11:15:30Z</time></trkpt><trkpt lat="45.958509497309635" lon="12.187837546593544"><ele>333.0</ele><time>2026-04-25T11:15:33Z</time></trkpt><trkpt lat="45.95844735510642" lon="12.187802984132626"><ele>335.00000000000006</ele><time>2026-04-25T11:15:36Z</time></trkpt><trkpt lat="45.95839120729233" lon="12.187752980795223"><ele>337.0</ele><time>2026-04-25T11:15:39Z</time></trkpt><trkpt lat="45.958337391304255" lon="12.187694520502099"><ele>337.0</ele><time>2026-04-25T11:15:42Z</time></trkpt><trkpt lat="45.95828518467504" lon="12.18759463055567"><ele>337.0</ele><time>2026-04-25T11:15:46Z</time></trkpt><trkpt lat="45.95822191174543" lon="12.18754563876973"><ele>337.0</ele><time>2026-04-25T11:15:49Z</time></trkpt><trkpt lat="45.958138492614786" lon="12.187345249349459"><ele>337.0</ele><time>2026-04-25T11:15:56Z</time></trkpt><trkpt lat="45.95811349485117" lon="12.187251485967716"><ele>337.0</ele><time>2026-04-25T11:16:00Z</time></trkpt><trkpt lat="45.958071385777664" lon="12.187152836183927"><ele>339.8571428571429</ele><time>2026-04-25T11:16:04Z</time></trkpt><trkpt lat="45.95802699583202" lon="12.187059581211285"><ele>342.7142857142857</ele><time>2026-04-25T11:16:07Z</time></trkpt><trkpt lat="45.95797139246521" lon="12.187017076636215"><ele>345.57142857142856</ele><time>2026-04-25T11:16:09Z</time></trkpt><trkpt lat="45.957912703819616" lon="12.186965703634375"><ele>348.42857142857144</ele><time>2026-04-25T11:16:11Z</time></trkpt><trkpt lat="45.957845983885306" lon="12.186916327424363"><ele>351.2857142857143</ele><time>2026-04-25T11:16:14Z</time></trkpt><trkpt lat="45.957771363331105" lon="12.18689996989619"><ele>354.14285714285717</ele><time>2026-04-25T11:16:18Z</time></trkpt><trkpt lat="45.957708904379295" lon="12.186882278992194"><ele>357.0</ele><time>2026-04-25T11:16:21Z</time></trkpt><trkpt lat="45.95764237484905" lon="12.186906668538949"><ele>357.0</ele><time>2026-04-25T11:16:24Z</time></trkpt><trkpt lat="45.957563102342036" lon="12.186919514388387"><ele>357.0</ele><time>2026-04-25T11:16:27Z</time></trkpt><trkpt lat="45.95748572978787" lon="12.18695321469286"><ele>357.0</ele><time>2026-04-25T11:16:30Z</time></trkpt><trkpt lat="45.95741330801787" lon="12.18692834110901"><ele>357.0</ele><time>2026-04-25T11:16:33Z</time></trkpt><trkpt lat="45.95733306513761" lon="12.186894043337842"><ele>357.0</ele><time>2026-04-25T11:16:36Z</time></trkpt><trkpt lat="45.957298287131586" lon="12.18676642856501"><ele>357.0</ele><time>2026-04-25T11:16:39Z</time></trkpt><trkpt lat="45.95730221191011" lon="12.186648700498392"><ele>353.6</ele><time>2026-04-25T11:16:41Z</time></trkpt><trkpt lat="45.95731824969839" lon="12.186515283967866"><ele>350.20000000000005</ele><time>2026-04-25T11:16:43Z</time></trkpt><trkpt lat="45.95733990046577" lon="12.186350036755938"><ele>346.8</ele><time>2026-04-25T11:16:45Z</time></trkpt><trkpt lat="45.95735407143348" lon="12.18617633050216"><ele>343.4</ele><time>2026-04-25T11:16:47Z</time></trkpt><trkpt lat="45.95735854216389" lon="12.186082559957594"><ele>340.0</ele><time>2026-04-25T11:16:48Z</time></trkpt><trkpt lat="45.95735447897329" lon="12.185979759621107"><ele>339.8333333333333</ele><time>2026-04-25T11:16:49Z</time></trkpt><trkpt lat="45.9573559416495" lon="12.18587283620428"><ele>339.66666666666663</ele><time>2026-04-25T11:16:50Z</time></trkpt><trkpt lat="45.957362152391475" lon="12.185763196087693"><ele>339.5</ele><time>2026-04-25T11:16:51Z</time></trkpt><trkpt lat="45.95736228788177" lon="12.185651974695665"><ele>339.3333333333333</ele><time>2026-04-25T11:16:52Z</time></trkpt><trkpt lat="45.95736988764337" lon="12.185526175175102"><ele>339.1666666666667</ele><time>2026-04-25T11:16:53Z</time></trkpt><trkpt lat="45.95737209450859" lon="12.185409597760643"><ele>339.0</ele><time>2026-04-25T11:16:54Z</time></trkpt><trkpt lat="45.95737795936342" lon="12.185287540467659"><ele>338.4</ele><time>2026-04-25T11:16:55Z</time></trkpt><trkpt lat="45.957387961020544" lon="12.185159446372651"><ele>337.79999999999995</ele><time>2026-04-25T11:16:56Z</time></trkpt><trkpt lat="45.95739323274353" lon="12.185034644533"><ele>337.20000000000005</ele><time>2026-04-25T11:16:57Z</time></trkpt><trkpt lat="45.95739440928617" lon="12.184901685039012"><ele>336.6</ele><time>2026-04-25T11:16:58Z</time></trkpt><trkpt lat="45.95738822475308" lon="12.18477182289454"><ele>336.0</ele><time>2026-04-25T11:16:59Z</time></trkpt><trkpt lat="45.95737071055607" lon="12.184641016341601"><ele>338.8</ele><time>2026-04-25T11:17:00Z</time></trkpt><trkpt lat="45.95734676403821" lon="12.184516381665855"><ele>341.6</ele><time>2026-04-25T11:17:01Z</time></trkpt><trkpt lat="45.95730561880623" lon="12.184401322269842"><ele>344.4</ele><time>2026-04-25T11:17:02Z</time></trkpt><trkpt lat="45.9572510732894" lon="12.184295558773451"><ele>347.2</ele><time>2026-04-25T11:17:03Z</time></trkpt><trkpt lat="45.9571863670445" lon="12.18420331101625"><ele>350.0</ele><time>2026-04-25T11:17:04Z</time></trkpt><trkpt lat="45.95711799485342" lon="12.18411562304157"><ele>350.0</ele><time>2026-04-25T11:17:05Z</time></trkpt><trkpt lat="45.95704471862829" lon="12.18402756652959"><ele>350.0</ele><time>2026-04-25T11:17:06Z</time></trkpt><trkpt lat="45.9569760725795" lon="12.183946638929648"><ele>350.0</ele><time>2026-04-25T11:17:07Z</time></trkpt><trkpt lat="45.9569070931858" lon="12.183850344145679"><ele>350.0</ele><time>2026-04-25T11:17:08Z</time></trkpt><trkpt lat="45.95683419273985" lon="12.183767848074366"><ele>350.0</ele><time>2026-04-25T11:17:09Z</time></trkpt><trkpt lat="45.95676856863858" lon="12.1836673256364"><ele>348.0</ele><time>2026-04-25T11:17:10Z</time></trkpt><trkpt lat="45.956706669040116" lon="12.183565462147879"><ele>346.0</ele><time>2026-04-25T11:17:11Z</time></trkpt><trkpt lat="45.95664108519975" lon="12.183459214509869"><ele>344.0</ele><time>2026-04-25T11:17:12Z</time></trkpt><trkpt lat="45.9565745155223" lon="12.183357929541238"><ele>342.0</ele><time>2026-04-25T11:17:13Z</time></trkpt><trkpt lat="45.9565030873672" lon="12.183245350860172"><ele>340.0</ele><time>2026-04-25T11:17:14Z</time></trkpt><trkpt lat="45.95644620119632" lon="12.183113168920201"><ele>340.0</ele><time>2026-04-25T11:17:15Z</time></trkpt><trkpt lat="45.95640588056508" lon="12.182962026850376"><ele>340.0</ele><time>2026-04-25T11:17:16Z</time></trkpt><trkpt lat="45.95636623795594" lon="12.182798404388068"><ele>340.0</ele><time>2026-04-25T11:17:17Z</time></trkpt><trkpt lat="45.95630600033498" lon="12.182646062427988"><ele>340.0</ele><time>2026-04-25T11:17:18Z</time></trkpt><trkpt lat="45.95623255442395" lon="12.182502063168736"><ele>340.0</ele><time>2026-04-25T11:17:19Z</time></trkpt><trkpt lat="45.95616103249224" lon="12.182356620917345"><ele>340.0</ele><time>2026-04-25T11:17:20Z</time></trkpt><trkpt lat="45.95611038791034" lon="12.182192908098882"><ele>340.0</ele><time>2026-04-25T11:17:21Z</time></trkpt><trkpt lat="45.95607933615281" lon="12.182014197560653"><ele>340.0</ele><time>2026-04-25T11:17:22Z</time></trkpt><trkpt lat="45.956069287518254" lon="12.18182508941521"><ele>341.75</ele><time>2026-04-25T11:17:23Z</time></trkpt><trkpt lat="45.95607395762065" lon="12.181640989775412"><ele>343.5</ele><time>2026-04-25T11:17:24Z</time></trkpt><trkpt lat="45.95608420851693" lon="12.181465830954052"><ele>345.25</ele><time>2026-04-25T11:17:25Z</time></trkpt><trkpt lat="45.95609894714961" lon="12.18129423390494"><ele>347.0</ele><time>2026-04-25T11:17:26Z</time></trkpt><trkpt lat="45.95610886651739" lon="12.181122590793342"><ele>349.20000000000005</ele><time>2026-04-25T11:17:27Z</time></trkpt><trkpt lat="45.956096280312345" lon="12.180969180910889"><ele>351.4</ele><time>2026-04-25T11:17:28Z</time></trkpt><trkpt lat="45.956068332270604" lon="12.180807631277666"><ele>353.6</ele><time>2026-04-25T11:17:29Z</time></trkpt><trkpt lat="45.956009837708955" lon="12.18067127918608"><ele>355.79999999999995</ele><time>2026-04-25T11:17:30Z</time></trkpt><trkpt lat="45.95594196142787" lon="12.180553971449068"><ele>358.0</ele><time>2026-04-25T11:17:31Z</time></trkpt><trkpt lat="45.9558812217146" lon="12.180440678346837"><ele>351.79999999999995</ele><time>2026-04-25T11:17:32Z</time></trkpt><trkpt lat="45.95582429025183" lon="12.180329589909881"><ele>345.6</ele><time>2026-04-25T11:17:33Z</time></trkpt><trkpt lat="45.955771929672686" lon="12.180224340617157"><ele>339.4</ele><time>2026-04-25T11:17:34Z</time></trkpt><trkpt lat="45.95571689240165" lon="12.180116943654346"><ele>333.20000000000005</ele><time>2026-04-25T11:17:35Z</time></trkpt><trkpt lat="45.95567781416224" lon="12.180003041750656"><ele>327.0</ele><time>2026-04-25T11:17:36Z</time></trkpt><trkpt lat="45.95564041631643" lon="12.179891344261826"><ele>329.5</ele><time>2026-04-25T11:17:37Z</time></trkpt><trkpt lat="45.95561542785161" lon="12.179768420665104"><ele>332.0</ele><time>2026-04-25T11:17:38Z</time></trkpt><trkpt lat="45.95560078960394" lon="12.179638531618451"><ele>334.5</ele><time>2026-04-25T11:17:39Z</time></trkpt><trkpt lat="45.95558767639613" lon="12.179509698460993"><ele>337.0</ele><time>2026-04-25T11:17:40Z</time></trkpt><trkpt lat="45.955552202555744" lon="12.179397416446443"><ele>339.5</ele><time>2026-04-25T11:17:41Z</time></trkpt><trkpt lat="45.95550744593211" lon="12.179291626604279"><ele>342.0</ele><time>2026-04-25T11:17:42Z</time></trkpt><trkpt lat="45.955461496076296" lon="12.179188706265323"><ele>342.0</ele><time>2026-04-25T11:17:43Z</time></trkpt><trkpt lat="45.9554155508777" lon="12.179081546599843"><ele>342.0</ele><time>2026-04-25T11:17:44Z</time></trkpt><trkpt lat="45.95537899074408" lon="12.178964291031335"><ele>342.0</ele><time>2026-04-25T11:17:45Z</time></trkpt><trkpt lat="45.955344097497736" lon="12.178844910851145"><ele>342.0</ele><time>2026-04-25T11:17:46Z</time></trkpt><trkpt lat="45.95531784820376" lon="12.178719108313791"><ele>342.0</ele><time>2026-04-25T11:17:47Z</time></trkpt><trkpt lat="45.95529657127834" lon="12.178587257225633"><ele>344.20000000000005</ele><time>2026-04-25T11:17:48Z</time></trkpt><trkpt lat="45.955277803466714" lon="12.178450202616915"><ele>346.4</ele><time>2026-04-25T11:17:49Z</time></trkpt><trkpt lat="45.95526034552252" lon="12.178315140276583"><ele>348.6</ele><time>2026-04-25T11:17:50Z</time></trkpt><trkpt lat="45.955237594963336" lon="12.178178530316718"><ele>350.79999999999995</ele><time>2026-04-25T11:17:51Z</time></trkpt><trkpt lat="45.95521992571535" lon="12.17803730943524"><ele>353.0</ele><time>2026-04-25T11:17:52Z</time></trkpt><trkpt lat="45.955199275185045" lon="12.177890903621494"><ele>354.25</ele><time>2026-04-25T11:17:53Z</time></trkpt><trkpt lat="45.955170936525846" lon="12.177739620326006"><ele>355.5</ele><time>2026-04-25T11:17:54Z</time></trkpt><trkpt lat="45.95512681065232" lon="12.177593398483449"><ele>356.75</ele><time>2026-04-25T11:17:55Z</time></trkpt><trkpt lat="45.95505860881322" lon="12.177458202923482"><ele>358.0</ele><time>2026-04-25T11:17:56Z</time></trkpt><trkpt lat="45.95498202862882" lon="12.177327341775614"><ele>350.75</ele><time>2026-04-25T11:17:57Z</time></trkpt><trkpt lat="45.95489345318091" lon="12.17720862180583"><ele>343.5</ele><time>2026-04-25T11:17:58Z</time></trkpt><trkpt lat="45.95479097687797" lon="12.177114665844648"><ele>336.25</ele><time>2026-04-25T11:17:59Z</time></trkpt><trkpt lat="45.95467866801737" lon="12.177039977518893"><ele>329.0</ele><time>2026-04-25T11:18:00Z</time></trkpt><trkpt lat="45.95456276546771" lon="12.176987094674011"><ele>329.0</ele><time>2026-04-25T11:18:01Z</time></trkpt><trkpt lat="45.95444281734554" lon="12.176943055549255"><ele>329.0</ele><time>2026-04-25T11:18:02Z</time></trkpt><trkpt lat="45.95432476759013" lon="12.176896751482468"><ele>329.0</ele><time>2026-04-25T11:18:03Z</time></trkpt><trkpt lat="45.95421395505997" lon="12.17683553115693"><ele>329.0</ele><time>2026-04-25T11:18:04Z</time></trkpt><trkpt lat="45.954117093910085" lon="12.176734303614062"><ele>324.4</ele><time>2026-04-25T11:18:05Z</time></trkpt><trkpt lat="45.95405135801937" lon="12.17660601680557"><ele>319.79999999999995</ele><time>2026-04-25T11:18:06Z</time></trkpt><trkpt lat="45.95398620850188" lon="12.176503478814015"><ele>315.20000000000005</ele><time>2026-04-25T11:18:07Z</time></trkpt><trkpt lat="45.95392290433711" lon="12.176410540187053"><ele>310.6</ele><time>2026-04-25T11:18:08Z</time></trkpt><trkpt lat="45.95386628417645" lon="12.17632574008905"><ele>306.0</ele><time>2026-04-25T11:18:09.001Z</time></trkpt><trkpt lat="45.953838286412555" lon="12.176224994335575"><ele>305.8</ele><time>2026-04-25T11:18:10.001Z</time></trkpt><trkpt lat="45.953826123082244" lon="12.176095387602391"><ele>305.6</ele><time>2026-04-25T11:18:11.001Z</time></trkpt><trkpt lat="45.95384096240696" lon="12.175954195482062"><ele>305.4</ele><time>2026-04-25T11:18:12.001Z</time></trkpt><trkpt lat="45.95386446934218" lon="12.175808304888475"><ele>305.2</ele><time>2026-04-25T11:18:13.001Z</time></trkpt><trkpt lat="45.95388528120855" lon="12.175649348397501"><ele>305.0</ele><time>2026-04-25T11:18:14.001Z</time></trkpt><trkpt lat="45.953873972536734" lon="12.175492045298272"><ele>305.8</ele><time>2026-04-25T11:18:15.001Z</time></trkpt><trkpt lat="45.953842378867485" lon="12.175342853828697"><ele>306.6</ele><time>2026-04-25T11:18:16.001Z</time></trkpt><trkpt lat="45.95378475227257" lon="12.175207574066846"><ele>307.4</ele><time>2026-04-25T11:18:17.001Z</time></trkpt><trkpt lat="45.95371312779024" lon="12.17509712899998"><ele>308.2</ele><time>2026-04-25T11:18:18.001Z</time></trkpt><trkpt lat="45.95363959200033" lon="12.17499375470909"><ele>309.0</ele><time>2026-04-25T11:18:19.001Z</time></trkpt><trkpt lat="45.95356889445304" lon="12.174892828479893"><ele>310.8</ele><time>2026-04-25T11:18:20.001Z</time></trkpt><trkpt lat="45.953498195845384" lon="12.174778279780169"><ele>312.59999999999997</ele><time>2026-04-25T11:18:21.001Z</time></trkpt><trkpt lat="45.953440902360626" lon="12.174653241762567"><ele>314.4</ele><time>2026-04-25T11:18:22.001Z</time></trkpt><trkpt lat="45.95338894446227" lon="12.17452180798425"><ele>316.2</ele><time>2026-04-25T11:18:23.001Z</time></trkpt><trkpt lat="45.953358855933395" lon="12.174375014223479"><ele>318.0</ele><time>2026-04-25T11:18:24.001Z</time></trkpt><trkpt lat="45.95335283711736" lon="12.174220250726474"><ele>318.8</ele><time>2026-04-25T11:18:25.001Z</time></trkpt><trkpt lat="45.95336511980132" lon="12.17406734389769"><ele>319.6</ele><time>2026-04-25T11:18:26.001Z</time></trkpt><trkpt lat="45.95339159195179" lon="12.173912036010117"><ele>320.40000000000003</ele><time>2026-04-25T11:18:27.001Z</time></trkpt><trkpt lat="45.95341911276735" lon="12.17376112976986"><ele>321.20000000000005</ele><time>2026-04-25T11:18:28.001Z</time></trkpt><trkpt lat="45.95341064837055" lon="12.173595121386603"><ele>322.0</ele><time>2026-04-25T11:18:29.001Z</time></trkpt><trkpt lat="45.953342787633844" lon="12.173453063496764"><ele>314.0</ele><time>2026-04-25T11:18:30.001Z</time></trkpt><trkpt lat="45.953292444314144" lon="12.173317793928051"><ele>306.0</ele><time>2026-04-25T11:18:31.001Z</time></trkpt><trkpt lat="45.95324854323277" lon="12.173178679678518"><ele>298.0</ele><time>2026-04-25T11:18:32.001Z</time></trkpt><trkpt lat="45.95320815419591" lon="12.173037831181539"><ele>290.0</ele><time>2026-04-25T11:18:33.001Z</time></trkpt><trkpt lat="45.95318040044399" lon="12.172899675292502"><ele>282.0</ele><time>2026-04-25T11:18:34.001Z</time></trkpt><trkpt lat="45.953177659446105" lon="12.172759930719478"><ele>281.25</ele><time>2026-04-25T11:18:35.001Z</time></trkpt><trkpt lat="45.95319127598184" lon="12.172607091796353"><ele>280.5</ele><time>2026-04-25T11:18:36.001Z</time></trkpt><trkpt lat="45.9532242994499" lon="12.172450923247787"><ele>279.75</ele><time>2026-04-25T11:18:37.001Z</time></trkpt><trkpt lat="45.95326040892277" lon="12.172291426540163"><ele>279.0</ele><time>2026-04-25T11:18:38.001Z</time></trkpt><trkpt lat="45.95328772272071" lon="12.172126149308696"><ele>278.25</ele><time>2026-04-25T11:18:39.001Z</time></trkpt><trkpt lat="45.95330007357289" lon="12.171952136643327"><ele>277.5</ele><time>2026-04-25T11:18:40.001Z</time></trkpt><trkpt lat="45.95329635094933" lon="12.171781668366489"><ele>276.75</ele><time>2026-04-25T11:18:41.001Z</time></trkpt><trkpt lat="45.95328009050082" lon="12.171603810573904"><ele>276.0</ele><time>2026-04-25T11:18:42.001Z</time></trkpt><trkpt lat="45.9532623008358" lon="12.171426364112104"><ele>274.75</ele><time>2026-04-25T11:18:43.001Z</time></trkpt><trkpt lat="45.953240724703576" lon="12.171254088407935"><ele>273.5</ele><time>2026-04-25T11:18:44.001Z</time></trkpt><trkpt lat="45.95322512135879" lon="12.171084259109378"><ele>272.25</ele><time>2026-04-25T11:18:45.001Z</time></trkpt><trkpt lat="45.953230270783585" lon="12.170911706097305"><ele>271.0</ele><time>2026-04-25T11:18:46.001Z</time></trkpt><trkpt lat="45.95325165899429" lon="12.170753469348549"><ele>270.40000000000003</ele><time>2026-04-25T11:18:47.001Z</time></trkpt><trkpt lat="45.953291053184856" lon="12.170607376866142"><ele>269.8</ele><time>2026-04-25T11:18:48.001Z</time></trkpt><trkpt lat="45.95334475123356" lon="12.170473444333958"><ele>269.20000000000005</ele><time>2026-04-25T11:18:49.001Z</time></trkpt><trkpt lat="45.953400341966315" lon="12.170333825605045"><ele>268.6</ele><time>2026-04-25T11:18:50.001Z</time></trkpt><trkpt lat="45.95344668972953" lon="12.170191948217488"><ele>268.0</ele><time>2026-04-25T11:18:51.001Z</time></trkpt><trkpt lat="45.95346786341874" lon="12.170056097930008"><ele>270.8</ele><time>2026-04-25T11:18:52.001Z</time></trkpt><trkpt lat="45.95346220289272" lon="12.169927320050883"><ele>273.6</ele><time>2026-04-25T11:18:53.001Z</time></trkpt><trkpt lat="45.953448442721765" lon="12.169798107004135"><ele>276.4</ele><time>2026-04-25T11:18:54.001Z</time></trkpt><trkpt lat="45.953391850675004" lon="12.169690027679696"><ele>279.2</ele><time>2026-04-25T11:18:55.001Z</time></trkpt><trkpt lat="45.95329541321587" lon="12.16964849165448"><ele>282.0</ele><time>2026-04-25T11:18:56.001Z</time></trkpt><trkpt lat="45.95320829104759" lon="12.169618238367821"><ele>282.0</ele><time>2026-04-25T11:18:57.001Z</time></trkpt><trkpt lat="45.953121009493074" lon="12.169585058645639"><ele>282.0</ele><time>2026-04-25T11:18:58.001Z</time></trkpt><trkpt lat="45.9530348670183" lon="12.169572914002153"><ele>282.0</ele><time>2026-04-25T11:18:59.001Z</time></trkpt><trkpt lat="45.95293899855507" lon="12.169584474449298"><ele>282.0</ele><time>2026-04-25T11:19:00.001Z</time></trkpt><trkpt lat="45.95285724307518" lon="12.169623206988984"><ele>282.0</ele><time>2026-04-25T11:19:01.001Z</time></trkpt><trkpt lat="45.95278639846759" lon="12.16969077385679"><ele>282.0</ele><time>2026-04-25T11:19:02.001Z</time></trkpt><trkpt lat="45.95272872519553" lon="12.169747148930039"><ele>282.0</ele><time>2026-04-25T11:19:03.001Z</time></trkpt><trkpt lat="45.95268396717692" lon="12.16981247434866"><ele>282.0</ele><time>2026-04-25T11:19:04.001Z</time></trkpt><trkpt lat="45.95257896335346" lon="12.169865402914976"><ele>282.0</ele><time>2026-04-25T11:19:06.001Z</time></trkpt><trkpt lat="45.952486150213865" lon="12.169882014967724"><ele>282.0</ele><time>2026-04-25T11:19:08.001Z</time></trkpt><trkpt lat="45.95240323469998" lon="12.169862289346218"><ele>282.0</ele><time>2026-04-25T11:19:10.001Z</time></trkpt><trkpt lat="45.95233025489264" lon="12.169817744316779"><ele>282.0</ele><time>2026-04-25T11:19:12.001Z</time></trkpt><trkpt lat="45.95225007500124" lon="12.1697808938656"><ele>281.0</ele><time>2026-04-25T11:19:14.001Z</time></trkpt><trkpt lat="45.95218449197922" lon="12.169749294549034"><ele>280.0</ele><time>2026-04-25T11:19:16.001Z</time></trkpt><trkpt lat="45.95212552850629" lon="12.169704967764952"><ele>279.0</ele><time>2026-04-25T11:19:18.001Z</time></trkpt><trkpt lat="45.952061303857796" lon="12.169674556228557"><ele>278.0</ele><time>2026-04-25T11:19:20.001Z</time></trkpt><trkpt lat="45.951998952319094" lon="12.169635431678323"><ele>277.0</ele><time>2026-04-25T11:19:22.001Z</time></trkpt><trkpt lat="45.95193423135842" lon="12.169600324796264"><ele>276.0</ele><time>2026-04-25T11:19:24.001Z</time></trkpt><trkpt lat="45.95187301512349" lon="12.169552816823911"><ele>275.0</ele><time>2026-04-25T11:19:26.001Z</time></trkpt><trkpt lat="45.9518092589988" lon="12.169512582347924"><ele>275.0</ele><time>2026-04-25T11:19:28.001Z</time></trkpt><trkpt lat="45.95174747363826" lon="12.169481834205065"><ele>275.0</ele><time>2026-04-25T11:19:30.001Z</time></trkpt><trkpt lat="45.95168501873099" lon="12.169446013289928"><ele>275.0</ele><time>2026-04-25T11:19:32.001Z</time></trkpt><trkpt lat="45.95163309348696" lon="12.16939389070945"><ele>275.0</ele><time>2026-04-25T11:19:34.001Z</time></trkpt><trkpt lat="45.951580321379" lon="12.169341454621568"><ele>275.0</ele><time>2026-04-25T11:19:36.001Z</time></trkpt><trkpt lat="45.95150777123768" lon="12.169260072026567"><ele>275.0</ele><time>2026-04-25T11:19:39.001Z</time></trkpt><trkpt lat="45.951437369538844" lon="12.16917315200853"><ele>275.0</ele><time>2026-04-25T11:19:42.001Z</time></trkpt><trkpt lat="45.95138177897923" lon="12.169119383647212"><ele>274.0</ele><time>2026-04-25T11:19:44.001Z</time></trkpt><trkpt lat="45.951326071168715" lon="12.169024475958478"><ele>273.0</ele><time>2026-04-25T11:19:47.001Z</time></trkpt><trkpt lat="45.95131001347525" lon="12.16889345807899"><ele>272.0</ele><time>2026-04-25T11:19:50.001Z</time></trkpt><trkpt lat="45.95135614832792" lon="12.168775746151269"><ele>271.0</ele><time>2026-04-25T11:19:52.001Z</time></trkpt><trkpt lat="45.95141566409142" lon="12.168653053902984"><ele>270.0</ele><time>2026-04-25T11:19:54.001Z</time></trkpt><trkpt lat="45.95146938984552" lon="12.168530586568801"><ele>270.0</ele><time>2026-04-25T11:19:56.001Z</time></trkpt><trkpt lat="45.951513280903335" lon="12.168405689505862"><ele>270.0</ele><time>2026-04-25T11:19:58.001Z</time></trkpt><trkpt lat="45.9515563455514" lon="12.168293729507118"><ele>270.0</ele><time>2026-04-25T11:20:00.001Z</time></trkpt><trkpt lat="45.95163450489315" lon="12.16819897764701"><ele>270.0</ele><time>2026-04-25T11:20:02.001Z</time></trkpt><trkpt lat="45.95169128576037" lon="12.168114195970265"><ele>270.0</ele><time>2026-04-25T11:20:04.001Z</time></trkpt><trkpt lat="45.95174615688609" lon="12.16801718175109"><ele>276.3333333333333</ele><time>2026-04-25T11:20:06.001Z</time></trkpt><trkpt lat="45.95181208979399" lon="12.167920856576472"><ele>282.6666666666667</ele><time>2026-04-25T11:20:08.001Z</time></trkpt><trkpt lat="45.95182147690679" lon="12.167809942106501"><ele>289.0</ele><time>2026-04-25T11:20:10.001Z</time></trkpt><trkpt lat="45.951828574345576" lon="12.167695986327592"><ele>295.33333333333337</ele><time>2026-04-25T11:20:12.001Z</time></trkpt><trkpt lat="45.95182037074759" lon="12.167595049899086"><ele>301.6666666666667</ele><time>2026-04-25T11:20:14.001Z</time></trkpt><trkpt lat="45.951815740695615" lon="12.167501077523099"><ele>308.0</ele><time>2026-04-25T11:20:16.001Z</time></trkpt><trkpt lat="45.951815076197484" lon="12.167398856803882"><ele>308.83333333333337</ele><time>2026-04-25T11:20:18.001Z</time></trkpt><trkpt lat="45.95181049916087" lon="12.167304083364074"><ele>309.6666666666667</ele><time>2026-04-25T11:20:20.001Z</time></trkpt><trkpt lat="45.95179644623401" lon="12.167199996214917"><ele>310.5</ele><time>2026-04-25T11:20:22.001Z</time></trkpt><trkpt lat="45.95177461176921" lon="12.167089310874987"><ele>311.3333333333333</ele><time>2026-04-25T11:20:24.001Z</time></trkpt><trkpt lat="45.95177904967498" lon="12.16695372695004"><ele>312.16666666666663</ele><time>2026-04-25T11:20:26.001Z</time></trkpt><trkpt lat="45.95180882451479" lon="12.166805315723986"><ele>313.0</ele><time>2026-04-25T11:20:28.001Z</time></trkpt><trkpt lat="45.951854791044134" lon="12.166662710460194"><ele>315.5</ele><time>2026-04-25T11:20:30.001Z</time></trkpt><trkpt lat="45.95190793744261" lon="12.166507370489507"><ele>318.0</ele><time>2026-04-25T11:20:32.001Z</time></trkpt><trkpt lat="45.951955494638206" lon="12.16635783389767"><ele>320.5</ele><time>2026-04-25T11:20:34.001Z</time></trkpt><trkpt lat="45.95198319220971" lon="12.166198606775195"><ele>323.0</ele><time>2026-04-25T11:20:36.001Z</time></trkpt><trkpt lat="45.951979657527026" lon="12.16604176133244"><ele>323.0</ele><time>2026-04-25T11:20:38.001Z</time></trkpt><trkpt lat="45.951963952136424" lon="12.165891383923187"><ele>323.0</ele><time>2026-04-25T11:20:40.001Z</time></trkpt><trkpt lat="45.95193972670684" lon="12.16574030336461"><ele>323.0</ele><time>2026-04-25T11:20:42.001Z</time></trkpt><trkpt lat="45.95190009550151" lon="12.165604515465738"><ele>323.0</ele><time>2026-04-25T11:20:44.001Z</time></trkpt><trkpt lat="45.95184464380791" lon="12.165471818316485"><ele>323.0</ele><time>2026-04-25T11:20:46.001Z</time></trkpt><trkpt lat="45.95178783540266" lon="12.165344448685216"><ele>319.2</ele><time>2026-04-25T11:20:48.001Z</time></trkpt><trkpt lat="45.95173569146239" lon="12.165216597866243"><ele>315.4</ele><time>2026-04-25T11:20:50.001Z</time></trkpt><trkpt lat="45.95168230681784" lon="12.165101505796688"><ele>311.59999999999997</ele><time>2026-04-25T11:20:52.001Z</time></trkpt><trkpt lat="45.95161238525252" lon="12.164989257373515"><ele>307.79999999999995</ele><time>2026-04-25T11:20:54.001Z</time></trkpt><trkpt lat="45.951540824451804" lon="12.164880424962432"><ele>304.0</ele><time>2026-04-25T11:20:56.001Z</time></trkpt><trkpt lat="45.95147126557956" lon="12.164782059316856"><ele>304.0</ele><time>2026-04-25T11:20:58.001Z</time></trkpt><trkpt lat="45.95141087430638" lon="12.16467489048191"><ele>304.0</ele><time>2026-04-25T11:21:00.001Z</time></trkpt><trkpt lat="45.95135473677698" lon="12.164539927748727"><ele>304.0</ele><time>2026-04-25T11:21:02.001Z</time></trkpt><trkpt lat="45.95129363672743" lon="12.16439250182078"><ele>304.0</ele><time>2026-04-25T11:21:04.001Z</time></trkpt><trkpt lat="45.95126772855369" lon="12.16430192624498"><ele>304.0</ele><time>2026-04-25T11:21:05.001Z</time></trkpt><trkpt lat="45.95124001805403" lon="12.164205626261024"><ele>304.0</ele><time>2026-04-25T11:21:06.001Z</time></trkpt><trkpt lat="45.95121229940502" lon="12.16411449406399"><ele>304.0</ele><time>2026-04-25T11:21:07.001Z</time></trkpt><trkpt lat="45.951179678756766" lon="12.164015619217022"><ele>304.0</ele><time>2026-04-25T11:21:08.001Z</time></trkpt><trkpt lat="45.951145490331086" lon="12.163914347901416"><ele>304.0</ele><time>2026-04-25T11:21:09.001Z</time></trkpt><trkpt lat="45.95111127319477" lon="12.163814452550609"><ele>304.0</ele><time>2026-04-25T11:21:10.001Z</time></trkpt><trkpt lat="45.95107169737083" lon="12.16370762677299"><ele>304.0</ele><time>2026-04-25T11:21:11.001Z</time></trkpt><trkpt lat="45.95102662855006" lon="12.16361110989681"><ele>306.16666666666663</ele><time>2026-04-25T11:21:12.001Z</time></trkpt><trkpt lat="45.95097025200257" lon="12.163523387338701"><ele>308.3333333333333</ele><time>2026-04-25T11:21:13.001Z</time></trkpt><trkpt lat="45.95091728485937" lon="12.163431987575807"><ele>310.5</ele><time>2026-04-25T11:21:14.001Z</time></trkpt><trkpt lat="45.95086670645272" lon="12.163339795376325"><ele>312.6666666666667</ele><time>2026-04-25T11:21:15.001Z</time></trkpt><trkpt lat="45.95082549812285" lon="12.163244181594612"><ele>314.83333333333337</ele><time>2026-04-25T11:21:16.001Z</time></trkpt><trkpt lat="45.950795196197234" lon="12.163143844384274"><ele>317.0</ele><time>2026-04-25T11:21:17.001Z</time></trkpt><trkpt lat="45.950779249606015" lon="12.163034820776955"><ele>312.0</ele><time>2026-04-25T11:21:18.001Z</time></trkpt><trkpt lat="45.950769432327796" lon="12.162912735601019"><ele>307.0</ele><time>2026-04-25T11:21:19.001Z</time></trkpt><trkpt lat="45.95075233446078" lon="12.162798645050572"><ele>302.0</ele><time>2026-04-25T11:21:20.001Z</time></trkpt><trkpt lat="45.95073542120255" lon="12.162690323388805"><ele>297.0</ele><time>2026-04-25T11:21:21.001Z</time></trkpt><trkpt lat="45.95071480805859" lon="12.162577494423038"><ele>292.0</ele><time>2026-04-25T11:21:22.001Z</time></trkpt><trkpt lat="45.95068586726208" lon="12.162467237571969"><ele>287.0</ele><time>2026-04-25T11:21:23.001Z</time></trkpt><trkpt lat="45.950658243369496" lon="12.16236472558909"><ele>288.83333333333337</ele><time>2026-04-25T11:21:24.001Z</time></trkpt><trkpt lat="45.950635927537554" lon="12.162255978004683"><ele>290.6666666666667</ele><time>2026-04-25T11:21:25.001Z</time></trkpt><trkpt lat="45.95061116051533" lon="12.162151694041974"><ele>292.5</ele><time>2026-04-25T11:21:26.001Z</time></trkpt><trkpt lat="45.9505900478658" lon="12.162049605067477"><ele>294.3333333333333</ele><time>2026-04-25T11:21:27.001Z</time></trkpt><trkpt lat="45.95056522209886" lon="12.161946057282663"><ele>296.16666666666663</ele><time>2026-04-25T11:21:28.001Z</time></trkpt><trkpt lat="45.950542984603416" lon="12.161842236604668"><ele>298.0</ele><time>2026-04-25T11:21:29.001Z</time></trkpt><trkpt lat="45.950527324625035" lon="12.16174073464821"><ele>298.0</ele><time>2026-04-25T11:21:30.001Z</time></trkpt><trkpt lat="45.950516153996794" lon="12.161631307369621"><ele>298.0</ele><time>2026-04-25T11:21:31.001Z</time></trkpt><trkpt lat="45.95050061711484" lon="12.16151486576486"><ele>298.0</ele><time>2026-04-25T11:21:32.001Z</time></trkpt><trkpt lat="45.95047108057665" lon="12.161411888833467"><ele>298.0</ele><time>2026-04-25T11:21:33.001Z</time></trkpt><trkpt lat="45.95044428041218" lon="12.161294997054952"><ele>298.0</ele><time>2026-04-25T11:21:34.001Z</time></trkpt><trkpt lat="45.95041179181313" lon="12.161165522130508"><ele>298.0</ele><time>2026-04-25T11:21:35.001Z</time></trkpt><trkpt lat="45.950367219504514" lon="12.161046485896929"><ele>300.2</ele><time>2026-04-25T11:21:36.001Z</time></trkpt><trkpt lat="45.950330034252985" lon="12.160914165234338"><ele>302.4</ele><time>2026-04-25T11:21:37.001Z</time></trkpt><trkpt lat="45.95028310412052" lon="12.160797923320018"><ele>304.59999999999997</ele><time>2026-04-25T11:21:38.001Z</time></trkpt><trkpt lat="45.950232705442914" lon="12.160671182951104"><ele>306.8</ele><time>2026-04-25T11:21:39.001Z</time></trkpt><trkpt lat="45.950185956177336" lon="12.160536982136618"><ele>309.0</ele><time>2026-04-25T11:21:40.001Z</time></trkpt><trkpt lat="45.950125815127" lon="12.160404556719897"><ele>311.5</ele><time>2026-04-25T11:21:41.001Z</time></trkpt><trkpt lat="45.95006048926298" lon="12.160273168366379"><ele>314.0</ele><time>2026-04-25T11:21:42.001Z</time></trkpt><trkpt lat="45.950000898699436" lon="12.16013651474482"><ele>316.5</ele><time>2026-04-25T11:21:43.001Z</time></trkpt><trkpt lat="45.94994755125499" lon="12.15998927310534"><ele>319.0</ele><time>2026-04-25T11:21:44.001Z</time></trkpt><trkpt lat="45.949904523494496" lon="12.159827510874385"><ele>308.75</ele><time>2026-04-25T11:21:45.001Z</time></trkpt><trkpt lat="45.94987533112607" lon="12.159659939979093"><ele>298.5</ele><time>2026-04-25T11:21:46.001Z</time></trkpt><trkpt lat="45.94985981266598" lon="12.159488863989377"><ele>288.25</ele><time>2026-04-25T11:21:47.001Z</time></trkpt><trkpt lat="45.94985252980565" lon="12.159318090611045"><ele>278.0</ele><time>2026-04-25T11:21:48.001Z</time></trkpt><trkpt lat="45.949835966687935" lon="12.159146346822107"><ele>280.75</ele><time>2026-04-25T11:21:49.001Z</time></trkpt><trkpt lat="45.94979969176689" lon="12.158981824793747"><ele>283.5</ele><time>2026-04-25T11:21:50.001Z</time></trkpt><trkpt lat="45.94975639242753" lon="12.158825081558737"><ele>286.25</ele><time>2026-04-25T11:21:51.001Z</time></trkpt><trkpt lat="45.949715493546584" lon="12.158664033421045"><ele>289.0</ele><time>2026-04-25T11:21:52.001Z</time></trkpt><trkpt lat="45.949675866039456" lon="12.158518738432884"><ele>289.0</ele><time>2026-04-25T11:21:53.001Z</time></trkpt><trkpt lat="45.949635742006926" lon="12.158374850356774"><ele>289.0</ele><time>2026-04-25T11:21:54.001Z</time></trkpt><trkpt lat="45.949586181242715" lon="12.158243407136675"><ele>289.0</ele><time>2026-04-25T11:21:55.001Z</time></trkpt><trkpt lat="45.94953296989333" lon="12.158112077700011"><ele>289.0</ele><time>2026-04-25T11:21:56.001Z</time></trkpt><trkpt lat="45.949479773557876" lon="12.157996353903586"><ele>289.0</ele><time>2026-04-25T11:21:57.001Z</time></trkpt><trkpt lat="45.94942084784511" lon="12.1578863569891"><ele>287.0</ele><time>2026-04-25T11:21:58.001Z</time></trkpt><trkpt lat="45.94936053013634" lon="12.157783698391638"><ele>285.0</ele><time>2026-04-25T11:21:59.001Z</time></trkpt><trkpt lat="45.94929828623445" lon="12.157684405211054"><ele>283.0</ele><time>2026-04-25T11:22:00.001Z</time></trkpt><trkpt lat="45.949236924657214" lon="12.157594026103277"><ele>281.0</ele><time>2026-04-25T11:22:01.001Z</time></trkpt><trkpt lat="45.94917621055609" lon="12.15750629883141"><ele>279.0</ele><time>2026-04-25T11:22:02.001Z</time></trkpt><trkpt lat="45.94912303975107" lon="12.157416859042682"><ele>277.0</ele><time>2026-04-25T11:22:03.001Z</time></trkpt><trkpt lat="45.949075059413744" lon="12.157323073076963"><ele>277.0</ele><time>2026-04-25T11:22:04.001Z</time></trkpt><trkpt lat="45.94904793362862" lon="12.157219842689557"><ele>277.0</ele><time>2026-04-25T11:22:05.001Z</time></trkpt><trkpt lat="45.9490368007099" lon="12.157104906259935"><ele>277.0</ele><time>2026-04-25T11:22:06.001Z</time></trkpt><trkpt lat="45.94903871730142" lon="12.157000804519761"><ele>277.0</ele><time>2026-04-25T11:22:07.001Z</time></trkpt><trkpt lat="45.94903816838739" lon="12.156906705820404"><ele>277.0</ele><time>2026-04-25T11:22:08.001Z</time></trkpt><trkpt lat="45.949040288517885" lon="12.156812585905376"><ele>277.0</ele><time>2026-04-25T11:22:09.001Z</time></trkpt><trkpt lat="45.949017540929916" lon="12.15667976204796"><ele>277.0</ele><time>2026-04-25T11:22:11.001Z</time></trkpt><trkpt lat="45.94895779203963" lon="12.156555215170243"><ele>277.0</ele><time>2026-04-25T11:22:13.001Z</time></trkpt><trkpt lat="45.94889370925514" lon="12.156493409674356"><ele>277.0</ele><time>2026-04-25T11:22:15.001Z</time></trkpt><trkpt lat="45.94880358737399" lon="12.156480514432863"><ele>277.0</ele><time>2026-04-25T11:22:17.001Z</time></trkpt><trkpt lat="45.94871248040114" lon="12.156424654622866"><ele>277.0</ele><time>2026-04-25T11:22:19.001Z</time></trkpt><trkpt lat="45.94862520258695" lon="12.156416033425527"><ele>280.6</ele><time>2026-04-25T11:22:21.001Z</time></trkpt><trkpt lat="45.948567424164274" lon="12.156333243395139"><ele>284.2</ele><time>2026-04-25T11:22:23.001Z</time></trkpt><trkpt lat="45.94852920446721" lon="12.156192500273452"><ele>287.8</ele><time>2026-04-25T11:22:25.001Z</time></trkpt><trkpt lat="45.94853681630639" lon="12.156101413027658"><ele>291.4</ele><time>2026-04-25T11:22:26.001Z</time></trkpt><trkpt lat="45.948576045892985" lon="12.155951674145522"><ele>295.0</ele><time>2026-04-25T11:22:28.001Z</time></trkpt><trkpt lat="45.948644504865115" lon="12.155836426010541"><ele>296.6</ele><time>2026-04-25T11:22:30.001Z</time></trkpt><trkpt lat="45.94870417138147" lon="12.155688340343499"><ele>298.2</ele><time>2026-04-25T11:22:32.001Z</time></trkpt><trkpt lat="45.94871681505423" lon="12.155528380361464"><ele>299.8</ele><time>2026-04-25T11:22:34.001Z</time></trkpt><trkpt lat="45.94870375666824" lon="12.155384176059306"><ele>301.4</ele><time>2026-04-25T11:22:36.001Z</time></trkpt><trkpt lat="45.94865136523855" lon="12.155276955518467"><ele>303.0</ele><time>2026-04-25T11:22:38.001Z</time></trkpt><trkpt lat="45.94857271151199" lon="12.155178275285854"><ele>303.0</ele><time>2026-04-25T11:22:40.001Z</time></trkpt><trkpt lat="45.94851267468949" lon="12.155036590739684"><ele>303.0</ele><time>2026-04-25T11:22:42.001Z</time></trkpt><trkpt lat="45.94848683898589" lon="12.154902416229701"><ele>303.0</ele><time>2026-04-25T11:22:44.001Z</time></trkpt><trkpt lat="45.9484932887712" lon="12.154753164466548"><ele>303.0</ele><time>2026-04-25T11:22:46.001Z</time></trkpt><trkpt lat="45.948497737288136" lon="12.154659874823501"><ele>303.0</ele><time>2026-04-25T11:22:47.001Z</time></trkpt><trkpt lat="45.948527618385086" lon="12.154504387552576"><ele>302.6</ele><time>2026-04-25T11:22:49.001Z</time></trkpt><trkpt lat="45.948553189381116" lon="12.154350355718966"><ele>302.20000000000005</ele><time>2026-04-25T11:22:51.001Z</time></trkpt><trkpt lat="45.948580051236846" lon="12.15419918472254"><ele>301.8</ele><time>2026-04-25T11:22:53.001Z</time></trkpt><trkpt lat="45.948606745265124" lon="12.154113875667017"><ele>301.40000000000003</ele><time>2026-04-25T11:22:54.001Z</time></trkpt><trkpt lat="45.94864755098446" lon="12.153951157058993"><ele>301.0</ele><time>2026-04-25T11:22:56.001Z</time></trkpt><trkpt lat="45.94869199549252" lon="12.153780291632444"><ele>301.0</ele><time>2026-04-25T11:22:58.001Z</time></trkpt><trkpt lat="45.94869669878874" lon="12.153613022172134"><ele>301.0</ele><time>2026-04-25T11:23:00.001Z</time></trkpt><trkpt lat="45.94865844294809" lon="12.153456770089484"><ele>301.0</ele><time>2026-04-25T11:23:02.001Z</time></trkpt><trkpt lat="45.94858033363326" lon="12.15332733985324"><ele>301.0</ele><time>2026-04-25T11:23:04.001Z</time></trkpt><trkpt lat="45.94849593367257" lon="12.153216454901294"><ele>300.40000000000003</ele><time>2026-04-25T11:23:06.001Z</time></trkpt><trkpt lat="45.94844998935673" lon="12.153152779965938"><ele>299.8</ele><time>2026-04-25T11:23:07.001Z</time></trkpt><trkpt lat="45.94836649342752" lon="12.153041992833232"><ele>299.20000000000005</ele><time>2026-04-25T11:23:09.001Z</time></trkpt><trkpt lat="45.94828934726413" lon="12.15292650154869"><ele>298.6</ele><time>2026-04-25T11:23:11.001Z</time></trkpt><trkpt lat="45.94819884627657" lon="12.152822943043809"><ele>298.0</ele><time>2026-04-25T11:23:13.001Z</time></trkpt><trkpt lat="45.94809562712432" lon="12.15273152745592"><ele>298.0</ele><time>2026-04-25T11:23:15.001Z</time></trkpt><trkpt lat="45.947997373204245" lon="12.152646793654707"><ele>298.0</ele><time>2026-04-25T11:23:17.001Z</time></trkpt><trkpt lat="45.94794107103724" lon="12.152605788860189"><ele>298.0</ele><time>2026-04-25T11:23:18.001Z</time></trkpt><trkpt lat="45.94783908553144" lon="12.152512969572502"><ele>298.0</ele><time>2026-04-25T11:23:20.001Z</time></trkpt><trkpt lat="45.94774518327205" lon="12.152397773852456"><ele>298.0</ele><time>2026-04-25T11:23:22.001Z</time></trkpt><trkpt lat="45.94770694925546" lon="12.152322612096878"><ele>300.57142857142856</ele><time>2026-04-25T11:23:23.001Z</time></trkpt><trkpt lat="45.94767892493077" lon="12.152232107235882"><ele>303.1428571428571</ele><time>2026-04-25T11:23:24.001Z</time></trkpt><trkpt lat="45.947653425165" lon="12.152141962843402"><ele>305.7142857142857</ele><time>2026-04-25T11:23:25.001Z</time></trkpt><trkpt lat="45.9476292308605" lon="12.152043224624014"><ele>308.2857142857143</ele><time>2026-04-25T11:23:26.001Z</time></trkpt><trkpt lat="45.94759946805308" lon="12.151951869463648"><ele>310.8571428571429</ele><time>2026-04-25T11:23:27.001Z</time></trkpt><trkpt lat="45.94756480399502" lon="12.151851220954928"><ele>313.42857142857144</ele><time>2026-04-25T11:23:28.001Z</time></trkpt><trkpt lat="45.94753337726228" lon="12.15175456962687"><ele>316.0</ele><time>2026-04-25T11:23:29.001Z</time></trkpt><trkpt lat="45.9475038541234" lon="12.151655923483794"><ele>310.14285714285717</ele><time>2026-04-25T11:23:30.001Z</time></trkpt><trkpt lat="45.94746810721571" lon="12.151567663433797"><ele>304.2857142857143</ele><time>2026-04-25T11:23:31.001Z</time></trkpt><trkpt lat="45.94743685544717" lon="12.151470807292807"><ele>298.42857142857144</ele><time>2026-04-25T11:23:32.001Z</time></trkpt><trkpt lat="45.947407346065106" lon="12.15137512690015"><ele>292.57142857142856</ele><time>2026-04-25T11:23:33.001Z</time></trkpt><trkpt lat="45.947380612592205" lon="12.151270585327206"><ele>286.7142857142857</ele><time>2026-04-25T11:23:34.001Z</time></trkpt><trkpt lat="45.94737270898075" lon="12.151169807744044"><ele>280.8571428571429</ele><time>2026-04-25T11:23:35.001Z</time></trkpt><trkpt lat="45.94736702317076" lon="12.151071816176325"><ele>275.0</ele><time>2026-04-25T11:23:36.001Z</time></trkpt><trkpt lat="45.947384122436034" lon="12.150956530914442"><ele>275.0</ele><time>2026-04-25T11:23:37.001Z</time></trkpt><trkpt lat="45.947415063922236" lon="12.15085707489509"><ele>275.0</ele><time>2026-04-25T11:23:38.001Z</time></trkpt><trkpt lat="45.94745576304068" lon="12.150776711552508"><ele>275.0</ele><time>2026-04-25T11:23:39.001Z</time></trkpt><trkpt lat="45.947504842774585" lon="12.150695002445994"><ele>275.0</ele><time>2026-04-25T11:23:40.001Z</time></trkpt><trkpt lat="45.94756043591885" lon="12.150619325820061"><ele>275.0</ele><time>2026-04-25T11:23:41.001Z</time></trkpt><trkpt lat="45.94760257011805" lon="12.150533262274486"><ele>275.0</ele><time>2026-04-25T11:23:42.001Z</time></trkpt><trkpt lat="45.94762727123369" lon="12.150444040162942"><ele>275.0</ele><time>2026-04-25T11:23:43.001Z</time></trkpt><trkpt lat="45.94763952865824" lon="12.150338132619735"><ele>274.6666666666667</ele><time>2026-04-25T11:23:44.001Z</time></trkpt><trkpt lat="45.947627793844234" lon="12.150233225742086"><ele>274.33333333333337</ele><time>2026-04-25T11:23:45.001Z</time></trkpt><trkpt lat="45.94760528247655" lon="12.150138048090284"><ele>274.0</ele><time>2026-04-25T11:23:46.001Z</time></trkpt><trkpt lat="45.947574611157705" lon="12.150057713197361"><ele>273.6666666666667</ele><time>2026-04-25T11:23:47.001Z</time></trkpt><trkpt lat="45.94750408333731" lon="12.149915372436714"><ele>273.3333333333333</ele><time>2026-04-25T11:23:49.001Z</time></trkpt><trkpt lat="45.9474391981579" lon="12.14978620746788"><ele>273.0</ele><time>2026-04-25T11:23:51.001Z</time></trkpt><trkpt lat="45.947353587804415" lon="12.149680504765245"><ele>278.6</ele><time>2026-04-25T11:23:53.001Z</time></trkpt><trkpt lat="45.94726069606232" lon="12.149591975218984"><ele>284.20000000000005</ele><time>2026-04-25T11:23:55.001Z</time></trkpt><trkpt lat="45.94717874089296" lon="12.149582815588767"><ele>289.8</ele><time>2026-04-25T11:23:57.001Z</time></trkpt><trkpt lat="45.94708860150384" lon="12.149489771484825"><ele>295.40000000000003</ele><time>2026-04-25T11:23:59.001Z</time></trkpt><trkpt lat="45.947039790525004" lon="12.149366897236575"><ele>301.0</ele><time>2026-04-25T11:24:01.001Z</time></trkpt><trkpt lat="45.946972920714806" lon="12.149236861107198"><ele>301.0</ele><time>2026-04-25T11:24:03.001Z</time></trkpt><trkpt lat="45.946919586538804" lon="12.149123117023803"><ele>301.0</ele><time>2026-04-25T11:24:05.001Z</time></trkpt><trkpt lat="45.94689789179498" lon="12.148941717289121"><ele>301.0</ele><time>2026-04-25T11:24:07.001Z</time></trkpt><trkpt lat="45.94690655392439" lon="12.148774791144026"><ele>301.0</ele><time>2026-04-25T11:24:09.001Z</time></trkpt><trkpt lat="45.94691730042716" lon="12.148679199764606"><ele>301.0</ele><time>2026-04-25T11:24:10.001Z</time></trkpt><trkpt lat="45.94693194851088" lon="12.148577181123867"><ele>302.3333333333333</ele><time>2026-04-25T11:24:11.001Z</time></trkpt><trkpt lat="45.94693309182051" lon="12.148470771837236"><ele>303.66666666666663</ele><time>2026-04-25T11:24:12.001Z</time></trkpt><trkpt lat="45.94690556801926" lon="12.14836182426032"><ele>305.0</ele><time>2026-04-25T11:24:13.001Z</time></trkpt><trkpt lat="45.94686915367116" lon="12.148275680030832"><ele>306.3333333333333</ele><time>2026-04-25T11:24:14.001Z</time></trkpt><trkpt lat="45.94682235660788" lon="12.148200831691536"><ele>307.6666666666667</ele><time>2026-04-25T11:24:15.001Z</time></trkpt><trkpt lat="45.94678026713595" lon="12.148123854800435"><ele>309.0</ele><time>2026-04-25T11:24:16.001Z</time></trkpt><trkpt lat="45.946705933811" lon="12.147979591087887"><ele>305.6666666666667</ele><time>2026-04-25T11:24:18.001Z</time></trkpt><trkpt lat="45.946660758036884" lon="12.147909737339619"><ele>302.3333333333333</ele><time>2026-04-25T11:24:19.001Z</time></trkpt><trkpt lat="45.94661704869151" lon="12.147839834965128"><ele>299.0</ele><time>2026-04-25T11:24:20.001Z</time></trkpt><trkpt lat="45.94657111188401" lon="12.147769926704823"><ele>295.66666666666663</ele><time>2026-04-25T11:24:21.001Z</time></trkpt><trkpt lat="45.94648442670368" lon="12.147643105658103"><ele>292.3333333333333</ele><time>2026-04-25T11:24:23.001Z</time></trkpt><trkpt lat="45.9464338627392" lon="12.147582319721565"><ele>289.0</ele><time>2026-04-25T11:24:24.001Z</time></trkpt><trkpt lat="45.94638501493653" lon="12.147518839970871"><ele>289.0</ele><time>2026-04-25T11:24:25.001Z</time></trkpt><trkpt lat="45.946278001941856" lon="12.14743060782161"><ele>289.0</ele><time>2026-04-25T11:24:27.001Z</time></trkpt><trkpt lat="45.94617573467242" lon="12.147322861248748"><ele>289.0</ele><time>2026-04-25T11:24:29.001Z</time></trkpt><trkpt lat="45.94613315436405" lon="12.147241672272477"><ele>289.0</ele><time>2026-04-25T11:24:30.001Z</time></trkpt><trkpt lat="45.94610650999317" lon="12.147135937246203"><ele>289.0</ele><time>2026-04-25T11:24:31.001Z</time></trkpt><trkpt lat="45.94607802865382" lon="12.147039058921754"><ele>289.0</ele><time>2026-04-25T11:24:32.001Z</time></trkpt><trkpt lat="45.94605335139707" lon="12.146941956361328"><ele>289.0</ele><time>2026-04-25T11:24:33.001Z</time></trkpt><trkpt lat="45.94603604086586" lon="12.146838124023857"><ele>289.0</ele><time>2026-04-25T11:24:34.001Z</time></trkpt><trkpt lat="45.94601108886844" lon="12.146742011017237"><ele>289.0</ele><time>2026-04-25T11:24:35.001Z</time></trkpt><trkpt lat="45.94598806708181" lon="12.146642435567406"><ele>289.0</ele><time>2026-04-25T11:24:36.001Z</time></trkpt><trkpt lat="45.94596141185806" lon="12.146539508447749"><ele>289.0</ele><time>2026-04-25T11:24:37.001Z</time></trkpt><trkpt lat="45.94593666198637" lon="12.146437399682833"><ele>289.0</ele><time>2026-04-25T11:24:38.001Z</time></trkpt><trkpt lat="45.94590814917335" lon="12.146335359495556"><ele>287.3333333333333</ele><time>2026-04-25T11:24:39.001Z</time></trkpt><trkpt lat="45.945868139650024" lon="12.146243209674473"><ele>285.66666666666663</ele><time>2026-04-25T11:24:40.001Z</time></trkpt><trkpt lat="45.945814684395806" lon="12.14615823810284"><ele>284.0</ele><time>2026-04-25T11:24:41.001Z</time></trkpt><trkpt lat="45.9457503600368" lon="12.14608764911635"><ele>282.3333333333333</ele><time>2026-04-25T11:24:42.001Z</time></trkpt><trkpt lat="45.94568337644175" lon="12.146025691284972"><ele>280.6666666666667</ele><time>2026-04-25T11:24:43.001Z</time></trkpt><trkpt lat="45.94561295103322" lon="12.145973272181466"><ele>279.0</ele><time>2026-04-25T11:24:44.001Z</time></trkpt><trkpt lat="45.94553511349493" lon="12.145930975873911"><ele>279.0</ele><time>2026-04-25T11:24:45.001Z</time></trkpt><trkpt lat="45.94545068909826" lon="12.145908298140977"><ele>279.0</ele><time>2026-04-25T11:24:46.001Z</time></trkpt><trkpt lat="45.94536371882287" lon="12.145896945102198"><ele>279.0</ele><time>2026-04-25T11:24:47.001Z</time></trkpt><trkpt lat="45.94527361236862" lon="12.145901607840997"><ele>279.0</ele><time>2026-04-25T11:24:48.001Z</time></trkpt><trkpt lat="45.94518378868441" lon="12.145906755507568"><ele>279.0</ele><time>2026-04-25T11:24:49.001Z</time></trkpt><trkpt lat="45.9450954051626" lon="12.145908576989061"><ele>279.0</ele><time>2026-04-25T11:24:50.001Z</time></trkpt><trkpt lat="45.94500641049848" lon="12.145902623807109"><ele>277.2</ele><time>2026-04-25T11:24:51.001Z</time></trkpt><trkpt lat="45.944915384552345" lon="12.145901824993995"><ele>275.4</ele><time>2026-04-25T11:24:52.001Z</time></trkpt><trkpt lat="45.94482238652658" lon="12.145897031070987"><ele>273.6</ele><time>2026-04-25T11:24:53.001Z</time></trkpt><trkpt lat="45.94472349376599" lon="12.14588200612133"><ele>271.8</ele><time>2026-04-25T11:24:54.001Z</time></trkpt><trkpt lat="45.944629866903135" lon="12.145879305133734"><ele>270.0</ele><time>2026-04-25T11:24:55.001Z</time></trkpt><trkpt lat="45.94452940202189" lon="12.145875719368451"><ele>270.0</ele><time>2026-04-25T11:24:56.001Z</time></trkpt><trkpt lat="45.94443009093341" lon="12.145864476786693"><ele>270.0</ele><time>2026-04-25T11:24:57.001Z</time></trkpt><trkpt lat="45.94433154828096" lon="12.145849063581574"><ele>270.0</ele><time>2026-04-25T11:24:58.001Z</time></trkpt><trkpt lat="45.94423516295009" lon="12.145819312173403"><ele>270.0</ele><time>2026-04-25T11:24:59.001Z</time></trkpt><trkpt lat="45.944140045249696" lon="12.145780744723504"><ele>270.0</ele><time>2026-04-25T11:25:00.001Z</time></trkpt><trkpt lat="45.94404607339429" lon="12.145736421734275"><ele>269.0</ele><time>2026-04-25T11:25:01.001Z</time></trkpt><trkpt lat="45.94395406553062" lon="12.145695425151303"><ele>268.0</ele><time>2026-04-25T11:25:02.001Z</time></trkpt><trkpt lat="45.94386019149189" lon="12.145664672711892"><ele>267.0</ele><time>2026-04-25T11:25:03.001Z</time></trkpt><trkpt lat="45.94376483956628" lon="12.145639425513986"><ele>266.0</ele><time>2026-04-25T11:25:04.001Z</time></trkpt><trkpt lat="45.94367434482087" lon="12.145631100557784"><ele>265.0</ele><time>2026-04-25T11:25:05.001Z</time></trkpt><trkpt lat="45.943575514986684" lon="12.145627509829957"><ele>265.0</ele><time>2026-04-25T11:25:06.001Z</time></trkpt><trkpt lat="45.943478619727486" lon="12.14562697208339"><ele>265.0</ele><time>2026-04-25T11:25:07.001Z</time></trkpt><trkpt lat="45.943380377347694" lon="12.145623290238145"><ele>265.0</ele><time>2026-04-25T11:25:08.001Z</time></trkpt><trkpt lat="45.94328858649208" lon="12.145620979521308"><ele>265.0</ele><time>2026-04-25T11:25:09.001Z</time></trkpt><trkpt lat="45.943196234266345" lon="12.145619640667"><ele>265.0</ele><time>2026-04-25T11:25:10.001Z</time></trkpt><trkpt lat="45.94310171571315" lon="12.145616927065268"><ele>264.2</ele><time>2026-04-25T11:25:11.001Z</time></trkpt><trkpt lat="45.94300701708597" lon="12.145618638211511"><ele>263.4</ele><time>2026-04-25T11:25:12.001Z</time></trkpt><trkpt lat="45.94291478473576" lon="12.145617281122886"><ele>262.6</ele><time>2026-04-25T11:25:13.001Z</time></trkpt><trkpt lat="45.94282212329356" lon="12.14561662007356"><ele>261.8</ele><time>2026-04-25T11:25:14.001Z</time></trkpt><trkpt lat="45.94273254422534" lon="12.145618123631369"><ele>261.0</ele><time>2026-04-25T11:25:15.001Z</time></trkpt><trkpt lat="45.942641386670005" lon="12.145617143297748"><ele>261.0</ele><time>2026-04-25T11:25:16.001Z</time></trkpt><trkpt lat="45.942552040457166" lon="12.145620771265"><ele>261.0</ele><time>2026-04-25T11:25:17.001Z</time></trkpt><trkpt lat="45.94246526664758" lon="12.14560708490084"><ele>261.0</ele><time>2026-04-25T11:25:18.001Z</time></trkpt><trkpt lat="45.942374132217964" lon="12.14560100128109"><ele>261.0</ele><time>2026-04-25T11:25:19.001Z</time></trkpt><trkpt lat="45.94228792568059" lon="12.145606042303823"><ele>261.0</ele><time>2026-04-25T11:25:20.001Z</time></trkpt><trkpt lat="45.94220152109382" lon="12.145608002715134"><ele>261.0</ele><time>2026-04-25T11:25:21.001Z</time></trkpt><trkpt lat="45.9421159027577" lon="12.145610709782519"><ele>261.1666666666667</ele><time>2026-04-25T11:25:22.001Z</time></trkpt><trkpt lat="45.9420322362834" lon="12.145601934190065"><ele>261.3333333333333</ele><time>2026-04-25T11:25:23.001Z</time></trkpt><trkpt lat="45.94193920401907" lon="12.145593255340428"><ele>261.5</ele><time>2026-04-25T11:25:24.001Z</time></trkpt><trkpt lat="45.94185107765751" lon="12.145591461665937"><ele>261.66666666666663</ele><time>2026-04-25T11:25:25.001Z</time></trkpt><trkpt lat="45.941763234656975" lon="12.145588749610742"><ele>261.8333333333333</ele><time>2026-04-25T11:25:26.001Z</time></trkpt><trkpt lat="45.94167530231438" lon="12.145585148193586"><ele>262.0</ele><time>2026-04-25T11:25:27.001Z</time></trkpt><trkpt lat="45.941586922427085" lon="12.14558234110263"><ele>262.16666666666663</ele><time>2026-04-25T11:25:28.001Z</time></trkpt><trkpt lat="45.941497653609794" lon="12.145589000803215"><ele>262.3333333333333</ele><time>2026-04-25T11:25:29.001Z</time></trkpt><trkpt lat="45.94141183702175" lon="12.145588944647066"><ele>262.5</ele><time>2026-04-25T11:25:30.001Z</time></trkpt><trkpt lat="45.94132275992004" lon="12.14558301909782"><ele>262.6666666666667</ele><time>2026-04-25T11:25:31.001Z</time></trkpt><trkpt lat="45.941236963322055" lon="12.145562084067462"><ele>262.83333333333337</ele><time>2026-04-25T11:25:32.001Z</time></trkpt><trkpt lat="45.94115080737482" lon="12.145544804534781"><ele>263.0</ele><time>2026-04-25T11:25:33.001Z</time></trkpt><trkpt lat="45.94106068343722" lon="12.145540639202395"><ele>263.0</ele><time>2026-04-25T11:25:34.001Z</time></trkpt><trkpt lat="45.940977832359465" lon="12.145544456158559"><ele>263.0</ele><time>2026-04-25T11:25:35.001Z</time></trkpt><trkpt lat="45.94089106757281" lon="12.145552729780372"><ele>263.0</ele><time>2026-04-25T11:25:36.001Z</time></trkpt><trkpt lat="45.940803798308906" lon="12.145557248680777"><ele>263.0</ele><time>2026-04-25T11:25:37.001Z</time></trkpt><trkpt lat="45.94071052088879" lon="12.145578939754255"><ele>263.0</ele><time>2026-04-25T11:25:38.001Z</time></trkpt><trkpt lat="45.940615257322875" lon="12.145602717135247"><ele>263.0</ele><time>2026-04-25T11:25:39.001Z</time></trkpt><trkpt lat="45.94051914984307" lon="12.145627134934566"><ele>262.2</ele><time>2026-04-25T11:25:40.001Z</time></trkpt><trkpt lat="45.940419727724645" lon="12.145651662997034"><ele>261.4</ele><time>2026-04-25T11:25:41.001Z</time></trkpt><trkpt lat="45.940316916408584" lon="12.145668738606709"><ele>260.59999999999997</ele><time>2026-04-25T11:25:42.001Z</time></trkpt><trkpt lat="45.940212460891544" lon="12.145679011033964"><ele>259.8</ele><time>2026-04-25T11:25:43.001Z</time></trkpt><trkpt lat="45.9401056706448" lon="12.145703323708519"><ele>259.0</ele><time>2026-04-25T11:25:44.001Z</time></trkpt><trkpt lat="45.93999642103509" lon="12.145731850875864"><ele>257.8</ele><time>2026-04-25T11:25:45.001Z</time></trkpt><trkpt lat="45.93989522207005" lon="12.145746961675592"><ele>256.59999999999997</ele><time>2026-04-25T11:25:46.001Z</time></trkpt><trkpt lat="45.93979438221187" lon="12.145757998353115"><ele>255.4</ele><time>2026-04-25T11:25:47.001Z</time></trkpt><trkpt lat="45.93968998423437" lon="12.145784298743916"><ele>254.2</ele><time>2026-04-25T11:25:48.001Z</time></trkpt><trkpt lat="45.93958559015141" lon="12.145815042753485"><ele>253.0</ele><time>2026-04-25T11:25:49.001Z</time></trkpt><trkpt lat="45.93948260023492" lon="12.145840750186558"><ele>253.0</ele><time>2026-04-25T11:25:50.001Z</time></trkpt><trkpt lat="45.939379275686264" lon="12.145869543321522"><ele>253.0</ele><time>2026-04-25T11:25:51.001Z</time></trkpt><trkpt lat="45.939277190193465" lon="12.145903440506855"><ele>253.0</ele><time>2026-04-25T11:25:52.001Z</time></trkpt><trkpt lat="45.93916878999147" lon="12.145922455551204"><ele>253.0</ele><time>2026-04-25T11:25:53.001Z</time></trkpt><trkpt lat="45.939062544342235" lon="12.145947947613672"><ele>253.0</ele><time>2026-04-25T11:25:54.001Z</time></trkpt><trkpt lat="45.938960738297375" lon="12.145976446038983"><ele>252.60000000000002</ele><time>2026-04-25T11:25:55.001Z</time></trkpt><trkpt lat="45.93885834183518" lon="12.146008125042949"><ele>252.20000000000002</ele><time>2026-04-25T11:25:56.001Z</time></trkpt><trkpt lat="45.93875504484089" lon="12.14603354995307"><ele>251.8</ele><time>2026-04-25T11:25:57.001Z</time></trkpt><trkpt lat="45.938653596219815" lon="12.146051420037422"><ele>251.4</ele><time>2026-04-25T11:25:58.001Z</time></trkpt><trkpt lat="45.938545205598935" lon="12.146069681202109"><ele>251.0</ele><time>2026-04-25T11:25:59.001Z</time></trkpt><trkpt lat="45.93844206406288" lon="12.146085362703829"><ele>250.0</ele><time>2026-04-25T11:26:00.001Z</time></trkpt><trkpt lat="45.93833529658829" lon="12.146098763753843"><ele>249.00000000000003</ele><time>2026-04-25T11:26:01.001Z</time></trkpt><trkpt lat="45.93823128832654" lon="12.146112264630226"><ele>248.00000000000003</ele><time>2026-04-25T11:26:02.001Z</time></trkpt><trkpt lat="45.93813025009974" lon="12.146119760346116"><ele>247.0</ele><time>2026-04-25T11:26:03.001Z</time></trkpt><trkpt lat="45.938024071856304" lon="12.14612924524828"><ele>246.0</ele><time>2026-04-25T11:26:04.001Z</time></trkpt><trkpt lat="45.93792119255315" lon="12.14613928008601"><ele>246.0</ele><time>2026-04-25T11:26:05.001Z</time></trkpt><trkpt lat="45.93781732101725" lon="12.146146609183985"><ele>246.00000000000003</ele><time>2026-04-25T11:26:06.001Z</time></trkpt><trkpt lat="45.93771685125625" lon="12.146157661998922"><ele>246.00000000000003</ele><time>2026-04-25T11:26:07.001Z</time></trkpt><trkpt lat="45.937616656537145" lon="12.146175277289734"><ele>246.0</ele><time>2026-04-25T11:26:08.001Z</time></trkpt><trkpt lat="45.93752276176583" lon="12.146215618070832"><ele>246.0</ele><time>2026-04-25T11:26:09.001Z</time></trkpt><trkpt lat="45.937434409890365" lon="12.146276501999516"><ele>245.4</ele><time>2026-04-25T11:26:10.001Z</time></trkpt><trkpt lat="45.93735131550194" lon="12.146346265318156"><ele>244.8</ele><time>2026-04-25T11:26:11.001Z</time></trkpt><trkpt lat="45.937272336241385" lon="12.14643828965216"><ele>244.20000000000002</ele><time>2026-04-25T11:26:12.001Z</time></trkpt><trkpt lat="45.93719564927583" lon="12.146527511759505"><ele>243.60000000000002</ele><time>2026-04-25T11:26:13.001Z</time></trkpt><trkpt lat="45.937115232784606" lon="12.146625516224061"><ele>243.0</ele><time>2026-04-25T11:26:14.001Z</time></trkpt><trkpt lat="45.93703398461702" lon="12.146712399168267"><ele>242.8</ele><time>2026-04-25T11:26:15.001Z</time></trkpt><trkpt lat="45.93694234861202" lon="12.146780166674299"><ele>242.60000000000002</ele><time>2026-04-25T11:26:16.001Z</time></trkpt><trkpt lat="45.936840698588846" lon="12.146829626745324"><ele>242.39999999999998</ele><time>2026-04-25T11:26:17.001Z</time></trkpt><trkpt lat="45.93673752992007" lon="12.146857604598797"><ele>242.2</ele><time>2026-04-25T11:26:18.001Z</time></trkpt><trkpt lat="45.93663163631657" lon="12.146863213900378"><ele>242.0</ele><time>2026-04-25T11:26:19.001Z</time></trkpt><trkpt lat="45.93652685423235" lon="12.146863156324937"><ele>241.39999999999998</ele><time>2026-04-25T11:26:20.001Z</time></trkpt><trkpt lat="45.936422755230836" lon="12.146866235248792"><ele>240.79999999999998</ele><time>2026-04-25T11:26:21.001Z</time></trkpt><trkpt lat="45.93632112175715" lon="12.146872292361945"><ele>240.2</ele><time>2026-04-25T11:26:22.001Z</time></trkpt><trkpt lat="45.936216785991746" lon="12.14687413425677"><ele>239.6</ele><time>2026-04-25T11:26:23.001Z</time></trkpt><trkpt lat="45.936117959463225" lon="12.146869307311698"><ele>239.0</ele><time>2026-04-25T11:26:24.001Z</time></trkpt><trkpt lat="45.93601033382259" lon="12.146877834281952"><ele>239.0</ele><time>2026-04-25T11:26:25.001Z</time></trkpt><trkpt lat="45.935906732949576" lon="12.146876578298832"><ele>238.99999999999997</ele><time>2026-04-25T11:26:26.001Z</time></trkpt><trkpt lat="45.93580377390452" lon="12.146862204725261"><ele>238.99999999999997</ele><time>2026-04-25T11:26:27.001Z</time></trkpt><trkpt lat="45.93570059406584" lon="12.146832951152978"><ele>239.0</ele><time>2026-04-25T11:26:28.001Z</time></trkpt><trkpt lat="45.93559675427904" lon="12.146789951465939"><ele>239.0</ele><time>2026-04-25T11:26:29.001Z</time></trkpt><trkpt lat="45.935498710275795" lon="12.1467337107592"><ele>238.6</ele><time>2026-04-25T11:26:30.001Z</time></trkpt><trkpt lat="45.93539734686438" lon="12.146671587777355"><ele>238.2</ele><time>2026-04-25T11:26:31.001Z</time></trkpt><trkpt lat="45.93529992425437" lon="12.146607217245998"><ele>237.79999999999998</ele><time>2026-04-25T11:26:32.001Z</time></trkpt><trkpt lat="45.9352069803959" lon="12.146540806941687"><ele>237.39999999999998</ele><time>2026-04-25T11:26:33.001Z</time></trkpt><trkpt lat="45.935127388386455" lon="12.1464507811381"><ele>237.0</ele><time>2026-04-25T11:26:34.001Z</time></trkpt><trkpt lat="45.935056282362616" lon="12.146357532959275"><ele>237.0</ele><time>2026-04-25T11:26:35.001Z</time></trkpt><trkpt lat="45.93500132494361" lon="12.146244387223504"><ele>237.0</ele><time>2026-04-25T11:26:36.001Z</time></trkpt><trkpt lat="45.93497332351779" lon="12.146131369313444"><ele>237.0</ele><time>2026-04-25T11:26:37.001Z</time></trkpt><trkpt lat="45.93499200460605" lon="12.145981147435164"><ele>237.0</ele><time>2026-04-25T11:26:38.001Z</time></trkpt><trkpt lat="45.93504370239244" lon="12.145858163872948"><ele>237.0</ele><time>2026-04-25T11:26:39.001Z</time></trkpt><trkpt lat="45.935070119937215" lon="12.145725196530641"><ele>235.0</ele><time>2026-04-25T11:26:40.001Z</time></trkpt><trkpt lat="45.93513130711608" lon="12.145604552233765"><ele>233.0</ele><time>2026-04-25T11:26:41.001Z</time></trkpt><trkpt lat="45.93520026107642" lon="12.145489023211951"><ele>231.0</ele><time>2026-04-25T11:26:42.001Z</time></trkpt><trkpt lat="45.93527282052634" lon="12.14536536638552"><ele>229.0</ele><time>2026-04-25T11:26:43.001Z</time></trkpt><trkpt lat="45.935339867945146" lon="12.145241615269777"><ele>227.0</ele><time>2026-04-25T11:26:44.001Z</time></trkpt><trkpt lat="45.93542347179274" lon="12.145121077763605"><ele>227.0</ele><time>2026-04-25T11:26:45.001Z</time></trkpt><trkpt lat="45.93550156295516" lon="12.144992113941411"><ele>227.0</ele><time>2026-04-25T11:26:46.001Z</time></trkpt><trkpt lat="45.93557093251772" lon="12.144838229964567"><ele>227.0</ele><time>2026-04-25T11:26:47.001Z</time></trkpt><trkpt lat="45.93566528773411" lon="12.144712146719641"><ele>227.0</ele><time>2026-04-25T11:26:48.001Z</time></trkpt><trkpt lat="45.935738196835395" lon="12.14454760184287"><ele>228.0</ele><time>2026-04-25T11:26:49.001Z</time></trkpt><trkpt lat="45.93581197796432" lon="12.144386548628935"><ele>229.0</ele><time>2026-04-25T11:26:50.001Z</time></trkpt><trkpt lat="45.93587509696115" lon="12.144217646873763"><ele>230.0</ele><time>2026-04-25T11:26:51.001Z</time></trkpt><trkpt lat="45.93595956008385" lon="12.14405575936692"><ele>231.0</ele><time>2026-04-25T11:26:52.001Z</time></trkpt><trkpt lat="45.93603018565153" lon="12.143881163358555"><ele>227.75</ele><time>2026-04-25T11:26:53.001Z</time></trkpt><trkpt lat="45.93609912277822" lon="12.143707144434027"><ele>224.5</ele><time>2026-04-25T11:26:54.001Z</time></trkpt><trkpt lat="45.936170319826545" lon="12.143527420770388"><ele>221.25</ele><time>2026-04-25T11:26:55.001Z</time></trkpt><trkpt lat="45.93623787451451" lon="12.14335689157407"><ele>218.0</ele><time>2026-04-25T11:26:56.001Z</time></trkpt><trkpt lat="45.93630661229456" lon="12.143183117324492"><ele>215.25</ele><time>2026-04-25T11:26:57.001Z</time></trkpt><trkpt lat="45.9363754485092" lon="12.143008282807195"><ele>212.5</ele><time>2026-04-25T11:26:58.001Z</time></trkpt><trkpt lat="45.936444588848154" lon="12.142832675870322"><ele>209.75</ele><time>2026-04-25T11:26:59.001Z</time></trkpt><trkpt lat="45.93651380995111" lon="12.142656863791593"><ele>207.0</ele><time>2026-04-25T11:27:00.001Z</time></trkpt><trkpt lat="45.936583359288086" lon="12.142480047927894"><ele>208.75</ele><time>2026-04-25T11:27:01.001Z</time></trkpt><trkpt lat="45.93665340398907" lon="12.142296996065797"><ele>210.5</ele><time>2026-04-25T11:27:02.001Z</time></trkpt><trkpt lat="45.93671964230932" lon="12.142123891645515"><ele>212.25</ele><time>2026-04-25T11:27:03.001Z</time></trkpt><trkpt lat="45.936778092046374" lon="12.141961024438062"><ele>214.0</ele><time>2026-04-25T11:27:04.001Z</time></trkpt><trkpt lat="45.936827288084835" lon="12.141805684369558"><ele>214.0</ele><time>2026-04-25T11:27:05.001Z</time></trkpt><trkpt lat="45.93686706338825" lon="12.141636944676481"><ele>214.0</ele><time>2026-04-25T11:27:06.001Z</time></trkpt><trkpt lat="45.93688035464108" lon="12.14146061140289"><ele>214.0</ele><time>2026-04-25T11:27:07.001Z</time></trkpt><trkpt lat="45.936915878380056" lon="12.141292117652775"><ele>214.0</ele><time>2026-04-25T11:27:08.001Z</time></trkpt><trkpt lat="45.93694530748191" lon="12.141114794187882"><ele>210.0</ele><time>2026-04-25T11:27:09.001Z</time></trkpt><trkpt lat="45.936986036136595" lon="12.140936789742682"><ele>206.0</ele><time>2026-04-25T11:27:10.001Z</time></trkpt><trkpt lat="45.93703317399555" lon="12.14076290629578"><ele>202.0</ele><time>2026-04-25T11:27:11.001Z</time></trkpt><trkpt lat="45.93708323359562" lon="12.140583454559032"><ele>198.0</ele><time>2026-04-25T11:27:12.001Z</time></trkpt><trkpt lat="45.9371403707673" lon="12.140406833656403"><ele>196.5</ele><time>2026-04-25T11:27:13.001Z</time></trkpt><trkpt lat="45.93719483352881" lon="12.140225426227474"><ele>195.0</ele><time>2026-04-25T11:27:14.001Z</time></trkpt><trkpt lat="45.93724801951519" lon="12.140039912738308"><ele>193.5</ele><time>2026-04-25T11:27:15.001Z</time></trkpt><trkpt lat="45.93730121004829" lon="12.139849694532845"><ele>192.0</ele><time>2026-04-25T11:27:16.001Z</time></trkpt><trkpt lat="45.937357045610746" lon="12.13966023987376"><ele>189.5</ele><time>2026-04-25T11:27:17.001Z</time></trkpt><trkpt lat="45.937406394025494" lon="12.13948240297373"><ele>187.0</ele><time>2026-04-25T11:27:18.001Z</time></trkpt><trkpt lat="45.937455477584415" lon="12.1393161045903"><ele>184.5</ele><time>2026-04-25T11:27:19.001Z</time></trkpt><trkpt lat="45.9375017363499" lon="12.139159117001233"><ele>182.0</ele><time>2026-04-25T11:27:20.001Z</time></trkpt><trkpt lat="45.937551182601815" lon="12.138999982872347"><ele>182.75</ele><time>2026-04-25T11:27:21.001Z</time></trkpt><trkpt lat="45.93759679228512" lon="12.138836856740344"><ele>183.5</ele><time>2026-04-25T11:27:22.001Z</time></trkpt><trkpt lat="45.93764294923939" lon="12.138668074163187"><ele>184.25</ele><time>2026-04-25T11:27:23.001Z</time></trkpt><trkpt lat="45.937693573153325" lon="12.138498368727994"><ele>185.0</ele><time>2026-04-25T11:27:24.001Z</time></trkpt><trkpt lat="45.93774364617335" lon="12.138335302040273"><ele>182.75</ele><time>2026-04-25T11:27:25.001Z</time></trkpt><trkpt lat="45.937799381458596" lon="12.138168343179705"><ele>180.5</ele><time>2026-04-25T11:27:26.001Z</time></trkpt><trkpt lat="45.93786642153484" lon="12.13801087825264"><ele>178.25</ele><time>2026-04-25T11:27:27.001Z</time></trkpt><trkpt lat="45.93792531507332" lon="12.137865844499787"><ele>176.0</ele><time>2026-04-25T11:27:28.001Z</time></trkpt><trkpt lat="45.937984530065656" lon="12.137714565246277"><ele>176.0</ele><time>2026-04-25T11:27:29.001Z</time></trkpt><trkpt lat="45.9380279416999" lon="12.137562939144834"><ele>176.0</ele><time>2026-04-25T11:27:30.001Z</time></trkpt><trkpt lat="45.93805876463045" lon="12.1374123943122"><ele>176.0</ele><time>2026-04-25T11:27:31.001Z</time></trkpt><trkpt lat="45.93808048477001" lon="12.137265355125852"><ele>176.0</ele><time>2026-04-25T11:27:32.001Z</time></trkpt><trkpt lat="45.93808200554489" lon="12.137128403654351"><ele>176.0</ele><time>2026-04-25T11:27:33.001Z</time></trkpt><trkpt lat="45.938076602966156" lon="12.137011670129544"><ele>175.5</ele><time>2026-04-25T11:27:34.001Z</time></trkpt><trkpt lat="45.938068201998675" lon="12.136893478749416"><ele>175.0</ele><time>2026-04-25T11:27:35.001Z</time></trkpt><trkpt lat="45.93806545875035" lon="12.136772835611232"><ele>174.5</ele><time>2026-04-25T11:27:36.001Z</time></trkpt><trkpt lat="45.938044772526744" lon="12.136650248369813"><ele>174.0</ele><time>2026-04-25T11:27:37.001Z</time></trkpt><trkpt lat="45.93802392072714" lon="12.136529851886987"><ele>173.5</ele><time>2026-04-25T11:27:38.001Z</time></trkpt><trkpt lat="45.93800304819693" lon="12.136409335714244"><ele>173.0</ele><time>2026-04-25T11:27:39.001Z</time></trkpt><trkpt lat="45.93796622872761" lon="12.136293852411594"><ele>172.83333333333331</ele><time>2026-04-25T11:27:40.001Z</time></trkpt><trkpt lat="45.93794403288298" lon="12.136176631551974"><ele>172.66666666666666</ele><time>2026-04-25T11:27:41.001Z</time></trkpt><trkpt lat="45.937922389588635" lon="12.136058953509023"><ele>172.5</ele><time>2026-04-25T11:27:42.001Z</time></trkpt><trkpt lat="45.937897970403206" lon="12.135940423941605"><ele>172.33333333333334</ele><time>2026-04-25T11:27:43.001Z</time></trkpt><trkpt lat="45.93787761569113" lon="12.135823769953072"><ele>172.16666666666669</ele><time>2026-04-25T11:27:44.001Z</time></trkpt><trkpt lat="45.93786227083131" lon="12.135703670183702"><ele>172.0</ele><time>2026-04-25T11:27:45.001Z</time></trkpt><trkpt lat="45.937847619198706" lon="12.135586778160123"><ele>171.6</ele><time>2026-04-25T11:27:46.001Z</time></trkpt><trkpt lat="45.93782862349415" lon="12.135476241905607"><ele>171.2</ele><time>2026-04-25T11:27:47.001Z</time></trkpt><trkpt lat="45.93778407065119" lon="12.135409881983028"><ele>170.8</ele><time>2026-04-25T11:27:48.001Z</time></trkpt><trkpt lat="45.93779951177528" lon="12.135262832287554"><ele>170.4</ele><time>2026-04-25T11:27:50.001Z</time></trkpt><trkpt lat="45.93786184510746" lon="12.135155783737533"><ele>170.0</ele><time>2026-04-25T11:27:52.001Z</time></trkpt><trkpt lat="45.93794521667851" lon="12.135060278349508"><ele>170.0</ele><time>2026-04-25T11:27:54.001Z</time></trkpt><trkpt lat="45.93802567326567" lon="12.134938161937946"><ele>170.0</ele><time>2026-04-25T11:27:56.001Z</time></trkpt><trkpt lat="45.938112251136545" lon="12.134815630330099"><ele>170.0</ele><time>2026-04-25T11:27:58.001Z</time></trkpt><trkpt lat="45.9381578363594" lon="12.134751232330887"><ele>170.0</ele><time>2026-04-25T11:27:59.001Z</time></trkpt><trkpt lat="45.93824672597751" lon="12.134618948162462"><ele>170.0</ele><time>2026-04-25T11:28:01.001Z</time></trkpt><trkpt lat="45.9382889984415" lon="12.13455025270556"><ele>169.83333333333331</ele><time>2026-04-25T11:28:02.001Z</time></trkpt><trkpt lat="45.938379841730104" lon="12.134430687159695"><ele>169.66666666666666</ele><time>2026-04-25T11:28:04.001Z</time></trkpt><trkpt lat="45.93842687241163" lon="12.134357619277157"><ele>169.5</ele><time>2026-04-25T11:28:05.001Z</time></trkpt><trkpt lat="45.93847164730218" lon="12.134288493237532"><ele>169.33333333333334</ele><time>2026-04-25T11:28:06.001Z</time></trkpt><trkpt lat="45.93851802193264" lon="12.134218166118117"><ele>169.16666666666669</ele><time>2026-04-25T11:28:07.001Z</time></trkpt><trkpt lat="45.93856433605499" lon="12.13415044775927"><ele>169.0</ele><time>2026-04-25T11:28:08.001Z</time></trkpt><trkpt lat="45.938618810816735" lon="12.134087290727894"><ele>169.14285714285714</ele><time>2026-04-25T11:28:09.001Z</time></trkpt><trkpt lat="45.93866740300716" lon="12.13401991252264"><ele>169.28571428571428</ele><time>2026-04-25T11:28:10.001Z</time></trkpt><trkpt lat="45.938716886372156" lon="12.133955563090204"><ele>169.42857142857144</ele><time>2026-04-25T11:28:11.001Z</time></trkpt><trkpt lat="45.93876507735317" lon="12.133885473168379"><ele>169.57142857142856</ele><time>2026-04-25T11:28:12.001Z</time></trkpt><trkpt lat="45.93880614655594" lon="12.13381399559639"><ele>169.7142857142857</ele><time>2026-04-25T11:28:13.001Z</time></trkpt><trkpt lat="45.93885430307878" lon="12.133750203524777"><ele>169.85714285714286</ele><time>2026-04-25T11:28:14.001Z</time></trkpt><trkpt lat="45.938906851006436" lon="12.13367950439578"><ele>170.0</ele><time>2026-04-25T11:28:15.001Z</time></trkpt><trkpt lat="45.93895485593491" lon="12.133611788495484"><ele>170.0</ele><time>2026-04-25T11:28:16.001Z</time></trkpt><trkpt lat="45.939005593235585" lon="12.133541510998635"><ele>170.0</ele><time>2026-04-25T11:28:17.001Z</time></trkpt><trkpt lat="45.93905308945532" lon="12.133471346616767"><ele>170.0</ele><time>2026-04-25T11:28:18.001Z</time></trkpt><trkpt lat="45.939101920371996" lon="12.133405497067166"><ele>170.0</ele><time>2026-04-25T11:28:19.001Z</time></trkpt><trkpt lat="45.93915289943866" lon="12.133336492874673"><ele>170.0</ele><time>2026-04-25T11:28:20.001Z</time></trkpt><trkpt lat="45.93920449559617" lon="12.133275689929883"><ele>170.0</ele><time>2026-04-25T11:28:21.001Z</time></trkpt><trkpt lat="45.93925392592644" lon="12.133206726959564"><ele>170.0</ele><time>2026-04-25T11:28:22.001Z</time></trkpt><trkpt lat="45.939302016798486" lon="12.13313073392099"><ele>169.85714285714286</ele><time>2026-04-25T11:28:23.001Z</time></trkpt><trkpt lat="45.939355514984754" lon="12.133068680130537"><ele>169.7142857142857</ele><time>2026-04-25T11:28:24.001Z</time></trkpt><trkpt lat="45.939406489940104" lon="12.132995549035577"><ele>169.57142857142856</ele><time>2026-04-25T11:28:25.001Z</time></trkpt><trkpt lat="45.93945836011789" lon="12.132928849533332"><ele>169.42857142857144</ele><time>2026-04-25T11:28:26.001Z</time></trkpt><trkpt lat="45.939511694626" lon="12.1328597012696"><ele>169.28571428571428</ele><time>2026-04-25T11:28:27.001Z</time></trkpt><trkpt lat="45.93955976649755" lon="12.13278890004683"><ele>169.14285714285714</ele><time>2026-04-25T11:28:28.001Z</time></trkpt><trkpt lat="45.939603948421556" lon="12.13271437407961"><ele>169.0</ele><time>2026-04-25T11:28:29.001Z</time></trkpt><trkpt lat="45.93965463340122" lon="12.132645842180185"><ele>169.0</ele><time>2026-04-25T11:28:30.001Z</time></trkpt><trkpt lat="45.93970816863052" lon="12.132580145756062"><ele>169.0</ele><time>2026-04-25T11:28:31.001Z</time></trkpt><trkpt lat="45.939754677025924" lon="12.132511384511607"><ele>169.0</ele><time>2026-04-25T11:28:32.001Z</time></trkpt><trkpt lat="45.93980253800928" lon="12.13244340453664"><ele>169.0</ele><time>2026-04-25T11:28:33.001Z</time></trkpt><trkpt lat="45.939852513663524" lon="12.13237609845092"><ele>169.0</ele><time>2026-04-25T11:28:34.001Z</time></trkpt><trkpt lat="45.93989777156093" lon="12.132307353662107"><ele>169.0</ele><time>2026-04-25T11:28:35.001Z</time></trkpt><trkpt lat="45.93995146794519" lon="12.132242603228715"><ele>169.0</ele><time>2026-04-25T11:28:36.001Z</time></trkpt><trkpt lat="45.940001149998366" lon="12.132173914521292"><ele>169.0</ele><time>2026-04-25T11:28:37.001Z</time></trkpt><trkpt lat="45.940049082871994" lon="12.132104410894161"><ele>169.0</ele><time>2026-04-25T11:28:38.001Z</time></trkpt><trkpt lat="45.94009345083196" lon="12.13203753512803"><ele>169.0</ele><time>2026-04-25T11:28:39.001Z</time></trkpt><trkpt lat="45.940140217671996" lon="12.131971178401434"><ele>169.0</ele><time>2026-04-25T11:28:40.001Z</time></trkpt><trkpt lat="45.940188068586735" lon="12.131907176638279"><ele>169.0</ele><time>2026-04-25T11:28:41.001Z</time></trkpt><trkpt lat="45.940234482828366" lon="12.131839832381477"><ele>169.0</ele><time>2026-04-25T11:28:42.001Z</time></trkpt><trkpt lat="45.94028114921865" lon="12.13176932768384"><ele>169.0</ele><time>2026-04-25T11:28:43.001Z</time></trkpt><trkpt lat="45.940325848776254" lon="12.131695065117148"><ele>169.0</ele><time>2026-04-25T11:28:44.001Z</time></trkpt><trkpt lat="45.94036692837942" lon="12.131624026336697"><ele>169.0</ele><time>2026-04-25T11:28:45.001Z</time></trkpt><trkpt lat="45.940395802195056" lon="12.131537964086405"><ele>169.0</ele><time>2026-04-25T11:28:46.001Z</time></trkpt><trkpt lat="45.940409863630684" lon="12.131438714445327"><ele>169.0</ele><time>2026-04-25T11:28:47.001Z</time></trkpt><trkpt lat="45.94039624774795" lon="12.131336056880263"><ele>169.0</ele><time>2026-04-25T11:28:48.001Z</time></trkpt><trkpt lat="45.940365717746324" lon="12.131239222737223"><ele>169.0</ele><time>2026-04-25T11:28:49.001Z</time></trkpt><trkpt lat="45.940299952572396" lon="12.131081087517552"><ele>169.0</ele><time>2026-04-25T11:28:51.001Z</time></trkpt><trkpt lat="45.94023910654506" lon="12.131027401316805"><ele>169.0</ele><time>2026-04-25T11:28:52.001Z</time></trkpt><trkpt lat="45.94017581081341" lon="12.130977978541374"><ele>169.0</ele><time>2026-04-25T11:28:53.001Z</time></trkpt><trkpt lat="45.94011823748737" lon="12.130921256542825"><ele>169.0</ele><time>2026-04-25T11:28:54.001Z</time></trkpt><trkpt lat="45.9400651826013" lon="12.130862930106868"><ele>169.0</ele><time>2026-04-25T11:28:55.001Z</time></trkpt><trkpt lat="45.94001236338167" lon="12.130806937115834"><ele>169.0</ele><time>2026-04-25T11:28:56.001Z</time></trkpt><trkpt lat="45.93995998859864" lon="12.130751840221174"><ele>169.0</ele><time>2026-04-25T11:28:57.001Z</time></trkpt><trkpt lat="45.93986291174954" lon="12.13063549742539"><ele>169.75</ele><time>2026-04-25T11:28:59.001Z</time></trkpt><trkpt lat="45.93977133023224" lon="12.130525126370982"><ele>170.5</ele><time>2026-04-25T11:29:01.001Z</time></trkpt><trkpt lat="45.939672666598504" lon="12.130432919246667"><ele>171.25</ele><time>2026-04-25T11:29:03.001Z</time></trkpt><trkpt lat="45.93957626591692" lon="12.130350160914084"><ele>172.0</ele><time>2026-04-25T11:29:05.001Z</time></trkpt><trkpt lat="45.93948770826437" lon="12.13026309881955"><ele>172.0</ele><time>2026-04-25T11:29:07.001Z</time></trkpt><trkpt lat="45.939404063402215" lon="12.130168505952321"><ele>172.0</ele><time>2026-04-25T11:29:09.001Z</time></trkpt><trkpt lat="45.93932489421225" lon="12.130102048080259"><ele>172.0</ele><time>2026-04-25T11:29:11.001Z</time></trkpt><trkpt lat="45.93925088412072" lon="12.130017718389139"><ele>172.0</ele><time>2026-04-25T11:29:13.001Z</time></trkpt><trkpt lat="45.93917040844637" lon="12.129935545476311"><ele>172.0</ele><time>2026-04-25T11:29:15.001Z</time></trkpt><trkpt lat="45.93909613353859" lon="12.12997409099427"><ele>171.83333333333334</ele><time>2026-04-25T11:29:17.001Z</time></trkpt><trkpt lat="45.939049200652796" lon="12.130107018933908"><ele>171.66666666666669</ele><time>2026-04-25T11:29:19.001Z</time></trkpt><trkpt lat="45.939045479690705" lon="12.130201624236737"><ele>171.5</ele><time>2026-04-25T11:29:20.001Z</time></trkpt><trkpt lat="45.939034732617834" lon="12.130319513531301"><ele>171.33333333333334</ele><time>2026-04-25T11:29:22.001Z</time></trkpt><trkpt lat="45.938977550138205" lon="12.13039289212907"><ele>171.16666666666666</ele><time>2026-04-25T11:29:24.001Z</time></trkpt><trkpt lat="45.93887435871945" lon="12.130430477476244"><ele>171.0</ele><time>2026-04-25T11:29:26.001Z</time></trkpt><trkpt lat="45.93876325977524" lon="12.130473241797874"><ele>171.0</ele><time>2026-04-25T11:29:28.001Z</time></trkpt><trkpt lat="45.93870123268487" lon="12.130495718036057"><ele>171.0</ele><time>2026-04-25T11:29:29.001Z</time></trkpt><trkpt lat="45.93863711550869" lon="12.130518654019937"><ele>171.0</ele><time>2026-04-25T11:29:30.001Z</time></trkpt><trkpt lat="45.93852272095812" lon="12.130554432148704"><ele>171.0</ele><time>2026-04-25T11:29:32.001Z</time></trkpt><trkpt lat="45.938401033641796" lon="12.130591696666198"><ele>171.0</ele><time>2026-04-25T11:29:34.001Z</time></trkpt><trkpt lat="45.93833727982006" lon="12.130611637883145"><ele>171.0</ele><time>2026-04-25T11:29:35.001Z</time></trkpt><trkpt lat="45.93827157450323" lon="12.130625761682962"><ele>170.99999999999997</ele><time>2026-04-25T11:29:36.001Z</time></trkpt><trkpt lat="45.93820864356509" lon="12.130637084559263"><ele>171.0</ele><time>2026-04-25T11:29:37.001Z</time></trkpt><trkpt lat="45.9381434406606" lon="12.130648162392959"><ele>171.0</ele><time>2026-04-25T11:29:38.001Z</time></trkpt><trkpt lat="45.93807923776543" lon="12.130671021790734"><ele>171.0</ele><time>2026-04-25T11:29:39.001Z</time></trkpt><trkpt lat="45.93801283729203" lon="12.130702094587454"><ele>171.0</ele><time>2026-04-25T11:29:40.001Z</time></trkpt><trkpt lat="45.93795238193461" lon="12.130745654002189"><ele>170.99999999999997</ele><time>2026-04-25T11:29:41.001Z</time></trkpt><trkpt lat="45.93789292953198" lon="12.130798900502702"><ele>171.0</ele><time>2026-04-25T11:29:42.001Z</time></trkpt><trkpt lat="45.937834210014124" lon="12.130846733344583"><ele>171.14285714285714</ele><time>2026-04-25T11:29:43.001Z</time></trkpt><trkpt lat="45.93777752987764" lon="12.130900025825598"><ele>171.28571428571428</ele><time>2026-04-25T11:29:44.001Z</time></trkpt><trkpt lat="45.93772616238086" lon="12.130955298592905"><ele>171.42857142857144</ele><time>2026-04-25T11:29:45.001Z</time></trkpt><trkpt lat="45.937672268617135" lon="12.131008138478794"><ele>171.57142857142856</ele><time>2026-04-25T11:29:46.001Z</time></trkpt><trkpt lat="45.937623108829335" lon="12.13106799348417"><ele>171.71428571428572</ele><time>2026-04-25T11:29:47.001Z</time></trkpt><trkpt lat="45.93757824723813" lon="12.131134333372714"><ele>171.85714285714286</ele><time>2026-04-25T11:29:48.001Z</time></trkpt><trkpt lat="45.937534886660295" lon="12.131200505054952"><ele>172.0</ele><time>2026-04-25T11:29:49.001Z</time></trkpt><trkpt lat="45.93749918015267" lon="12.13128524735933"><ele>171.5</ele><time>2026-04-25T11:29:50.001Z</time></trkpt><trkpt lat="45.93742287924007" lon="12.131426385796427"><ele>171.0</ele><time>2026-04-25T11:29:52.001Z</time></trkpt><trkpt lat="45.93733488862003" lon="12.131576343839065"><ele>170.5</ele><time>2026-04-25T11:29:54.001Z</time></trkpt><trkpt lat="45.937290143700686" lon="12.13164805532037"><ele>170.0</ele><time>2026-04-25T11:29:55.001Z</time></trkpt><trkpt lat="45.9372046604563" lon="12.131787896176833"><ele>169.71428571428572</ele><time>2026-04-25T11:29:57.001Z</time></trkpt><trkpt lat="45.937163484505184" lon="12.131861809878382"><ele>169.42857142857142</ele><time>2026-04-25T11:29:58.001Z</time></trkpt><trkpt lat="45.93713192376564" lon="12.131944560964126"><ele>169.14285714285714</ele><time>2026-04-25T11:29:59.001Z</time></trkpt><trkpt lat="45.93709602219058" lon="12.1320228305923"><ele>168.85714285714286</ele><time>2026-04-25T11:30:00.001Z</time></trkpt><trkpt lat="45.937053354103824" lon="12.132096295742306"><ele>168.57142857142856</ele><time>2026-04-25T11:30:01.001Z</time></trkpt><trkpt lat="45.9370090558108" lon="12.132161770115815"><ele>168.28571428571428</ele><time>2026-04-25T11:30:02.001Z</time></trkpt><trkpt lat="45.93697016956128" lon="12.132236032316698"><ele>168.0</ele><time>2026-04-25T11:30:03.001Z</time></trkpt><trkpt lat="45.93689240851654" lon="12.132320038628311"><ele>168.0</ele><time>2026-04-25T11:30:05.001Z</time></trkpt><trkpt lat="45.93682598817624" lon="12.13231984651898"><ele>168.0</ele><time>2026-04-25T11:30:07.001Z</time></trkpt><trkpt lat="45.93676748945179" lon="12.132270600940956"><ele>168.0</ele><time>2026-04-25T11:30:09.001Z</time></trkpt><trkpt lat="45.93673881285983" lon="12.132173784153341"><ele>168.0</ele><time>2026-04-25T11:30:11.001Z</time></trkpt><trkpt lat="45.93671184343888" lon="12.132046999981059"><ele>168.0</ele><time>2026-04-25T11:30:13.001Z</time></trkpt><trkpt lat="45.93665051843202" lon="12.131920991550269"><ele>168.0</ele><time>2026-04-25T11:30:15.001Z</time></trkpt><trkpt lat="45.93662302793975" lon="12.13183574642021"><ele>167.75</ele><time>2026-04-25T11:30:16.001Z</time></trkpt><trkpt lat="45.93658124721801" lon="12.131681776295181"><ele>167.5</ele><time>2026-04-25T11:30:18.001Z</time></trkpt><trkpt lat="45.936541583515066" lon="12.131518429664602"><ele>167.25</ele><time>2026-04-25T11:30:20.001Z</time></trkpt><trkpt lat="45.93650331420669" lon="12.131358592325224"><ele>167.0</ele><time>2026-04-25T11:30:22.001Z</time></trkpt><trkpt lat="45.936459702624155" lon="12.131192419506851"><ele>167.0</ele><time>2026-04-25T11:30:24.001Z</time></trkpt><trkpt lat="45.93640603696781" lon="12.131034963341833"><ele>167.0</ele><time>2026-04-25T11:30:26.001Z</time></trkpt><trkpt lat="45.93637013232437" lon="12.13087829867471"><ele>167.0</ele><time>2026-04-25T11:30:28.001Z</time></trkpt><trkpt lat="45.93634000848904" lon="12.13072414962526"><ele>167.0</ele><time>2026-04-25T11:30:30.001Z</time></trkpt><trkpt lat="45.93630390135586" lon="12.13057176711694"><ele>167.0</ele><time>2026-04-25T11:30:32.001Z</time></trkpt><trkpt lat="45.93626753178199" lon="12.130425718570782"><ele>167.0</ele><time>2026-04-25T11:30:34.001Z</time></trkpt><trkpt lat="45.936227385472016" lon="12.130297203957236"><ele>167.0</ele><time>2026-04-25T11:30:36.001Z</time></trkpt><trkpt lat="45.93617211316819" lon="12.130208395177174"><ele>167.0</ele><time>2026-04-25T11:30:38.001Z</time></trkpt><trkpt lat="45.936112821503684" lon="12.130142417685784"><ele>167.0</ele><time>2026-04-25T11:30:40.001Z</time></trkpt><trkpt lat="45.93603901318865" lon="12.130103747867727"><ele>167.0</ele><time>2026-04-25T11:30:42.001Z</time></trkpt><trkpt lat="45.93596134521987" lon="12.130082707564043"><ele>167.0</ele><time>2026-04-25T11:30:44.001Z</time></trkpt><trkpt lat="45.93589402116344" lon="12.130112671052046"><ele>167.0</ele><time>2026-04-25T11:30:46.001Z</time></trkpt><trkpt lat="45.93581135582974" lon="12.130154717669699"><ele>167.0</ele><time>2026-04-25T11:30:48.001Z</time></trkpt><trkpt lat="45.935717960971715" lon="12.130188172615973"><ele>167.0</ele><time>2026-04-25T11:30:50.001Z</time></trkpt><trkpt lat="45.935608669713154" lon="12.130228508051005"><ele>167.0</ele><time>2026-04-25T11:30:52.001Z</time></trkpt><trkpt lat="45.93549655608501" lon="12.130268749626612"><ele>167.0</ele><time>2026-04-25T11:30:54.001Z</time></trkpt><trkpt lat="45.9353852104295" lon="12.130309199329252"><ele>167.0</ele><time>2026-04-25T11:30:56.001Z</time></trkpt><trkpt lat="45.9353243935107" lon="12.130335121256758"><ele>167.0</ele><time>2026-04-25T11:30:57.001Z</time></trkpt><trkpt lat="45.93520896194374" lon="12.130405026865006"><ele>167.0</ele><time>2026-04-25T11:30:59.001Z</time></trkpt><trkpt lat="45.935153741383395" lon="12.130454505058415"><ele>167.0</ele><time>2026-04-25T11:31:00.001Z</time></trkpt><trkpt lat="45.93509654934935" lon="12.1305011966363"><ele>167.0</ele><time>2026-04-25T11:31:01.001Z</time></trkpt><trkpt lat="45.935040451093215" lon="12.130549176018585"><ele>167.0</ele><time>2026-04-25T11:31:02.001Z</time></trkpt><trkpt lat="45.93493343960394" lon="12.13064630564154"><ele>167.0</ele><time>2026-04-25T11:31:04.001Z</time></trkpt><trkpt lat="45.934875206909844" lon="12.130702119888603"><ele>167.0</ele><time>2026-04-25T11:31:05.001Z</time></trkpt><trkpt lat="45.9348195576339" lon="12.130754715453586"><ele>167.0</ele><time>2026-04-25T11:31:06.001Z</time></trkpt><trkpt lat="45.934708586407865" lon="12.13084584855302"><ele>167.0</ele><time>2026-04-25T11:31:08.001Z</time></trkpt><trkpt lat="45.934650595967646" lon="12.130893439703263"><ele>166.83333333333331</ele><time>2026-04-25T11:31:09.001Z</time></trkpt><trkpt lat="45.93459653863999" lon="12.130941999329064"><ele>166.66666666666666</ele><time>2026-04-25T11:31:10.001Z</time></trkpt><trkpt lat="45.934540102934086" lon="12.130992482203656"><ele>166.5</ele><time>2026-04-25T11:31:11.001Z</time></trkpt><trkpt lat="45.93448118723004" lon="12.131044610061215"><ele>166.33333333333334</ele><time>2026-04-25T11:31:12.001Z</time></trkpt><trkpt lat="45.93442309798075" lon="12.131095878913063"><ele>166.16666666666669</ele><time>2026-04-25T11:31:13.001Z</time></trkpt><trkpt lat="45.934305409920434" lon="12.131173918082624"><ele>166.0</ele><time>2026-04-25T11:31:15.001Z</time></trkpt><trkpt lat="45.934247317505765" lon="12.131224649916387"><ele>165.7142857142857</ele><time>2026-04-25T11:31:16.001Z</time></trkpt><trkpt lat="45.93418757955553" lon="12.13126761207422"><ele>165.42857142857144</ele><time>2026-04-25T11:31:17.001Z</time></trkpt><trkpt lat="45.93412811085515" lon="12.131322252494526"><ele>165.14285714285714</ele><time>2026-04-25T11:31:18.001Z</time></trkpt><trkpt lat="45.934071963376894" lon="12.131381567292935"><ele>164.85714285714283</ele><time>2026-04-25T11:31:19.001Z</time></trkpt><trkpt lat="45.934020736079695" lon="12.131444874239206"><ele>164.57142857142856</ele><time>2026-04-25T11:31:20.001Z</time></trkpt><trkpt lat="45.933967853334515" lon="12.131504188639706"><ele>164.28571428571428</ele><time>2026-04-25T11:31:21Z</time></trkpt><trkpt lat="45.93391028605023" lon="12.13156189764369"><ele>164.0</ele><time>2026-04-25T11:31:22Z</time></trkpt><trkpt lat="45.933855870290856" lon="12.131622992423994"><ele>163.99999999999997</ele><time>2026-04-25T11:31:23Z</time></trkpt><trkpt lat="45.93380406189306" lon="12.131681299967958"><ele>164.0</ele><time>2026-04-25T11:31:24Z</time></trkpt><trkpt lat="45.93374918291791" lon="12.131742177648398"><ele>164.0</ele><time>2026-04-25T11:31:25Z</time></trkpt><trkpt lat="45.93370057997374" lon="12.131802574351948"><ele>164.0</ele><time>2026-04-25T11:31:26Z</time></trkpt><trkpt lat="45.93364263739039" lon="12.13185835999449"><ele>164.0</ele><time>2026-04-25T11:31:27Z</time></trkpt><trkpt lat="45.933585672663305" lon="12.131914172647534"><ele>163.99999999999997</ele><time>2026-04-25T11:31:28Z</time></trkpt><trkpt lat="45.93353017244881" lon="12.131981099982266"><ele>164.0</ele><time>2026-04-25T11:31:29Z</time></trkpt><trkpt lat="45.933461844556454" lon="12.132040053056912"><ele>163.99999999999997</ele><time>2026-04-25T11:31:30Z</time></trkpt><trkpt lat="45.933399835190464" lon="12.13210396131246"><ele>164.0</ele><time>2026-04-25T11:31:31Z</time></trkpt><trkpt lat="45.93334212562515" lon="12.132170418848913"><ele>164.0</ele><time>2026-04-25T11:31:32Z</time></trkpt><trkpt lat="45.933281547973735" lon="12.13223493661108"><ele>164.0</ele><time>2026-04-25T11:31:33Z</time></trkpt><trkpt lat="45.933230693858825" lon="12.132309154834958"><ele>164.0</ele><time>2026-04-25T11:31:34Z</time></trkpt><trkpt lat="45.933176779973095" lon="12.132388007037687"><ele>163.99999999999997</ele><time>2026-04-25T11:31:35Z</time></trkpt><trkpt lat="45.933122821206595" lon="12.132460566679594"><ele>164.0</ele><time>2026-04-25T11:31:36Z</time></trkpt><trkpt lat="45.93307310699985" lon="12.132533810139721"><ele>163.57142857142856</ele><time>2026-04-25T11:31:37Z</time></trkpt><trkpt lat="45.93303678348477" lon="12.132610416779935"><ele>163.14285714285714</ele><time>2026-04-25T11:31:38Z</time></trkpt><trkpt lat="45.93299617954477" lon="12.132702671941113"><ele>162.71428571428572</ele><time>2026-04-25T11:31:39Z</time></trkpt><trkpt lat="45.93296187847344" lon="12.132797161457237"><ele>162.28571428571428</ele><time>2026-04-25T11:31:40Z</time></trkpt><trkpt lat="45.932927774302826" lon="12.132893751942909"><ele>161.85714285714286</ele><time>2026-04-25T11:31:41Z</time></trkpt><trkpt lat="45.932895674358576" lon="12.132983761100828"><ele>161.42857142857142</ele><time>2026-04-25T11:31:42Z</time></trkpt><trkpt lat="45.93286771282955" lon="12.133078932606466"><ele>161.0</ele><time>2026-04-25T11:31:43Z</time></trkpt><trkpt lat="45.93284755348118" lon="12.133175157393175"><ele>161.28571428571428</ele><time>2026-04-25T11:31:44Z</time></trkpt><trkpt lat="45.932822194437605" lon="12.133268705983959"><ele>161.57142857142856</ele><time>2026-04-25T11:31:45Z</time></trkpt><trkpt lat="45.93279778699077" lon="12.133360365988379"><ele>161.85714285714286</ele><time>2026-04-25T11:31:46Z</time></trkpt><trkpt lat="45.932788526772256" lon="12.13345304483146"><ele>162.14285714285714</ele><time>2026-04-25T11:31:47Z</time></trkpt><trkpt lat="45.93277211735569" lon="12.133549769008466"><ele>162.42857142857142</ele><time>2026-04-25T11:31:48Z</time></trkpt><trkpt lat="45.932749970282764" lon="12.133642621546464"><ele>162.71428571428572</ele><time>2026-04-25T11:31:49Z</time></trkpt><trkpt lat="45.932717931024456" lon="12.133734136975704"><ele>163.0</ele><time>2026-04-25T11:31:50Z</time></trkpt><trkpt lat="45.93268156027524" lon="12.133823363852411"><ele>163.0</ele><time>2026-04-25T11:31:51Z</time></trkpt><trkpt lat="45.93264170485245" lon="12.133908952130984"><ele>163.0</ele><time>2026-04-25T11:31:52Z</time></trkpt><trkpt lat="45.93260067599622" lon="12.133986632421252"><ele>163.0</ele><time>2026-04-25T11:31:53Z</time></trkpt><trkpt lat="45.93255087255506" lon="12.134063722989836"><ele>163.0</ele><time>2026-04-25T11:31:54Z</time></trkpt><trkpt lat="45.93250094571227" lon="12.134132118446278"><ele>163.0</ele><time>2026-04-25T11:31:55Z</time></trkpt><trkpt lat="45.93244932090281" lon="12.134201710102946"><ele>163.0</ele><time>2026-04-25T11:31:56Z</time></trkpt><trkpt lat="45.93239926545479" lon="12.13427038161148"><ele>163.0</ele><time>2026-04-25T11:31:57Z</time></trkpt><trkpt lat="45.93234614029409" lon="12.134337426995556"><ele>163.0</ele><time>2026-04-25T11:31:58Z</time></trkpt><trkpt lat="45.93229240164918" lon="12.134396978816735"><ele>163.0</ele><time>2026-04-25T11:31:59Z</time></trkpt><trkpt lat="45.93223809375494" lon="12.134453914274475"><ele>163.0</ele><time>2026-04-25T11:32:00Z</time></trkpt><trkpt lat="45.932182487389724" lon="12.134512382034893"><ele>163.0</ele><time>2026-04-25T11:32:01Z</time></trkpt><trkpt lat="45.93212530063493" lon="12.134565641867527"><ele>163.0</ele><time>2026-04-25T11:32:02Z</time></trkpt><trkpt lat="45.93206607222277" lon="12.134626418752775"><ele>163.0</ele><time>2026-04-25T11:32:03Z</time></trkpt><trkpt lat="45.93200542327636" lon="12.134688114632123"><ele>163.0</ele><time>2026-04-25T11:32:04Z</time></trkpt><trkpt lat="45.93194485821081" lon="12.134746634328012"><ele>163.0</ele><time>2026-04-25T11:32:05Z</time></trkpt><trkpt lat="45.93188842713829" lon="12.134809748291682"><ele>163.0</ele><time>2026-04-25T11:32:06Z</time></trkpt><trkpt lat="45.93183348018642" lon="12.134879192632706"><ele>163.0</ele><time>2026-04-25T11:32:07Z</time></trkpt><trkpt lat="45.93177016557684" lon="12.134943695954549"><ele>163.0</ele><time>2026-04-25T11:32:08Z</time></trkpt><trkpt lat="45.931702481088266" lon="12.134999067766927"><ele>163.0</ele><time>2026-04-25T11:32:09Z</time></trkpt><trkpt lat="45.931639873368006" lon="12.135060392477367"><ele>163.0</ele><time>2026-04-25T11:32:10Z</time></trkpt><trkpt lat="45.93158081231199" lon="12.135125569495084"><ele>162.66666666666669</ele><time>2026-04-25T11:32:11.001Z</time></trkpt><trkpt lat="45.93151904746199" lon="12.135187497961606"><ele>162.33333333333334</ele><time>2026-04-25T11:32:12.001Z</time></trkpt><trkpt lat="45.9314555582952" lon="12.135251902929676"><ele>162.0</ele><time>2026-04-25T11:32:13.001Z</time></trkpt><trkpt lat="45.93139270004554" lon="12.135311518365379"><ele>161.66666666666666</ele><time>2026-04-25T11:32:14Z</time></trkpt><trkpt lat="45.93132907383117" lon="12.135369587887157"><ele>161.33333333333331</ele><time>2026-04-25T11:32:15.001Z</time></trkpt><trkpt lat="45.93126592647294" lon="12.13542769311888"><ele>161.0</ele><time>2026-04-25T11:32:16.001Z</time></trkpt><trkpt lat="45.931202814922614" lon="12.135486118122317"><ele>161.0</ele><time>2026-04-25T11:32:17.001Z</time></trkpt><trkpt lat="45.931139263949675" lon="12.135545734136812"><ele>161.0</ele><time>2026-04-25T11:32:18.001Z</time></trkpt><trkpt lat="45.93107778690539" lon="12.135611394740065"><ele>161.0</ele><time>2026-04-25T11:32:19.001Z</time></trkpt><trkpt lat="45.93101459911883" lon="12.135672791918823"><ele>161.0</ele><time>2026-04-25T11:32:20Z</time></trkpt><trkpt lat="45.93094732096703" lon="12.135730081108699"><ele>161.0</ele><time>2026-04-25T11:32:21Z</time></trkpt><trkpt lat="45.930887899461005" lon="12.135799410978294"><ele>161.0</ele><time>2026-04-25T11:32:22Z</time></trkpt><trkpt lat="45.93083027604887" lon="12.135865527118083"><ele>160.57142857142858</ele><time>2026-04-25T11:32:23Z</time></trkpt><trkpt lat="45.930770236863054" lon="12.135925491892188"><ele>160.14285714285714</ele><time>2026-04-25T11:32:24Z</time></trkpt><trkpt lat="45.93070686257145" lon="12.135981686615304"><ele>159.71428571428572</ele><time>2026-04-25T11:32:25Z</time></trkpt><trkpt lat="45.93064922730883" lon="12.13604205303914"><ele>159.28571428571428</ele><time>2026-04-25T11:32:26Z</time></trkpt><trkpt lat="45.93059046500134" lon="12.136106552081504"><ele>158.85714285714286</ele><time>2026-04-25T11:32:27Z</time></trkpt><trkpt lat="45.930530643402655" lon="12.136161094511687"><ele>158.42857142857144</ele><time>2026-04-25T11:32:28Z</time></trkpt><trkpt lat="45.930470224242804" lon="12.136213625102448"><ele>158.0</ele><time>2026-04-25T11:32:29Z</time></trkpt><trkpt lat="45.93041219052145" lon="12.136268549384706"><ele>158.0</ele><time>2026-04-25T11:32:30Z</time></trkpt><trkpt lat="45.93035718727092" lon="12.136324587261116"><ele>158.0</ele><time>2026-04-25T11:32:31Z</time></trkpt><trkpt lat="45.930304363665655" lon="12.13637756141117"><ele>158.0</ele><time>2026-04-25T11:32:32Z</time></trkpt><trkpt lat="45.930251741652896" lon="12.136430081936448"><ele>158.0</ele><time>2026-04-25T11:32:33Z</time></trkpt><trkpt lat="45.93015602183585" lon="12.136521556388931"><ele>158.0</ele><time>2026-04-25T11:32:35Z</time></trkpt><trkpt lat="45.93010699642143" lon="12.13664592713537"><ele>158.0</ele><time>2026-04-25T11:32:37Z</time></trkpt><trkpt lat="45.93009168383034" lon="12.136789451630905"><ele>158.0</ele><time>2026-04-25T11:32:39Z</time></trkpt><trkpt lat="45.93008161910987" lon="12.136957607775969"><ele>158.0</ele><time>2026-04-25T11:32:41Z</time></trkpt><trkpt lat="45.93008511179641" lon="12.137130869165892"><ele>158.0</ele><time>2026-04-25T11:32:43Z</time></trkpt><trkpt lat="45.93010021899421" lon="12.137306832364624"><ele>158.0</ele><time>2026-04-25T11:32:45Z</time></trkpt><trkpt lat="45.93010343798396" lon="12.137399508566174"><ele>158.0</ele><time>2026-04-25T11:32:46Z</time></trkpt><trkpt lat="45.930112183623464" lon="12.137499409772438"><ele>157.83333333333331</ele><time>2026-04-25T11:32:47Z</time></trkpt><trkpt lat="45.930121093264326" lon="12.137594242324298"><ele>157.66666666666666</ele><time>2026-04-25T11:32:48Z</time></trkpt><trkpt lat="45.930131118705184" lon="12.137685948203538"><ele>157.5</ele><time>2026-04-25T11:32:49Z</time></trkpt><trkpt lat="45.93014926753934" lon="12.137782603319627"><ele>157.33333333333334</ele><time>2026-04-25T11:32:50Z</time></trkpt><trkpt lat="45.930169303974424" lon="12.137871356468482"><ele>157.16666666666669</ele><time>2026-04-25T11:32:51Z</time></trkpt><trkpt lat="45.93021758946537" lon="12.138032787926738"><ele>157.0</ele><time>2026-04-25T11:32:53Z</time></trkpt><trkpt lat="45.93027712972097" lon="12.138178555711185"><ele>157.0</ele><time>2026-04-25T11:32:55Z</time></trkpt><trkpt lat="45.9303221045438" lon="12.138313106945951"><ele>157.0</ele><time>2026-04-25T11:32:57Z</time></trkpt><trkpt lat="45.93029250680941" lon="12.13844498491433"><ele>157.0</ele><time>2026-04-25T11:32:59Z</time></trkpt><trkpt lat="45.93023509028676" lon="12.138604486441695"><ele>157.0</ele><time>2026-04-25T11:33:01Z</time></trkpt><trkpt lat="45.93019229584246" lon="12.138701264611129"><ele>157.0</ele><time>2026-04-25T11:33:02Z</time></trkpt><trkpt lat="45.93015661913095" lon="12.138787990662381"><ele>156.99999999999997</ele><time>2026-04-25T11:33:03Z</time></trkpt><trkpt lat="45.9301244879449" lon="12.13887714507002"><ele>157.0</ele><time>2026-04-25T11:33:04Z</time></trkpt><trkpt lat="45.93008600089881" lon="12.138956870613233"><ele>157.0</ele><time>2026-04-25T11:33:05Z</time></trkpt><trkpt lat="45.93004960936435" lon="12.139045859763728"><ele>157.0</ele><time>2026-04-25T11:33:06Z</time></trkpt><trkpt lat="45.93001880320943" lon="12.139136882035736"><ele>157.0</ele><time>2026-04-25T11:33:07Z</time></trkpt><trkpt lat="45.929987192800546" lon="12.139225538614143"><ele>156.99999999999997</ele><time>2026-04-25T11:33:08Z</time></trkpt><trkpt lat="45.92995748457845" lon="12.139313794691162"><ele>157.0</ele><time>2026-04-25T11:33:09Z</time></trkpt><trkpt lat="45.9299159792166" lon="12.139389995580625"><ele>157.6</ele><time>2026-04-25T11:33:10Z</time></trkpt><trkpt lat="45.92984488827597" lon="12.139529581214017"><ele>158.2</ele><time>2026-04-25T11:33:12Z</time></trkpt><trkpt lat="45.92979256520634" lon="12.139671020479195"><ele>158.8</ele><time>2026-04-25T11:33:14Z</time></trkpt><trkpt lat="45.92972750234421" lon="12.139726527911034"><ele>159.4</ele><time>2026-04-25T11:33:16Z</time></trkpt><trkpt lat="45.92965688327274" lon="12.13967681982277"><ele>160.0</ele><time>2026-04-25T11:33:18Z</time></trkpt><trkpt lat="45.92957694627312" lon="12.139576443016436"><ele>160.0</ele><time>2026-04-25T11:33:20Z</time></trkpt><trkpt lat="45.92948932605997" lon="12.13951576332782"><ele>160.0</ele><time>2026-04-25T11:33:22Z</time></trkpt><trkpt lat="45.92940150274279" lon="12.139575916635682"><ele>160.0</ele><time>2026-04-25T11:33:24Z</time></trkpt><trkpt lat="45.92933471981724" lon="12.139717438322212"><ele>160.0</ele><time>2026-04-25T11:33:26Z</time></trkpt><trkpt lat="45.92927388877417" lon="12.139853111759411"><ele>160.0</ele><time>2026-04-25T11:33:28Z</time></trkpt><trkpt lat="45.92923093339524" lon="12.13999264394928"><ele>161.6</ele><time>2026-04-25T11:33:30Z</time></trkpt><trkpt lat="45.929171608903324" lon="12.140142699982265"><ele>163.2</ele><time>2026-04-25T11:33:32Z</time></trkpt><trkpt lat="45.92913974224517" lon="12.140222085756893"><ele>164.8</ele><time>2026-04-25T11:33:33Z</time></trkpt><trkpt lat="45.929107954439694" lon="12.140302583817906"><ele>166.4</ele><time>2026-04-25T11:33:34Z</time></trkpt><trkpt lat="45.92905552269155" lon="12.14046608933757"><ele>168.0</ele><time>2026-04-25T11:33:36Z</time></trkpt><trkpt lat="45.92900237006962" lon="12.140621811703614"><ele>168.0</ele><time>2026-04-25T11:33:38Z</time></trkpt><trkpt lat="45.928970545241754" lon="12.140709761710493"><ele>168.0</ele><time>2026-04-25T11:33:39Z</time></trkpt><trkpt lat="45.92893800850672" lon="12.140793177684582"><ele>168.0</ele><time>2026-04-25T11:33:40Z</time></trkpt><trkpt lat="45.928876300238926" lon="12.140946267348948"><ele>168.0</ele><time>2026-04-25T11:33:42Z</time></trkpt><trkpt lat="45.92886182072082" lon="12.141112197186803"><ele>168.0</ele><time>2026-04-25T11:33:44Z</time></trkpt><trkpt lat="45.928866383314556" lon="12.141281224999911"><ele>166.66666666666666</ele><time>2026-04-25T11:33:46Z</time></trkpt><trkpt lat="45.92886420928221" lon="12.141431543245876"><ele>165.33333333333334</ele><time>2026-04-25T11:33:48Z</time></trkpt><trkpt lat="45.92887567650218" lon="12.141522771223382"><ele>164.0</ele><time>2026-04-25T11:33:50Z</time></trkpt><trkpt lat="45.92880834024609" lon="12.14154690070665"><ele>162.66666666666669</ele><time>2026-04-25T11:33:55Z</time></trkpt><trkpt lat="45.9287421683072" lon="12.141518993907388"><ele>161.33333333333334</ele><time>2026-04-25T11:33:59Z</time></trkpt><trkpt lat="45.9286755969304" lon="12.141560126165466"><ele>160.0</ele><time>2026-04-25T11:34:02Z</time></trkpt><trkpt lat="45.92865131985868" lon="12.141696458654016"><ele>159.5</ele><time>2026-04-25T11:34:05Z</time></trkpt><trkpt lat="45.92860836833925" lon="12.141805202248603"><ele>159.0</ele><time>2026-04-25T11:34:08Z</time></trkpt><trkpt lat="45.928555376378775" lon="12.141883336779202"><ele>158.5</ele><time>2026-04-25T11:34:11Z</time></trkpt><trkpt lat="45.92849288267949" lon="12.141961419408807"><ele>158.0</ele><time>2026-04-25T11:34:13Z</time></trkpt><trkpt lat="45.928463563987606" lon="12.14204437370904"><ele>157.5</ele><time>2026-04-25T11:34:15Z</time></trkpt><trkpt lat="45.92840204480476" lon="12.14216013326039"><ele>157.0</ele><time>2026-04-25T11:34:19Z</time></trkpt><trkpt lat="45.9283759343543" lon="12.1423165468106"><ele>158.5</ele><time>2026-04-25T11:34:21.001Z</time></trkpt><trkpt lat="45.928341635795306" lon="12.142435442196854"><ele>160.0</ele><time>2026-04-25T11:34:23.001Z</time></trkpt><trkpt lat="45.928295504389396" lon="12.142508871987525"><ele>161.5</ele><time>2026-04-25T11:34:26.001Z</time></trkpt><trkpt lat="45.92823896531564" lon="12.142594647084655"><ele>163.0</ele><time>2026-04-25T11:34:30.001Z</time></trkpt><trkpt lat="45.928185399122185" lon="12.142662300506839"><ele>164.5</ele><time>2026-04-25T11:34:34.001Z</time></trkpt><trkpt lat="45.92814540217877" lon="12.142755615063066"><ele>166.0</ele><time>2026-04-25T11:34:37.001Z</time></trkpt><trkpt lat="45.92810790397686" lon="12.142854940014097"><ele>166.0</ele><time>2026-04-25T11:34:39.001Z</time></trkpt><trkpt lat="45.928067701172985" lon="12.142961505887623"><ele>166.0</ele><time>2026-04-25T11:34:43.001Z</time></trkpt><trkpt lat="45.928021442691524" lon="12.143048128031564"><ele>166.0</ele><time>2026-04-25T11:34:45.001Z</time></trkpt><trkpt lat="45.92797503219175" lon="12.143207490525137"><ele>166.0</ele><time>2026-04-25T11:34:47.001Z</time></trkpt><trkpt lat="45.92794162956836" lon="12.143293204368652"><ele>166.0</ele><time>2026-04-25T11:34:48.001Z</time></trkpt><trkpt lat="45.92790712290075" lon="12.143376923303467"><ele>166.0</ele><time>2026-04-25T11:34:49.001Z</time></trkpt><trkpt lat="45.92783755344745" lon="12.143526333153407"><ele>165.0</ele><time>2026-04-25T11:34:51.001Z</time></trkpt><trkpt lat="45.927783454037325" lon="12.14372934168386"><ele>164.0</ele><time>2026-04-25T11:34:53.001Z</time></trkpt><trkpt lat="45.92775934256803" lon="12.143813637062848"><ele>163.0</ele><time>2026-04-25T11:34:54.001Z</time></trkpt><trkpt lat="45.92773712112802" lon="12.143909844310627"><ele>162.0</ele><time>2026-04-25T11:34:55.001Z</time></trkpt><trkpt lat="45.92771874207497" lon="12.14403900407799"><ele>161.0</ele><time>2026-04-25T11:34:57.001Z</time></trkpt><trkpt lat="45.927705242917" lon="12.144141776947608"><ele>160.16666666666666</ele><time>2026-04-25T11:34:59.001Z</time></trkpt><trkpt lat="45.92768464930999" lon="12.144227789023025"><ele>159.33333333333331</ele><time>2026-04-25T11:35:01.001Z</time></trkpt><trkpt lat="45.92769700373297" lon="12.144327642646784"><ele>158.5</ele><time>2026-04-25T11:35:03.001Z</time></trkpt><trkpt lat="45.92771484600096" lon="12.144452414151049"><ele>157.66666666666666</ele><time>2026-04-25T11:35:06.001Z</time></trkpt><trkpt lat="45.927690511061364" lon="12.144573979099492"><ele>156.83333333333334</ele><time>2026-04-25T11:35:08.001Z</time></trkpt><trkpt lat="45.92766823896002" lon="12.144694790139603"><ele>156.0</ele><time>2026-04-25T11:35:11.001Z</time></trkpt><trkpt lat="45.92767600136439" lon="12.144793515888052"><ele>155.66666666666666</ele><time>2026-04-25T11:35:13.001Z</time></trkpt><trkpt lat="45.92769046030767" lon="12.144917523107498"><ele>155.33333333333334</ele><time>2026-04-25T11:35:15.001Z</time></trkpt><trkpt lat="45.92771494414798" lon="12.145088871210678"><ele>155.0</ele><time>2026-04-25T11:35:17.001Z</time></trkpt><trkpt lat="45.927717701289566" lon="12.145195442177037"><ele>154.66666666666669</ele><time>2026-04-25T11:35:18.001Z</time></trkpt><trkpt lat="45.92772305618354" lon="12.145301307188978"><ele>154.33333333333334</ele><time>2026-04-25T11:35:19.001Z</time></trkpt><trkpt lat="45.927744729480175" lon="12.145403321313381"><ele>154.0</ele><time>2026-04-25T11:35:20.001Z</time></trkpt><trkpt lat="45.927749328415615" lon="12.1455137168472"><ele>154.0</ele><time>2026-04-25T11:35:21.001Z</time></trkpt><trkpt lat="45.927765319050245" lon="12.145632561836436"><ele>154.0</ele><time>2026-04-25T11:35:22.001Z</time></trkpt><trkpt lat="45.92777204609293" lon="12.145744462938776"><ele>154.0</ele><time>2026-04-25T11:35:23.001Z</time></trkpt><trkpt lat="45.92777216177945" lon="12.145856324040645"><ele>154.0</ele><time>2026-04-25T11:35:24.001Z</time></trkpt><trkpt lat="45.92777926283457" lon="12.145975406123444"><ele>154.0</ele><time>2026-04-25T11:35:25.001Z</time></trkpt><trkpt lat="45.927777173108225" lon="12.146103603640192"><ele>154.0</ele><time>2026-04-25T11:35:26.001Z</time></trkpt><trkpt lat="45.92775772938737" lon="12.14623280650891"><ele>154.14285714285714</ele><time>2026-04-25T11:35:27.001Z</time></trkpt><trkpt lat="45.92774930736352" lon="12.146352369540427"><ele>154.28571428571428</ele><time>2026-04-25T11:35:28.001Z</time></trkpt><trkpt lat="45.9277270322875" lon="12.14645827194087"><ele>154.42857142857144</ele><time>2026-04-25T11:35:29.001Z</time></trkpt><trkpt lat="45.92770255989671" lon="12.14654476394656"><ele>154.57142857142856</ele><time>2026-04-25T11:35:30.001Z</time></trkpt><trkpt lat="45.92767572813233" lon="12.146627782871267"><ele>154.71428571428572</ele><time>2026-04-25T11:35:31.001Z</time></trkpt><trkpt lat="45.927642599949955" lon="12.146707518209983"><ele>154.85714285714286</ele><time>2026-04-25T11:35:32.001Z</time></trkpt><trkpt lat="45.927613568099765" lon="12.14678825162133"><ele>155.0</ele><time>2026-04-25T11:35:33.001Z</time></trkpt><trkpt lat="45.92757106072007" lon="12.146951357230074"><ele>157.25</ele><time>2026-04-25T11:35:35.001Z</time></trkpt><trkpt lat="45.92752868924312" lon="12.14709485047401"><ele>159.5</ele><time>2026-04-25T11:35:37.001Z</time></trkpt><trkpt lat="45.927482813101555" lon="12.14725353038347"><ele>161.75</ele><time>2026-04-25T11:35:39.001Z</time></trkpt><trkpt lat="45.92746031347129" lon="12.147422925349684"><ele>164.0</ele><time>2026-04-25T11:35:41.001Z</time></trkpt><trkpt lat="45.92744560353209" lon="12.147596099314667"><ele>164.0</ele><time>2026-04-25T11:35:43.001Z</time></trkpt><trkpt lat="45.92741886744622" lon="12.147764929932594"><ele>164.0</ele><time>2026-04-25T11:35:45.001Z</time></trkpt><trkpt lat="45.92737094901625" lon="12.147924761478006"><ele>164.0</ele><time>2026-04-25T11:35:47.001Z</time></trkpt><trkpt lat="45.92731176963379" lon="12.1480657036871"><ele>164.0</ele><time>2026-04-25T11:35:49.001Z</time></trkpt><trkpt lat="45.927272822445076" lon="12.148224440985206"><ele>163.0</ele><time>2026-04-25T11:35:51.001Z</time></trkpt><trkpt lat="45.92718252998947" lon="12.14832285407383"><ele>162.0</ele><time>2026-04-25T11:35:53.001Z</time></trkpt><trkpt lat="45.927114471029384" lon="12.148368343062286"><ele>161.0</ele><time>2026-04-25T11:35:54.001Z</time></trkpt><trkpt lat="45.9270808411461" lon="12.148456144724731"><ele>160.0</ele><time>2026-04-25T11:35:55.001Z</time></trkpt><trkpt lat="45.927058163254195" lon="12.14854180277966"><ele>159.0</ele><time>2026-04-25T11:35:56.001Z</time></trkpt><trkpt lat="45.927032088100354" lon="12.148638662959053"><ele>158.0</ele><time>2026-04-25T11:35:57.001Z</time></trkpt><trkpt lat="45.92701292622354" lon="12.148734902964236"><ele>158.0</ele><time>2026-04-25T11:35:58.001Z</time></trkpt><trkpt lat="45.9269871180842" lon="12.14882803796635"><ele>158.0</ele><time>2026-04-25T11:35:59.001Z</time></trkpt><trkpt lat="45.92696104547161" lon="12.148917183870488"><ele>158.0</ele><time>2026-04-25T11:36:00.001Z</time></trkpt><trkpt lat="45.92689382302343" lon="12.149069612105892"><ele>158.0</ele><time>2026-04-25T11:36:02.001Z</time></trkpt><trkpt lat="45.92684514316914" lon="12.149130873656564"><ele>158.0</ele><time>2026-04-25T11:36:03.001Z</time></trkpt><trkpt lat="45.92678807877378" lon="12.149181408177261"><ele>158.0</ele><time>2026-04-25T11:36:04.001Z</time></trkpt><trkpt lat="45.92672705992399" lon="12.149223666362081"><ele>158.60000000000002</ele><time>2026-04-25T11:36:05.001Z</time></trkpt><trkpt lat="45.92667045395299" lon="12.149265645289288"><ele>159.20000000000002</ele><time>2026-04-25T11:36:06.001Z</time></trkpt><trkpt lat="45.926569134286105" lon="12.149393017692898"><ele>159.8</ele><time>2026-04-25T11:36:08.001Z</time></trkpt><trkpt lat="45.92648820670809" lon="12.149545158931552"><ele>160.4</ele><time>2026-04-25T11:36:10.001Z</time></trkpt><trkpt lat="45.92644471517452" lon="12.149627756092636"><ele>161.0</ele><time>2026-04-25T11:36:11.001Z</time></trkpt><trkpt lat="45.926417208099274" lon="12.14971796599482"><ele>161.0</ele><time>2026-04-25T11:36:12.001Z</time></trkpt><trkpt lat="45.92639843737938" lon="12.149829108664118"><ele>161.0</ele><time>2026-04-25T11:36:13.001Z</time></trkpt><trkpt lat="45.926357995513" lon="12.149912005903888"><ele>161.0</ele><time>2026-04-25T11:36:14.001Z</time></trkpt><trkpt lat="45.926276740955075" lon="12.150055322641935"><ele>161.0</ele><time>2026-04-25T11:36:16.001Z</time></trkpt><trkpt lat="45.9262242890613" lon="12.15012070607094"><ele>161.0</ele><time>2026-04-25T11:36:17.001Z</time></trkpt><trkpt lat="45.92617046514201" lon="12.150189059739443"><ele>161.0</ele><time>2026-04-25T11:36:18.001Z</time></trkpt><trkpt lat="45.9261147686725" lon="12.150244117364593"><ele>161.71428571428572</ele><time>2026-04-25T11:36:19.001Z</time></trkpt><trkpt lat="45.926056401997805" lon="12.15031016082369"><ele>162.42857142857144</ele><time>2026-04-25T11:36:20.001Z</time></trkpt><trkpt lat="45.92600441108949" lon="12.150379142025514"><ele>163.14285714285714</ele><time>2026-04-25T11:36:21.001Z</time></trkpt><trkpt lat="45.92595162340248" lon="12.150433986171418"><ele>163.85714285714286</ele><time>2026-04-25T11:36:22.001Z</time></trkpt><trkpt lat="45.92589523636847" lon="12.150479376062632"><ele>164.57142857142858</ele><time>2026-04-25T11:36:23.001Z</time></trkpt><trkpt lat="45.92582946961573" lon="12.150529829160442"><ele>165.28571428571428</ele><time>2026-04-25T11:36:24.002Z</time></trkpt><trkpt lat="45.92576375980962" lon="12.150574315089752"><ele>166.0</ele><time>2026-04-25T11:36:25.002Z</time></trkpt><trkpt lat="45.92569799286048" lon="12.150605815285527"><ele>166.0</ele><time>2026-04-25T11:36:26.001Z</time></trkpt><trkpt lat="45.92563560505644" lon="12.150637709974568"><ele>166.0</ele><time>2026-04-25T11:36:27.002Z</time></trkpt><trkpt lat="45.92556981231705" lon="12.150656702678194"><ele>166.0</ele><time>2026-04-25T11:36:28.002Z</time></trkpt><trkpt lat="45.92550423496017" lon="12.150671557898855"><ele>166.0</ele><time>2026-04-25T11:36:29.001Z</time></trkpt><trkpt lat="45.92543788523888" lon="12.150690251158355"><ele>166.0</ele><time>2026-04-25T11:36:30.002Z</time></trkpt><trkpt lat="45.92536841658208" lon="12.150708278032807"><ele>166.0</ele><time>2026-04-25T11:36:31.002Z</time></trkpt><trkpt lat="45.92530075307722" lon="12.150726872309264"><ele>166.0</ele><time>2026-04-25T11:36:32.002Z</time></trkpt><trkpt lat="45.9251745186064" lon="12.150796142862609"><ele>165.0</ele><time>2026-04-25T11:36:34.002Z</time></trkpt><trkpt lat="45.925105379789024" lon="12.150833552080714"><ele>164.0</ele><time>2026-04-25T11:36:35.002Z</time></trkpt><trkpt lat="45.925047284747976" lon="12.150875758592782"><ele>163.0</ele><time>2026-04-25T11:36:36.002Z</time></trkpt><trkpt lat="45.92498829650973" lon="12.150921118180229"><ele>162.0</ele><time>2026-04-25T11:36:37.002Z</time></trkpt><trkpt lat="45.924929834785196" lon="12.15096344947896"><ele>161.0</ele><time>2026-04-25T11:36:38.002Z</time></trkpt><trkpt lat="45.92487644542866" lon="12.151016787034875"><ele>160.0</ele><time>2026-04-25T11:36:39.002Z</time></trkpt><trkpt lat="45.92481596470569" lon="12.151067495772493"><ele>159.0</ele><time>2026-04-25T11:36:40.002Z</time></trkpt><trkpt lat="45.92476482716671" lon="12.15113253312922"><ele>159.0</ele><time>2026-04-25T11:36:41.002Z</time></trkpt><trkpt lat="45.92471582256164" lon="12.151197421308215"><ele>159.0</ele><time>2026-04-25T11:36:42.002Z</time></trkpt><trkpt lat="45.92459919710779" lon="12.151286241862897"><ele>159.0</ele><time>2026-04-25T11:36:44.002Z</time></trkpt><trkpt lat="45.92453567602134" lon="12.151332794623778"><ele>159.0</ele><time>2026-04-25T11:36:45.002Z</time></trkpt><trkpt lat="45.92446961508007" lon="12.151377991890746"><ele>159.0</ele><time>2026-04-25T11:36:46.002Z</time></trkpt><trkpt lat="45.92440523837006" lon="12.151430301056076"><ele>159.0</ele><time>2026-04-25T11:36:47.002Z</time></trkpt><trkpt lat="45.92435089181865" lon="12.15148692777413"><ele>157.83333333333334</ele><time>2026-04-25T11:36:48.002Z</time></trkpt><trkpt lat="45.92429956062651" lon="12.15154722034606"><ele>156.66666666666666</ele><time>2026-04-25T11:36:49.002Z</time></trkpt><trkpt lat="45.92418768498188" lon="12.151632386678887"><ele>155.5</ele><time>2026-04-25T11:36:51.002Z</time></trkpt><trkpt lat="45.924129658477746" lon="12.151670227187463"><ele>154.33333333333331</ele><time>2026-04-25T11:36:52.002Z</time></trkpt><trkpt lat="45.924072547815555" lon="12.151710487430332"><ele>153.16666666666666</ele><time>2026-04-25T11:36:53.002Z</time></trkpt><trkpt lat="45.92396544355507" lon="12.151778913378077"><ele>152.0</ele><time>2026-04-25T11:36:55.002Z</time></trkpt><trkpt lat="45.923858106003145" lon="12.151836456295724"><ele>152.0</ele><time>2026-04-25T11:36:57.002Z</time></trkpt><trkpt lat="45.9237579681383" lon="12.151900800316042"><ele>152.0</ele><time>2026-04-25T11:36:59.002Z</time></trkpt><trkpt lat="45.92364141049826" lon="12.15195046416669"><ele>152.0</ele><time>2026-04-25T11:37:01.002Z</time></trkpt><trkpt lat="45.92354224405771" lon="12.151997398821134"><ele>152.0</ele><time>2026-04-25T11:37:03.002Z</time></trkpt><trkpt lat="45.92345356568439" lon="12.152041651609613"><ele>152.0</ele><time>2026-04-25T11:37:05.002Z</time></trkpt><trkpt lat="45.92335267052639" lon="12.152110342268333"><ele>153.5</ele><time>2026-04-25T11:37:07.002Z</time></trkpt><trkpt lat="45.923246055357836" lon="12.152168581804402"><ele>155.0</ele><time>2026-04-25T11:37:09.002Z</time></trkpt><trkpt lat="45.92313574220014" lon="12.152243287715455"><ele>156.5</ele><time>2026-04-25T11:37:11.002Z</time></trkpt><trkpt lat="45.923035172746474" lon="12.152331146246613"><ele>158.0</ele><time>2026-04-25T11:37:13.002Z</time></trkpt><trkpt lat="45.92294979108092" lon="12.152433037657799"><ele>158.0</ele><time>2026-04-25T11:37:15.002Z</time></trkpt><trkpt lat="45.92291618279694" lon="12.152550992340448"><ele>158.0</ele><time>2026-04-25T11:37:17.002Z</time></trkpt><trkpt lat="45.92285155716046" lon="12.15267044431676"><ele>158.0</ele><time>2026-04-25T11:37:19.002Z</time></trkpt><trkpt lat="45.92277759287246" lon="12.15276848778905"><ele>158.0</ele><time>2026-04-25T11:37:21.002Z</time></trkpt><trkpt lat="45.9227188284696" lon="12.1528014001391"><ele>158.0</ele><time>2026-04-25T11:37:22.002Z</time></trkpt><trkpt lat="45.92265676952603" lon="12.152839480394842"><ele>158.0</ele><time>2026-04-25T11:37:23.002Z</time></trkpt><trkpt lat="45.9225946191628" lon="12.15285660600339"><ele>159.33333333333331</ele><time>2026-04-25T11:37:24.002Z</time></trkpt><trkpt lat="45.92246724942659" lon="12.15285662628156"><ele>160.66666666666666</ele><time>2026-04-25T11:37:26.002Z</time></trkpt><trkpt lat="45.922399858859166" lon="12.152870158767255"><ele>162.0</ele><time>2026-04-25T11:37:27.002Z</time></trkpt><trkpt lat="45.92228781849989" lon="12.152890633352468"><ele>163.33333333333334</ele><time>2026-04-25T11:37:29.002Z</time></trkpt><trkpt lat="45.922219911110645" lon="12.152904184615393"><ele>164.66666666666669</ele><time>2026-04-25T11:37:30.002Z</time></trkpt><trkpt lat="45.92215433614134" lon="12.152904639542362"><ele>166.0</ele><time>2026-04-25T11:37:31.002Z</time></trkpt><trkpt lat="45.92204072503981" lon="12.152941807353459"><ele>166.0</ele><time>2026-04-25T11:37:33.002Z</time></trkpt><trkpt lat="45.92196717312239" lon="12.152878897190513"><ele>166.0</ele><time>2026-04-25T11:37:34.002Z</time></trkpt><trkpt lat="45.92185561655674" lon="12.15299353691466"><ele>166.0</ele><time>2026-04-25T11:37:36.002Z</time></trkpt><trkpt lat="45.92177353349619" lon="12.153012599398805"><ele>166.0</ele><time>2026-04-25T11:37:37.002Z</time></trkpt><trkpt lat="45.921695788026575" lon="12.15302805041075"><ele>166.0</ele><time>2026-04-25T11:37:38.002Z</time></trkpt><trkpt lat="45.92161614817601" lon="12.153051324630692"><ele>165.0</ele><time>2026-04-25T11:37:39.002Z</time></trkpt><trkpt lat="45.92153789015042" lon="12.153074311672528"><ele>164.0</ele><time>2026-04-25T11:37:40.002Z</time></trkpt><trkpt lat="45.92146328990155" lon="12.153096556321419"><ele>163.0</ele><time>2026-04-25T11:37:41.002Z</time></trkpt><trkpt lat="45.921394700688055" lon="12.153120332159602"><ele>162.0</ele><time>2026-04-25T11:37:42.002Z</time></trkpt><trkpt lat="45.921322740480115" lon="12.153149748392288"><ele>161.0</ele><time>2026-04-25T11:37:43.002Z</time></trkpt><trkpt lat="45.9212453000014" lon="12.153180453921449"><ele>160.0</ele><time>2026-04-25T11:37:44.002Z</time></trkpt><trkpt lat="45.92117505163327" lon="12.153211600532028"><ele>158.66666666666669</ele><time>2026-04-25T11:37:45.002Z</time></trkpt><trkpt lat="45.92110460836482" lon="12.153243541632655"><ele>157.33333333333334</ele><time>2026-04-25T11:37:46.002Z</time></trkpt><trkpt lat="45.921034175907245" lon="12.15328086365279"><ele>156.0</ele><time>2026-04-25T11:37:47.002Z</time></trkpt><trkpt lat="45.920967780953916" lon="12.15330195535143"><ele>154.66666666666666</ele><time>2026-04-25T11:37:48.002Z</time></trkpt><trkpt lat="45.92086067796974" lon="12.153355011549852"><ele>153.33333333333331</ele><time>2026-04-25T11:37:50.002Z</time></trkpt><trkpt lat="45.92077830356197" lon="12.153393111587164"><ele>152.0</ele><time>2026-04-25T11:37:51.002Z</time></trkpt><trkpt lat="45.920696583210855" lon="12.153431320340497"><ele>152.0</ele><time>2026-04-25T11:37:52.002Z</time></trkpt><trkpt lat="45.92062153161409" lon="12.153482386109749"><ele>152.0</ele><time>2026-04-25T11:37:53.002Z</time></trkpt><trkpt lat="45.92055629859033" lon="12.153527355533566"><ele>152.0</ele><time>2026-04-25T11:37:54.002Z</time></trkpt><trkpt lat="45.92048279313736" lon="12.15358482261579"><ele>152.0</ele><time>2026-04-25T11:37:55.002Z</time></trkpt><trkpt lat="45.92040900303757" lon="12.153640507695268"><ele>152.0</ele><time>2026-04-25T11:37:56.002Z</time></trkpt><trkpt lat="45.92033811471948" lon="12.153688468298997"><ele>152.0</ele><time>2026-04-25T11:37:57.002Z</time></trkpt><trkpt lat="45.92025514841668" lon="12.153719902802303"><ele>152.0</ele><time>2026-04-25T11:37:58.002Z</time></trkpt><trkpt lat="45.920170141155936" lon="12.15375609439875"><ele>152.0</ele><time>2026-04-25T11:37:59.002Z</time></trkpt><trkpt lat="45.92008476686279" lon="12.153787136882837"><ele>152.0</ele><time>2026-04-25T11:38:00.002Z</time></trkpt><trkpt lat="45.91999152312461" lon="12.15382550381045"><ele>152.0</ele><time>2026-04-25T11:38:01.002Z</time></trkpt><trkpt lat="45.91990629412947" lon="12.15386494971504"><ele>152.0</ele><time>2026-04-25T11:38:02.002Z</time></trkpt><trkpt lat="45.919828196352164" lon="12.153902787690038"><ele>152.0</ele><time>2026-04-25T11:38:03.002Z</time></trkpt><trkpt lat="45.919750900093376" lon="12.153947279991726"><ele>152.0</ele><time>2026-04-25T11:38:04.002Z</time></trkpt><trkpt lat="45.91966680114702" lon="12.153986670958279"><ele>152.0</ele><time>2026-04-25T11:38:05.002Z</time></trkpt><trkpt lat="45.919596150518906" lon="12.154004782844293"><ele>152.0</ele><time>2026-04-25T11:38:06.002Z</time></trkpt><trkpt lat="45.91951741019993" lon="12.153950104458792"><ele>152.0</ele><time>2026-04-25T11:38:08.002Z</time></trkpt><trkpt lat="45.91951554688734" lon="12.15382395502278"><ele>152.0</ele><time>2026-04-25T11:38:10.002Z</time></trkpt><trkpt lat="45.919563292044565" lon="12.153759410009636"><ele>152.0</ele><time>2026-04-25T11:38:12.002Z</time></trkpt><trkpt lat="45.91959153716025" lon="12.153653857741809"><ele>152.0</ele><time>2026-04-25T11:38:14.002Z</time></trkpt><trkpt lat="45.9196325943662" lon="12.15354221608784"><ele>152.0</ele><time>2026-04-25T11:38:16.002Z</time></trkpt><trkpt lat="45.9196700257799" lon="12.15338881857753"><ele>152.0</ele><time>2026-04-25T11:38:18.002Z</time></trkpt><trkpt lat="45.91972062354908" lon="12.153245011646714"><ele>152.0</ele><time>2026-04-25T11:38:20.002Z</time></trkpt><trkpt lat="45.91975753723542" lon="12.153111587135726"><ele>152.0</ele><time>2026-04-25T11:38:22.002Z</time></trkpt><trkpt lat="45.91981830440754" lon="12.152977208174333"><ele>153.0</ele><time>2026-04-25T11:38:24.002Z</time></trkpt><trkpt lat="45.91987787239977" lon="12.152855931808247"><ele>154.0</ele><time>2026-04-25T11:38:26.002Z</time></trkpt><trkpt lat="45.919951598489455" lon="12.152733167856946"><ele>155.0</ele><time>2026-04-25T11:38:28.002Z</time></trkpt><trkpt lat="45.92000057527305" lon="12.152593645231633"><ele>156.0</ele><time>2026-04-25T11:38:30.002Z</time></trkpt><trkpt lat="45.92005138048533" lon="12.15247389348742"><ele>157.0</ele><time>2026-04-25T11:38:32.002Z</time></trkpt><trkpt lat="45.92010144901692" lon="12.152361765843779"><ele>157.5</ele><time>2026-04-25T11:38:34.002Z</time></trkpt><trkpt lat="45.920130113952794" lon="12.152256346943613"><ele>158.0</ele><time>2026-04-25T11:38:36.002Z</time></trkpt><trkpt lat="45.920176199185015" lon="12.152131012296334"><ele>158.5</ele><time>2026-04-25T11:38:38.002Z</time></trkpt><trkpt lat="45.920215220985845" lon="12.152011887393325"><ele>159.0</ele><time>2026-04-25T11:38:40.002Z</time></trkpt><trkpt lat="45.92026170322059" lon="12.151880350084484"><ele>159.5</ele><time>2026-04-25T11:38:42.002Z</time></trkpt><trkpt lat="45.92029123537023" lon="12.15179600224812"><ele>160.0</ele><time>2026-04-25T11:38:43.002Z</time></trkpt><trkpt lat="45.92034003087362" lon="12.151669091158018"><ele>160.0</ele><time>2026-04-25T11:38:45.002Z</time></trkpt><trkpt lat="45.92038784072862" lon="12.151545449577338"><ele>160.0</ele><time>2026-04-25T11:38:47.002Z</time></trkpt><trkpt lat="45.92044782465357" lon="12.151432802154906"><ele>160.0</ele><time>2026-04-25T11:38:49.002Z</time></trkpt><trkpt lat="45.920499190841504" lon="12.151324732841074"><ele>160.0</ele><time>2026-04-25T11:38:50.002Z</time></trkpt><trkpt lat="45.92054634745774" lon="12.151240475236818"><ele>160.0</ele><time>2026-04-25T11:38:51.002Z</time></trkpt><trkpt lat="45.92058713438254" lon="12.151158663881684"><ele>160.0</ele><time>2026-04-25T11:38:52.002Z</time></trkpt><trkpt lat="45.9206271435448" lon="12.151075368843303"><ele>159.83333333333334</ele><time>2026-04-25T11:38:53.002Z</time></trkpt><trkpt lat="45.920661264311946" lon="12.150981378104003"><ele>159.66666666666669</ele><time>2026-04-25T11:38:54.002Z</time></trkpt><trkpt lat="45.920696361324154" lon="12.150884465933167"><ele>159.5</ele><time>2026-04-25T11:38:55.002Z</time></trkpt><trkpt lat="45.92072968240792" lon="12.150802818834816"><ele>159.33333333333334</ele><time>2026-04-25T11:38:56.002Z</time></trkpt><trkpt lat="45.92078780621616" lon="12.150644317115773"><ele>159.16666666666666</ele><time>2026-04-25T11:38:58.002Z</time></trkpt><trkpt lat="45.92081669733934" lon="12.150555310638776"><ele>159.0</ele><time>2026-04-25T11:38:59.002Z</time></trkpt><trkpt lat="45.920831908346464" lon="12.15039719637727"><ele>159.4</ele><time>2026-04-25T11:39:01.002Z</time></trkpt><trkpt lat="45.92083081783539" lon="12.150283436560642"><ele>159.8</ele><time>2026-04-25T11:39:03.002Z</time></trkpt><trkpt lat="45.920851925953095" lon="12.150128001222974"><ele>160.20000000000002</ele><time>2026-04-25T11:39:05.002Z</time></trkpt><trkpt lat="45.920861948927296" lon="12.149999273180457"><ele>160.60000000000002</ele><time>2026-04-25T11:39:07.002Z</time></trkpt><trkpt lat="45.92088256152053" lon="12.149909004322868"><ele>161.0</ele><time>2026-04-25T11:39:08.002Z</time></trkpt><trkpt lat="45.920931657464294" lon="12.149767453747648"><ele>162.8</ele><time>2026-04-25T11:39:10.002Z</time></trkpt><trkpt lat="45.920951544450354" lon="12.149608774859766"><ele>164.60000000000002</ele><time>2026-04-25T11:39:12.002Z</time></trkpt><trkpt lat="45.92099542526195" lon="12.149450420029575"><ele>166.4</ele><time>2026-04-25T11:39:14.002Z</time></trkpt><trkpt lat="45.921026045164105" lon="12.14930033262478"><ele>168.2</ele><time>2026-04-25T11:39:16.002Z</time></trkpt><trkpt lat="45.9210396851623" lon="12.149150597289287"><ele>170.0</ele><time>2026-04-25T11:39:18.002Z</time></trkpt><trkpt lat="45.92103344169569" lon="12.149042386292834"><ele>170.0</ele><time>2026-04-25T11:39:20.002Z</time></trkpt><trkpt lat="45.92103177468844" lon="12.148947617800449"><ele>170.0</ele><time>2026-04-25T11:39:21.002Z</time></trkpt><trkpt lat="45.9210174743628" lon="12.148799555023576"><ele>170.0</ele><time>2026-04-25T11:39:23.002Z</time></trkpt><trkpt lat="45.92101158402087" lon="12.148708100310005"><ele>170.0</ele><time>2026-04-25T11:39:24.002Z</time></trkpt><trkpt lat="45.92099610194337" lon="12.148540204997582"><ele>170.0</ele><time>2026-04-25T11:39:26.002Z</time></trkpt><trkpt lat="45.92098922173084" lon="12.148381699864135"><ele>170.0</ele><time>2026-04-25T11:39:28.002Z</time></trkpt><trkpt lat="45.921000348383686" lon="12.148230938758063"><ele>170.0</ele><time>2026-04-25T11:39:30.002Z</time></trkpt><trkpt lat="45.92101832515111" lon="12.148087997502783"><ele>170.0</ele><time>2026-04-25T11:39:32.002Z</time></trkpt><trkpt lat="45.921056073647186" lon="12.14795670913526"><ele>170.0</ele><time>2026-04-25T11:39:34.002Z</time></trkpt><trkpt lat="45.92110825936145" lon="12.147821541341681"><ele>170.0</ele><time>2026-04-25T11:39:36.002Z</time></trkpt><trkpt lat="45.921149164297866" lon="12.147727400504136"><ele>170.16666666666666</ele><time>2026-04-25T11:39:38.002Z</time></trkpt><trkpt lat="45.92118326859561" lon="12.147626049821167"><ele>170.33333333333331</ele><time>2026-04-25T11:39:40.002Z</time></trkpt><trkpt lat="45.92123540327644" lon="12.147533107014745"><ele>170.5</ele><time>2026-04-25T11:39:42.002Z</time></trkpt><trkpt lat="45.92128296997599" lon="12.147414570693613"><ele>170.66666666666666</ele><time>2026-04-25T11:39:44.002Z</time></trkpt><trkpt lat="45.92133467770543" lon="12.147344311028002"><ele>170.83333333333334</ele><time>2026-04-25T11:39:46.002Z</time></trkpt><trkpt lat="45.92137742167101" lon="12.147191364412548"><ele>171.0</ele><time>2026-04-25T11:39:49.002Z</time></trkpt><trkpt lat="45.92142130921426" lon="12.147068326647167"><ele>171.0</ele><time>2026-04-25T11:39:51.002Z</time></trkpt><trkpt lat="45.921418453005195" lon="12.14693069522133"><ele>171.0</ele><time>2026-04-25T11:39:53.002Z</time></trkpt><trkpt lat="45.921409580927424" lon="12.146827792773053"><ele>171.0</ele><time>2026-04-25T11:39:55.002Z</time></trkpt><trkpt lat="45.92136934145114" lon="12.146725349966948"><ele>171.0</ele><time>2026-04-25T11:39:57.002Z</time></trkpt><trkpt lat="45.92135139108733" lon="12.146604157445275"><ele>171.0</ele><time>2026-04-25T11:39:59.002Z</time></trkpt><trkpt lat="45.92133903760015" lon="12.14646740038295"><ele>171.0</ele><time>2026-04-25T11:40:02.002Z</time></trkpt><trkpt lat="45.92133009150744" lon="12.14634571962356"><ele>171.20000000000002</ele><time>2026-04-25T11:40:04.002Z</time></trkpt><trkpt lat="45.921352938583226" lon="12.14625438624524"><ele>171.4</ele><time>2026-04-25T11:40:05.002Z</time></trkpt><trkpt lat="45.92137434771677" lon="12.146109664891535"><ele>171.6</ele><time>2026-04-25T11:40:07.002Z</time></trkpt><trkpt lat="45.9214236336007" lon="12.145878767369888"><ele>171.8</ele><time>2026-04-25T11:40:10.002Z</time></trkpt><trkpt lat="45.92142278831977" lon="12.145750966711827"><ele>172.0</ele><time>2026-04-25T11:40:12.002Z</time></trkpt><trkpt lat="45.921384749430835" lon="12.14564752041099"><ele>172.0</ele><time>2026-04-25T11:40:14.002Z</time></trkpt><trkpt lat="45.92134492708399" lon="12.145499853540482"><ele>172.0</ele><time>2026-04-25T11:40:16.002Z</time></trkpt><trkpt lat="45.92130765399663" lon="12.145378022769174"><ele>172.0</ele><time>2026-04-25T11:40:18.002Z</time></trkpt><trkpt lat="45.921255612847226" lon="12.145280235247506"><ele>172.0</ele><time>2026-04-25T11:40:20.002Z</time></trkpt><trkpt lat="45.92123163445813" lon="12.145141522744268"><ele>172.0</ele><time>2026-04-25T11:40:22.002Z</time></trkpt><trkpt lat="45.92124191503232" lon="12.145043742072218"><ele>172.0</ele><time>2026-04-25T11:40:23.002Z</time></trkpt><trkpt lat="45.92124856166727" lon="12.144945419110051"><ele>172.0</ele><time>2026-04-25T11:40:24.002Z</time></trkpt><trkpt lat="45.92125459543221" lon="12.144798610810362"><ele>172.0</ele><time>2026-04-25T11:40:26.002Z</time></trkpt><trkpt lat="45.92128821283067" lon="12.144626476805055"><ele>172.0</ele><time>2026-04-25T11:40:28.002Z</time></trkpt><trkpt lat="45.92130674831445" lon="12.144505692362511"><ele>172.0</ele><time>2026-04-25T11:40:30.002Z</time></trkpt><trkpt lat="45.92131462282395" lon="12.144380324002004"><ele>172.83333333333334</ele><time>2026-04-25T11:40:32.002Z</time></trkpt><trkpt lat="45.9213148325777" lon="12.144275233862766"><ele>173.66666666666669</ele><time>2026-04-25T11:40:35.002Z</time></trkpt><trkpt lat="45.92133793427872" lon="12.144133904773176"><ele>174.5</ele><time>2026-04-25T11:40:38.002Z</time></trkpt><trkpt lat="45.92135360673945" lon="12.144038039157381"><ele>175.33333333333334</ele><time>2026-04-25T11:40:40.003Z</time></trkpt><trkpt lat="45.92134168731453" lon="12.143877730743458"><ele>176.16666666666666</ele><time>2026-04-25T11:40:43.002Z</time></trkpt><trkpt lat="45.921327072043944" lon="12.143764401745186"><ele>177.0</ele><time>2026-04-25T11:40:46.002Z</time></trkpt><trkpt lat="45.92135467229108" lon="12.143669297877377"><ele>178.0</ele><time>2026-04-25T11:40:48.002Z</time></trkpt><trkpt lat="45.9213273483562" lon="12.143537482224193"><ele>179.0</ele><time>2026-04-25T11:40:50.002Z</time></trkpt><trkpt lat="45.92130542871908" lon="12.143410665693603"><ele>180.0</ele><time>2026-04-25T11:40:52.002Z</time></trkpt><trkpt lat="45.92131722382259" lon="12.14329994242526"><ele>181.0</ele><time>2026-04-25T11:40:53.002Z</time></trkpt><trkpt lat="45.921310942779" lon="12.14320365006373"><ele>182.0</ele><time>2026-04-25T11:40:54.002Z</time></trkpt><trkpt lat="45.92127287894125" lon="12.143056525758864"><ele>183.0</ele><time>2026-04-25T11:40:56.002Z</time></trkpt><trkpt lat="45.9212272496366" lon="12.142899558782515"><ele>183.2</ele><time>2026-04-25T11:40:58.002Z</time></trkpt><trkpt lat="45.92118150199407" lon="12.142768234403706"><ele>183.4</ele><time>2026-04-25T11:41:00.002Z</time></trkpt><trkpt lat="45.921183951630134" lon="12.14260371338299"><ele>183.6</ele><time>2026-04-25T11:41:02.002Z</time></trkpt><trkpt lat="45.92119030178624" lon="12.142458860536006"><ele>183.79999999999998</ele><time>2026-04-25T11:41:04.002Z</time></trkpt><trkpt lat="45.921163312692144" lon="12.142328706354622"><ele>184.0</ele><time>2026-04-25T11:41:05.002Z</time></trkpt><trkpt lat="45.92114889713039" lon="12.142230038442646"><ele>184.16666666666669</ele><time>2026-04-25T11:41:06.002Z</time></trkpt><trkpt lat="45.921159197129874" lon="12.142086358385802"><ele>184.33333333333334</ele><time>2026-04-25T11:41:07.002Z</time></trkpt><trkpt lat="45.92117295580812" lon="12.141947639250384"><ele>184.5</ele><time>2026-04-25T11:41:08.002Z</time></trkpt><trkpt lat="45.92116654582499" lon="12.14185003546479"><ele>184.66666666666666</ele><time>2026-04-25T11:41:09.002Z</time></trkpt><trkpt lat="45.92114701900686" lon="12.141758947651173"><ele>184.83333333333331</ele><time>2026-04-25T11:41:10.002Z</time></trkpt><trkpt lat="45.92112414565922" lon="12.141660706136141"><ele>185.0</ele><time>2026-04-25T11:41:11.002Z</time></trkpt><trkpt lat="45.921092272837505" lon="12.1415308222622"><ele>185.16666666666666</ele><time>2026-04-25T11:41:13.002Z</time></trkpt><trkpt lat="45.92103552955495" lon="12.141404716127226"><ele>185.33333333333331</ele><time>2026-04-25T11:41:15.002Z</time></trkpt><trkpt lat="45.92097644700275" lon="12.141314717674252"><ele>185.5</ele><time>2026-04-25T11:41:17.002Z</time></trkpt><trkpt lat="45.92092180687349" lon="12.141209255988938"><ele>185.66666666666666</ele><time>2026-04-25T11:41:19.002Z</time></trkpt><trkpt lat="45.920893721783976" lon="12.141112504023951"><ele>185.83333333333334</ele><time>2026-04-25T11:41:21.002Z</time></trkpt><trkpt lat="45.92089051791593" lon="12.140989545692735"><ele>186.0</ele><time>2026-04-25T11:41:23.002Z</time></trkpt><trkpt lat="45.92089480828919" lon="12.1408421537118"><ele>186.0</ele><time>2026-04-25T11:41:25.002Z</time></trkpt><trkpt lat="45.9208905442611" lon="12.140720687373674"><ele>186.0</ele><time>2026-04-25T11:41:27.002Z</time></trkpt><trkpt lat="45.92085315591556" lon="12.14060775027687"><ele>186.0</ele><time>2026-04-25T11:41:29.002Z</time></trkpt><trkpt lat="45.92083886428716" lon="12.14047681171437"><ele>186.0</ele><time>2026-04-25T11:41:31.002Z</time></trkpt><trkpt lat="45.92080995970221" lon="12.14035978588824"><ele>186.0</ele><time>2026-04-25T11:41:33.002Z</time></trkpt><trkpt lat="45.920806723614156" lon="12.140202264414457"><ele>185.8</ele><time>2026-04-25T11:41:35.002Z</time></trkpt><trkpt lat="45.920779749146675" lon="12.14007315440774"><ele>185.60000000000002</ele><time>2026-04-25T11:41:37.002Z</time></trkpt><trkpt lat="45.92076731119384" lon="12.139925746223597"><ele>185.4</ele><time>2026-04-25T11:41:39.002Z</time></trkpt><trkpt lat="45.92073970775057" lon="12.139772878702615"><ele>185.2</ele><time>2026-04-25T11:41:41.002Z</time></trkpt><trkpt lat="45.920715757254996" lon="12.1396197543817"><ele>185.0</ele><time>2026-04-25T11:41:43.002Z</time></trkpt><trkpt lat="45.92070087831822" lon="12.139458607032555"><ele>185.0</ele><time>2026-04-25T11:41:45.002Z</time></trkpt><trkpt lat="45.92068911624168" lon="12.139299164316798"><ele>185.0</ele><time>2026-04-25T11:41:47.002Z</time></trkpt><trkpt lat="45.92067299381664" lon="12.139145690670613"><ele>185.0</ele><time>2026-04-25T11:41:49.002Z</time></trkpt><trkpt lat="45.92064632100761" lon="12.139010789940038"><ele>185.0</ele><time>2026-04-25T11:41:51.002Z</time></trkpt><trkpt lat="45.92062363086916" lon="12.13887641013493"><ele>185.0</ele><time>2026-04-25T11:41:53.002Z</time></trkpt><trkpt lat="45.92060465330032" lon="12.138745338385982"><ele>186.4</ele><time>2026-04-25T11:41:55.002Z</time></trkpt><trkpt lat="45.92057760560216" lon="12.1386411851417"><ele>187.8</ele><time>2026-04-25T11:41:57.002Z</time></trkpt><trkpt lat="45.92056328972415" lon="12.138490935763226"><ele>189.2</ele><time>2026-04-25T11:41:59.002Z</time></trkpt><trkpt lat="45.92052583763401" lon="12.138362802318985"><ele>190.6</ele><time>2026-04-25T11:42:01.002Z</time></trkpt><trkpt lat="45.92049268737884" lon="12.138231766420258"><ele>192.0</ele><time>2026-04-25T11:42:03.002Z</time></trkpt><trkpt lat="45.92048479468849" lon="12.138065538317974"><ele>192.16666666666666</ele><time>2026-04-25T11:42:05.002Z</time></trkpt><trkpt lat="45.9204521289978" lon="12.137947043589756"><ele>192.33333333333331</ele><time>2026-04-25T11:42:07.002Z</time></trkpt><trkpt lat="45.92042891997249" lon="12.137843200106948"><ele>192.5</ele><time>2026-04-25T11:42:09.002Z</time></trkpt><trkpt lat="45.92040298187388" lon="12.137742744035936"><ele>192.66666666666666</ele><time>2026-04-25T11:42:11.002Z</time></trkpt><trkpt lat="45.92037216388478" lon="12.1376438265193"><ele>192.83333333333331</ele><time>2026-04-25T11:42:13.002Z</time></trkpt><trkpt lat="45.92034209176657" lon="12.137540961775649"><ele>193.0</ele><time>2026-04-25T11:42:15.002Z</time></trkpt><trkpt lat="45.92028767389879" lon="12.137450217777731"><ele>194.42857142857144</ele><time>2026-04-25T11:42:17.002Z</time></trkpt><trkpt lat="45.92024570588659" lon="12.137376336832563"><ele>195.85714285714286</ele><time>2026-04-25T11:42:19.002Z</time></trkpt><trkpt lat="45.92018363443772" lon="12.1373113684421"><ele>197.28571428571428</ele><time>2026-04-25T11:42:21.002Z</time></trkpt><trkpt lat="45.92013640682558" lon="12.137237618329369"><ele>198.71428571428572</ele><time>2026-04-25T11:42:23.003Z</time></trkpt><trkpt lat="45.92008413068866" lon="12.13716946037665"><ele>200.14285714285714</ele><time>2026-04-25T11:42:25.003Z</time></trkpt><trkpt lat="45.92002808421603" lon="12.137114547434745"><ele>201.57142857142858</ele><time>2026-04-25T11:42:27.003Z</time></trkpt><trkpt lat="45.91998733154325" lon="12.137035634508528"><ele>203.0</ele><time>2026-04-25T11:42:29.003Z</time></trkpt><trkpt lat="45.91993491523951" lon="12.136977935188375"><ele>203.33333333333334</ele><time>2026-04-25T11:42:31.003Z</time></trkpt><trkpt lat="45.919867500979926" lon="12.136888176126993"><ele>203.66666666666669</ele><time>2026-04-25T11:42:34.003Z</time></trkpt><trkpt lat="45.91980597994799" lon="12.136863050358407"><ele>204.0</ele><time>2026-04-25T11:42:36.003Z</time></trkpt><trkpt lat="45.91973275249793" lon="12.136793783211624"><ele>204.33333333333331</ele><time>2026-04-25T11:42:38.003Z</time></trkpt><trkpt lat="45.9196529444189" lon="12.136739879997533"><ele>204.66666666666666</ele><time>2026-04-25T11:42:41.003Z</time></trkpt><trkpt lat="45.919582866399836" lon="12.13666773007286"><ele>205.0</ele><time>2026-04-25T11:42:43.003Z</time></trkpt><trkpt lat="45.91951996562459" lon="12.136595748606707"><ele>208.8</ele><time>2026-04-25T11:42:45.003Z</time></trkpt><trkpt lat="45.91944931728462" lon="12.136531267709433"><ele>212.6</ele><time>2026-04-25T11:42:47.003Z</time></trkpt><trkpt lat="45.91941030161719" lon="12.13643110722823"><ele>216.39999999999998</ele><time>2026-04-25T11:42:49.003Z</time></trkpt><trkpt lat="45.919375056967674" lon="12.136314295548289"><ele>220.2</ele><time>2026-04-25T11:42:51.003Z</time></trkpt><trkpt lat="45.919376944339945" lon="12.136185464620318"><ele>224.0</ele><time>2026-04-25T11:42:53.003Z</time></trkpt><trkpt lat="45.9193947920706" lon="12.136031842282067"><ele>224.00000000000003</ele><time>2026-04-25T11:42:55.003Z</time></trkpt><trkpt lat="45.91939051833654" lon="12.135931531148545"><ele>224.0</ele><time>2026-04-25T11:42:57.003Z</time></trkpt><trkpt lat="45.919365289747425" lon="12.135828571079852"><ele>224.0</ele><time>2026-04-25T11:42:58.003Z</time></trkpt><trkpt lat="45.91930154457583" lon="12.135720101718238"><ele>224.0</ele><time>2026-04-25T11:43:00.003Z</time></trkpt><trkpt lat="45.91925837718916" lon="12.135609891330432"><ele>224.00000000000003</ele><time>2026-04-25T11:43:02.003Z</time></trkpt><trkpt lat="45.919206169032684" lon="12.135515822807761"><ele>224.0</ele><time>2026-04-25T11:43:04.003Z</time></trkpt><trkpt lat="45.91917296802182" lon="12.13539074194022"><ele>224.83333333333334</ele><time>2026-04-25T11:43:06.003Z</time></trkpt><trkpt lat="45.91917139216015" lon="12.135251633304684"><ele>225.66666666666669</ele><time>2026-04-25T11:43:08.003Z</time></trkpt><trkpt lat="45.9191962259268" lon="12.135133127409462"><ele>226.5</ele><time>2026-04-25T11:43:10.003Z</time></trkpt><trkpt lat="45.91918839481976" lon="12.135021426333156"><ele>227.33333333333331</ele><time>2026-04-25T11:43:12.003Z</time></trkpt><trkpt lat="45.919177287939114" lon="12.134907801024493"><ele>228.16666666666666</ele><time>2026-04-25T11:43:15.003Z</time></trkpt><trkpt lat="45.91915421338063" lon="12.134803723445847"><ele>229.0</ele><time>2026-04-25T11:43:18.003Z</time></trkpt><trkpt lat="45.919134798438854" lon="12.134674101328521"><ele>229.14285714285714</ele><time>2026-04-25T11:43:21.003Z</time></trkpt><trkpt lat="45.91915370566111" lon="12.134560297144635"><ele>229.28571428571428</ele><time>2026-04-25T11:43:24.003Z</time></trkpt><trkpt lat="45.91916163285699" lon="12.134460595109575"><ele>229.42857142857142</ele><time>2026-04-25T11:43:29.003Z</time></trkpt><trkpt lat="45.91917645533201" lon="12.134361940059955"><ele>229.57142857142856</ele><time>2026-04-25T11:43:34.003Z</time></trkpt><trkpt lat="45.91921506031998" lon="12.134265502897108"><ele>229.71428571428572</ele><time>2026-04-25T11:43:39.003Z</time></trkpt><trkpt lat="45.919226616016786" lon="12.134161657603734"><ele>229.85714285714283</ele><time>2026-04-25T11:43:43.003Z</time></trkpt><trkpt lat="45.91925755135802" lon="12.134060981226359"><ele>229.99999999999997</ele><time>2026-04-25T11:43:47.003Z</time></trkpt><trkpt lat="45.91927358944367" lon="12.133941434407845"><ele>229.71428571428567</ele><time>2026-04-25T11:43:50.003Z</time></trkpt><trkpt lat="45.91930315911336" lon="12.13385881213194"><ele>229.42857142857142</ele><time>2026-04-25T11:43:54.003Z</time></trkpt><trkpt lat="45.91935222320405" lon="12.133757161392472"><ele>229.1428571428571</ele><time>2026-04-25T11:43:58.003Z</time></trkpt><trkpt lat="45.91939695120131" lon="12.13367487968634"><ele>228.85714285714283</ele><time>2026-04-25T11:44:02.003Z</time></trkpt><trkpt lat="45.919455988943675" lon="12.133618579230271"><ele>228.57142857142856</ele><time>2026-04-25T11:44:07.003Z</time></trkpt><trkpt lat="45.91949925974279" lon="12.13354773560492"><ele>228.28571428571428</ele><time>2026-04-25T11:44:10.003Z</time></trkpt><trkpt lat="45.91952344529947" lon="12.133452555574609"><ele>228.0</ele><time>2026-04-25T11:44:14.003Z</time></trkpt><trkpt lat="45.919535688302446" lon="12.133335996888844"><ele>228.0</ele><time>2026-04-25T11:44:19.003Z</time></trkpt><trkpt lat="45.91955050322603" lon="12.133228772364212"><ele>228.0</ele><time>2026-04-25T11:44:23.003Z</time></trkpt><trkpt lat="45.9195888743763" lon="12.133148738536503"><ele>228.0</ele><time>2026-04-25T11:44:27.003Z</time></trkpt><trkpt lat="45.919647375637936" lon="12.133057026601803"><ele>228.0</ele><time>2026-04-25T11:44:33.003Z</time></trkpt><trkpt lat="45.919688909503634" lon="12.132962958882969"><ele>228.0</ele><time>2026-04-25T11:44:37.003Z</time></trkpt><trkpt lat="45.91973539540902" lon="12.132891657432383"><ele>228.0</ele><time>2026-04-25T11:44:41.003Z</time></trkpt><trkpt lat="45.91978820722514" lon="12.13281687717272"><ele>228.42857142857142</ele><time>2026-04-25T11:44:45.004Z</time></trkpt><trkpt lat="45.919827833069476" lon="12.132730931426117"><ele>228.85714285714283</ele><time>2026-04-25T11:44:49.004Z</time></trkpt><trkpt lat="45.91985490303678" lon="12.132634307418074"><ele>229.28571428571428</ele><time>2026-04-25T11:44:54.004Z</time></trkpt><trkpt lat="45.91983618331215" lon="12.132545915932514"><ele>229.71428571428572</ele><time>2026-04-25T11:45:01.004Z</time></trkpt><trkpt lat="45.919773752100895" lon="12.132560098630558"><ele>230.14285714285714</ele><time>2026-04-25T11:45:16.004Z</time></trkpt><trkpt lat="45.91970565867249" lon="12.132614279451097"><ele>230.57142857142856</ele><time>2026-04-25T11:45:23.004Z</time></trkpt><trkpt lat="45.91963109387623" lon="12.132640705075344"><ele>231.0</ele><time>2026-04-25T11:45:30.004Z</time></trkpt><trkpt lat="45.9195664965987" lon="12.132599785419474"><ele>231.0</ele><time>2026-04-25T11:45:34.004Z</time></trkpt><trkpt lat="45.919513137972096" lon="12.132516943739747"><ele>231.0</ele><time>2026-04-25T11:45:40.004Z</time></trkpt><trkpt lat="45.91946802976735" lon="12.132435754146156"><ele>231.0</ele><time>2026-04-25T11:45:46.004Z</time></trkpt><trkpt lat="45.91948352507668" lon="12.132342835525053"><ele>231.0</ele><time>2026-04-25T11:45:52.004Z</time></trkpt><trkpt lat="45.919516242653735" lon="12.132244563811769"><ele>231.0</ele><time>2026-04-25T11:45:57.004Z</time></trkpt><trkpt lat="45.9195598721304" lon="12.132168558658591"><ele>231.0</ele><time>2026-04-25T11:46:01.004Z</time></trkpt><trkpt lat="45.91961229663169" lon="12.132110542815031"><ele>231.0</ele><time>2026-04-25T11:46:07.004Z</time></trkpt><trkpt lat="45.919649665626366" lon="12.132016037830894"><ele>232.0</ele><time>2026-04-25T11:46:12.004Z</time></trkpt><trkpt lat="45.91966574671684" lon="12.131910329605983"><ele>233.0</ele><time>2026-04-25T11:46:17.004Z</time></trkpt><trkpt lat="45.919653940275694" lon="12.131811390381827"><ele>234.0</ele><time>2026-04-25T11:46:24.004Z</time></trkpt><trkpt lat="45.91963722945827" lon="12.131720762837528"><ele>235.0</ele><time>2026-04-25T11:46:29.004Z</time></trkpt><trkpt lat="45.91962659397819" lon="12.131623279535141"><ele>236.0</ele><time>2026-04-25T11:46:34.004Z</time></trkpt><trkpt lat="45.919597589086884" lon="12.131523381450757"><ele>237.0</ele><time>2026-04-25T11:46:38.004Z</time></trkpt><trkpt lat="45.91954773768594" lon="12.13145803574344"><ele>238.0</ele><time>2026-04-25T11:46:44.004Z</time></trkpt><trkpt lat="45.919479437037864" lon="12.131402725816306"><ele>239.57142857142856</ele><time>2026-04-25T11:46:50.005Z</time></trkpt><trkpt lat="45.91944738122293" lon="12.13131915270889"><ele>241.14285714285714</ele><time>2026-04-25T11:46:56.005Z</time></trkpt><trkpt lat="45.91940992216136" lon="12.131223380767635"><ele>242.71428571428572</ele><time>2026-04-25T11:47:01.005Z</time></trkpt><trkpt lat="45.919381389362" lon="12.13113343738545"><ele>244.28571428571428</ele><time>2026-04-25T11:47:07.004Z</time></trkpt><trkpt lat="45.9193680289076" lon="12.131038026277315"><ele>245.85714285714283</ele><time>2026-04-25T11:47:11.004Z</time></trkpt><trkpt lat="45.91936132262154" lon="12.13094707991756"><ele>247.42857142857142</ele><time>2026-04-25T11:47:15.004Z</time></trkpt><trkpt lat="45.91934849918977" lon="12.130854712497898"><ele>249.0</ele><time>2026-04-25T11:47:19.004Z</time></trkpt><trkpt lat="45.91930229869465" lon="12.130782059533571"><ele>251.14285714285714</ele><time>2026-04-25T11:47:24.004Z</time></trkpt><trkpt lat="45.91925476527277" lon="12.130709281349352"><ele>253.28571428571428</ele><time>2026-04-25T11:47:30.004Z</time></trkpt><trkpt lat="45.91920698705125" lon="12.130637725778076"><ele>255.42857142857142</ele><time>2026-04-25T11:47:35.004Z</time></trkpt><trkpt lat="45.919181790111985" lon="12.130534960969738"><ele>257.57142857142856</ele><time>2026-04-25T11:47:41.004Z</time></trkpt><trkpt lat="45.9191650138156" lon="12.13044018324887"><ele>259.7142857142857</ele><time>2026-04-25T11:47:46.004Z</time></trkpt><trkpt lat="45.9191326070066" lon="12.13034597263171"><ele>261.85714285714283</ele><time>2026-04-25T11:47:52.004Z</time></trkpt><trkpt lat="45.91906733958431" lon="12.130381441144277"><ele>264.0</ele><time>2026-04-25T11:48:02.004Z</time></trkpt><trkpt lat="45.91905244774819" lon="12.130485304671154"><ele>265.1428571428571</ele><time>2026-04-25T11:48:10.004Z</time></trkpt><trkpt lat="45.91904842099731" lon="12.130582591132955"><ele>266.2857142857143</ele><time>2026-04-25T11:48:16.004Z</time></trkpt><trkpt lat="45.91902240860289" lon="12.130680010839535"><ele>267.42857142857144</ele><time>2026-04-25T11:48:22.004Z</time></trkpt><trkpt lat="45.91901181344645" lon="12.130770369918837"><ele>268.57142857142856</ele><time>2026-04-25T11:48:26.004Z</time></trkpt><trkpt lat="45.9189864591285" lon="12.130878002935898"><ele>269.7142857142857</ele><time>2026-04-25T11:48:31.004Z</time></trkpt><trkpt lat="45.918997598433066" lon="12.130969939719739"><ele>270.85714285714283</ele><time>2026-04-25T11:48:34.004Z</time></trkpt><trkpt lat="45.919011891023" lon="12.131072446685993"><ele>272.0</ele><time>2026-04-25T11:48:39.004Z</time></trkpt><trkpt lat="45.91903834197904" lon="12.131165673701291"><ele>272.0</ele><time>2026-04-25T11:48:43.004Z</time></trkpt><trkpt lat="45.91906441676097" lon="12.131257991303242"><ele>272.0</ele><time>2026-04-25T11:48:47.004Z</time></trkpt><trkpt lat="45.91907211991607" lon="12.131383057447756"><ele>272.0</ele><time>2026-04-25T11:48:51.004Z</time></trkpt><trkpt lat="45.91905135240145" lon="12.131506347715224"><ele>272.0</ele><time>2026-04-25T11:48:54.004Z</time></trkpt><trkpt lat="45.91898203267629" lon="12.131500479337085"><ele>272.0</ele><time>2026-04-25T11:49:02.005Z</time></trkpt><trkpt lat="45.918955610001454" lon="12.131407631267752"><ele>272.0</ele><time>2026-04-25T11:49:09.005Z</time></trkpt><trkpt lat="45.91893238430544" lon="12.131307753173683"><ele>271.99999999999994</ele><time>2026-04-25T11:49:14.005Z</time></trkpt><trkpt lat="45.91889428175898" lon="12.131223159978056"><ele>272.0</ele><time>2026-04-25T11:49:18.005Z</time></trkpt><trkpt lat="45.91884783828241" lon="12.131137649545197"><ele>272.0</ele><time>2026-04-25T11:49:22.005Z</time></trkpt><trkpt lat="45.91880976153553" lon="12.1310529551331"><ele>272.0</ele><time>2026-04-25T11:49:27.005Z</time></trkpt><trkpt lat="45.918768117034205" lon="12.130966903506808"><ele>272.0</ele><time>2026-04-25T11:49:31.005Z</time></trkpt><trkpt lat="45.91873210957779" lon="12.130883631889239"><ele>271.99999999999994</ele><time>2026-04-25T11:49:35.005Z</time></trkpt><trkpt lat="45.9187094058145" lon="12.130796986822173"><ele>272.0</ele><time>2026-04-25T11:49:39.005Z</time></trkpt><trkpt lat="45.918678714047154" lon="12.130713545198626"><ele>272.71428571428567</ele><time>2026-04-25T11:49:43.005Z</time></trkpt><trkpt lat="45.91865823345012" lon="12.130627276367022"><ele>273.42857142857144</ele><time>2026-04-25T11:49:46.005Z</time></trkpt><trkpt lat="45.91862652963906" lon="12.130520707210275"><ele>274.1428571428571</ele><time>2026-04-25T11:49:51.005Z</time></trkpt><trkpt lat="45.91862380570155" lon="12.130411208001265"><ele>274.85714285714283</ele><time>2026-04-25T11:49:56.005Z</time></trkpt><trkpt lat="45.91863059550312" lon="12.130309157208222"><ele>275.57142857142856</ele><time>2026-04-25T11:49:59.005Z</time></trkpt><trkpt lat="45.91865228226641" lon="12.13020392594541"><ele>276.2857142857143</ele><time>2026-04-25T11:50:03.005Z</time></trkpt><trkpt lat="45.918667585122364" lon="12.13010121166229"><ele>277.0</ele><time>2026-04-25T11:50:06.005Z</time></trkpt><trkpt lat="45.91866947282229" lon="12.129985229710835"><ele>278.57142857142856</ele><time>2026-04-25T11:50:10.005Z</time></trkpt><trkpt lat="45.918670746255195" lon="12.129876448216146"><ele>280.1428571428571</ele><time>2026-04-25T11:50:15.005Z</time></trkpt><trkpt lat="45.91868160232826" lon="12.129757659022612"><ele>281.7142857142857</ele><time>2026-04-25T11:50:20.005Z</time></trkpt><trkpt lat="45.91866980074612" lon="12.129665326334932"><ele>283.2857142857143</ele><time>2026-04-25T11:50:25.005Z</time></trkpt><trkpt lat="45.91863644913726" lon="12.129561549063933"><ele>284.8571428571429</ele><time>2026-04-25T11:50:31.005Z</time></trkpt><trkpt lat="45.918625833162544" lon="12.129458624697609"><ele>286.42857142857144</ele><time>2026-04-25T11:50:36.005Z</time></trkpt><trkpt lat="45.91860334653245" lon="12.12936016141448"><ele>288.0</ele><time>2026-04-25T11:50:40.005Z</time></trkpt><trkpt lat="45.91859075628142" lon="12.129266259073628"><ele>288.00000000000006</ele><time>2026-04-25T11:50:44.005Z</time></trkpt><trkpt lat="45.91860513036035" lon="12.129154523530532"><ele>288.0</ele><time>2026-04-25T11:50:48.005Z</time></trkpt><trkpt lat="45.9186121314177" lon="12.129057331351428"><ele>288.0</ele><time>2026-04-25T11:50:52.005Z</time></trkpt><trkpt lat="45.91859483012039" lon="12.12895904295259"><ele>288.0</ele><time>2026-04-25T11:50:57.005Z</time></trkpt><trkpt lat="45.918608832390426" lon="12.128848334125955"><ele>288.0</ele><time>2026-04-25T11:51:03.006Z</time></trkpt><trkpt lat="45.91861834985789" lon="12.1287470532134"><ele>288.00000000000006</ele><time>2026-04-25T11:51:08.006Z</time></trkpt><trkpt lat="45.91863033659745" lon="12.1286526552076"><ele>288.0</ele><time>2026-04-25T11:51:12.006Z</time></trkpt><trkpt lat="45.91864876754969" lon="12.128564304442992"><ele>290.14285714285717</ele><time>2026-04-25T11:51:16.006Z</time></trkpt><trkpt lat="45.918655534365485" lon="12.128471645333269"><ele>292.2857142857143</ele><time>2026-04-25T11:51:20.006Z</time></trkpt><trkpt lat="45.91866831073532" lon="12.128373037340246"><ele>294.42857142857144</ele><time>2026-04-25T11:51:24.006Z</time></trkpt><trkpt lat="45.91868711803305" lon="12.128282638868153"><ele>296.57142857142856</ele><time>2026-04-25T11:51:28.006Z</time></trkpt><trkpt lat="45.918692743753915" lon="12.128170803646844"><ele>298.7142857142857</ele><time>2026-04-25T11:51:32.006Z</time></trkpt><trkpt lat="45.91872687526161" lon="12.128076559547504"><ele>300.8571428571429</ele><time>2026-04-25T11:51:36.006Z</time></trkpt><trkpt lat="45.91874609044907" lon="12.127980685065047"><ele>303.0</ele><time>2026-04-25T11:51:39.006Z</time></trkpt><trkpt lat="45.91881713399277" lon="12.127874496667086"><ele>303.1666666666667</ele><time>2026-04-25T11:51:42.006Z</time></trkpt><trkpt lat="45.91885145886802" lon="12.127792432703757"><ele>303.3333333333333</ele><time>2026-04-25T11:51:45.006Z</time></trkpt><trkpt lat="45.918897425787705" lon="12.127696321987663"><ele>303.5</ele><time>2026-04-25T11:51:48.006Z</time></trkpt><trkpt lat="45.91898049432902" lon="12.127687842305665"><ele>303.66666666666663</ele><time>2026-04-25T11:51:51.006Z</time></trkpt><trkpt lat="45.91905557138447" lon="12.12773051180496"><ele>303.8333333333333</ele><time>2026-04-25T11:51:52.006Z</time></trkpt><trkpt lat="45.919150462644076" lon="12.127752556708778"><ele>304.0</ele><time>2026-04-25T11:51:53.006Z</time></trkpt><trkpt lat="45.91924477235131" lon="12.127757327696434"><ele>305.0</ele><time>2026-04-25T11:51:54.006Z</time></trkpt><trkpt lat="45.91931529306276" lon="12.12776363010933"><ele>306.0</ele><time>2026-04-25T11:51:55.006Z</time></trkpt><trkpt lat="45.91938170032338" lon="12.127754557131302"><ele>307.0</ele><time>2026-04-25T11:51:56.006Z</time></trkpt><trkpt lat="45.91949404705916" lon="12.127807681070598"><ele>308.0</ele><time>2026-04-25T11:51:58.006Z</time></trkpt><trkpt lat="45.919608835762496" lon="12.127823728317424"><ele>309.0</ele><time>2026-04-25T11:52:00.006Z</time></trkpt><trkpt lat="45.91973327124077" lon="12.127768943944545"><ele>309.0</ele><time>2026-04-25T11:52:02.006Z</time></trkpt><trkpt lat="45.919829704998094" lon="12.12771442871552"><ele>309.0</ele><time>2026-04-25T11:52:04.006Z</time></trkpt><trkpt lat="45.91989899267134" lon="12.127680366503501"><ele>309.0</ele><time>2026-04-25T11:52:06.006Z</time></trkpt><trkpt lat="45.91995773675204" lon="12.127638329477577"><ele>309.0</ele><time>2026-04-25T11:52:08.006Z</time></trkpt><trkpt lat="45.92001077772974" lon="12.127585944527963"><ele>309.0</ele><time>2026-04-25T11:52:11.006Z</time></trkpt><trkpt lat="45.92008006016278" lon="12.127529906307302"><ele>309.0</ele><time>2026-04-25T11:52:14.006Z</time></trkpt><trkpt lat="45.92014131784004" lon="12.127473221337503"><ele>313.1666666666667</ele><time>2026-04-25T11:52:18.006Z</time></trkpt><trkpt lat="45.92026862585283" lon="12.127581024911239"><ele>317.3333333333333</ele><time>2026-04-25T11:52:29.006Z</time></trkpt><trkpt lat="45.92033931282267" lon="12.127593925600115"><ele>321.5</ele><time>2026-04-25T11:52:35.006Z</time></trkpt><trkpt lat="45.92037471293548" lon="12.127503995646096"><ele>325.66666666666663</ele><time>2026-04-25T11:52:40.006Z</time></trkpt><trkpt lat="45.92041379407221" lon="12.127432616281972"><ele>329.8333333333333</ele><time>2026-04-25T11:52:45.006Z</time></trkpt><trkpt lat="45.92046058332396" lon="12.12735038116852"><ele>334.0</ele><time>2026-04-25T11:52:50.006Z</time></trkpt><trkpt lat="45.920480435814326" lon="12.127251049219407"><ele>334.0</ele><time>2026-04-25T11:52:55.006Z</time></trkpt><trkpt lat="45.92051982383031" lon="12.127149580404135"><ele>334.0</ele><time>2026-04-25T11:53:00.006Z</time></trkpt><trkpt lat="45.92058759384886" lon="12.127150742052752"><ele>334.0</ele><time>2026-04-25T11:53:05.006Z</time></trkpt><trkpt lat="45.920620726028154" lon="12.12724272060474"><ele>334.0</ele><time>2026-04-25T11:53:10.007Z</time></trkpt><trkpt lat="45.9206529869151" lon="12.127337711967026"><ele>334.0</ele><time>2026-04-25T11:53:15.007Z</time></trkpt><trkpt lat="45.92072612776217" lon="12.127375918964248"><ele>334.0</ele><time>2026-04-25T11:53:20.006Z</time></trkpt><trkpt lat="45.92079110154948" lon="12.127339484418137"><ele>334.0</ele><time>2026-04-25T11:53:25.007Z</time></trkpt><trkpt lat="45.92079631941921" lon="12.12723424492981"><ele>334.0</ele><time>2026-04-25T11:53:30.007Z</time></trkpt><trkpt lat="45.92078074470824" lon="12.1271407029403"><ele>334.0</ele><time>2026-04-25T11:53:35.007Z</time></trkpt><trkpt lat="45.92080028728209" lon="12.1270387855051"><ele>334.0</ele><time>2026-04-25T11:53:39.007Z</time></trkpt><trkpt lat="45.92083434148413" lon="12.126946523837201"><ele>334.0</ele><time>2026-04-25T11:53:43.007Z</time></trkpt><trkpt lat="45.920839823794665" lon="12.126854326304157"><ele>334.0</ele><time>2026-04-25T11:53:47.007Z</time></trkpt><trkpt lat="45.920870621484724" lon="12.126758481248523"><ele>334.0</ele><time>2026-04-25T11:53:51.007Z</time></trkpt><trkpt lat="45.9208864785326" lon="12.12665841274352"><ele>334.0</ele><time>2026-04-25T11:53:55.007Z</time></trkpt><trkpt lat="45.920919419077784" lon="12.126572007633866"><ele>338.42857142857144</ele><time>2026-04-25T11:53:59.007Z</time></trkpt><trkpt lat="45.92095510838574" lon="12.126481802328426"><ele>342.8571428571429</ele><time>2026-04-25T11:54:03.007Z</time></trkpt><trkpt lat="45.92098738869102" lon="12.126398413207367"><ele>347.28571428571433</ele><time>2026-04-25T11:54:07.007Z</time></trkpt><trkpt lat="45.9210039122252" lon="12.126303020308246"><ele>351.7142857142857</ele><time>2026-04-25T11:54:11.007Z</time></trkpt><trkpt lat="45.92101095136809" lon="12.126205094118761"><ele>356.14285714285717</ele><time>2026-04-25T11:54:15.007Z</time></trkpt><trkpt lat="45.92102633893643" lon="12.126108845614201"><ele>360.5714285714286</ele><time>2026-04-25T11:54:19.007Z</time></trkpt><trkpt lat="45.92106015020294" lon="12.126022523034301"><ele>365.0</ele><time>2026-04-25T11:54:23.007Z</time></trkpt><trkpt lat="45.921080909017384" lon="12.125934727622003"><ele>365.00000000000006</ele><time>2026-04-25T11:54:27.007Z</time></trkpt><trkpt lat="45.921105116810104" lon="12.125847131129973"><ele>365.0</ele><time>2026-04-25T11:54:30.007Z</time></trkpt><trkpt lat="45.92113340209938" lon="12.125756457770043"><ele>365.0</ele><time>2026-04-25T11:54:34.007Z</time></trkpt><trkpt lat="45.921160355881106" lon="12.1256643628714"><ele>365.0</ele><time>2026-04-25T11:54:37.007Z</time></trkpt><trkpt lat="45.92118593387857" lon="12.125560452668108"><ele>365.0</ele><time>2026-04-25T11:54:40.007Z</time></trkpt><trkpt lat="45.92123282840548" lon="12.125470486337342"><ele>365.00000000000006</ele><time>2026-04-25T11:54:43.007Z</time></trkpt><trkpt lat="45.921288287826606" lon="12.125389011413946"><ele>365.0</ele><time>2026-04-25T11:54:46.007Z</time></trkpt><trkpt lat="45.921354393831635" lon="12.12534438109865"><ele>365.28571428571433</ele><time>2026-04-25T11:54:50.007Z</time></trkpt><trkpt lat="45.92142260464147" lon="12.12534566765079"><ele>365.57142857142856</ele><time>2026-04-25T11:54:53.007Z</time></trkpt><trkpt lat="45.92148439355031" lon="12.125363735383509"><ele>365.8571428571429</ele><time>2026-04-25T11:54:56.007Z</time></trkpt><trkpt lat="45.921552257018256" lon="12.125397644351928"><ele>366.14285714285717</ele><time>2026-04-25T11:54:59.007Z</time></trkpt><trkpt lat="45.921629245971246" lon="12.1254065589022"><ele>366.42857142857144</ele><time>2026-04-25T11:55:02.007Z</time></trkpt><trkpt lat="45.921674482014325" lon="12.12534022745222"><ele>366.7142857142857</ele><time>2026-04-25T11:55:06.007Z</time></trkpt><trkpt lat="45.92168734646739" lon="12.125228734606727"><ele>367.0</ele><time>2026-04-25T11:55:10.007Z</time></trkpt><trkpt lat="45.92175366500052" lon="12.125177475768687"><ele>367.0</ele><time>2026-04-25T11:55:13.007Z</time></trkpt><trkpt lat="45.92181753289628" lon="12.125101223198671"><ele>367.0</ele><time>2026-04-25T11:55:16.007Z</time></trkpt><trkpt lat="45.92189679074186" lon="12.125067410080105"><ele>367.0</ele><time>2026-04-25T11:55:18.007Z</time></trkpt><trkpt lat="45.921969282177145" lon="12.125024035394038"><ele>367.0</ele><time>2026-04-25T11:55:21.007Z</time></trkpt><trkpt lat="45.922032112497746" lon="12.124965713624"><ele>367.0</ele><time>2026-04-25T11:55:24.007Z</time></trkpt><trkpt lat="45.92205725874017" lon="12.124859841790013"><ele>367.0</ele><time>2026-04-25T11:55:27.007Z</time></trkpt><trkpt lat="45.92206422533259" lon="12.124762786481496"><ele>366.57142857142856</ele><time>2026-04-25T11:55:30.007Z</time></trkpt><trkpt lat="45.922063993677355" lon="12.12464911012047"><ele>366.14285714285717</ele><time>2026-04-25T11:55:33.007Z</time></trkpt><trkpt lat="45.922078162325946" lon="12.124542999645815"><ele>365.7142857142857</ele><time>2026-04-25T11:55:35.007Z</time></trkpt><trkpt lat="45.92208355314187" lon="12.124438995011051"><ele>365.2857142857143</ele><time>2026-04-25T11:55:37.007Z</time></trkpt><trkpt lat="45.92209305473542" lon="12.124336764270298"><ele>364.8571428571429</ele><time>2026-04-25T11:55:39.007Z</time></trkpt><trkpt lat="45.92211103565707" lon="12.124234614303631"><ele>364.42857142857144</ele><time>2026-04-25T11:55:42.007Z</time></trkpt><trkpt lat="45.92213149545873" lon="12.124147714633025"><ele>364.0</ele><time>2026-04-25T11:55:44.007Z</time></trkpt><trkpt lat="45.92215273731656" lon="12.124032084756848"><ele>365.16666666666663</ele><time>2026-04-25T11:55:47.007Z</time></trkpt><trkpt lat="45.922143787234965" lon="12.123920478844772"><ele>366.3333333333333</ele><time>2026-04-25T11:55:50.007Z</time></trkpt><trkpt lat="45.92212563613951" lon="12.123820332222834"><ele>367.5</ele><time>2026-04-25T11:55:53.007Z</time></trkpt><trkpt lat="45.92209280145224" lon="12.123717297220862"><ele>368.6666666666667</ele><time>2026-04-25T11:55:57.007Z</time></trkpt><trkpt lat="45.92207248686399" lon="12.12361661259199"><ele>369.83333333333337</ele><time>2026-04-25T11:56:00.007Z</time></trkpt><trkpt lat="45.922049563998144" lon="12.123492668161393"><ele>371.0</ele><time>2026-04-25T11:56:03.007Z</time></trkpt><trkpt lat="45.92200585468025" lon="12.123403840757906"><ele>371.0</ele><time>2026-04-25T11:56:06.007Z</time></trkpt><trkpt lat="45.92195712105015" lon="12.123293128101505"><ele>371.0</ele><time>2026-04-25T11:56:08.007Z</time></trkpt><trkpt lat="45.92190976325717" lon="12.123172111664628"><ele>371.0</ele><time>2026-04-25T11:56:10.007Z</time></trkpt><trkpt lat="45.92188027016846" lon="12.123063476512176"><ele>371.0</ele><time>2026-04-25T11:56:12.007Z</time></trkpt><trkpt lat="45.92184277373391" lon="12.122946986503926"><ele>371.0</ele><time>2026-04-25T11:56:14.007Z</time></trkpt><trkpt lat="45.92180951545071" lon="12.122858277079482"><ele>371.0</ele><time>2026-04-25T11:56:15.007Z</time></trkpt><trkpt lat="45.921748803476184" lon="12.122787249183629"><ele>371.0</ele><time>2026-04-25T11:56:17.007Z</time></trkpt><trkpt lat="45.921678272728364" lon="12.122718429867366"><ele>371.0</ele><time>2026-04-25T11:56:20.007Z</time></trkpt><trkpt lat="45.921646292826196" lon="12.122603814820737"><ele>371.0</ele><time>2026-04-25T11:56:22.007Z</time></trkpt><trkpt lat="45.921597156151826" lon="12.122522062596916"><ele>371.0</ele><time>2026-04-25T11:56:24.007Z</time></trkpt><trkpt lat="45.92153989776217" lon="12.12248297135746"><ele>371.0</ele><time>2026-04-25T11:56:26.007Z</time></trkpt><trkpt lat="45.92148096469359" lon="12.122395785575323"><ele>371.0</ele><time>2026-04-25T11:56:29.007Z</time></trkpt><trkpt lat="45.92143419632494" lon="12.122325059536623"><ele>374.14285714285717</ele><time>2026-04-25T11:56:31.007Z</time></trkpt><trkpt lat="45.92138475164712" lon="12.122265181132551"><ele>377.2857142857143</ele><time>2026-04-25T11:56:33.007Z</time></trkpt><trkpt lat="45.92133193520308" lon="12.122154899200428"><ele>380.42857142857144</ele><time>2026-04-25T11:56:36.007Z</time></trkpt><trkpt lat="45.92129965034908" lon="12.12207082475963"><ele>383.57142857142856</ele><time>2026-04-25T11:56:38.007Z</time></trkpt><trkpt lat="45.92125938665391" lon="12.121998070387177"><ele>386.7142857142857</ele><time>2026-04-25T11:56:40.007Z</time></trkpt><trkpt lat="45.92122349493609" lon="12.121910837954275"><ele>389.8571428571429</ele><time>2026-04-25T11:56:43.007Z</time></trkpt><trkpt lat="45.92117926543225" lon="12.121821807068553"><ele>393.0</ele><time>2026-04-25T11:56:46.007Z</time></trkpt><trkpt lat="45.92113815930496" lon="12.121737459946447"><ele>393.0</ele><time>2026-04-25T11:56:49.007Z</time></trkpt><trkpt lat="45.9210728141978" lon="12.121657993916836"><ele>393.0</ele><time>2026-04-25T11:56:52.007Z</time></trkpt><trkpt lat="45.92102471888935" lon="12.121549456084782"><ele>393.0</ele><time>2026-04-25T11:56:56.007Z</time></trkpt><trkpt lat="45.92098872275871" lon="12.121432547181278"><ele>393.0</ele><time>2026-04-25T11:56:59.007Z</time></trkpt><trkpt lat="45.92097237770939" lon="12.121332353701398"><ele>393.0</ele><time>2026-04-25T11:57:01.007Z</time></trkpt><trkpt lat="45.92096851863101" lon="12.121184718131747"><ele>393.0</ele><time>2026-04-25T11:57:03.007Z</time></trkpt><trkpt lat="45.920955464768646" lon="12.12102430699975"><ele>393.5</ele><time>2026-04-25T11:57:05.007Z</time></trkpt><trkpt lat="45.920952720502974" lon="12.12086235304284"><ele>394.0</ele><time>2026-04-25T11:57:07.007Z</time></trkpt><trkpt lat="45.920967856043" lon="12.120700916888223"><ele>394.5</ele><time>2026-04-25T11:57:09.007Z</time></trkpt><trkpt lat="45.92097970406566" lon="12.120609563609078"><ele>395.0</ele><time>2026-04-25T11:57:10.007Z</time></trkpt><trkpt lat="45.92100164654063" lon="12.120522774092127"><ele>395.5</ele><time>2026-04-25T11:57:11.007Z</time></trkpt><trkpt lat="45.92102828784822" lon="12.120416112596669"><ele>396.0</ele><time>2026-04-25T11:57:12.007Z</time></trkpt><trkpt lat="45.921053102474545" lon="12.120321024613261"><ele>396.0</ele><time>2026-04-25T11:57:13.007Z</time></trkpt><trkpt lat="45.92106766475934" lon="12.120215169805672"><ele>396.0</ele><time>2026-04-25T11:57:14.007Z</time></trkpt><trkpt lat="45.92107907975752" lon="12.120120863017187"><ele>396.0</ele><time>2026-04-25T11:57:15.007Z</time></trkpt><trkpt lat="45.92110632176678" lon="12.119955861348469"><ele>396.0</ele><time>2026-04-25T11:57:17.007Z</time></trkpt><trkpt lat="45.92115170092728" lon="12.119799069750178"><ele>396.0</ele><time>2026-04-25T11:57:19.007Z</time></trkpt><trkpt lat="45.92120288248621" lon="12.119660871768014"><ele>392.6</ele><time>2026-04-25T11:57:21.008Z</time></trkpt><trkpt lat="45.92124868489956" lon="12.119519258904623"><ele>389.20000000000005</ele><time>2026-04-25T11:57:23.008Z</time></trkpt><trkpt lat="45.92124279570566" lon="12.119412958646276"><ele>385.79999999999995</ele><time>2026-04-25T11:57:24.008Z</time></trkpt><trkpt lat="45.921220043717184" lon="12.119232603133582"><ele>382.4</ele><time>2026-04-25T11:57:26.007Z</time></trkpt><trkpt lat="45.92118358475054" lon="12.119099124771907"><ele>379.0</ele><time>2026-04-25T11:57:28.007Z</time></trkpt><trkpt lat="45.92113533564606" lon="12.118966259185054"><ele>375.6</ele><time>2026-04-25T11:57:30.008Z</time></trkpt><trkpt lat="45.92114141403553" lon="12.118836910588085"><ele>372.2</ele><time>2026-04-25T11:57:32.007Z</time></trkpt><trkpt lat="45.92116513983169" lon="12.11869309675376"><ele>368.8</ele><time>2026-04-25T11:57:34.008Z</time></trkpt><trkpt lat="45.9211688588491" lon="12.118538729837807"><ele>365.40000000000003</ele><time>2026-04-25T11:57:36.008Z</time></trkpt><trkpt lat="45.921200458508125" lon="12.118383511627542"><ele>362.0</ele><time>2026-04-25T11:57:38.008Z</time></trkpt><trkpt lat="45.92122005134512" lon="12.118279956000373"><ele>360.83333333333337</ele><time>2026-04-25T11:57:39.008Z</time></trkpt><trkpt lat="45.921226978619245" lon="12.1181869335532"><ele>359.6666666666667</ele><time>2026-04-25T11:57:40.008Z</time></trkpt><trkpt lat="45.92122941752789" lon="12.118094008564142"><ele>358.5</ele><time>2026-04-25T11:57:41.008Z</time></trkpt><trkpt lat="45.921220145461376" lon="12.117985386465005"><ele>357.3333333333333</ele><time>2026-04-25T11:57:42.008Z</time></trkpt><trkpt lat="45.9212121389519" lon="12.11782853416742"><ele>356.16666666666663</ele><time>2026-04-25T11:57:44.008Z</time></trkpt><trkpt lat="45.92121492955125" lon="12.117650860056697"><ele>355.0</ele><time>2026-04-25T11:57:46.008Z</time></trkpt><trkpt lat="45.921209628567524" lon="12.117525752663292"><ele>355.0</ele><time>2026-04-25T11:57:48.008Z</time></trkpt><trkpt lat="45.92117694697093" lon="12.117404613563151"><ele>355.0</ele><time>2026-04-25T11:57:51.008Z</time></trkpt><trkpt lat="45.921167019550744" lon="12.117313052625867"><ele>355.0</ele><time>2026-04-25T11:57:53.008Z</time></trkpt><trkpt lat="45.921122948129856" lon="12.117205735204841"><ele>355.0</ele><time>2026-04-25T11:57:56.008Z</time></trkpt><trkpt lat="45.92108974269507" lon="12.117119017907141"><ele>355.0</ele><time>2026-04-25T11:57:58.008Z</time></trkpt><trkpt lat="45.92101576915416" lon="12.117061029982494"><ele>355.0</ele><time>2026-04-25T11:58:01.008Z</time></trkpt><trkpt lat="45.92093433557857" lon="12.117126507328312"><ele>358.0</ele><time>2026-04-25T11:58:05.008Z</time></trkpt><trkpt lat="45.92083387871299" lon="12.117125512070494"><ele>361.0</ele><time>2026-04-25T11:58:09.008Z</time></trkpt><trkpt lat="45.920768840523046" lon="12.117080150001254"><ele>364.0</ele><time>2026-04-25T11:58:11.008Z</time></trkpt><trkpt lat="45.920673467237755" lon="12.117046095745728"><ele>367.0</ele><time>2026-04-25T11:58:13.008Z</time></trkpt><trkpt lat="45.92059302256515" lon="12.116996707798803"><ele>370.0</ele><time>2026-04-25T11:58:15.008Z</time></trkpt><trkpt lat="45.92052900641958" lon="12.11698135459082"><ele>373.0</ele><time>2026-04-25T11:58:17.008Z</time></trkpt><trkpt lat="45.920436869426716" lon="12.116953581223218"><ele>373.0</ele><time>2026-04-25T11:58:19.008Z</time></trkpt><trkpt lat="45.920340092431346" lon="12.116932074926197"><ele>373.0</ele><time>2026-04-25T11:58:21.008Z</time></trkpt><trkpt lat="45.9202506746128" lon="12.116897070838613"><ele>373.0</ele><time>2026-04-25T11:58:23.008Z</time></trkpt><trkpt lat="45.920166457025545" lon="12.116845518415422"><ele>373.0</ele><time>2026-04-25T11:58:25.008Z</time></trkpt><trkpt lat="45.92006580565049" lon="12.116788394049276"><ele>373.0</ele><time>2026-04-25T11:58:28.008Z</time></trkpt><trkpt lat="45.91999534995583" lon="12.116706167519153"><ele>371.2</ele><time>2026-04-25T11:58:30.008Z</time></trkpt><trkpt lat="45.91992993524463" lon="12.116617423288963"><ele>369.4</ele><time>2026-04-25T11:58:32.008Z</time></trkpt><trkpt lat="45.91985611771141" lon="12.116510598803364"><ele>367.59999999999997</ele><time>2026-04-25T11:58:34.008Z</time></trkpt><trkpt lat="45.919751125090684" lon="12.116460969986337"><ele>365.79999999999995</ele><time>2026-04-25T11:58:36.008Z</time></trkpt><trkpt lat="45.91964968222775" lon="12.11638662270438"><ele>364.0</ele><time>2026-04-25T11:58:38.008Z</time></trkpt><trkpt lat="45.91958063830278" lon="12.11622423700095"><ele>364.66666666666663</ele><time>2026-04-25T11:58:40.008Z</time></trkpt><trkpt lat="45.919497465148446" lon="12.116117302692333"><ele>365.3333333333333</ele><time>2026-04-25T11:58:42.008Z</time></trkpt><trkpt lat="45.91942802905722" lon="12.116115003467094"><ele>366.0</ele><time>2026-04-25T11:58:44.008Z</time></trkpt><trkpt lat="45.91937558941751" lon="12.11603184423495"><ele>366.6666666666667</ele><time>2026-04-25T11:58:47.008Z</time></trkpt><trkpt lat="45.919315417227544" lon="12.115965894987374"><ele>367.33333333333337</ele><time>2026-04-25T11:58:50.008Z</time></trkpt><trkpt lat="45.919255878373775" lon="12.115917423560996"><ele>368.0</ele><time>2026-04-25T11:58:53.008Z</time></trkpt><trkpt lat="45.91918931195336" lon="12.115842334881936"><ele>368.0</ele><time>2026-04-25T11:58:57.008Z</time></trkpt><trkpt lat="45.91913182600726" lon="12.11574017416126"><ele>368.0</ele><time>2026-04-25T11:59:00.008Z</time></trkpt><trkpt lat="45.91908030006546" lon="12.115648060402462"><ele>368.0</ele><time>2026-04-25T11:59:03.008Z</time></trkpt><trkpt lat="45.9190514520911" lon="12.115564216673132"><ele>368.0</ele><time>2026-04-25T11:59:05.008Z</time></trkpt><trkpt lat="45.91901235917562" lon="12.115447450941337"><ele>368.0</ele><time>2026-04-25T11:59:08.008Z</time></trkpt><trkpt lat="45.91896548497066" lon="12.11534425029474"><ele>368.0</ele><time>2026-04-25T11:59:11.008Z</time></trkpt><trkpt lat="45.91892666034232" lon="12.1152340880873"><ele>371.5714285714286</ele><time>2026-04-25T11:59:14.008Z</time></trkpt><trkpt lat="45.91888898772174" lon="12.115150721086861"><ele>375.1428571428571</ele><time>2026-04-25T11:59:16.008Z</time></trkpt><trkpt lat="45.91885789961762" lon="12.115051681170927"><ele>378.7142857142857</ele><time>2026-04-25T11:59:18.008Z</time></trkpt><trkpt lat="45.918821472219584" lon="12.114974768714347"><ele>382.28571428571433</ele><time>2026-04-25T11:59:21.008Z</time></trkpt><trkpt lat="45.91876305988444" lon="12.114913296918166"><ele>385.8571428571429</ele><time>2026-04-25T11:59:25.008Z</time></trkpt><trkpt lat="45.918688748918996" lon="12.114876718104929"><ele>389.42857142857144</ele><time>2026-04-25T11:59:29.008Z</time></trkpt><trkpt lat="45.91863066606132" lon="12.11483140718278"><ele>393.0</ele><time>2026-04-25T11:59:33.008Z</time></trkpt><trkpt lat="45.918571029150144" lon="12.11478338799513"><ele>395.1666666666667</ele><time>2026-04-25T11:59:36.008Z</time></trkpt><trkpt lat="45.9185178549031" lon="12.114708397676797"><ele>397.33333333333337</ele><time>2026-04-25T11:59:40.008Z</time></trkpt><trkpt lat="45.9184636671896" lon="12.114641281071114"><ele>399.5</ele><time>2026-04-25T11:59:43.008Z</time></trkpt><trkpt lat="45.91840265701556" lon="12.114544533251765"><ele>401.6666666666667</ele><time>2026-04-25T11:59:46.008Z</time></trkpt><trkpt lat="45.91833005036874" lon="12.114546716522284"><ele>403.83333333333337</ele><time>2026-04-25T11:59:49.008Z</time></trkpt><trkpt lat="45.91830674757457" lon="12.114645198587016"><ele>406.0</ele><time>2026-04-25T11:59:52.008Z</time></trkpt><trkpt lat="45.91824959567543" lon="12.1147343972525"><ele>399.20000000000005</ele><time>2026-04-25T11:59:56.008Z</time></trkpt><trkpt lat="45.918172053528764" lon="12.114779791450704"><ele>392.40000000000003</ele><time>2026-04-25T11:59:59.008Z</time></trkpt><trkpt lat="45.91808949728856" lon="12.114810593478744"><ele>385.6</ele><time>2026-04-25T12:00:01.008Z</time></trkpt><trkpt lat="45.91803489088599" lon="12.114929277351443"><ele>378.8</ele><time>2026-04-25T12:00:03.008Z</time></trkpt><trkpt lat="45.917956447402" lon="12.115002556559865"><ele>372.0</ele><time>2026-04-25T12:00:05.008Z</time></trkpt><trkpt lat="45.91785055357435" lon="12.115062513065295"><ele>370.6666666666667</ele><time>2026-04-25T12:00:07.008Z</time></trkpt><trkpt lat="45.91778655210082" lon="12.115085842409005"><ele>369.3333333333333</ele><time>2026-04-25T12:00:08.008Z</time></trkpt><trkpt lat="45.91772247339138" lon="12.115154444183391"><ele>368.0</ele><time>2026-04-25T12:00:10.008Z</time></trkpt><trkpt lat="45.91771032356354" lon="12.115272489535295"><ele>366.66666666666663</ele><time>2026-04-25T12:00:12.008Z</time></trkpt><trkpt lat="45.91772730544112" lon="12.11538793272637"><ele>365.3333333333333</ele><time>2026-04-25T12:00:14.008Z</time></trkpt><trkpt lat="45.91768143923785" lon="12.115512030417493"><ele>364.0</ele><time>2026-04-25T12:00:16.008Z</time></trkpt><trkpt lat="45.91758901512907" lon="12.115601250990363"><ele>363.0</ele><time>2026-04-25T12:00:18.008Z</time></trkpt><trkpt lat="45.91750472081226" lon="12.115660312917981"><ele>362.0</ele><time>2026-04-25T12:00:20.008Z</time></trkpt><trkpt lat="45.91739661061261" lon="12.115694770759344"><ele>361.0</ele><time>2026-04-25T12:00:22.008Z</time></trkpt><trkpt lat="45.91732769936976" lon="12.11568693913425"><ele>360.0</ele><time>2026-04-25T12:00:23.008Z</time></trkpt><trkpt lat="45.91725986710908" lon="12.115675578481119"><ele>359.0</ele><time>2026-04-25T12:00:24.008Z</time></trkpt><trkpt lat="45.917151809292655" lon="12.115627768648164"><ele>359.0</ele><time>2026-04-25T12:00:26.008Z</time></trkpt><trkpt lat="45.917071844173776" lon="12.115533417101604"><ele>359.0</ele><time>2026-04-25T12:00:28.008Z</time></trkpt><trkpt lat="45.91703080195945" lon="12.115464569343136"><ele>359.0</ele><time>2026-04-25T12:00:29.008Z</time></trkpt><trkpt lat="45.916986497633324" lon="12.115373503796778"><ele>359.0</ele><time>2026-04-25T12:00:30.008Z</time></trkpt><trkpt lat="45.91695291422469" lon="12.11528393617424"><ele>359.0</ele><time>2026-04-25T12:00:31.008Z</time></trkpt><trkpt lat="45.916929412373186" lon="12.115180211188646"><ele>359.0</ele><time>2026-04-25T12:00:32.008Z</time></trkpt><trkpt lat="45.91691648088804" lon="12.115068588427203"><ele>359.0</ele><time>2026-04-25T12:00:33.008Z</time></trkpt><trkpt lat="45.91690734265466" lon="12.114961952349605"><ele>359.0</ele><time>2026-04-25T12:00:34.008Z</time></trkpt><trkpt lat="45.916903188019596" lon="12.114866437585798"><ele>359.0</ele><time>2026-04-25T12:00:35.008Z</time></trkpt><trkpt lat="45.91691670008819" lon="12.114755478733821"><ele>359.0</ele><time>2026-04-25T12:00:37.008Z</time></trkpt><trkpt lat="45.91687987077901" lon="12.114839827332121"><ele>359.0</ele><time>2026-04-25T12:00:44.008Z</time></trkpt><trkpt lat="45.91686240689701" lon="12.114982524388324"><ele>359.0</ele><time>2026-04-25T12:00:46.008Z</time></trkpt><trkpt lat="45.916832400430586" lon="12.11512721922651"><ele>359.0</ele><time>2026-04-25T12:00:48.008Z</time></trkpt><trkpt lat="45.91681090981349" lon="12.115297505115375"><ele>359.0</ele><time>2026-04-25T12:00:50.008Z</time></trkpt><trkpt lat="45.91680729269285" lon="12.115391960989525"><ele>359.0</ele><time>2026-04-25T12:00:51.008Z</time></trkpt><trkpt lat="45.91682179318861" lon="12.11556494369944"><ele>359.0</ele><time>2026-04-25T12:00:53.008Z</time></trkpt><trkpt lat="45.916814607871395" lon="12.115707633870931"><ele>359.0</ele><time>2026-04-25T12:00:55.008Z</time></trkpt><trkpt lat="45.91679087730032" lon="12.11587031952225"><ele>355.83333333333337</ele><time>2026-04-25T12:00:57.008Z</time></trkpt><trkpt lat="45.916788566747485" lon="12.116016753571941"><ele>352.6666666666667</ele><time>2026-04-25T12:00:59.008Z</time></trkpt><trkpt lat="45.91681374481033" lon="12.116135648263706"><ele>349.5</ele><time>2026-04-25T12:01:02.008Z</time></trkpt><trkpt lat="45.91675698909344" lon="12.116181515762468"><ele>346.3333333333333</ele><time>2026-04-25T12:01:06.008Z</time></trkpt><trkpt lat="45.91669149161224" lon="12.116124563796149"><ele>343.16666666666663</ele><time>2026-04-25T12:01:08.008Z</time></trkpt><trkpt lat="45.91660721017975" lon="12.116162297472721"><ele>340.0</ele><time>2026-04-25T12:01:10.008Z</time></trkpt><trkpt lat="45.91652470131053" lon="12.116274478820083"><ele>335.5</ele><time>2026-04-25T12:01:12.008Z</time></trkpt><trkpt lat="45.91645815337919" lon="12.11637188740672"><ele>331.0</ele><time>2026-04-25T12:01:14.008Z</time></trkpt><trkpt lat="45.91638423646384" lon="12.11638270638203"><ele>326.5</ele><time>2026-04-25T12:01:16.008Z</time></trkpt><trkpt lat="45.91630466545614" lon="12.116336538868847"><ele>322.0</ele><time>2026-04-25T12:01:17.008Z</time></trkpt><trkpt lat="45.91623918307181" lon="12.116301111497828"><ele>317.5</ele><time>2026-04-25T12:01:18.008Z</time></trkpt><trkpt lat="45.916178086669504" lon="12.116264781920686"><ele>313.0</ele><time>2026-04-25T12:01:19.008Z</time></trkpt><trkpt lat="45.91606194229033" lon="12.116268040373699"><ele>313.0</ele><time>2026-04-25T12:01:21.008Z</time></trkpt><trkpt lat="45.91591648148869" lon="12.116286049861202"><ele>313.0</ele><time>2026-04-25T12:01:23.008Z</time></trkpt><trkpt lat="45.91581535898856" lon="12.116306137813396"><ele>313.0</ele><time>2026-04-25T12:01:24.008Z</time></trkpt><trkpt lat="45.915725789798216" lon="12.116327428851568"><ele>313.0</ele><time>2026-04-25T12:01:25.008Z</time></trkpt><trkpt lat="45.915661543140985" lon="12.116373859326675"><ele>313.0</ele><time>2026-04-25T12:01:26.008Z</time></trkpt><trkpt lat="45.91560313665989" lon="12.116440832927871"><ele>305.6</ele><time>2026-04-25T12:01:27.008Z</time></trkpt><trkpt lat="45.91554314472221" lon="12.116524753009825"><ele>298.20000000000005</ele><time>2026-04-25T12:01:28.008Z</time></trkpt><trkpt lat="45.91547488645502" lon="12.116610190368986"><ele>290.8</ele><time>2026-04-25T12:01:29.008Z</time></trkpt><trkpt lat="45.91542015710175" lon="12.116675092365439"><ele>283.40000000000003</ele><time>2026-04-25T12:01:30.008Z</time></trkpt><trkpt lat="45.91534384911342" lon="12.11678790430327"><ele>276.0</ele><time>2026-04-25T12:01:32.009Z</time></trkpt><trkpt lat="45.91525025987861" lon="12.1168886916154"><ele>275.6</ele><time>2026-04-25T12:01:34.009Z</time></trkpt><trkpt lat="45.91516650453534" lon="12.116931162611774"><ele>275.20000000000005</ele><time>2026-04-25T12:01:35.008Z</time></trkpt><trkpt lat="45.91507561015161" lon="12.116984659125219"><ele>274.79999999999995</ele><time>2026-04-25T12:01:36.008Z</time></trkpt><trkpt lat="45.91498192058487" lon="12.117033341782976"><ele>274.4</ele><time>2026-04-25T12:01:37.008Z</time></trkpt><trkpt lat="45.91488366583822" lon="12.117106871932378"><ele>274.0</ele><time>2026-04-25T12:01:38.009Z</time></trkpt><trkpt lat="45.91480668690557" lon="12.117171234358942"><ele>272.8</ele><time>2026-04-25T12:01:39.009Z</time></trkpt><trkpt lat="45.914750164006456" lon="12.11721740022027"><ele>271.59999999999997</ele><time>2026-04-25T12:01:40.009Z</time></trkpt><trkpt lat="45.91466998258123" lon="12.117314252306459"><ele>270.4</ele><time>2026-04-25T12:01:42.009Z</time></trkpt><trkpt lat="45.91464465948533" lon="12.117440509407194"><ele>269.2</ele><time>2026-04-25T12:01:44.009Z</time></trkpt><trkpt lat="45.91469388360307" lon="12.117563345005863"><ele>268.0</ele><time>2026-04-25T12:01:46.008Z</time></trkpt><trkpt lat="45.91477811785255" lon="12.117647620282678"><ele>266.66666666666663</ele><time>2026-04-25T12:01:48.008Z</time></trkpt><trkpt lat="45.91483325647723" lon="12.11775097618073"><ele>265.3333333333333</ele><time>2026-04-25T12:01:50.008Z</time></trkpt><trkpt lat="45.91487300337862" lon="12.117847231545472"><ele>264.0</ele><time>2026-04-25T12:01:52.008Z</time></trkpt><trkpt lat="45.91488940558856" lon="12.117967979695345"><ele>262.6666666666667</ele><time>2026-04-25T12:01:54.008Z</time></trkpt><trkpt lat="45.914864690585276" lon="12.118062437217347"><ele>261.33333333333337</ele><time>2026-04-25T12:01:55.008Z</time></trkpt><trkpt lat="45.914828182212275" lon="12.118206856356581"><ele>260.0</ele><time>2026-04-25T12:01:57.008Z</time></trkpt><trkpt lat="45.914744136881474" lon="12.118326606710756"><ele>258.28571428571433</ele><time>2026-04-25T12:01:59.008Z</time></trkpt><trkpt lat="45.91466275746264" lon="12.118382955058674"><ele>256.57142857142856</ele><time>2026-04-25T12:02:00.008Z</time></trkpt><trkpt lat="45.91459380518042" lon="12.11842368570924"><ele>254.8571428571429</ele><time>2026-04-25T12:02:01.008Z</time></trkpt><trkpt lat="45.914533101905846" lon="12.118452291516467"><ele>253.14285714285717</ele><time>2026-04-25T12:02:02.008Z</time></trkpt><trkpt lat="45.91446830278458" lon="12.118469457984002"><ele>251.42857142857144</ele><time>2026-04-25T12:02:03.008Z</time></trkpt><trkpt lat="45.91439902860384" lon="12.118453723666756"><ele>249.71428571428572</ele><time>2026-04-25T12:02:04.008Z</time></trkpt><trkpt lat="45.91432236546039" lon="12.118436776053768"><ele>248.0</ele><time>2026-04-25T12:02:05.008Z</time></trkpt><trkpt lat="45.914246732903614" lon="12.118414840634768"><ele>249.60000000000002</ele><time>2026-04-25T12:02:06.008Z</time></trkpt><trkpt lat="45.9141710618158" lon="12.118400828038467"><ele>251.20000000000002</ele><time>2026-04-25T12:02:07.008Z</time></trkpt><trkpt lat="45.91408514893918" lon="12.118391160525594"><ele>252.8</ele><time>2026-04-25T12:02:09.008Z</time></trkpt><trkpt lat="45.91396515588237" lon="12.118376972664825"><ele>254.4</ele><time>2026-04-25T12:02:12.008Z</time></trkpt><trkpt lat="45.91385981724052" lon="12.118386313699249"><ele>256.0</ele><time>2026-04-25T12:02:14.008Z</time></trkpt><trkpt lat="45.91374206319675" lon="12.11844598866923"><ele>256.0</ele><time>2026-04-25T12:02:16.008Z</time></trkpt><trkpt lat="45.91362960308452" lon="12.11849146780024"><ele>256.0</ele><time>2026-04-25T12:02:18.008Z</time></trkpt><trkpt lat="45.91350557974376" lon="12.118464565418781"><ele>256.0</ele><time>2026-04-25T12:02:20.008Z</time></trkpt><trkpt lat="45.91339928991816" lon="12.118417282795418"><ele>256.0</ele><time>2026-04-25T12:02:22.008Z</time></trkpt><trkpt lat="45.91331255730595" lon="12.118426566348695"><ele>256.0</ele><time>2026-04-25T12:02:24.008Z</time></trkpt><trkpt lat="45.91323249580048" lon="12.118470621868664"><ele>255.99999999999997</ele><time>2026-04-25T12:02:26.008Z</time></trkpt><trkpt lat="45.91321134578577" lon="12.11856744179104"><ele>256.0</ele><time>2026-04-25T12:02:29.008Z</time></trkpt><trkpt lat="45.91332442947493" lon="12.118615299946915"><ele>256.0</ele><time>2026-04-25T12:02:31.008Z</time></trkpt><trkpt lat="45.91341203104269" lon="12.11863190949153"><ele>256.0</ele><time>2026-04-25T12:02:32.008Z</time></trkpt><trkpt lat="45.913480654095444" lon="12.11864864160063"><ele>255.99999999999997</ele><time>2026-04-25T12:02:33.008Z</time></trkpt><trkpt lat="45.91355660190484" lon="12.118665368930724"><ele>256.0</ele><time>2026-04-25T12:02:35.008Z</time></trkpt><trkpt lat="45.91353005383924" lon="12.118758560459254"><ele>256.0</ele><time>2026-04-25T12:02:39.008Z</time></trkpt><trkpt lat="45.913415016365875" lon="12.11878330859232"><ele>256.0</ele><time>2026-04-25T12:02:41.008Z</time></trkpt><trkpt lat="45.91332233551223" lon="12.118789181972991"><ele>256.0</ele><time>2026-04-25T12:02:43.008Z</time></trkpt><trkpt lat="45.913225653583545" lon="12.118805663212793"><ele>256.0</ele><time>2026-04-25T12:02:45.008Z</time></trkpt><trkpt lat="45.91311773437344" lon="12.118790026674413"><ele>256.0</ele><time>2026-04-25T12:02:47.008Z</time></trkpt><trkpt lat="45.91305198407994" lon="12.11879173937991"><ele>252.8</ele><time>2026-04-25T12:02:48.008Z</time></trkpt><trkpt lat="45.912951315477706" lon="12.118790928243731"><ele>249.60000000000002</ele><time>2026-04-25T12:02:50.008Z</time></trkpt><trkpt lat="45.912853268483154" lon="12.118710246210247"><ele>246.4</ele><time>2026-04-25T12:02:52.008Z</time></trkpt><trkpt lat="45.91278673853236" lon="12.118676465370037"><ele>243.2</ele><time>2026-04-25T12:02:53.008Z</time></trkpt><trkpt lat="45.9126950586747" lon="12.118627921404725"><ele>240.0</ele><time>2026-04-25T12:02:55.008Z</time></trkpt><trkpt lat="45.912627313592424" lon="12.118611671996012"><ele>235.6</ele><time>2026-04-25T12:02:58.008Z</time></trkpt><trkpt lat="45.91255296980618" lon="12.118640032178586"><ele>231.2</ele><time>2026-04-25T12:03:05.008Z</time></trkpt><trkpt lat="45.91245495222069" lon="12.118677186503398"><ele>226.8</ele><time>2026-04-25T12:03:07.008Z</time></trkpt><trkpt lat="45.91233937328548" lon="12.118652978817291"><ele>222.4</ele><time>2026-04-25T12:03:09.008Z</time></trkpt><trkpt lat="45.91223748820003" lon="12.118642236676784"><ele>218.0</ele><time>2026-04-25T12:03:11.008Z</time></trkpt><trkpt lat="45.912139561825924" lon="12.118665002689989"><ele>218.00000000000003</ele><time>2026-04-25T12:03:13.008Z</time></trkpt><trkpt lat="45.91205089570085" lon="12.118669380758492"><ele>218.0</ele><time>2026-04-25T12:03:15.008Z</time></trkpt><trkpt lat="45.911948611856346" lon="12.118701526794228"><ele>218.0</ele><time>2026-04-25T12:03:17.008Z</time></trkpt><trkpt lat="45.91188223252319" lon="12.118719748009662"><ele>218.0</ele><time>2026-04-25T12:03:18.008Z</time></trkpt><trkpt lat="45.91180255354232" lon="12.118734754098126"><ele>218.00000000000003</ele><time>2026-04-25T12:03:19.008Z</time></trkpt><trkpt lat="45.9117198317897" lon="12.118750067984083"><ele>218.0</ele><time>2026-04-25T12:03:20.008Z</time></trkpt><trkpt lat="45.91164980781176" lon="12.118775177826606"><ele>212.0</ele><time>2026-04-25T12:03:21.008Z</time></trkpt><trkpt lat="45.91159026327999" lon="12.118811139448338"><ele>206.0</ele><time>2026-04-25T12:03:22.008Z</time></trkpt><trkpt lat="45.91150260409546" lon="12.11887296680088"><ele>200.0</ele><time>2026-04-25T12:03:24.008Z</time></trkpt><trkpt lat="45.911407564363245" lon="12.118936690323148"><ele>194.0</ele><time>2026-04-25T12:03:26.008Z</time></trkpt><trkpt lat="45.91129397527604" lon="12.11898909988381"><ele>188.0</ele><time>2026-04-25T12:03:28.008Z</time></trkpt><trkpt lat="45.911182517562295" lon="12.119065007367126"><ele>188.4</ele><time>2026-04-25T12:03:30.008Z</time></trkpt><trkpt lat="45.911082365261535" lon="12.119160370430173"><ele>188.8</ele><time>2026-04-25T12:03:32.008Z</time></trkpt><trkpt lat="45.91102839122308" lon="12.119209910544487"><ele>189.2</ele><time>2026-04-25T12:03:33.008Z</time></trkpt><trkpt lat="45.91095299300266" lon="12.11932246793808"><ele>189.6</ele><time>2026-04-25T12:03:35.008Z</time></trkpt><trkpt lat="45.910878541728245" lon="12.119417376290569"><ele>190.0</ele><time>2026-04-25T12:03:37.008Z</time></trkpt><trkpt lat="45.9108240231504" lon="12.119473855284067"><ele>189.75</ele><time>2026-04-25T12:03:38.009Z</time></trkpt><trkpt lat="45.91073336345418" lon="12.119599253427534"><ele>189.5</ele><time>2026-04-25T12:03:40.009Z</time></trkpt><trkpt lat="45.91064366056497" lon="12.119703579570423"><ele>189.25</ele><time>2026-04-25T12:03:42.009Z</time></trkpt><trkpt lat="45.910546625192524" lon="12.11980778192461"><ele>189.0</ele><time>2026-04-25T12:03:44.01Z</time></trkpt><trkpt lat="45.910449669418355" lon="12.119909810696223"><ele>189.0</ele><time>2026-04-25T12:03:46.009Z</time></trkpt><trkpt lat="45.91034215611338" lon="12.12002857172495"><ele>189.0</ele><time>2026-04-25T12:03:48.009Z</time></trkpt><trkpt lat="45.91028473022578" lon="12.120091793889856"><ele>189.0</ele><time>2026-04-25T12:03:49.009Z</time></trkpt><trkpt lat="45.91022274796543" lon="12.12015765557174"><ele>189.0</ele><time>2026-04-25T12:03:50.01Z</time></trkpt><trkpt lat="45.910163334759645" lon="12.120220753399225"><ele>189.0</ele><time>2026-04-25T12:03:51.009Z</time></trkpt><trkpt lat="45.91010480322687" lon="12.12028812872139"><ele>189.0</ele><time>2026-04-25T12:03:52.009Z</time></trkpt><trkpt lat="45.91004931394342" lon="12.120339176678952"><ele>188.33333333333334</ele><time>2026-04-25T12:03:53.009Z</time></trkpt><trkpt lat="45.90999243579695" lon="12.120383577501821"><ele>187.66666666666666</ele><time>2026-04-25T12:03:54.009Z</time></trkpt><trkpt lat="45.90989042699892" lon="12.12042761622965"><ele>187.0</ele><time>2026-04-25T12:03:56.009Z</time></trkpt><trkpt lat="45.90982573669168" lon="12.120467108959986"><ele>186.33333333333331</ele><time>2026-04-25T12:03:57.009Z</time></trkpt><trkpt lat="45.90971598870862" lon="12.120496042851965"><ele>185.66666666666666</ele><time>2026-04-25T12:03:59.009Z</time></trkpt><trkpt lat="45.90962854850297" lon="12.120534595214522"><ele>185.0</ele><time>2026-04-25T12:04:01.009Z</time></trkpt><trkpt lat="45.909590101009" lon="12.12067573674314"><ele>185.5</ele><time>2026-04-25T12:04:03.009Z</time></trkpt><trkpt lat="45.90959011041265" lon="12.120793299794359"><ele>186.0</ele><time>2026-04-25T12:04:04.009Z</time></trkpt><trkpt lat="45.909575773748145" lon="12.120903609161955"><ele>186.5</ele><time>2026-04-25T12:04:05.009Z</time></trkpt><trkpt lat="45.90954339873449" lon="12.121003369523171"><ele>187.0</ele><time>2026-04-25T12:04:06.009Z</time></trkpt><trkpt lat="45.90948462219382" lon="12.121089720742459"><ele>187.5</ele><time>2026-04-25T12:04:07.009Z</time></trkpt><trkpt lat="45.90941027886496" lon="12.12115513900769"><ele>188.0</ele><time>2026-04-25T12:04:08.009Z</time></trkpt><trkpt lat="45.90934595956555" lon="12.12121271271975"><ele>188.0</ele><time>2026-04-25T12:04:09.009Z</time></trkpt><trkpt lat="45.90928099381488" lon="12.12124675330657"><ele>188.0</ele><time>2026-04-25T12:04:10.009Z</time></trkpt><trkpt lat="45.9092050443152" lon="12.1212554367449"><ele>188.0</ele><time>2026-04-25T12:04:11.009Z</time></trkpt><trkpt lat="45.90912445886243" lon="12.121250125987869"><ele>188.0</ele><time>2026-04-25T12:04:12.009Z</time></trkpt><trkpt lat="45.90905825465621" lon="12.121259438145636"><ele>188.0</ele><time>2026-04-25T12:04:13.009Z</time></trkpt><trkpt lat="45.9089940208321" lon="12.121277952639911"><ele>188.0</ele><time>2026-04-25T12:04:14.009Z</time></trkpt><trkpt lat="45.908925669785134" lon="12.121361877609974"><ele>188.0</ele><time>2026-04-25T12:04:15.009Z</time></trkpt><trkpt lat="45.90888363892382" lon="12.121458455059667"><ele>187.83333333333331</ele><time>2026-04-25T12:04:16.009Z</time></trkpt><trkpt lat="45.90884504703891" lon="12.121550540504971"><ele>187.66666666666666</ele><time>2026-04-25T12:04:17.009Z</time></trkpt><trkpt lat="45.90881586743857" lon="12.121640027188317"><ele>187.5</ele><time>2026-04-25T12:04:18.009Z</time></trkpt><trkpt lat="45.90873868870691" lon="12.121787108663906"><ele>187.33333333333334</ele><time>2026-04-25T12:04:20.009Z</time></trkpt><trkpt lat="45.908681603150235" lon="12.121852499693185"><ele>187.16666666666669</ele><time>2026-04-25T12:04:21.009Z</time></trkpt><trkpt lat="45.908613739384414" lon="12.121902227233383"><ele>187.0</ele><time>2026-04-25T12:04:22.009Z</time></trkpt><trkpt lat="45.90854799005803" lon="12.121927770931238"><ele>186.33333333333334</ele><time>2026-04-25T12:04:23.009Z</time></trkpt><trkpt lat="45.90844846655743" lon="12.121977562420474"><ele>185.66666666666669</ele><time>2026-04-25T12:04:25.009Z</time></trkpt><trkpt lat="45.90834779935737" lon="12.121909636906734"><ele>185.0</ele><time>2026-04-25T12:04:27.009Z</time></trkpt><trkpt lat="45.90830291822802" lon="12.121826420591692"><ele>184.33333333333334</ele><time>2026-04-25T12:04:28.009Z</time></trkpt><trkpt lat="45.908269026266844" lon="12.121735717322057"><ele>183.66666666666666</ele><time>2026-04-25T12:04:29.009Z</time></trkpt><trkpt lat="45.908224462648704" lon="12.121667923330042"><ele>183.0</ele><time>2026-04-25T12:04:30.009Z</time></trkpt><trkpt lat="45.90811884143677" lon="12.121581864519413"><ele>185.75</ele><time>2026-04-25T12:04:32.009Z</time></trkpt><trkpt lat="45.907990390028004" lon="12.121554138599683"><ele>188.5</ele><time>2026-04-25T12:04:34.009Z</time></trkpt><trkpt lat="45.9078897672199" lon="12.121506194485418"><ele>191.25</ele><time>2026-04-25T12:04:36.009Z</time></trkpt><trkpt lat="45.907775903026014" lon="12.12148504037001"><ele>194.0</ele><time>2026-04-25T12:04:38.009Z</time></trkpt><trkpt lat="45.907677372139325" lon="12.121473320683561"><ele>192.2</ele><time>2026-04-25T12:04:40.009Z</time></trkpt><trkpt lat="45.90757416078069" lon="12.121457599891704"><ele>190.39999999999998</ele><time>2026-04-25T12:04:42.009Z</time></trkpt><trkpt lat="45.90747411361949" lon="12.121440592621973"><ele>188.6</ele><time>2026-04-25T12:04:44.009Z</time></trkpt><trkpt lat="45.90736868855719" lon="12.121450933245134"><ele>186.8</ele><time>2026-04-25T12:04:46.009Z</time></trkpt><trkpt lat="45.90727465570038" lon="12.121448662229843"><ele>185.0</ele><time>2026-04-25T12:04:48.009Z</time></trkpt><trkpt lat="45.90721024585875" lon="12.121493109705598"><ele>185.0</ele><time>2026-04-25T12:04:49.009Z</time></trkpt><trkpt lat="45.90709906087593" lon="12.121552462169728"><ele>185.0</ele><time>2026-04-25T12:04:51.009Z</time></trkpt><trkpt lat="45.90703604025596" lon="12.121570138205964"><ele>185.0</ele><time>2026-04-25T12:04:52.009Z</time></trkpt><trkpt lat="45.90695872520408" lon="12.121599608043743"><ele>185.0</ele><time>2026-04-25T12:04:53.009Z</time></trkpt><trkpt lat="45.906878769249694" lon="12.121627217838503"><ele>185.0</ele><time>2026-04-25T12:04:54.009Z</time></trkpt><trkpt lat="45.90680720187793" lon="12.121658593064312"><ele>185.0</ele><time>2026-04-25T12:04:55.009Z</time></trkpt><trkpt lat="45.90673619425902" lon="12.12167896045574"><ele>183.33333333333331</ele><time>2026-04-25T12:04:56.009Z</time></trkpt><trkpt lat="45.906658396066256" lon="12.121701024121402"><ele>181.66666666666666</ele><time>2026-04-25T12:04:58.009Z</time></trkpt><trkpt lat="45.906679568853704" lon="12.12159090142677"><ele>180.0</ele><time>2026-04-25T12:08:16.01Z</time></trkpt><trkpt lat="45.90661152259492" lon="12.121468183993267"><ele>178.33333333333334</ele><time>2026-04-25T12:08:18.01Z</time></trkpt><trkpt lat="45.906557084478145" lon="12.12142056449638"><ele>176.66666666666669</ele><time>2026-04-25T12:08:19.01Z</time></trkpt><trkpt lat="45.90651537384811" lon="12.121348811748671"><ele>175.0</ele><time>2026-04-25T12:08:20.01Z</time></trkpt><trkpt lat="45.90647645944131" lon="12.12127576915069"><ele>175.0</ele><time>2026-04-25T12:08:21.01Z</time></trkpt><trkpt lat="45.90641092501193" lon="12.121149264916294"><ele>175.0</ele><time>2026-04-25T12:08:23.01Z</time></trkpt><trkpt lat="45.906343055188714" lon="12.121035411441746"><ele>175.0</ele><time>2026-04-25T12:08:25.01Z</time></trkpt><trkpt lat="45.906280249292465" lon="12.120971826727859"><ele>175.0</ele><time>2026-04-25T12:08:26.01Z</time></trkpt><trkpt lat="45.90622536345434" lon="12.120903415663337"><ele>175.0</ele><time>2026-04-25T12:08:27.01Z</time></trkpt><trkpt lat="45.90618115593449" lon="12.120806639567427"><ele>175.0</ele><time>2026-04-25T12:08:28.01Z</time></trkpt><trkpt lat="45.906135685766614" lon="12.12072609338314"><ele>174.0</ele><time>2026-04-25T12:08:29.01Z</time></trkpt><trkpt lat="45.906043817524285" lon="12.120588396472739"><ele>173.0</ele><time>2026-04-25T12:08:31.01Z</time></trkpt><trkpt lat="45.90600483786889" lon="12.120494139589555"><ele>172.0</ele><time>2026-04-25T12:08:32.01Z</time></trkpt><trkpt lat="45.905960944991115" lon="12.1204060218272"><ele>171.0</ele><time>2026-04-25T12:08:33.01Z</time></trkpt><trkpt lat="45.90592447469089" lon="12.120322479523859"><ele>170.0</ele><time>2026-04-25T12:08:34.01Z</time></trkpt><trkpt lat="45.905885326548784" lon="12.120251388682183"><ele>169.0</ele><time>2026-04-25T12:08:35.01Z</time></trkpt><trkpt lat="45.90585046463739" lon="12.120164115269255"><ele>169.0</ele><time>2026-04-25T12:08:36.01Z</time></trkpt><trkpt lat="45.90580016790502" lon="12.120101680105268"><ele>169.0</ele><time>2026-04-25T12:08:37.01Z</time></trkpt><trkpt lat="45.90575615922872" lon="12.12001986633016"><ele>169.0</ele><time>2026-04-25T12:08:38.01Z</time></trkpt><trkpt lat="45.9057221238192" lon="12.119914157810319"><ele>169.0</ele><time>2026-04-25T12:08:39.01Z</time></trkpt><trkpt lat="45.90567886856419" lon="12.119815961157483"><ele>169.0</ele><time>2026-04-25T12:08:40.01Z</time></trkpt><trkpt lat="45.90562728678367" lon="12.119704670059349"><ele>169.0</ele><time>2026-04-25T12:08:41.01Z</time></trkpt><trkpt lat="45.90557305751224" lon="12.119589104754231"><ele>169.39999999999998</ele><time>2026-04-25T12:08:42.01Z</time></trkpt><trkpt lat="45.90551214225678" lon="12.1194694400532"><ele>169.8</ele><time>2026-04-25T12:08:43.01Z</time></trkpt><trkpt lat="45.90543364736624" lon="12.119369766695739"><ele>170.2</ele><time>2026-04-25T12:08:44.01Z</time></trkpt><trkpt lat="45.90533464904762" lon="12.119282934820445"><ele>170.60000000000002</ele><time>2026-04-25T12:08:45.01Z</time></trkpt><trkpt lat="45.90523296229618" lon="12.119215732216965"><ele>171.0</ele><time>2026-04-25T12:08:46.01Z</time></trkpt><trkpt lat="45.90514455868325" lon="12.11914416299392"><ele>169.60000000000002</ele><time>2026-04-25T12:08:47.01Z</time></trkpt><trkpt lat="45.90506146508716" lon="12.11909484411868"><ele>168.2</ele><time>2026-04-25T12:08:48.01Z</time></trkpt><trkpt lat="45.90498188509658" lon="12.119058241968451"><ele>166.8</ele><time>2026-04-25T12:08:49.01Z</time></trkpt><trkpt lat="45.90488751840906" lon="12.119057251223854"><ele>165.39999999999998</ele><time>2026-04-25T12:08:51.01Z</time></trkpt><trkpt lat="45.90483254241597" lon="12.118969023776991"><ele>164.0</ele><time>2026-04-25T12:08:54.01Z</time></trkpt><trkpt lat="45.90479495817911" lon="12.118811803032862"><ele>164.0</ele><time>2026-04-25T12:08:56.01Z</time></trkpt><trkpt lat="45.90474447775882" lon="12.118619170678862"><ele>164.0</ele><time>2026-04-25T12:08:58.01Z</time></trkpt><trkpt lat="45.90471185414751" lon="12.118519344858912"><ele>164.0</ele><time>2026-04-25T12:08:59.01Z</time></trkpt><trkpt lat="45.90467290522024" lon="12.118414448500388"><ele>164.0</ele><time>2026-04-25T12:09:00.01Z</time></trkpt><trkpt lat="45.904630369804785" lon="12.118312617284403"><ele>164.0</ele><time>2026-04-25T12:09:01.01Z</time></trkpt><trkpt lat="45.90459226239815" lon="12.118196107992926"><ele>164.33333333333331</ele><time>2026-04-25T12:09:02.01Z</time></trkpt><trkpt lat="45.90455102672862" lon="12.11809522396121"><ele>164.66666666666666</ele><time>2026-04-25T12:09:03.01Z</time></trkpt><trkpt lat="45.904507237920996" lon="12.117998224004982"><ele>165.0</ele><time>2026-04-25T12:09:04.01Z</time></trkpt><trkpt lat="45.904463735408804" lon="12.117898730932614"><ele>165.33333333333334</ele><time>2026-04-25T12:09:05.01Z</time></trkpt><trkpt lat="45.90440764668889" lon="12.11780251508878"><ele>165.66666666666669</ele><time>2026-04-25T12:09:06.01Z</time></trkpt><trkpt lat="45.90433882059121" lon="12.117725071318285"><ele>166.0</ele><time>2026-04-25T12:09:07.01Z</time></trkpt><trkpt lat="45.9042745810346" lon="12.117659195270466"><ele>165.16666666666669</ele><time>2026-04-25T12:09:08.01Z</time></trkpt><trkpt lat="45.90421027603422" lon="12.117577905765366"><ele>164.33333333333334</ele><time>2026-04-25T12:09:09.01Z</time></trkpt><trkpt lat="45.904151336143606" lon="12.117495277340259"><ele>163.5</ele><time>2026-04-25T12:09:10.01Z</time></trkpt><trkpt lat="45.904094246292495" lon="12.117417538772136"><ele>162.66666666666666</ele><time>2026-04-25T12:09:11.01Z</time></trkpt><trkpt lat="45.90404144744951" lon="12.117331238662095"><ele>161.83333333333331</ele><time>2026-04-25T12:09:12.01Z</time></trkpt><trkpt lat="45.90397200370779" lon="12.117216654695923"><ele>161.0</ele><time>2026-04-25T12:09:14.01Z</time></trkpt><trkpt lat="45.90385900625309" lon="12.117219408863743"><ele>161.0</ele><time>2026-04-25T12:09:16.01Z</time></trkpt><trkpt lat="45.90379718765561" lon="12.117242262998639"><ele>161.0</ele><time>2026-04-25T12:09:17.01Z</time></trkpt><trkpt lat="45.90373366494626" lon="12.117284926947635"><ele>161.0</ele><time>2026-04-25T12:09:18.01Z</time></trkpt><trkpt lat="45.90367356744298" lon="12.117321842611464"><ele>161.0</ele><time>2026-04-25T12:09:19.01Z</time></trkpt><trkpt lat="45.90359422031856" lon="12.11734211269531"><ele>161.0</ele><time>2026-04-25T12:09:20.01Z</time></trkpt><trkpt lat="45.903478690715154" lon="12.117389169131357"><ele>161.0</ele><time>2026-04-25T12:09:22.01Z</time></trkpt><trkpt lat="45.90340603692843" lon="12.117401671045696"><ele>160.60000000000002</ele><time>2026-04-25T12:09:23.01Z</time></trkpt><trkpt lat="45.9033252567497" lon="12.11740954905153"><ele>160.20000000000002</ele><time>2026-04-25T12:09:24.011Z</time></trkpt><trkpt lat="45.90318682622789" lon="12.117482317423331"><ele>159.8</ele><time>2026-04-25T12:09:26.011Z</time></trkpt><trkpt lat="45.90309248147925" lon="12.117517637558025"><ele>159.4</ele><time>2026-04-25T12:09:27.011Z</time></trkpt><trkpt lat="45.903001501282915" lon="12.117548450750796"><ele>159.0</ele><time>2026-04-25T12:09:28.011Z</time></trkpt><trkpt lat="45.902915587371815" lon="12.11758689433455"><ele>159.0</ele><time>2026-04-25T12:09:29.011Z</time></trkpt><trkpt lat="45.90282627288009" lon="12.117612969568414"><ele>159.0</ele><time>2026-04-25T12:09:30.011Z</time></trkpt><trkpt lat="45.90273736141143" lon="12.117615105242532"><ele>159.0</ele><time>2026-04-25T12:09:31.011Z</time></trkpt><trkpt lat="45.90264082370522" lon="12.117608512856812"><ele>159.0</ele><time>2026-04-25T12:09:32.011Z</time></trkpt><trkpt lat="45.90253808961524" lon="12.117586538316255"><ele>159.0</ele><time>2026-04-25T12:09:33.011Z</time></trkpt><trkpt lat="45.902447445603556" lon="12.117505292134288"><ele>158.66666666666666</ele><time>2026-04-25T12:09:34.011Z</time></trkpt><trkpt lat="45.90237031785552" lon="12.117436094157068"><ele>158.33333333333334</ele><time>2026-04-25T12:09:35.011Z</time></trkpt><trkpt lat="45.90228855892552" lon="12.117381645296906"><ele>158.0</ele><time>2026-04-25T12:09:36.011Z</time></trkpt><trkpt lat="45.90220335815305" lon="12.117371224091897"><ele>157.66666666666669</ele><time>2026-04-25T12:09:37.011Z</time></trkpt><trkpt lat="45.902116406773644" lon="12.117416306965374"><ele>157.33333333333334</ele><time>2026-04-25T12:09:38.011Z</time></trkpt><trkpt lat="45.90204212236099" lon="12.11748792507413"><ele>157.0</ele><time>2026-04-25T12:09:39.011Z</time></trkpt><trkpt lat="45.90195846694562" lon="12.117559037189945"><ele>156.79999999999998</ele><time>2026-04-25T12:09:40.011Z</time></trkpt><trkpt lat="45.90187048089077" lon="12.117626738026532"><ele>156.6</ele><time>2026-04-25T12:09:41.011Z</time></trkpt><trkpt lat="45.90177705359462" lon="12.117699145862398"><ele>156.39999999999998</ele><time>2026-04-25T12:09:42.011Z</time></trkpt><trkpt lat="45.90168331855382" lon="12.117761273554667"><ele>156.2</ele><time>2026-04-25T12:09:43.011Z</time></trkpt><trkpt lat="45.90159215379269" lon="12.117814401722708"><ele>156.0</ele><time>2026-04-25T12:09:44.011Z</time></trkpt><trkpt lat="45.901506228365335" lon="12.1178599381028"><ele>155.4</ele><time>2026-04-25T12:09:45.011Z</time></trkpt><trkpt lat="45.90141451444466" lon="12.117900647586653"><ele>154.8</ele><time>2026-04-25T12:09:46.011Z</time></trkpt><trkpt lat="45.90131749876406" lon="12.117946472252422"><ele>154.20000000000002</ele><time>2026-04-25T12:09:47.011Z</time></trkpt><trkpt lat="45.90122729556444" lon="12.117997733208767"><ele>153.6</ele><time>2026-04-25T12:09:48.011Z</time></trkpt><trkpt lat="45.90113772555001" lon="12.118042385916992"><ele>153.0</ele><time>2026-04-25T12:09:49.011Z</time></trkpt><trkpt lat="45.90105460307827" lon="12.118085110696077"><ele>153.0</ele><time>2026-04-25T12:09:50.011Z</time></trkpt><trkpt lat="45.90096635036534" lon="12.118132394871052"><ele>153.0</ele><time>2026-04-25T12:09:51.011Z</time></trkpt><trkpt lat="45.90088254409743" lon="12.118179454078629"><ele>153.0</ele><time>2026-04-25T12:09:52.011Z</time></trkpt><trkpt lat="45.90079288380962" lon="12.118219643228699"><ele>153.0</ele><time>2026-04-25T12:09:53.011Z</time></trkpt><trkpt lat="45.90070782121277" lon="12.118254943869134"><ele>153.0</ele><time>2026-04-25T12:09:54.011Z</time></trkpt><trkpt lat="45.90062794447777" lon="12.118270354579264"><ele>153.0</ele><time>2026-04-25T12:09:55.011Z</time></trkpt><trkpt lat="45.90052184331066" lon="12.118269734721727"><ele>152.0</ele><time>2026-04-25T12:09:57.011Z</time></trkpt><trkpt lat="45.90041625873563" lon="12.118261553403098"><ele>151.0</ele><time>2026-04-25T12:09:59.011Z</time></trkpt><trkpt lat="45.90033287603745" lon="12.11826585995954"><ele>150.0</ele><time>2026-04-25T12:10:00.012Z</time></trkpt><trkpt lat="45.90024268710454" lon="12.118263145339847"><ele>149.0</ele><time>2026-04-25T12:10:01.012Z</time></trkpt><trkpt lat="45.900158811138795" lon="12.118246351124585"><ele>148.0</ele><time>2026-04-25T12:10:02.011Z</time></trkpt><trkpt lat="45.90007154893709" lon="12.11822522423456"><ele>148.0</ele><time>2026-04-25T12:10:03.011Z</time></trkpt><trkpt lat="45.89998737998986" lon="12.118200708064954"><ele>148.0</ele><time>2026-04-25T12:10:04.011Z</time></trkpt><trkpt lat="45.899893133826644" lon="12.118163905407988"><ele>148.0</ele><time>2026-04-25T12:10:05.012Z</time></trkpt><trkpt lat="45.89980674781498" lon="12.11813132183509"><ele>148.0</ele><time>2026-04-25T12:10:06.011Z</time></trkpt><trkpt lat="45.899722699162076" lon="12.118101088882504"><ele>148.0</ele><time>2026-04-25T12:10:07.011Z</time></trkpt><trkpt lat="45.89963746211386" lon="12.11806024740336"><ele>148.0</ele><time>2026-04-25T12:10:08.011Z</time></trkpt><trkpt lat="45.89955626306923" lon="12.118014611423952"><ele>148.0</ele><time>2026-04-25T12:10:09.012Z</time></trkpt><trkpt lat="45.89948260782132" lon="12.117952467242866"><ele>148.0</ele><time>2026-04-25T12:10:10.012Z</time></trkpt><trkpt lat="45.89941528743" lon="12.117877234975838"><ele>148.0</ele><time>2026-04-25T12:10:11.012Z</time></trkpt><trkpt lat="45.89935815008438" lon="12.117794065721085"><ele>148.0</ele><time>2026-04-25T12:10:12.012Z</time></trkpt><trkpt lat="45.89930873480511" lon="12.117711792352921"><ele>148.0</ele><time>2026-04-25T12:10:13.012Z</time></trkpt><trkpt lat="45.89925406537322" lon="12.11762492526421"><ele>148.0</ele><time>2026-04-25T12:10:14.012Z</time></trkpt><trkpt lat="45.899208125153415" lon="12.117535537502143"><ele>147.5</ele><time>2026-04-25T12:10:15.012Z</time></trkpt><trkpt lat="45.89916082803072" lon="12.117445014061362"><ele>147.0</ele><time>2026-04-25T12:10:16.012Z</time></trkpt><trkpt lat="45.89910325899378" lon="12.117369978859378"><ele>146.5</ele><time>2026-04-25T12:10:17.012Z</time></trkpt><trkpt lat="45.89902882452793" lon="12.117320766093629"><ele>146.0</ele><time>2026-04-25T12:10:18.012Z</time></trkpt><trkpt lat="45.89894828071262" lon="12.11729795369493"><ele>145.5</ele><time>2026-04-25T12:10:19.012Z</time></trkpt><trkpt lat="45.89886374714484" lon="12.117275351723437"><ele>145.0</ele><time>2026-04-25T12:10:20.012Z</time></trkpt><trkpt lat="45.89877957154717" lon="12.117248498337988"><ele>145.0</ele><time>2026-04-25T12:10:21.012Z</time></trkpt><trkpt lat="45.898694191678324" lon="12.117218959627102"><ele>145.0</ele><time>2026-04-25T12:10:22.012Z</time></trkpt><trkpt lat="45.898607189666635" lon="12.117189834751997"><ele>145.0</ele><time>2026-04-25T12:10:23.012Z</time></trkpt><trkpt lat="45.898519029375215" lon="12.11715316021747"><ele>145.0</ele><time>2026-04-25T12:10:24.012Z</time></trkpt><trkpt lat="45.89843229920454" lon="12.117118384740612"><ele>145.0</ele><time>2026-04-25T12:10:25.012Z</time></trkpt><trkpt lat="45.89834115531127" lon="12.117085733526359"><ele>144.6</ele><time>2026-04-25T12:10:26.012Z</time></trkpt><trkpt lat="45.898254304768585" lon="12.117056298723565"><ele>144.2</ele><time>2026-04-25T12:10:27.012Z</time></trkpt><trkpt lat="45.89816010957808" lon="12.117028543401268"><ele>143.8</ele><time>2026-04-25T12:10:28.012Z</time></trkpt><trkpt lat="45.89806676793582" lon="12.11700231310795"><ele>143.4</ele><time>2026-04-25T12:10:29.012Z</time></trkpt><trkpt lat="45.897973499412046" lon="12.11697964384535"><ele>143.0</ele><time>2026-04-25T12:10:30.012Z</time></trkpt><trkpt lat="45.897882919216975" lon="12.116950283906109"><ele>143.0</ele><time>2026-04-25T12:10:31.012Z</time></trkpt><trkpt lat="45.89769655907175" lon="12.1168950456505"><ele>143.0</ele><time>2026-04-25T12:10:33.012Z</time></trkpt><trkpt lat="45.89760375310952" lon="12.116865604632247"><ele>143.0</ele><time>2026-04-25T12:10:34.012Z</time></trkpt><trkpt lat="45.89751153849234" lon="12.116852417878626"><ele>143.0</ele><time>2026-04-25T12:10:35.012Z</time></trkpt><trkpt lat="45.897420270798186" lon="12.11683414701879"><ele>142.0</ele><time>2026-04-25T12:10:36.012Z</time></trkpt><trkpt lat="45.89733210911476" lon="12.116827591423867"><ele>141.0</ele><time>2026-04-25T12:10:37.012Z</time></trkpt><trkpt lat="45.897248902726076" lon="12.116819189403083"><ele>140.0</ele><time>2026-04-25T12:10:38.012Z</time></trkpt><trkpt lat="45.89716697519501" lon="12.116838209150638"><ele>139.0</ele><time>2026-04-25T12:10:39.012Z</time></trkpt><trkpt lat="45.89709019014298" lon="12.116875239244305"><ele>138.0</ele><time>2026-04-25T12:10:40.012Z</time></trkpt><trkpt lat="45.89701854200798" lon="12.116934576325553"><ele>137.0</ele><time>2026-04-25T12:10:41.012Z</time></trkpt><trkpt lat="45.89695458513279" lon="12.117014851361454"><ele>137.0</ele><time>2026-04-25T12:10:42.012Z</time></trkpt><trkpt lat="45.896889774987564" lon="12.117088773377047"><ele>137.0</ele><time>2026-04-25T12:10:43.012Z</time></trkpt><trkpt lat="45.896820743622044" lon="12.117161121941587"><ele>137.0</ele><time>2026-04-25T12:10:44.012Z</time></trkpt><trkpt lat="45.89674471529407" lon="12.117207551866322"><ele>137.0</ele><time>2026-04-25T12:10:45.012Z</time></trkpt><trkpt lat="45.89665772748691" lon="12.117244737791598"><ele>137.0</ele><time>2026-04-25T12:10:46.012Z</time></trkpt><trkpt lat="45.89657048788777" lon="12.117265515474351"><ele>137.0</ele><time>2026-04-25T12:10:47.012Z</time></trkpt><trkpt lat="45.896481138004106" lon="12.117278668832599"><ele>136.83333333333331</ele><time>2026-04-25T12:10:48.012Z</time></trkpt><trkpt lat="45.8963943123027" lon="12.117296876908561"><ele>136.66666666666666</ele><time>2026-04-25T12:10:49.012Z</time></trkpt><trkpt lat="45.896305792638984" lon="12.117328055741542"><ele>136.5</ele><time>2026-04-25T12:10:50.012Z</time></trkpt><trkpt lat="45.89621719692826" lon="12.11735778976245"><ele>136.33333333333334</ele><time>2026-04-25T12:10:51.012Z</time></trkpt><trkpt lat="45.89613622313316" lon="12.117389087306712"><ele>136.16666666666669</ele><time>2026-04-25T12:10:52.012Z</time></trkpt><trkpt lat="45.89605118372576" lon="12.11742753210393"><ele>136.0</ele><time>2026-04-25T12:10:53.012Z</time></trkpt><trkpt lat="45.89596695950356" lon="12.117473516333872"><ele>136.0</ele><time>2026-04-25T12:10:54.012Z</time></trkpt><trkpt lat="45.89588415091945" lon="12.117522347627629"><ele>136.0</ele><time>2026-04-25T12:10:55.012Z</time></trkpt><trkpt lat="45.895806479228945" lon="12.117553909080373"><ele>136.0</ele><time>2026-04-25T12:10:56.012Z</time></trkpt><trkpt lat="45.89572113570871" lon="12.117578406009482"><ele>136.0</ele><time>2026-04-25T12:10:57.012Z</time></trkpt><trkpt lat="45.89563592702834" lon="12.117572854830579"><ele>136.0</ele><time>2026-04-25T12:10:58.012Z</time></trkpt><trkpt lat="45.89556030695221" lon="12.117534512690217"><ele>136.0</ele><time>2026-04-25T12:10:59.012Z</time></trkpt><trkpt lat="45.89548690847154" lon="12.117487153724946"><ele>136.0</ele><time>2026-04-25T12:11:00.012Z</time></trkpt><trkpt lat="45.89541697218812" lon="12.117428673785302"><ele>136.0</ele><time>2026-04-25T12:11:01.012Z</time></trkpt><trkpt lat="45.89534930039231" lon="12.117370209443004"><ele>136.0</ele><time>2026-04-25T12:11:02.012Z</time></trkpt><trkpt lat="45.895277004726815" lon="12.117336022199218"><ele>136.0</ele><time>2026-04-25T12:11:03.012Z</time></trkpt><trkpt lat="45.89519252828626" lon="12.11733829552117"><ele>136.0</ele><time>2026-04-25T12:11:04.012Z</time></trkpt><trkpt lat="45.89511051645432" lon="12.117355286423699"><ele>136.0</ele><time>2026-04-25T12:11:05.012Z</time></trkpt><trkpt lat="45.89503197633655" lon="12.11738356942726"><ele>136.0</ele><time>2026-04-25T12:11:06.012Z</time></trkpt><trkpt lat="45.89495738117813" lon="12.117416532958325"><ele>136.0</ele><time>2026-04-25T12:11:07.012Z</time></trkpt><trkpt lat="45.89488140679466" lon="12.117435162100024"><ele>136.0</ele><time>2026-04-25T12:11:08.012Z</time></trkpt><trkpt lat="45.89480572544948" lon="12.117438366096827"><ele>136.0</ele><time>2026-04-25T12:11:09.012Z</time></trkpt><trkpt lat="45.89473056845867" lon="12.117431810136177"><ele>136.0</ele><time>2026-04-25T12:11:10.012Z</time></trkpt><trkpt lat="45.89463562058934" lon="12.117359601001061"><ele>136.0</ele><time>2026-04-25T12:11:12.012Z</time></trkpt><trkpt lat="45.89456896310664" lon="12.117219473468888"><ele>136.0</ele><time>2026-04-25T12:11:14.012Z</time></trkpt><trkpt lat="45.89454639875135" lon="12.117132794033456"><ele>136.0</ele><time>2026-04-25T12:11:15.012Z</time></trkpt><trkpt lat="45.8944643561694" lon="12.117014216019868"><ele>136.0</ele><time>2026-04-25T12:11:17.012Z</time></trkpt><trkpt lat="45.89440291425234" lon="12.116992061052448"><ele>136.0</ele><time>2026-04-25T12:11:18.012Z</time></trkpt><trkpt lat="45.89428607660565" lon="12.116976064037447"><ele>136.0</ele><time>2026-04-25T12:11:20.012Z</time></trkpt><trkpt lat="45.89416746291887" lon="12.116976217135392"><ele>136.16666666666669</ele><time>2026-04-25T12:11:22.012Z</time></trkpt><trkpt lat="45.89410594494476" lon="12.11694910596558"><ele>136.33333333333334</ele><time>2026-04-25T12:11:23.012Z</time></trkpt><trkpt lat="45.893968666789426" lon="12.116911347569298"><ele>136.5</ele><time>2026-04-25T12:11:25.012Z</time></trkpt><trkpt lat="45.89389112608964" lon="12.11688127945965"><ele>136.66666666666666</ele><time>2026-04-25T12:11:26.012Z</time></trkpt><trkpt lat="45.893812510943384" lon="12.116866500779661"><ele>136.83333333333331</ele><time>2026-04-25T12:11:27.012Z</time></trkpt><trkpt lat="45.893741096977514" lon="12.116835792276518"><ele>137.0</ele><time>2026-04-25T12:11:28.012Z</time></trkpt><trkpt lat="45.893669317612975" lon="12.116806023158738"><ele>137.0</ele><time>2026-04-25T12:11:29.012Z</time></trkpt><trkpt lat="45.89359259801115" lon="12.116775618153426"><ele>137.0</ele><time>2026-04-25T12:11:30.012Z</time></trkpt><trkpt lat="45.89351741659154" lon="12.116740165368748"><ele>137.0</ele><time>2026-04-25T12:11:31.012Z</time></trkpt><trkpt lat="45.89344328737844" lon="12.116707218027546"><ele>137.0</ele><time>2026-04-25T12:11:32.012Z</time></trkpt><trkpt lat="45.89337372272503" lon="12.11669204076331"><ele>137.0</ele><time>2026-04-25T12:11:33.012Z</time></trkpt><trkpt lat="45.893274775127836" lon="12.11664078165616"><ele>137.0</ele><time>2026-04-25T12:11:35.012Z</time></trkpt><trkpt lat="45.89323752480815" lon="12.116496524681802"><ele>136.83333333333331</ele><time>2026-04-25T12:11:37.012Z</time></trkpt><trkpt lat="45.89321406703691" lon="12.116312909812537"><ele>136.66666666666666</ele><time>2026-04-25T12:11:39.012Z</time></trkpt><trkpt lat="45.893211661624946" lon="12.116214502326756"><ele>136.5</ele><time>2026-04-25T12:11:40.012Z</time></trkpt><trkpt lat="45.893201188805016" lon="12.116119008354838"><ele>136.33333333333334</ele><time>2026-04-25T12:11:41.012Z</time></trkpt><trkpt lat="45.8931949335555" lon="12.11602035713543"><ele>136.16666666666669</ele><time>2026-04-25T12:11:42.012Z</time></trkpt><trkpt lat="45.893185953830084" lon="12.115926164651627"><ele>136.0</ele><time>2026-04-25T12:11:43.012Z</time></trkpt><trkpt lat="45.89317912390404" lon="12.115810103480358"><ele>136.16666666666669</ele><time>2026-04-25T12:11:44.012Z</time></trkpt><trkpt lat="45.89317472633312" lon="12.11569970097404"><ele>136.33333333333334</ele><time>2026-04-25T12:11:45.012Z</time></trkpt><trkpt lat="45.89317557663593" lon="12.11559018224962"><ele>136.5</ele><time>2026-04-25T12:11:46.012Z</time></trkpt><trkpt lat="45.8931654486935" lon="12.115482831766213"><ele>136.66666666666666</ele><time>2026-04-25T12:11:47.012Z</time></trkpt><trkpt lat="45.893174184235185" lon="12.115367243930809"><ele>136.83333333333331</ele><time>2026-04-25T12:11:48.012Z</time></trkpt><trkpt lat="45.89317581635238" lon="12.115266940151146"><ele>137.0</ele><time>2026-04-25T12:11:49.012Z</time></trkpt><trkpt lat="45.89317937689579" lon="12.11516399452119"><ele>137.0</ele><time>2026-04-25T12:11:50.012Z</time></trkpt><trkpt lat="45.89318947599627" lon="12.115050167982467"><ele>137.0</ele><time>2026-04-25T12:11:51.012Z</time></trkpt><trkpt lat="45.893212688328795" lon="12.114964288726396"><ele>137.0</ele><time>2026-04-25T12:11:52.012Z</time></trkpt><trkpt lat="45.8932466310174" lon="12.11485653419413"><ele>137.0</ele><time>2026-04-25T12:11:53.012Z</time></trkpt><trkpt lat="45.89330250992152" lon="12.114778910994007"><ele>137.0</ele><time>2026-04-25T12:11:54.012Z</time></trkpt><trkpt lat="45.89337156657314" lon="12.114696206806551"><ele>137.0</ele><time>2026-04-25T12:11:55.012Z</time></trkpt><trkpt lat="45.89343325408608" lon="12.11464786473818"><ele>137.00000000000003</ele><time>2026-04-25T12:11:56.012Z</time></trkpt><trkpt lat="45.893471847307474" lon="12.114554626586955"><ele>137.0</ele><time>2026-04-25T12:11:57.012Z</time></trkpt><trkpt lat="45.8935150033" lon="12.114465957787571"><ele>137.0</ele><time>2026-04-25T12:11:58.012Z</time></trkpt><trkpt lat="45.89354634974079" lon="12.11437238738953"><ele>137.0</ele><time>2026-04-25T12:11:59.012Z</time></trkpt><trkpt lat="45.89355459381342" lon="12.114273353832857"><ele>137.0</ele><time>2026-04-25T12:12:00.012Z</time></trkpt><trkpt lat="45.893551986884106" lon="12.114165367244901"><ele>137.00000000000003</ele><time>2026-04-25T12:12:01.012Z</time></trkpt><trkpt lat="45.89355042866801" lon="12.114059215204305"><ele>137.0</ele><time>2026-04-25T12:12:02.012Z</time></trkpt><trkpt lat="45.89355165756824" lon="12.113947650865569"><ele>137.00000000000003</ele><time>2026-04-25T12:12:03.013Z</time></trkpt><trkpt lat="45.89355381128743" lon="12.11384898921498"><ele>137.0</ele><time>2026-04-25T12:12:04.013Z</time></trkpt><trkpt lat="45.893550184128806" lon="12.113750754720904"><ele>137.0</ele><time>2026-04-25T12:12:05.012Z</time></trkpt><trkpt lat="45.89354927899185" lon="12.11365205256635"><ele>137.0</ele><time>2026-04-25T12:12:06.012Z</time></trkpt><trkpt lat="45.8935514801316" lon="12.113556219204192"><ele>137.0</ele><time>2026-04-25T12:12:07.012Z</time></trkpt><trkpt lat="45.893554215980004" lon="12.113460866581555"><ele>137.00000000000003</ele><time>2026-04-25T12:12:08.012Z</time></trkpt><trkpt lat="45.89356471610233" lon="12.113359937412643"><ele>137.0</ele><time>2026-04-25T12:12:09.012Z</time></trkpt><trkpt lat="45.893581872723146" lon="12.113213809937493"><ele>136.83333333333331</ele><time>2026-04-25T12:12:11.012Z</time></trkpt><trkpt lat="45.8935911191577" lon="12.113069241196147"><ele>136.66666666666666</ele><time>2026-04-25T12:12:13.013Z</time></trkpt><trkpt lat="45.89356779983158" lon="12.112981474521739"><ele>136.5</ele><time>2026-04-25T12:12:15.012Z</time></trkpt><trkpt lat="45.89348055003237" lon="12.112989250980437"><ele>136.33333333333334</ele><time>2026-04-25T12:12:18.012Z</time></trkpt><trkpt lat="45.8934029067347" lon="12.113024258590608"><ele>136.16666666666669</ele><time>2026-04-25T12:12:19.012Z</time></trkpt><trkpt lat="45.893326532063455" lon="12.11306296597434"><ele>136.0</ele><time>2026-04-25T12:12:20.012Z</time></trkpt><trkpt lat="45.89326260492863" lon="12.113098308197735"><ele>136.0</ele><time>2026-04-25T12:12:21.012Z</time></trkpt><trkpt lat="45.89319568462741" lon="12.113142953993169"><ele>136.0</ele><time>2026-04-25T12:12:22.012Z</time></trkpt><trkpt lat="45.89309673797747" lon="12.11319737608215"><ele>136.0</ele><time>2026-04-25T12:12:24.012Z</time></trkpt><trkpt lat="45.89299676674681" lon="12.11323511534144"><ele>136.0</ele><time>2026-04-25T12:12:26.012Z</time></trkpt><trkpt lat="45.89289707883507" lon="12.113309685888709"><ele>136.0</ele><time>2026-04-25T12:12:28.012Z</time></trkpt><trkpt lat="45.89281221332546" lon="12.113409939724388"><ele>136.33333333333334</ele><time>2026-04-25T12:12:30.012Z</time></trkpt><trkpt lat="45.89274474527953" lon="12.11345876190942"><ele>136.66666666666669</ele><time>2026-04-25T12:12:31.012Z</time></trkpt><trkpt lat="45.892658265274456" lon="12.113527817945393"><ele>137.0</ele><time>2026-04-25T12:12:33.012Z</time></trkpt><trkpt lat="45.89256061954705" lon="12.113563259107387"><ele>137.33333333333334</ele><time>2026-04-25T12:12:34.012Z</time></trkpt><trkpt lat="45.892479404671434" lon="12.113574423569915"><ele>137.66666666666666</ele><time>2026-04-25T12:12:35.012Z</time></trkpt><trkpt lat="45.892414403200135" lon="12.113558913681814"><ele>138.0</ele><time>2026-04-25T12:12:36.012Z</time></trkpt><trkpt lat="45.89234919824056" lon="12.113543708622101"><ele>138.16666666666666</ele><time>2026-04-25T12:12:37.012Z</time></trkpt><trkpt lat="45.892278915705646" lon="12.113516231770491"><ele>138.33333333333334</ele><time>2026-04-25T12:12:38.012Z</time></trkpt><trkpt lat="45.89221344215888" lon="12.11348915166896"><ele>138.5</ele><time>2026-04-25T12:12:39.012Z</time></trkpt><trkpt lat="45.89212519786756" lon="12.113464000685541"><ele>138.66666666666669</ele><time>2026-04-25T12:12:40.012Z</time></trkpt><trkpt lat="45.89203684146165" lon="12.113440203834887"><ele>138.83333333333334</ele><time>2026-04-25T12:12:41.012Z</time></trkpt><trkpt lat="45.891951255636066" lon="12.113405355975603"><ele>139.0</ele><time>2026-04-25T12:12:42.012Z</time></trkpt><trkpt lat="45.891865142583306" lon="12.113368641453555"><ele>139.0</ele><time>2026-04-25T12:12:43.012Z</time></trkpt><trkpt lat="45.891804957933736" lon="12.113299528580885"><ele>139.0</ele><time>2026-04-25T12:12:44.012Z</time></trkpt><trkpt lat="45.89173325004439" lon="12.113230948171847"><ele>139.0</ele><time>2026-04-25T12:12:45.012Z</time></trkpt><trkpt lat="45.89166283950973" lon="12.113173557561032"><ele>139.0</ele><time>2026-04-25T12:12:46.012Z</time></trkpt><trkpt lat="45.89159251892525" lon="12.113113517587687"><ele>139.0</ele><time>2026-04-25T12:12:47.012Z</time></trkpt><trkpt lat="45.891540083687836" lon="12.113058396867912"><ele>139.0</ele><time>2026-04-25T12:12:48.012Z</time></trkpt><trkpt lat="45.891476484063986" lon="12.112997001526555"><ele>138.0</ele><time>2026-04-25T12:12:49.012Z</time></trkpt><trkpt lat="45.891400582332544" lon="12.112917656183797"><ele>137.0</ele><time>2026-04-25T12:12:50.012Z</time></trkpt><trkpt lat="45.8913328610192" lon="12.112832945558186"><ele>136.0</ele><time>2026-04-25T12:12:51.012Z</time></trkpt><trkpt lat="45.89126184878021" lon="12.112743784532972"><ele>135.0</ele><time>2026-04-25T12:12:52.012Z</time></trkpt><trkpt lat="45.891205273105754" lon="12.112641904674947"><ele>134.0</ele><time>2026-04-25T12:12:53.012Z</time></trkpt><trkpt lat="45.89115143525154" lon="12.112540416185173"><ele>134.0</ele><time>2026-04-25T12:12:54.012Z</time></trkpt><trkpt lat="45.89110143597308" lon="12.112437759120096"><ele>134.0</ele><time>2026-04-25T12:12:55.012Z</time></trkpt><trkpt lat="45.89106353416362" lon="12.112331706089819"><ele>134.0</ele><time>2026-04-25T12:12:56.012Z</time></trkpt><trkpt lat="45.891038358357626" lon="12.112229784073836"><ele>134.0</ele><time>2026-04-25T12:12:57.012Z</time></trkpt><trkpt lat="45.89102602204371" lon="12.112124275907908"><ele>134.0</ele><time>2026-04-25T12:12:58.012Z</time></trkpt><trkpt lat="45.89103789481133" lon="12.112016623235165"><ele>134.0</ele><time>2026-04-25T12:12:59.012Z</time></trkpt><trkpt lat="45.89106348674893" lon="12.111907252522512"><ele>133.71428571428572</ele><time>2026-04-25T12:13:00.012Z</time></trkpt><trkpt lat="45.89109716102457" lon="12.111805035578453"><ele>133.42857142857142</ele><time>2026-04-25T12:13:01.012Z</time></trkpt><trkpt lat="45.891103527975986" lon="12.111698113851723"><ele>133.14285714285714</ele><time>2026-04-25T12:13:02.012Z</time></trkpt><trkpt lat="45.89107908756438" lon="12.111587117094857"><ele>132.85714285714286</ele><time>2026-04-25T12:13:03.012Z</time></trkpt><trkpt lat="45.89105030433817" lon="12.111491086134372"><ele>132.57142857142858</ele><time>2026-04-25T12:13:04.012Z</time></trkpt><trkpt lat="45.89103097097234" lon="12.111402896737262"><ele>132.28571428571428</ele><time>2026-04-25T12:13:05.012Z</time></trkpt><trkpt lat="45.89102378743521" lon="12.111311534093957"><ele>132.0</ele><time>2026-04-25T12:13:06.012Z</time></trkpt><trkpt lat="45.891017981153205" lon="12.111193942929546"><ele>132.0</ele><time>2026-04-25T12:13:08.012Z</time></trkpt><trkpt lat="45.89108053210561" lon="12.111027339878786"><ele>132.0</ele><time>2026-04-25T12:13:10.012Z</time></trkpt><trkpt lat="45.89113444694701" lon="12.110936696058046"><ele>132.0</ele><time>2026-04-25T12:13:11.012Z</time></trkpt><trkpt lat="45.89117169299438" lon="12.110847920508013"><ele>132.0</ele><time>2026-04-25T12:13:12.012Z</time></trkpt><trkpt lat="45.891177441827125" lon="12.110753888412482"><ele>132.0</ele><time>2026-04-25T12:13:13.012Z</time></trkpt><trkpt lat="45.89111120329479" lon="12.11059994467194"><ele>132.0</ele><time>2026-04-25T12:13:15.012Z</time></trkpt><trkpt lat="45.89106118279508" lon="12.11053054010171"><ele>132.0</ele><time>2026-04-25T12:13:16.012Z</time></trkpt><trkpt lat="45.89097216457146" lon="12.110397085871929"><ele>132.0</ele><time>2026-04-25T12:13:18.012Z</time></trkpt><trkpt lat="45.89093704936627" lon="12.110315817159611"><ele>132.0</ele><time>2026-04-25T12:13:19.012Z</time></trkpt><trkpt lat="45.89089605087951" lon="12.11023088741341"><ele>132.0</ele><time>2026-04-25T12:13:20.012Z</time></trkpt><trkpt lat="45.89084822794425" lon="12.110146808743679"><ele>132.0</ele><time>2026-04-25T12:13:21.012Z</time></trkpt><trkpt lat="45.890801641000756" lon="12.110062434852647"><ele>131.66666666666666</ele><time>2026-04-25T12:13:22.012Z</time></trkpt><trkpt lat="45.89076435643208" lon="12.10996781887031"><ele>131.33333333333334</ele><time>2026-04-25T12:13:23.012Z</time></trkpt><trkpt lat="45.89072859900469" lon="12.109869853578878"><ele>131.0</ele><time>2026-04-25T12:13:24.012Z</time></trkpt><trkpt lat="45.89069173876732" lon="12.109773979080755"><ele>130.66666666666669</ele><time>2026-04-25T12:13:25.012Z</time></trkpt><trkpt lat="45.89065248762852" lon="12.109693676665906"><ele>130.33333333333334</ele><time>2026-04-25T12:13:26.012Z</time></trkpt><trkpt lat="45.89060751789384" lon="12.109619030258544"><ele>130.0</ele><time>2026-04-25T12:13:27.012Z</time></trkpt><trkpt lat="45.89057538414414" lon="12.109506039124785"><ele>130.0</ele><time>2026-04-25T12:13:29.012Z</time></trkpt><trkpt lat="45.89062107584704" lon="12.109424968135006"><ele>130.0</ele><time>2026-04-25T12:13:31.012Z</time></trkpt><trkpt lat="45.89071255300749" lon="12.109351845056956"><ele>130.0</ele><time>2026-04-25T12:13:33.012Z</time></trkpt><trkpt lat="45.89077269345856" lon="12.109309989134763"><ele>130.0</ele><time>2026-04-25T12:13:34.012Z</time></trkpt><trkpt lat="45.89083208716068" lon="12.109265304550258"><ele>130.0</ele><time>2026-04-25T12:13:35.012Z</time></trkpt><trkpt lat="45.89094312238572" lon="12.109196259459125"><ele>130.0</ele><time>2026-04-25T12:13:37.012Z</time></trkpt><trkpt lat="45.89097684379739" lon="12.109054893766338"><ele>130.5</ele><time>2026-04-25T12:13:39.012Z</time></trkpt><trkpt lat="45.89101476492556" lon="12.108948865509996"><ele>131.0</ele><time>2026-04-25T12:13:42.012Z</time></trkpt><trkpt lat="45.891076154391406" lon="12.108920734997266"><ele>131.5</ele><time>2026-04-25T12:13:44.012Z</time></trkpt><trkpt lat="45.89115308373274" lon="12.108897224471642"><ele>132.0</ele><time>2026-04-25T12:13:47.012Z</time></trkpt><trkpt lat="45.89123351485312" lon="12.10883832608171"><ele>132.5</ele><time>2026-04-25T12:13:49.012Z</time></trkpt><trkpt lat="45.89128602955565" lon="12.108786504710302"><ele>133.0</ele><time>2026-04-25T12:13:50.012Z</time></trkpt><trkpt lat="45.89141701877447" lon="12.108723393395524"><ele>133.0</ele><time>2026-04-25T12:13:52.012Z</time></trkpt><trkpt lat="45.89151476199178" lon="12.108637680398438"><ele>133.0</ele><time>2026-04-25T12:13:54.012Z</time></trkpt><trkpt lat="45.89159498985937" lon="12.108557082366048"><ele>133.0</ele><time>2026-04-25T12:13:56.012Z</time></trkpt><trkpt lat="45.89165775849768" lon="12.10850733674821"><ele>133.0</ele><time>2026-04-25T12:13:57.012Z</time></trkpt><trkpt lat="45.891715030409564" lon="12.108442637184167"><ele>133.0</ele><time>2026-04-25T12:13:58.012Z</time></trkpt><trkpt lat="45.891788290023115" lon="12.108411287032792"><ele>133.0</ele><time>2026-04-25T12:13:59.012Z</time></trkpt><trkpt lat="45.891878766154925" lon="12.108396512434565"><ele>132.8</ele><time>2026-04-25T12:14:00.012Z</time></trkpt><trkpt lat="45.891975894501904" lon="12.108390538519032"><ele>132.60000000000002</ele><time>2026-04-25T12:14:01.012Z</time></trkpt><trkpt lat="45.892060234189124" lon="12.10837080410538"><ele>132.39999999999998</ele><time>2026-04-25T12:14:02.012Z</time></trkpt><trkpt lat="45.89214680373653" lon="12.108349813915858"><ele>132.2</ele><time>2026-04-25T12:14:03.012Z</time></trkpt><trkpt lat="45.89223990739547" lon="12.108338963188963"><ele>132.0</ele><time>2026-04-25T12:14:04.012Z</time></trkpt><trkpt lat="45.892326255906134" lon="12.108307751535502"><ele>132.0</ele><time>2026-04-25T12:14:05.012Z</time></trkpt><trkpt lat="45.89241249058855" lon="12.108283529347986"><ele>132.0</ele><time>2026-04-25T12:14:06.012Z</time></trkpt><trkpt lat="45.892489809272746" lon="12.108247959061313"><ele>132.0</ele><time>2026-04-25T12:14:07.012Z</time></trkpt><trkpt lat="45.89255907818378" lon="12.108212022520519"><ele>132.0</ele><time>2026-04-25T12:14:08.014Z</time></trkpt><trkpt lat="45.89262927144158" lon="12.10817859603935"><ele>132.0</ele><time>2026-04-25T12:14:09.013Z</time></trkpt><trkpt lat="45.89269429922962" lon="12.10815277549122"><ele>132.0</ele><time>2026-04-25T12:14:10.013Z</time></trkpt><trkpt lat="45.8927596833587" lon="12.108131415464493"><ele>132.6</ele><time>2026-04-25T12:14:11.013Z</time></trkpt><trkpt lat="45.89281803381811" lon="12.108091677455892"><ele>133.2</ele><time>2026-04-25T12:14:12.013Z</time></trkpt><trkpt lat="45.89287766934296" lon="12.107934993741114"><ele>133.8</ele><time>2026-04-25T12:14:14.013Z</time></trkpt><trkpt lat="45.892869907027055" lon="12.107837380978152"><ele>134.4</ele><time>2026-04-25T12:14:15.013Z</time></trkpt><trkpt lat="45.892892191781286" lon="12.107705355459483"><ele>135.0</ele><time>2026-04-25T12:14:17.013Z</time></trkpt><trkpt lat="45.89298527206659" lon="12.10764354856148"><ele>135.0</ele><time>2026-04-25T12:14:19.014Z</time></trkpt><trkpt lat="45.89309668273845" lon="12.10763303081938"><ele>135.0</ele><time>2026-04-25T12:14:21.013Z</time></trkpt><trkpt lat="45.893157748580386" lon="12.107610712142325"><ele>135.0</ele><time>2026-04-25T12:14:22.013Z</time></trkpt><trkpt lat="45.893222829928824" lon="12.10758234557177"><ele>135.0</ele><time>2026-04-25T12:14:23.013Z</time></trkpt><trkpt lat="45.89328782849362" lon="12.107557916011555"><ele>135.0</ele><time>2026-04-25T12:14:24.013Z</time></trkpt><trkpt lat="45.89335235485547" lon="12.107534358975968"><ele>135.0</ele><time>2026-04-25T12:14:25.013Z</time></trkpt><trkpt lat="45.8934144095785" lon="12.107507721977413"><ele>135.0</ele><time>2026-04-25T12:14:26.013Z</time></trkpt><trkpt lat="45.893480616890606" lon="12.107487903289652"><ele>135.16666666666666</ele><time>2026-04-25T12:14:27.013Z</time></trkpt><trkpt lat="45.89354195931412" lon="12.107461578775029"><ele>135.33333333333334</ele><time>2026-04-25T12:14:28.013Z</time></trkpt><trkpt lat="45.89364713301912" lon="12.107378601409138"><ele>135.5</ele><time>2026-04-25T12:14:30.013Z</time></trkpt><trkpt lat="45.893758745505394" lon="12.107332034557535"><ele>135.66666666666669</ele><time>2026-04-25T12:14:32.013Z</time></trkpt><trkpt lat="45.89382987329207" lon="12.10734546537613"><ele>135.83333333333334</ele><time>2026-04-25T12:14:33.013Z</time></trkpt><trkpt lat="45.893894912272565" lon="12.10735561510409"><ele>136.0</ele><time>2026-04-25T12:14:34.013Z</time></trkpt><trkpt lat="45.89397250481223" lon="12.107375445508296"><ele>137.0</ele><time>2026-04-25T12:14:35.013Z</time></trkpt><trkpt lat="45.89404754664936" lon="12.10737469315693"><ele>138.0</ele><time>2026-04-25T12:14:36.013Z</time></trkpt><trkpt lat="45.894113317802784" lon="12.107370684075702"><ele>139.0</ele><time>2026-04-25T12:14:37.013Z</time></trkpt><trkpt lat="45.89423705484762" lon="12.107376088610629"><ele>140.0</ele><time>2026-04-25T12:14:39.013Z</time></trkpt><trkpt lat="45.89436473201744" lon="12.107395452546704"><ele>141.0</ele><time>2026-04-25T12:14:41.013Z</time></trkpt><trkpt lat="45.89442894760048" lon="12.107408409221488"><ele>140.6</ele><time>2026-04-25T12:14:42.013Z</time></trkpt><trkpt lat="45.894497210255686" lon="12.107433367892762"><ele>140.2</ele><time>2026-04-25T12:14:43.013Z</time></trkpt><trkpt lat="45.89456122696496" lon="12.107448069643686"><ele>139.8</ele><time>2026-04-25T12:14:44.013Z</time></trkpt><trkpt lat="45.89467448246645" lon="12.107471718124946"><ele>139.4</ele><time>2026-04-25T12:14:46.013Z</time></trkpt><trkpt lat="45.89478597220936" lon="12.107501371374566"><ele>139.0</ele><time>2026-04-25T12:14:48.013Z</time></trkpt><trkpt lat="45.89489864907015" lon="12.107505895402864"><ele>139.0</ele><time>2026-04-25T12:14:50.013Z</time></trkpt><trkpt lat="45.89501551760927" lon="12.107525980523414"><ele>139.0</ele><time>2026-04-25T12:14:52.013Z</time></trkpt><trkpt lat="45.895123308905234" lon="12.107536520695355"><ele>139.0</ele><time>2026-04-25T12:14:54.013Z</time></trkpt><trkpt lat="45.89522285525874" lon="12.107466182276092"><ele>139.0</ele><time>2026-04-25T12:14:56.013Z</time></trkpt><trkpt lat="45.8952516522958" lon="12.107300216148444"><ele>138.8</ele><time>2026-04-25T12:14:58.013Z</time></trkpt><trkpt lat="45.895218280198655" lon="12.107151418558555"><ele>138.60000000000002</ele><time>2026-04-25T12:15:00.013Z</time></trkpt><trkpt lat="45.89516412397155" lon="12.10701404773829"><ele>138.4</ele><time>2026-04-25T12:15:02.013Z</time></trkpt><trkpt lat="45.89509296980175" lon="12.106896474494974"><ele>138.20000000000002</ele><time>2026-04-25T12:15:04.013Z</time></trkpt><trkpt lat="45.89505347052076" lon="12.106764684037417"><ele>138.0</ele><time>2026-04-25T12:15:06.013Z</time></trkpt><trkpt lat="45.89507748360809" lon="12.106634043155571"><ele>138.20000000000002</ele><time>2026-04-25T12:15:08.013Z</time></trkpt><trkpt lat="45.89513419255869" lon="12.106564241828224"><ele>138.4</ele><time>2026-04-25T12:15:10.013Z</time></trkpt><trkpt lat="45.895223704695766" lon="12.106472337520014"><ele>138.60000000000002</ele><time>2026-04-25T12:15:12.013Z</time></trkpt><trkpt lat="45.895275334203596" lon="12.106337339017832"><ele>138.8</ele><time>2026-04-25T12:15:14.013Z</time></trkpt><trkpt lat="45.89532926217673" lon="12.106190838171369"><ele>139.0</ele><time>2026-04-25T12:15:16.013Z</time></trkpt><trkpt lat="45.895373998786155" lon="12.106119885525567"><ele>139.0</ele><time>2026-04-25T12:15:17.013Z</time></trkpt><trkpt lat="45.895458747126035" lon="12.106030584890295"><ele>139.0</ele><time>2026-04-25T12:15:19.013Z</time></trkpt><trkpt lat="45.8955759324244" lon="12.105969163651267"><ele>139.0</ele><time>2026-04-25T12:15:21.013Z</time></trkpt><trkpt lat="45.89564305897354" lon="12.105939316283042"><ele>139.0</ele><time>2026-04-25T12:15:22.013Z</time></trkpt><trkpt lat="45.89570364539989" lon="12.10590505599889"><ele>139.0</ele><time>2026-04-25T12:15:23.013Z</time></trkpt><trkpt lat="45.89576079252615" lon="12.105856799817962"><ele>139.0</ele><time>2026-04-25T12:15:24.013Z</time></trkpt><trkpt lat="45.89581690741384" lon="12.10580043512958"><ele>139.0</ele><time>2026-04-25T12:15:25.013Z</time></trkpt><trkpt lat="45.89592869162097" lon="12.105723498975808"><ele>139.0</ele><time>2026-04-25T12:15:27.013Z</time></trkpt><trkpt lat="45.89599597461555" lon="12.10569980015022"><ele>139.0</ele><time>2026-04-25T12:15:28.013Z</time></trkpt><trkpt lat="45.896061331527804" lon="12.105684076389544"><ele>139.0</ele><time>2026-04-25T12:15:29.013Z</time></trkpt><trkpt lat="45.89618257121249" lon="12.105671566406686"><ele>139.0</ele><time>2026-04-25T12:15:31.013Z</time></trkpt><trkpt lat="45.89624771687907" lon="12.105664694589384"><ele>139.0</ele><time>2026-04-25T12:15:32.013Z</time></trkpt><trkpt lat="45.89631077307145" lon="12.105654536602653"><ele>139.0</ele><time>2026-04-25T12:15:33.013Z</time></trkpt><trkpt lat="45.89637574169951" lon="12.10564305799162"><ele>139.0</ele><time>2026-04-25T12:15:34.013Z</time></trkpt><trkpt lat="45.8964927039931" lon="12.105624974207268"><ele>139.0</ele><time>2026-04-25T12:15:36.013Z</time></trkpt><trkpt lat="45.89661763279089" lon="12.105599149971711"><ele>139.0</ele><time>2026-04-25T12:15:38.013Z</time></trkpt><trkpt lat="45.896681473440395" lon="12.10558011422336"><ele>139.0</ele><time>2026-04-25T12:15:39.013Z</time></trkpt><trkpt lat="45.89679275819933" lon="12.105560876267411"><ele>140.25</ele><time>2026-04-25T12:15:41.013Z</time></trkpt><trkpt lat="45.89689727990849" lon="12.105493405835926"><ele>141.5</ele><time>2026-04-25T12:15:43.013Z</time></trkpt><trkpt lat="45.89697222432253" lon="12.105352684255193"><ele>142.75</ele><time>2026-04-25T12:15:45.013Z</time></trkpt><trkpt lat="45.89699162016647" lon="12.105180925338182"><ele>144.0</ele><time>2026-04-25T12:15:47.013Z</time></trkpt><trkpt lat="45.897004237657676" lon="12.105011226524734"><ele>144.0</ele><time>2026-04-25T12:15:49.013Z</time></trkpt><trkpt lat="45.897068258422856" lon="12.104867257122779"><ele>144.0</ele><time>2026-04-25T12:15:51.013Z</time></trkpt><trkpt lat="45.897130270271965" lon="12.104818424839358"><ele>144.0</ele><time>2026-04-25T12:15:52.013Z</time></trkpt><trkpt lat="45.89719237685792" lon="12.104785315540717"><ele>144.0</ele><time>2026-04-25T12:15:53.013Z</time></trkpt><trkpt lat="45.89726248278886" lon="12.104762682817585"><ele>144.0</ele><time>2026-04-25T12:15:54.013Z</time></trkpt><trkpt lat="45.89732809260803" lon="12.104742834438298"><ele>144.0</ele><time>2026-04-25T12:15:55.013Z</time></trkpt><trkpt lat="45.89739562127885" lon="12.104717206096126"><ele>144.0</ele><time>2026-04-25T12:15:56.013Z</time></trkpt><trkpt lat="45.897520288100935" lon="12.104646962480851"><ele>144.0</ele><time>2026-04-25T12:15:58.013Z</time></trkpt><trkpt lat="45.89758169883279" lon="12.104612976766932"><ele>144.0</ele><time>2026-04-25T12:15:59.013Z</time></trkpt><trkpt lat="45.89770635540478" lon="12.104572803496543"><ele>144.0</ele><time>2026-04-25T12:16:01.013Z</time></trkpt><trkpt lat="45.897822066428944" lon="12.104549880006193"><ele>144.0</ele><time>2026-04-25T12:16:03.013Z</time></trkpt><trkpt lat="45.89792259515714" lon="12.10450417348682"><ele>145.0</ele><time>2026-04-25T12:16:05.013Z</time></trkpt><trkpt lat="45.89800411142726" lon="12.104491055189113"><ele>146.0</ele><time>2026-04-25T12:16:07.013Z</time></trkpt><trkpt lat="45.898078258116314" lon="12.104464720454997"><ele>147.0</ele><time>2026-04-25T12:16:09.013Z</time></trkpt><trkpt lat="45.898173058604655" lon="12.104443729149661"><ele>148.0</ele><time>2026-04-25T12:16:11.013Z</time></trkpt><trkpt lat="45.8983217755553" lon="12.104435944980791"><ele>149.0</ele><time>2026-04-25T12:16:14.014Z</time></trkpt><trkpt lat="45.898404842786945" lon="12.104428972051583"><ele>149.5</ele><time>2026-04-25T12:16:16.014Z</time></trkpt><trkpt lat="45.89849969685984" lon="12.104465573250943"><ele>150.0</ele><time>2026-04-25T12:16:19.014Z</time></trkpt><trkpt lat="45.898599515218486" lon="12.104468757927881"><ele>150.5</ele><time>2026-04-25T12:16:22.014Z</time></trkpt><trkpt lat="45.89866054087708" lon="12.104411059459775"><ele>151.0</ele><time>2026-04-25T12:16:24.014Z</time></trkpt><trkpt lat="45.898726155973144" lon="12.104389246377044"><ele>151.5</ele><time>2026-04-25T12:16:27.014Z</time></trkpt><trkpt lat="45.89880236008206" lon="12.10437943362035"><ele>152.0</ele><time>2026-04-25T12:16:29.014Z</time></trkpt><trkpt lat="45.89891591849541" lon="12.104359004094269"><ele>152.0</ele><time>2026-04-25T12:16:31.014Z</time></trkpt><trkpt lat="45.899020638816836" lon="12.104314891850711"><ele>152.0</ele><time>2026-04-25T12:16:33.014Z</time></trkpt><trkpt lat="45.89912936331957" lon="12.104294882071505"><ele>152.0</ele><time>2026-04-25T12:16:35.014Z</time></trkpt><trkpt lat="45.89919190080751" lon="12.104282140862543"><ele>152.0</ele><time>2026-04-25T12:16:36.014Z</time></trkpt><trkpt lat="45.89926790092565" lon="12.104259481620021"><ele>152.0</ele><time>2026-04-25T12:16:37.014Z</time></trkpt><trkpt lat="45.89938177367756" lon="12.104241346040055"><ele>152.2</ele><time>2026-04-25T12:16:39.014Z</time></trkpt><trkpt lat="45.899446274152616" lon="12.104235211956023"><ele>152.39999999999998</ele><time>2026-04-25T12:16:40.014Z</time></trkpt><trkpt lat="45.89951291669997" lon="12.104226004501177"><ele>152.60000000000002</ele><time>2026-04-25T12:16:41.014Z</time></trkpt><trkpt lat="45.8996186080983" lon="12.104186224904275"><ele>152.8</ele><time>2026-04-25T12:16:43.014Z</time></trkpt><trkpt lat="45.89973986618932" lon="12.10417120221677"><ele>153.0</ele><time>2026-04-25T12:16:45.014Z</time></trkpt><trkpt lat="45.899844693505294" lon="12.104152595689886"><ele>153.0</ele><time>2026-04-25T12:16:47.014Z</time></trkpt><trkpt lat="45.89992306735395" lon="12.104122762726105"><ele>153.0</ele><time>2026-04-25T12:16:49.014Z</time></trkpt><trkpt lat="45.899964369015414" lon="12.10402586688861"><ele>153.0</ele><time>2026-04-25T12:16:51.014Z</time></trkpt><trkpt lat="45.89998782380066" lon="12.103906457807593"><ele>153.0</ele><time>2026-04-25T12:16:53.014Z</time></trkpt><trkpt lat="45.90002409866433" lon="12.103803825120591"><ele>153.0</ele><time>2026-04-25T12:16:55.014Z</time></trkpt><trkpt lat="45.900069042171395" lon="12.103700716934314"><ele>153.0</ele><time>2026-04-25T12:16:57.014Z</time></trkpt><trkpt lat="45.90013839146174" lon="12.103604755362577"><ele>154.0</ele><time>2026-04-25T12:16:59.014Z</time></trkpt><trkpt lat="45.90021915239528" lon="12.103527657706337"><ele>155.0</ele><time>2026-04-25T12:17:01.014Z</time></trkpt><trkpt lat="45.90031303205191" lon="12.103469353845329"><ele>156.0</ele><time>2026-04-25T12:17:03.014Z</time></trkpt><trkpt lat="45.90040467990739" lon="12.103406177996408"><ele>157.0</ele><time>2026-04-25T12:17:05.014Z</time></trkpt><trkpt lat="45.90048686735405" lon="12.103338217552189"><ele>158.0</ele><time>2026-04-25T12:17:07.014Z</time></trkpt><trkpt lat="45.90057411204479" lon="12.103276210517402"><ele>158.4</ele><time>2026-04-25T12:17:09.014Z</time></trkpt><trkpt lat="45.90065602615996" lon="12.103210120922265"><ele>158.8</ele><time>2026-04-25T12:17:11.014Z</time></trkpt><trkpt lat="45.90073140836198" lon="12.10313891482754"><ele>159.2</ele><time>2026-04-25T12:17:13.014Z</time></trkpt><trkpt lat="45.900814043943136" lon="12.103080535722604"><ele>159.6</ele><time>2026-04-25T12:17:15.014Z</time></trkpt><trkpt lat="45.90091358829492" lon="12.103027709856836"><ele>160.0</ele><time>2026-04-25T12:17:17.014Z</time></trkpt><trkpt lat="45.90099795462263" lon="12.102976938949896"><ele>160.8</ele><time>2026-04-25T12:17:19.014Z</time></trkpt><trkpt lat="45.901078153268706" lon="12.102924298056012"><ele>161.6</ele><time>2026-04-25T12:17:21.014Z</time></trkpt><trkpt lat="45.901152232021566" lon="12.102858413191893"><ele>162.39999999999998</ele><time>2026-04-25T12:17:23.014Z</time></trkpt><trkpt lat="45.90124311301592" lon="12.102793029039864"><ele>163.2</ele><time>2026-04-25T12:17:25.014Z</time></trkpt><trkpt lat="45.901315849912706" lon="12.102707428078189"><ele>164.0</ele><time>2026-04-25T12:17:27.014Z</time></trkpt><trkpt lat="45.901305441159586" lon="12.102591870985773"><ele>164.0</ele><time>2026-04-25T12:17:29.014Z</time></trkpt><trkpt lat="45.901245360883415" lon="12.102525779123013"><ele>164.0</ele><time>2026-04-25T12:17:30.014Z</time></trkpt><trkpt lat="45.90117772166097" lon="12.10246859600911"><ele>164.0</ele><time>2026-04-25T12:17:31.014Z</time></trkpt><trkpt lat="45.90111616666736" lon="12.102443015777357"><ele>164.0</ele><time>2026-04-25T12:17:32.014Z</time></trkpt><trkpt lat="45.90105006041122" lon="12.102410442127493"><ele>164.0</ele><time>2026-04-25T12:17:33.014Z</time></trkpt><trkpt lat="45.90094348485425" lon="12.102334324445625"><ele>164.0</ele><time>2026-04-25T12:17:35.014Z</time></trkpt><trkpt lat="45.900886564068465" lon="12.10229173517434"><ele>163.5</ele><time>2026-04-25T12:17:36.014Z</time></trkpt><trkpt lat="45.90080151886336" lon="12.102236794826352"><ele>163.0</ele><time>2026-04-25T12:17:38.014Z</time></trkpt><trkpt lat="45.90070090521467" lon="12.102178182284783"><ele>162.5</ele><time>2026-04-25T12:17:40.014Z</time></trkpt><trkpt lat="45.90057145528278" lon="12.102140540112728"><ele>162.0</ele><time>2026-04-25T12:17:42.014Z</time></trkpt><trkpt lat="45.90043944691492" lon="12.102055114271225"><ele>162.0</ele><time>2026-04-25T12:17:44.014Z</time></trkpt><trkpt lat="45.90034974610485" lon="12.101952335576817"><ele>162.0</ele><time>2026-04-25T12:17:46.014Z</time></trkpt><trkpt lat="45.9002423087564" lon="12.101848033703241"><ele>162.0</ele><time>2026-04-25T12:17:48.014Z</time></trkpt><trkpt lat="45.90018101034374" lon="12.10180649777416"><ele>162.0</ele><time>2026-04-25T12:17:49.014Z</time></trkpt><trkpt lat="45.90012077721784" lon="12.101748613628848"><ele>162.0</ele><time>2026-04-25T12:17:50.014Z</time></trkpt><trkpt lat="45.90006532616932" lon="12.10168779804618"><ele>161.33333333333334</ele><time>2026-04-25T12:17:51.014Z</time></trkpt><trkpt lat="45.90000925770176" lon="12.101607905866347"><ele>160.66666666666666</ele><time>2026-04-25T12:17:52.014Z</time></trkpt><trkpt lat="45.899981162198515" lon="12.101509965357103"><ele>160.0</ele><time>2026-04-25T12:17:53.014Z</time></trkpt><trkpt lat="45.899952292338774" lon="12.10141698715916"><ele>159.33333333333331</ele><time>2026-04-25T12:17:54.014Z</time></trkpt><trkpt lat="45.89992871194153" lon="12.101308070118241"><ele>158.66666666666666</ele><time>2026-04-25T12:17:55.014Z</time></trkpt><trkpt lat="45.899914496322" lon="12.101176432233805"><ele>158.0</ele><time>2026-04-25T12:17:56.014Z</time></trkpt><trkpt lat="45.89988154006627" lon="12.101063678209467"><ele>157.83333333333331</ele><time>2026-04-25T12:17:57.014Z</time></trkpt><trkpt lat="45.89985124500095" lon="12.100966019373917"><ele>157.66666666666666</ele><time>2026-04-25T12:17:58.014Z</time></trkpt><trkpt lat="45.89981037036447" lon="12.100856697212041"><ele>157.5</ele><time>2026-04-25T12:17:59.014Z</time></trkpt><trkpt lat="45.899771079361756" lon="12.10075869204238"><ele>157.33333333333334</ele><time>2026-04-25T12:18:00.014Z</time></trkpt><trkpt lat="45.8997258059388" lon="12.100659367944447"><ele>157.16666666666669</ele><time>2026-04-25T12:18:01.014Z</time></trkpt><trkpt lat="45.899691914076016" lon="12.10057677734146"><ele>157.0</ele><time>2026-04-25T12:18:02.014Z</time></trkpt><trkpt lat="45.89965846164885" lon="12.100472604281967"><ele>157.5</ele><time>2026-04-25T12:18:03.014Z</time></trkpt><trkpt lat="45.89963355864791" lon="12.100387336987975"><ele>158.0</ele><time>2026-04-25T12:18:04.014Z</time></trkpt><trkpt lat="45.89960647274717" lon="12.100294194636195"><ele>158.5</ele><time>2026-04-25T12:18:05.014Z</time></trkpt><trkpt lat="45.89957318483934" lon="12.100186817430524"><ele>159.0</ele><time>2026-04-25T12:18:06.014Z</time></trkpt><trkpt lat="45.899545176539185" lon="12.100104781295753"><ele>159.5</ele><time>2026-04-25T12:18:07.014Z</time></trkpt><trkpt lat="45.89952438876186" lon="12.099922076140036"><ele>160.0</ele><time>2026-04-25T12:18:09.014Z</time></trkpt><trkpt lat="45.89950616334946" lon="12.099817766013299"><ele>160.4</ele><time>2026-04-25T12:18:10.014Z</time></trkpt><trkpt lat="45.89949195376266" lon="12.099724804294228"><ele>160.8</ele><time>2026-04-25T12:18:11.014Z</time></trkpt><trkpt lat="45.89947332913147" lon="12.099636282820441"><ele>161.2</ele><time>2026-04-25T12:18:12.014Z</time></trkpt><trkpt lat="45.89944967856271" lon="12.099446686334954"><ele>161.6</ele><time>2026-04-25T12:18:14.014Z</time></trkpt><trkpt lat="45.89941101076346" lon="12.099281100185928"><ele>162.0</ele><time>2026-04-25T12:18:16.014Z</time></trkpt><trkpt lat="45.899371916564995" lon="12.09912846433429"><ele>161.5</ele><time>2026-04-25T12:18:18.014Z</time></trkpt><trkpt lat="45.89931160814248" lon="12.098974016788123"><ele>161.0</ele><time>2026-04-25T12:18:20.015Z</time></trkpt><trkpt lat="45.89923763792828" lon="12.098861260295797"><ele>160.5</ele><time>2026-04-25T12:18:22.015Z</time></trkpt><trkpt lat="45.8991580024129" lon="12.098734195354908"><ele>160.0</ele><time>2026-04-25T12:18:24.015Z</time></trkpt><trkpt lat="45.899073300024284" lon="12.098604391927603"><ele>160.0</ele><time>2026-04-25T12:18:26.015Z</time></trkpt><trkpt lat="45.899027850915665" lon="12.098538210644055"><ele>160.0</ele><time>2026-04-25T12:18:27.015Z</time></trkpt><trkpt lat="45.89898583956103" lon="12.098458969269494"><ele>160.0</ele><time>2026-04-25T12:18:28.015Z</time></trkpt><trkpt lat="45.89893970758926" lon="12.098378061150221"><ele>160.0</ele><time>2026-04-25T12:18:29.016Z</time></trkpt><trkpt lat="45.89891844018147" lon="12.098290147428203"><ele>160.0</ele><time>2026-04-25T12:18:30.015Z</time></trkpt><trkpt lat="45.89888546768664" lon="12.098196080920456"><ele>160.0</ele><time>2026-04-25T12:18:31.015Z</time></trkpt><trkpt lat="45.89884178310106" lon="12.098103474847841"><ele>160.0</ele><time>2026-04-25T12:18:32.016Z</time></trkpt><trkpt lat="45.898792944012456" lon="12.098018030125834"><ele>160.16666666666669</ele><time>2026-04-25T12:18:33.016Z</time></trkpt><trkpt lat="45.898748629761265" lon="12.097929951857296"><ele>160.33333333333334</ele><time>2026-04-25T12:18:34.016Z</time></trkpt><trkpt lat="45.898698532248396" lon="12.097846260469069"><ele>160.5</ele><time>2026-04-25T12:18:35.016Z</time></trkpt><trkpt lat="45.89864668789396" lon="12.097755508908476"><ele>160.66666666666666</ele><time>2026-04-25T12:18:36.016Z</time></trkpt><trkpt lat="45.89858695645017" lon="12.097670623016127"><ele>160.83333333333331</ele><time>2026-04-25T12:18:37.016Z</time></trkpt><trkpt lat="45.898538066282946" lon="12.097581512832615"><ele>161.0</ele><time>2026-04-25T12:18:38.016Z</time></trkpt><trkpt lat="45.898495167277446" lon="12.097486911652265"><ele>161.16666666666666</ele><time>2026-04-25T12:18:39.016Z</time></trkpt><trkpt lat="45.89845214966347" lon="12.09738702353744"><ele>161.33333333333331</ele><time>2026-04-25T12:18:40.016Z</time></trkpt><trkpt lat="45.89841324428411" lon="12.097288663035247"><ele>161.5</ele><time>2026-04-25T12:18:41.016Z</time></trkpt><trkpt lat="45.89836861617456" lon="12.097205101169806"><ele>161.66666666666666</ele><time>2026-04-25T12:18:42.016Z</time></trkpt><trkpt lat="45.898328717938526" lon="12.097130539838522"><ele>161.83333333333334</ele><time>2026-04-25T12:18:43.016Z</time></trkpt><trkpt lat="45.89826789104697" lon="12.09698322860655"><ele>162.0</ele><time>2026-04-25T12:18:45.016Z</time></trkpt><trkpt lat="45.89820516554658" lon="12.096850670323786"><ele>162.0</ele><time>2026-04-25T12:18:47.016Z</time></trkpt><trkpt lat="45.89817360285742" lon="12.096716898594188"><ele>162.0</ele><time>2026-04-25T12:18:49.016Z</time></trkpt><trkpt lat="45.898194976044564" lon="12.096625822876005"><ele>162.0</ele><time>2026-04-25T12:18:52.016Z</time></trkpt><trkpt lat="45.89824101933463" lon="12.096524379020465"><ele>162.0</ele><time>2026-04-25T12:18:55.016Z</time></trkpt><trkpt lat="45.89824536330489" lon="12.09641376961241"><ele>162.0</ele><time>2026-04-25T12:18:58.016Z</time></trkpt><trkpt lat="45.8982701314059" lon="12.09629481440639"><ele>162.0</ele><time>2026-04-25T12:19:01.016Z</time></trkpt><trkpt lat="45.898303241873045" lon="12.096185577132484"><ele>163.0</ele><time>2026-04-25T12:19:04.016Z</time></trkpt><trkpt lat="45.898337936250094" lon="12.096096084032705"><ele>164.0</ele><time>2026-04-25T12:19:07.016Z</time></trkpt><trkpt lat="45.898365689827116" lon="12.095993750770347"><ele>165.0</ele><time>2026-04-25T12:19:10.016Z</time></trkpt><trkpt lat="45.898358115360004" lon="12.095859622092542"><ele>166.0</ele><time>2026-04-25T12:19:13.016Z</time></trkpt><trkpt lat="45.89844032258428" lon="12.095858578565085"><ele>167.0</ele><time>2026-04-25T12:19:18.016Z</time></trkpt><trkpt lat="45.89849774931002" lon="12.095787035261573"><ele>168.0</ele><time>2026-04-25T12:19:23.016Z</time></trkpt><trkpt lat="45.898563018774645" lon="12.095742079783683"><ele>171.71428571428572</ele><time>2026-04-25T12:19:27.016Z</time></trkpt><trkpt lat="45.89862741684326" lon="12.095726380787774"><ele>175.42857142857144</ele><time>2026-04-25T12:19:31.016Z</time></trkpt><trkpt lat="45.89869060452296" lon="12.095681078529672"><ele>179.14285714285714</ele><time>2026-04-25T12:19:34.016Z</time></trkpt><trkpt lat="45.898750749349915" lon="12.095630915094581"><ele>182.85714285714286</ele><time>2026-04-25T12:19:38.016Z</time></trkpt><trkpt lat="45.898815154943634" lon="12.095587524930945"><ele>186.57142857142858</ele><time>2026-04-25T12:19:42.016Z</time></trkpt><trkpt lat="45.898877647434006" lon="12.095566242175467"><ele>190.28571428571428</ele><time>2026-04-25T12:19:46.016Z</time></trkpt><trkpt lat="45.898940654532694" lon="12.095541433084696"><ele>194.0</ele><time>2026-04-25T12:19:51.016Z</time></trkpt><trkpt lat="45.89901036830447" lon="12.095498807135822"><ele>194.0</ele><time>2026-04-25T12:19:56.016Z</time></trkpt><trkpt lat="45.89907373292479" lon="12.095464621199007"><ele>194.0</ele><time>2026-04-25T12:19:59.016Z</time></trkpt><trkpt lat="45.89914421671314" lon="12.095435972366033"><ele>194.0</ele><time>2026-04-25T12:20:05.016Z</time></trkpt><trkpt lat="45.899204454765155" lon="12.095405112191624"><ele>194.0</ele><time>2026-04-25T12:20:08.016Z</time></trkpt><trkpt lat="45.899268623837386" lon="12.0953788808848"><ele>194.0</ele><time>2026-04-25T12:20:12.016Z</time></trkpt><trkpt lat="45.899337967879156" lon="12.095395803288136"><ele>194.0</ele><time>2026-04-25T12:20:18.016Z</time></trkpt><trkpt lat="45.89940549322598" lon="12.095364666231543"><ele>194.0</ele><time>2026-04-25T12:20:23.016Z</time></trkpt><trkpt lat="45.89941164879132" lon="12.09526127431811"><ele>194.0</ele><time>2026-04-25T12:20:29.016Z</time></trkpt><trkpt lat="45.89934942802155" lon="12.095221092956313"><ele>194.0</ele><time>2026-04-25T12:20:37.017Z</time></trkpt><trkpt lat="45.89930444257223" lon="12.095149992486567"><ele>194.0</ele><time>2026-04-25T12:20:44.016Z</time></trkpt><trkpt lat="45.89923921907971" lon="12.09510531551319"><ele>194.0</ele><time>2026-04-25T12:20:50.016Z</time></trkpt><trkpt lat="45.89919220476329" lon="12.0950308959932"><ele>194.0</ele><time>2026-04-25T12:20:56.016Z</time></trkpt><trkpt lat="45.89913430799081" lon="12.094981468663061"><ele>194.0</ele><time>2026-04-25T12:21:02.016Z</time></trkpt><trkpt lat="45.89907620881084" lon="12.094920876753081"><ele>194.0</ele><time>2026-04-25T12:21:08.016Z</time></trkpt><trkpt lat="45.89900926680325" lon="12.094872755469803"><ele>197.14285714285714</ele><time>2026-04-25T12:21:13.016Z</time></trkpt><trkpt lat="45.898947680491254" lon="12.094791942519455"><ele>200.2857142857143</ele><time>2026-04-25T12:21:19.016Z</time></trkpt><trkpt lat="45.898909078864" lon="12.094710437133784"><ele>203.42857142857144</ele><time>2026-04-25T12:21:25.016Z</time></trkpt><trkpt lat="45.898862605503204" lon="12.09463939952737"><ele>206.57142857142856</ele><time>2026-04-25T12:21:32.016Z</time></trkpt><trkpt lat="45.89881566729178" lon="12.094555956252668"><ele>209.71428571428572</ele><time>2026-04-25T12:21:37.016Z</time></trkpt><trkpt lat="45.89877654067732" lon="12.094466975882312"><ele>212.85714285714286</ele><time>2026-04-25T12:21:43.016Z</time></trkpt><trkpt lat="45.89873627326807" lon="12.09437915959679"><ele>216.0</ele><time>2026-04-25T12:21:49.016Z</time></trkpt><trkpt lat="45.898689641025896" lon="12.094300708116085"><ele>216.0</ele><time>2026-04-25T12:21:55.016Z</time></trkpt><trkpt lat="45.898678754738334" lon="12.094205334306558"><ele>216.0</ele><time>2026-04-25T12:22:01.016Z</time></trkpt><trkpt lat="45.89864798239897" lon="12.094125557367903"><ele>216.0</ele><time>2026-04-25T12:22:06.016Z</time></trkpt><trkpt lat="45.89860518803665" lon="12.094045567677712"><ele>216.0</ele><time>2026-04-25T12:22:12.016Z</time></trkpt><trkpt lat="45.89857035790537" lon="12.09396179027746"><ele>216.0</ele><time>2026-04-25T12:22:20.016Z</time></trkpt><trkpt lat="45.89852356413526" lon="12.093895677764383"><ele>216.0</ele><time>2026-04-25T12:22:25.017Z</time></trkpt><trkpt lat="45.89848232767645" lon="12.093805758586125"><ele>216.0</ele><time>2026-04-25T12:22:31.017Z</time></trkpt><trkpt lat="45.89842547091012" lon="12.093743035382603"><ele>215.85714285714286</ele><time>2026-04-25T12:22:37.017Z</time></trkpt><trkpt lat="45.89839558606407" lon="12.09365256114622"><ele>215.71428571428572</ele><time>2026-04-25T12:22:42.017Z</time></trkpt><trkpt lat="45.89835768684763" lon="12.093564095578948"><ele>215.57142857142856</ele><time>2026-04-25T12:22:47.018Z</time></trkpt><trkpt lat="45.898345926228615" lon="12.093474902331593"><ele>215.42857142857144</ele><time>2026-04-25T12:22:51.018Z</time></trkpt><trkpt lat="45.898321643499656" lon="12.093375368295092"><ele>215.2857142857143</ele><time>2026-04-25T12:22:56.018Z</time></trkpt><trkpt lat="45.898296056309626" lon="12.093276680624344"><ele>215.14285714285714</ele><time>2026-04-25T12:23:00.018Z</time></trkpt><trkpt lat="45.89828795988336" lon="12.09314906504084"><ele>215.0</ele><time>2026-04-25T12:23:04.018Z</time></trkpt><trkpt lat="45.89825366429571" lon="12.09302463498578"><ele>215.00000000000003</ele><time>2026-04-25T12:23:07.018Z</time></trkpt><trkpt lat="45.898237081087025" lon="12.092932841577184"><ele>215.0</ele><time>2026-04-25T12:23:08.018Z</time></trkpt><trkpt lat="45.89821875851065" lon="12.092809804322176"><ele>215.0</ele><time>2026-04-25T12:23:09.018Z</time></trkpt><trkpt lat="45.89823398956985" lon="12.09268244755435"><ele>215.0</ele><time>2026-04-25T12:23:10.018Z</time></trkpt><trkpt lat="45.8982860636869" lon="12.092565822071323"><ele>215.00000000000003</ele><time>2026-04-25T12:23:11.018Z</time></trkpt><trkpt lat="45.8983410015949" lon="12.092459900999694"><ele>215.0</ele><time>2026-04-25T12:23:12.018Z</time></trkpt><trkpt lat="45.89839198860009" lon="12.092343191532285"><ele>220.0</ele><time>2026-04-25T12:23:13.018Z</time></trkpt><trkpt lat="45.89843594760421" lon="12.09221328679758"><ele>225.0</ele><time>2026-04-25T12:23:14.018Z</time></trkpt><trkpt lat="45.89845997633547" lon="12.09206128071966"><ele>230.0</ele><time>2026-04-25T12:23:15.018Z</time></trkpt><trkpt lat="45.89846253210427" lon="12.09189116381996"><ele>235.0</ele><time>2026-04-25T12:23:16.018Z</time></trkpt><trkpt lat="45.89845251390386" lon="12.091714447829709"><ele>234.0</ele><time>2026-04-25T12:23:17.018Z</time></trkpt><trkpt lat="45.89842147413261" lon="12.091504158024163"><ele>233.0</ele><time>2026-04-25T12:23:18.018Z</time></trkpt><trkpt lat="45.89841690162107" lon="12.091328586389531"><ele>232.0</ele><time>2026-04-25T12:23:19.018Z</time></trkpt><trkpt lat="45.89840515717514" lon="12.091145262607073"><ele>231.0</ele><time>2026-04-25T12:23:20.018Z</time></trkpt><trkpt lat="45.898380767104214" lon="12.09095402939811"><ele>225.75</ele><time>2026-04-25T12:23:21.018Z</time></trkpt><trkpt lat="45.89833949588191" lon="12.090771409124548"><ele>220.5</ele><time>2026-04-25T12:23:22.018Z</time></trkpt><trkpt lat="45.898277043240405" lon="12.090611908154768"><ele>215.25</ele><time>2026-04-25T12:23:23.018Z</time></trkpt><trkpt lat="45.89819325150098" lon="12.09048836910356"><ele>210.0</ele><time>2026-04-25T12:23:24.018Z</time></trkpt><trkpt lat="45.89811174608315" lon="12.090390767700212"><ele>210.0</ele><time>2026-04-25T12:23:25.018Z</time></trkpt><trkpt lat="45.898043678884086" lon="12.090297862734312"><ele>210.0</ele><time>2026-04-25T12:23:26.018Z</time></trkpt><trkpt lat="45.89798239709571" lon="12.090197843743473"><ele>210.0</ele><time>2026-04-25T12:23:27.018Z</time></trkpt><trkpt lat="45.89792069883756" lon="12.090091824385148"><ele>210.0</ele><time>2026-04-25T12:23:28.018Z</time></trkpt><trkpt lat="45.897852613959735" lon="12.08999123287919"><ele>210.0</ele><time>2026-04-25T12:23:29.018Z</time></trkpt><trkpt lat="45.89778980257093" lon="12.089892926996049"><ele>209.66666666666666</ele><time>2026-04-25T12:23:30.018Z</time></trkpt><trkpt lat="45.897749687339065" lon="12.089814912398207"><ele>209.33333333333331</ele><time>2026-04-25T12:23:31.018Z</time></trkpt><trkpt lat="45.89772667218539" lon="12.089649046658778"><ele>209.0</ele><time>2026-04-25T12:23:33.018Z</time></trkpt><trkpt lat="45.897743035639664" lon="12.089553750341041"><ele>208.66666666666666</ele><time>2026-04-25T12:23:34.018Z</time></trkpt><trkpt lat="45.89777682457158" lon="12.089467315553184"><ele>208.33333333333331</ele><time>2026-04-25T12:23:35.018Z</time></trkpt><trkpt lat="45.89781905678876" lon="12.089382773362837"><ele>208.0</ele><time>2026-04-25T12:23:36.018Z</time></trkpt><trkpt lat="45.89785427651655" lon="12.089304775969044"><ele>208.0</ele><time>2026-04-25T12:23:37.018Z</time></trkpt><trkpt lat="45.89788495978636" lon="12.089129302818906"><ele>208.0</ele><time>2026-04-25T12:23:39.018Z</time></trkpt><trkpt lat="45.89787936311418" lon="12.089001096055874"><ele>208.0</ele><time>2026-04-25T12:23:40.018Z</time></trkpt><trkpt lat="45.897857954080266" lon="12.088858859505493"><ele>208.0</ele><time>2026-04-25T12:23:41.018Z</time></trkpt><trkpt lat="45.89784569423874" lon="12.088718823799462"><ele>208.0</ele><time>2026-04-25T12:23:42.018Z</time></trkpt><trkpt lat="45.89784570815817" lon="12.08858853275312"><ele>206.0</ele><time>2026-04-25T12:23:43.018Z</time></trkpt><trkpt lat="45.897855205052835" lon="12.088470931013864"><ele>204.0</ele><time>2026-04-25T12:23:44.018Z</time></trkpt><trkpt lat="45.89785949682065" lon="12.088377343873043"><ele>202.0</ele><time>2026-04-25T12:23:45.018Z</time></trkpt><trkpt lat="45.89783945409855" lon="12.08821504955058"><ele>200.0</ele><time>2026-04-25T12:23:47.018Z</time></trkpt><trkpt lat="45.897722125440026" lon="12.088117900528662"><ele>198.0</ele><time>2026-04-25T12:23:49.018Z</time></trkpt><trkpt lat="45.89764460265737" lon="12.088064145105552"><ele>193.33333333333334</ele><time>2026-04-25T12:23:50.018Z</time></trkpt><trkpt lat="45.89757438647098" lon="12.087993099115833"><ele>188.66666666666666</ele><time>2026-04-25T12:23:51.018Z</time></trkpt><trkpt lat="45.89751261654777" lon="12.087918185640651"><ele>184.0</ele><time>2026-04-25T12:23:52.018Z</time></trkpt><trkpt lat="45.89744777664536" lon="12.087846168047037"><ele>179.33333333333331</ele><time>2026-04-25T12:23:53.018Z</time></trkpt><trkpt lat="45.89737844677362" lon="12.087778759928218"><ele>174.66666666666666</ele><time>2026-04-25T12:23:54.018Z</time></trkpt><trkpt lat="45.89732702559781" lon="12.087683624533119"><ele>170.0</ele><time>2026-04-25T12:23:56.018Z</time></trkpt><trkpt lat="45.8973811221135" lon="12.087617319165819"><ele>170.0</ele><time>2026-04-25T12:24:00.018Z</time></trkpt><trkpt lat="45.89741694304395" lon="12.087501116979837"><ele>170.0</ele><time>2026-04-25T12:24:03.018Z</time></trkpt><trkpt lat="45.897444478851966" lon="12.087416398413824"><ele>170.0</ele><time>2026-04-25T12:24:05.018Z</time></trkpt><trkpt lat="45.897470362795104" lon="12.087319807191175"><ele>170.0</ele><time>2026-04-25T12:24:07.018Z</time></trkpt><trkpt lat="45.89750660770385" lon="12.087217951348519"><ele>170.0</ele><time>2026-04-25T12:24:09.018Z</time></trkpt><trkpt lat="45.89754468197652" lon="12.087091564242906"><ele>170.0</ele><time>2026-04-25T12:24:11.018Z</time></trkpt><trkpt lat="45.897592498141016" lon="12.086940446514594"><ele>171.0</ele><time>2026-04-25T12:24:13.018Z</time></trkpt><trkpt lat="45.8976344368593" lon="12.08677319281982"><ele>172.0</ele><time>2026-04-25T12:24:15.018Z</time></trkpt><trkpt lat="45.89768198285591" lon="12.086626440523862"><ele>173.0</ele><time>2026-04-25T12:24:17.018Z</time></trkpt><trkpt lat="45.897717021110914" lon="12.086461711910339"><ele>174.0</ele><time>2026-04-25T12:24:19.018Z</time></trkpt><trkpt lat="45.89772487023701" lon="12.086367208218052"><ele>175.0</ele><time>2026-04-25T12:24:20.018Z</time></trkpt><trkpt lat="45.89774184583998" lon="12.086204916036813"><ele>175.0</ele><time>2026-04-25T12:24:22.018Z</time></trkpt><trkpt lat="45.89774081124304" lon="12.086110288287758"><ele>175.0</ele><time>2026-04-25T12:24:23.018Z</time></trkpt><trkpt lat="45.897739832850476" lon="12.086007640785466"><ele>175.0</ele><time>2026-04-25T12:24:24.018Z</time></trkpt><trkpt lat="45.89775998798705" lon="12.085834686560307"><ele>175.0</ele><time>2026-04-25T12:24:26.018Z</time></trkpt><trkpt lat="45.89777747872979" lon="12.085659413925729"><ele>175.0</ele><time>2026-04-25T12:24:28.018Z</time></trkpt><trkpt lat="45.89779884335017" lon="12.085570801355168"><ele>175.0</ele><time>2026-04-25T12:24:29.018Z</time></trkpt><trkpt lat="45.89782067270345" lon="12.085436382244689"><ele>174.16666666666669</ele><time>2026-04-25T12:24:31.018Z</time></trkpt><trkpt lat="45.89786163428367" lon="12.085316516630192"><ele>173.33333333333334</ele><time>2026-04-25T12:24:33.018Z</time></trkpt><trkpt lat="45.897901752449755" lon="12.085200100505299"><ele>172.5</ele><time>2026-04-25T12:24:35.018Z</time></trkpt><trkpt lat="45.897914403770216" lon="12.085107789874575"><ele>171.66666666666666</ele><time>2026-04-25T12:24:37.018Z</time></trkpt><trkpt lat="45.89785390080238" lon="12.085026819601646"><ele>170.83333333333331</ele><time>2026-04-25T12:24:40.019Z</time></trkpt><trkpt lat="45.89775264844756" lon="12.085051212742348"><ele>170.0</ele><time>2026-04-25T12:24:42.019Z</time></trkpt><trkpt lat="45.89768817161404" lon="12.085051426998989"><ele>170.0</ele><time>2026-04-25T12:24:43.019Z</time></trkpt><trkpt lat="45.89762393505196" lon="12.08505122928796"><ele>170.0</ele><time>2026-04-25T12:24:44.019Z</time></trkpt><trkpt lat="45.897560377585414" lon="12.085053570703746"><ele>170.0</ele><time>2026-04-25T12:24:45.019Z</time></trkpt><trkpt lat="45.89748641363412" lon="12.085054850469234"><ele>170.0</ele><time>2026-04-25T12:24:46.019Z</time></trkpt><trkpt lat="45.897421910814735" lon="12.085059237318664"><ele>170.0</ele><time>2026-04-25T12:24:47.019Z</time></trkpt><trkpt lat="45.89735268044932" lon="12.085058802141072"><ele>170.0</ele><time>2026-04-25T12:24:48.019Z</time></trkpt><trkpt lat="45.897277667743666" lon="12.08505544744072"><ele>170.0</ele><time>2026-04-25T12:24:49.019Z</time></trkpt><trkpt lat="45.89720711696229" lon="12.085060516382313"><ele>169.42857142857144</ele><time>2026-04-25T12:24:50.019Z</time></trkpt><trkpt lat="45.89713450461613" lon="12.08507181408087"><ele>168.85714285714283</ele><time>2026-04-25T12:24:51.019Z</time></trkpt><trkpt lat="45.897069845940536" lon="12.085073701134526"><ele>168.28571428571428</ele><time>2026-04-25T12:24:52.019Z</time></trkpt><trkpt lat="45.89700116793506" lon="12.085075667765892"><ele>167.71428571428572</ele><time>2026-04-25T12:24:53.019Z</time></trkpt><trkpt lat="45.896936815710845" lon="12.085075606877387"><ele>167.14285714285717</ele><time>2026-04-25T12:24:54.019Z</time></trkpt><trkpt lat="45.896855869479346" lon="12.085077053351144"><ele>166.57142857142856</ele><time>2026-04-25T12:24:55.019Z</time></trkpt><trkpt lat="45.89678377413828" lon="12.085082884914254"><ele>166.0</ele><time>2026-04-25T12:24:56.019Z</time></trkpt><trkpt lat="45.89671209072391" lon="12.085083855191657"><ele>165.7142857142857</ele><time>2026-04-25T12:24:57.019Z</time></trkpt><trkpt lat="45.89664500772039" lon="12.085090037369158"><ele>165.42857142857144</ele><time>2026-04-25T12:24:58.019Z</time></trkpt><trkpt lat="45.89657466705323" lon="12.085096415057105"><ele>165.14285714285714</ele><time>2026-04-25T12:24:59.019Z</time></trkpt><trkpt lat="45.89650417257605" lon="12.08509820603359"><ele>164.85714285714283</ele><time>2026-04-25T12:25:00.019Z</time></trkpt><trkpt lat="45.896417603132775" lon="12.085099639509588"><ele>164.57142857142856</ele><time>2026-04-25T12:25:01.019Z</time></trkpt><trkpt lat="45.89634979243172" lon="12.085097959754508"><ele>164.28571428571428</ele><time>2026-04-25T12:25:02.019Z</time></trkpt><trkpt lat="45.89627755614861" lon="12.085104285525803"><ele>164.0</ele><time>2026-04-25T12:25:03.019Z</time></trkpt><trkpt lat="45.89620138150512" lon="12.085111071775378"><ele>164.0</ele><time>2026-04-25T12:25:04.019Z</time></trkpt><trkpt lat="45.896119411419576" lon="12.085113890703276"><ele>164.0</ele><time>2026-04-25T12:25:05.019Z</time></trkpt><trkpt lat="45.89603413526558" lon="12.0851208850894"><ele>164.0</ele><time>2026-04-25T12:25:06.019Z</time></trkpt><trkpt lat="45.895961297331695" lon="12.08513395011429"><ele>164.0</ele><time>2026-04-25T12:25:07.019Z</time></trkpt><trkpt lat="45.89588056270828" lon="12.085137811777056"><ele>164.0</ele><time>2026-04-25T12:25:08.019Z</time></trkpt><trkpt lat="45.89580118002682" lon="12.085140903708734"><ele>164.0</ele><time>2026-04-25T12:25:09.019Z</time></trkpt><trkpt lat="45.895737000058354" lon="12.085133766676934"><ele>163.83333333333331</ele><time>2026-04-25T12:25:10.019Z</time></trkpt><trkpt lat="45.895654522020436" lon="12.08513698445043"><ele>163.66666666666666</ele><time>2026-04-25T12:25:11.019Z</time></trkpt><trkpt lat="45.89557152927376" lon="12.085145335287715"><ele>163.5</ele><time>2026-04-25T12:25:12.019Z</time></trkpt><trkpt lat="45.8954643172026" lon="12.0851499307252"><ele>163.33333333333334</ele><time>2026-04-25T12:25:13.019Z</time></trkpt><trkpt lat="45.89537536578794" lon="12.085156010455734"><ele>163.16666666666669</ele><time>2026-04-25T12:25:14.019Z</time></trkpt><trkpt lat="45.895290409472466" lon="12.085168675388285"><ele>163.0</ele><time>2026-04-25T12:25:15.019Z</time></trkpt><trkpt lat="45.895215275885015" lon="12.085185676281379"><ele>163.0</ele><time>2026-04-25T12:25:16.019Z</time></trkpt><trkpt lat="45.89514122197815" lon="12.085210301903132"><ele>163.0</ele><time>2026-04-25T12:25:17.019Z</time></trkpt><trkpt lat="45.895060582885236" lon="12.085233908307817"><ele>163.0</ele><time>2026-04-25T12:25:18.019Z</time></trkpt><trkpt lat="45.894980084734996" lon="12.085277214428153"><ele>163.0</ele><time>2026-04-25T12:25:19.019Z</time></trkpt><trkpt lat="45.89489195710492" lon="12.085325135317891"><ele>163.0</ele><time>2026-04-25T12:25:20.019Z</time></trkpt><trkpt lat="45.89481322002042" lon="12.085364933392297"><ele>163.0</ele><time>2026-04-25T12:25:21.019Z</time></trkpt><trkpt lat="45.894733430041285" lon="12.085405869832888"><ele>162.5</ele><time>2026-04-25T12:25:22.019Z</time></trkpt><trkpt lat="45.89465308838938" lon="12.085449114759045"><ele>162.0</ele><time>2026-04-25T12:25:23.019Z</time></trkpt><trkpt lat="45.89458006053071" lon="12.085487770608532"><ele>161.5</ele><time>2026-04-25T12:25:24.019Z</time></trkpt><trkpt lat="45.89448945429762" lon="12.085534395225004"><ele>161.0</ele><time>2026-04-25T12:25:25.019Z</time></trkpt><trkpt lat="45.894425766750615" lon="12.0855708123554"><ele>160.5</ele><time>2026-04-25T12:25:26.019Z</time></trkpt><trkpt lat="45.89433695363418" lon="12.085616699680427"><ele>160.0</ele><time>2026-04-25T12:25:28.019Z</time></trkpt><trkpt lat="45.89427805207975" lon="12.085699396276532"><ele>159.5</ele><time>2026-04-25T12:25:30.019Z</time></trkpt><trkpt lat="45.89419690077734" lon="12.085824504450994"><ele>159.0</ele><time>2026-04-25T12:25:32.019Z</time></trkpt><trkpt lat="45.89413998629846" lon="12.085875437389442"><ele>158.5</ele><time>2026-04-25T12:25:33.019Z</time></trkpt><trkpt lat="45.894072036070924" lon="12.085927252736175"><ele>158.0</ele><time>2026-04-25T12:25:34.019Z</time></trkpt><trkpt lat="45.89401364545474" lon="12.08598338576445"><ele>157.5</ele><time>2026-04-25T12:25:35.019Z</time></trkpt><trkpt lat="45.8939509362071" lon="12.086040863027744"><ele>157.0</ele><time>2026-04-25T12:25:36.019Z</time></trkpt><trkpt lat="45.89388265783115" lon="12.086094904658065"><ele>157.0</ele><time>2026-04-25T12:25:37.019Z</time></trkpt><trkpt lat="45.89380521313062" lon="12.086160542025455"><ele>157.0</ele><time>2026-04-25T12:25:38.019Z</time></trkpt><trkpt lat="45.89373020385529" lon="12.086218251367075"><ele>157.0</ele><time>2026-04-25T12:25:39.019Z</time></trkpt><trkpt lat="45.893656938217994" lon="12.086283973219455"><ele>157.0</ele><time>2026-04-25T12:25:40.019Z</time></trkpt><trkpt lat="45.89357900168423" lon="12.086348637985715"><ele>157.0</ele><time>2026-04-25T12:25:41.019Z</time></trkpt><trkpt lat="45.89350080402047" lon="12.086416625777522"><ele>157.0</ele><time>2026-04-25T12:25:42.019Z</time></trkpt><trkpt lat="45.89344569949523" lon="12.086477325856178"><ele>156.79999999999998</ele><time>2026-04-25T12:25:43.019Z</time></trkpt><trkpt lat="45.89336880861931" lon="12.08654119678721"><ele>156.6</ele><time>2026-04-25T12:25:44.019Z</time></trkpt><trkpt lat="45.89329231534759" lon="12.086611347988832"><ele>156.39999999999998</ele><time>2026-04-25T12:25:45.019Z</time></trkpt><trkpt lat="45.893214485140945" lon="12.086682920937015"><ele>156.2</ele><time>2026-04-25T12:25:46.019Z</time></trkpt><trkpt lat="45.89313887770862" lon="12.086750485658808"><ele>156.0</ele><time>2026-04-25T12:25:47.019Z</time></trkpt><trkpt lat="45.89306428115394" lon="12.086822675601914"><ele>155.66666666666666</ele><time>2026-04-25T12:25:48.019Z</time></trkpt><trkpt lat="45.89299428089605" lon="12.086896803557437"><ele>155.33333333333334</ele><time>2026-04-25T12:25:49.019Z</time></trkpt><trkpt lat="45.892926371609846" lon="12.086965935574602"><ele>155.0</ele><time>2026-04-25T12:25:50.019Z</time></trkpt><trkpt lat="45.89285095548454" lon="12.087032507205674"><ele>154.66666666666669</ele><time>2026-04-25T12:25:51.019Z</time></trkpt><trkpt lat="45.892781753339214" lon="12.087099730679084"><ele>154.33333333333334</ele><time>2026-04-25T12:25:52.019Z</time></trkpt><trkpt lat="45.89271244955689" lon="12.087167171421502"><ele>154.0</ele><time>2026-04-25T12:25:53.019Z</time></trkpt><trkpt lat="45.89263334494644" lon="12.087234934483472"><ele>153.83333333333334</ele><time>2026-04-25T12:25:54.019Z</time></trkpt><trkpt lat="45.892563579261584" lon="12.087301861324125"><ele>153.66666666666669</ele><time>2026-04-25T12:25:55.019Z</time></trkpt><trkpt lat="45.89249958555856" lon="12.087377148005073"><ele>153.5</ele><time>2026-04-25T12:25:56.019Z</time></trkpt><trkpt lat="45.89243832214722" lon="12.087449220789123"><ele>153.33333333333334</ele><time>2026-04-25T12:25:57.019Z</time></trkpt><trkpt lat="45.89237114145397" lon="12.087526488821796"><ele>153.16666666666666</ele><time>2026-04-25T12:25:58.019Z</time></trkpt><trkpt lat="45.89230139402879" lon="12.087598516573392"><ele>153.0</ele><time>2026-04-25T12:25:59.019Z</time></trkpt><trkpt lat="45.89222588139872" lon="12.087665676248657"><ele>152.66666666666666</ele><time>2026-04-25T12:26:00.019Z</time></trkpt><trkpt lat="45.89215599059382" lon="12.087729366524044"><ele>152.33333333333334</ele><time>2026-04-25T12:26:01.019Z</time></trkpt><trkpt lat="45.892087095430526" lon="12.087794940448743"><ele>152.0</ele><time>2026-04-25T12:26:02.019Z</time></trkpt><trkpt lat="45.89201124033384" lon="12.087859805713935"><ele>151.66666666666669</ele><time>2026-04-25T12:26:03.019Z</time></trkpt><trkpt lat="45.89194713341359" lon="12.087929209938766"><ele>151.33333333333334</ele><time>2026-04-25T12:26:04.019Z</time></trkpt><trkpt lat="45.89188541196869" lon="12.087986625073501"><ele>151.0</ele><time>2026-04-25T12:26:05.019Z</time></trkpt><trkpt lat="45.89182066204528" lon="12.08803650064781"><ele>151.0</ele><time>2026-04-25T12:26:06.019Z</time></trkpt><trkpt lat="45.891749812959894" lon="12.088101611381697"><ele>151.0</ele><time>2026-04-25T12:26:07.019Z</time></trkpt><trkpt lat="45.8916747491426" lon="12.088167313346093"><ele>151.0</ele><time>2026-04-25T12:26:08.019Z</time></trkpt><trkpt lat="45.891598126377474" lon="12.088228099302656"><ele>151.0</ele><time>2026-04-25T12:26:09.019Z</time></trkpt><trkpt lat="45.89153307369865" lon="12.088289454393394"><ele>151.0</ele><time>2026-04-25T12:26:10.019Z</time></trkpt><trkpt lat="45.8914662263062" lon="12.088354509422977"><ele>151.0</ele><time>2026-04-25T12:26:11.019Z</time></trkpt><trkpt lat="45.891401657877495" lon="12.08841403576521"><ele>150.85714285714286</ele><time>2026-04-25T12:26:12.019Z</time></trkpt><trkpt lat="45.89133253209502" lon="12.088469741481118"><ele>150.71428571428572</ele><time>2026-04-25T12:26:13.019Z</time></trkpt><trkpt lat="45.891267451830394" lon="12.088519140788454"><ele>150.57142857142856</ele><time>2026-04-25T12:26:14.019Z</time></trkpt><trkpt lat="45.89121135671513" lon="12.088565910394639"><ele>150.42857142857144</ele><time>2026-04-25T12:26:15.019Z</time></trkpt><trkpt lat="45.89114333941194" lon="12.08862220912289"><ele>150.28571428571428</ele><time>2026-04-25T12:26:16.019Z</time></trkpt><trkpt lat="45.89108331326614" lon="12.088674692215964"><ele>150.14285714285714</ele><time>2026-04-25T12:26:17.019Z</time></trkpt><trkpt lat="45.89102843146501" lon="12.088724459440124"><ele>150.0</ele><time>2026-04-25T12:26:18.019Z</time></trkpt><trkpt lat="45.89098565839796" lon="12.088810290899145"><ele>150.0</ele><time>2026-04-25T12:26:19.019Z</time></trkpt><trkpt lat="45.89095078065119" lon="12.088918103639436"><ele>150.0</ele><time>2026-04-25T12:26:20.019Z</time></trkpt><trkpt lat="45.89093631103336" lon="12.089014574595758"><ele>150.0</ele><time>2026-04-25T12:26:21.019Z</time></trkpt><trkpt lat="45.89093148175203" lon="12.08910764574702"><ele>150.0</ele><time>2026-04-25T12:26:22.019Z</time></trkpt><trkpt lat="45.890903543274334" lon="12.089233079144128"><ele>150.0</ele><time>2026-04-25T12:26:24.019Z</time></trkpt><trkpt lat="45.890813092151994" lon="12.089284569112372"><ele>150.0</ele><time>2026-04-25T12:26:26.019Z</time></trkpt><trkpt lat="45.890747694502686" lon="12.089273559813117"><ele>149.0</ele><time>2026-04-25T12:26:27.019Z</time></trkpt><trkpt lat="45.89063381865501" lon="12.089240452593993"><ele>148.0</ele><time>2026-04-25T12:26:29.019Z</time></trkpt><trkpt lat="45.89050243913315" lon="12.08922855039351"><ele>147.0</ele><time>2026-04-25T12:26:31.019Z</time></trkpt><trkpt lat="45.890365284268206" lon="12.089226491248574"><ele>146.0</ele><time>2026-04-25T12:26:33.019Z</time></trkpt><trkpt lat="45.890277823799195" lon="12.089227250777078"><ele>146.0</ele><time>2026-04-25T12:26:34.019Z</time></trkpt><trkpt lat="45.890202668527564" lon="12.089226796266107"><ele>146.0</ele><time>2026-04-25T12:26:35.019Z</time></trkpt><trkpt lat="45.89013326319763" lon="12.089217163582763"><ele>146.0</ele><time>2026-04-25T12:26:36.019Z</time></trkpt><trkpt lat="45.890060341142835" lon="12.089213509216757"><ele>146.0</ele><time>2026-04-25T12:26:37.019Z</time></trkpt><trkpt lat="45.8899863949538" lon="12.089206131694027"><ele>146.0</ele><time>2026-04-25T12:26:38.019Z</time></trkpt><trkpt lat="45.88991284021319" lon="12.089198529461035"><ele>146.0</ele><time>2026-04-25T12:26:39.019Z</time></trkpt><trkpt lat="45.88983433577112" lon="12.089187141418938"><ele>146.0</ele><time>2026-04-25T12:26:40.019Z</time></trkpt><trkpt lat="45.889766996195085" lon="12.089165881508391"><ele>145.83333333333331</ele><time>2026-04-25T12:26:41.019Z</time></trkpt><trkpt lat="45.88969624875458" lon="12.089142905626842"><ele>145.66666666666666</ele><time>2026-04-25T12:26:42.019Z</time></trkpt><trkpt lat="45.88962254514512" lon="12.089120988995456"><ele>145.5</ele><time>2026-04-25T12:26:43.019Z</time></trkpt><trkpt lat="45.88955631980808" lon="12.089103043642188"><ele>145.33333333333334</ele><time>2026-04-25T12:26:44.02Z</time></trkpt><trkpt lat="45.889417508256095" lon="12.089083150275513"><ele>145.16666666666669</ele><time>2026-04-25T12:26:46.02Z</time></trkpt><trkpt lat="45.88934390463707" lon="12.08908155185109"><ele>145.0</ele><time>2026-04-25T12:26:47.02Z</time></trkpt><trkpt lat="45.88926443032536" lon="12.089082884234568"><ele>145.28571428571428</ele><time>2026-04-25T12:26:48.02Z</time></trkpt><trkpt lat="45.88919099462743" lon="12.089092050658135"><ele>145.57142857142858</ele><time>2026-04-25T12:26:49.02Z</time></trkpt><trkpt lat="45.88911667550702" lon="12.089098011231656"><ele>145.85714285714286</ele><time>2026-04-25T12:26:50.021Z</time></trkpt><trkpt lat="45.88903885255957" lon="12.089100358816259"><ele>146.14285714285714</ele><time>2026-04-25T12:26:51.021Z</time></trkpt><trkpt lat="45.888968089078205" lon="12.089097818209435"><ele>146.42857142857144</ele><time>2026-04-25T12:26:52.021Z</time></trkpt><trkpt lat="45.8888991393144" lon="12.08910226160768"><ele>146.71428571428572</ele><time>2026-04-25T12:26:53.02Z</time></trkpt><trkpt lat="45.88882332774982" lon="12.089113748816413"><ele>147.0</ele><time>2026-04-25T12:26:54.021Z</time></trkpt><trkpt lat="45.888748693757556" lon="12.089119223158256"><ele>147.0</ele><time>2026-04-25T12:26:55.021Z</time></trkpt><trkpt lat="45.888679566725564" lon="12.089132981527861"><ele>147.0</ele><time>2026-04-25T12:26:56.02Z</time></trkpt><trkpt lat="45.88861082784784" lon="12.08915177636315"><ele>147.0</ele><time>2026-04-25T12:26:57.02Z</time></trkpt><trkpt lat="45.888539806092645" lon="12.08917376906764"><ele>147.0</ele><time>2026-04-25T12:26:58.02Z</time></trkpt><trkpt lat="45.888475039945114" lon="12.089205099750341"><ele>147.0</ele><time>2026-04-25T12:26:59.02Z</time></trkpt><trkpt lat="45.88835503740111" lon="12.089286193755232"><ele>147.0</ele><time>2026-04-25T12:27:01.02Z</time></trkpt><trkpt lat="45.88828806382417" lon="12.089337566800122"><ele>147.16666666666666</ele><time>2026-04-25T12:27:02.02Z</time></trkpt><trkpt lat="45.888219689069196" lon="12.089391018299382"><ele>147.33333333333334</ele><time>2026-04-25T12:27:03.02Z</time></trkpt><trkpt lat="45.88814501622625" lon="12.089447890871103"><ele>147.5</ele><time>2026-04-25T12:27:04.02Z</time></trkpt><trkpt lat="45.88807785287804" lon="12.089496938693449"><ele>147.66666666666669</ele><time>2026-04-25T12:27:05.02Z</time></trkpt><trkpt lat="45.88801421625372" lon="12.089542443664415"><ele>147.83333333333334</ele><time>2026-04-25T12:27:06.02Z</time></trkpt><trkpt lat="45.887944014674844" lon="12.089591031803607"><ele>148.0</ele><time>2026-04-25T12:27:07.02Z</time></trkpt><trkpt lat="45.88787327695276" lon="12.089636531882734"><ele>148.0</ele><time>2026-04-25T12:27:08.02Z</time></trkpt><trkpt lat="45.88780452613874" lon="12.089683483425999"><ele>148.0</ele><time>2026-04-25T12:27:09.02Z</time></trkpt><trkpt lat="45.88773333306259" lon="12.08973464363592"><ele>148.0</ele><time>2026-04-25T12:27:10.02Z</time></trkpt><trkpt lat="45.887667198352915" lon="12.089784242928676"><ele>148.0</ele><time>2026-04-25T12:27:11.02Z</time></trkpt><trkpt lat="45.88759340550374" lon="12.089828902346133"><ele>148.0</ele><time>2026-04-25T12:27:12.02Z</time></trkpt><trkpt lat="45.887524804879476" lon="12.08986604634283"><ele>148.0</ele><time>2026-04-25T12:27:13.02Z</time></trkpt><trkpt lat="45.887455298816114" lon="12.089899769672703"><ele>147.28571428571428</ele><time>2026-04-25T12:27:14.02Z</time></trkpt><trkpt lat="45.887390828155745" lon="12.089936380740527"><ele>146.57142857142856</ele><time>2026-04-25T12:27:15.02Z</time></trkpt><trkpt lat="45.88732602780269" lon="12.089978089988174"><ele>145.85714285714283</ele><time>2026-04-25T12:27:16.021Z</time></trkpt><trkpt lat="45.887269506474794" lon="12.090030915335317"><ele>145.14285714285714</ele><time>2026-04-25T12:27:17.021Z</time></trkpt><trkpt lat="45.88721732191291" lon="12.090090758884257"><ele>144.42857142857142</ele><time>2026-04-25T12:27:18.021Z</time></trkpt><trkpt lat="45.88717079002993" lon="12.090154025130758"><ele>143.7142857142857</ele><time>2026-04-25T12:27:19.021Z</time></trkpt><trkpt lat="45.88712974755167" lon="12.090231656331717"><ele>143.0</ele><time>2026-04-25T12:27:20.021Z</time></trkpt><trkpt lat="45.887084221670776" lon="12.09032099288985"><ele>143.0</ele><time>2026-04-25T12:27:21.021Z</time></trkpt><trkpt lat="45.887041258413475" lon="12.090412829067139"><ele>143.0</ele><time>2026-04-25T12:27:22.021Z</time></trkpt><trkpt lat="45.88700749490399" lon="12.09051283699029"><ele>143.0</ele><time>2026-04-25T12:27:23.021Z</time></trkpt><trkpt lat="45.88698242161512" lon="12.090623967576695"><ele>143.0</ele><time>2026-04-25T12:27:24.021Z</time></trkpt><trkpt lat="45.886973108997246" lon="12.090729743467666"><ele>143.0</ele><time>2026-04-25T12:27:25.021Z</time></trkpt><trkpt lat="45.886974733964216" lon="12.090834680331755"><ele>143.0</ele><time>2026-04-25T12:27:26.021Z</time></trkpt><trkpt lat="45.886999157878655" lon="12.090947629391579"><ele>142.83333333333331</ele><time>2026-04-25T12:27:27.021Z</time></trkpt><trkpt lat="45.88701360592883" lon="12.091059861988382"><ele>142.66666666666666</ele><time>2026-04-25T12:27:28.021Z</time></trkpt><trkpt lat="45.8870187964685" lon="12.091159238364892"><ele>142.5</ele><time>2026-04-25T12:27:29.021Z</time></trkpt><trkpt lat="45.88702186476899" lon="12.091273176688391"><ele>142.33333333333334</ele><time>2026-04-25T12:27:30.021Z</time></trkpt><trkpt lat="45.88700011822854" lon="12.091375592366793"><ele>142.16666666666669</ele><time>2026-04-25T12:27:31.021Z</time></trkpt><trkpt lat="45.88695341775438" lon="12.091475353364043"><ele>142.0</ele><time>2026-04-25T12:27:32.021Z</time></trkpt><trkpt lat="45.88689230725985" lon="12.091540819455483"><ele>142.0</ele><time>2026-04-25T12:27:33.021Z</time></trkpt><trkpt lat="45.88683843333449" lon="12.0916007166964"><ele>142.0</ele><time>2026-04-25T12:27:34.021Z</time></trkpt><trkpt lat="45.88678032267289" lon="12.091660725976013"><ele>142.0</ele><time>2026-04-25T12:27:35.021Z</time></trkpt><trkpt lat="45.8867361132675" lon="12.091739060123802"><ele>142.0</ele><time>2026-04-25T12:27:36.021Z</time></trkpt><trkpt lat="45.88671088628551" lon="12.09183517824548"><ele>142.0</ele><time>2026-04-25T12:27:37.021Z</time></trkpt><trkpt lat="45.88670296915558" lon="12.091934543341116"><ele>142.0</ele><time>2026-04-25T12:27:38.021Z</time></trkpt><trkpt lat="45.886728055078265" lon="12.092034891628325"><ele>142.0</ele><time>2026-04-25T12:27:39.021Z</time></trkpt><trkpt lat="45.88675635055328" lon="12.092142663729657"><ele>142.16666666666669</ele><time>2026-04-25T12:27:40.021Z</time></trkpt><trkpt lat="45.88677677556453" lon="12.09224310791173"><ele>142.33333333333334</ele><time>2026-04-25T12:27:41.021Z</time></trkpt><trkpt lat="45.886777989589625" lon="12.092349403242022"><ele>142.5</ele><time>2026-04-25T12:27:42.021Z</time></trkpt><trkpt lat="45.88676310062891" lon="12.092460944823975"><ele>142.66666666666666</ele><time>2026-04-25T12:27:43.021Z</time></trkpt><trkpt lat="45.88672375544823" lon="12.092550842541751"><ele>142.83333333333331</ele><time>2026-04-25T12:27:44.021Z</time></trkpt><trkpt lat="45.886678361174425" lon="12.092648984125534"><ele>143.0</ele><time>2026-04-25T12:27:45.021Z</time></trkpt><trkpt lat="45.886637598150365" lon="12.092745494918478"><ele>142.33333333333331</ele><time>2026-04-25T12:27:46.021Z</time></trkpt><trkpt lat="45.886616747044705" lon="12.092855059952026"><ele>141.66666666666666</ele><time>2026-04-25T12:27:47.021Z</time></trkpt><trkpt lat="45.88660674583984" lon="12.09296154763806"><ele>141.0</ele><time>2026-04-25T12:27:48.021Z</time></trkpt><trkpt lat="45.886606935521854" lon="12.093075315721038"><ele>140.33333333333334</ele><time>2026-04-25T12:27:49.021Z</time></trkpt><trkpt lat="45.88661385199255" lon="12.09318225450876"><ele>139.66666666666669</ele><time>2026-04-25T12:27:50.021Z</time></trkpt><trkpt lat="45.88661331350851" lon="12.093298717238637"><ele>139.0</ele><time>2026-04-25T12:27:51.021Z</time></trkpt><trkpt lat="45.88659794678171" lon="12.093406577972981"><ele>139.0</ele><time>2026-04-25T12:27:52.021Z</time></trkpt><trkpt lat="45.886533521836164" lon="12.093547852866433"><ele>139.0</ele><time>2026-04-25T12:27:54.021Z</time></trkpt><trkpt lat="45.886465987295495" lon="12.09360669451022"><ele>139.0</ele><time>2026-04-25T12:27:55.021Z</time></trkpt><trkpt lat="45.886395204171926" lon="12.093665008988681"><ele>139.0</ele><time>2026-04-25T12:27:56.021Z</time></trkpt><trkpt lat="45.88631665028205" lon="12.093723899112721"><ele>139.0</ele><time>2026-04-25T12:27:57.021Z</time></trkpt><trkpt lat="45.886248897236484" lon="12.093784883506931"><ele>139.0</ele><time>2026-04-25T12:27:58.021Z</time></trkpt><trkpt lat="45.886183691835335" lon="12.093846445243855"><ele>139.0</ele><time>2026-04-25T12:27:59.021Z</time></trkpt><trkpt lat="45.88612714744966" lon="12.093896886152203"><ele>139.0</ele><time>2026-04-25T12:28:00.021Z</time></trkpt><trkpt lat="45.886061426330436" lon="12.093952367446052"><ele>139.0</ele><time>2026-04-25T12:28:01.021Z</time></trkpt><trkpt lat="45.88600564073465" lon="12.094012700252147"><ele>139.0</ele><time>2026-04-25T12:28:02.021Z</time></trkpt><trkpt lat="45.88594463628933" lon="12.094066811862946"><ele>139.0</ele><time>2026-04-25T12:28:03.021Z</time></trkpt><trkpt lat="45.88589320324797" lon="12.094139043159307"><ele>139.0</ele><time>2026-04-25T12:28:04.021Z</time></trkpt><trkpt lat="45.885859695448595" lon="12.09424798991109"><ele>139.0</ele><time>2026-04-25T12:28:05.021Z</time></trkpt><trkpt lat="45.88583217737105" lon="12.094335802526546"><ele>139.0</ele><time>2026-04-25T12:28:06.021Z</time></trkpt><trkpt lat="45.88576297971411" lon="12.094409731107497"><ele>139.0</ele><time>2026-04-25T12:28:07.021Z</time></trkpt><trkpt lat="45.88570563894307" lon="12.09448053410269"><ele>139.0</ele><time>2026-04-25T12:28:08.021Z</time></trkpt><trkpt lat="45.88566603487636" lon="12.094571007503305"><ele>139.0</ele><time>2026-04-25T12:28:09.021Z</time></trkpt><trkpt lat="45.885619594602886" lon="12.094658786068202"><ele>139.0</ele><time>2026-04-25T12:28:10.021Z</time></trkpt><trkpt lat="45.88558405743365" lon="12.09475403577586"><ele>139.0</ele><time>2026-04-25T12:28:11.021Z</time></trkpt><trkpt lat="45.885544369531985" lon="12.094841872243345"><ele>138.57142857142856</ele><time>2026-04-25T12:28:12.021Z</time></trkpt><trkpt lat="45.885504267295865" lon="12.094934450873964"><ele>138.14285714285714</ele><time>2026-04-25T12:28:13.021Z</time></trkpt><trkpt lat="45.88546007844011" lon="12.095014642528124"><ele>137.71428571428572</ele><time>2026-04-25T12:28:14.021Z</time></trkpt><trkpt lat="45.885407060096135" lon="12.095081277211984"><ele>137.28571428571428</ele><time>2026-04-25T12:28:15.021Z</time></trkpt><trkpt lat="45.88533737301626" lon="12.095134847702582"><ele>136.85714285714286</ele><time>2026-04-25T12:28:16.021Z</time></trkpt><trkpt lat="45.88526757536954" lon="12.095174749797883"><ele>136.42857142857142</ele><time>2026-04-25T12:28:17.021Z</time></trkpt><trkpt lat="45.885204974225815" lon="12.09521364497292"><ele>136.0</ele><time>2026-04-25T12:28:18.021Z</time></trkpt><trkpt lat="45.885135216194094" lon="12.095261317384658"><ele>136.0</ele><time>2026-04-25T12:28:19.021Z</time></trkpt><trkpt lat="45.88507291159503" lon="12.095307099671453"><ele>136.0</ele><time>2026-04-25T12:28:20.021Z</time></trkpt><trkpt lat="45.88500069246654" lon="12.095355679346351"><ele>136.0</ele><time>2026-04-25T12:28:21.021Z</time></trkpt><trkpt lat="45.88493224359659" lon="12.095402905546027"><ele>136.0</ele><time>2026-04-25T12:28:22.021Z</time></trkpt><trkpt lat="45.88485741093844" lon="12.095458421527622"><ele>136.0</ele><time>2026-04-25T12:28:23.021Z</time></trkpt><trkpt lat="45.88479101652685" lon="12.095510670559962"><ele>136.0</ele><time>2026-04-25T12:28:24.021Z</time></trkpt><trkpt lat="45.88472091078672" lon="12.095565006025026"><ele>136.0</ele><time>2026-04-25T12:28:25.021Z</time></trkpt><trkpt lat="45.88464172924138" lon="12.095619368309675"><ele>136.0</ele><time>2026-04-25T12:28:26.021Z</time></trkpt><trkpt lat="45.88456516534844" lon="12.095667247336669"><ele>136.0</ele><time>2026-04-25T12:28:27.021Z</time></trkpt><trkpt lat="45.88449215052873" lon="12.095714745164424"><ele>136.0</ele><time>2026-04-25T12:28:28.021Z</time></trkpt><trkpt lat="45.884427684351984" lon="12.095766674045413"><ele>136.0</ele><time>2026-04-25T12:28:29.021Z</time></trkpt><trkpt lat="45.88436518014881" lon="12.095808338497001"><ele>136.0</ele><time>2026-04-25T12:28:30.021Z</time></trkpt><trkpt lat="45.88428528388688" lon="12.09584770816794"><ele>135.66666666666669</ele><time>2026-04-25T12:28:31.021Z</time></trkpt><trkpt lat="45.88420403689651" lon="12.095882135915605"><ele>135.33333333333334</ele><time>2026-04-25T12:28:32.021Z</time></trkpt><trkpt lat="45.884121885928806" lon="12.09590786095122"><ele>135.0</ele><time>2026-04-25T12:28:33.021Z</time></trkpt><trkpt lat="45.884046910985944" lon="12.09592182040434"><ele>134.66666666666666</ele><time>2026-04-25T12:28:34.021Z</time></trkpt><trkpt lat="45.88396804792261" lon="12.09593103769835"><ele>134.33333333333331</ele><time>2026-04-25T12:28:35.021Z</time></trkpt><trkpt lat="45.883893591101156" lon="12.0959390996985"><ele>134.0</ele><time>2026-04-25T12:28:36.021Z</time></trkpt><trkpt lat="45.88381116984375" lon="12.09593952417922"><ele>134.0</ele><time>2026-04-25T12:28:37.021Z</time></trkpt><trkpt lat="45.88373146837841" lon="12.095944283900012"><ele>134.0</ele><time>2026-04-25T12:28:38.021Z</time></trkpt><trkpt lat="45.88365480909999" lon="12.09594719541165"><ele>134.0</ele><time>2026-04-25T12:28:39.021Z</time></trkpt><trkpt lat="45.88357569778876" lon="12.095952664868893"><ele>134.0</ele><time>2026-04-25T12:28:40.021Z</time></trkpt><trkpt lat="45.88350107634715" lon="12.09596160787185"><ele>134.0</ele><time>2026-04-25T12:28:41.021Z</time></trkpt><trkpt lat="45.88342618372796" lon="12.095974270964568"><ele>134.0</ele><time>2026-04-25T12:28:42.021Z</time></trkpt><trkpt lat="45.88335122941839" lon="12.095989748743836"><ele>133.83333333333331</ele><time>2026-04-25T12:28:43.021Z</time></trkpt><trkpt lat="45.883269897495026" lon="12.096006790908211"><ele>133.66666666666666</ele><time>2026-04-25T12:28:44.021Z</time></trkpt><trkpt lat="45.88319426450055" lon="12.096019753721206"><ele>133.5</ele><time>2026-04-25T12:28:45.021Z</time></trkpt><trkpt lat="45.8831206124601" lon="12.09602339466113"><ele>133.33333333333334</ele><time>2026-04-25T12:28:46.021Z</time></trkpt><trkpt lat="45.88304253584049" lon="12.096028751330818"><ele>133.16666666666669</ele><time>2026-04-25T12:28:47.021Z</time></trkpt><trkpt lat="45.88296745690537" lon="12.096031883835042"><ele>133.0</ele><time>2026-04-25T12:28:48.021Z</time></trkpt><trkpt lat="45.88289052971098" lon="12.096035727839855"><ele>133.0</ele><time>2026-04-25T12:28:49.021Z</time></trkpt><trkpt lat="45.88282031493819" lon="12.096037109584758"><ele>133.0</ele><time>2026-04-25T12:28:50.022Z</time></trkpt><trkpt lat="45.88275035225885" lon="12.096032158900657"><ele>133.0</ele><time>2026-04-25T12:28:51.021Z</time></trkpt><trkpt lat="45.882681076323244" lon="12.096016206083698"><ele>133.0</ele><time>2026-04-25T12:28:52.021Z</time></trkpt><trkpt lat="45.88261387966477" lon="12.095993149324153"><ele>133.0</ele><time>2026-04-25T12:28:53.022Z</time></trkpt><trkpt lat="45.88252071390438" lon="12.095889156593275"><ele>133.0</ele><time>2026-04-25T12:28:55.022Z</time></trkpt><trkpt lat="45.882460193932836" lon="12.095784087124688"><ele>133.5</ele><time>2026-04-25T12:28:57.021Z</time></trkpt><trkpt lat="45.882355782330634" lon="12.095778933127502"><ele>134.0</ele><time>2026-04-25T12:28:59.021Z</time></trkpt><trkpt lat="45.88226068419166" lon="12.095872607311959"><ele>134.5</ele><time>2026-04-25T12:29:01.022Z</time></trkpt><trkpt lat="45.88219737665891" lon="12.095910946655033"><ele>135.0</ele><time>2026-04-25T12:29:02.021Z</time></trkpt><trkpt lat="45.88213850775286" lon="12.095944732290418"><ele>135.5</ele><time>2026-04-25T12:29:03.021Z</time></trkpt><trkpt lat="45.88207668617444" lon="12.095999490023116"><ele>136.0</ele><time>2026-04-25T12:29:04.021Z</time></trkpt><trkpt lat="45.882024998626356" lon="12.096051638509955"><ele>136.0</ele><time>2026-04-25T12:29:05.021Z</time></trkpt><trkpt lat="45.881917274132405" lon="12.096134214489235"><ele>136.0</ele><time>2026-04-25T12:29:07.021Z</time></trkpt><trkpt lat="45.881863478132665" lon="12.096181593907152"><ele>136.0</ele><time>2026-04-25T12:29:08.021Z</time></trkpt><trkpt lat="45.88181150179311" lon="12.09623420940258"><ele>136.0</ele><time>2026-04-25T12:29:09.021Z</time></trkpt><trkpt lat="45.8817576615644" lon="12.096295960014078"><ele>136.0</ele><time>2026-04-25T12:29:10.021Z</time></trkpt><trkpt lat="45.88170689760051" lon="12.09636704747085"><ele>136.0</ele><time>2026-04-25T12:29:11.021Z</time></trkpt><trkpt lat="45.8816688008675" lon="12.096450001591682"><ele>135.33333333333334</ele><time>2026-04-25T12:29:12.021Z</time></trkpt><trkpt lat="45.88161472861348" lon="12.096623349640057"><ele>134.66666666666669</ele><time>2026-04-25T12:29:14.021Z</time></trkpt><trkpt lat="45.881585919888366" lon="12.096706545036318"><ele>134.0</ele><time>2026-04-25T12:29:15.021Z</time></trkpt><trkpt lat="45.88154550978153" lon="12.096781681660449"><ele>133.33333333333334</ele><time>2026-04-25T12:29:16.021Z</time></trkpt><trkpt lat="45.88149870009541" lon="12.096846367070203"><ele>132.66666666666666</ele><time>2026-04-25T12:29:17.021Z</time></trkpt><trkpt lat="45.88144626412081" lon="12.096897812115788"><ele>132.0</ele><time>2026-04-25T12:29:18.021Z</time></trkpt><trkpt lat="45.881380738474924" lon="12.096953468301246"><ele>132.0</ele><time>2026-04-25T12:29:19.021Z</time></trkpt><trkpt lat="45.88131912272404" lon="12.096992448006647"><ele>132.0</ele><time>2026-04-25T12:29:20.021Z</time></trkpt><trkpt lat="45.88122560832162" lon="12.097116760140636"><ele>132.0</ele><time>2026-04-25T12:29:22.021Z</time></trkpt><trkpt lat="45.88118901682598" lon="12.097197415249823"><ele>132.0</ele><time>2026-04-25T12:29:23.021Z</time></trkpt><trkpt lat="45.881174459029566" lon="12.097293219254363"><ele>132.0</ele><time>2026-04-25T12:29:24.021Z</time></trkpt><trkpt lat="45.881179387704236" lon="12.097394384956095"><ele>132.0</ele><time>2026-04-25T12:29:25.021Z</time></trkpt><trkpt lat="45.881215230214586" lon="12.097490319557728"><ele>132.14285714285714</ele><time>2026-04-25T12:29:26.021Z</time></trkpt><trkpt lat="45.881250517118694" lon="12.09757381999387"><ele>132.28571428571428</ele><time>2026-04-25T12:29:27.021Z</time></trkpt><trkpt lat="45.88126855061043" lon="12.09767009637513"><ele>132.42857142857144</ele><time>2026-04-25T12:29:28.021Z</time></trkpt><trkpt lat="45.88126181862496" lon="12.097767747583747"><ele>132.57142857142856</ele><time>2026-04-25T12:29:29.021Z</time></trkpt><trkpt lat="45.88125248222071" lon="12.09786800106844"><ele>132.71428571428572</ele><time>2026-04-25T12:29:30.021Z</time></trkpt><trkpt lat="45.881228290933166" lon="12.097957462827004"><ele>132.85714285714286</ele><time>2026-04-25T12:29:31.021Z</time></trkpt><trkpt lat="45.881207872706966" lon="12.098054703909654"><ele>133.0</ele><time>2026-04-25T12:29:32.021Z</time></trkpt><trkpt lat="45.88118283882722" lon="12.098150039888221"><ele>133.0</ele><time>2026-04-25T12:29:33.021Z</time></trkpt><trkpt lat="45.88115207029787" lon="12.098243884836887"><ele>133.0</ele><time>2026-04-25T12:29:34.021Z</time></trkpt><trkpt lat="45.881127379369836" lon="12.098342283185044"><ele>133.0</ele><time>2026-04-25T12:29:35.021Z</time></trkpt><trkpt lat="45.88109802546083" lon="12.09843524078636"><ele>133.0</ele><time>2026-04-25T12:29:36.021Z</time></trkpt><trkpt lat="45.88106793674278" lon="12.098527182915985"><ele>133.0</ele><time>2026-04-25T12:29:37.021Z</time></trkpt><trkpt lat="45.8810327108241" lon="12.098620206553532"><ele>133.0</ele><time>2026-04-25T12:29:38.021Z</time></trkpt><trkpt lat="45.880999627286556" lon="12.098714298551657"><ele>133.0</ele><time>2026-04-25T12:29:39.021Z</time></trkpt><trkpt lat="45.88097086909186" lon="12.098809496218333"><ele>132.71428571428572</ele><time>2026-04-25T12:29:40.021Z</time></trkpt><trkpt lat="45.88093499089299" lon="12.098901605966313"><ele>132.42857142857144</ele><time>2026-04-25T12:29:41.021Z</time></trkpt><trkpt lat="45.88090033314022" lon="12.098996687588429"><ele>132.14285714285714</ele><time>2026-04-25T12:29:42.021Z</time></trkpt><trkpt lat="45.88086921501853" lon="12.099091838654958"><ele>131.85714285714286</ele><time>2026-04-25T12:29:43.021Z</time></trkpt><trkpt lat="45.880838905726065" lon="12.09917563018015"><ele>131.57142857142858</ele><time>2026-04-25T12:29:44.021Z</time></trkpt><trkpt lat="45.88080627181731" lon="12.09926990528106"><ele>131.28571428571428</ele><time>2026-04-25T12:29:45.021Z</time></trkpt><trkpt lat="45.88077194394284" lon="12.099363977702742"><ele>131.0</ele><time>2026-04-25T12:29:46.021Z</time></trkpt><trkpt lat="45.88073730325455" lon="12.099460074126013"><ele>131.0</ele><time>2026-04-25T12:29:47.021Z</time></trkpt><trkpt lat="45.88070765387656" lon="12.099558657778351"><ele>131.0</ele><time>2026-04-25T12:29:48.021Z</time></trkpt><trkpt lat="45.88067757443951" lon="12.099649504052744"><ele>131.0</ele><time>2026-04-25T12:29:49.021Z</time></trkpt><trkpt lat="45.88064026191684" lon="12.099739969435753"><ele>131.0</ele><time>2026-04-25T12:29:50.021Z</time></trkpt><trkpt lat="45.880594818708815" lon="12.099805275442895"><ele>131.0</ele><time>2026-04-25T12:29:51.021Z</time></trkpt><trkpt lat="45.880544198755494" lon="12.099873461750683"><ele>131.0</ele><time>2026-04-25T12:29:52.021Z</time></trkpt><trkpt lat="45.88049932619899" lon="12.09994158973302"><ele>131.0</ele><time>2026-04-25T12:29:53.021Z</time></trkpt><trkpt lat="45.88045763750869" lon="12.10003436873807"><ele>131.0</ele><time>2026-04-25T12:29:54.021Z</time></trkpt><trkpt lat="45.88041625917873" lon="12.100132944732684"><ele>131.0</ele><time>2026-04-25T12:29:55.021Z</time></trkpt><trkpt lat="45.880377181732165" lon="12.100230718122077"><ele>131.0</ele><time>2026-04-25T12:29:56.021Z</time></trkpt><trkpt lat="45.88033826848571" lon="12.100325487537742"><ele>131.0</ele><time>2026-04-25T12:29:57.021Z</time></trkpt><trkpt lat="45.880314314474" lon="12.100413503229065"><ele>131.0</ele><time>2026-04-25T12:29:58.021Z</time></trkpt><trkpt lat="45.88028090532842" lon="12.100494766840708"><ele>131.0</ele><time>2026-04-25T12:29:59.021Z</time></trkpt><trkpt lat="45.88024401169459" lon="12.100581404622822"><ele>131.0</ele><time>2026-04-25T12:30:00.021Z</time></trkpt><trkpt lat="45.880204121542455" lon="12.1006730047192"><ele>130.57142857142858</ele><time>2026-04-25T12:30:01.021Z</time></trkpt><trkpt lat="45.880166280376756" lon="12.100764605069347"><ele>130.14285714285717</ele><time>2026-04-25T12:30:02.021Z</time></trkpt><trkpt lat="45.88012844460051" lon="12.100850855277876"><ele>129.71428571428572</ele><time>2026-04-25T12:30:03.021Z</time></trkpt><trkpt lat="45.88009423149033" lon="12.100937705638009"><ele>129.28571428571428</ele><time>2026-04-25T12:30:04.021Z</time></trkpt><trkpt lat="45.88006914879567" lon="12.101034883059425"><ele>128.85714285714283</ele><time>2026-04-25T12:30:05.021Z</time></trkpt><trkpt lat="45.88005175470227" lon="12.10112664748337"><ele>128.42857142857142</ele><time>2026-04-25T12:30:06.021Z</time></trkpt><trkpt lat="45.88004658147617" lon="12.10123493691221"><ele>128.0</ele><time>2026-04-25T12:30:07.021Z</time></trkpt><trkpt lat="45.88006023681046" lon="12.101341442884388"><ele>128.0</ele><time>2026-04-25T12:30:08.021Z</time></trkpt><trkpt lat="45.880079318982894" lon="12.101440351920663"><ele>127.99999999999999</ele><time>2026-04-25T12:30:09.021Z</time></trkpt><trkpt lat="45.88010632815284" lon="12.101535780283092"><ele>128.0</ele><time>2026-04-25T12:30:10.021Z</time></trkpt><trkpt lat="45.88013318765313" lon="12.10163541718555"><ele>128.0</ele><time>2026-04-25T12:30:11.021Z</time></trkpt><trkpt lat="45.88016041604997" lon="12.101733187667854"><ele>127.99999999999999</ele><time>2026-04-25T12:30:12.021Z</time></trkpt><trkpt lat="45.8801831912875" lon="12.101821592125352"><ele>128.0</ele><time>2026-04-25T12:30:13.021Z</time></trkpt><trkpt lat="45.880205796788104" lon="12.101908274237669"><ele>128.0</ele><time>2026-04-25T12:30:14.021Z</time></trkpt><trkpt lat="45.8802080757169" lon="12.10201416247416"><ele>128.0</ele><time>2026-04-25T12:30:15.021Z</time></trkpt><trkpt lat="45.880207651187945" lon="12.102123930524842"><ele>127.99999999999999</ele><time>2026-04-25T12:30:16.021Z</time></trkpt><trkpt lat="45.880188949131195" lon="12.10222833243304"><ele>128.0</ele><time>2026-04-25T12:30:17.021Z</time></trkpt><trkpt lat="45.88015611014415" lon="12.102322337061343"><ele>128.0</ele><time>2026-04-25T12:30:18.021Z</time></trkpt><trkpt lat="45.880107194690815" lon="12.102401164352896"><ele>127.99999999999999</ele><time>2026-04-25T12:30:19.021Z</time></trkpt><trkpt lat="45.8800639379221" lon="12.102493228342519"><ele>128.0</ele><time>2026-04-25T12:30:20.022Z</time></trkpt><trkpt lat="45.88002766336986" lon="12.102585527170348"><ele>128.0</ele><time>2026-04-25T12:30:21.022Z</time></trkpt><trkpt lat="45.87999327707537" lon="12.102680683314432"><ele>127.99999999999999</ele><time>2026-04-25T12:30:22.022Z</time></trkpt><trkpt lat="45.87996215128943" lon="12.102776410541244"><ele>128.0</ele><time>2026-04-25T12:30:23.022Z</time></trkpt><trkpt lat="45.87988973452957" lon="12.102936166715512"><ele>128.0</ele><time>2026-04-25T12:30:25.022Z</time></trkpt><trkpt lat="45.87984286248632" lon="12.103003383745335"><ele>128.0</ele><time>2026-04-25T12:30:26.022Z</time></trkpt><trkpt lat="45.87979122913464" lon="12.103079336616503"><ele>127.99999999999999</ele><time>2026-04-25T12:30:27.022Z</time></trkpt><trkpt lat="45.87975023286338" lon="12.103161254437607"><ele>128.0</ele><time>2026-04-25T12:30:28.022Z</time></trkpt><trkpt lat="45.879707815080415" lon="12.103247531965144"><ele>127.85714285714285</ele><time>2026-04-25T12:30:29.022Z</time></trkpt><trkpt lat="45.879672603125314" lon="12.103340044244934"><ele>127.7142857142857</ele><time>2026-04-25T12:30:30.022Z</time></trkpt><trkpt lat="45.87964252643352" lon="12.103432158328198"><ele>127.57142857142857</ele><time>2026-04-25T12:30:31.022Z</time></trkpt><trkpt lat="45.879627437711164" lon="12.10353119150313"><ele>127.42857142857142</ele><time>2026-04-25T12:30:32.022Z</time></trkpt><trkpt lat="45.879614860479776" lon="12.103626339905931"><ele>127.28571428571428</ele><time>2026-04-25T12:30:33.022Z</time></trkpt><trkpt lat="45.87959920381418" lon="12.103730273611117"><ele>127.14285714285714</ele><time>2026-04-25T12:30:34.022Z</time></trkpt><trkpt lat="45.87957486816877" lon="12.103840220180599"><ele>127.0</ele><time>2026-04-25T12:30:35.022Z</time></trkpt><trkpt lat="45.8795373132766" lon="12.10393018944076"><ele>127.0</ele><time>2026-04-25T12:30:36.022Z</time></trkpt><trkpt lat="45.879496715299865" lon="12.104020595095133"><ele>127.0</ele><time>2026-04-25T12:30:37.022Z</time></trkpt><trkpt lat="45.879454146242715" lon="12.104113199056432"><ele>127.0</ele><time>2026-04-25T12:30:38.022Z</time></trkpt><trkpt lat="45.87941493141729" lon="12.104199089841481"><ele>127.0</ele><time>2026-04-25T12:30:39.022Z</time></trkpt><trkpt lat="45.879376231256984" lon="12.10428645943034"><ele>127.0</ele><time>2026-04-25T12:30:40.022Z</time></trkpt><trkpt lat="45.87933853598917" lon="12.104377217852676"><ele>127.0</ele><time>2026-04-25T12:30:41.022Z</time></trkpt><trkpt lat="45.87930082321189" lon="12.10447174711597"><ele>127.0</ele><time>2026-04-25T12:30:42.022Z</time></trkpt><trkpt lat="45.879267336445935" lon="12.104563154992702"><ele>126.71428571428572</ele><time>2026-04-25T12:30:43.022Z</time></trkpt><trkpt lat="45.87924126638718" lon="12.104662928035225"><ele>126.42857142857142</ele><time>2026-04-25T12:30:44.022Z</time></trkpt><trkpt lat="45.87921927206613" lon="12.104762113155013"><ele>126.14285714285714</ele><time>2026-04-25T12:30:45.022Z</time></trkpt><trkpt lat="45.87920571865254" lon="12.104861324627425"><ele>125.85714285714286</ele><time>2026-04-25T12:30:46.022Z</time></trkpt><trkpt lat="45.87920024440651" lon="12.104966375047697"><ele>125.57142857142858</ele><time>2026-04-25T12:30:47.022Z</time></trkpt><trkpt lat="45.87919005312182" lon="12.10507759352343"><ele>125.28571428571428</ele><time>2026-04-25T12:30:48.022Z</time></trkpt><trkpt lat="45.879178487340155" lon="12.105171587204769"><ele>125.0</ele><time>2026-04-25T12:30:49.022Z</time></trkpt><trkpt lat="45.87914908943591" lon="12.105258546808987"><ele>124.99999999999999</ele><time>2026-04-25T12:30:50.022Z</time></trkpt><trkpt lat="45.87911275012978" lon="12.105339988847186"><ele>125.0</ele><time>2026-04-25T12:30:51.022Z</time></trkpt><trkpt lat="45.87908607815625" lon="12.105429370425792"><ele>125.0</ele><time>2026-04-25T12:30:52.022Z</time></trkpt><trkpt lat="45.87905751251175" lon="12.105518482967305"><ele>125.0</ele><time>2026-04-25T12:30:53.022Z</time></trkpt><trkpt lat="45.87902966907569" lon="12.105603665893552"><ele>124.99999999999999</ele><time>2026-04-25T12:30:54.022Z</time></trkpt><trkpt lat="45.87899035215594" lon="12.105781383086002"><ele>125.0</ele><time>2026-04-25T12:30:56.023Z</time></trkpt><trkpt lat="45.87897318503234" lon="12.105874666855225"><ele>124.83333333333333</ele><time>2026-04-25T12:30:57.022Z</time></trkpt><trkpt lat="45.878954349473624" lon="12.105963524852687"><ele>124.66666666666666</ele><time>2026-04-25T12:30:58.022Z</time></trkpt><trkpt lat="45.87892959163565" lon="12.106127787329218"><ele>124.5</ele><time>2026-04-25T12:31:00.022Z</time></trkpt><trkpt lat="45.878906229243796" lon="12.106283935060295"><ele>124.33333333333334</ele><time>2026-04-25T12:31:02.022Z</time></trkpt><trkpt lat="45.87888238589419" lon="12.10637888244843"><ele>124.16666666666667</ele><time>2026-04-25T12:31:03.022Z</time></trkpt><trkpt lat="45.878849956328885" lon="12.106478861217994"><ele>124.0</ele><time>2026-04-25T12:31:04.022Z</time></trkpt><trkpt lat="45.87880928558948" lon="12.106570726833267"><ele>123.71428571428572</ele><time>2026-04-25T12:31:05.023Z</time></trkpt><trkpt lat="45.87876780565249" lon="12.10665569025186"><ele>123.42857142857144</ele><time>2026-04-25T12:31:06.022Z</time></trkpt><trkpt lat="45.87873204762771" lon="12.106734669704025"><ele>123.14285714285714</ele><time>2026-04-25T12:31:07.022Z</time></trkpt><trkpt lat="45.878696095527026" lon="12.106818925707817"><ele>122.85714285714286</ele><time>2026-04-25T12:31:08.022Z</time></trkpt><trkpt lat="45.878647815203806" lon="12.106897178745522"><ele>122.57142857142857</ele><time>2026-04-25T12:31:09.023Z</time></trkpt><trkpt lat="45.87859492339968" lon="12.10695480604326"><ele>122.28571428571428</ele><time>2026-04-25T12:31:10.023Z</time></trkpt><trkpt lat="45.87854742786123" lon="12.107028409910285"><ele>121.99999999999999</ele><time>2026-04-25T12:31:11.023Z</time></trkpt><trkpt lat="45.87850753941065" lon="12.107099262227848"><ele>121.99999999999999</ele><time>2026-04-25T12:31:12.023Z</time></trkpt><trkpt lat="45.87846803529843" lon="12.10718795233128"><ele>122.0</ele><time>2026-04-25T12:31:13.023Z</time></trkpt><trkpt lat="45.87843322134991" lon="12.107274104727223"><ele>122.0</ele><time>2026-04-25T12:31:14.023Z</time></trkpt><trkpt lat="45.87839592572938" lon="12.107365195210498"><ele>122.0</ele><time>2026-04-25T12:31:15.023Z</time></trkpt><trkpt lat="45.878362293522756" lon="12.107458861987823"><ele>121.99999999999999</ele><time>2026-04-25T12:31:16.023Z</time></trkpt><trkpt lat="45.87833595472681" lon="12.1075412429621"><ele>122.0</ele><time>2026-04-25T12:31:17.023Z</time></trkpt><trkpt lat="45.87828159083732" lon="12.107694331421895"><ele>122.14285714285712</ele><time>2026-04-25T12:31:19.023Z</time></trkpt><trkpt lat="45.878231377887204" lon="12.10778028226062"><ele>122.28571428571428</ele><time>2026-04-25T12:31:20.023Z</time></trkpt><trkpt lat="45.878188880630375" lon="12.107861114578998"><ele>122.42857142857143</ele><time>2026-04-25T12:31:21.023Z</time></trkpt><trkpt lat="45.87813713407039" lon="12.107935702939173"><ele>122.57142857142857</ele><time>2026-04-25T12:31:22.023Z</time></trkpt><trkpt lat="45.87809310608569" lon="12.108010550329778"><ele>122.71428571428572</ele><time>2026-04-25T12:31:23.023Z</time></trkpt><trkpt lat="45.87804791599898" lon="12.108091020759689"><ele>122.85714285714288</ele><time>2026-04-25T12:31:24.023Z</time></trkpt><trkpt lat="45.87800367629873" lon="12.108168659526534"><ele>123.00000000000001</ele><time>2026-04-25T12:31:25.023Z</time></trkpt><trkpt lat="45.87796154557927" lon="12.108247904491723"><ele>123.00000000000001</ele><time>2026-04-25T12:31:26.023Z</time></trkpt><trkpt lat="45.877922323294506" lon="12.108322832933446"><ele>123.0</ele><time>2026-04-25T12:31:27.023Z</time></trkpt><trkpt lat="45.87788202428439" lon="12.108402962190775"><ele>123.00000000000001</ele><time>2026-04-25T12:31:28.023Z</time></trkpt><trkpt lat="45.87785000442667" lon="12.108490538800273"><ele>123.00000000000001</ele><time>2026-04-25T12:31:29.023Z</time></trkpt><trkpt lat="45.87782256057742" lon="12.108577681713356"><ele>123.0</ele><time>2026-04-25T12:31:30.023Z</time></trkpt><trkpt lat="45.87780328135102" lon="12.108670921810335"><ele>123.00000000000001</ele><time>2026-04-25T12:31:31.023Z</time></trkpt><trkpt lat="45.87778578767092" lon="12.108770792151843"><ele>123.00000000000001</ele><time>2026-04-25T12:31:32.023Z</time></trkpt><trkpt lat="45.877761946976946" lon="12.108858005192698"><ele>123.0</ele><time>2026-04-25T12:31:33.023Z</time></trkpt><trkpt lat="45.87771787398308" lon="12.109025332075046"><ele>123.00000000000001</ele><time>2026-04-25T12:31:35.023Z</time></trkpt><trkpt lat="45.877701050162905" lon="12.109117585861553"><ele>123.00000000000001</ele><time>2026-04-25T12:31:36.023Z</time></trkpt><trkpt lat="45.877671515317076" lon="12.109292630594673"><ele>123.0</ele><time>2026-04-25T12:31:38.023Z</time></trkpt><trkpt lat="45.87764762870197" lon="12.109386290146269"><ele>123.0</ele><time>2026-04-25T12:31:39.023Z</time></trkpt><trkpt lat="45.87762065244766" lon="12.109472899508516"><ele>123.16666666666667</ele><time>2026-04-25T12:31:40.023Z</time></trkpt><trkpt lat="45.8775932183178" lon="12.10955563655204"><ele>123.33333333333334</ele><time>2026-04-25T12:31:41.023Z</time></trkpt><trkpt lat="45.87756499696908" lon="12.109650815576085"><ele>123.5</ele><time>2026-04-25T12:31:42.023Z</time></trkpt><trkpt lat="45.87753779752344" lon="12.109808506905786"><ele>123.66666666666667</ele><time>2026-04-25T12:31:44.023Z</time></trkpt><trkpt lat="45.877513156049076" lon="12.109976455781942"><ele>123.83333333333334</ele><time>2026-04-25T12:31:46.023Z</time></trkpt><trkpt lat="45.877497366040735" lon="12.110085110475834"><ele>124.0</ele><time>2026-04-25T12:31:47.023Z</time></trkpt><trkpt lat="45.87746594716554" lon="12.110172595622824"><ele>123.66666666666667</ele><time>2026-04-25T12:31:48.023Z</time></trkpt><trkpt lat="45.87737754531195" lon="12.110281504192322"><ele>123.33333333333334</ele><time>2026-04-25T12:31:50.023Z</time></trkpt><trkpt lat="45.87728287296571" lon="12.110340689827417"><ele>123.0</ele><time>2026-04-25T12:31:52.023Z</time></trkpt><trkpt lat="45.877216177074104" lon="12.110377628433639"><ele>122.66666666666666</ele><time>2026-04-25T12:31:53.023Z</time></trkpt><trkpt lat="45.87714827615584" lon="12.110426493629946"><ele>122.33333333333333</ele><time>2026-04-25T12:31:54.023Z</time></trkpt><trkpt lat="45.8770962057949" lon="12.11048063142989"><ele>122.0</ele><time>2026-04-25T12:31:55.023Z</time></trkpt><trkpt lat="45.877039213927944" lon="12.110546571764164"><ele>122.0</ele><time>2026-04-25T12:31:56.023Z</time></trkpt><trkpt lat="45.876964070421586" lon="12.110685715600056"><ele>121.99999999999999</ele><time>2026-04-25T12:31:58.023Z</time></trkpt><trkpt lat="45.8769381168089" lon="12.11078365942834"><ele>121.99999999999999</ele><time>2026-04-25T12:31:59.023Z</time></trkpt><trkpt lat="45.87691192616442" lon="12.110961105906428"><ele>122.0</ele><time>2026-04-25T12:32:01.023Z</time></trkpt><trkpt lat="45.87689789111945" lon="12.111075199475785"><ele>122.0</ele><time>2026-04-25T12:32:02.023Z</time></trkpt><trkpt lat="45.876892592731764" lon="12.11119729916843"><ele>121.99999999999999</ele><time>2026-04-25T12:32:03.023Z</time></trkpt><trkpt lat="45.87687711561144" lon="12.111313157234123"><ele>122.0</ele><time>2026-04-25T12:32:04.023Z</time></trkpt><trkpt lat="45.87686110276622" lon="12.111422363126911"><ele>121.99999999999999</ele><time>2026-04-25T12:32:05.023Z</time></trkpt><trkpt lat="45.876847310342576" lon="12.111518243636288"><ele>121.99999999999999</ele><time>2026-04-25T12:32:06.023Z</time></trkpt><trkpt lat="45.87684352779731" lon="12.111617092088744"><ele>122.0</ele><time>2026-04-25T12:32:07.023Z</time></trkpt><trkpt lat="45.87683807470577" lon="12.11171548425464"><ele>121.99999999999999</ele><time>2026-04-25T12:32:08.023Z</time></trkpt><trkpt lat="45.87683362391841" lon="12.1118237378886"><ele>121.99999999999999</ele><time>2026-04-25T12:32:09.023Z</time></trkpt><trkpt lat="45.87682369474262" lon="12.111927266802267"><ele>121.99999999999999</ele><time>2026-04-25T12:32:10.023Z</time></trkpt><trkpt lat="45.87681658751381" lon="12.112029347591106"><ele>122.0</ele><time>2026-04-25T12:32:11.023Z</time></trkpt><trkpt lat="45.87679464855662" lon="12.112132879763122"><ele>121.99999999999999</ele><time>2026-04-25T12:32:12.023Z</time></trkpt><trkpt lat="45.87675267975863" lon="12.112225903614009"><ele>121.99999999999999</ele><time>2026-04-25T12:32:13.023Z</time></trkpt><trkpt lat="45.876703588989955" lon="12.112299833869747"><ele>122.0</ele><time>2026-04-25T12:32:14.023Z</time></trkpt><trkpt lat="45.87664310619466" lon="12.112352545837519"><ele>121.99999999999999</ele><time>2026-04-25T12:32:15.023Z</time></trkpt><trkpt lat="45.87657370021618" lon="12.112391799036649"><ele>121.99999999999999</ele><time>2026-04-25T12:32:16.023Z</time></trkpt><trkpt lat="45.87650805753749" lon="12.112418959336994"><ele>121.7142857142857</ele><time>2026-04-25T12:32:17.023Z</time></trkpt><trkpt lat="45.87644995485839" lon="12.11247397088598"><ele>121.42857142857142</ele><time>2026-04-25T12:32:18.023Z</time></trkpt><trkpt lat="45.87638891541115" lon="12.11252896558123"><ele>121.14285714285714</ele><time>2026-04-25T12:32:19.023Z</time></trkpt><trkpt lat="45.87633618324774" lon="12.11259504104171"><ele>120.85714285714285</ele><time>2026-04-25T12:32:20.023Z</time></trkpt><trkpt lat="45.876289809665195" lon="12.1126716307101"><ele>120.57142857142856</ele><time>2026-04-25T12:32:21.023Z</time></trkpt><trkpt lat="45.87625731018548" lon="12.112765222500641"><ele>120.28571428571429</ele><time>2026-04-25T12:32:22.023Z</time></trkpt><trkpt lat="45.87624209984277" lon="12.112874529631622"><ele>120.0</ele><time>2026-04-25T12:32:23.023Z</time></trkpt><trkpt lat="45.876243466267645" lon="12.112980654140353"><ele>120.0</ele><time>2026-04-25T12:32:24.023Z</time></trkpt><trkpt lat="45.87624987609848" lon="12.1130844981398"><ele>120.0</ele><time>2026-04-25T12:32:25.023Z</time></trkpt><trkpt lat="45.8762616368887" lon="12.113179481885835"><ele>120.0</ele><time>2026-04-25T12:32:26.023Z</time></trkpt><trkpt lat="45.87627052004703" lon="12.113272803132535"><ele>120.0</ele><time>2026-04-25T12:32:27.023Z</time></trkpt><trkpt lat="45.876273491148496" lon="12.11337089730109"><ele>120.0</ele><time>2026-04-25T12:32:28.023Z</time></trkpt><trkpt lat="45.87627233264977" lon="12.11347149479528"><ele>120.0</ele><time>2026-04-25T12:32:29.023Z</time></trkpt><trkpt lat="45.876267479545845" lon="12.11356365351815"><ele>120.0</ele><time>2026-04-25T12:32:30.023Z</time></trkpt><trkpt lat="45.87626394390326" lon="12.113656230971694"><ele>120.0</ele><time>2026-04-25T12:32:31.023Z</time></trkpt><trkpt lat="45.87626430494114" lon="12.113750287458355"><ele>120.0</ele><time>2026-04-25T12:32:32.023Z</time></trkpt><trkpt lat="45.8762498705614" lon="12.113843742834792"><ele>120.0</ele><time>2026-04-25T12:32:33.023Z</time></trkpt><trkpt lat="45.8761781155066" lon="12.113996356781154"><ele>120.0</ele><time>2026-04-25T12:32:35.023Z</time></trkpt><trkpt lat="45.87611904852711" lon="12.11404001187633"><ele>120.0</ele><time>2026-04-25T12:32:36.023Z</time></trkpt><trkpt lat="45.87605714913979" lon="12.114066588194698"><ele>120.0</ele><time>2026-04-25T12:32:37.023Z</time></trkpt><trkpt lat="45.87599167916981" lon="12.114089654210096"><ele>119.33333333333333</ele><time>2026-04-25T12:32:38.023Z</time></trkpt><trkpt lat="45.87592388264428" lon="12.11412635574888"><ele>118.66666666666666</ele><time>2026-04-25T12:32:39.023Z</time></trkpt><trkpt lat="45.87586896370275" lon="12.114183800611896"><ele>118.0</ele><time>2026-04-25T12:32:40.023Z</time></trkpt><trkpt lat="45.87582689556305" lon="12.114252292291505"><ele>117.33333333333333</ele><time>2026-04-25T12:32:41.023Z</time></trkpt><trkpt lat="45.87579537299676" lon="12.114342858633789"><ele>116.66666666666666</ele><time>2026-04-25T12:32:42.023Z</time></trkpt><trkpt lat="45.875771112648195" lon="12.114440760217324"><ele>116.0</ele><time>2026-04-25T12:32:43.023Z</time></trkpt><trkpt lat="45.87574605605631" lon="12.114616858079229"><ele>116.00000000000001</ele><time>2026-04-25T12:32:45.023Z</time></trkpt><trkpt lat="45.87573313043446" lon="12.11470602317535"><ele>116.0</ele><time>2026-04-25T12:32:46.023Z</time></trkpt><trkpt lat="45.87570643868416" lon="12.114791753239643"><ele>116.00000000000001</ele><time>2026-04-25T12:32:47.023Z</time></trkpt><trkpt lat="45.87567983139027" lon="12.114877973987166"><ele>116.00000000000001</ele><time>2026-04-25T12:32:48.023Z</time></trkpt><trkpt lat="45.87564916028037" lon="12.11496272841022"><ele>116.0</ele><time>2026-04-25T12:32:49.023Z</time></trkpt><trkpt lat="45.87561160865979" lon="12.11505492611316"><ele>116.00000000000001</ele><time>2026-04-25T12:32:50.023Z</time></trkpt><trkpt lat="45.87557859703692" lon="12.11513406316624"><ele>116.00000000000001</ele><time>2026-04-25T12:32:51.023Z</time></trkpt><trkpt lat="45.87554220393765" lon="12.115219727746386"><ele>116.00000000000001</ele><time>2026-04-25T12:32:52.023Z</time></trkpt><trkpt lat="45.87551067267691" lon="12.11530840555249"><ele>116.0</ele><time>2026-04-25T12:32:53.023Z</time></trkpt><trkpt lat="45.875478477289484" lon="12.115401896016365"><ele>116.00000000000001</ele><time>2026-04-25T12:32:54.023Z</time></trkpt><trkpt lat="45.875452633441725" lon="12.115490288176389"><ele>116.00000000000001</ele><time>2026-04-25T12:32:55.023Z</time></trkpt><trkpt lat="45.87541908862799" lon="12.11557436935034"><ele>116.0</ele><time>2026-04-25T12:32:56.023Z</time></trkpt><trkpt lat="45.87537763605005" lon="12.115650555557266"><ele>116.00000000000001</ele><time>2026-04-25T12:32:57.023Z</time></trkpt><trkpt lat="45.87534128095286" lon="12.115726477377706"><ele>116.00000000000001</ele><time>2026-04-25T12:32:58.023Z</time></trkpt><trkpt lat="45.875309929190216" lon="12.115816345003427"><ele>116.2857142857143</ele><time>2026-04-25T12:32:59.023Z</time></trkpt><trkpt lat="45.87528107722251" lon="12.115906309526943"><ele>116.57142857142858</ele><time>2026-04-25T12:33:00.023Z</time></trkpt><trkpt lat="45.87524180941459" lon="12.115993972108203"><ele>116.85714285714286</ele><time>2026-04-25T12:33:01.023Z</time></trkpt><trkpt lat="45.87519935190896" lon="12.116078085672838"><ele>117.14285714285715</ele><time>2026-04-25T12:33:02.024Z</time></trkpt><trkpt lat="45.875161533284746" lon="12.116155943386413"><ele>117.42857142857144</ele><time>2026-04-25T12:33:03.024Z</time></trkpt><trkpt lat="45.87511687456045" lon="12.116229585532635"><ele>117.71428571428571</ele><time>2026-04-25T12:33:04.024Z</time></trkpt><trkpt lat="45.87507423264982" lon="12.116306075664518"><ele>118.0</ele><time>2026-04-25T12:33:05.023Z</time></trkpt><trkpt lat="45.875029441926515" lon="12.116383539286915"><ele>118.0</ele><time>2026-04-25T12:33:06.023Z</time></trkpt><trkpt lat="45.874983695140095" lon="12.116457709702983"><ele>118.0</ele><time>2026-04-25T12:33:07.023Z</time></trkpt><trkpt lat="45.874934327801675" lon="12.116537785254732"><ele>118.0</ele><time>2026-04-25T12:33:08.023Z</time></trkpt><trkpt lat="45.87489162234722" lon="12.116608319836319"><ele>118.0</ele><time>2026-04-25T12:33:09.023Z</time></trkpt><trkpt lat="45.87484187936361" lon="12.116679947799911"><ele>118.0</ele><time>2026-04-25T12:33:10.023Z</time></trkpt><trkpt lat="45.874792937423834" lon="12.116755359371844"><ele>118.0</ele><time>2026-04-25T12:33:11.023Z</time></trkpt><trkpt lat="45.87474817245676" lon="12.116833137995656"><ele>118.0</ele><time>2026-04-25T12:33:12.024Z</time></trkpt><trkpt lat="45.87470163395808" lon="12.116905169839429"><ele>118.14285714285714</ele><time>2026-04-25T12:33:13.024Z</time></trkpt><trkpt lat="45.874651856933" lon="12.116981570479311"><ele>118.28571428571429</ele><time>2026-04-25T12:33:14.024Z</time></trkpt><trkpt lat="45.874600273397014" lon="12.117055709504951"><ele>118.42857142857143</ele><time>2026-04-25T12:33:15.023Z</time></trkpt><trkpt lat="45.87455357475182" lon="12.117127158145411"><ele>118.57142857142857</ele><time>2026-04-25T12:33:16.023Z</time></trkpt><trkpt lat="45.87450343970277" lon="12.1171948010865"><ele>118.71428571428572</ele><time>2026-04-25T12:33:17.023Z</time></trkpt><trkpt lat="45.87445619840884" lon="12.117271762301531"><ele>118.85714285714286</ele><time>2026-04-25T12:33:18.023Z</time></trkpt><trkpt lat="45.87441512845865" lon="12.11734029030009"><ele>119.0</ele><time>2026-04-25T12:33:19.023Z</time></trkpt><trkpt lat="45.87436775192301" lon="12.117411409241233"><ele>119.0</ele><time>2026-04-25T12:33:20.023Z</time></trkpt><trkpt lat="45.87431725378853" lon="12.117472730234882"><ele>119.0</ele><time>2026-04-25T12:33:21.023Z</time></trkpt><trkpt lat="45.87426105258565" lon="12.117536437599332"><ele>119.0</ele><time>2026-04-25T12:33:22.023Z</time></trkpt><trkpt lat="45.87420642475262" lon="12.11759942833085"><ele>119.0</ele><time>2026-04-25T12:33:23.023Z</time></trkpt><trkpt lat="45.87415020874713" lon="12.117657720129785"><ele>119.0</ele><time>2026-04-25T12:33:24.023Z</time></trkpt><trkpt lat="45.874098654951915" lon="12.117723834520262"><ele>119.0</ele><time>2026-04-25T12:33:25.023Z</time></trkpt><trkpt lat="45.874045478491084" lon="12.117788904520559"><ele>119.0</ele><time>2026-04-25T12:33:26.023Z</time></trkpt><trkpt lat="45.873989165803735" lon="12.117857496966229"><ele>118.4</ele><time>2026-04-25T12:33:27.023Z</time></trkpt><trkpt lat="45.873896310669174" lon="12.117990895071417"><ele>117.80000000000001</ele><time>2026-04-25T12:33:29.023Z</time></trkpt><trkpt lat="45.87385050255428" lon="12.11805729704546"><ele>117.19999999999999</ele><time>2026-04-25T12:33:30.023Z</time></trkpt><trkpt lat="45.87377677977307" lon="12.118204049982348"><ele>116.6</ele><time>2026-04-25T12:33:32.023Z</time></trkpt><trkpt lat="45.87375625019631" lon="12.11829651198774"><ele>116.0</ele><time>2026-04-25T12:33:33.023Z</time></trkpt><trkpt lat="45.87373702669471" lon="12.118464272164246"><ele>115.8</ele><time>2026-04-25T12:33:35.023Z</time></trkpt><trkpt lat="45.87372328439521" lon="12.118564029843963"><ele>115.6</ele><time>2026-04-25T12:33:36.023Z</time></trkpt><trkpt lat="45.8736954101131" lon="12.11869951653307"><ele>115.4</ele><time>2026-04-25T12:33:38.023Z</time></trkpt><trkpt lat="45.873682232220496" lon="12.118790415377385"><ele>115.2</ele><time>2026-04-25T12:33:39.023Z</time></trkpt><trkpt lat="45.873631591794336" lon="12.118958159267033"><ele>115.0</ele><time>2026-04-25T12:33:41.023Z</time></trkpt><trkpt lat="45.87355530326302" lon="12.119114846909634"><ele>115.8</ele><time>2026-04-25T12:33:43.023Z</time></trkpt><trkpt lat="45.87349050118803" lon="12.119253533432019"><ele>116.6</ele><time>2026-04-25T12:33:45.023Z</time></trkpt><trkpt lat="45.87341601423417" lon="12.119356194893733"><ele>117.4</ele><time>2026-04-25T12:33:47.023Z</time></trkpt><trkpt lat="45.87336723495193" lon="12.119456645981417"><ele>118.2</ele><time>2026-04-25T12:33:49.023Z</time></trkpt><trkpt lat="45.873319247865716" lon="12.119555022958897"><ele>119.0</ele><time>2026-04-25T12:33:51.023Z</time></trkpt><trkpt lat="45.87327811211684" lon="12.11974236911698"><ele>119.16666666666666</ele><time>2026-04-25T12:33:53.023Z</time></trkpt><trkpt lat="45.87324342707347" lon="12.119819816671452"><ele>119.33333333333333</ele><time>2026-04-25T12:33:54.023Z</time></trkpt><trkpt lat="45.87317610771604" lon="12.11984002076661"><ele>119.5</ele><time>2026-04-25T12:33:56.023Z</time></trkpt><trkpt lat="45.87321826648449" lon="12.119908363690412"><ele>119.66666666666666</ele><time>2026-04-25T12:33:58.023Z</time></trkpt><trkpt lat="45.87323623287791" lon="12.119995377029214"><ele>119.83333333333333</ele><time>2026-04-25T12:33:59.023Z</time></trkpt><trkpt lat="45.873243195526264" lon="12.120140047540128"><ele>120.0</ele><time>2026-04-25T12:34:01.023Z</time></trkpt><trkpt lat="45.873246951061645" lon="12.12026811566784"><ele>119.8</ele><time>2026-04-25T12:34:02.023Z</time></trkpt><trkpt lat="45.87325134011724" lon="12.120399212437743"><ele>119.6</ele><time>2026-04-25T12:34:03.023Z</time></trkpt><trkpt lat="45.873247918582074" lon="12.120548410660122"><ele>119.4</ele><time>2026-04-25T12:34:04.023Z</time></trkpt><trkpt lat="45.873250490075954" lon="12.120685350426879"><ele>119.2</ele><time>2026-04-25T12:34:05.023Z</time></trkpt><trkpt lat="45.87325426675813" lon="12.120803212721272"><ele>119.0</ele><time>2026-04-25T12:34:06.023Z</time></trkpt><trkpt lat="45.87325839347724" lon="12.120952319094622"><ele>118.99999999999999</ele><time>2026-04-25T12:34:07.023Z</time></trkpt><trkpt lat="45.87326379808679" lon="12.12110095409732"><ele>119.0</ele><time>2026-04-25T12:34:08.023Z</time></trkpt><trkpt lat="45.873258735677915" lon="12.121228571778323"><ele>119.0</ele><time>2026-04-25T12:34:09.023Z</time></trkpt><trkpt lat="45.87326617916585" lon="12.12135603579836"><ele>119.0</ele><time>2026-04-25T12:34:10.023Z</time></trkpt><trkpt lat="45.873274428849186" lon="12.121468854377518"><ele>118.99999999999999</ele><time>2026-04-25T12:34:11.023Z</time></trkpt><trkpt lat="45.873285230113716" lon="12.121588015998691"><ele>119.0</ele><time>2026-04-25T12:34:12.023Z</time></trkpt><trkpt lat="45.873300470138524" lon="12.121701327042173"><ele>119.16666666666666</ele><time>2026-04-25T12:34:13.023Z</time></trkpt><trkpt lat="45.873298168983354" lon="12.121860402104183"><ele>119.33333333333333</ele><time>2026-04-25T12:34:15.023Z</time></trkpt><trkpt lat="45.87329635515819" lon="12.121971065305027"><ele>119.5</ele><time>2026-04-25T12:34:16.023Z</time></trkpt><trkpt lat="45.87329467121701" lon="12.122082527356595"><ele>119.66666666666666</ele><time>2026-04-25T12:34:17.023Z</time></trkpt><trkpt lat="45.873308732615754" lon="12.122182537067191"><ele>119.83333333333333</ele><time>2026-04-25T12:34:18.023Z</time></trkpt><trkpt lat="45.87328761470106" lon="12.122332594177466"><ele>120.0</ele><time>2026-04-25T12:34:20.023Z</time></trkpt><trkpt lat="45.873274639078176" lon="12.12244315415369"><ele>120.16666666666667</ele><time>2026-04-25T12:34:21.023Z</time></trkpt><trkpt lat="45.87327070861087" lon="12.122549716677767"><ele>120.33333333333334</ele><time>2026-04-25T12:34:22.023Z</time></trkpt><trkpt lat="45.87326897336425" lon="12.122654273644514"><ele>120.5</ele><time>2026-04-25T12:34:23.023Z</time></trkpt><trkpt lat="45.873275123690966" lon="12.122767174932017"><ele>120.66666666666667</ele><time>2026-04-25T12:34:24.023Z</time></trkpt><trkpt lat="45.873277851161035" lon="12.122884476568128"><ele>120.83333333333334</ele><time>2026-04-25T12:34:25.024Z</time></trkpt><trkpt lat="45.87329306709145" lon="12.123008355516768"><ele>121.0</ele><time>2026-04-25T12:34:26.024Z</time></trkpt><trkpt lat="45.873316024076054" lon="12.123125191318303"><ele>120.4</ele><time>2026-04-25T12:34:27.024Z</time></trkpt><trkpt lat="45.873304951043224" lon="12.12327755847201"><ele>119.8</ele><time>2026-04-25T12:34:29.024Z</time></trkpt><trkpt lat="45.873288598391646" lon="12.123435493108808"><ele>119.20000000000002</ele><time>2026-04-25T12:34:31.024Z</time></trkpt><trkpt lat="45.87329770284025" lon="12.123534911337496"><ele>118.60000000000001</ele><time>2026-04-25T12:34:32.024Z</time></trkpt><trkpt lat="45.87330197325008" lon="12.12363739188369"><ele>118.0</ele><time>2026-04-25T12:34:33.024Z</time></trkpt><trkpt lat="45.87328859943719" lon="12.123800533983065"><ele>118.0</ele><time>2026-04-25T12:34:35.024Z</time></trkpt><trkpt lat="45.87330937020742" lon="12.123899961583513"><ele>118.00000000000001</ele><time>2026-04-25T12:34:36.024Z</time></trkpt><trkpt lat="45.873352126713016" lon="12.124088400541988"><ele>118.00000000000001</ele><time>2026-04-25T12:34:38.024Z</time></trkpt><trkpt lat="45.87337301237476" lon="12.124228531814865"><ele>118.0</ele><time>2026-04-25T12:34:39.024Z</time></trkpt><trkpt lat="45.873384895166154" lon="12.124342018600368"><ele>118.0</ele><time>2026-04-25T12:34:40.024Z</time></trkpt><trkpt lat="45.87339290189116" lon="12.124468803170465"><ele>117.66666666666667</ele><time>2026-04-25T12:34:41.024Z</time></trkpt><trkpt lat="45.873415336629996" lon="12.124586416739051"><ele>117.33333333333334</ele><time>2026-04-25T12:34:42.024Z</time></trkpt><trkpt lat="45.87341701264353" lon="12.124702567258515"><ele>117.0</ele><time>2026-04-25T12:34:43.024Z</time></trkpt><trkpt lat="45.873422797649326" lon="12.124819015192083"><ele>116.66666666666666</ele><time>2026-04-25T12:34:44.024Z</time></trkpt><trkpt lat="45.87343280685223" lon="12.124919059991917"><ele>116.33333333333333</ele><time>2026-04-25T12:34:45.024Z</time></trkpt><trkpt lat="45.87342860546701" lon="12.125033508374628"><ele>116.0</ele><time>2026-04-25T12:34:46.024Z</time></trkpt><trkpt lat="45.873428936484025" lon="12.125147621193106"><ele>116.0</ele><time>2026-04-25T12:34:47.024Z</time></trkpt><trkpt lat="45.87342262502316" lon="12.125244764544192"><ele>116.0</ele><time>2026-04-25T12:34:48.024Z</time></trkpt><trkpt lat="45.87342245885513" lon="12.125358453401327"><ele>116.0</ele><time>2026-04-25T12:34:49.024Z</time></trkpt><trkpt lat="45.87343623393364" lon="12.125511354253577"><ele>116.0</ele><time>2026-04-25T12:34:51.024Z</time></trkpt><trkpt lat="45.87342071517844" lon="12.125666753279331"><ele>116.0</ele><time>2026-04-25T12:34:53.024Z</time></trkpt><trkpt lat="45.87338617913443" lon="12.125800684642417"><ele>115.49999999999999</ele><time>2026-04-25T12:34:55.024Z</time></trkpt><trkpt lat="45.873329242256474" lon="12.125891373561235"><ele>115.0</ele><time>2026-04-25T12:34:57.024Z</time></trkpt><trkpt lat="45.873264519816466" lon="12.125932825733079"><ele>114.5</ele><time>2026-04-25T12:34:59.024Z</time></trkpt><trkpt lat="45.873178040773396" lon="12.125950713367112"><ele>114.0</ele><time>2026-04-25T12:35:02.024Z</time></trkpt><trkpt lat="45.873075523238136" lon="12.125965126067207"><ele>113.49999999999999</ele><time>2026-04-25T12:35:03.024Z</time></trkpt><trkpt lat="45.87298144682206" lon="12.125988293479914"><ele>113.0</ele><time>2026-04-25T12:35:04.024Z</time></trkpt><trkpt lat="45.87291056953625" lon="12.126005545317675"><ele>113.0</ele><time>2026-04-25T12:35:05.024Z</time></trkpt><trkpt lat="45.872841103623294" lon="12.126016148462007"><ele>113.0</ele><time>2026-04-25T12:35:06.024Z</time></trkpt><trkpt lat="45.872773145468905" lon="12.126021743591533"><ele>113.0</ele><time>2026-04-25T12:35:07.024Z</time></trkpt><trkpt lat="45.872702267457036" lon="12.126021628540062"><ele>113.0</ele><time>2026-04-25T12:35:08.025Z</time></trkpt><trkpt lat="45.87262038003452" lon="12.126018283793593"><ele>113.0</ele><time>2026-04-25T12:35:09.025Z</time></trkpt><trkpt lat="45.87255522414282" lon="12.126048054491367"><ele>113.0</ele><time>2026-04-25T12:35:10.025Z</time></trkpt><trkpt lat="45.87247907843861" lon="12.126104481416869"><ele>113.0</ele><time>2026-04-25T12:35:11.025Z</time></trkpt><trkpt lat="45.872406335633585" lon="12.126161817636174"><ele>113.16666666666666</ele><time>2026-04-25T12:35:12.025Z</time></trkpt><trkpt lat="45.87234072209204" lon="12.126218043499739"><ele>113.33333333333333</ele><time>2026-04-25T12:35:13.025Z</time></trkpt><trkpt lat="45.87229135711424" lon="12.126308591001992"><ele>113.5</ele><time>2026-04-25T12:35:14.025Z</time></trkpt><trkpt lat="45.872248896859965" lon="12.126381448358961"><ele>113.66666666666666</ele><time>2026-04-25T12:35:15.025Z</time></trkpt><trkpt lat="45.8721746544167" lon="12.126523714425666"><ele>113.83333333333333</ele><time>2026-04-25T12:35:17.026Z</time></trkpt><trkpt lat="45.87213404406785" lon="12.126601139437525"><ele>114.0</ele><time>2026-04-25T12:35:18.025Z</time></trkpt><trkpt lat="45.87206432511569" lon="12.126763521679077"><ele>114.0</ele><time>2026-04-25T12:35:20.025Z</time></trkpt><trkpt lat="45.872030988152964" lon="12.126860541209243"><ele>114.0</ele><time>2026-04-25T12:35:21.026Z</time></trkpt><trkpt lat="45.871956395831525" lon="12.126947044828103"><ele>114.0</ele><time>2026-04-25T12:35:22.026Z</time></trkpt><trkpt lat="45.87190522885695" lon="12.127041852749699"><ele>114.0</ele><time>2026-04-25T12:35:23.026Z</time></trkpt><trkpt lat="45.87186904233687" lon="12.127150415217303"><ele>114.0</ele><time>2026-04-25T12:35:24.026Z</time></trkpt><trkpt lat="45.87182941787406" lon="12.127249360995236"><ele>114.0</ele><time>2026-04-25T12:35:25.026Z</time></trkpt><trkpt lat="45.8717962296874" lon="12.127338781500745"><ele>114.0</ele><time>2026-04-25T12:35:26.026Z</time></trkpt><trkpt lat="45.87175944870161" lon="12.127437555909431"><ele>114.0</ele><time>2026-04-25T12:35:27.026Z</time></trkpt><trkpt lat="45.87172688260186" lon="12.127537294419417"><ele>114.0</ele><time>2026-04-25T12:35:28.026Z</time></trkpt><trkpt lat="45.87169682957454" lon="12.127638434992795"><ele>114.0</ele><time>2026-04-25T12:35:29.026Z</time></trkpt><trkpt lat="45.87166076709153" lon="12.127737422783051"><ele>114.0</ele><time>2026-04-25T12:35:30.026Z</time></trkpt><trkpt lat="45.87163410036769" lon="12.127832595850844"><ele>114.0</ele><time>2026-04-25T12:35:31.026Z</time></trkpt><trkpt lat="45.87161304965375" lon="12.127929914432096"><ele>114.0</ele><time>2026-04-25T12:35:32.026Z</time></trkpt><trkpt lat="45.871592457985756" lon="12.128025786143807"><ele>114.0</ele><time>2026-04-25T12:35:33.026Z</time></trkpt><trkpt lat="45.87158389172811" lon="12.128125064091261"><ele>114.0</ele><time>2026-04-25T12:35:34.026Z</time></trkpt><trkpt lat="45.871579157313036" lon="12.128225068296924"><ele>114.0</ele><time>2026-04-25T12:35:35.026Z</time></trkpt><trkpt lat="45.87156945213522" lon="12.12840541346452"><ele>114.0</ele><time>2026-04-25T12:35:37.026Z</time></trkpt><trkpt lat="45.87156790560049" lon="12.12858230590903"><ele>113.83333333333333</ele><time>2026-04-25T12:35:39.026Z</time></trkpt><trkpt lat="45.871566334333366" lon="12.128675239992349"><ele>113.66666666666666</ele><time>2026-04-25T12:35:40.026Z</time></trkpt><trkpt lat="45.87155677617889" lon="12.128802438291274"><ele>113.5</ele><time>2026-04-25T12:35:43.026Z</time></trkpt><trkpt lat="45.87155469170362" lon="12.128948096428303"><ele>113.33333333333333</ele><time>2026-04-25T12:35:45.026Z</time></trkpt><trkpt lat="45.871548389507836" lon="12.129066823669886"><ele>113.16666666666666</ele><time>2026-04-25T12:35:46.026Z</time></trkpt><trkpt lat="45.87154650823232" lon="12.12916802645154"><ele>113.0</ele><time>2026-04-25T12:35:47.026Z</time></trkpt><trkpt lat="45.87153452371109" lon="12.129332408131399"><ele>113.0</ele><time>2026-04-25T12:35:49.026Z</time></trkpt><trkpt lat="45.871501593252376" lon="12.129470964431963"><ele>113.00000000000001</ele><time>2026-04-25T12:35:51.026Z</time></trkpt><trkpt lat="45.87147882135145" lon="12.12962122702888"><ele>113.00000000000001</ele><time>2026-04-25T12:35:53.026Z</time></trkpt><trkpt lat="45.87141196842724" lon="12.129761218964118"><ele>113.0</ele><time>2026-04-25T12:35:55.026Z</time></trkpt><trkpt lat="45.87136312757872" lon="12.129890827616562"><ele>113.0</ele><time>2026-04-25T12:35:57.026Z</time></trkpt><trkpt lat="45.87134888155292" lon="12.130006143226712"><ele>113.60000000000001</ele><time>2026-04-25T12:35:59.026Z</time></trkpt><trkpt lat="45.8713404695127" lon="12.130117851626226"><ele>114.20000000000002</ele><time>2026-04-25T12:36:02.026Z</time></trkpt><trkpt lat="45.871360950855674" lon="12.130255366733069"><ele>114.8</ele><time>2026-04-25T12:36:04.026Z</time></trkpt><trkpt lat="45.87143042263936" lon="12.130350037290691"><ele>115.4</ele><time>2026-04-25T12:36:06.026Z</time></trkpt><trkpt lat="45.87150682082104" lon="12.130438592303465"><ele>116.0</ele><time>2026-04-25T12:36:08.026Z</time></trkpt><trkpt lat="45.871587456410936" lon="12.13053874242324"><ele>116.0</ele><time>2026-04-25T12:36:10.026Z</time></trkpt><trkpt lat="45.87166024422624" lon="12.130629074961693"><ele>116.0</ele><time>2026-04-25T12:36:12.026Z</time></trkpt><trkpt lat="45.87173317790688" lon="12.130725628221796"><ele>116.0</ele><time>2026-04-25T12:36:14.026Z</time></trkpt><trkpt lat="45.87181639007993" lon="12.130843839968348"><ele>116.0</ele><time>2026-04-25T12:36:16.026Z</time></trkpt><trkpt lat="45.87187745439292" lon="12.13095024431803"><ele>116.0</ele><time>2026-04-25T12:36:18.026Z</time></trkpt><trkpt lat="45.87195657509611" lon="12.131040461590661"><ele>116.0</ele><time>2026-04-25T12:36:20.026Z</time></trkpt><trkpt lat="45.872025203768935" lon="12.131125212124546"><ele>116.0</ele><time>2026-04-25T12:36:22.026Z</time></trkpt><trkpt lat="45.87212397563901" lon="12.131242361559437"><ele>116.0</ele><time>2026-04-25T12:36:24.026Z</time></trkpt><trkpt lat="45.872171530299184" lon="12.131301946092318"><ele>116.0</ele><time>2026-04-25T12:36:25.026Z</time></trkpt><trkpt lat="45.872249540461624" lon="12.131424620952682"><ele>116.0</ele><time>2026-04-25T12:36:27.026Z</time></trkpt><trkpt lat="45.87227672757847" lon="12.131559894959993"><ele>116.0</ele><time>2026-04-25T12:36:29.026Z</time></trkpt><trkpt lat="45.87220579646102" lon="12.131660976665344"><ele>116.0</ele><time>2026-04-25T12:36:31.026Z</time></trkpt><trkpt lat="45.87208320340468" lon="12.131814976065263"><ele>116.0</ele><time>2026-04-25T12:36:34.026Z</time></trkpt><trkpt lat="45.87202864703156" lon="12.131940840316304"><ele>116.0</ele><time>2026-04-25T12:36:36.026Z</time></trkpt><trkpt lat="45.8719531191145" lon="12.132055463326763"><ele>116.0</ele><time>2026-04-25T12:36:38.026Z</time></trkpt><trkpt lat="45.87189807104599" lon="12.13219374430771"><ele>116.0</ele><time>2026-04-25T12:36:40.026Z</time></trkpt><trkpt lat="45.87184541168908" lon="12.132302208217656"><ele>116.0</ele><time>2026-04-25T12:36:42.026Z</time></trkpt><trkpt lat="45.871777134295144" lon="12.132435492316393"><ele>116.0</ele><time>2026-04-25T12:36:44.026Z</time></trkpt><trkpt lat="45.87170966222292" lon="12.13253135452445"><ele>116.0</ele><time>2026-04-25T12:36:46.026Z</time></trkpt><trkpt lat="45.87164709781863" lon="12.132650757611193"><ele>115.8</ele><time>2026-04-25T12:36:48.026Z</time></trkpt><trkpt lat="45.87159646251409" lon="12.132769755741975"><ele>115.6</ele><time>2026-04-25T12:36:50.026Z</time></trkpt><trkpt lat="45.87153583366206" lon="12.132890793257621"><ele>115.4</ele><time>2026-04-25T12:36:52.026Z</time></trkpt><trkpt lat="45.871464042176584" lon="12.13301698546797"><ele>115.2</ele><time>2026-04-25T12:36:54.026Z</time></trkpt><trkpt lat="45.87140339389697" lon="12.133158319863313"><ele>115.0</ele><time>2026-04-25T12:36:56.026Z</time></trkpt><trkpt lat="45.87134104633901" lon="12.133294304667249"><ele>115.0</ele><time>2026-04-25T12:36:58.026Z</time></trkpt><trkpt lat="45.87128114810421" lon="12.133417159667218"><ele>115.0</ele><time>2026-04-25T12:37:00.026Z</time></trkpt><trkpt lat="45.87119991297567" lon="12.133531560529676"><ele>115.0</ele><time>2026-04-25T12:37:02.026Z</time></trkpt><trkpt lat="45.87110314207961" lon="12.13362898671728"><ele>115.0</ele><time>2026-04-25T12:37:04.026Z</time></trkpt><trkpt lat="45.87099845222892" lon="12.13365909763183"><ele>115.0</ele><time>2026-04-25T12:37:06.026Z</time></trkpt><trkpt lat="45.8709297480398" lon="12.133684041812769"><ele>114.8</ele><time>2026-04-25T12:37:08.026Z</time></trkpt><trkpt lat="45.87081147039893" lon="12.133690504469302"><ele>114.6</ele><time>2026-04-25T12:37:10.026Z</time></trkpt><trkpt lat="45.87069984523954" lon="12.133694261931906"><ele>114.4</ele><time>2026-04-25T12:37:12.026Z</time></trkpt><trkpt lat="45.87060923894267" lon="12.133697853754112"><ele>114.2</ele><time>2026-04-25T12:37:13.026Z</time></trkpt><trkpt lat="45.87053382166921" lon="12.13369493677217"><ele>114.0</ele><time>2026-04-25T12:37:14.026Z</time></trkpt><trkpt lat="45.87046352616321" lon="12.133705083768742"><ele>114.0</ele><time>2026-04-25T12:37:15.027Z</time></trkpt><trkpt lat="45.870392639573225" lon="12.133717924989385"><ele>114.0</ele><time>2026-04-25T12:37:16.027Z</time></trkpt><trkpt lat="45.870327971924986" lon="12.13373479703451"><ele>114.0</ele><time>2026-04-25T12:37:17.026Z</time></trkpt><trkpt lat="45.87022204466319" lon="12.133795471041251"><ele>114.0</ele><time>2026-04-25T12:37:19.026Z</time></trkpt><trkpt lat="45.870160974258646" lon="12.133836877005807"><ele>114.0</ele><time>2026-04-25T12:37:20.026Z</time></trkpt><trkpt lat="45.87009378067079" lon="12.133895626589045"><ele>114.0</ele><time>2026-04-25T12:37:21.026Z</time></trkpt><trkpt lat="45.87004412270769" lon="12.133954319145351"><ele>113.66666666666667</ele><time>2026-04-25T12:37:22.026Z</time></trkpt><trkpt lat="45.86998463105158" lon="12.134034392920482"><ele>113.33333333333334</ele><time>2026-04-25T12:37:23.026Z</time></trkpt><trkpt lat="45.86989549386772" lon="12.134157710795149"><ele>113.0</ele><time>2026-04-25T12:37:25.026Z</time></trkpt><trkpt lat="45.86985918558666" lon="12.13423528112734"><ele>112.66666666666667</ele><time>2026-04-25T12:37:26.026Z</time></trkpt><trkpt lat="45.86981217204835" lon="12.134299728301803"><ele>112.33333333333334</ele><time>2026-04-25T12:37:27.027Z</time></trkpt><trkpt lat="45.86976342877433" lon="12.134359813016196"><ele>112.0</ele><time>2026-04-25T12:37:28.027Z</time></trkpt><trkpt lat="45.869676530723275" lon="12.134504639142193"><ele>112.0</ele><time>2026-04-25T12:37:30.027Z</time></trkpt><trkpt lat="45.86963429252926" lon="12.134599430930619"><ele>112.0</ele><time>2026-04-25T12:37:31.027Z</time></trkpt><trkpt lat="45.869587646392176" lon="12.134682298207089"><ele>112.0</ele><time>2026-04-25T12:37:32.027Z</time></trkpt><trkpt lat="45.86953755898997" lon="12.134758306951346"><ele>112.0</ele><time>2026-04-25T12:37:33.027Z</time></trkpt><trkpt lat="45.86948180334669" lon="12.134823223593514"><ele>112.0</ele><time>2026-04-25T12:37:34.027Z</time></trkpt><trkpt lat="45.8694327733354" lon="12.134898300623432"><ele>112.0</ele><time>2026-04-25T12:37:35.027Z</time></trkpt><trkpt lat="45.8693873684768" lon="12.134977078000668"><ele>112.0</ele><time>2026-04-25T12:37:36.027Z</time></trkpt><trkpt lat="45.86929542363584" lon="12.135100865985224"><ele>111.85714285714286</ele><time>2026-04-25T12:37:38.027Z</time></trkpt><trkpt lat="45.86925895787958" lon="12.135187803001418"><ele>111.71428571428572</ele><time>2026-04-25T12:37:39.027Z</time></trkpt><trkpt lat="45.869220517305706" lon="12.135262765145734"><ele>111.57142857142857</ele><time>2026-04-25T12:37:40.027Z</time></trkpt><trkpt lat="45.86917023721634" lon="12.13533379268448"><ele>111.42857142857143</ele><time>2026-04-25T12:37:41.027Z</time></trkpt><trkpt lat="45.86912532185523" lon="12.135413947966294"><ele>111.28571428571429</ele><time>2026-04-25T12:37:42.027Z</time></trkpt><trkpt lat="45.86907773751179" lon="12.135486555709504"><ele>111.14285714285714</ele><time>2026-04-25T12:37:43.027Z</time></trkpt><trkpt lat="45.869038982528735" lon="12.135564770021102"><ele>111.0</ele><time>2026-04-25T12:37:44.027Z</time></trkpt><trkpt lat="45.86899790744888" lon="12.135644110768178"><ele>111.0</ele><time>2026-04-25T12:37:45.027Z</time></trkpt><trkpt lat="45.868955952627324" lon="12.135719378857132"><ele>111.0</ele><time>2026-04-25T12:37:46.027Z</time></trkpt><trkpt lat="45.868912118595176" lon="12.135797621239472"><ele>111.0</ele><time>2026-04-25T12:37:47.027Z</time></trkpt><trkpt lat="45.8688663914174" lon="12.135865398133623"><ele>111.0</ele><time>2026-04-25T12:37:48.027Z</time></trkpt><trkpt lat="45.868821696451036" lon="12.135934964934304"><ele>111.0</ele><time>2026-04-25T12:37:49.027Z</time></trkpt><trkpt lat="45.868778931901424" lon="12.136011318389476"><ele>111.0</ele><time>2026-04-25T12:37:50.027Z</time></trkpt><trkpt lat="45.86869714318754" lon="12.136146972104184"><ele>111.0</ele><time>2026-04-25T12:37:52.027Z</time></trkpt><trkpt lat="45.868649104035796" lon="12.136215502512526"><ele>111.0</ele><time>2026-04-25T12:37:53.027Z</time></trkpt><trkpt lat="45.868559966491354" lon="12.136348895835342"><ele>111.0</ele><time>2026-04-25T12:37:55.027Z</time></trkpt><trkpt lat="45.86851231582131" lon="12.136418963373043"><ele>111.0</ele><time>2026-04-25T12:37:56.027Z</time></trkpt><trkpt lat="45.86846754421421" lon="12.136494359862573"><ele>111.0</ele><time>2026-04-25T12:37:57.027Z</time></trkpt><trkpt lat="45.86842000653527" lon="12.136557594575194"><ele>111.0</ele><time>2026-04-25T12:37:58.027Z</time></trkpt><trkpt lat="45.86837546017638" lon="12.13662436605505"><ele>111.0</ele><time>2026-04-25T12:37:59.027Z</time></trkpt><trkpt lat="45.86832651618887" lon="12.13670547806278"><ele>111.0</ele><time>2026-04-25T12:38:00.027Z</time></trkpt><trkpt lat="45.86827998213244" lon="12.136772090143477"><ele>111.0</ele><time>2026-04-25T12:38:01.027Z</time></trkpt><trkpt lat="45.868231362638134" lon="12.136844938920431"><ele>111.0</ele><time>2026-04-25T12:38:02.027Z</time></trkpt><trkpt lat="45.868180210762866" lon="12.13691506307981"><ele>111.0</ele><time>2026-04-25T12:38:03.027Z</time></trkpt><trkpt lat="45.86813391313589" lon="12.136992121531945"><ele>111.0</ele><time>2026-04-25T12:38:04.027Z</time></trkpt><trkpt lat="45.868090319921095" lon="12.137059428963886"><ele>111.0</ele><time>2026-04-25T12:38:05.027Z</time></trkpt><trkpt lat="45.868041249724875" lon="12.137127200752307"><ele>111.0</ele><time>2026-04-25T12:38:06.027Z</time></trkpt><trkpt lat="45.867991555397275" lon="12.13719810109304"><ele>111.0</ele><time>2026-04-25T12:38:07.027Z</time></trkpt><trkpt lat="45.867943175891426" lon="12.13727537058906"><ele>111.0</ele><time>2026-04-25T12:38:08.027Z</time></trkpt><trkpt lat="45.867894482678786" lon="12.137351154158129"><ele>111.0</ele><time>2026-04-25T12:38:09.027Z</time></trkpt><trkpt lat="45.86780497449248" lon="12.137463664218425"><ele>111.0</ele><time>2026-04-25T12:38:11.027Z</time></trkpt><trkpt lat="45.8677593746046" lon="12.137527091865284"><ele>111.0</ele><time>2026-04-25T12:38:12.027Z</time></trkpt><trkpt lat="45.867708933141245" lon="12.137603005587026"><ele>111.28571428571428</ele><time>2026-04-25T12:38:13.027Z</time></trkpt><trkpt lat="45.86765787680849" lon="12.137674473413245"><ele>111.57142857142858</ele><time>2026-04-25T12:38:14.027Z</time></trkpt><trkpt lat="45.86761234781614" lon="12.137741567132323"><ele>111.85714285714286</ele><time>2026-04-25T12:38:15.027Z</time></trkpt><trkpt lat="45.867566915810634" lon="12.137806225517329"><ele>112.14285714285714</ele><time>2026-04-25T12:38:16.027Z</time></trkpt><trkpt lat="45.867524408546636" lon="12.137884129315117"><ele>112.42857142857142</ele><time>2026-04-25T12:38:17.027Z</time></trkpt><trkpt lat="45.86747503768949" lon="12.137956981643383"><ele>112.71428571428572</ele><time>2026-04-25T12:38:18.027Z</time></trkpt><trkpt lat="45.867423466646855" lon="12.138033953259878"><ele>113.0</ele><time>2026-04-25T12:38:19.027Z</time></trkpt><trkpt lat="45.86737456430078" lon="12.138099608383841"><ele>112.99999999999999</ele><time>2026-04-25T12:38:20.027Z</time></trkpt><trkpt lat="45.8673235811479" lon="12.138165933596694"><ele>113.0</ele><time>2026-04-25T12:38:21.027Z</time></trkpt><trkpt lat="45.86727278310143" lon="12.138245696321027"><ele>113.0</ele><time>2026-04-25T12:38:22.027Z</time></trkpt><trkpt lat="45.8672200922751" lon="12.138320286349236"><ele>113.0</ele><time>2026-04-25T12:38:23.027Z</time></trkpt><trkpt lat="45.8671683567807" lon="12.138404677602896"><ele>112.99999999999999</ele><time>2026-04-25T12:38:24.027Z</time></trkpt><trkpt lat="45.86711436827637" lon="12.138488887464307"><ele>113.0</ele><time>2026-04-25T12:38:25.027Z</time></trkpt><trkpt lat="45.86705428797289" lon="12.13855957228419"><ele>113.16666666666666</ele><time>2026-04-25T12:38:26.027Z</time></trkpt><trkpt lat="45.86699115337682" lon="12.138632655515021"><ele>113.33333333333333</ele><time>2026-04-25T12:38:27.027Z</time></trkpt><trkpt lat="45.8669229245906" lon="12.138690509318364"><ele>113.5</ele><time>2026-04-25T12:38:28.027Z</time></trkpt><trkpt lat="45.866850956866756" lon="12.13874963237294"><ele>113.66666666666666</ele><time>2026-04-25T12:38:29.027Z</time></trkpt><trkpt lat="45.866787389631334" lon="12.138798427668638"><ele>113.83333333333333</ele><time>2026-04-25T12:38:30.027Z</time></trkpt><trkpt lat="45.866718931381406" lon="12.1388519723218"><ele>114.0</ele><time>2026-04-25T12:38:31.027Z</time></trkpt><trkpt lat="45.866641628396046" lon="12.138903982271696"><ele>113.28571428571428</ele><time>2026-04-25T12:38:32.027Z</time></trkpt><trkpt lat="45.866580844557866" lon="12.138956481951867"><ele>112.57142857142856</ele><time>2026-04-25T12:38:33.027Z</time></trkpt><trkpt lat="45.866514468607235" lon="12.139014602747096"><ele>111.85714285714286</ele><time>2026-04-25T12:38:34.027Z</time></trkpt><trkpt lat="45.866457435161735" lon="12.139062521795116"><ele>111.14285714285714</ele><time>2026-04-25T12:38:35.027Z</time></trkpt><trkpt lat="45.86639726496056" lon="12.139122784878598"><ele>110.42857142857143</ele><time>2026-04-25T12:38:36.027Z</time></trkpt><trkpt lat="45.86633295524256" lon="12.139174210234534"><ele>109.71428571428572</ele><time>2026-04-25T12:38:37.027Z</time></trkpt><trkpt lat="45.86627421051213" lon="12.139224446096822"><ele>109.0</ele><time>2026-04-25T12:38:38.027Z</time></trkpt><trkpt lat="45.86621899825335" lon="12.139286234670017"><ele>109.00000000000001</ele><time>2026-04-25T12:38:39.027Z</time></trkpt><trkpt lat="45.86616667310066" lon="12.139347997226652"><ele>109.0</ele><time>2026-04-25T12:38:40.027Z</time></trkpt><trkpt lat="45.86611564618015" lon="12.139413492212528"><ele>109.0</ele><time>2026-04-25T12:38:41.027Z</time></trkpt><trkpt lat="45.86606755768705" lon="12.139472926966798"><ele>109.0</ele><time>2026-04-25T12:38:42.027Z</time></trkpt><trkpt lat="45.86600157038509" lon="12.139563850228875"><ele>109.00000000000001</ele><time>2026-04-25T12:38:44.027Z</time></trkpt><trkpt lat="45.86591221914801" lon="12.139543861459485"><ele>109.0</ele><time>2026-04-25T12:38:46.027Z</time></trkpt><trkpt lat="45.865818559668426" lon="12.139435955192457"><ele>109.0</ele><time>2026-04-25T12:38:48.027Z</time></trkpt><trkpt lat="45.86572993183463" lon="12.139336638960984"><ele>109.0</ele><time>2026-04-25T12:38:50.027Z</time></trkpt><trkpt lat="45.86562880741539" lon="12.139235738341583"><ele>109.0</ele><time>2026-04-25T12:38:52.027Z</time></trkpt><trkpt lat="45.86552105295098" lon="12.139132956831912"><ele>109.0</ele><time>2026-04-25T12:38:54.027Z</time></trkpt><trkpt lat="45.8654349786094" lon="12.139057373302807"><ele>109.0</ele><time>2026-04-25T12:38:56.027Z</time></trkpt><trkpt lat="45.865328423892095" lon="12.139063711615146"><ele>109.0</ele><time>2026-04-25T12:38:58.027Z</time></trkpt><trkpt lat="45.86521570195674" lon="12.13911299708759"><ele>109.0</ele><time>2026-04-25T12:39:00.027Z</time></trkpt><trkpt lat="45.86509781641593" lon="12.13915390649355"><ele>109.0</ele><time>2026-04-25T12:39:02.027Z</time></trkpt><trkpt lat="45.86503141852728" lon="12.139127655516914"><ele>109.0</ele><time>2026-04-25T12:39:04.027Z</time></trkpt><trkpt lat="45.864951304455744" lon="12.13912528959455"><ele>108.66666666666667</ele><time>2026-04-25T12:39:05.027Z</time></trkpt><trkpt lat="45.86483748558575" lon="12.139103422712981"><ele>108.33333333333334</ele><time>2026-04-25T12:39:07.027Z</time></trkpt><trkpt lat="45.864770937085225" lon="12.139107816745682"><ele>108.0</ele><time>2026-04-25T12:39:08.027Z</time></trkpt><trkpt lat="45.86470489933243" lon="12.139132249544375"><ele>107.66666666666666</ele><time>2026-04-25T12:39:09.027Z</time></trkpt><trkpt lat="45.86462379204725" lon="12.139211132029015"><ele>107.33333333333333</ele><time>2026-04-25T12:39:11.027Z</time></trkpt><trkpt lat="45.86456215145221" lon="12.139252569883872"><ele>107.0</ele><time>2026-04-25T12:39:12.027Z</time></trkpt><trkpt lat="45.8645080603192" lon="12.139308277950875"><ele>107.0</ele><time>2026-04-25T12:39:13.027Z</time></trkpt><trkpt lat="45.86438864735936" lon="12.139394428573283"><ele>106.99999999999999</ele><time>2026-04-25T12:39:15.027Z</time></trkpt><trkpt lat="45.864333962264155" lon="12.139445287115002"><ele>106.99999999999999</ele><time>2026-04-25T12:39:16.027Z</time></trkpt><trkpt lat="45.86424265406407" lon="12.139503966481877"><ele>107.0</ele><time>2026-04-25T12:39:18.027Z</time></trkpt><trkpt lat="45.8641747669799" lon="12.139547088035824"><ele>107.0</ele><time>2026-04-25T12:39:19.027Z</time></trkpt><trkpt lat="45.86408938098149" lon="12.139619192481502"><ele>106.99999999999999</ele><time>2026-04-25T12:39:21.027Z</time></trkpt><trkpt lat="45.864016097601514" lon="12.139671120236645"><ele>107.0</ele><time>2026-04-25T12:39:23.028Z</time></trkpt><trkpt lat="45.86395089574657" lon="12.139757830417441"><ele>107.0</ele><time>2026-04-25T12:39:25.028Z</time></trkpt><trkpt lat="45.863886146047605" lon="12.139823925664452"><ele>107.0</ele><time>2026-04-25T12:39:26.028Z</time></trkpt><trkpt lat="45.86381326667182" lon="12.139866298532258"><ele>106.99999999999999</ele><time>2026-04-25T12:39:27.028Z</time></trkpt><trkpt lat="45.863752833641314" lon="12.139898398875495"><ele>107.0</ele><time>2026-04-25T12:39:28.028Z</time></trkpt><trkpt lat="45.86364405840647" lon="12.139959550367568"><ele>106.99999999999999</ele><time>2026-04-25T12:39:30.028Z</time></trkpt><trkpt lat="45.86356613251828" lon="12.139954337539736"><ele>107.0</ele><time>2026-04-25T12:39:31.028Z</time></trkpt><trkpt lat="45.86353437018496" lon="12.13982816398289"><ele>107.0</ele><time>2026-04-25T12:39:36.027Z</time></trkpt><trkpt lat="45.8634796959633" lon="12.139735284761533"><ele>107.0</ele><time>2026-04-25T12:39:38.027Z</time></trkpt><trkpt lat="45.86340146640231" lon="12.139668109999198"><ele>106.99999999999999</ele><time>2026-04-25T12:39:40.027Z</time></trkpt><trkpt lat="45.8633202710319" lon="12.139674363631118"><ele>107.0</ele><time>2026-04-25T12:39:42.027Z</time></trkpt><trkpt lat="45.86322827352008" lon="12.139798344484847"><ele>106.39999999999999</ele><time>2026-04-25T12:39:44.027Z</time></trkpt><trkpt lat="45.863173232060994" lon="12.139952896549604"><ele>105.79999999999998</ele><time>2026-04-25T12:39:46.027Z</time></trkpt><trkpt lat="45.86316433838971" lon="12.140097640033632"><ele>105.2</ele><time>2026-04-25T12:39:48.027Z</time></trkpt><trkpt lat="45.863149494289146" lon="12.14023695753302"><ele>104.6</ele><time>2026-04-25T12:39:50.027Z</time></trkpt><trkpt lat="45.86308997755519" lon="12.140383788375749"><ele>104.0</ele><time>2026-04-25T12:39:52.027Z</time></trkpt><trkpt lat="45.86299948608205" lon="12.140481023122097"><ele>104.0</ele><time>2026-04-25T12:39:54.027Z</time></trkpt><trkpt lat="45.86290024299394" lon="12.140554687320206"><ele>104.0</ele><time>2026-04-25T12:39:56.027Z</time></trkpt><trkpt lat="45.862791887387026" lon="12.140628849279402"><ele>104.0</ele><time>2026-04-25T12:39:58.027Z</time></trkpt><trkpt lat="45.8627300850788" lon="12.140668368722976"><ele>104.0</ele><time>2026-04-25T12:39:59.027Z</time></trkpt><trkpt lat="45.86261717870391" lon="12.140739736587774"><ele>104.0</ele><time>2026-04-25T12:40:01.027Z</time></trkpt><trkpt lat="45.86251920774979" lon="12.14080028249789"><ele>104.2</ele><time>2026-04-25T12:40:03.027Z</time></trkpt><trkpt lat="45.86245683630488" lon="12.14084342695641"><ele>104.4</ele><time>2026-04-25T12:40:04.027Z</time></trkpt><trkpt lat="45.86236558398212" lon="12.14089164773095"><ele>104.6</ele><time>2026-04-25T12:40:06.027Z</time></trkpt><trkpt lat="45.86223847171101" lon="12.140899106440866"><ele>104.8</ele><time>2026-04-25T12:40:08.027Z</time></trkpt><trkpt lat="45.86216961265871" lon="12.140898325474897"><ele>105.0</ele><time>2026-04-25T12:40:09.027Z</time></trkpt><trkpt lat="45.86203872120584" lon="12.140879665996687"><ele>105.0</ele><time>2026-04-25T12:40:11.027Z</time></trkpt><trkpt lat="45.861969073734414" lon="12.14086287660528"><ele>105.0</ele><time>2026-04-25T12:40:12.027Z</time></trkpt><trkpt lat="45.86190389858758" lon="12.140838763958381"><ele>105.0</ele><time>2026-04-25T12:40:13.027Z</time></trkpt><trkpt lat="45.86178417075994" lon="12.14078534515441"><ele>105.0</ele><time>2026-04-25T12:40:15.027Z</time></trkpt><trkpt lat="45.86169620777785" lon="12.140789609621084"><ele>105.0</ele><time>2026-04-25T12:40:16.027Z</time></trkpt><trkpt lat="45.8616184453775" lon="12.140810963913616"><ele>105.0</ele><time>2026-04-25T12:40:17.027Z</time></trkpt><trkpt lat="45.86154750530605" lon="12.140829005862543"><ele>105.0</ele><time>2026-04-25T12:40:18.027Z</time></trkpt><trkpt lat="45.861455808311945" lon="12.140855890055281"><ele>105.0</ele><time>2026-04-25T12:40:20.027Z</time></trkpt><trkpt lat="45.861433273214594" lon="12.140953202716021"><ele>105.0</ele><time>2026-04-25T12:40:35.028Z</time></trkpt><trkpt lat="45.86143261767865" lon="12.14106611331102"><ele>105.0</ele><time>2026-04-25T12:40:40.028Z</time></trkpt><trkpt lat="45.86140166420375" lon="12.141173084731776"><ele>105.0</ele><time>2026-04-25T12:40:43.028Z</time></trkpt><trkpt lat="45.86138123983081" lon="12.141271990245308"><ele>105.0</ele><time>2026-04-25T12:40:46.028Z</time></trkpt><trkpt lat="45.86138161230264" lon="12.141376350011038"><ele>105.0</ele><time>2026-04-25T12:40:48.028Z</time></trkpt><trkpt lat="45.86139280005921" lon="12.141496957662792"><ele>105.0</ele><time>2026-04-25T12:40:50.028Z</time></trkpt><trkpt lat="45.861396605928256" lon="12.141656200790974"><ele>105.0</ele><time>2026-04-25T12:40:52.028Z</time></trkpt><trkpt lat="45.861407105068714" lon="12.141777289354998"><ele>105.0</ele><time>2026-04-25T12:40:53.028Z</time></trkpt><trkpt lat="45.86140656554652" lon="12.142001609507762"><ele>105.0</ele><time>2026-04-25T12:40:55.028Z</time></trkpt><trkpt lat="45.861403452703556" lon="12.142179434815692"><ele>105.0</ele><time>2026-04-25T12:40:57.028Z</time></trkpt><trkpt lat="45.861391250362054" lon="12.142270152063784"><ele>105.0</ele><time>2026-04-25T12:40:58.028Z</time></trkpt><trkpt lat="45.86136612356769" lon="12.142353056504898"><ele>105.0</ele><time>2026-04-25T12:40:59.028Z</time></trkpt><trkpt lat="45.861336116327806" lon="12.142438032585353"><ele>105.0</ele><time>2026-04-25T12:41:00.028Z</time></trkpt><trkpt lat="45.86131811508669" lon="12.142584097710229"><ele>105.0</ele><time>2026-04-25T12:41:02.028Z</time></trkpt><trkpt lat="45.8613031774962" lon="12.142673946881931"><ele>105.0</ele><time>2026-04-25T12:41:03.028Z</time></trkpt><trkpt lat="45.86125126708802" lon="12.1428172501447"><ele>104.83333333333333</ele><time>2026-04-25T12:41:05.028Z</time></trkpt><trkpt lat="45.86123239352086" lon="12.142920568602193"><ele>104.66666666666666</ele><time>2026-04-25T12:41:06.028Z</time></trkpt><trkpt lat="45.86121450156329" lon="12.14303893151084"><ele>104.5</ele><time>2026-04-25T12:41:07.028Z</time></trkpt><trkpt lat="45.86121232705688" lon="12.143158467755379"><ele>104.33333333333333</ele><time>2026-04-25T12:41:08.028Z</time></trkpt><trkpt lat="45.861216092272535" lon="12.143265220126294"><ele>104.16666666666666</ele><time>2026-04-25T12:41:09.028Z</time></trkpt><trkpt lat="45.86122082108141" lon="12.143435890017548"><ele>104.0</ele><time>2026-04-25T12:41:11.028Z</time></trkpt><trkpt lat="45.861224527252496" lon="12.14355940657672"><ele>103.66666666666666</ele><time>2026-04-25T12:41:12.028Z</time></trkpt><trkpt lat="45.86126002882515" lon="12.143668407817882"><ele>103.33333333333333</ele><time>2026-04-25T12:41:13.028Z</time></trkpt><trkpt lat="45.861285376026956" lon="12.143771850788786"><ele>103.0</ele><time>2026-04-25T12:41:14.028Z</time></trkpt><trkpt lat="45.86131801893232" lon="12.143870780211527"><ele>102.66666666666666</ele><time>2026-04-25T12:41:15.028Z</time></trkpt><trkpt lat="45.86136000454116" lon="12.143960886052332"><ele>102.33333333333333</ele><time>2026-04-25T12:41:16.028Z</time></trkpt><trkpt lat="45.861402298155475" lon="12.144066372800136"><ele>102.0</ele><time>2026-04-25T12:41:17.028Z</time></trkpt><trkpt lat="45.86143611586984" lon="12.144152839626143"><ele>102.0</ele><time>2026-04-25T12:41:18.028Z</time></trkpt><trkpt lat="45.861465244021765" lon="12.144236483321656"><ele>102.0</ele><time>2026-04-25T12:41:19.028Z</time></trkpt><trkpt lat="45.86150135070202" lon="12.144323344521002"><ele>102.0</ele><time>2026-04-25T12:41:20.028Z</time></trkpt><trkpt lat="45.861547393699716" lon="12.144396521679626"><ele>102.0</ele><time>2026-04-25T12:41:21.028Z</time></trkpt><trkpt lat="45.86159888283172" lon="12.144472460886062"><ele>102.0</ele><time>2026-04-25T12:41:22.028Z</time></trkpt><trkpt lat="45.86164831497456" lon="12.144542412911292"><ele>102.0</ele><time>2026-04-25T12:41:23.028Z</time></trkpt><trkpt lat="45.86169021948863" lon="12.144613824548427"><ele>102.0</ele><time>2026-04-25T12:41:24.028Z</time></trkpt><trkpt lat="45.861741994597025" lon="12.144688922887832"><ele>102.33333333333333</ele><time>2026-04-25T12:41:25.028Z</time></trkpt><trkpt lat="45.861789573773834" lon="12.14475578938316"><ele>102.66666666666666</ele><time>2026-04-25T12:41:26.029Z</time></trkpt><trkpt lat="45.86184281414162" lon="12.144828221068995"><ele>103.0</ele><time>2026-04-25T12:41:27.029Z</time></trkpt><trkpt lat="45.86188741475583" lon="12.14489835774149"><ele>103.33333333333333</ele><time>2026-04-25T12:41:28.029Z</time></trkpt><trkpt lat="45.86196753674036" lon="12.14501378153823"><ele>103.66666666666666</ele><time>2026-04-25T12:41:30.029Z</time></trkpt><trkpt lat="45.86201739487836" lon="12.14508110473468"><ele>104.0</ele><time>2026-04-25T12:41:31.029Z</time></trkpt><trkpt lat="45.862096329578485" lon="12.145167949750137"><ele>104.0</ele><time>2026-04-25T12:41:33.029Z</time></trkpt><trkpt lat="45.86217895672599" lon="12.145306008903036"><ele>104.0</ele><time>2026-04-25T12:41:35.029Z</time></trkpt><trkpt lat="45.86226725873238" lon="12.145419208050491"><ele>104.0</ele><time>2026-04-25T12:41:37.029Z</time></trkpt><trkpt lat="45.862358295401116" lon="12.14551208801745"><ele>104.0</ele><time>2026-04-25T12:41:39.029Z</time></trkpt><trkpt lat="45.862398347505895" lon="12.14561051672083"><ele>104.0</ele><time>2026-04-25T12:41:41.029Z</time></trkpt><trkpt lat="45.86235956729841" lon="12.145704947331216"><ele>104.66666666666666</ele><time>2026-04-25T12:41:44.029Z</time></trkpt><trkpt lat="45.86234016642765" lon="12.14581489762989"><ele>105.33333333333333</ele><time>2026-04-25T12:41:47.029Z</time></trkpt><trkpt lat="45.86231349146265" lon="12.145905378867054"><ele>106.0</ele><time>2026-04-25T12:41:52.029Z</time></trkpt><trkpt lat="45.86226554983436" lon="12.145987213781938"><ele>106.66666666666666</ele><time>2026-04-25T12:41:55.029Z</time></trkpt><trkpt lat="45.86220283244927" lon="12.146063505912919"><ele>107.33333333333333</ele><time>2026-04-25T12:41:58.029Z</time></trkpt><trkpt lat="45.86216975757953" lon="12.146161574326696"><ele>108.0</ele><time>2026-04-25T12:42:03.029Z</time></trkpt><trkpt lat="45.86212844156577" lon="12.146251678312852"><ele>108.0</ele><time>2026-04-25T12:42:07.029Z</time></trkpt><trkpt lat="45.862077649267356" lon="12.146321420499874"><ele>108.0</ele><time>2026-04-25T12:42:10.029Z</time></trkpt><trkpt lat="45.86200953008377" lon="12.146401091472866"><ele>108.0</ele><time>2026-04-25T12:42:13.029Z</time></trkpt><trkpt lat="45.861967997885536" lon="12.146473256263873"><ele>108.0</ele><time>2026-04-25T12:42:15.029Z</time></trkpt><trkpt lat="45.86192296604152" lon="12.146587848951492"><ele>108.0</ele><time>2026-04-25T12:42:18.029Z</time></trkpt><trkpt lat="45.86187868237601" lon="12.146686040020882"><ele>108.0</ele><time>2026-04-25T12:42:21.029Z</time></trkpt><trkpt lat="45.86188674492218" lon="12.14681130869185"><ele>108.66666666666667</ele><time>2026-04-25T12:42:24.029Z</time></trkpt><trkpt lat="45.861879944736536" lon="12.146941624827873"><ele>109.33333333333334</ele><time>2026-04-25T12:42:28.029Z</time></trkpt><trkpt lat="45.86187534292101" lon="12.147084082267666"><ele>110.0</ele><time>2026-04-25T12:42:30.029Z</time></trkpt><trkpt lat="45.86183545025608" lon="12.147176760798825"><ele>110.66666666666667</ele><time>2026-04-25T12:42:32.029Z</time></trkpt><trkpt lat="45.86183960943404" lon="12.147298303012208"><ele>111.33333333333334</ele><time>2026-04-25T12:42:35.029Z</time></trkpt><trkpt lat="45.86183224314056" lon="12.147416229213547"><ele>112.0</ele><time>2026-04-25T12:42:38.029Z</time></trkpt><trkpt lat="45.861763867861264" lon="12.14754148938844"><ele>112.19999999999999</ele><time>2026-04-25T12:42:41.029Z</time></trkpt><trkpt lat="45.86166422214429" lon="12.147657125680492"><ele>112.39999999999999</ele><time>2026-04-25T12:42:43.029Z</time></trkpt><trkpt lat="45.86160324227769" lon="12.147717905850424"><ele>112.60000000000001</ele><time>2026-04-25T12:42:44.029Z</time></trkpt><trkpt lat="45.86149466481357" lon="12.147826373255114"><ele>112.80000000000001</ele><time>2026-04-25T12:42:46.029Z</time></trkpt><trkpt lat="45.86143770525315" lon="12.147879307194886"><ele>113.0</ele><time>2026-04-25T12:42:47.029Z</time></trkpt><trkpt lat="45.861382236539875" lon="12.147926389820563"><ele>113.0</ele><time>2026-04-25T12:42:48.029Z</time></trkpt><trkpt lat="45.86132654540827" lon="12.147969997274496"><ele>113.0</ele><time>2026-04-25T12:42:49.029Z</time></trkpt><trkpt lat="45.861261470182676" lon="12.148019320898221"><ele>113.0</ele><time>2026-04-25T12:42:50.029Z</time></trkpt><trkpt lat="45.86117776254736" lon="12.148085644339165"><ele>113.0</ele><time>2026-04-25T12:42:51.029Z</time></trkpt><trkpt lat="45.86112119347791" lon="12.148132398367824"><ele>113.0</ele><time>2026-04-25T12:42:52.029Z</time></trkpt><trkpt lat="45.861048861002516" lon="12.148193248027043"><ele>113.0</ele><time>2026-04-25T12:42:53.029Z</time></trkpt><trkpt lat="45.86099025877009" lon="12.1482419019772"><ele>113.0</ele><time>2026-04-25T12:42:54.029Z</time></trkpt><trkpt lat="45.86088422593408" lon="12.14833341818644"><ele>113.33333333333333</ele><time>2026-04-25T12:42:56.029Z</time></trkpt><trkpt lat="45.860789700345045" lon="12.148423745196359"><ele>113.66666666666666</ele><time>2026-04-25T12:42:58.029Z</time></trkpt><trkpt lat="45.86072640135859" lon="12.14847950802318"><ele>114.0</ele><time>2026-04-25T12:43:01.029Z</time></trkpt><trkpt lat="45.860685263140056" lon="12.148582536142538"><ele>114.33333333333334</ele><time>2026-04-25T12:43:06.029Z</time></trkpt><trkpt lat="45.86061148078832" lon="12.148687451618319"><ele>114.66666666666667</ele><time>2026-04-25T12:43:09.029Z</time></trkpt><trkpt lat="45.860561854425825" lon="12.148751452416503"><ele>115.0</ele><time>2026-04-25T12:43:11.029Z</time></trkpt><trkpt lat="45.86052524315388" lon="12.14888061974039"><ele>115.0</ele><time>2026-04-25T12:43:14.029Z</time></trkpt><trkpt lat="45.86050562839086" lon="12.148989761227384"><ele>115.0</ele><time>2026-04-25T12:43:16.029Z</time></trkpt><trkpt lat="45.86049348143787" lon="12.149124103923757"><ele>115.0</ele><time>2026-04-25T12:43:18.029Z</time></trkpt><trkpt lat="45.86047810384313" lon="12.149253402637754"><ele>115.0</ele><time>2026-04-25T12:43:22.029Z</time></trkpt><trkpt lat="45.86046103309875" lon="12.149395645664551"><ele>115.0</ele><time>2026-04-25T12:43:24.029Z</time></trkpt><trkpt lat="45.8604484719264" lon="12.149520266176943"><ele>114.99999999999999</ele><time>2026-04-25T12:43:25.029Z</time></trkpt><trkpt lat="45.86044079080702" lon="12.149637646611328"><ele>115.0</ele><time>2026-04-25T12:43:26.029Z</time></trkpt><trkpt lat="45.860430644415516" lon="12.149739436614276"><ele>114.99999999999999</ele><time>2026-04-25T12:43:27.029Z</time></trkpt><trkpt lat="45.86042048528637" lon="12.149834740668846"><ele>114.99999999999999</ele><time>2026-04-25T12:43:28.029Z</time></trkpt><trkpt lat="45.86041657015451" lon="12.149931657616134"><ele>115.0</ele><time>2026-04-25T12:43:29.029Z</time></trkpt><trkpt lat="45.86040835661991" lon="12.150022180758471"><ele>114.99999999999999</ele><time>2026-04-25T12:43:30.029Z</time></trkpt><trkpt lat="45.86039423877874" lon="12.15011376258198"><ele>114.99999999999999</ele><time>2026-04-25T12:43:31.029Z</time></trkpt><trkpt lat="45.86036287247769" lon="12.150272857640145"><ele>114.6</ele><time>2026-04-25T12:43:33.031Z</time></trkpt><trkpt lat="45.86033044325956" lon="12.150464919841548"><ele>114.2</ele><time>2026-04-25T12:43:35.03Z</time></trkpt><trkpt lat="45.86031317137902" lon="12.150563044234922"><ele>113.80000000000001</ele><time>2026-04-25T12:43:36.03Z</time></trkpt><trkpt lat="45.86028669656305" lon="12.150649614359725"><ele>113.4</ele><time>2026-04-25T12:43:37.03Z</time></trkpt><trkpt lat="45.86025467163666" lon="12.150817155116432"><ele>113.0</ele><time>2026-04-25T12:43:39.031Z</time></trkpt><trkpt lat="45.86022290062937" lon="12.150985675466247"><ele>112.80000000000001</ele><time>2026-04-25T12:43:41.031Z</time></trkpt><trkpt lat="45.860187894685296" lon="12.151142709291722"><ele>112.60000000000001</ele><time>2026-04-25T12:43:43.03Z</time></trkpt><trkpt lat="45.8601562402316" lon="12.151298663558181"><ele>112.39999999999999</ele><time>2026-04-25T12:43:45.031Z</time></trkpt><trkpt lat="45.860125483840505" lon="12.151451072352888"><ele>112.19999999999999</ele><time>2026-04-25T12:43:47.031Z</time></trkpt><trkpt lat="45.86009509057629" lon="12.151594460053108"><ele>112.0</ele><time>2026-04-25T12:43:49.031Z</time></trkpt><trkpt lat="45.86006758551956" lon="12.151742392931391"><ele>112.6</ele><time>2026-04-25T12:43:51.031Z</time></trkpt><trkpt lat="45.860021383298786" lon="12.151881665553292"><ele>113.19999999999999</ele><time>2026-04-25T12:43:53.031Z</time></trkpt><trkpt lat="45.8599947964239" lon="12.152028416409342"><ele>113.8</ele><time>2026-04-25T12:43:55.031Z</time></trkpt><trkpt lat="45.85996955685916" lon="12.152183278408751"><ele>114.4</ele><time>2026-04-25T12:43:57.031Z</time></trkpt><trkpt lat="45.85993269473576" lon="12.152347095781353"><ele>115.0</ele><time>2026-04-25T12:43:59.031Z</time></trkpt><trkpt lat="45.85989910040898" lon="12.152499299646289"><ele>115.0</ele><time>2026-04-25T12:44:01.031Z</time></trkpt><trkpt lat="45.85986360652415" lon="12.152640841388079"><ele>115.0</ele><time>2026-04-25T12:44:03.031Z</time></trkpt><trkpt lat="45.859838453892614" lon="12.152791372971794"><ele>115.0</ele><time>2026-04-25T12:44:05.031Z</time></trkpt><trkpt lat="45.85979952360447" lon="12.152930227813359"><ele>115.0</ele><time>2026-04-25T12:44:07.031Z</time></trkpt><trkpt lat="45.85977573054916" lon="12.15306703882278"><ele>115.0</ele><time>2026-04-25T12:44:09.031Z</time></trkpt><trkpt lat="45.85974650040887" lon="12.153197355964467"><ele>115.0</ele><time>2026-04-25T12:44:11.031Z</time></trkpt><trkpt lat="45.85971755367701" lon="12.153342941201567"><ele>115.0</ele><time>2026-04-25T12:44:13.031Z</time></trkpt><trkpt lat="45.859689283672004" lon="12.15349212350349"><ele>115.0</ele><time>2026-04-25T12:44:15.031Z</time></trkpt><trkpt lat="45.859676941719364" lon="12.153651960063849"><ele>115.0</ele><time>2026-04-25T12:44:17.031Z</time></trkpt><trkpt lat="45.85965040970926" lon="12.15380283817684"><ele>115.0</ele><time>2026-04-25T12:44:19.031Z</time></trkpt><trkpt lat="45.85960296280941" lon="12.15395592996817"><ele>115.0</ele><time>2026-04-25T12:44:21.031Z</time></trkpt><trkpt lat="45.85956542160854" lon="12.154099937119529"><ele>115.0</ele><time>2026-04-25T12:44:23.031Z</time></trkpt><trkpt lat="45.85953453482114" lon="12.15425701258481"><ele>115.0</ele><time>2026-04-25T12:44:25.031Z</time></trkpt><trkpt lat="45.85949346621201" lon="12.154411875335304"><ele>115.0</ele><time>2026-04-25T12:44:27.031Z</time></trkpt><trkpt lat="45.85946773432415" lon="12.154579673614178"><ele>115.0</ele><time>2026-04-25T12:44:29.031Z</time></trkpt><trkpt lat="45.859432804984955" lon="12.15473800746996"><ele>115.0</ele><time>2026-04-25T12:44:31.031Z</time></trkpt><trkpt lat="45.85939420966647" lon="12.15489803635588"><ele>115.0</ele><time>2026-04-25T12:44:33.031Z</time></trkpt><trkpt lat="45.85936164614938" lon="12.155060089924863"><ele>115.0</ele><time>2026-04-25T12:44:35.031Z</time></trkpt><trkpt lat="45.85932900579181" lon="12.155216258817665"><ele>115.0</ele><time>2026-04-25T12:44:37.031Z</time></trkpt><trkpt lat="45.85929837437508" lon="12.155380214077347"><ele>115.0</ele><time>2026-04-25T12:44:39.031Z</time></trkpt><trkpt lat="45.85928108215452" lon="12.155469521720379"><ele>115.0</ele><time>2026-04-25T12:44:40.031Z</time></trkpt><trkpt lat="45.85924837247044" lon="12.155625907740815"><ele>115.0</ele><time>2026-04-25T12:44:42.031Z</time></trkpt><trkpt lat="45.8592218367326" lon="12.155785162083793"><ele>115.0</ele><time>2026-04-25T12:44:44.031Z</time></trkpt><trkpt lat="45.85918197738611" lon="12.155937006141599"><ele>115.0</ele><time>2026-04-25T12:44:46.031Z</time></trkpt><trkpt lat="45.85914642015409" lon="12.156087988287164"><ele>115.0</ele><time>2026-04-25T12:44:48.031Z</time></trkpt><trkpt lat="45.85911163609476" lon="12.156240885378269"><ele>115.0</ele><time>2026-04-25T12:44:50.031Z</time></trkpt><trkpt lat="45.85907685391709" lon="12.15637448626812"><ele>115.0</ele><time>2026-04-25T12:44:52.031Z</time></trkpt><trkpt lat="45.85905151106488" lon="12.156514128344009"><ele>115.0</ele><time>2026-04-25T12:44:54.031Z</time></trkpt><trkpt lat="45.859028705916955" lon="12.156669526092028"><ele>115.0</ele><time>2026-04-25T12:44:56.031Z</time></trkpt><trkpt lat="45.859008715474516" lon="12.156827120573325"><ele>115.0</ele><time>2026-04-25T12:44:58.031Z</time></trkpt><trkpt lat="45.858987387090224" lon="12.156979384205275"><ele>115.0</ele><time>2026-04-25T12:45:00.031Z</time></trkpt><trkpt lat="45.85898698080669" lon="12.157139490690806"><ele>115.0</ele><time>2026-04-25T12:45:02.031Z</time></trkpt><trkpt lat="45.858988818587775" lon="12.15727794334881"><ele>115.0</ele><time>2026-04-25T12:45:04.031Z</time></trkpt><trkpt lat="45.85900844958621" lon="12.157440691276575"><ele>115.00000000000001</ele><time>2026-04-25T12:45:06.031Z</time></trkpt><trkpt lat="45.85902320325585" lon="12.157606869207166"><ele>115.0</ele><time>2026-04-25T12:45:08.031Z</time></trkpt><trkpt lat="45.85903865283245" lon="12.15769834002996"><ele>115.0</ele><time>2026-04-25T12:45:09.031Z</time></trkpt><trkpt lat="45.85905379905768" lon="12.157846433850384"><ele>115.0</ele><time>2026-04-25T12:45:11.031Z</time></trkpt><trkpt lat="45.859080755395006" lon="12.157944132751792"><ele>115.00000000000001</ele><time>2026-04-25T12:45:12.031Z</time></trkpt><trkpt lat="45.85909308948039" lon="12.15803316505081"><ele>115.0</ele><time>2026-04-25T12:45:13.031Z</time></trkpt><trkpt lat="45.85910452023023" lon="12.15812395817809"><ele>114.85714285714283</ele><time>2026-04-25T12:45:14.031Z</time></trkpt><trkpt lat="45.85912460327577" lon="12.158218551531963"><ele>114.71428571428571</ele><time>2026-04-25T12:45:15.031Z</time></trkpt><trkpt lat="45.85914254824904" lon="12.158312167951394"><ele>114.57142857142856</ele><time>2026-04-25T12:45:16.031Z</time></trkpt><trkpt lat="45.85916199420652" lon="12.158403520696815"><ele>114.42857142857142</ele><time>2026-04-25T12:45:17.031Z</time></trkpt><trkpt lat="45.85917753221453" lon="12.158495284570618"><ele>114.28571428571428</ele><time>2026-04-25T12:45:18.031Z</time></trkpt><trkpt lat="45.85919856736349" lon="12.158588692239473"><ele>114.14285714285714</ele><time>2026-04-25T12:45:19.031Z</time></trkpt><trkpt lat="45.85921658324182" lon="12.158684818089263"><ele>114.0</ele><time>2026-04-25T12:45:20.031Z</time></trkpt><trkpt lat="45.859235251361085" lon="12.158781515237791"><ele>114.0</ele><time>2026-04-25T12:45:21.031Z</time></trkpt><trkpt lat="45.859265048118836" lon="12.158883992784428"><ele>113.99999999999999</ele><time>2026-04-25T12:45:22.031Z</time></trkpt><trkpt lat="45.85928284097905" lon="12.1589846797923"><ele>114.0</ele><time>2026-04-25T12:45:23.031Z</time></trkpt><trkpt lat="45.859301829150276" lon="12.159085408116198"><ele>114.0</ele><time>2026-04-25T12:45:24.031Z</time></trkpt><trkpt lat="45.859327516486495" lon="12.159184490089931"><ele>113.99999999999999</ele><time>2026-04-25T12:45:25.031Z</time></trkpt><trkpt lat="45.8593494517809" lon="12.159276915066156"><ele>114.0</ele><time>2026-04-25T12:45:26.031Z</time></trkpt><trkpt lat="45.859381736385686" lon="12.15937585106596"><ele>114.0</ele><time>2026-04-25T12:45:27.031Z</time></trkpt><trkpt lat="45.859412963949616" lon="12.159474273127008"><ele>114.0</ele><time>2026-04-25T12:45:28.031Z</time></trkpt><trkpt lat="45.85943862353731" lon="12.159568624633858"><ele>114.0</ele><time>2026-04-25T12:45:29.031Z</time></trkpt><trkpt lat="45.85947044390913" lon="12.159659596179653"><ele>114.0</ele><time>2026-04-25T12:45:30.031Z</time></trkpt><trkpt lat="45.85949764771347" lon="12.159752410784124"><ele>114.0</ele><time>2026-04-25T12:45:31.031Z</time></trkpt><trkpt lat="45.85954096142613" lon="12.15992236554617"><ele>114.0</ele><time>2026-04-25T12:45:33.031Z</time></trkpt><trkpt lat="45.85954692824357" lon="12.160052984557918"><ele>114.0</ele><time>2026-04-25T12:45:35.031Z</time></trkpt><trkpt lat="45.859482181216315" lon="12.160164746210059"><ele>113.83333333333333</ele><time>2026-04-25T12:45:38.032Z</time></trkpt><trkpt lat="45.85939918184404" lon="12.160194256062267"><ele>113.66666666666666</ele><time>2026-04-25T12:45:40.031Z</time></trkpt><trkpt lat="45.85929257688033" lon="12.160249241594508"><ele>113.5</ele><time>2026-04-25T12:45:42.031Z</time></trkpt><trkpt lat="45.859230014118026" lon="12.160291077115604"><ele>113.33333333333333</ele><time>2026-04-25T12:45:43.031Z</time></trkpt><trkpt lat="45.859129640954464" lon="12.160365899764296"><ele>113.16666666666666</ele><time>2026-04-25T12:45:45.031Z</time></trkpt><trkpt lat="45.85907566079069" lon="12.160413148157355"><ele>113.0</ele><time>2026-04-25T12:45:46.031Z</time></trkpt><trkpt lat="45.85897286964041" lon="12.16048519979358"><ele>112.80000000000001</ele><time>2026-04-25T12:45:48.032Z</time></trkpt><trkpt lat="45.85884897877982" lon="12.160561452605826"><ele>112.60000000000001</ele><time>2026-04-25T12:45:50.032Z</time></trkpt><trkpt lat="45.85878488797216" lon="12.16060241807876"><ele>112.39999999999999</ele><time>2026-04-25T12:45:51.032Z</time></trkpt><trkpt lat="45.858730653690536" lon="12.160655685177712"><ele>112.19999999999999</ele><time>2026-04-25T12:45:52.032Z</time></trkpt><trkpt lat="45.85865591434988" lon="12.160801436648699"><ele>112.0</ele><time>2026-04-25T12:45:54.032Z</time></trkpt><trkpt lat="45.85863074473969" lon="12.16089340296933"><ele>111.8</ele><time>2026-04-25T12:45:55.032Z</time></trkpt><trkpt lat="45.85861918624462" lon="12.160994704824102"><ele>111.6</ele><time>2026-04-25T12:45:56.032Z</time></trkpt><trkpt lat="45.858633381853146" lon="12.161179233206376"><ele>111.39999999999999</ele><time>2026-04-25T12:45:58.032Z</time></trkpt><trkpt lat="45.858666561456076" lon="12.161372300591239"><ele>111.19999999999999</ele><time>2026-04-25T12:46:00.032Z</time></trkpt><trkpt lat="45.85869054838588" lon="12.161478879371794"><ele>111.0</ele><time>2026-04-25T12:46:01.032Z</time></trkpt><trkpt lat="45.85870835897266" lon="12.161580217825854"><ele>111.33333333333333</ele><time>2026-04-25T12:46:02.032Z</time></trkpt><trkpt lat="45.85872343142807" lon="12.161682445323786"><ele>111.66666666666666</ele><time>2026-04-25T12:46:03.032Z</time></trkpt><trkpt lat="45.85873136046913" lon="12.161780425242231"><ele>112.0</ele><time>2026-04-25T12:46:04.032Z</time></trkpt><trkpt lat="45.85875298752241" lon="12.161885750726157"><ele>112.33333333333333</ele><time>2026-04-25T12:46:05.032Z</time></trkpt><trkpt lat="45.858775229177716" lon="12.1619957396439"><ele>112.66666666666666</ele><time>2026-04-25T12:46:06.032Z</time></trkpt><trkpt lat="45.85879116010788" lon="12.162098975393958"><ele>113.0</ele><time>2026-04-25T12:46:07.032Z</time></trkpt><trkpt lat="45.85881283301953" lon="12.162207672574345"><ele>112.99999999999999</ele><time>2026-04-25T12:46:08.032Z</time></trkpt><trkpt lat="45.8588329848361" lon="12.162319105121886"><ele>113.0</ele><time>2026-04-25T12:46:09.032Z</time></trkpt><trkpt lat="45.858857000512046" lon="12.162435477646019"><ele>113.0</ele><time>2026-04-25T12:46:10.032Z</time></trkpt><trkpt lat="45.858888752458704" lon="12.162558613990678"><ele>113.0</ele><time>2026-04-25T12:46:11.032Z</time></trkpt><trkpt lat="45.85891925936156" lon="12.16267730159905"><ele>112.99999999999999</ele><time>2026-04-25T12:46:12.032Z</time></trkpt><trkpt lat="45.85893555221513" lon="12.162789145300891"><ele>113.0</ele><time>2026-04-25T12:46:13.032Z</time></trkpt><trkpt lat="45.85897547734748" lon="12.162920534898868"><ele>112.99999999999999</ele><time>2026-04-25T12:46:14.032Z</time></trkpt><trkpt lat="45.85899754337409" lon="12.163032015193329"><ele>113.0</ele><time>2026-04-25T12:46:15.032Z</time></trkpt><trkpt lat="45.859027527429504" lon="12.16315206926191"><ele>113.0</ele><time>2026-04-25T12:46:16.032Z</time></trkpt><trkpt lat="45.85905712650475" lon="12.163269162179661"><ele>113.0</ele><time>2026-04-25T12:46:17.032Z</time></trkpt><trkpt lat="45.85907694969378" lon="12.163374837850116"><ele>112.99999999999999</ele><time>2026-04-25T12:46:18.032Z</time></trkpt><trkpt lat="45.85910677921876" lon="12.16348806982245"><ele>113.0</ele><time>2026-04-25T12:46:19.032Z</time></trkpt><trkpt lat="45.8591347504873" lon="12.163581257906161"><ele>112.66666666666666</ele><time>2026-04-25T12:46:20.032Z</time></trkpt><trkpt lat="45.85915845567527" lon="12.163679444145574"><ele>112.33333333333333</ele><time>2026-04-25T12:46:21.032Z</time></trkpt><trkpt lat="45.85918204783082" lon="12.163780716332507"><ele>112.0</ele><time>2026-04-25T12:46:22.032Z</time></trkpt><trkpt lat="45.85921228539153" lon="12.16387348067245"><ele>111.66666666666666</ele><time>2026-04-25T12:46:23.032Z</time></trkpt><trkpt lat="45.859249124391155" lon="12.163980990328865"><ele>111.33333333333333</ele><time>2026-04-25T12:46:24.032Z</time></trkpt><trkpt lat="45.85928716080845" lon="12.164080944456705"><ele>111.0</ele><time>2026-04-25T12:46:25.032Z</time></trkpt><trkpt lat="45.85932129549432" lon="12.16418579949918"><ele>110.83333333333333</ele><time>2026-04-25T12:46:26.032Z</time></trkpt><trkpt lat="45.85933961466295" lon="12.164290543354944"><ele>110.66666666666666</ele><time>2026-04-25T12:46:27.032Z</time></trkpt><trkpt lat="45.85936656564966" lon="12.164445026668822"><ele>110.5</ele><time>2026-04-25T12:46:29.032Z</time></trkpt><trkpt lat="45.85925979215172" lon="12.164488932815045"><ele>110.33333333333333</ele><time>2026-04-25T12:46:32.032Z</time></trkpt><trkpt lat="45.85919370366006" lon="12.164494475203183"><ele>110.16666666666666</ele><time>2026-04-25T12:46:33.032Z</time></trkpt><trkpt lat="45.85911904647129" lon="12.164489668230946"><ele>110.0</ele><time>2026-04-25T12:46:34.032Z</time></trkpt><trkpt lat="45.858996096188484" lon="12.164429814037431"><ele>109.83333333333333</ele><time>2026-04-25T12:46:36.032Z</time></trkpt><trkpt lat="45.858926913523575" lon="12.164386758550238"><ele>109.66666666666666</ele><time>2026-04-25T12:46:37.032Z</time></trkpt><trkpt lat="45.85886037116776" lon="12.16433140738388"><ele>109.5</ele><time>2026-04-25T12:46:38.032Z</time></trkpt><trkpt lat="45.85879728625328" lon="12.164271754274179"><ele>109.33333333333334</ele><time>2026-04-25T12:46:39.032Z</time></trkpt><trkpt lat="45.85874185735329" lon="12.164213058340518"><ele>109.16666666666667</ele><time>2026-04-25T12:46:40.032Z</time></trkpt><trkpt lat="45.85867171524337" lon="12.16415906141799"><ele>109.0</ele><time>2026-04-25T12:46:41.032Z</time></trkpt><trkpt lat="45.85859008813882" lon="12.16410878835451"><ele>109.0</ele><time>2026-04-25T12:46:42.032Z</time></trkpt><trkpt lat="45.85852499718554" lon="12.16406589278728"><ele>109.0</ele><time>2026-04-25T12:46:43.032Z</time></trkpt><trkpt lat="45.85845868653665" lon="12.16402998931713"><ele>109.0</ele><time>2026-04-25T12:46:44.032Z</time></trkpt><trkpt lat="45.85839435261136" lon="12.163987848741268"><ele>109.0</ele><time>2026-04-25T12:46:45.032Z</time></trkpt><trkpt lat="45.858334759907784" lon="12.163951238387574"><ele>109.0</ele><time>2026-04-25T12:46:46.032Z</time></trkpt><trkpt lat="45.85827190018382" lon="12.163911286183865"><ele>109.0</ele><time>2026-04-25T12:46:47.032Z</time></trkpt><trkpt lat="45.85820781759704" lon="12.163877269799817"><ele>109.0</ele><time>2026-04-25T12:46:48.032Z</time></trkpt><trkpt lat="45.85813954038075" lon="12.163846144073123"><ele>108.83333333333334</ele><time>2026-04-25T12:46:49.032Z</time></trkpt><trkpt lat="45.85807715403996" lon="12.163819493338519"><ele>108.66666666666667</ele><time>2026-04-25T12:46:50.032Z</time></trkpt><trkpt lat="45.85800323101466" lon="12.163791530484401"><ele>108.5</ele><time>2026-04-25T12:46:51.032Z</time></trkpt><trkpt lat="45.85793949292866" lon="12.163766251449031"><ele>108.33333333333334</ele><time>2026-04-25T12:46:52.032Z</time></trkpt><trkpt lat="45.85780721909299" lon="12.163718919069083"><ele>108.16666666666667</ele><time>2026-04-25T12:46:54.032Z</time></trkpt><trkpt lat="45.85773512001906" lon="12.16372496287549"><ele>108.0</ele><time>2026-04-25T12:46:55.032Z</time></trkpt><trkpt lat="45.85767323945977" lon="12.163759770712801"><ele>107.83333333333333</ele><time>2026-04-25T12:46:56.032Z</time></trkpt><trkpt lat="45.85761842396672" lon="12.163821744467283"><ele>107.66666666666666</ele><time>2026-04-25T12:46:57.032Z</time></trkpt><trkpt lat="45.857583496624066" lon="12.163905446186527"><ele>107.5</ele><time>2026-04-25T12:46:58.032Z</time></trkpt><trkpt lat="45.85752224082032" lon="12.16408286969608"><ele>107.33333333333333</ele><time>2026-04-25T12:47:00.032Z</time></trkpt><trkpt lat="45.857483728720446" lon="12.164189850860204"><ele>107.16666666666666</ele><time>2026-04-25T12:47:01.032Z</time></trkpt><trkpt lat="45.857427089947045" lon="12.164284851438056"><ele>107.0</ele><time>2026-04-25T12:47:02.032Z</time></trkpt><trkpt lat="45.85734178728412" lon="12.164352952746112"><ele>106.6</ele><time>2026-04-25T12:47:03.032Z</time></trkpt><trkpt lat="45.85726225458207" lon="12.164424901623175"><ele>106.19999999999999</ele><time>2026-04-25T12:47:04.032Z</time></trkpt><trkpt lat="45.85717307966352" lon="12.164497265145801"><ele>105.8</ele><time>2026-04-25T12:47:05.032Z</time></trkpt><trkpt lat="45.857088418838096" lon="12.164564384245518"><ele>105.4</ele><time>2026-04-25T12:47:06.032Z</time></trkpt><trkpt lat="45.85698984803066" lon="12.164638804198685"><ele>105.0</ele><time>2026-04-25T12:47:07.032Z</time></trkpt><trkpt lat="45.85688835102519" lon="12.164709998746085"><ele>105.0</ele><time>2026-04-25T12:47:08.032Z</time></trkpt><trkpt lat="45.856789565122014" lon="12.16478272170415"><ele>105.0</ele><time>2026-04-25T12:47:09.032Z</time></trkpt><trkpt lat="45.856699278211465" lon="12.164852243244678"><ele>105.0</ele><time>2026-04-25T12:47:10.032Z</time></trkpt><trkpt lat="45.856627174048796" lon="12.164893939092465"><ele>105.0</ele><time>2026-04-25T12:47:11.032Z</time></trkpt><trkpt lat="45.85654105866287" lon="12.16496675651345"><ele>105.0</ele><time>2026-04-25T12:47:13.032Z</time></trkpt><trkpt lat="45.8565049539109" lon="12.16506961236988"><ele>104.0</ele><time>2026-04-25T12:47:15.032Z</time></trkpt><trkpt lat="45.85653409632378" lon="12.165193853205842"><ele>103.0</ele><time>2026-04-25T12:47:17.032Z</time></trkpt><trkpt lat="45.85657340728901" lon="12.165278848207278"><ele>102.0</ele><time>2026-04-25T12:47:18.032Z</time></trkpt><trkpt lat="45.85662001277797" lon="12.165352442572544"><ele>101.0</ele><time>2026-04-25T12:47:19.032Z</time></trkpt><trkpt lat="45.85666149791687" lon="12.165431345957607"><ele>100.0</ele><time>2026-04-25T12:47:20.032Z</time></trkpt><trkpt lat="45.85670276300148" lon="12.16551565658076"><ele>99.0</ele><time>2026-04-25T12:47:21.032Z</time></trkpt><trkpt lat="45.856750653805214" lon="12.165580097930523"><ele>98.0</ele><time>2026-04-25T12:47:22.032Z</time></trkpt><trkpt lat="45.856831662123874" lon="12.16570423536745"><ele>97.49999999999999</ele><time>2026-04-25T12:47:24.032Z</time></trkpt><trkpt lat="45.85689973367228" lon="12.165848860264036"><ele>97.0</ele><time>2026-04-25T12:47:26.032Z</time></trkpt><trkpt lat="45.85694598241414" lon="12.165941367673476"><ele>96.5</ele><time>2026-04-25T12:47:27.032Z</time></trkpt><trkpt lat="45.85699324495979" lon="12.166033001181564"><ele>96.0</ele><time>2026-04-25T12:47:28.032Z</time></trkpt><trkpt lat="45.857041281610535" lon="12.166129275395566"><ele>95.5</ele><time>2026-04-25T12:47:29.032Z</time></trkpt><trkpt lat="45.857080490210386" lon="12.166208990148121"><ele>95.0</ele><time>2026-04-25T12:47:30.032Z</time></trkpt><trkpt lat="45.85712247722147" lon="12.166288369967868"><ele>95.0</ele><time>2026-04-25T12:47:31.032Z</time></trkpt><trkpt lat="45.857160784151596" lon="12.166383299308361"><ele>95.0</ele><time>2026-04-25T12:47:32.032Z</time></trkpt><trkpt lat="45.85720799063306" lon="12.166478951839142"><ele>95.0</ele><time>2026-04-25T12:47:33.032Z</time></trkpt><trkpt lat="45.85724560957516" lon="12.166561021578737"><ele>95.0</ele><time>2026-04-25T12:47:34.032Z</time></trkpt><trkpt lat="45.8572835511382" lon="12.166640587492871"><ele>95.0</ele><time>2026-04-25T12:47:35.032Z</time></trkpt><trkpt lat="45.85732703146181" lon="12.16672534482353"><ele>95.0</ele><time>2026-04-25T12:47:36.032Z</time></trkpt><trkpt lat="45.857365754576136" lon="12.166806332456382"><ele>95.0</ele><time>2026-04-25T12:47:37.032Z</time></trkpt><trkpt lat="45.85740565885435" lon="12.166884866266118"><ele>94.8</ele><time>2026-04-25T12:47:38.032Z</time></trkpt><trkpt lat="45.857416350802026" lon="12.167021372286795"><ele>94.6</ele><time>2026-04-25T12:47:40.032Z</time></trkpt><trkpt lat="45.857348823175094" lon="12.167077028008052"><ele>94.4</ele><time>2026-04-25T12:47:42.032Z</time></trkpt><trkpt lat="45.85725625916582" lon="12.167096122655442"><ele>94.2</ele><time>2026-04-25T12:47:44.033Z</time></trkpt><trkpt lat="45.857147842792344" lon="12.16711719081207"><ele>94.0</ele><time>2026-04-25T12:47:46.032Z</time></trkpt><trkpt lat="45.85704578071864" lon="12.167150712309107"><ele>94.0</ele><time>2026-04-25T12:47:48.032Z</time></trkpt><trkpt lat="45.85698171124134" lon="12.1671758717032"><ele>94.0</ele><time>2026-04-25T12:47:49.032Z</time></trkpt><trkpt lat="45.85687412020551" lon="12.167210538631224"><ele>94.0</ele><time>2026-04-25T12:47:51.033Z</time></trkpt><trkpt lat="45.85677270456832" lon="12.167250634910884"><ele>94.0</ele><time>2026-04-25T12:47:53.033Z</time></trkpt><trkpt lat="45.85672449520683" lon="12.167354239301721"><ele>94.0</ele><time>2026-04-25T12:47:55.033Z</time></trkpt><trkpt lat="45.85668569387155" lon="12.167454872983933"><ele>94.0</ele><time>2026-04-25T12:48:01.033Z</time></trkpt><trkpt lat="45.856673371911846" lon="12.167580677633284"><ele>94.0</ele><time>2026-04-25T12:48:04.033Z</time></trkpt><trkpt lat="45.85668439684006" lon="12.167685772321207"><ele>94.0</ele><time>2026-04-25T12:48:06.033Z</time></trkpt><trkpt lat="45.856623799440186" lon="12.167780525650278"><ele>94.0</ele><time>2026-04-25T12:48:08.033Z</time></trkpt><trkpt lat="45.85659437466867" lon="12.167901773373321"><ele>94.0</ele><time>2026-04-25T12:48:14.033Z</time></trkpt><trkpt lat="45.856632841627196" lon="12.168074984120967"><ele>94.0</ele><time>2026-04-25T12:48:16.033Z</time></trkpt><trkpt lat="45.856643421673255" lon="12.168189254044208"><ele>93.83333333333333</ele><time>2026-04-25T12:48:17.033Z</time></trkpt><trkpt lat="45.85663719494509" lon="12.16828774131521"><ele>93.66666666666666</ele><time>2026-04-25T12:48:18.033Z</time></trkpt><trkpt lat="45.85667525303824" lon="12.168437164745395"><ele>93.5</ele><time>2026-04-25T12:48:22.033Z</time></trkpt><trkpt lat="45.85667750535208" lon="12.16853332937204"><ele>93.33333333333333</ele><time>2026-04-25T12:48:24.033Z</time></trkpt><trkpt lat="45.85669967544045" lon="12.168673504280145"><ele>93.16666666666667</ele><time>2026-04-25T12:48:26.033Z</time></trkpt><trkpt lat="45.85666986893606" lon="12.168784297164594"><ele>93.0</ele><time>2026-04-25T12:48:28.033Z</time></trkpt><trkpt lat="45.85669474329795" lon="12.16894225263135"><ele>93.0</ele><time>2026-04-25T12:48:30.033Z</time></trkpt><trkpt lat="45.85672458767072" lon="12.169045430151018"><ele>93.0</ele><time>2026-04-25T12:48:31.033Z</time></trkpt><trkpt lat="45.85677856874961" lon="12.16915829030702"><ele>93.0</ele><time>2026-04-25T12:48:32.033Z</time></trkpt><trkpt lat="45.85683473322627" lon="12.169271913575342"><ele>93.0</ele><time>2026-04-25T12:48:33.033Z</time></trkpt><trkpt lat="45.85690449353958" lon="12.169377578884406"><ele>93.0</ele><time>2026-04-25T12:48:34.033Z</time></trkpt><trkpt lat="45.856991261925515" lon="12.169484906317907"><ele>93.0</ele><time>2026-04-25T12:48:35.033Z</time></trkpt><trkpt lat="45.857075595288215" lon="12.169569516521834"><ele>93.0</ele><time>2026-04-25T12:48:36.033Z</time></trkpt><trkpt lat="45.857163586458775" lon="12.169671385014386"><ele>93.0</ele><time>2026-04-25T12:48:37.033Z</time></trkpt><trkpt lat="45.857251458137426" lon="12.169787233980538"><ele>93.0</ele><time>2026-04-25T12:48:38.033Z</time></trkpt><trkpt lat="45.85732188693527" lon="12.169900936186302"><ele>93.0</ele><time>2026-04-25T12:48:39.033Z</time></trkpt><trkpt lat="45.85737830326282" lon="12.169989656824344"><ele>93.16666666666667</ele><time>2026-04-25T12:48:40.033Z</time></trkpt><trkpt lat="45.85743163525962" lon="12.170062764678567"><ele>93.33333333333333</ele><time>2026-04-25T12:48:41.033Z</time></trkpt><trkpt lat="45.857481016644" lon="12.170131640228162"><ele>93.5</ele><time>2026-04-25T12:48:42.033Z</time></trkpt><trkpt lat="45.857533016367185" lon="12.170216715307413"><ele>93.66666666666666</ele><time>2026-04-25T12:48:43.033Z</time></trkpt><trkpt lat="45.85756867737156" lon="12.170304888639965"><ele>93.83333333333333</ele><time>2026-04-25T12:48:44.033Z</time></trkpt><trkpt lat="45.85762843389014" lon="12.170456466520898"><ele>94.0</ele><time>2026-04-25T12:48:46.033Z</time></trkpt><trkpt lat="45.857620785737595" lon="12.170635550923185"><ele>94.0</ele><time>2026-04-25T12:48:48.033Z</time></trkpt><trkpt lat="45.85766313683874" lon="12.170752762467904"><ele>94.0</ele><time>2026-04-25T12:48:49.033Z</time></trkpt><trkpt lat="45.85771001073182" lon="12.17086203684921"><ele>94.0</ele><time>2026-04-25T12:48:50.033Z</time></trkpt><trkpt lat="45.85775189582625" lon="12.17096442944933"><ele>94.0</ele><time>2026-04-25T12:48:51.033Z</time></trkpt><trkpt lat="45.85781785971229" lon="12.17105728437236"><ele>94.0</ele><time>2026-04-25T12:48:52.033Z</time></trkpt><trkpt lat="45.857891934657964" lon="12.171165909679155"><ele>94.0</ele><time>2026-04-25T12:48:53.033Z</time></trkpt><trkpt lat="45.85793980549821" lon="12.17132678428995"><ele>94.0</ele><time>2026-04-25T12:48:55.033Z</time></trkpt><trkpt lat="45.85796304483144" lon="12.171458668082831"><ele>94.0</ele><time>2026-04-25T12:48:57.033Z</time></trkpt><trkpt lat="45.85795826187204" lon="12.171618426315511"><ele>94.0</ele><time>2026-04-25T12:48:59.033Z</time></trkpt><trkpt lat="45.85794969709687" lon="12.171778605491502"><ele>94.0</ele><time>2026-04-25T12:49:01.033Z</time></trkpt><trkpt lat="45.85797391221815" lon="12.171921272025575"><ele>94.6</ele><time>2026-04-25T12:49:03.033Z</time></trkpt><trkpt lat="45.85802535290218" lon="12.172034802553114"><ele>95.2</ele><time>2026-04-25T12:49:05.033Z</time></trkpt><trkpt lat="45.85807320200696" lon="12.172196274517226"><ele>95.8</ele><time>2026-04-25T12:49:07.033Z</time></trkpt><trkpt lat="45.858114759691155" lon="12.17233715656679"><ele>96.39999999999999</ele><time>2026-04-25T12:49:09.033Z</time></trkpt><trkpt lat="45.858184584490395" lon="12.172449486880726"><ele>97.0</ele><time>2026-04-25T12:49:11.033Z</time></trkpt><trkpt lat="45.85824550087469" lon="12.172517738690724"><ele>97.16666666666667</ele><time>2026-04-25T12:49:12.033Z</time></trkpt><trkpt lat="45.85831116357635" lon="12.172584759110482"><ele>97.33333333333334</ele><time>2026-04-25T12:49:13.033Z</time></trkpt><trkpt lat="45.85838918714067" lon="12.172638634218478"><ele>97.5</ele><time>2026-04-25T12:49:14.033Z</time></trkpt><trkpt lat="45.85846306451959" lon="12.172677668729653"><ele>97.66666666666666</ele><time>2026-04-25T12:49:15.033Z</time></trkpt><trkpt lat="45.858572308189586" lon="12.172735280444137"><ele>97.83333333333333</ele><time>2026-04-25T12:49:17.033Z</time></trkpt><trkpt lat="45.85864740485812" lon="12.172788543200117"><ele>98.0</ele><time>2026-04-25T12:49:18.033Z</time></trkpt><trkpt lat="45.85869154742697" lon="12.172853136274588"><ele>98.4</ele><time>2026-04-25T12:49:19.033Z</time></trkpt><trkpt lat="45.8587286511764" lon="12.172927387454687"><ele>98.80000000000001</ele><time>2026-04-25T12:49:20.033Z</time></trkpt><trkpt lat="45.85876616483592" lon="12.173052051346856"><ele>99.2</ele><time>2026-04-25T12:49:22.033Z</time></trkpt><trkpt lat="45.85880736325471" lon="12.173225721827336"><ele>99.6</ele><time>2026-04-25T12:49:24.033Z</time></trkpt><trkpt lat="45.85883867711316" lon="12.173332200593862"><ele>100.0</ele><time>2026-04-25T12:49:25.033Z</time></trkpt><trkpt lat="45.858860167072" lon="12.173447574597123"><ele>100.33333333333334</ele><time>2026-04-25T12:49:26.033Z</time></trkpt><trkpt lat="45.85886188045999" lon="12.173552962157414"><ele>100.66666666666667</ele><time>2026-04-25T12:49:27.033Z</time></trkpt><trkpt lat="45.85886639100602" lon="12.1737246316331"><ele>101.0</ele><time>2026-04-25T12:49:29.033Z</time></trkpt><trkpt lat="45.85887850617818" lon="12.17383438745964"><ele>101.33333333333334</ele><time>2026-04-25T12:49:30.033Z</time></trkpt><trkpt lat="45.8588931549901" lon="12.173939057016794"><ele>101.66666666666667</ele><time>2026-04-25T12:49:31.033Z</time></trkpt><trkpt lat="45.85890161046148" lon="12.174033520369061"><ele>102.0</ele><time>2026-04-25T12:49:32.033Z</time></trkpt><trkpt lat="45.858922700862195" lon="12.174154090537114"><ele>102.14285714285714</ele><time>2026-04-25T12:49:33.033Z</time></trkpt><trkpt lat="45.858941054464225" lon="12.174257263778351"><ele>102.28571428571429</ele><time>2026-04-25T12:49:34.033Z</time></trkpt><trkpt lat="45.85895436881624" lon="12.174361620400855"><ele>102.42857142857142</ele><time>2026-04-25T12:49:35.033Z</time></trkpt><trkpt lat="45.85896324756769" lon="12.174459349976754"><ele>102.57142857142857</ele><time>2026-04-25T12:49:36.033Z</time></trkpt><trkpt lat="45.85897751789562" lon="12.174563029177662"><ele>102.71428571428571</ele><time>2026-04-25T12:49:37.033Z</time></trkpt><trkpt lat="45.858992689473595" lon="12.174672293165614"><ele>102.85714285714285</ele><time>2026-04-25T12:49:38.033Z</time></trkpt><trkpt lat="45.85900600213433" lon="12.174772675368983"><ele>103.0</ele><time>2026-04-25T12:49:39.033Z</time></trkpt><trkpt lat="45.85902128962108" lon="12.174877884441468"><ele>103.00000000000001</ele><time>2026-04-25T12:49:40.033Z</time></trkpt><trkpt lat="45.859026091303484" lon="12.174982012990148"><ele>103.0</ele><time>2026-04-25T12:49:41.033Z</time></trkpt><trkpt lat="45.85903315622823" lon="12.17507426936784"><ele>103.0</ele><time>2026-04-25T12:49:42.033Z</time></trkpt><trkpt lat="45.859045032344746" lon="12.175182469700209"><ele>103.0</ele><time>2026-04-25T12:49:43.033Z</time></trkpt><trkpt lat="45.85904699544366" lon="12.175276493191433"><ele>103.00000000000001</ele><time>2026-04-25T12:49:44.033Z</time></trkpt><trkpt lat="45.85905072150892" lon="12.1753672407257"><ele>103.0</ele><time>2026-04-25T12:49:45.033Z</time></trkpt><trkpt lat="45.85907307441394" lon="12.175548989565288"><ele>103.0</ele><time>2026-04-25T12:49:47.033Z</time></trkpt><trkpt lat="45.859073943967346" lon="12.17564482305629"><ele>103.0</ele><time>2026-04-25T12:49:48.033Z</time></trkpt><trkpt lat="45.85906137593464" lon="12.17579167076781"><ele>103.0</ele><time>2026-04-25T12:49:50.034Z</time></trkpt><trkpt lat="45.859038351262726" lon="12.175949344381298"><ele>103.0</ele><time>2026-04-25T12:49:52.034Z</time></trkpt><trkpt lat="45.85903274311613" lon="12.176069694679768"><ele>103.0</ele><time>2026-04-25T12:49:54.034Z</time></trkpt><trkpt lat="45.85905285997318" lon="12.176233140233617"><ele>102.50000000000001</ele><time>2026-04-25T12:49:56.034Z</time></trkpt><trkpt lat="45.85907445514011" lon="12.176326133192442"><ele>102.0</ele><time>2026-04-25T12:49:57.034Z</time></trkpt><trkpt lat="45.859066165262846" lon="12.17645533419157"><ele>101.5</ele><time>2026-04-25T12:49:59.034Z</time></trkpt><trkpt lat="45.859084502739336" lon="12.176554821265997"><ele>101.0</ele><time>2026-04-25T12:50:00.034Z</time></trkpt><trkpt lat="45.85909823812328" lon="12.176722447716497"><ele>100.50000000000001</ele><time>2026-04-25T12:50:02.034Z</time></trkpt><trkpt lat="45.859071369362475" lon="12.176810486237377"><ele>100.0</ele><time>2026-04-25T12:50:03.034Z</time></trkpt><trkpt lat="45.85903486298338" lon="12.176966622862627"><ele>99.4</ele><time>2026-04-25T12:50:05.034Z</time></trkpt><trkpt lat="45.859023044599944" lon="12.177110389586275"><ele>98.8</ele><time>2026-04-25T12:50:07.034Z</time></trkpt><trkpt lat="45.85899604345102" lon="12.177265644028568"><ele>98.19999999999999</ele><time>2026-04-25T12:50:09.034Z</time></trkpt><trkpt lat="45.85898548612571" lon="12.177377892327431"><ele>97.6</ele><time>2026-04-25T12:50:10.034Z</time></trkpt><trkpt lat="45.85892906010476" lon="12.177492851418345"><ele>97.0</ele><time>2026-04-25T12:50:12.034Z</time></trkpt><trkpt lat="45.85888915890356" lon="12.177666228448189"><ele>96.66666666666667</ele><time>2026-04-25T12:50:14.034Z</time></trkpt><trkpt lat="45.85884725697422" lon="12.177733837168562"><ele>96.33333333333334</ele><time>2026-04-25T12:50:15.034Z</time></trkpt><trkpt lat="45.85882301742311" lon="12.177832879022466"><ele>96.0</ele><time>2026-04-25T12:50:16.034Z</time></trkpt><trkpt lat="45.858775161784024" lon="12.1780064863809"><ele>95.66666666666667</ele><time>2026-04-25T12:50:18.034Z</time></trkpt><trkpt lat="45.85873781949854" lon="12.178087950645178"><ele>95.33333333333334</ele><time>2026-04-25T12:50:19.034Z</time></trkpt><trkpt lat="45.85870317179517" lon="12.178168043396797"><ele>95.0</ele><time>2026-04-25T12:50:20.034Z</time></trkpt><trkpt lat="45.85863982522154" lon="12.178314724258998"><ele>95.0</ele><time>2026-04-25T12:50:22.034Z</time></trkpt><trkpt lat="45.858601881967466" lon="12.178387422970475"><ele>95.0</ele><time>2026-04-25T12:50:23.034Z</time></trkpt><trkpt lat="45.858522761197676" lon="12.17853009526371"><ele>95.0</ele><time>2026-04-25T12:50:25.034Z</time></trkpt><trkpt lat="45.85847339631707" lon="12.178608726655169"><ele>95.0</ele><time>2026-04-25T12:50:26.034Z</time></trkpt><trkpt lat="45.85843117527855" lon="12.178699638745305"><ele>95.0</ele><time>2026-04-25T12:50:27.034Z</time></trkpt><trkpt lat="45.85839075878507" lon="12.178782861990939"><ele>95.0</ele><time>2026-04-25T12:50:28.034Z</time></trkpt><trkpt lat="45.858356480981115" lon="12.178869166526374"><ele>95.0</ele><time>2026-04-25T12:50:29.034Z</time></trkpt><trkpt lat="45.85830913627713" lon="12.178963926597575"><ele>95.0</ele><time>2026-04-25T12:50:30.034Z</time></trkpt><trkpt lat="45.85827198127298" lon="12.17904775938619"><ele>95.0</ele><time>2026-04-25T12:50:31.034Z</time></trkpt><trkpt lat="45.858208206602946" lon="12.179194228732994"><ele>95.0</ele><time>2026-04-25T12:50:33.034Z</time></trkpt><trkpt lat="45.858167924577685" lon="12.179268288576575"><ele>95.0</ele><time>2026-04-25T12:50:34.034Z</time></trkpt><trkpt lat="45.858081937233756" lon="12.179378460575322"><ele>94.83333333333334</ele><time>2026-04-25T12:50:36.034Z</time></trkpt><trkpt lat="45.858031543032304" lon="12.179450082793903"><ele>94.66666666666667</ele><time>2026-04-25T12:50:37.034Z</time></trkpt><trkpt lat="45.85797924280875" lon="12.179513396531657"><ele>94.5</ele><time>2026-04-25T12:50:38.034Z</time></trkpt><trkpt lat="45.85793055466023" lon="12.179601905677416"><ele>94.33333333333333</ele><time>2026-04-25T12:50:39.034Z</time></trkpt><trkpt lat="45.85790418129219" lon="12.179701326109107"><ele>94.16666666666666</ele><time>2026-04-25T12:50:40.034Z</time></trkpt><trkpt lat="45.857837022094884" lon="12.17985397216022"><ele>94.0</ele><time>2026-04-25T12:50:42.034Z</time></trkpt><trkpt lat="45.857802416142036" lon="12.179952830682911"><ele>93.66666666666666</ele><time>2026-04-25T12:50:43.034Z</time></trkpt><trkpt lat="45.85777001891277" lon="12.180042775319952"><ele>93.33333333333333</ele><time>2026-04-25T12:50:44.034Z</time></trkpt><trkpt lat="45.857743925880975" lon="12.180133442400923"><ele>93.0</ele><time>2026-04-25T12:50:45.034Z</time></trkpt><trkpt lat="45.857718566497304" lon="12.180226907821407"><ele>92.66666666666667</ele><time>2026-04-25T12:50:46.034Z</time></trkpt><trkpt lat="45.85770336119613" lon="12.180318042361622"><ele>92.33333333333334</ele><time>2026-04-25T12:50:47.034Z</time></trkpt><trkpt lat="45.85770981641812" lon="12.18049568143591"><ele>92.0</ele><time>2026-04-25T12:50:49.034Z</time></trkpt><trkpt lat="45.85776776561441" lon="12.180618742280465"><ele>92.16666666666667</ele><time>2026-04-25T12:50:51.034Z</time></trkpt><trkpt lat="45.857806244667344" lon="12.180718161801765"><ele>92.33333333333334</ele><time>2026-04-25T12:50:53.034Z</time></trkpt><trkpt lat="45.85782007856092" lon="12.18087075568539"><ele>92.5</ele><time>2026-04-25T12:50:56.034Z</time></trkpt><trkpt lat="45.857834182002016" lon="12.180970036967672"><ele>92.66666666666667</ele><time>2026-04-25T12:50:58.034Z</time></trkpt><trkpt lat="45.85780790561371" lon="12.181074387447634"><ele>92.83333333333333</ele><time>2026-04-25T12:51:02.034Z</time></trkpt><trkpt lat="45.85781257023514" lon="12.181185398588397"><ele>93.0</ele><time>2026-04-25T12:51:05.034Z</time></trkpt><trkpt lat="45.857835239521755" lon="12.181310594513148"><ele>93.0</ele><time>2026-04-25T12:51:08.034Z</time></trkpt><trkpt lat="45.85781817019501" lon="12.181402404917595"><ele>93.0</ele><time>2026-04-25T12:51:11.034Z</time></trkpt><trkpt lat="45.857805530309115" lon="12.181505924298213"><ele>93.0</ele><time>2026-04-25T12:51:15.034Z</time></trkpt><trkpt lat="45.85778522304043" lon="12.18161084659226"><ele>93.0</ele><time>2026-04-25T12:51:18.034Z</time></trkpt><trkpt lat="45.857748689936294" lon="12.181699358115484"><ele>93.0</ele><time>2026-04-25T12:51:20.034Z</time></trkpt><trkpt lat="45.857712381354084" lon="12.181826373272001"><ele>93.0</ele><time>2026-04-25T12:51:22.034Z</time></trkpt><trkpt lat="45.85764498495686" lon="12.181993443707436"><ele>93.33333333333333</ele><time>2026-04-25T12:51:24.034Z</time></trkpt><trkpt lat="45.857581344025256" lon="12.182071418544847"><ele>93.66666666666667</ele><time>2026-04-25T12:51:25.034Z</time></trkpt><trkpt lat="45.85752353413534" lon="12.1821424851169"><ele>94.0</ele><time>2026-04-25T12:51:26.034Z</time></trkpt><trkpt lat="45.857456828645184" lon="12.182212528473908"><ele>94.33333333333334</ele><time>2026-04-25T12:51:27.034Z</time></trkpt><trkpt lat="45.85740667180105" lon="12.182276641862781"><ele>94.66666666666667</ele><time>2026-04-25T12:51:28.034Z</time></trkpt><trkpt lat="45.857353314395176" lon="12.182331054481384"><ele>95.0</ele><time>2026-04-25T12:51:29.034Z</time></trkpt><trkpt lat="45.85728986199419" lon="12.182411172924352"><ele>96.0</ele><time>2026-04-25T12:51:31.034Z</time></trkpt><trkpt lat="45.85736394127476" lon="12.182437785623334"><ele>97.0</ele><time>2026-04-25T12:51:37.034Z</time></trkpt><trkpt lat="45.85743086284796" lon="12.182460036399492"><ele>98.0</ele><time>2026-04-25T12:51:39.034Z</time></trkpt><trkpt lat="45.857501263952614" lon="12.182471481557222"><ele>99.0</ele><time>2026-04-25T12:51:41.034Z</time></trkpt><trkpt lat="45.8576054793991" lon="12.182499702658635"><ele>99.99999999999999</ele><time>2026-04-25T12:51:43.034Z</time></trkpt><trkpt lat="45.85768904139482" lon="12.182497209397289"><ele>101.0</ele><time>2026-04-25T12:51:45.034Z</time></trkpt><trkpt lat="45.857778910559915" lon="12.18248290511243"><ele>101.0</ele><time>2026-04-25T12:51:47.034Z</time></trkpt><trkpt lat="45.8579331692559" lon="12.182465084934094"><ele>101.0</ele><time>2026-04-25T12:51:50.034Z</time></trkpt><trkpt lat="45.85799942235978" lon="12.182460279039285"><ele>101.0</ele><time>2026-04-25T12:51:51.034Z</time></trkpt><trkpt lat="45.858072120257695" lon="12.182432998313597"><ele>101.0</ele><time>2026-04-25T12:51:52.034Z</time></trkpt><trkpt lat="45.85813938198241" lon="12.182412094469033"><ele>101.0</ele><time>2026-04-25T12:51:53.034Z</time></trkpt><trkpt lat="45.858247584722506" lon="12.182376459162873"><ele>101.0</ele><time>2026-04-25T12:51:55.034Z</time></trkpt><trkpt lat="45.8583494278746" lon="12.182352123620253"><ele>101.0</ele><time>2026-04-25T12:51:57.035Z</time></trkpt><trkpt lat="45.85844792765847" lon="12.182331790020621"><ele>101.0</ele><time>2026-04-25T12:51:59.035Z</time></trkpt><trkpt lat="45.85854674079486" lon="12.182325993460319"><ele>101.0</ele><time>2026-04-25T12:52:01.035Z</time></trkpt><trkpt lat="45.8586089735502" lon="12.182306292152123"><ele>101.0</ele><time>2026-04-25T12:52:02.035Z</time></trkpt><trkpt lat="45.85869871664264" lon="12.182266619409535"><ele>98.5</ele><time>2026-04-25T12:52:04.035Z</time></trkpt><trkpt lat="45.85888668088406" lon="12.182284137425683"><ele>96.0</ele><time>2026-04-25T12:52:11.035Z</time></trkpt><trkpt lat="45.85900902006323" lon="12.182293546169802"><ele>93.5</ele><time>2026-04-25T12:52:16.035Z</time></trkpt><trkpt lat="45.85907119042665" lon="12.182310802848798"><ele>91.0</ele><time>2026-04-25T12:52:18.035Z</time></trkpt><trkpt lat="45.85936271544538" lon="12.182320039353087"><ele>91.0</ele><time>2026-04-25T12:52:23.035Z</time></trkpt><trkpt lat="45.859451113815" lon="12.182268936123263"><ele>91.0</ele><time>2026-04-25T12:52:24.035Z</time></trkpt><trkpt lat="45.8595311154699" lon="12.182208666954008"><ele>91.0</ele><time>2026-04-25T12:52:25.035Z</time></trkpt><trkpt lat="45.85961869317828" lon="12.182136430859105"><ele>91.0</ele><time>2026-04-25T12:52:26.035Z</time></trkpt><trkpt lat="45.85971191997075" lon="12.182103640816905"><ele>91.0</ele><time>2026-04-25T12:52:27.035Z</time></trkpt><trkpt lat="45.85978572412462" lon="12.182109048372551"><ele>91.0</ele><time>2026-04-25T12:52:28.035Z</time></trkpt><trkpt lat="45.859852262767326" lon="12.182120570968083"><ele>91.0</ele><time>2026-04-25T12:52:29.035Z</time></trkpt><trkpt lat="45.859916338900796" lon="12.182165321008004"><ele>91.0</ele><time>2026-04-25T12:52:30.035Z</time></trkpt><trkpt lat="45.86002509774636" lon="12.182168029550674"><ele>91.0</ele><time>2026-04-25T12:52:32.035Z</time></trkpt><trkpt lat="45.860094607906156" lon="12.18218227675177"><ele>91.0</ele><time>2026-04-25T12:52:33.035Z</time></trkpt><trkpt lat="45.860181662322454" lon="12.182232026497928"><ele>91.0</ele><time>2026-04-25T12:52:35.035Z</time></trkpt><trkpt lat="45.8602496405126" lon="12.182263254785772"><ele>91.0</ele><time>2026-04-25T12:52:36.035Z</time></trkpt><trkpt lat="45.86039171513992" lon="12.182329897743932"><ele>91.0</ele><time>2026-04-25T12:52:38.035Z</time></trkpt><trkpt lat="45.86047592305162" lon="12.18235603571409"><ele>91.0</ele><time>2026-04-25T12:52:39.035Z</time></trkpt><trkpt lat="45.86054352006188" lon="12.18237777853096"><ele>91.0</ele><time>2026-04-25T12:52:40.035Z</time></trkpt><trkpt lat="45.86060584070636" lon="12.182391340436903"><ele>91.0</ele><time>2026-04-25T12:52:41.035Z</time></trkpt><trkpt lat="45.86066760368557" lon="12.182412390476909"><ele>91.0</ele><time>2026-04-25T12:52:42.035Z</time></trkpt><trkpt lat="45.860785230251096" lon="12.182439068243331"><ele>91.4</ele><time>2026-04-25T12:52:44.035Z</time></trkpt><trkpt lat="45.8608885112086" lon="12.182464138055273"><ele>91.8</ele><time>2026-04-25T12:52:46.035Z</time></trkpt><trkpt lat="45.86097231158402" lon="12.182480020424382"><ele>92.2</ele><time>2026-04-25T12:52:48.035Z</time></trkpt><trkpt lat="45.86103984439683" lon="12.182485594164982"><ele>92.60000000000001</ele><time>2026-04-25T12:52:50.035Z</time></trkpt><trkpt lat="45.86112677838753" lon="12.182501000268712"><ele>93.0</ele><time>2026-04-25T12:52:52.035Z</time></trkpt><trkpt lat="45.86123717577991" lon="12.182510789218918"><ele>93.0</ele><time>2026-04-25T12:52:54.035Z</time></trkpt><trkpt lat="45.8613501453412" lon="12.182525048463825"><ele>93.0</ele><time>2026-04-25T12:52:56.035Z</time></trkpt><trkpt lat="45.86145866519235" lon="12.18253910983067"><ele>93.0</ele><time>2026-04-25T12:52:58.035Z</time></trkpt><trkpt lat="45.86156026867994" lon="12.182556626313644"><ele>93.0</ele><time>2026-04-25T12:53:00.035Z</time></trkpt><trkpt lat="45.86166495890335" lon="12.182572375601588"><ele>93.0</ele><time>2026-04-25T12:53:02.035Z</time></trkpt><trkpt lat="45.86176660825753" lon="12.182584252428475"><ele>93.60000000000001</ele><time>2026-04-25T12:53:04.035Z</time></trkpt><trkpt lat="45.86188044844789" lon="12.182600038768761"><ele>94.2</ele><time>2026-04-25T12:53:06.035Z</time></trkpt><trkpt lat="45.86199552033698" lon="12.18260042864848"><ele>94.8</ele><time>2026-04-25T12:53:08.035Z</time></trkpt><trkpt lat="45.862100575920124" lon="12.182624119899202"><ele>95.4</ele><time>2026-04-25T12:53:10.035Z</time></trkpt><trkpt lat="45.86220888240932" lon="12.182649338588593"><ele>96.0</ele><time>2026-04-25T12:53:12.035Z</time></trkpt><trkpt lat="45.86232528255958" lon="12.182664970278976"><ele>96.0</ele><time>2026-04-25T12:53:14.035Z</time></trkpt><trkpt lat="45.86242789925994" lon="12.18268233144605"><ele>96.0</ele><time>2026-04-25T12:53:16.035Z</time></trkpt><trkpt lat="45.86252346636677" lon="12.182697968439927"><ele>96.0</ele><time>2026-04-25T12:53:18.035Z</time></trkpt><trkpt lat="45.862597302709986" lon="12.182710039796307"><ele>96.0</ele><time>2026-04-25T12:53:20.035Z</time></trkpt><trkpt lat="45.86268383553117" lon="12.182738368279932"><ele>96.0</ele><time>2026-04-25T12:53:28.035Z</time></trkpt><trkpt lat="45.862783094627765" lon="12.182740360616163"><ele>95.75</ele><time>2026-04-25T12:53:43.035Z</time></trkpt><trkpt lat="45.862892264614075" lon="12.182741286659773"><ele>95.5</ele><time>2026-04-25T12:53:48.035Z</time></trkpt><trkpt lat="45.862973121040696" lon="12.182727509432455"><ele>95.25</ele><time>2026-04-25T12:53:50.035Z</time></trkpt><trkpt lat="45.86314469224877" lon="12.182835324142166"><ele>95.0</ele><time>2026-04-25T12:53:54.035Z</time></trkpt><trkpt lat="45.86323197913979" lon="12.182938785781266"><ele>95.0</ele><time>2026-04-25T12:53:56.035Z</time></trkpt><trkpt lat="45.86331596358794" lon="12.183040164154066"><ele>95.0</ele><time>2026-04-25T12:53:58.035Z</time></trkpt><trkpt lat="45.86341082549227" lon="12.183133987717872"><ele>95.0</ele><time>2026-04-25T12:54:00.035Z</time></trkpt><trkpt lat="45.86345867535619" lon="12.183194768959057"><ele>95.0</ele><time>2026-04-25T12:54:01.035Z</time></trkpt><trkpt lat="45.86351507836813" lon="12.183251648495334"><ele>95.0</ele><time>2026-04-25T12:54:02.037Z</time></trkpt><trkpt lat="45.86361734011552" lon="12.183349746369858"><ele>95.6</ele><time>2026-04-25T12:54:04.037Z</time></trkpt><trkpt lat="45.863715379487076" lon="12.183434097377216"><ele>96.2</ele><time>2026-04-25T12:54:06.037Z</time></trkpt><trkpt lat="45.86381881864495" lon="12.183524761757788"><ele>96.80000000000001</ele><time>2026-04-25T12:54:08.036Z</time></trkpt><trkpt lat="45.86387134572769" lon="12.183576706312461"><ele>97.4</ele><time>2026-04-25T12:54:09.037Z</time></trkpt><trkpt lat="45.86396765255724" lon="12.18366785929499"><ele>98.0</ele><time>2026-04-25T12:54:11.037Z</time></trkpt><trkpt lat="45.864085973789834" lon="12.183738926939446"><ele>97.99999999999999</ele><time>2026-04-25T12:54:13.036Z</time></trkpt><trkpt lat="45.86420145165783" lon="12.183798121804164"><ele>98.0</ele><time>2026-04-25T12:54:15.037Z</time></trkpt><trkpt lat="45.86426333067944" lon="12.18382403645342"><ele>98.0</ele><time>2026-04-25T12:54:16.037Z</time></trkpt><trkpt lat="45.86432323669178" lon="12.183856750827513"><ele>98.0</ele><time>2026-04-25T12:54:17.037Z</time></trkpt><trkpt lat="45.86429323399492" lon="12.183768506304968"><ele>97.99999999999999</ele><time>2026-04-25T12:54:30.037Z</time></trkpt><trkpt lat="45.86429921092234" lon="12.183631969853874"><ele>98.0</ele><time>2026-04-25T12:54:33.037Z</time></trkpt><trkpt lat="45.86436040470515" lon="12.183565960411952"><ele>97.2</ele><time>2026-04-25T12:54:36.037Z</time></trkpt><trkpt lat="45.86445321162588" lon="12.183541064677492"><ele>96.4</ele><time>2026-04-25T12:54:39.037Z</time></trkpt><trkpt lat="45.8645325665772" lon="12.183513402846554"><ele>95.60000000000001</ele><time>2026-04-25T12:54:41.037Z</time></trkpt><trkpt lat="45.86458382614241" lon="12.183452343714457"><ele>94.80000000000001</ele><time>2026-04-25T12:54:42.037Z</time></trkpt><trkpt lat="45.86468594852236" lon="12.183351881573067"><ele>94.0</ele><time>2026-04-25T12:54:44.037Z</time></trkpt><trkpt lat="45.86477841875017" lon="12.18325226829065"><ele>94.2</ele><time>2026-04-25T12:54:46.037Z</time></trkpt><trkpt lat="45.86486878035445" lon="12.183131127470826"><ele>94.4</ele><time>2026-04-25T12:54:48.037Z</time></trkpt><trkpt lat="45.8649740556077" lon="12.182964265646442"><ele>94.6</ele><time>2026-04-25T12:54:50.037Z</time></trkpt><trkpt lat="45.865030037899736" lon="12.182890633509409"><ele>94.8</ele><time>2026-04-25T12:54:51.037Z</time></trkpt><trkpt lat="45.86507849984242" lon="12.182830915431174"><ele>95.0</ele><time>2026-04-25T12:54:52.037Z</time></trkpt><trkpt lat="45.865154155923335" lon="12.182730495707071"><ele>95.25</ele><time>2026-04-25T12:54:54.037Z</time></trkpt><trkpt lat="45.86525083315434" lon="12.182628732128379"><ele>95.5</ele><time>2026-04-25T12:54:56.037Z</time></trkpt><trkpt lat="45.865359526699706" lon="12.182585861031725"><ele>95.75</ele><time>2026-04-25T12:54:58.037Z</time></trkpt><trkpt lat="45.86547229100968" lon="12.182561627353417"><ele>96.0</ele><time>2026-04-25T12:55:00.037Z</time></trkpt><trkpt lat="45.86557958917229" lon="12.182567776215123"><ele>96.0</ele><time>2026-04-25T12:55:02.037Z</time></trkpt><trkpt lat="45.86569679344231" lon="12.182568639774917"><ele>96.0</ele><time>2026-04-25T12:55:04.037Z</time></trkpt><trkpt lat="45.8658064372542" lon="12.182587376132878"><ele>96.0</ele><time>2026-04-25T12:55:06.037Z</time></trkpt><trkpt lat="45.86590455572688" lon="12.182613739154908"><ele>96.0</ele><time>2026-04-25T12:55:08.037Z</time></trkpt><trkpt lat="45.86601059236697" lon="12.182616043482238"><ele>96.0</ele><time>2026-04-25T12:55:10.037Z</time></trkpt><trkpt lat="45.86610946163309" lon="12.18262368502913"><ele>95.8</ele><time>2026-04-25T12:55:12.037Z</time></trkpt><trkpt lat="45.86622359288686" lon="12.182634400675859"><ele>95.6</ele><time>2026-04-25T12:55:14.037Z</time></trkpt><trkpt lat="45.86634178048557" lon="12.182627315624847"><ele>95.4</ele><time>2026-04-25T12:55:16.037Z</time></trkpt><trkpt lat="45.86640946674434" lon="12.18262845633456"><ele>95.2</ele><time>2026-04-25T12:55:17.037Z</time></trkpt><trkpt lat="45.86651243157128" lon="12.182634069202187"><ele>95.0</ele><time>2026-04-25T12:55:19.037Z</time></trkpt><trkpt lat="45.86663718908063" lon="12.182644563919444"><ele>95.0</ele><time>2026-04-25T12:55:21.037Z</time></trkpt><trkpt lat="45.86675576621939" lon="12.18264288514021"><ele>95.0</ele><time>2026-04-25T12:55:23.037Z</time></trkpt><trkpt lat="45.8668676062309" lon="12.182660828293859"><ele>95.0</ele><time>2026-04-25T12:55:25.037Z</time></trkpt><trkpt lat="45.866972403660036" lon="12.18267768719335"><ele>95.0</ele><time>2026-04-25T12:55:27.037Z</time></trkpt><trkpt lat="45.867087612616196" lon="12.182689569948906"><ele>95.6</ele><time>2026-04-25T12:55:29.037Z</time></trkpt><trkpt lat="45.867184634989606" lon="12.182715875108535"><ele>96.2</ele><time>2026-04-25T12:55:31.037Z</time></trkpt><trkpt lat="45.86726933361766" lon="12.182773127444705"><ele>96.80000000000001</ele><time>2026-04-25T12:55:33.037Z</time></trkpt><trkpt lat="45.86736800533941" lon="12.182822963081497"><ele>97.4</ele><time>2026-04-25T12:55:35.037Z</time></trkpt><trkpt lat="45.86746654658826" lon="12.182841352407081"><ele>98.0</ele><time>2026-04-25T12:55:37.037Z</time></trkpt><trkpt lat="45.867559161631505" lon="12.182873385418086"><ele>98.0</ele><time>2026-04-25T12:55:39.037Z</time></trkpt><trkpt lat="45.8676464273944" lon="12.182920015922349"><ele>98.0</ele><time>2026-04-25T12:55:41.037Z</time></trkpt><trkpt lat="45.867748848899005" lon="12.182952364591513"><ele>98.0</ele><time>2026-04-25T12:55:43.037Z</time></trkpt><trkpt lat="45.86784340326608" lon="12.182993064409919"><ele>98.0</ele><time>2026-04-25T12:55:45.037Z</time></trkpt><trkpt lat="45.86795098527933" lon="12.183036549421207"><ele>98.0</ele><time>2026-04-25T12:55:47.037Z</time></trkpt><trkpt lat="45.868061179002076" lon="12.18308366030064"><ele>98.0</ele><time>2026-04-25T12:55:49.037Z</time></trkpt><trkpt lat="45.86817444920705" lon="12.183137459592828"><ele>98.0</ele><time>2026-04-25T12:55:51.037Z</time></trkpt><trkpt lat="45.86825694614516" lon="12.183179879567463"><ele>98.0</ele><time>2026-04-25T12:55:53.037Z</time></trkpt><trkpt lat="45.868354708412085" lon="12.183236552366454"><ele>98.0</ele><time>2026-04-25T12:55:55.037Z</time></trkpt><trkpt lat="45.86845959908465" lon="12.183291617514097"><ele>98.0</ele><time>2026-04-25T12:55:57.037Z</time></trkpt><trkpt lat="45.86856989085641" lon="12.18335658363998"><ele>98.0</ele><time>2026-04-25T12:55:59.037Z</time></trkpt><trkpt lat="45.86863624064939" lon="12.183376337227841"><ele>98.0</ele><time>2026-04-25T12:56:00.037Z</time></trkpt><trkpt lat="45.8687592790569" lon="12.18340792485084"><ele>98.0</ele><time>2026-04-25T12:56:02.037Z</time></trkpt><trkpt lat="45.86886867769081" lon="12.183448406967816"><ele>98.0</ele><time>2026-04-25T12:56:04.037Z</time></trkpt><trkpt lat="45.86896843264744" lon="12.183519544415246"><ele>98.0</ele><time>2026-04-25T12:56:06.037Z</time></trkpt><trkpt lat="45.86908554180987" lon="12.183549263875669"><ele>98.0</ele><time>2026-04-25T12:56:08.038Z</time></trkpt><trkpt lat="45.86919471865796" lon="12.183567767166904"><ele>98.0</ele><time>2026-04-25T12:56:10.037Z</time></trkpt><trkpt lat="45.869297304233015" lon="12.18361552673998"><ele>98.0</ele><time>2026-04-25T12:56:12.037Z</time></trkpt><trkpt lat="45.86940137063418" lon="12.183663721165361"><ele>98.0</ele><time>2026-04-25T12:56:14.037Z</time></trkpt><trkpt lat="45.86950665531238" lon="12.183708675431632"><ele>98.0</ele><time>2026-04-25T12:56:16.037Z</time></trkpt><trkpt lat="45.86961580318467" lon="12.183743936901328"><ele>98.0</ele><time>2026-04-25T12:56:18.038Z</time></trkpt><trkpt lat="45.86973346085627" lon="12.1837709725577"><ele>98.0</ele><time>2026-04-25T12:56:20.037Z</time></trkpt><trkpt lat="45.86984839284096" lon="12.183796422689676"><ele>98.0</ele><time>2026-04-25T12:56:22.037Z</time></trkpt><trkpt lat="45.86995281787346" lon="12.183808817723047"><ele>98.0</ele><time>2026-04-25T12:56:24.037Z</time></trkpt><trkpt lat="45.87004716999741" lon="12.183871763151458"><ele>98.0</ele><time>2026-04-25T12:56:26.037Z</time></trkpt><trkpt lat="45.87011015768321" lon="12.183972345242454"><ele>98.80000000000001</ele><time>2026-04-25T12:56:28.037Z</time></trkpt><trkpt lat="45.87017968297582" lon="12.184095818153358"><ele>99.6</ele><time>2026-04-25T12:56:30.037Z</time></trkpt><trkpt lat="45.87023686195374" lon="12.184230067407954"><ele>100.4</ele><time>2026-04-25T12:56:32.037Z</time></trkpt><trkpt lat="45.87031896855166" lon="12.184337905178392"><ele>101.19999999999999</ele><time>2026-04-25T12:56:34.037Z</time></trkpt><trkpt lat="45.87039220530242" lon="12.184448912695743"><ele>102.0</ele><time>2026-04-25T12:56:36.037Z</time></trkpt><trkpt lat="45.87047705347562" lon="12.184550737546935"><ele>102.0</ele><time>2026-04-25T12:56:38.037Z</time></trkpt><trkpt lat="45.87055770343091" lon="12.18465118677425"><ele>102.0</ele><time>2026-04-25T12:56:40.037Z</time></trkpt><trkpt lat="45.87063722311613" lon="12.184771566398032"><ele>102.0</ele><time>2026-04-25T12:56:42.037Z</time></trkpt><trkpt lat="45.87069528025517" lon="12.1848774114594"><ele>102.0</ele><time>2026-04-25T12:56:44.037Z</time></trkpt><trkpt lat="45.87068932555296" lon="12.185021913492287"><ele>102.0</ele><time>2026-04-25T12:56:46.037Z</time></trkpt><trkpt lat="45.870663699926254" lon="12.185137564963082"><ele>102.0</ele><time>2026-04-25T12:56:48.037Z</time></trkpt><trkpt lat="45.87065270518032" lon="12.18525029133799"><ele>102.0</ele><time>2026-04-25T12:56:51.037Z</time></trkpt><trkpt lat="45.87065151570024" lon="12.185358066661296"><ele>102.0</ele><time>2026-04-25T12:56:56.037Z</time></trkpt><trkpt lat="45.870692701917626" lon="12.185433546484813"><ele>102.0</ele><time>2026-04-25T12:56:59.037Z</time></trkpt><trkpt lat="45.870760714023035" lon="12.185502267170122"><ele>102.0</ele><time>2026-04-25T12:57:02.037Z</time></trkpt><trkpt lat="45.870835814272766" lon="12.185556824463601"><ele>102.0</ele><time>2026-04-25T12:57:05.037Z</time></trkpt><trkpt lat="45.87090598956363" lon="12.18560129883986"><ele>101.8</ele><time>2026-04-25T12:57:07.037Z</time></trkpt><trkpt lat="45.87096369017681" lon="12.185666296746309"><ele>101.6</ele><time>2026-04-25T12:57:13.037Z</time></trkpt><trkpt lat="45.87102105120771" lon="12.185755007998381"><ele>101.39999999999999</ele><time>2026-04-25T12:57:15.037Z</time></trkpt><trkpt lat="45.87108761018018" lon="12.185886409526743"><ele>101.19999999999999</ele><time>2026-04-25T12:57:17.037Z</time></trkpt><trkpt lat="45.87114451535866" lon="12.186019740890885"><ele>101.0</ele><time>2026-04-25T12:57:19.037Z</time></trkpt><trkpt lat="45.87118105890263" lon="12.186132004036006"><ele>100.83333333333333</ele><time>2026-04-25T12:57:21.037Z</time></trkpt><trkpt lat="45.871242791419895" lon="12.186223997905996"><ele>100.66666666666666</ele><time>2026-04-25T12:57:24.037Z</time></trkpt><trkpt lat="45.87131183186596" lon="12.186317994349098"><ele>100.5</ele><time>2026-04-25T12:57:27.037Z</time></trkpt><trkpt lat="45.87134431878393" lon="12.186427078770379"><ele>100.33333333333334</ele><time>2026-04-25T12:57:29.037Z</time></trkpt><trkpt lat="45.87140155568502" lon="12.18651706162003"><ele>100.16666666666667</ele><time>2026-04-25T12:57:31.037Z</time></trkpt><trkpt lat="45.871460833058315" lon="12.186616154537944"><ele>100.0</ele><time>2026-04-25T12:57:34.037Z</time></trkpt><trkpt lat="45.87151481781983" lon="12.186698824968248"><ele>101.00000000000001</ele><time>2026-04-25T12:57:36.037Z</time></trkpt><trkpt lat="45.87154474304399" lon="12.186781242754279"><ele>102.0</ele><time>2026-04-25T12:57:39.037Z</time></trkpt><trkpt lat="45.87159506926905" lon="12.186879300740802"><ele>103.0</ele><time>2026-04-25T12:57:42.037Z</time></trkpt><trkpt lat="45.87165688801128" lon="12.186982149696375"><ele>104.0</ele><time>2026-04-25T12:57:44.037Z</time></trkpt><trkpt lat="45.8716831548067" lon="12.187093547782359"><ele>105.00000000000001</ele><time>2026-04-25T12:57:48.037Z</time></trkpt><trkpt lat="45.87172127346687" lon="12.1871737063039"><ele>106.0</ele><time>2026-04-25T12:57:52.037Z</time></trkpt><trkpt lat="45.87176529514158" lon="12.18726619645727"><ele>105.57142857142857</ele><time>2026-04-25T12:57:57.037Z</time></trkpt><trkpt lat="45.87182967448087" lon="12.187339889683319"><ele>105.14285714285714</ele><time>2026-04-25T12:58:01.038Z</time></trkpt><trkpt lat="45.8718594572646" lon="12.187443681292045"><ele>104.71428571428571</ele><time>2026-04-25T12:58:06.038Z</time></trkpt><trkpt lat="45.871894051275774" lon="12.187536688341568"><ele>104.28571428571428</ele><time>2026-04-25T12:58:11.038Z</time></trkpt><trkpt lat="45.8719117282241" lon="12.187627857749217"><ele>103.85714285714286</ele><time>2026-04-25T12:58:18.038Z</time></trkpt><trkpt lat="45.87193960369152" lon="12.187728055550497"><ele>103.42857142857142</ele><time>2026-04-25T12:58:23.039Z</time></trkpt><trkpt lat="45.87199454832012" lon="12.187786073373257"><ele>103.0</ele><time>2026-04-25T12:58:27.038Z</time></trkpt><trkpt lat="45.87201882491281" lon="12.187881371044927"><ele>102.66666666666667</ele><time>2026-04-25T12:58:30.038Z</time></trkpt><trkpt lat="45.87198641104547" lon="12.18796906575813"><ele>102.33333333333334</ele><time>2026-04-25T12:58:34.038Z</time></trkpt><trkpt lat="45.871968954620634" lon="12.188074340401789"><ele>102.0</ele><time>2026-04-25T12:58:39.038Z</time></trkpt><trkpt lat="45.87199044535425" lon="12.188183200684096"><ele>101.66666666666666</ele><time>2026-04-25T12:58:44.038Z</time></trkpt><trkpt lat="45.872054552730795" lon="12.188226440202605"><ele>101.33333333333333</ele><time>2026-04-25T12:58:46.038Z</time></trkpt><trkpt lat="45.87217424466764" lon="12.188257282526099"><ele>101.0</ele><time>2026-04-25T12:58:57.038Z</time></trkpt><trkpt lat="45.87224316160766" lon="12.188221681869274"><ele>100.99999999999999</ele><time>2026-04-25T12:59:02.038Z</time></trkpt><trkpt lat="45.8722953251133" lon="12.18816512725653"><ele>101.0</ele><time>2026-04-25T12:59:11.038Z</time></trkpt><trkpt lat="45.87236840527448" lon="12.188163036194855"><ele>101.0</ele><time>2026-04-25T12:59:22.038Z</time></trkpt><trkpt lat="45.87238644917671" lon="12.188264432000187"><ele>101.0</ele><time>2026-04-25T12:59:26.038Z</time></trkpt><trkpt lat="45.872407112680506" lon="12.188167023871204"><ele>100.99999999999999</ele><time>2026-04-25T12:59:30.038Z</time></trkpt><trkpt lat="45.87241031344082" lon="12.188032629574908"><ele>101.0</ele><time>2026-04-25T12:59:33.038Z</time></trkpt><trkpt lat="45.8723977564542" lon="12.18790984639343"><ele>100.99999999999999</ele><time>2026-04-25T12:59:35.038Z</time></trkpt><trkpt lat="45.87240066082017" lon="12.187809826574949"><ele>101.0</ele><time>2026-04-25T12:59:37.038Z</time></trkpt><trkpt lat="45.87241992884973" lon="12.187700067891841"><ele>101.0</ele><time>2026-04-25T12:59:39.038Z</time></trkpt><trkpt lat="45.87248029831634" lon="12.187643830779683"><ele>101.0</ele><time>2026-04-25T12:59:41.038Z</time></trkpt><trkpt lat="45.87256517606482" lon="12.187666360496987"><ele>100.99999999999999</ele><time>2026-04-25T12:59:43.038Z</time></trkpt><trkpt lat="45.8726775070658" lon="12.187752897210775"><ele>101.0</ele><time>2026-04-25T12:59:45.038Z</time></trkpt><trkpt lat="45.87274112355337" lon="12.187789241628364"><ele>101.4</ele><time>2026-04-25T12:59:46.038Z</time></trkpt><trkpt lat="45.87280074555858" lon="12.187823018216376"><ele>101.8</ele><time>2026-04-25T12:59:47.038Z</time></trkpt><trkpt lat="45.87290831945269" lon="12.187885195404279"><ele>102.2</ele><time>2026-04-25T12:59:49.038Z</time></trkpt><trkpt lat="45.873010902396246" lon="12.18794107757883"><ele>102.60000000000001</ele><time>2026-04-25T12:59:51.038Z</time></trkpt><trkpt lat="45.87310108206817" lon="12.187992601370192"><ele>103.0</ele><time>2026-04-25T12:59:53.038Z</time></trkpt><trkpt lat="45.87316260067011" lon="12.188039336342383"><ele>103.0</ele><time>2026-04-25T12:59:54.038Z</time></trkpt><trkpt lat="45.87322329850228" lon="12.188075128210883"><ele>103.0</ele><time>2026-04-25T12:59:55.038Z</time></trkpt><trkpt lat="45.873333793909616" lon="12.188139810544667"><ele>103.0</ele><time>2026-04-25T12:59:57.038Z</time></trkpt><trkpt lat="45.87342312185209" lon="12.188212794667017"><ele>103.0</ele><time>2026-04-25T12:59:59.038Z</time></trkpt><trkpt lat="45.87350104959091" lon="12.18830240630919"><ele>103.0</ele><time>2026-04-25T13:00:01.038Z</time></trkpt><trkpt lat="45.87357368781528" lon="12.188370455162966"><ele>103.66666666666667</ele><time>2026-04-25T13:00:04.038Z</time></trkpt><trkpt lat="45.87364696089933" lon="12.188399296243666"><ele>104.33333333333334</ele><time>2026-04-25T13:00:07.038Z</time></trkpt><trkpt lat="45.87370627643447" lon="12.188449847695836"><ele>105.0</ele><time>2026-04-25T13:00:09.038Z</time></trkpt><trkpt lat="45.87378482823905" lon="12.188521198527933"><ele>105.66666666666666</ele><time>2026-04-25T13:00:11.038Z</time></trkpt><trkpt lat="45.87385841903168" lon="12.188568117515908"><ele>106.33333333333333</ele><time>2026-04-25T13:00:13.038Z</time></trkpt><trkpt lat="45.87393627720449" lon="12.188587491785519"><ele>107.0</ele><time>2026-04-25T13:00:15.038Z</time></trkpt><trkpt lat="45.87402380713294" lon="12.188565650756265"><ele>106.99999999999999</ele><time>2026-04-25T13:00:17.038Z</time></trkpt><trkpt lat="45.87409565607974" lon="12.18849834294571"><ele>107.0</ele><time>2026-04-25T13:00:19.038Z</time></trkpt><trkpt lat="45.87416765839191" lon="12.188435950746948"><ele>107.0</ele><time>2026-04-25T13:00:21.039Z</time></trkpt><trkpt lat="45.87423327822793" lon="12.188361925337166"><ele>107.0</ele><time>2026-04-25T13:00:23.039Z</time></trkpt><trkpt lat="45.874291906410384" lon="12.188294548943688"><ele>106.99999999999999</ele><time>2026-04-25T13:00:25.039Z</time></trkpt><trkpt lat="45.87434261958358" lon="12.188218007734696"><ele>107.0</ele><time>2026-04-25T13:00:27.039Z</time></trkpt><trkpt lat="45.874388581048095" lon="12.188143182897429"><ele>108.83333333333333</ele><time>2026-04-25T13:00:29.039Z</time></trkpt><trkpt lat="45.87444687266116" lon="12.188069384749202"><ele>110.66666666666666</ele><time>2026-04-25T13:00:32.039Z</time></trkpt><trkpt lat="45.874516809794635" lon="12.188015505180708"><ele>112.5</ele><time>2026-04-25T13:00:36.039Z</time></trkpt><trkpt lat="45.87460112090093" lon="12.188022891582147"><ele>114.33333333333334</ele><time>2026-04-25T13:00:40.039Z</time></trkpt><trkpt lat="45.87466790941912" lon="12.188004713834028"><ele>116.16666666666667</ele><time>2026-04-25T13:00:43.039Z</time></trkpt><trkpt lat="45.874742594984745" lon="12.187968147249254"><ele>118.0</ele><time>2026-04-25T13:00:47.039Z</time></trkpt><trkpt lat="45.87482094159784" lon="12.187939318844554"><ele>118.00000000000001</ele><time>2026-04-25T13:00:52.039Z</time></trkpt><trkpt lat="45.8748971159033" lon="12.18791473960695"><ele>118.0</ele><time>2026-04-25T13:00:56.039Z</time></trkpt><trkpt lat="45.87497192654401" lon="12.187938618866793"><ele>118.0</ele><time>2026-04-25T13:01:00.039Z</time></trkpt><trkpt lat="45.875038716128294" lon="12.187953205209737"><ele>118.0</ele><time>2026-04-25T13:01:04.039Z</time></trkpt><trkpt lat="45.875101716049414" lon="12.18796107833513"><ele>118.00000000000001</ele><time>2026-04-25T13:01:07.039Z</time></trkpt><trkpt lat="45.875182893487604" lon="12.187957376992127"><ele>118.0</ele><time>2026-04-25T13:01:10.039Z</time></trkpt><trkpt lat="45.8752649305103" lon="12.187932190762176"><ele>118.00000000000001</ele><time>2026-04-25T13:01:13.039Z</time></trkpt><trkpt lat="45.87532597193295" lon="12.1879601801882"><ele>118.0</ele><time>2026-04-25T13:01:16.039Z</time></trkpt><trkpt lat="45.87537853121699" lon="12.18805908546934"><ele>118.0</ele><time>2026-04-25T13:01:19.039Z</time></trkpt><trkpt lat="45.87541973444465" lon="12.188154971285835"><ele>118.0</ele><time>2026-04-25T13:01:21.039Z</time></trkpt><trkpt lat="45.87545237902886" lon="12.188253563457467"><ele>118.00000000000001</ele><time>2026-04-25T13:01:23.039Z</time></trkpt><trkpt lat="45.87551007718704" lon="12.18833937157232"><ele>118.0</ele><time>2026-04-25T13:01:25.039Z</time></trkpt><trkpt lat="45.87560930254139" lon="12.18842615394973"><ele>118.00000000000001</ele><time>2026-04-25T13:01:27.039Z</time></trkpt><trkpt lat="45.875680467087335" lon="12.188486414886551"><ele>118.0</ele><time>2026-04-25T13:01:28.039Z</time></trkpt><trkpt lat="45.8757437065406" lon="12.18853808035477"><ele>118.0</ele><time>2026-04-25T13:01:29.039Z</time></trkpt><trkpt lat="45.87579856741952" lon="12.188582644111982"><ele>118.0</ele><time>2026-04-25T13:01:30.039Z</time></trkpt><trkpt lat="45.87586006165761" lon="12.18861246476369"><ele>118.00000000000001</ele><time>2026-04-25T13:01:31.039Z</time></trkpt><trkpt lat="45.87591803734615" lon="12.188648491553623"><ele>118.0</ele><time>2026-04-25T13:01:32.039Z</time></trkpt><trkpt lat="45.876011994092686" lon="12.188722236425628"><ele>118.0</ele><time>2026-04-25T13:01:34.039Z</time></trkpt><trkpt lat="45.87607735809135" lon="12.188776385867046"><ele>118.00000000000001</ele><time>2026-04-25T13:01:35.039Z</time></trkpt><trkpt lat="45.8761984332989" lon="12.188857877877053"><ele>118.00000000000001</ele><time>2026-04-25T13:01:37.039Z</time></trkpt><trkpt lat="45.876279730409145" lon="12.188904411027709"><ele>118.0</ele><time>2026-04-25T13:01:39.039Z</time></trkpt><trkpt lat="45.87638786015849" lon="12.188985894172937"><ele>118.0</ele><time>2026-04-25T13:01:41.039Z</time></trkpt><trkpt lat="45.87644855396438" lon="12.189021014770324"><ele>118.0</ele><time>2026-04-25T13:01:42.039Z</time></trkpt><trkpt lat="45.87654613685959" lon="12.189096206599922"><ele>118.00000000000001</ele><time>2026-04-25T13:01:44.039Z</time></trkpt><trkpt lat="45.87663294849335" lon="12.189159448245494"><ele>118.00000000000001</ele><time>2026-04-25T13:01:46.039Z</time></trkpt><trkpt lat="45.87670975488769" lon="12.189235088156007"><ele>118.0</ele><time>2026-04-25T13:01:48.039Z</time></trkpt><trkpt lat="45.87678756952244" lon="12.18929471256164"><ele>118.0</ele><time>2026-04-25T13:01:50.039Z</time></trkpt><trkpt lat="45.87687969075492" lon="12.189349969244846"><ele>118.60000000000001</ele><time>2026-04-25T13:01:52.039Z</time></trkpt><trkpt lat="45.876968106982694" lon="12.189415797950558"><ele>119.20000000000002</ele><time>2026-04-25T13:01:54.039Z</time></trkpt><trkpt lat="45.87705640614122" lon="12.18947738683768"><ele>119.8</ele><time>2026-04-25T13:01:56.039Z</time></trkpt><trkpt lat="45.8771436870534" lon="12.189541011367506"><ele>120.4</ele><time>2026-04-25T13:01:58.039Z</time></trkpt><trkpt lat="45.877230437508814" lon="12.189606638930533"><ele>121.0</ele><time>2026-04-25T13:02:00.039Z</time></trkpt><trkpt lat="45.877323391809185" lon="12.18967848121957"><ele>121.00000000000001</ele><time>2026-04-25T13:02:02.039Z</time></trkpt><trkpt lat="45.87741154688518" lon="12.189748240108138"><ele>121.0</ele><time>2026-04-25T13:02:04.039Z</time></trkpt><trkpt lat="45.87749478891882" lon="12.189824714529726"><ele>121.0</ele><time>2026-04-25T13:02:06.039Z</time></trkpt><trkpt lat="45.87758001469761" lon="12.189876287990907"><ele>121.0</ele><time>2026-04-25T13:02:08.039Z</time></trkpt><trkpt lat="45.87765832092962" lon="12.18986930272982"><ele>121.00000000000001</ele><time>2026-04-25T13:02:10.039Z</time></trkpt><trkpt lat="45.87769632447726" lon="12.189780419278575"><ele>121.0</ele><time>2026-04-25T13:02:13.039Z</time></trkpt><trkpt lat="45.87764481496132" lon="12.189833118644524"><ele>120.6</ele><time>2026-04-25T13:02:17.039Z</time></trkpt><trkpt lat="45.8775957626772" lon="12.189959611218786"><ele>120.19999999999999</ele><time>2026-04-25T13:02:20.039Z</time></trkpt><trkpt lat="45.877607865947496" lon="12.190067244509386"><ele>119.80000000000001</ele><time>2026-04-25T13:02:22.039Z</time></trkpt><trkpt lat="45.87764675523862" lon="12.190187147074507"><ele>119.4</ele><time>2026-04-25T13:02:23.949Z</time></trkpt><trkpt lat="45.87773077805559" lon="12.190314860451641"><ele>119.0</ele><time>2026-04-25T13:02:25.95Z</time></trkpt><trkpt lat="45.8777919501675" lon="12.190381155917756"><ele>118.99999999999999</ele><time>2026-04-25T13:02:26.951Z</time></trkpt><trkpt lat="45.87785133932254" lon="12.190442473195333"><ele>119.0</ele><time>2026-04-25T13:02:27.951Z</time></trkpt><trkpt lat="45.87791490426496" lon="12.190516396577035"><ele>119.0</ele><time>2026-04-25T13:02:28.951Z</time></trkpt><trkpt lat="45.877975077811676" lon="12.19058807957018"><ele>119.0</ele><time>2026-04-25T13:02:29.951Z</time></trkpt><trkpt lat="45.878045033229064" lon="12.190649815302717"><ele>118.99999999999999</ele><time>2026-04-25T13:02:30.951Z</time></trkpt><trkpt lat="45.878113178297106" lon="12.190696705641468"><ele>119.0</ele><time>2026-04-25T13:02:31.95Z</time></trkpt><trkpt lat="45.87818771422746" lon="12.190735432502345"><ele>119.49999999999999</ele><time>2026-04-25T13:02:32.951Z</time></trkpt><trkpt lat="45.87825440014713" lon="12.190774232703378"><ele>120.0</ele><time>2026-04-25T13:02:33.951Z</time></trkpt><trkpt lat="45.87831281597867" lon="12.190811306792167"><ele>120.5</ele><time>2026-04-25T13:02:34.951Z</time></trkpt><trkpt lat="45.878364223959146" lon="12.190870402274944"><ele>121.0</ele><time>2026-04-25T13:02:35.951Z</time></trkpt><trkpt lat="45.878461259534475" lon="12.190955391201308"><ele>121.49999999999999</ele><time>2026-04-25T13:02:37.951Z</time></trkpt><trkpt lat="45.878552452842115" lon="12.191033839663218"><ele>122.0</ele><time>2026-04-25T13:02:39.951Z</time></trkpt><trkpt lat="45.87862832882946" lon="12.191145752244609"><ele>122.0</ele><time>2026-04-25T13:02:41.951Z</time></trkpt><trkpt lat="45.87869748281554" lon="12.191242173409616"><ele>121.99999999999999</ele><time>2026-04-25T13:02:43.952Z</time></trkpt><trkpt lat="45.87875650917783" lon="12.191364441731574"><ele>121.99999999999999</ele><time>2026-04-25T13:02:45.952Z</time></trkpt><trkpt lat="45.87880480569121" lon="12.19142259080614"><ele>122.0</ele><time>2026-04-25T13:02:46.952Z</time></trkpt><trkpt lat="45.87889517876888" lon="12.191503407878912"><ele>122.0</ele><time>2026-04-25T13:02:48.952Z</time></trkpt><trkpt lat="45.878996401478005" lon="12.191603303943687"><ele>121.33333333333333</ele><time>2026-04-25T13:02:50.952Z</time></trkpt><trkpt lat="45.879087298325835" lon="12.191693834191296"><ele>120.66666666666666</ele><time>2026-04-25T13:02:52.952Z</time></trkpt><trkpt lat="45.879151145037525" lon="12.19173341859028"><ele>120.0</ele><time>2026-04-25T13:02:53.952Z</time></trkpt><trkpt lat="45.87923596483216" lon="12.191768798034971"><ele>119.33333333333334</ele><time>2026-04-25T13:02:54.952Z</time></trkpt><trkpt lat="45.879308639099776" lon="12.19178036016481"><ele>118.66666666666667</ele><time>2026-04-25T13:02:55.952Z</time></trkpt><trkpt lat="45.879382102093466" lon="12.191790855827211"><ele>118.0</ele><time>2026-04-25T13:02:56.952Z</time></trkpt><trkpt lat="45.87948465537666" lon="12.191821332976488"><ele>118.0</ele><time>2026-04-25T13:02:58.952Z</time></trkpt><trkpt lat="45.87955183880322" lon="12.191856721782857"><ele>118.00000000000001</ele><time>2026-04-25T13:02:59.952Z</time></trkpt><trkpt lat="45.87965922281379" lon="12.19192117668455"><ele>118.00000000000001</ele><time>2026-04-25T13:03:01.952Z</time></trkpt><trkpt lat="45.87972265901694" lon="12.191918433897863"><ele>118.0</ele><time>2026-04-25T13:03:02.952Z</time></trkpt><trkpt lat="45.87983759157206" lon="12.191932338752986"><ele>118.0</ele><time>2026-04-25T13:03:04.952Z</time></trkpt><trkpt lat="45.87994173165337" lon="12.191983180373862"><ele>118.00000000000001</ele><time>2026-04-25T13:03:06.952Z</time></trkpt><trkpt lat="45.880005393757195" lon="12.192039197890407"><ele>118.0</ele><time>2026-04-25T13:03:08.952Z</time></trkpt><trkpt lat="45.880058558691175" lon="12.192087948177699"><ele>118.0</ele><time>2026-04-25T13:03:09.952Z</time></trkpt><trkpt lat="45.88014726551333" lon="12.192170363216471"><ele>118.0</ele><time>2026-04-25T13:03:11.952Z</time></trkpt><trkpt lat="45.8802151682739" lon="12.192244691492172"><ele>118.00000000000001</ele><time>2026-04-25T13:03:13.952Z</time></trkpt><trkpt lat="45.880247987191304" lon="12.192325748412532"><ele>118.0</ele><time>2026-04-25T13:03:15.952Z</time></trkpt><trkpt lat="45.88027248998538" lon="12.192470960856708"><ele>116.83333333333334</ele><time>2026-04-25T13:03:17.951Z</time></trkpt><trkpt lat="45.88023185162761" lon="12.192594321259538"><ele>115.66666666666667</ele><time>2026-04-25T13:03:19.951Z</time></trkpt><trkpt lat="45.8801922342749" lon="12.192705709245159"><ele>114.5</ele><time>2026-04-25T13:03:21.951Z</time></trkpt><trkpt lat="45.880121073780884" lon="12.192726663379647"><ele>113.33333333333334</ele><time>2026-04-25T13:03:23.951Z</time></trkpt><trkpt lat="45.88005287940414" lon="12.192752860527133"><ele>112.16666666666667</ele><time>2026-04-25T13:03:25.951Z</time></trkpt><trkpt lat="45.879999616953775" lon="12.192832200427402"><ele>111.0</ele><time>2026-04-25T13:03:28.951Z</time></trkpt><trkpt lat="45.8800139437684" lon="12.192937324727836"><ele>111.0</ele><time>2026-04-25T13:03:30.951Z</time></trkpt><trkpt lat="45.88008458033456" lon="12.193010642396363"><ele>111.0</ele><time>2026-04-25T13:03:34.951Z</time></trkpt><trkpt lat="45.88015118947399" lon="12.193053733695862"><ele>111.0</ele><time>2026-04-25T13:03:37.951Z</time></trkpt><trkpt lat="45.880229757125505" lon="12.193098577596501"><ele>111.0</ele><time>2026-04-25T13:03:42.951Z</time></trkpt><trkpt lat="45.880298686386105" lon="12.193156423287277"><ele>111.0</ele><time>2026-04-25T13:03:45.951Z</time></trkpt><trkpt lat="45.880366246376106" lon="12.193211199726974"><ele>111.0</ele><time>2026-04-25T13:03:50.951Z</time></trkpt><trkpt lat="45.88041312743955" lon="12.193289333132233"><ele>111.5</ele><time>2026-04-25T13:03:54.951Z</time></trkpt><trkpt lat="45.880448524625116" lon="12.193365622605684"><ele>112.0</ele><time>2026-04-25T13:03:57.951Z</time></trkpt><trkpt lat="45.88050793328674" lon="12.19343591918843"><ele>112.5</ele><time>2026-04-25T13:04:01.951Z</time></trkpt><trkpt lat="45.880565346553546" lon="12.193498988559442"><ele>113.0</ele><time>2026-04-25T13:04:05.951Z</time></trkpt><trkpt lat="45.880624293045166" lon="12.193596767465744"><ele>113.5</ele><time>2026-04-25T13:04:08.951Z</time></trkpt><trkpt lat="45.88066840006273" lon="12.193698437864876"><ele>114.0</ele><time>2026-04-25T13:04:11.951Z</time></trkpt><trkpt lat="45.880698413776656" lon="12.193787120255207"><ele>114.0</ele><time>2026-04-25T13:04:14.951Z</time></trkpt><trkpt lat="45.880722022840025" lon="12.193887177535098"><ele>113.99999999999999</ele><time>2026-04-25T13:04:17.95Z</time></trkpt><trkpt lat="45.88075010455001" lon="12.193978910582597"><ele>114.0</ele><time>2026-04-25T13:04:21.95Z</time></trkpt><trkpt lat="45.880767655702535" lon="12.194077681512676"><ele>114.0</ele><time>2026-04-25T13:04:25.95Z</time></trkpt><trkpt lat="45.88079566822265" lon="12.194169642360112"><ele>113.99999999999999</ele><time>2026-04-25T13:04:32.951Z</time></trkpt><trkpt lat="45.88084131751283" lon="12.194252466941263"><ele>114.0</ele><time>2026-04-25T13:04:37.951Z</time></trkpt><trkpt lat="45.88088327860466" lon="12.194334105633553"><ele>114.0</ele><time>2026-04-25T13:04:40.951Z</time></trkpt><trkpt lat="45.88091002893071" lon="12.194431188094203"><ele>115.14285714285714</ele><time>2026-04-25T13:04:43.95Z</time></trkpt><trkpt lat="45.88094209933119" lon="12.194509999910084"><ele>116.28571428571428</ele><time>2026-04-25T13:04:46.95Z</time></trkpt><trkpt lat="45.880953118338645" lon="12.194600813529915"><ele>117.42857142857142</ele><time>2026-04-25T13:04:50.95Z</time></trkpt><trkpt lat="45.88097825338304" lon="12.19472111009056"><ele>118.57142857142856</ele><time>2026-04-25T13:04:54.95Z</time></trkpt><trkpt lat="45.881030221959584" lon="12.194792474331317"><ele>119.71428571428571</ele><time>2026-04-25T13:04:57.95Z</time></trkpt><trkpt lat="45.88107869756332" lon="12.1948562235539"><ele>120.85714285714283</ele><time>2026-04-25T13:05:01.95Z</time></trkpt><trkpt lat="45.88114733989904" lon="12.194929435924108"><ele>121.99999999999999</ele><time>2026-04-25T13:05:05.95Z</time></trkpt><trkpt lat="45.881211375093315" lon="12.19499211823063"><ele>123.83333333333333</ele><time>2026-04-25T13:05:09.95Z</time></trkpt><trkpt lat="45.8812583296793" lon="12.195087993027318"><ele>125.66666666666666</ele><time>2026-04-25T13:05:14.95Z</time></trkpt><trkpt lat="45.88131077411824" lon="12.195168994393741"><ele>127.5</ele><time>2026-04-25T13:05:17.95Z</time></trkpt><trkpt lat="45.88137134555828" lon="12.195237497969835"><ele>129.33333333333334</ele><time>2026-04-25T13:05:21.949Z</time></trkpt><trkpt lat="45.88143382787455" lon="12.195324718892733"><ele>131.16666666666669</ele><time>2026-04-25T13:05:25.949Z</time></trkpt><trkpt lat="45.88149473095673" lon="12.195385257462986"><ele>133.0</ele><time>2026-04-25T13:05:29.949Z</time></trkpt><trkpt lat="45.881553390623004" lon="12.195442177853643"><ele>133.0</ele><time>2026-04-25T13:05:33.949Z</time></trkpt><trkpt lat="45.881619725518696" lon="12.195490598440886"><ele>133.0</ele><time>2026-04-25T13:05:38.949Z</time></trkpt><trkpt lat="45.881697069071514" lon="12.195557470580498"><ele>133.0</ele><time>2026-04-25T13:05:42.949Z</time></trkpt><trkpt lat="45.881757693071435" lon="12.195613625911498"><ele>133.0</ele><time>2026-04-25T13:05:46.949Z</time></trkpt><trkpt lat="45.881812257832806" lon="12.1956801625809"><ele>133.0</ele><time>2026-04-25T13:05:50.949Z</time></trkpt><trkpt lat="45.881850681995815" lon="12.195761588810933"><ele>133.0</ele><time>2026-04-25T13:05:53.949Z</time></trkpt><trkpt lat="45.88192434808304" lon="12.195865572504218"><ele>134.0</ele><time>2026-04-25T13:05:56.949Z</time></trkpt><trkpt lat="45.88197633481433" lon="12.195941501219968"><ele>135.0</ele><time>2026-04-25T13:05:58.949Z</time></trkpt><trkpt lat="45.88202402969219" lon="12.19600923390231"><ele>136.0</ele><time>2026-04-25T13:06:00.949Z</time></trkpt><trkpt lat="45.88208997476469" lon="12.196100743871082"><ele>137.0</ele><time>2026-04-25T13:06:03.949Z</time></trkpt><trkpt lat="45.882149205995375" lon="12.196196911038511"><ele>138.0</ele><time>2026-04-25T13:06:06.949Z</time></trkpt><trkpt lat="45.88220271980698" lon="12.196276454611555"><ele>139.0</ele><time>2026-04-25T13:06:10.949Z</time></trkpt><trkpt lat="45.882248519584394" lon="12.19635892230932"><ele>139.0</ele><time>2026-04-25T13:06:14.948Z</time></trkpt><trkpt lat="45.882307234288966" lon="12.196451498582206"><ele>139.0</ele><time>2026-04-25T13:06:18.948Z</time></trkpt><trkpt lat="45.88236029198233" lon="12.1965365875997"><ele>139.0</ele><time>2026-04-25T13:06:22.948Z</time></trkpt><trkpt lat="45.88241331038689" lon="12.19662046770718"><ele>139.0</ele><time>2026-04-25T13:06:26.948Z</time></trkpt><trkpt lat="45.88246769926219" lon="12.196720809918995"><ele>139.0</ele><time>2026-04-25T13:06:30.948Z</time></trkpt><trkpt lat="45.88252902665884" lon="12.196802863839878"><ele>139.0</ele><time>2026-04-25T13:06:34.948Z</time></trkpt><trkpt lat="45.88257492152813" lon="12.196891735141412"><ele>139.85714285714286</ele><time>2026-04-25T13:06:38.95Z</time></trkpt><trkpt lat="45.88261182571611" lon="12.19698309623277"><ele>140.71428571428572</ele><time>2026-04-25T13:06:42.949Z</time></trkpt><trkpt lat="45.88265295942785" lon="12.197051579151577"><ele>141.57142857142858</ele><time>2026-04-25T13:06:45.949Z</time></trkpt><trkpt lat="45.882699464499034" lon="12.197145246486475"><ele>142.42857142857144</ele><time>2026-04-25T13:06:49.949Z</time></trkpt><trkpt lat="45.88273907334708" lon="12.197218489664632"><ele>143.2857142857143</ele><time>2026-04-25T13:06:52.949Z</time></trkpt><trkpt lat="45.88279526645433" lon="12.197314293787526"><ele>144.14285714285714</ele><time>2026-04-25T13:06:56.949Z</time></trkpt><trkpt lat="45.88284419744757" lon="12.197393290195173"><ele>145.0</ele><time>2026-04-25T13:06:59.949Z</time></trkpt><trkpt lat="45.88288324768079" lon="12.197472681654839"><ele>145.71428571428572</ele><time>2026-04-25T13:07:03.949Z</time></trkpt><trkpt lat="45.88292305339619" lon="12.197562770830931"><ele>146.42857142857144</ele><time>2026-04-25T13:07:07.949Z</time></trkpt><trkpt lat="45.88296251222992" lon="12.197634222273992"><ele>147.14285714285714</ele><time>2026-04-25T13:07:10.949Z</time></trkpt><trkpt lat="45.88300817859012" lon="12.197710511554261"><ele>147.85714285714286</ele><time>2026-04-25T13:07:14.949Z</time></trkpt><trkpt lat="45.883064343847025" lon="12.197791397755521"><ele>148.57142857142856</ele><time>2026-04-25T13:07:18.949Z</time></trkpt><trkpt lat="45.883097230660226" lon="12.19787436646799"><ele>149.28571428571428</ele><time>2026-04-25T13:07:22.948Z</time></trkpt><trkpt lat="45.883133458265206" lon="12.197949034331133"><ele>150.0</ele><time>2026-04-25T13:07:25.948Z</time></trkpt><trkpt lat="45.88319070847139" lon="12.198025985785522"><ele>150.0</ele><time>2026-04-25T13:07:29.948Z</time></trkpt><trkpt lat="45.883235319630195" lon="12.198129949605994"><ele>150.0</ele><time>2026-04-25T13:07:33.948Z</time></trkpt><trkpt lat="45.88327018919515" lon="12.19821661647589"><ele>150.0</ele><time>2026-04-25T13:07:37.948Z</time></trkpt><trkpt lat="45.8833100434838" lon="12.198329571603688"><ele>150.0</ele><time>2026-04-25T13:07:41.948Z</time></trkpt><trkpt lat="45.88334307355838" lon="12.198427947317494"><ele>150.0</ele><time>2026-04-25T13:07:45.948Z</time></trkpt><trkpt lat="45.88336277929946" lon="12.19851945804583"><ele>150.0</ele><time>2026-04-25T13:07:48.948Z</time></trkpt><trkpt lat="45.883404187725226" lon="12.198631936899153"><ele>151.16666666666666</ele><time>2026-04-25T13:07:52.948Z</time></trkpt><trkpt lat="45.88343149656512" lon="12.198719133165156"><ele>152.33333333333334</ele><time>2026-04-25T13:07:55.948Z</time></trkpt><trkpt lat="45.88347715060606" lon="12.198825562263416"><ele>153.5</ele><time>2026-04-25T13:07:58.948Z</time></trkpt><trkpt lat="45.88351770481038" lon="12.198940155237926"><ele>154.66666666666669</ele><time>2026-04-25T13:08:02.948Z</time></trkpt><trkpt lat="45.88355030004552" lon="12.199020458466094"><ele>155.83333333333334</ele><time>2026-04-25T13:08:05.948Z</time></trkpt><trkpt lat="45.883590362952866" lon="12.199109536562803"><ele>157.0</ele><time>2026-04-25T13:08:07.948Z</time></trkpt><trkpt lat="45.88363880732268" lon="12.199214228758118"><ele>157.5</ele><time>2026-04-25T13:08:10.948Z</time></trkpt><trkpt lat="45.883683660984545" lon="12.199303285604184"><ele>158.0</ele><time>2026-04-25T13:08:13.948Z</time></trkpt><trkpt lat="45.883724535634826" lon="12.199411159611447"><ele>158.5</ele><time>2026-04-25T13:08:16.947Z</time></trkpt><trkpt lat="45.88375543652687" lon="12.1995033959489"><ele>159.0</ele><time>2026-04-25T13:08:19.947Z</time></trkpt><trkpt lat="45.8837972295349" lon="12.199621316875062"><ele>159.5</ele><time>2026-04-25T13:08:22.947Z</time></trkpt><trkpt lat="45.8838239995777" lon="12.19970479284002"><ele>160.0</ele><time>2026-04-25T13:08:25.947Z</time></trkpt><trkpt lat="45.88385408111158" lon="12.199804181172471"><ele>160.66666666666669</ele><time>2026-04-25T13:08:28.947Z</time></trkpt><trkpt lat="45.883888096514525" lon="12.199905097162835"><ele>161.33333333333334</ele><time>2026-04-25T13:08:31.947Z</time></trkpt><trkpt lat="45.88392034426353" lon="12.200003043720685"><ele>162.0</ele><time>2026-04-25T13:08:34.947Z</time></trkpt><trkpt lat="45.883956155501984" lon="12.200100457973388"><ele>162.66666666666666</ele><time>2026-04-25T13:08:37.947Z</time></trkpt><trkpt lat="45.884004854376904" lon="12.200185574157592"><ele>163.33333333333331</ele><time>2026-04-25T13:08:40.947Z</time></trkpt><trkpt lat="45.88405305441803" lon="12.200259724797702"><ele>164.0</ele><time>2026-04-25T13:08:43.948Z</time></trkpt><trkpt lat="45.884124285839725" lon="12.200345998958015"><ele>163.99999999999997</ele><time>2026-04-25T13:08:46.948Z</time></trkpt><trkpt lat="45.88419927507336" lon="12.200424759525891"><ele>164.0</ele><time>2026-04-25T13:08:50.947Z</time></trkpt><trkpt lat="45.88425177023604" lon="12.200478220331373"><ele>164.0</ele><time>2026-04-25T13:08:53.947Z</time></trkpt><trkpt lat="45.88431991633056" lon="12.20052467192521"><ele>164.0</ele><time>2026-04-25T13:08:56.947Z</time></trkpt><trkpt lat="45.884364975006534" lon="12.200597630623497"><ele>164.0</ele><time>2026-04-25T13:08:59.947Z</time></trkpt><trkpt lat="45.88436502824659" lon="12.200702002474323"><ele>163.99999999999997</ele><time>2026-04-25T13:09:02.947Z</time></trkpt><trkpt lat="45.88433797853449" lon="12.200789106537515"><ele>164.0</ele><time>2026-04-25T13:09:06.947Z</time></trkpt><trkpt lat="45.884315286157104" lon="12.20087356166558"><ele>165.99999999999997</ele><time>2026-04-25T13:09:11.947Z</time></trkpt><trkpt lat="45.8842918858427" lon="12.200977329470225"><ele>168.0</ele><time>2026-04-25T13:09:15.947Z</time></trkpt><trkpt lat="45.884310980069074" lon="12.201083749251707"><ele>170.0</ele><time>2026-04-25T13:09:18.947Z</time></trkpt><trkpt lat="45.884326020546716" lon="12.201182826480126"><ele>172.0</ele><time>2026-04-25T13:09:23.947Z</time></trkpt><trkpt lat="45.88434673905081" lon="12.20128456179101"><ele>174.0</ele><time>2026-04-25T13:09:27.947Z</time></trkpt><trkpt lat="45.88436824465586" lon="12.20137240547801"><ele>175.99999999999997</ele><time>2026-04-25T13:09:30.947Z</time></trkpt><trkpt lat="45.88438764884364" lon="12.20147787262299"><ele>178.0</ele><time>2026-04-25T13:09:34.946Z</time></trkpt><trkpt lat="45.88441032133774" lon="12.201582184696832"><ele>178.99999999999997</ele><time>2026-04-25T13:09:38.946Z</time></trkpt><trkpt lat="45.884416618699525" lon="12.201684550444936"><ele>180.0</ele><time>2026-04-25T13:09:42.946Z</time></trkpt><trkpt lat="45.88444161724332" lon="12.201777535332425"><ele>181.0</ele><time>2026-04-25T13:09:46.946Z</time></trkpt><trkpt lat="45.884467596308056" lon="12.20187086182615"><ele>182.0</ele><time>2026-04-25T13:09:50.946Z</time></trkpt><trkpt lat="45.884486846889246" lon="12.20196179112877"><ele>183.0</ele><time>2026-04-25T13:09:54.946Z</time></trkpt><trkpt lat="45.884525921153234" lon="12.202076637974919"><ele>183.99999999999997</ele><time>2026-04-25T13:09:59.946Z</time></trkpt><trkpt lat="45.8845494130819" lon="12.202166506721674"><ele>185.0</ele><time>2026-04-25T13:10:03.946Z</time></trkpt><trkpt lat="45.88457751046118" lon="12.202248796299221"><ele>186.16666666666666</ele><time>2026-04-25T13:10:07.946Z</time></trkpt><trkpt lat="45.884601873959554" lon="12.202351396510503"><ele>187.33333333333331</ele><time>2026-04-25T13:10:12.946Z</time></trkpt><trkpt lat="45.88462396802107" lon="12.202449204109495"><ele>188.5</ele><time>2026-04-25T13:10:17.946Z</time></trkpt><trkpt lat="45.88467015871979" lon="12.202520375992014"><ele>189.66666666666666</ele><time>2026-04-25T13:10:20.946Z</time></trkpt><trkpt lat="45.884740530823805" lon="12.202556044070892"><ele>190.83333333333334</ele><time>2026-04-25T13:10:25.946Z</time></trkpt><trkpt lat="45.88483078841597" lon="12.202579000604677"><ele>192.0</ele><time>2026-04-25T13:10:29.945Z</time></trkpt><trkpt lat="45.88491859975655" lon="12.202585613027143"><ele>192.0</ele><time>2026-04-25T13:10:33.945Z</time></trkpt><trkpt lat="45.88501473347432" lon="12.202581234041798"><ele>192.0</ele><time>2026-04-25T13:10:36.945Z</time></trkpt><trkpt lat="45.885084351617714" lon="12.202580789660752"><ele>192.0</ele><time>2026-04-25T13:10:38.945Z</time></trkpt><trkpt lat="45.88515408926815" lon="12.202587790634212"><ele>192.0</ele><time>2026-04-25T13:10:41.945Z</time></trkpt><trkpt lat="45.885220847109466" lon="12.202572663893388"><ele>192.0</ele><time>2026-04-25T13:10:44.945Z</time></trkpt><trkpt lat="45.88528966556101" lon="12.20257806806525"><ele>192.0</ele><time>2026-04-25T13:10:47.945Z</time></trkpt><trkpt lat="45.88536839040288" lon="12.202567254901027"><ele>194.85714285714283</ele><time>2026-04-25T13:10:51.946Z</time></trkpt><trkpt lat="45.88544153362239" lon="12.202559328575544"><ele>197.71428571428572</ele><time>2026-04-25T13:10:55.946Z</time></trkpt><trkpt lat="45.88550739779296" lon="12.202574255842116"><ele>200.57142857142856</ele><time>2026-04-25T13:10:59.946Z</time></trkpt><trkpt lat="45.88556325148937" lon="12.202630077166337"><ele>203.42857142857142</ele><time>2026-04-25T13:11:03.946Z</time></trkpt><trkpt lat="45.88558805205214" lon="12.202729581763496"><ele>206.28571428571428</ele><time>2026-04-25T13:11:07.946Z</time></trkpt><trkpt lat="45.88560274206369" lon="12.202836107037015"><ele>209.14285714285714</ele><time>2026-04-25T13:11:11.946Z</time></trkpt><trkpt lat="45.88561921868003" lon="12.2029339605874"><ele>212.0</ele><time>2026-04-25T13:11:16.946Z</time></trkpt><trkpt lat="45.88559315194067" lon="12.203019783794714"><ele>212.00000000000003</ele><time>2026-04-25T13:11:20.946Z</time></trkpt><trkpt lat="45.88555901086175" lon="12.203119886438236"><ele>212.0</ele><time>2026-04-25T13:11:24.946Z</time></trkpt><trkpt lat="45.8855441854073" lon="12.203221754806988"><ele>212.0</ele><time>2026-04-25T13:11:27.945Z</time></trkpt><trkpt lat="45.88553196662006" lon="12.203345598537377"><ele>212.0</ele><time>2026-04-25T13:11:31.945Z</time></trkpt><trkpt lat="45.885538149310776" lon="12.203443519949161"><ele>212.00000000000003</ele><time>2026-04-25T13:11:34.945Z</time></trkpt><trkpt lat="45.885542505060045" lon="12.20354258813221"><ele>212.0</ele><time>2026-04-25T13:11:37.945Z</time></trkpt><trkpt lat="45.88556202425462" lon="12.203656715678804"><ele>212.33333333333334</ele><time>2026-04-25T13:11:41.945Z</time></trkpt><trkpt lat="45.88560253473334" lon="12.203761740202253"><ele>212.66666666666669</ele><time>2026-04-25T13:11:45.945Z</time></trkpt><trkpt lat="45.88564287811599" lon="12.203834166597582"><ele>213.0</ele><time>2026-04-25T13:11:48.945Z</time></trkpt><trkpt lat="45.88567657828531" lon="12.203926861179479"><ele>213.33333333333331</ele><time>2026-04-25T13:11:51.945Z</time></trkpt><trkpt lat="45.88573353685423" lon="12.20402322849884"><ele>213.66666666666666</ele><time>2026-04-25T13:11:55.945Z</time></trkpt><trkpt lat="45.88580053422233" lon="12.204093147237977"><ele>214.0</ele><time>2026-04-25T13:11:59.945Z</time></trkpt><trkpt lat="45.88586498886486" lon="12.204150749323961"><ele>212.0</ele><time>2026-04-25T13:12:03.945Z</time></trkpt><trkpt lat="45.88595669383697" lon="12.204218117636826"><ele>209.99999999999997</ele><time>2026-04-25T13:12:06.945Z</time></trkpt><trkpt lat="45.88604882323579" lon="12.204322074184393"><ele>208.0</ele><time>2026-04-25T13:12:08.945Z</time></trkpt><trkpt lat="45.88609428700694" lon="12.204392489775506"><ele>206.0</ele><time>2026-04-25T13:12:09.945Z</time></trkpt><trkpt lat="45.886141131109646" lon="12.20447120364282"><ele>204.0</ele><time>2026-04-25T13:12:10.945Z</time></trkpt><trkpt lat="45.8862136661782" lon="12.204552876076665"><ele>204.0</ele><time>2026-04-25T13:12:11.945Z</time></trkpt><trkpt lat="45.886301711757405" lon="12.204626507103164"><ele>204.0</ele><time>2026-04-25T13:12:12.945Z</time></trkpt><trkpt lat="45.88639403828336" lon="12.204684818795567"><ele>204.0</ele><time>2026-04-25T13:12:13.945Z</time></trkpt><trkpt lat="45.88648898754392" lon="12.204725884337805"><ele>204.0</ele><time>2026-04-25T13:12:14.945Z</time></trkpt><trkpt lat="45.88659204838677" lon="12.204758835396854"><ele>204.0</ele><time>2026-04-25T13:12:15.945Z</time></trkpt><trkpt lat="45.886718416567966" lon="12.204798978543757"><ele>203.0</ele><time>2026-04-25T13:12:16.945Z</time></trkpt><trkpt lat="45.886828426067765" lon="12.204835831958027"><ele>202.0</ele><time>2026-04-25T13:12:17.945Z</time></trkpt><trkpt lat="45.886935128295285" lon="12.204874540984388"><ele>201.0</ele><time>2026-04-25T13:12:18.945Z</time></trkpt><trkpt lat="45.887035285337305" lon="12.204902779731016"><ele>200.0</ele><time>2026-04-25T13:12:19.945Z</time></trkpt><trkpt lat="45.887138403395596" lon="12.204939046619423"><ele>199.0</ele><time>2026-04-25T13:12:20.945Z</time></trkpt><trkpt lat="45.88723767085851" lon="12.204976536228017"><ele>199.0</ele><time>2026-04-25T13:12:21.945Z</time></trkpt><trkpt lat="45.887336587791665" lon="12.205034993591624"><ele>199.0</ele><time>2026-04-25T13:12:22.944Z</time></trkpt><trkpt lat="45.887421971119785" lon="12.205121410210063"><ele>199.0</ele><time>2026-04-25T13:12:23.944Z</time></trkpt><trkpt lat="45.8874931076728" lon="12.205225176122068"><ele>199.0</ele><time>2026-04-25T13:12:24.944Z</time></trkpt><trkpt lat="45.88754900931635" lon="12.205336497494018"><ele>199.0</ele><time>2026-04-25T13:12:25.944Z</time></trkpt><trkpt lat="45.88759516278754" lon="12.2054540851013"><ele>198.83333333333331</ele><time>2026-04-25T13:12:26.944Z</time></trkpt><trkpt lat="45.88764352994094" lon="12.205565865838741"><ele>198.66666666666666</ele><time>2026-04-25T13:12:27.944Z</time></trkpt><trkpt lat="45.88769234891058" lon="12.205672370341203"><ele>198.5</ele><time>2026-04-25T13:12:28.944Z</time></trkpt><trkpt lat="45.88775288826612" lon="12.205773929467242"><ele>198.33333333333331</ele><time>2026-04-25T13:12:29.944Z</time></trkpt><trkpt lat="45.88780960316858" lon="12.205866777078201"><ele>198.16666666666666</ele><time>2026-04-25T13:12:30.944Z</time></trkpt><trkpt lat="45.88786296296493" lon="12.20595650576405"><ele>198.0</ele><time>2026-04-25T13:12:31.944Z</time></trkpt><trkpt lat="45.88791826659756" lon="12.206034951759474"><ele>198.2857142857143</ele><time>2026-04-25T13:12:32.944Z</time></trkpt><trkpt lat="45.88797344431662" lon="12.206102892191522"><ele>198.57142857142856</ele><time>2026-04-25T13:12:33.944Z</time></trkpt><trkpt lat="45.888037722067935" lon="12.206176044276088"><ele>198.85714285714286</ele><time>2026-04-25T13:12:34.944Z</time></trkpt><trkpt lat="45.88809483694555" lon="12.206242900961293"><ele>199.14285714285717</ele><time>2026-04-25T13:12:35.944Z</time></trkpt><trkpt lat="45.88815557446314" lon="12.206301953070016"><ele>199.42857142857144</ele><time>2026-04-25T13:12:36.944Z</time></trkpt><trkpt lat="45.88821138081007" lon="12.206345531789578"><ele>199.71428571428572</ele><time>2026-04-25T13:12:37.944Z</time></trkpt><trkpt lat="45.8882768984012" lon="12.206375955334307"><ele>200.0</ele><time>2026-04-25T13:12:38.944Z</time></trkpt><trkpt lat="45.88839603270527" lon="12.20638118025138"><ele>200.25</ele><time>2026-04-25T13:12:40.944Z</time></trkpt><trkpt lat="45.88851153751367" lon="12.20637840355515"><ele>200.5</ele><time>2026-04-25T13:12:42.944Z</time></trkpt><trkpt lat="45.88862809188905" lon="12.206390428117844"><ele>200.75</ele><time>2026-04-25T13:12:44.944Z</time></trkpt><trkpt lat="45.88874503495438" lon="12.206417937311793"><ele>201.0</ele><time>2026-04-25T13:12:46.944Z</time></trkpt><trkpt lat="45.888869054606026" lon="12.20640636479965"><ele>201.0</ele><time>2026-04-25T13:12:48.944Z</time></trkpt><trkpt lat="45.88899114560773" lon="12.20639151819908"><ele>201.0</ele><time>2026-04-25T13:12:50.944Z</time></trkpt><trkpt lat="45.889111299383465" lon="12.206346779463962"><ele>201.0</ele><time>2026-04-25T13:12:52.944Z</time></trkpt><trkpt lat="45.88916710641155" lon="12.206300172109716"><ele>201.0</ele><time>2026-04-25T13:12:53.944Z</time></trkpt><trkpt lat="45.889270389481794" lon="12.206219406185644"><ele>201.0</ele><time>2026-04-25T13:12:55.945Z</time></trkpt><trkpt lat="45.88938297472041" lon="12.206138399216892"><ele>200.7142857142857</ele><time>2026-04-25T13:12:57.944Z</time></trkpt><trkpt lat="45.8894426410768" lon="12.206099094680567"><ele>200.42857142857144</ele><time>2026-04-25T13:12:58.944Z</time></trkpt><trkpt lat="45.889507011102026" lon="12.206074635824116"><ele>200.14285714285714</ele><time>2026-04-25T13:12:59.945Z</time></trkpt><trkpt lat="45.8895748368752" lon="12.206060362567614"><ele>199.85714285714283</ele><time>2026-04-25T13:13:00.945Z</time></trkpt><trkpt lat="45.88964788039218" lon="12.206056121867569"><ele>199.57142857142856</ele><time>2026-04-25T13:13:01.945Z</time></trkpt><trkpt lat="45.889714650711625" lon="12.206062284892537"><ele>199.28571428571428</ele><time>2026-04-25T13:13:02.944Z</time></trkpt><trkpt lat="45.88978804409247" lon="12.206070876975456"><ele>199.0</ele><time>2026-04-25T13:13:03.944Z</time></trkpt><trkpt lat="45.889860800747634" lon="12.206081693730201"><ele>198.99999999999997</ele><time>2026-04-25T13:13:04.945Z</time></trkpt><trkpt lat="45.8899359781252" lon="12.206088554697153"><ele>199.0</ele><time>2026-04-25T13:13:05.944Z</time></trkpt><trkpt lat="45.89001291581056" lon="12.206083466077365"><ele>199.0</ele><time>2026-04-25T13:13:06.944Z</time></trkpt><trkpt lat="45.89009038480692" lon="12.206082724219355"><ele>199.0</ele><time>2026-04-25T13:13:07.945Z</time></trkpt><trkpt lat="45.890167181916375" lon="12.206085269407566"><ele>198.99999999999997</ele><time>2026-04-25T13:13:08.944Z</time></trkpt><trkpt lat="45.89024125722905" lon="12.206093656429319"><ele>199.0</ele><time>2026-04-25T13:13:09.944Z</time></trkpt><trkpt lat="45.89031395212615" lon="12.206107634542485"><ele>198.49999999999997</ele><time>2026-04-25T13:13:10.944Z</time></trkpt><trkpt lat="45.89038153764437" lon="12.206130430751616"><ele>198.0</ele><time>2026-04-25T13:13:11.944Z</time></trkpt><trkpt lat="45.890445013481674" lon="12.206157127392268"><ele>197.5</ele><time>2026-04-25T13:13:12.944Z</time></trkpt><trkpt lat="45.890541494014975" lon="12.206157450651107"><ele>197.0</ele><time>2026-04-25T13:13:14.944Z</time></trkpt><trkpt lat="45.890607140250715" lon="12.2060870919848"><ele>196.49999999999997</ele><time>2026-04-25T13:13:16.944Z</time></trkpt><trkpt lat="45.8906186435222" lon="12.205930488018359"><ele>196.0</ele><time>2026-04-25T13:13:18.944Z</time></trkpt><trkpt lat="45.890615207207524" lon="12.205833447905976"><ele>196.0</ele><time>2026-04-25T13:13:19.944Z</time></trkpt><trkpt lat="45.890618927335986" lon="12.20572380885951"><ele>196.0</ele><time>2026-04-25T13:13:20.944Z</time></trkpt><trkpt lat="45.89062052579747" lon="12.205604705555455"><ele>196.0</ele><time>2026-04-25T13:13:21.944Z</time></trkpt><trkpt lat="45.89061929474211" lon="12.20547273246764"><ele>196.0</ele><time>2026-04-25T13:13:22.944Z</time></trkpt><trkpt lat="45.89062130883529" lon="12.205328961547108"><ele>196.0</ele><time>2026-04-25T13:13:23.944Z</time></trkpt><trkpt lat="45.89062779796203" lon="12.205175771272925"><ele>194.8</ele><time>2026-04-25T13:13:24.944Z</time></trkpt><trkpt lat="45.8906373176956" lon="12.205028014711724"><ele>193.60000000000002</ele><time>2026-04-25T13:13:25.944Z</time></trkpt><trkpt lat="45.8906444465184" lon="12.204891364503256"><ele>192.4</ele><time>2026-04-25T13:13:26.944Z</time></trkpt><trkpt lat="45.89064747915484" lon="12.20475079815342"><ele>191.2</ele><time>2026-04-25T13:13:27.944Z</time></trkpt><trkpt lat="45.89064764407118" lon="12.204613898617065"><ele>190.0</ele><time>2026-04-25T13:13:28.944Z</time></trkpt><trkpt lat="45.89064562863987" lon="12.204466805662443"><ele>187.8</ele><time>2026-04-25T13:13:29.944Z</time></trkpt><trkpt lat="45.89064945986491" lon="12.20431966153272"><ele>185.6</ele><time>2026-04-25T13:13:30.944Z</time></trkpt><trkpt lat="45.89065278074889" lon="12.20416494661404"><ele>183.39999999999998</ele><time>2026-04-25T13:13:31.944Z</time></trkpt><trkpt lat="45.89065894764117" lon="12.204018608640837"><ele>181.2</ele><time>2026-04-25T13:13:32.944Z</time></trkpt><trkpt lat="45.89066487856429" lon="12.203885993018948"><ele>179.0</ele><time>2026-04-25T13:13:33.943Z</time></trkpt><trkpt lat="45.89066529557378" lon="12.203764655853224"><ele>177.79999999999998</ele><time>2026-04-25T13:13:34.943Z</time></trkpt><trkpt lat="45.89066522273195" lon="12.203662415527514"><ele>176.6</ele><time>2026-04-25T13:13:35.943Z</time></trkpt><trkpt lat="45.89067512529333" lon="12.20351134289992"><ele>175.4</ele><time>2026-04-25T13:13:37.943Z</time></trkpt><trkpt lat="45.89072118049527" lon="12.203417178274524"><ele>174.2</ele><time>2026-04-25T13:13:39.943Z</time></trkpt><trkpt lat="45.89081579487899" lon="12.203366818874017"><ele>173.0</ele><time>2026-04-25T13:13:41.943Z</time></trkpt><trkpt lat="45.89093373902497" lon="12.203358711347812"><ele>172.83333333333331</ele><time>2026-04-25T13:13:43.943Z</time></trkpt><trkpt lat="45.89099967264641" lon="12.20335207943726"><ele>172.66666666666666</ele><time>2026-04-25T13:13:44.943Z</time></trkpt><trkpt lat="45.89112890785165" lon="12.203332320526071"><ele>172.5</ele><time>2026-04-25T13:13:46.943Z</time></trkpt><trkpt lat="45.89120517712839" lon="12.203330772062134"><ele>172.33333333333334</ele><time>2026-04-25T13:13:47.943Z</time></trkpt><trkpt lat="45.89128791140185" lon="12.203318405881033"><ele>172.16666666666669</ele><time>2026-04-25T13:13:48.943Z</time></trkpt><trkpt lat="45.89137099123539" lon="12.203298344743098"><ele>172.0</ele><time>2026-04-25T13:13:49.943Z</time></trkpt><trkpt lat="45.8914548134428" lon="12.203277637581444"><ele>172.0</ele><time>2026-04-25T13:13:50.943Z</time></trkpt><trkpt lat="45.89152718890052" lon="12.20325618033327"><ele>172.0</ele><time>2026-04-25T13:13:51.943Z</time></trkpt><trkpt lat="45.89160173587898" lon="12.203198717538179"><ele>172.0</ele><time>2026-04-25T13:13:52.943Z</time></trkpt><trkpt lat="45.89168118429467" lon="12.203147262900865"><ele>172.0</ele><time>2026-04-25T13:13:53.943Z</time></trkpt><trkpt lat="45.89175572039357" lon="12.203092661406274"><ele>172.0</ele><time>2026-04-25T13:13:54.943Z</time></trkpt><trkpt lat="45.89182972995965" lon="12.20303950333093"><ele>172.0</ele><time>2026-04-25T13:13:55.943Z</time></trkpt><trkpt lat="45.89190449211552" lon="12.202986950136662"><ele>173.16666666666669</ele><time>2026-04-25T13:13:56.943Z</time></trkpt><trkpt lat="45.89196616482337" lon="12.202932144828571"><ele>174.33333333333334</ele><time>2026-04-25T13:13:57.943Z</time></trkpt><trkpt lat="45.892014408599096" lon="12.202871828183309"><ele>175.5</ele><time>2026-04-25T13:13:58.943Z</time></trkpt><trkpt lat="45.89206900905736" lon="12.202701630912372"><ele>176.66666666666666</ele><time>2026-04-25T13:14:00.943Z</time></trkpt><trkpt lat="45.89207334145361" lon="12.20259398562834"><ele>177.83333333333331</ele><time>2026-04-25T13:14:01.943Z</time></trkpt><trkpt lat="45.89206034464913" lon="12.202483629000678"><ele>179.0</ele><time>2026-04-25T13:14:02.943Z</time></trkpt><trkpt lat="45.89205309786544" lon="12.202361991431411"><ele>178.0</ele><time>2026-04-25T13:14:03.943Z</time></trkpt><trkpt lat="45.89204475119806" lon="12.202243593105008"><ele>177.0</ele><time>2026-04-25T13:14:04.943Z</time></trkpt><trkpt lat="45.892041097051646" lon="12.202124346789194"><ele>176.0</ele><time>2026-04-25T13:14:05.943Z</time></trkpt><trkpt lat="45.89204106767924" lon="12.202001946483833"><ele>175.0</ele><time>2026-04-25T13:14:06.943Z</time></trkpt><trkpt lat="45.89203531475948" lon="12.201881528900858"><ele>174.0</ele><time>2026-04-25T13:14:07.943Z</time></trkpt><trkpt lat="45.892027278569174" lon="12.201761703951593"><ele>173.0</ele><time>2026-04-25T13:14:08.943Z</time></trkpt><trkpt lat="45.89203322229095" lon="12.201656348066523"><ele>173.0</ele><time>2026-04-25T13:14:09.943Z</time></trkpt><trkpt lat="45.89203024192891" lon="12.20155285406963"><ele>173.0</ele><time>2026-04-25T13:14:10.943Z</time></trkpt><trkpt lat="45.892033455447766" lon="12.201461627219244"><ele>173.0</ele><time>2026-04-25T13:14:11.943Z</time></trkpt><trkpt lat="45.892024675378046" lon="12.201369694645734"><ele>173.0</ele><time>2026-04-25T13:14:12.943Z</time></trkpt><trkpt lat="45.892006212885484" lon="12.20117643627865"><ele>173.0</ele><time>2026-04-25T13:14:14.943Z</time></trkpt><trkpt lat="45.89201014240551" lon="12.201059463632648"><ele>173.0</ele><time>2026-04-25T13:14:15.943Z</time></trkpt><trkpt lat="45.892023215299446" lon="12.200942547453371"><ele>172.2</ele><time>2026-04-25T13:14:16.943Z</time></trkpt><trkpt lat="45.892039095060625" lon="12.200817510698258"><ele>171.4</ele><time>2026-04-25T13:14:17.943Z</time></trkpt><trkpt lat="45.89206762630701" lon="12.200685992269024"><ele>170.6</ele><time>2026-04-25T13:14:18.943Z</time></trkpt><trkpt lat="45.89209231435942" lon="12.200559029679333"><ele>169.79999999999998</ele><time>2026-04-25T13:14:19.943Z</time></trkpt><trkpt lat="45.89210954322753" lon="12.20043174749097"><ele>169.0</ele><time>2026-04-25T13:14:20.943Z</time></trkpt><trkpt lat="45.89211783609982" lon="12.200308983360399"><ele>168.16666666666669</ele><time>2026-04-25T13:14:21.943Z</time></trkpt><trkpt lat="45.89213129565952" lon="12.200184103258534"><ele>167.33333333333334</ele><time>2026-04-25T13:14:22.943Z</time></trkpt><trkpt lat="45.892159496947556" lon="12.200069314376519"><ele>166.5</ele><time>2026-04-25T13:14:23.943Z</time></trkpt><trkpt lat="45.89220494131864" lon="12.19995877617332"><ele>165.66666666666666</ele><time>2026-04-25T13:14:24.943Z</time></trkpt><trkpt lat="45.89226644658122" lon="12.19985445368431"><ele>164.83333333333331</ele><time>2026-04-25T13:14:25.943Z</time></trkpt><trkpt lat="45.89232105920901" lon="12.199764765670436"><ele>164.0</ele><time>2026-04-25T13:14:26.943Z</time></trkpt><trkpt lat="45.89238071433161" lon="12.199681219367744"><ele>163.33333333333331</ele><time>2026-04-25T13:14:27.943Z</time></trkpt><trkpt lat="45.892437126272824" lon="12.199584075751968"><ele>162.66666666666666</ele><time>2026-04-25T13:14:28.943Z</time></trkpt><trkpt lat="45.892487613130434" lon="12.199489043732319"><ele>162.0</ele><time>2026-04-25T13:14:29.942Z</time></trkpt><trkpt lat="45.892534267405026" lon="12.199394165334388"><ele>161.33333333333334</ele><time>2026-04-25T13:14:30.942Z</time></trkpt><trkpt lat="45.8925684195294" lon="12.19929498299977"><ele>160.66666666666669</ele><time>2026-04-25T13:14:31.942Z</time></trkpt><trkpt lat="45.89259788445828" lon="12.199206991234217"><ele>160.0</ele><time>2026-04-25T13:14:32.942Z</time></trkpt><trkpt lat="45.892636282443256" lon="12.199115722352357"><ele>160.66666666666669</ele><time>2026-04-25T13:14:33.942Z</time></trkpt><trkpt lat="45.89266138985637" lon="12.19901676096821"><ele>161.33333333333334</ele><time>2026-04-25T13:14:34.942Z</time></trkpt><trkpt lat="45.892689050880875" lon="12.198916333586348"><ele>162.0</ele><time>2026-04-25T13:14:35.942Z</time></trkpt><trkpt lat="45.89273550781465" lon="12.198815470307384"><ele>162.66666666666666</ele><time>2026-04-25T13:14:36.942Z</time></trkpt><trkpt lat="45.892785698697814" lon="12.19870144118361"><ele>163.33333333333331</ele><time>2026-04-25T13:14:37.942Z</time></trkpt><trkpt lat="45.892825956796194" lon="12.19859481344131"><ele>164.0</ele><time>2026-04-25T13:14:38.942Z</time></trkpt><trkpt lat="45.89286436026899" lon="12.19847833452584"><ele>164.0</ele><time>2026-04-25T13:14:39.942Z</time></trkpt><trkpt lat="45.892900921647964" lon="12.1983682089348"><ele>164.0</ele><time>2026-04-25T13:14:40.942Z</time></trkpt><trkpt lat="45.89293814783138" lon="12.198264730814085"><ele>164.0</ele><time>2026-04-25T13:14:41.942Z</time></trkpt><trkpt lat="45.892972416215414" lon="12.198150615327403"><ele>164.0</ele><time>2026-04-25T13:14:42.942Z</time></trkpt><trkpt lat="45.89300806934824" lon="12.198054604934883"><ele>164.0</ele><time>2026-04-25T13:14:43.942Z</time></trkpt><trkpt lat="45.89304028092379" lon="12.197946921184997"><ele>164.0</ele><time>2026-04-25T13:14:44.942Z</time></trkpt><trkpt lat="45.893080047427695" lon="12.197859563993852"><ele>163.33333333333331</ele><time>2026-04-25T13:14:45.942Z</time></trkpt><trkpt lat="45.89310964054989" lon="12.19777365547162"><ele>162.66666666666666</ele><time>2026-04-25T13:14:46.942Z</time></trkpt><trkpt lat="45.89317114784597" lon="12.197690147338866"><ele>162.0</ele><time>2026-04-25T13:14:47.942Z</time></trkpt><trkpt lat="45.89324626268051" lon="12.197618219354071"><ele>161.33333333333334</ele><time>2026-04-25T13:14:48.942Z</time></trkpt><trkpt lat="45.8933253952263" lon="12.197535931336722"><ele>160.66666666666669</ele><time>2026-04-25T13:14:49.942Z</time></trkpt><trkpt lat="45.89338861365759" lon="12.197447648268884"><ele>160.0</ele><time>2026-04-25T13:14:50.942Z</time></trkpt><trkpt lat="45.89344990932427" lon="12.19734909143515"><ele>158.0</ele><time>2026-04-25T13:14:51.942Z</time></trkpt><trkpt lat="45.89351093785911" lon="12.197262475105825"><ele>156.0</ele><time>2026-04-25T13:14:52.942Z</time></trkpt><trkpt lat="45.89355489711328" lon="12.197177580853538"><ele>154.0</ele><time>2026-04-25T13:14:53.942Z</time></trkpt><trkpt lat="45.89358966784739" lon="12.197089318201785"><ele>152.0</ele><time>2026-04-25T13:14:54.942Z</time></trkpt><trkpt lat="45.893622740784295" lon="12.19698418056584"><ele>150.0</ele><time>2026-04-25T13:14:55.942Z</time></trkpt><trkpt lat="45.893658514059595" lon="12.196862170011025"><ele>148.0</ele><time>2026-04-25T13:14:56.942Z</time></trkpt><trkpt lat="45.89369118794617" lon="12.196730902093124"><ele>148.0</ele><time>2026-04-25T13:14:57.942Z</time></trkpt><trkpt lat="45.89372935956237" lon="12.196602657606869"><ele>148.0</ele><time>2026-04-25T13:14:58.942Z</time></trkpt><trkpt lat="45.893767772665306" lon="12.196492010343734"><ele>148.0</ele><time>2026-04-25T13:14:59.942Z</time></trkpt><trkpt lat="45.893809057215506" lon="12.196389914353865"><ele>148.0</ele><time>2026-04-25T13:15:00.942Z</time></trkpt><trkpt lat="45.89386950476316" lon="12.196288140371024"><ele>148.0</ele><time>2026-04-25T13:15:01.943Z</time></trkpt><trkpt lat="45.89393922411128" lon="12.196193996235738"><ele>145.4</ele><time>2026-04-25T13:15:02.943Z</time></trkpt><trkpt lat="45.89399587122131" lon="12.19611059683127"><ele>142.8</ele><time>2026-04-25T13:15:03.943Z</time></trkpt><trkpt lat="45.89403322545415" lon="12.196034188014247"><ele>140.2</ele><time>2026-04-25T13:15:04.942Z</time></trkpt><trkpt lat="45.894061347053096" lon="12.195843099915594"><ele>137.6</ele><time>2026-04-25T13:15:06.942Z</time></trkpt><trkpt lat="45.89404161772277" lon="12.195710460747254"><ele>135.0</ele><time>2026-04-25T13:15:07.943Z</time></trkpt><trkpt lat="45.89400698300806" lon="12.195578527346743"><ele>132.8</ele><time>2026-04-25T13:15:08.943Z</time></trkpt><trkpt lat="45.89394713357902" lon="12.195445980270549"><ele>130.6</ele><time>2026-04-25T13:15:09.943Z</time></trkpt><trkpt lat="45.89386693021762" lon="12.195317336872922"><ele>128.4</ele><time>2026-04-25T13:15:10.943Z</time></trkpt><trkpt lat="45.89378283680746" lon="12.19520109608865"><ele>126.2</ele><time>2026-04-25T13:15:11.943Z</time></trkpt><trkpt lat="45.89370650395704" lon="12.195103114594493"><ele>124.0</ele><time>2026-04-25T13:15:12.943Z</time></trkpt><trkpt lat="45.89365349892693" lon="12.194996004721002"><ele>124.00000000000001</ele><time>2026-04-25T13:15:13.943Z</time></trkpt><trkpt lat="45.89361198737662" lon="12.194887041805444"><ele>124.0</ele><time>2026-04-25T13:15:14.943Z</time></trkpt><trkpt lat="45.89359709458989" lon="12.19477666866806"><ele>124.0</ele><time>2026-04-25T13:15:15.943Z</time></trkpt><trkpt lat="45.89360942508395" lon="12.194664651828424"><ele>124.0</ele><time>2026-04-25T13:15:16.943Z</time></trkpt><trkpt lat="45.893639398518125" lon="12.194546510457439"><ele>124.00000000000001</ele><time>2026-04-25T13:15:17.943Z</time></trkpt><trkpt lat="45.89366577789704" lon="12.19444249553296"><ele>124.0</ele><time>2026-04-25T13:15:18.943Z</time></trkpt><trkpt lat="45.89370327143378" lon="12.194337570598886"><ele>124.16666666666667</ele><time>2026-04-25T13:15:19.943Z</time></trkpt><trkpt lat="45.89375082320032" lon="12.194231534553488"><ele>124.33333333333334</ele><time>2026-04-25T13:15:20.943Z</time></trkpt><trkpt lat="45.893796482581976" lon="12.194124947931138"><ele>124.5</ele><time>2026-04-25T13:15:21.943Z</time></trkpt><trkpt lat="45.893826129110295" lon="12.19401684787481"><ele>124.66666666666666</ele><time>2026-04-25T13:15:22.943Z</time></trkpt><trkpt lat="45.8938390652159" lon="12.193905843008709"><ele>124.83333333333333</ele><time>2026-04-25T13:15:23.943Z</time></trkpt><trkpt lat="45.89384082556505" lon="12.193808204281662"><ele>125.0</ele><time>2026-04-25T13:15:24.943Z</time></trkpt><trkpt lat="45.89385576231666" lon="12.193652529581136"><ele>125.49999999999999</ele><time>2026-04-25T13:15:26.943Z</time></trkpt><trkpt lat="45.89389016183908" lon="12.193536922874305"><ele>126.0</ele><time>2026-04-25T13:15:28.943Z</time></trkpt><trkpt lat="45.89393834314397" lon="12.1934557282717"><ele>126.5</ele><time>2026-04-25T13:15:30.943Z</time></trkpt><trkpt lat="45.89399932390189" lon="12.193358236954225"><ele>127.0</ele><time>2026-04-25T13:15:33.943Z</time></trkpt><trkpt lat="45.894060280799614" lon="12.193264640502333"><ele>127.49999999999999</ele><time>2026-04-25T13:15:36.943Z</time></trkpt><trkpt lat="45.89411978665717" lon="12.193164100152055"><ele>128.0</ele><time>2026-04-25T13:15:39.943Z</time></trkpt><trkpt lat="45.89417461648483" lon="12.193076789606197"><ele>129.0</ele><time>2026-04-25T13:15:42.942Z</time></trkpt><trkpt lat="45.89422095226879" lon="12.192988409893196"><ele>130.0</ele><time>2026-04-25T13:15:45.942Z</time></trkpt><trkpt lat="45.89426135966434" lon="12.192899810503958"><ele>131.0</ele><time>2026-04-25T13:15:48.942Z</time></trkpt><trkpt lat="45.894297026626155" lon="12.19282363811258"><ele>132.0</ele><time>2026-04-25T13:15:51.942Z</time></trkpt><trkpt lat="45.894326291348825" lon="12.192740022979256"><ele>133.0</ele><time>2026-04-25T13:15:54.942Z</time></trkpt><trkpt lat="45.89435344865441" lon="12.192642464113229"><ele>134.0</ele><time>2026-04-25T13:15:57.942Z</time></trkpt><trkpt lat="45.89437290759285" lon="12.192546493314175"><ele>135.0</ele><time>2026-04-25T13:16:01.942Z</time></trkpt><trkpt lat="45.89437921778384" lon="12.192440755653474"><ele>135.57142857142856</ele><time>2026-04-25T13:16:04.942Z</time></trkpt><trkpt lat="45.89439114580764" lon="12.192343284981408"><ele>136.14285714285714</ele><time>2026-04-25T13:16:08.942Z</time></trkpt><trkpt lat="45.8943981435425" lon="12.192243055413686"><ele>136.71428571428572</ele><time>2026-04-25T13:16:13.942Z</time></trkpt><trkpt lat="45.89441013139834" lon="12.192148588641947"><ele>137.28571428571428</ele><time>2026-04-25T13:16:17.942Z</time></trkpt><trkpt lat="45.894434364220096" lon="12.192048883124318"><ele>137.85714285714286</ele><time>2026-04-25T13:16:21.942Z</time></trkpt><trkpt lat="45.89447096529431" lon="12.191958255164822"><ele>138.42857142857142</ele><time>2026-04-25T13:16:25.942Z</time></trkpt><trkpt lat="45.894536164605945" lon="12.19190453322659"><ele>139.0</ele><time>2026-04-25T13:16:29.942Z</time></trkpt><trkpt lat="45.89461955823775" lon="12.191940615488729"><ele>139.0</ele><time>2026-04-25T13:16:33.942Z</time></trkpt><trkpt lat="45.89468623766087" lon="12.191984585616694"><ele>139.0</ele><time>2026-04-25T13:16:36.941Z</time></trkpt><trkpt lat="45.894756110632954" lon="12.192030873244782"><ele>139.0</ele><time>2026-04-25T13:16:39.941Z</time></trkpt><trkpt lat="45.89483345201994" lon="12.1921127665961"><ele>139.0</ele><time>2026-04-25T13:16:41.941Z</time></trkpt><trkpt lat="45.89493583246924" lon="12.192203628243783"><ele>139.0</ele><time>2026-04-25T13:16:43.941Z</time></trkpt><trkpt lat="45.895035869284044" lon="12.192297747318213"><ele>139.16666666666669</ele><time>2026-04-25T13:16:45.941Z</time></trkpt><trkpt lat="45.89513498839831" lon="12.192393289936435"><ele>139.33333333333334</ele><time>2026-04-25T13:16:47.941Z</time></trkpt><trkpt lat="45.89518657731364" lon="12.19244670243662"><ele>139.5</ele><time>2026-04-25T13:16:48.941Z</time></trkpt><trkpt lat="45.89524146604266" lon="12.192499232720182"><ele>139.66666666666666</ele><time>2026-04-25T13:16:49.941Z</time></trkpt><trkpt lat="45.89531124707986" lon="12.192563147110027"><ele>139.83333333333331</ele><time>2026-04-25T13:16:50.941Z</time></trkpt><trkpt lat="45.89537058561256" lon="12.19262485225901"><ele>140.0</ele><time>2026-04-25T13:16:51.941Z</time></trkpt><trkpt lat="45.89542570976989" lon="12.192693614264616"><ele>140.0</ele><time>2026-04-25T13:16:52.941Z</time></trkpt><trkpt lat="45.89547358343781" lon="12.192771709730458"><ele>140.0</ele><time>2026-04-25T13:16:53.941Z</time></trkpt><trkpt lat="45.89552890756849" lon="12.192851194585383"><ele>140.0</ele><time>2026-04-25T13:16:54.941Z</time></trkpt><trkpt lat="45.895588656175256" lon="12.1929333823225"><ele>140.0</ele><time>2026-04-25T13:16:55.941Z</time></trkpt><trkpt lat="45.895646373921466" lon="12.193008402122476"><ele>140.0</ele><time>2026-04-25T13:16:56.941Z</time></trkpt><trkpt lat="45.89571765687515" lon="12.193079617263137"><ele>140.0</ele><time>2026-04-25T13:16:57.941Z</time></trkpt><trkpt lat="45.895795856070684" lon="12.193141248340657"><ele>139.6</ele><time>2026-04-25T13:16:58.941Z</time></trkpt><trkpt lat="45.89587914812507" lon="12.193196695398445"><ele>139.2</ele><time>2026-04-25T13:16:59.941Z</time></trkpt><trkpt lat="45.89596154822617" lon="12.193243295109694"><ele>138.8</ele><time>2026-04-25T13:17:00.941Z</time></trkpt><trkpt lat="45.89605318478407" lon="12.193283422040476"><ele>138.4</ele><time>2026-04-25T13:17:01.941Z</time></trkpt><trkpt lat="45.89614501870398" lon="12.19332082189247"><ele>138.0</ele><time>2026-04-25T13:17:02.941Z</time></trkpt><trkpt lat="45.89623870945052" lon="12.193348089456313"><ele>138.0</ele><time>2026-04-25T13:17:03.941Z</time></trkpt><trkpt lat="45.89633209549897" lon="12.19338575825317"><ele>138.0</ele><time>2026-04-25T13:17:04.941Z</time></trkpt><trkpt lat="45.89643048088012" lon="12.193427622728603"><ele>138.0</ele><time>2026-04-25T13:17:05.941Z</time></trkpt><trkpt lat="45.89653041691875" lon="12.193468341070945"><ele>138.0</ele><time>2026-04-25T13:17:06.941Z</time></trkpt><trkpt lat="45.896633591855306" lon="12.1935061299961"><ele>138.0</ele><time>2026-04-25T13:17:07.941Z</time></trkpt><trkpt lat="45.896732087278046" lon="12.193545494811273"><ele>138.4</ele><time>2026-04-25T13:17:08.941Z</time></trkpt><trkpt lat="45.89683301973792" lon="12.193583807360717"><ele>138.8</ele><time>2026-04-25T13:17:09.941Z</time></trkpt><trkpt lat="45.896934388517636" lon="12.193635095151725"><ele>139.2</ele><time>2026-04-25T13:17:10.941Z</time></trkpt><trkpt lat="45.897025807831135" lon="12.193706379063512"><ele>139.6</ele><time>2026-04-25T13:17:11.941Z</time></trkpt><trkpt lat="45.897110596657704" lon="12.193795132295161"><ele>140.0</ele><time>2026-04-25T13:17:12.941Z</time></trkpt><trkpt lat="45.89718244934576" lon="12.19391227364222"><ele>138.0</ele><time>2026-04-25T13:17:13.941Z</time></trkpt><trkpt lat="45.897250027862405" lon="12.19404478350457"><ele>136.0</ele><time>2026-04-25T13:17:14.942Z</time></trkpt><trkpt lat="45.89731753879053" lon="12.194185255237404"><ele>134.0</ele><time>2026-04-25T13:17:15.942Z</time></trkpt><trkpt lat="45.897381930099804" lon="12.194327796757708"><ele>132.0</ele><time>2026-04-25T13:17:16.941Z</time></trkpt><trkpt lat="45.89745668044267" lon="12.19445993183851"><ele>132.0</ele><time>2026-04-25T13:17:17.942Z</time></trkpt><trkpt lat="45.89752876022521" lon="12.194588976688916"><ele>132.0</ele><time>2026-04-25T13:17:18.942Z</time></trkpt><trkpt lat="45.897586914300184" lon="12.194725046229854"><ele>132.0</ele><time>2026-04-25T13:17:19.941Z</time></trkpt><trkpt lat="45.897641632424516" lon="12.194861143237096"><ele>132.0</ele><time>2026-04-25T13:17:20.941Z</time></trkpt><trkpt lat="45.89769020399229" lon="12.195003142457484"><ele>132.0</ele><time>2026-04-25T13:17:21.941Z</time></trkpt><trkpt lat="45.89773637140507" lon="12.195148601900069"><ele>130.79999999999998</ele><time>2026-04-25T13:17:22.941Z</time></trkpt><trkpt lat="45.897785000747824" lon="12.195284674766507"><ele>129.6</ele><time>2026-04-25T13:17:23.941Z</time></trkpt><trkpt lat="45.89783431848114" lon="12.195415829616271"><ele>128.39999999999998</ele><time>2026-04-25T13:17:24.941Z</time></trkpt><trkpt lat="45.89787884273968" lon="12.19554588483682"><ele>127.19999999999999</ele><time>2026-04-25T13:17:25.941Z</time></trkpt><trkpt lat="45.89792438867862" lon="12.195674429051602"><ele>126.0</ele><time>2026-04-25T13:17:26.941Z</time></trkpt><trkpt lat="45.89796483408562" lon="12.195795260403159"><ele>126.0</ele><time>2026-04-25T13:17:27.941Z</time></trkpt><trkpt lat="45.89800909266904" lon="12.195907171102293"><ele>126.0</ele><time>2026-04-25T13:17:28.941Z</time></trkpt><trkpt lat="45.89805928540054" lon="12.196009715476793"><ele>126.0</ele><time>2026-04-25T13:17:29.941Z</time></trkpt><trkpt lat="45.89810987131012" lon="12.196101319964924"><ele>126.0</ele><time>2026-04-25T13:17:30.941Z</time></trkpt><trkpt lat="45.89815912815356" lon="12.196184591193097"><ele>126.0</ele><time>2026-04-25T13:17:31.941Z</time></trkpt><trkpt lat="45.89819975038788" lon="12.196258467712866"><ele>126.0</ele><time>2026-04-25T13:17:32.941Z</time></trkpt><trkpt lat="45.8982520362161" lon="12.196320403336763"><ele>126.0</ele><time>2026-04-25T13:17:33.941Z</time></trkpt><trkpt lat="45.89830329667369" lon="12.196386654989787"><ele>126.0</ele><time>2026-04-25T13:17:34.941Z</time></trkpt><trkpt lat="45.89835128089028" lon="12.196447841468272"><ele>126.0</ele><time>2026-04-25T13:17:35.941Z</time></trkpt><trkpt lat="45.89842807120702" lon="12.196579677682694"><ele>126.0</ele><time>2026-04-25T13:17:37.941Z</time></trkpt><trkpt lat="45.89848561894606" lon="12.196728630488877"><ele>126.0</ele><time>2026-04-25T13:17:39.941Z</time></trkpt><trkpt lat="45.89854957617107" lon="12.196863663602954"><ele>127.0</ele><time>2026-04-25T13:17:41.941Z</time></trkpt><trkpt lat="45.89861472876214" lon="12.196985121451927"><ele>128.0</ele><time>2026-04-25T13:17:43.941Z</time></trkpt><trkpt lat="45.89867905379744" lon="12.197114990034338"><ele>129.0</ele><time>2026-04-25T13:17:45.941Z</time></trkpt><trkpt lat="45.89872265048425" lon="12.197240283524986"><ele>130.0</ele><time>2026-04-25T13:17:47.941Z</time></trkpt><trkpt lat="45.89873693448074" lon="12.197386156585402"><ele>131.0</ele><time>2026-04-25T13:17:49.941Z</time></trkpt><trkpt lat="45.89875029222197" lon="12.197503753267974"><ele>131.83333333333331</ele><time>2026-04-25T13:17:51.941Z</time></trkpt><trkpt lat="45.89872063629259" lon="12.197655618883076"><ele>132.66666666666666</ele><time>2026-04-25T13:17:53.941Z</time></trkpt><trkpt lat="45.89870451304387" lon="12.197775074246557"><ele>133.5</ele><time>2026-04-25T13:17:55.941Z</time></trkpt><trkpt lat="45.898700832121094" lon="12.197884079944462"><ele>134.33333333333334</ele><time>2026-04-25T13:17:57.941Z</time></trkpt><trkpt lat="45.8986982635722" lon="12.197977646722267"><ele>135.16666666666669</ele><time>2026-04-25T13:17:59.941Z</time></trkpt><trkpt lat="45.89869152831225" lon="12.198088345482384"><ele>136.0</ele><time>2026-04-25T13:18:01.941Z</time></trkpt><trkpt lat="45.89869153640134" lon="12.198195235020108"><ele>136.16666666666669</ele><time>2026-04-25T13:18:03.941Z</time></trkpt><trkpt lat="45.8986907249654" lon="12.198301398753793"><ele>136.33333333333334</ele><time>2026-04-25T13:18:05.941Z</time></trkpt><trkpt lat="45.89870021285065" lon="12.198393681718393"><ele>136.5</ele><time>2026-04-25T13:18:07.941Z</time></trkpt><trkpt lat="45.89871384533786" lon="12.198489861934169"><ele>136.66666666666666</ele><time>2026-04-25T13:18:09.941Z</time></trkpt><trkpt lat="45.898749564687165" lon="12.19858271803858"><ele>136.83333333333331</ele><time>2026-04-25T13:18:11.94Z</time></trkpt><trkpt lat="45.898799112765204" lon="12.198717596515026"><ele>137.0</ele><time>2026-04-25T13:18:14.94Z</time></trkpt><trkpt lat="45.89883695674688" lon="12.198838958830553"><ele>137.0</ele><time>2026-04-25T13:18:16.94Z</time></trkpt><trkpt lat="45.89887600639536" lon="12.198963194031537"><ele>137.0</ele><time>2026-04-25T13:18:18.94Z</time></trkpt><trkpt lat="45.89891986994654" lon="12.199087431552037"><ele>137.0</ele><time>2026-04-25T13:18:20.94Z</time></trkpt><trkpt lat="45.89893015568626" lon="12.199227321659261"><ele>137.0</ele><time>2026-04-25T13:18:22.94Z</time></trkpt><trkpt lat="45.89889990013097" lon="12.199355256133035"><ele>137.0</ele><time>2026-04-25T13:18:24.94Z</time></trkpt><trkpt lat="45.898844648731774" lon="12.19945686625851"><ele>136.83333333333331</ele><time>2026-04-25T13:18:26.94Z</time></trkpt><trkpt lat="45.898773536945505" lon="12.199550078073253"><ele>136.66666666666666</ele><time>2026-04-25T13:18:28.94Z</time></trkpt><trkpt lat="45.89870753498762" lon="12.199623278355036"><ele>136.5</ele><time>2026-04-25T13:18:30.94Z</time></trkpt><trkpt lat="45.898647142695204" lon="12.199695301492074"><ele>136.33333333333334</ele><time>2026-04-25T13:18:32.94Z</time></trkpt><trkpt lat="45.898585404533" lon="12.199762611031572"><ele>136.16666666666669</ele><time>2026-04-25T13:18:34.94Z</time></trkpt><trkpt lat="45.89854026892259" lon="12.199828770723084"><ele>136.0</ele><time>2026-04-25T13:18:36.94Z</time></trkpt><trkpt lat="45.89849164612954" lon="12.199921255526885"><ele>136.0</ele><time>2026-04-25T13:18:38.94Z</time></trkpt><trkpt lat="45.898459392929524" lon="12.200009353224113"><ele>136.0</ele><time>2026-04-25T13:18:40.94Z</time></trkpt><trkpt lat="45.89842770651352" lon="12.200109896827243"><ele>136.0</ele><time>2026-04-25T13:18:42.94Z</time></trkpt><trkpt lat="45.89839789993472" lon="12.200215653399042"><ele>136.0</ele><time>2026-04-25T13:18:44.94Z</time></trkpt><trkpt lat="45.89838698348338" lon="12.200331223042886"><ele>136.0</ele><time>2026-04-25T13:18:46.94Z</time></trkpt><trkpt lat="45.89835330313313" lon="12.200453511107998"><ele>136.0</ele><time>2026-04-25T13:18:48.94Z</time></trkpt><trkpt lat="45.89831734906126" lon="12.200566106932147"><ele>137.6</ele><time>2026-04-25T13:18:50.94Z</time></trkpt><trkpt lat="45.89827304994564" lon="12.20069014101161"><ele>139.2</ele><time>2026-04-25T13:18:52.94Z</time></trkpt><trkpt lat="45.898213297583546" lon="12.200795553075007"><ele>140.8</ele><time>2026-04-25T13:18:54.94Z</time></trkpt><trkpt lat="45.8981485502496" lon="12.200892344294045"><ele>142.4</ele><time>2026-04-25T13:18:56.94Z</time></trkpt><trkpt lat="45.898084160751274" lon="12.200985576110073"><ele>144.0</ele><time>2026-04-25T13:18:58.94Z</time></trkpt><trkpt lat="45.89801087963239" lon="12.201070930342615"><ele>144.0</ele><time>2026-04-25T13:19:00.94Z</time></trkpt><trkpt lat="45.8979470242748" lon="12.20116343183928"><ele>144.0</ele><time>2026-04-25T13:19:02.94Z</time></trkpt><trkpt lat="45.897867923630365" lon="12.201245627946447"><ele>144.0</ele><time>2026-04-25T13:19:04.94Z</time></trkpt><trkpt lat="45.89779949236316" lon="12.201335441862442"><ele>144.0</ele><time>2026-04-25T13:19:06.94Z</time></trkpt><trkpt lat="45.89773889976308" lon="12.201437358708427"><ele>144.0</ele><time>2026-04-25T13:19:08.939Z</time></trkpt><trkpt lat="45.89768632540919" lon="12.20153745184313"><ele>144.8</ele><time>2026-04-25T13:19:10.939Z</time></trkpt><trkpt lat="45.89764825440201" lon="12.201653969119052"><ele>145.60000000000002</ele><time>2026-04-25T13:19:12.939Z</time></trkpt><trkpt lat="45.8976227240372" lon="12.201793536677702"><ele>146.4</ele><time>2026-04-25T13:19:14.939Z</time></trkpt><trkpt lat="45.89761898972818" lon="12.201952353067256"><ele>147.20000000000002</ele><time>2026-04-25T13:19:16.94Z</time></trkpt><trkpt lat="45.8976515309261" lon="12.202107946935177"><ele>148.0</ele><time>2026-04-25T13:19:18.94Z</time></trkpt><trkpt lat="45.89768705769244" lon="12.20224373862987"><ele>149.16666666666669</ele><time>2026-04-25T13:19:20.94Z</time></trkpt><trkpt lat="45.89770669283554" lon="12.202367202928887"><ele>150.33333333333334</ele><time>2026-04-25T13:19:22.94Z</time></trkpt><trkpt lat="45.89772368274095" lon="12.20248962569084"><ele>151.5</ele><time>2026-04-25T13:19:24.939Z</time></trkpt><trkpt lat="45.89771607659359" lon="12.202593173365836"><ele>152.66666666666666</ele><time>2026-04-25T13:19:26.939Z</time></trkpt><trkpt lat="45.89773419706411" lon="12.202697685764107"><ele>153.83333333333331</ele><time>2026-04-25T13:19:28.939Z</time></trkpt><trkpt lat="45.897734008848936" lon="12.202805079551439"><ele>155.0</ele><time>2026-04-25T13:19:30.939Z</time></trkpt><trkpt lat="45.897732003348565" lon="12.202940636190485"><ele>155.0</ele><time>2026-04-25T13:19:32.939Z</time></trkpt><trkpt lat="45.897734439783186" lon="12.203089984416131"><ele>155.0</ele><time>2026-04-25T13:19:34.939Z</time></trkpt><trkpt lat="45.89774089690819" lon="12.203226634289205"><ele>155.0</ele><time>2026-04-25T13:19:36.939Z</time></trkpt><trkpt lat="45.897750552040755" lon="12.203365892131519"><ele>155.0</ele><time>2026-04-25T13:19:38.939Z</time></trkpt><trkpt lat="45.89778761629094" lon="12.2034806056062"><ele>155.0</ele><time>2026-04-25T13:19:40.939Z</time></trkpt><trkpt lat="45.89784930781093" lon="12.20357859000679"><ele>155.16666666666666</ele><time>2026-04-25T13:19:42.939Z</time></trkpt><trkpt lat="45.89790719855832" lon="12.203664677172396"><ele>155.33333333333331</ele><time>2026-04-25T13:19:44.939Z</time></trkpt><trkpt lat="45.89796095579237" lon="12.203736396346656"><ele>155.5</ele><time>2026-04-25T13:19:46.939Z</time></trkpt><trkpt lat="45.89800838436903" lon="12.203835880631686"><ele>155.66666666666666</ele><time>2026-04-25T13:19:48.939Z</time></trkpt><trkpt lat="45.89804463307601" lon="12.203936518963664"><ele>155.83333333333334</ele><time>2026-04-25T13:19:50.939Z</time></trkpt><trkpt lat="45.898076436212556" lon="12.204026864017356"><ele>156.0</ele><time>2026-04-25T13:19:52.939Z</time></trkpt><trkpt lat="45.89808958326592" lon="12.204127337324545"><ele>156.71428571428572</ele><time>2026-04-25T13:19:54.939Z</time></trkpt><trkpt lat="45.898097566280185" lon="12.204258030823627"><ele>157.42857142857142</ele><time>2026-04-25T13:19:57.938Z</time></trkpt><trkpt lat="45.89811535662199" lon="12.204344830728097"><ele>158.14285714285714</ele><time>2026-04-25T13:19:59.938Z</time></trkpt><trkpt lat="45.8981021716628" lon="12.204447651192632"><ele>158.85714285714286</ele><time>2026-04-25T13:20:02.938Z</time></trkpt><trkpt lat="45.898057532927176" lon="12.204527453470327"><ele>159.57142857142856</ele><time>2026-04-25T13:20:05.938Z</time></trkpt><trkpt lat="45.897982877091266" lon="12.204584819172352"><ele>160.28571428571428</ele><time>2026-04-25T13:20:08.938Z</time></trkpt><trkpt lat="45.89793039934459" lon="12.204641530661206"><ele>161.0</ele><time>2026-04-25T13:20:10.938Z</time></trkpt><trkpt lat="45.8978703265478" lon="12.204709241897008"><ele>161.0</ele><time>2026-04-25T13:20:12.938Z</time></trkpt><trkpt lat="45.8978167075519" lon="12.204787040831075"><ele>161.0</ele><time>2026-04-25T13:20:14.938Z</time></trkpt><trkpt lat="45.89776536120783" lon="12.204858116221441"><ele>161.0</ele><time>2026-04-25T13:20:16.938Z</time></trkpt><trkpt lat="45.89771403411493" lon="12.204910775494985"><ele>161.0</ele><time>2026-04-25T13:20:18.938Z</time></trkpt><trkpt lat="45.89766231402556" lon="12.20501984830152"><ele>161.0</ele><time>2026-04-25T13:20:21.938Z</time></trkpt><trkpt lat="45.89763219810384" lon="12.205128289978527"><ele>161.0</ele><time>2026-04-25T13:20:25.938Z</time></trkpt><trkpt lat="45.89759528742212" lon="12.205217910826208"><ele>161.14285714285714</ele><time>2026-04-25T13:20:29.938Z</time></trkpt><trkpt lat="45.89756318147865" lon="12.205297094766106"><ele>161.28571428571428</ele><time>2026-04-25T13:20:32.938Z</time></trkpt><trkpt lat="45.897539228070656" lon="12.205383915831577"><ele>161.42857142857144</ele><time>2026-04-25T13:20:35.938Z</time></trkpt><trkpt lat="45.897498441578335" lon="12.205463664136582"><ele>161.57142857142856</ele><time>2026-04-25T13:20:39.938Z</time></trkpt><trkpt lat="45.897462753476255" lon="12.20553899427035"><ele>161.71428571428572</ele><time>2026-04-25T13:20:42.938Z</time></trkpt><trkpt lat="45.897423218151545" lon="12.205631293231448"><ele>161.85714285714286</ele><time>2026-04-25T13:20:46.938Z</time></trkpt><trkpt lat="45.897383834182364" lon="12.205745368675691"><ele>162.0</ele><time>2026-04-25T13:20:50.938Z</time></trkpt><trkpt lat="45.897345614220306" lon="12.205834904284872"><ele>162.85714285714286</ele><time>2026-04-25T13:20:54.937Z</time></trkpt><trkpt lat="45.897302345230855" lon="12.205926965683071"><ele>163.71428571428572</ele><time>2026-04-25T13:20:58.937Z</time></trkpt><trkpt lat="45.897258733595834" lon="12.206030732293089"><ele>164.57142857142856</ele><time>2026-04-25T13:21:02.937Z</time></trkpt><trkpt lat="45.89721485607227" lon="12.206111120897532"><ele>165.42857142857144</ele><time>2026-04-25T13:21:06.937Z</time></trkpt><trkpt lat="45.897186843575795" lon="12.206193180487308"><ele>166.28571428571428</ele><time>2026-04-25T13:21:09.937Z</time></trkpt><trkpt lat="45.89714240197111" lon="12.20628050453236"><ele>167.14285714285714</ele><time>2026-04-25T13:21:13.937Z</time></trkpt><trkpt lat="45.89711281944391" lon="12.20636080903412"><ele>168.0</ele><time>2026-04-25T13:21:16.937Z</time></trkpt><trkpt lat="45.89707688827847" lon="12.20646560821392"><ele>169.16666666666666</ele><time>2026-04-25T13:21:20.938Z</time></trkpt><trkpt lat="45.89706381771454" lon="12.206589369544771"><ele>170.33333333333334</ele><time>2026-04-25T13:21:24.938Z</time></trkpt><trkpt lat="45.897053957190835" lon="12.206679346563774"><ele>171.5</ele><time>2026-04-25T13:21:27.938Z</time></trkpt><trkpt lat="45.89704835175893" lon="12.206809966446011"><ele>172.66666666666669</ele><time>2026-04-25T13:21:31.938Z</time></trkpt><trkpt lat="45.89702871154267" lon="12.206917956511091"><ele>173.83333333333334</ele><time>2026-04-25T13:21:35.938Z</time></trkpt><trkpt lat="45.8970065357688" lon="12.207012243148979"><ele>175.0</ele><time>2026-04-25T13:21:38.938Z</time></trkpt><trkpt lat="45.896996839840185" lon="12.2071236741012"><ele>175.0</ele><time>2026-04-25T13:21:41.938Z</time></trkpt><trkpt lat="45.897003294289746" lon="12.207231702852303"><ele>175.0</ele><time>2026-04-25T13:21:45.938Z</time></trkpt><trkpt lat="45.89702583885993" lon="12.207349231913664"><ele>175.0</ele><time>2026-04-25T13:21:49.938Z</time></trkpt><trkpt lat="45.897039703045685" lon="12.207438248530108"><ele>175.0</ele><time>2026-04-25T13:21:52.937Z</time></trkpt><trkpt lat="45.897053149667926" lon="12.207529458145101"><ele>175.0</ele><time>2026-04-25T13:21:55.937Z</time></trkpt><trkpt lat="45.897072245341555" lon="12.207635574092832"><ele>175.0</ele><time>2026-04-25T13:21:58.937Z</time></trkpt><trkpt lat="45.897105698278786" lon="12.20773586835456"><ele>175.0</ele><time>2026-04-25T13:22:02.937Z</time></trkpt><trkpt lat="45.89713198910402" lon="12.207828347576836"><ele>176.33333333333334</ele><time>2026-04-25T13:22:05.937Z</time></trkpt><trkpt lat="45.89715467352197" lon="12.207926237435666"><ele>177.66666666666669</ele><time>2026-04-25T13:22:08.937Z</time></trkpt><trkpt lat="45.89716872977696" lon="12.20803406523006"><ele>179.0</ele><time>2026-04-25T13:22:12.937Z</time></trkpt><trkpt lat="45.89717908148995" lon="12.208135028270219"><ele>180.33333333333334</ele><time>2026-04-25T13:22:15.937Z</time></trkpt><trkpt lat="45.89719972243772" lon="12.2082526650418"><ele>181.66666666666666</ele><time>2026-04-25T13:22:19.937Z</time></trkpt><trkpt lat="45.89721829271715" lon="12.20838407142863"><ele>183.0</ele><time>2026-04-25T13:22:23.937Z</time></trkpt><trkpt lat="45.897224324881456" lon="12.208500996096562"><ele>183.28571428571428</ele><time>2026-04-25T13:22:27.937Z</time></trkpt><trkpt lat="45.89722727988865" lon="12.208593282671503"><ele>183.57142857142858</ele><time>2026-04-25T13:22:30.937Z</time></trkpt><trkpt lat="45.897227169986195" lon="12.208690757265378"><ele>183.85714285714283</ele><time>2026-04-25T13:22:33.937Z</time></trkpt><trkpt lat="45.89722735757586" lon="12.20880529311215"><ele>184.14285714285714</ele><time>2026-04-25T13:22:37.937Z</time></trkpt><trkpt lat="45.89721241428038" lon="12.208896586455827"><ele>184.42857142857142</ele><time>2026-04-25T13:22:40.937Z</time></trkpt><trkpt lat="45.897205890528426" lon="12.208986951618774"><ele>184.7142857142857</ele><time>2026-04-25T13:22:42.937Z</time></trkpt><trkpt lat="45.89718653408803" lon="12.209086839180449"><ele>185.0</ele><time>2026-04-25T13:22:46.937Z</time></trkpt><trkpt lat="45.897164753309156" lon="12.209218587228232"><ele>185.33333333333331</ele><time>2026-04-25T13:22:50.936Z</time></trkpt><trkpt lat="45.89714329428423" lon="12.209343711356912"><ele>185.66666666666666</ele><time>2026-04-25T13:22:54.936Z</time></trkpt><trkpt lat="45.897123504870855" lon="12.20945711290259"><ele>186.0</ele><time>2026-04-25T13:22:58.936Z</time></trkpt><trkpt lat="45.89711142359367" lon="12.209550224576136"><ele>186.33333333333334</ele><time>2026-04-25T13:23:01.936Z</time></trkpt><trkpt lat="45.897087992699525" lon="12.209657117716825"><ele>186.66666666666669</ele><time>2026-04-25T13:23:04.936Z</time></trkpt><trkpt lat="45.89706675489044" lon="12.20974362696095"><ele>187.0</ele><time>2026-04-25T13:23:07.936Z</time></trkpt><trkpt lat="45.89704220955093" lon="12.209856576219341"><ele>187.83333333333334</ele><time>2026-04-25T13:23:10.936Z</time></trkpt><trkpt lat="45.89700625793323" lon="12.209992775162691"><ele>188.66666666666669</ele><time>2026-04-25T13:23:14.936Z</time></trkpt><trkpt lat="45.89697895930134" lon="12.210104168264849"><ele>189.5</ele><time>2026-04-25T13:23:18.936Z</time></trkpt><trkpt lat="45.896951755426606" lon="12.210223705525657"><ele>190.33333333333334</ele><time>2026-04-25T13:23:21.936Z</time></trkpt><trkpt lat="45.89691147557669" lon="12.210339878960545"><ele>191.16666666666666</ele><time>2026-04-25T13:23:24.936Z</time></trkpt><trkpt lat="45.896888642742525" lon="12.210429593746086"><ele>192.0</ele><time>2026-04-25T13:23:26.937Z</time></trkpt><trkpt lat="45.89686026630638" lon="12.210519448503174"><ele>192.0</ele><time>2026-04-25T13:23:28.937Z</time></trkpt><trkpt lat="45.89683598671435" lon="12.210641700443597"><ele>192.0</ele><time>2026-04-25T13:23:31.936Z</time></trkpt><trkpt lat="45.89680897464692" lon="12.210743318451298"><ele>192.0</ele><time>2026-04-25T13:23:35.936Z</time></trkpt><trkpt lat="45.8967940531356" lon="12.210837210627838"><ele>192.0</ele><time>2026-04-25T13:23:38.936Z</time></trkpt><trkpt lat="45.89676467334691" lon="12.210955019588146"><ele>192.0</ele><time>2026-04-25T13:23:42.936Z</time></trkpt><trkpt lat="45.8967404608158" lon="12.211066631871786"><ele>192.0</ele><time>2026-04-25T13:23:46.936Z</time></trkpt><trkpt lat="45.8967055772149" lon="12.211141970505107"><ele>193.16666666666666</ele><time>2026-04-25T13:23:49.936Z</time></trkpt><trkpt lat="45.89665163747804" lon="12.211233873864849"><ele>194.33333333333331</ele><time>2026-04-25T13:23:53.936Z</time></trkpt><trkpt lat="45.89658888077951" lon="12.211290516436382"><ele>195.5</ele><time>2026-04-25T13:23:57.936Z</time></trkpt><trkpt lat="45.89654940471536" lon="12.21138047254227"><ele>196.66666666666666</ele><time>2026-04-25T13:24:00.936Z</time></trkpt><trkpt lat="45.8965176706146" lon="12.211476633384645"><ele>197.83333333333331</ele><time>2026-04-25T13:24:03.935Z</time></trkpt><trkpt lat="45.89646350061901" lon="12.211568120860314"><ele>199.0</ele><time>2026-04-25T13:24:07.935Z</time></trkpt><trkpt lat="45.896390173976854" lon="12.211634792498506"><ele>199.99999999999997</ele><time>2026-04-25T13:24:11.935Z</time></trkpt><trkpt lat="45.89633166815205" lon="12.21171117789028"><ele>201.0</ele><time>2026-04-25T13:24:15.935Z</time></trkpt><trkpt lat="45.8962794191354" lon="12.21179376831154"><ele>202.0</ele><time>2026-04-25T13:24:19.935Z</time></trkpt><trkpt lat="45.89627931992481" lon="12.211885070543111"><ele>203.0</ele><time>2026-04-25T13:24:22.935Z</time></trkpt><trkpt lat="45.89627522234596" lon="12.212000325229019"><ele>203.99999999999997</ele><time>2026-04-25T13:24:26.935Z</time></trkpt><trkpt lat="45.89625109869971" lon="12.212109821844557"><ele>205.0</ele><time>2026-04-25T13:24:30.935Z</time></trkpt><trkpt lat="45.89623628252012" lon="12.21221671087401"><ele>204.66666666666666</ele><time>2026-04-25T13:24:33.935Z</time></trkpt><trkpt lat="45.89618523300544" lon="12.212323240736378"><ele>204.33333333333331</ele><time>2026-04-25T13:24:36.935Z</time></trkpt><trkpt lat="45.89614013403512" lon="12.21239564146731"><ele>204.0</ele><time>2026-04-25T13:24:38.935Z</time></trkpt><trkpt lat="45.896079759078084" lon="12.212482410861938"><ele>203.66666666666669</ele><time>2026-04-25T13:24:41.935Z</time></trkpt><trkpt lat="45.8960393088936" lon="12.212563783437078"><ele>203.33333333333334</ele><time>2026-04-25T13:24:42.935Z</time></trkpt><trkpt lat="45.895992506375556" lon="12.212645078595878"><ele>203.0</ele><time>2026-04-25T13:24:43.935Z</time></trkpt><trkpt lat="45.895941625974714" lon="12.212727013624512"><ele>203.85714285714286</ele><time>2026-04-25T13:24:44.935Z</time></trkpt><trkpt lat="45.89589163181773" lon="12.212806467630115"><ele>204.71428571428572</ele><time>2026-04-25T13:24:45.935Z</time></trkpt><trkpt lat="45.89583883088891" lon="12.212886238847181"><ele>205.57142857142856</ele><time>2026-04-25T13:24:46.935Z</time></trkpt><trkpt lat="45.895789452958304" lon="12.212961262157783"><ele>206.42857142857144</ele><time>2026-04-25T13:24:47.935Z</time></trkpt><trkpt lat="45.89574474422964" lon="12.213045144591877"><ele>207.28571428571428</ele><time>2026-04-25T13:24:48.935Z</time></trkpt><trkpt lat="45.895705401338" lon="12.213129683530648"><ele>208.14285714285714</ele><time>2026-04-25T13:24:49.935Z</time></trkpt><trkpt lat="45.895673689870726" lon="12.213213673379194"><ele>209.0</ele><time>2026-04-25T13:24:50.935Z</time></trkpt><trkpt lat="45.89562289956524" lon="12.213361636290234"><ele>209.2</ele><time>2026-04-25T13:24:52.935Z</time></trkpt><trkpt lat="45.895553152038126" lon="12.213474541359608"><ele>209.39999999999998</ele><time>2026-04-25T13:24:54.935Z</time></trkpt><trkpt lat="45.895462025273545" lon="12.213547323380812"><ele>209.6</ele><time>2026-04-25T13:24:56.934Z</time></trkpt><trkpt lat="45.89539145490759" lon="12.213587629056084"><ele>209.8</ele><time>2026-04-25T13:24:58.934Z</time></trkpt><trkpt lat="45.89531597142735" lon="12.213635168392823"><ele>210.0</ele><time>2026-04-25T13:25:00.934Z</time></trkpt><trkpt lat="45.89524299103035" lon="12.213691958808138"><ele>210.0</ele><time>2026-04-25T13:25:02.933Z</time></trkpt><trkpt lat="45.89516274815346" lon="12.213767029431835"><ele>210.0</ele><time>2026-04-25T13:25:04.933Z</time></trkpt><trkpt lat="45.895085257108676" lon="12.213834960196689"><ele>210.0</ele><time>2026-04-25T13:25:06.933Z</time></trkpt><trkpt lat="45.895019076841905" lon="12.213919982411156"><ele>210.0</ele><time>2026-04-25T13:25:08.933Z</time></trkpt><trkpt lat="45.89495196657209" lon="12.214004893249607"><ele>210.0</ele><time>2026-04-25T13:25:10.932Z</time></trkpt><trkpt lat="45.89488283009689" lon="12.21407602900631"><ele>210.5</ele><time>2026-04-25T13:25:12.932Z</time></trkpt><trkpt lat="45.89481182734731" lon="12.214141577763911"><ele>211.0</ele><time>2026-04-25T13:25:14.932Z</time></trkpt><trkpt lat="45.894737708481685" lon="12.214227489462779"><ele>211.5</ele><time>2026-04-25T13:25:16.932Z</time></trkpt><trkpt lat="45.8946578790373" lon="12.214313417615477"><ele>212.0</ele><time>2026-04-25T13:25:18.932Z</time></trkpt><trkpt lat="45.894592148153635" lon="12.214386020934379"><ele>212.5</ele><time>2026-04-25T13:25:20.932Z</time></trkpt><trkpt lat="45.894523082407986" lon="12.214449175826134"><ele>213.0</ele><time>2026-04-25T13:25:22.932Z</time></trkpt><trkpt lat="45.89445719822507" lon="12.214513102163751"><ele>213.0</ele><time>2026-04-25T13:25:24.932Z</time></trkpt><trkpt lat="45.89438891673024" lon="12.214577364453001"><ele>213.0</ele><time>2026-04-25T13:25:26.932Z</time></trkpt><trkpt lat="45.89431640653856" lon="12.214639254415014"><ele>213.0</ele><time>2026-04-25T13:25:28.932Z</time></trkpt><trkpt lat="45.894251929132345" lon="12.214716824577328"><ele>213.0</ele><time>2026-04-25T13:25:30.931Z</time></trkpt><trkpt lat="45.89417276857936" lon="12.214794579111954"><ele>213.0</ele><time>2026-04-25T13:25:32.932Z</time></trkpt><trkpt lat="45.8940830845518" lon="12.214868475001358"><ele>213.0</ele><time>2026-04-25T13:25:34.932Z</time></trkpt><trkpt lat="45.89399601096207" lon="12.214950384112406"><ele>213.2</ele><time>2026-04-25T13:25:36.932Z</time></trkpt><trkpt lat="45.89390934069987" lon="12.215040300042736"><ele>213.4</ele><time>2026-04-25T13:25:38.932Z</time></trkpt><trkpt lat="45.893815148489956" lon="12.215121265692261"><ele>213.59999999999997</ele><time>2026-04-25T13:25:40.931Z</time></trkpt><trkpt lat="45.89372395911246" lon="12.215208386730911"><ele>213.79999999999998</ele><time>2026-04-25T13:25:42.932Z</time></trkpt><trkpt lat="45.89363882451625" lon="12.21528845300306"><ele>214.0</ele><time>2026-04-25T13:25:44.932Z</time></trkpt><trkpt lat="45.89354474677956" lon="12.21537632801753"><ele>214.0</ele><time>2026-04-25T13:25:46.932Z</time></trkpt><trkpt lat="45.893444234859594" lon="12.215460477078672"><ele>213.99999999999997</ele><time>2026-04-25T13:25:48.932Z</time></trkpt><trkpt lat="45.89335409533118" lon="12.215543489514406"><ele>213.99999999999997</ele><time>2026-04-25T13:25:50.932Z</time></trkpt><trkpt lat="45.89326231185346" lon="12.215585805454825"><ele>214.0</ele><time>2026-04-25T13:25:52.932Z</time></trkpt><trkpt lat="45.89320376605166" lon="12.215630239499312"><ele>214.0</ele><time>2026-04-25T13:25:53.932Z</time></trkpt><trkpt lat="45.893092245586274" lon="12.215684940907028"><ele>213.79999999999998</ele><time>2026-04-25T13:25:55.932Z</time></trkpt><trkpt lat="45.89298960976897" lon="12.21571275227166"><ele>213.59999999999997</ele><time>2026-04-25T13:25:57.932Z</time></trkpt><trkpt lat="45.892882220811416" lon="12.21573196636127"><ele>213.4</ele><time>2026-04-25T13:25:59.932Z</time></trkpt><trkpt lat="45.89277785560785" lon="12.215719308740987"><ele>213.2</ele><time>2026-04-25T13:26:01.931Z</time></trkpt><trkpt lat="45.89268634156227" lon="12.215660518963325"><ele>213.0</ele><time>2026-04-25T13:26:03.931Z</time></trkpt><trkpt lat="45.8925988106258" lon="12.215572837431214"><ele>213.60000000000002</ele><time>2026-04-25T13:26:05.931Z</time></trkpt><trkpt lat="45.892505866609504" lon="12.215499402957999"><ele>214.20000000000002</ele><time>2026-04-25T13:26:07.931Z</time></trkpt><trkpt lat="45.89239875963441" lon="12.215499435121577"><ele>214.8</ele><time>2026-04-25T13:26:09.931Z</time></trkpt><trkpt lat="45.892289699518024" lon="12.215538094936466"><ele>215.4</ele><time>2026-04-25T13:26:11.931Z</time></trkpt><trkpt lat="45.892181813692495" lon="12.215568297864207"><ele>216.0</ele><time>2026-04-25T13:26:13.931Z</time></trkpt><trkpt lat="45.89207839194505" lon="12.21560893747356"><ele>216.0</ele><time>2026-04-25T13:26:15.931Z</time></trkpt><trkpt lat="45.89199207652701" lon="12.21563730102445"><ele>216.00000000000003</ele><time>2026-04-25T13:26:17.931Z</time></trkpt><trkpt lat="45.8918998795099" lon="12.21566988273229"><ele>216.00000000000003</ele><time>2026-04-25T13:26:19.931Z</time></trkpt><trkpt lat="45.89180721971058" lon="12.215698311745724"><ele>216.0</ele><time>2026-04-25T13:26:21.931Z</time></trkpt><trkpt lat="45.8917161752948" lon="12.21572966773743"><ele>216.0</ele><time>2026-04-25T13:26:23.931Z</time></trkpt><trkpt lat="45.89161037674746" lon="12.21575329056146"><ele>216.20000000000002</ele><time>2026-04-25T13:26:25.931Z</time></trkpt><trkpt lat="45.89151210320555" lon="12.215786138489007"><ele>216.40000000000003</ele><time>2026-04-25T13:26:27.931Z</time></trkpt><trkpt lat="45.891405875979004" lon="12.215810808531879"><ele>216.6</ele><time>2026-04-25T13:26:29.931Z</time></trkpt><trkpt lat="45.89129465027799" lon="12.215834386503502"><ele>216.8</ele><time>2026-04-25T13:26:31.931Z</time></trkpt><trkpt lat="45.89118430008972" lon="12.215846912607951"><ele>217.0</ele><time>2026-04-25T13:26:33.931Z</time></trkpt><trkpt lat="45.891069314121474" lon="12.215866177320613"><ele>217.0</ele><time>2026-04-25T13:26:35.931Z</time></trkpt><trkpt lat="45.89095828166601" lon="12.215868538680876"><ele>217.0</ele><time>2026-04-25T13:26:37.931Z</time></trkpt><trkpt lat="45.89085375025645" lon="12.215876731691754"><ele>217.0</ele><time>2026-04-25T13:26:39.931Z</time></trkpt><trkpt lat="45.89074616134255" lon="12.215872301129162"><ele>217.0</ele><time>2026-04-25T13:26:41.931Z</time></trkpt><trkpt lat="45.89063851923956" lon="12.215873107602683"><ele>217.0</ele><time>2026-04-25T13:26:43.931Z</time></trkpt><trkpt lat="45.89053576687891" lon="12.215870001109234"><ele>216.6</ele><time>2026-04-25T13:26:45.931Z</time></trkpt><trkpt lat="45.89042728775919" lon="12.21586884651877"><ele>216.2</ele><time>2026-04-25T13:26:47.931Z</time></trkpt><trkpt lat="45.890325280703436" lon="12.215853176924911"><ele>215.8</ele><time>2026-04-25T13:26:49.931Z</time></trkpt><trkpt lat="45.89022618250643" lon="12.215840320370539"><ele>215.4</ele><time>2026-04-25T13:26:51.931Z</time></trkpt><trkpt lat="45.89012177587132" lon="12.215838877251104"><ele>215.0</ele><time>2026-04-25T13:26:53.931Z</time></trkpt><trkpt lat="45.89001998368808" lon="12.215828505231546"><ele>215.2</ele><time>2026-04-25T13:26:55.93Z</time></trkpt><trkpt lat="45.88991207591421" lon="12.215811481411"><ele>215.4</ele><time>2026-04-25T13:26:57.93Z</time></trkpt><trkpt lat="45.88980457477647" lon="12.21575523180508"><ele>215.60000000000002</ele><time>2026-04-25T13:26:59.93Z</time></trkpt><trkpt lat="45.889704618433804" lon="12.21567796671012"><ele>215.8</ele><time>2026-04-25T13:27:01.93Z</time></trkpt><trkpt lat="45.889628286135135" lon="12.215583361706384"><ele>216.0</ele><time>2026-04-25T13:27:03.93Z</time></trkpt><trkpt lat="45.88956848372821" lon="12.21547451372116"><ele>216.0</ele><time>2026-04-25T13:27:05.93Z</time></trkpt><trkpt lat="45.88950692577944" lon="12.215328138343983"><ele>216.0</ele><time>2026-04-25T13:27:07.93Z</time></trkpt><trkpt lat="45.88947304665645" lon="12.215154495223214"><ele>216.0</ele><time>2026-04-25T13:27:09.93Z</time></trkpt><trkpt lat="45.88945387870254" lon="12.21506740889199"><ele>216.0</ele><time>2026-04-25T13:27:10.93Z</time></trkpt><trkpt lat="45.88943573757599" lon="12.214975598914194"><ele>216.0</ele><time>2026-04-25T13:27:11.93Z</time></trkpt><trkpt lat="45.88941746242533" lon="12.214885573936467"><ele>216.0</ele><time>2026-04-25T13:27:12.93Z</time></trkpt><trkpt lat="45.88938933240848" lon="12.214719502710452"><ele>216.4</ele><time>2026-04-25T13:27:14.93Z</time></trkpt><trkpt lat="45.88935581811363" lon="12.214557033078604"><ele>216.8</ele><time>2026-04-25T13:27:16.93Z</time></trkpt><trkpt lat="45.88929436332353" lon="12.214434398299979"><ele>217.20000000000002</ele><time>2026-04-25T13:27:18.93Z</time></trkpt><trkpt lat="45.889199228083214" lon="12.214399716997768"><ele>217.60000000000002</ele><time>2026-04-25T13:27:20.93Z</time></trkpt><trkpt lat="45.88911988865264" lon="12.21441485074602"><ele>218.0</ele><time>2026-04-25T13:27:22.93Z</time></trkpt><trkpt lat="45.88903407413543" lon="12.214422386541841"><ele>218.0</ele><time>2026-04-25T13:27:24.93Z</time></trkpt><trkpt lat="45.88894890238653" lon="12.214439247362044"><ele>218.0</ele><time>2026-04-25T13:27:26.93Z</time></trkpt><trkpt lat="45.888850171271315" lon="12.21444983913457"><ele>218.0</ele><time>2026-04-25T13:27:28.93Z</time></trkpt><trkpt lat="45.88874988927489" lon="12.214476016379804"><ele>218.0</ele><time>2026-04-25T13:27:30.93Z</time></trkpt><trkpt lat="45.888651165400816" lon="12.214490805954933"><ele>218.0</ele><time>2026-04-25T13:27:32.93Z</time></trkpt><trkpt lat="45.88854873779888" lon="12.214510997270677"><ele>218.0</ele><time>2026-04-25T13:27:34.93Z</time></trkpt><trkpt lat="45.888442979709296" lon="12.214530370207816"><ele>218.0</ele><time>2026-04-25T13:27:36.93Z</time></trkpt><trkpt lat="45.888342280703206" lon="12.214532185390658"><ele>218.0</ele><time>2026-04-25T13:27:38.93Z</time></trkpt><trkpt lat="45.888253194737196" lon="12.21447025990709"><ele>218.0</ele><time>2026-04-25T13:27:40.93Z</time></trkpt><trkpt lat="45.88819664643719" lon="12.214320006690922"><ele>218.0</ele><time>2026-04-25T13:27:42.93Z</time></trkpt><trkpt lat="45.88818457426943" lon="12.21422703981247"><ele>218.00000000000003</ele><time>2026-04-25T13:27:43.93Z</time></trkpt><trkpt lat="45.888164445129526" lon="12.214065242483784"><ele>218.0</ele><time>2026-04-25T13:27:45.93Z</time></trkpt><trkpt lat="45.888136579863314" lon="12.213982395090584"><ele>218.0</ele><time>2026-04-25T13:27:46.93Z</time></trkpt><trkpt lat="45.88804629199407" lon="12.213860135116198"><ele>218.0</ele><time>2026-04-25T13:27:48.93Z</time></trkpt><trkpt lat="45.88798701915537" lon="12.213811761148925"><ele>218.00000000000003</ele><time>2026-04-25T13:27:49.929Z</time></trkpt><trkpt lat="45.887926325065415" lon="12.213779310580813"><ele>218.0</ele><time>2026-04-25T13:27:50.93Z</time></trkpt><trkpt lat="45.887863193283195" lon="12.213770644936744"><ele>216.2</ele><time>2026-04-25T13:27:51.93Z</time></trkpt><trkpt lat="45.8878004178528" lon="12.213787721407511"><ele>214.4</ele><time>2026-04-25T13:27:52.93Z</time></trkpt><trkpt lat="45.887739022241696" lon="12.213818113293797"><ele>212.6</ele><time>2026-04-25T13:27:53.93Z</time></trkpt><trkpt lat="45.88763326534038" lon="12.213898827946933"><ele>210.79999999999998</ele><time>2026-04-25T13:27:55.93Z</time></trkpt><trkpt lat="45.88753566378131" lon="12.213993437961125"><ele>209.0</ele><time>2026-04-25T13:27:57.93Z</time></trkpt><trkpt lat="45.88741692690114" lon="12.213993561714798"><ele>208.16666666666669</ele><time>2026-04-25T13:27:59.93Z</time></trkpt><trkpt lat="45.887356191126365" lon="12.213950260905513"><ele>207.33333333333334</ele><time>2026-04-25T13:28:00.93Z</time></trkpt><trkpt lat="45.88731196365107" lon="12.213879233496307"><ele>206.5</ele><time>2026-04-25T13:28:01.93Z</time></trkpt><trkpt lat="45.88725427787766" lon="12.213762870877282"><ele>205.66666666666669</ele><time>2026-04-25T13:28:03.93Z</time></trkpt><trkpt lat="45.88717996058665" lon="12.213758729345795"><ele>204.83333333333334</ele><time>2026-04-25T13:28:06.929Z</time></trkpt><trkpt lat="45.887113044802824" lon="12.213860703039042"><ele>204.0</ele><time>2026-04-25T13:28:08.929Z</time></trkpt><trkpt lat="45.887061585496106" lon="12.213979750639334"><ele>205.0</ele><time>2026-04-25T13:28:10.929Z</time></trkpt><trkpt lat="45.887034291751654" lon="12.214134728453422"><ele>206.0</ele><time>2026-04-25T13:28:12.929Z</time></trkpt><trkpt lat="45.887037016564925" lon="12.21429709458308"><ele>207.0</ele><time>2026-04-25T13:28:14.929Z</time></trkpt><trkpt lat="45.887020439671616" lon="12.21443392482819"><ele>208.0</ele><time>2026-04-25T13:28:16.929Z</time></trkpt><trkpt lat="45.88694047285595" lon="12.214572926636492"><ele>209.0</ele><time>2026-04-25T13:28:18.929Z</time></trkpt><trkpt lat="45.88688022885048" lon="12.21466161983994"><ele>209.0</ele><time>2026-04-25T13:28:19.929Z</time></trkpt><trkpt lat="45.88680928742301" lon="12.214747252033089"><ele>209.0</ele><time>2026-04-25T13:28:20.929Z</time></trkpt><trkpt lat="45.88671628635379" lon="12.214818986397333"><ele>209.0</ele><time>2026-04-25T13:28:21.929Z</time></trkpt><trkpt lat="45.8866107036335" lon="12.214886962380533"><ele>209.0</ele><time>2026-04-25T13:28:22.929Z</time></trkpt><trkpt lat="45.886494180637854" lon="12.214938002456607"><ele>209.0</ele><time>2026-04-25T13:28:23.929Z</time></trkpt><trkpt lat="45.88637506071995" lon="12.214966315978327"><ele>205.25</ele><time>2026-04-25T13:28:24.929Z</time></trkpt><trkpt lat="45.88625267612871" lon="12.214997024299642"><ele>201.5</ele><time>2026-04-25T13:28:25.929Z</time></trkpt><trkpt lat="45.88613115780824" lon="12.215032190115492"><ele>197.75</ele><time>2026-04-25T13:28:26.929Z</time></trkpt><trkpt lat="45.88600714636914" lon="12.215060722780233"><ele>194.0</ele><time>2026-04-25T13:28:27.929Z</time></trkpt><trkpt lat="45.88588336598972" lon="12.215078410204793"><ele>192.25</ele><time>2026-04-25T13:28:28.929Z</time></trkpt><trkpt lat="45.88575658327666" lon="12.215077432897477"><ele>190.5</ele><time>2026-04-25T13:28:29.929Z</time></trkpt><trkpt lat="45.88563711012734" lon="12.21506159959607"><ele>188.75</ele><time>2026-04-25T13:28:30.929Z</time></trkpt><trkpt lat="45.8855231622871" lon="12.21505855459833"><ele>187.0</ele><time>2026-04-25T13:28:31.929Z</time></trkpt><trkpt lat="45.88541339930019" lon="12.215052598692974"><ele>187.0</ele><time>2026-04-25T13:28:32.929Z</time></trkpt><trkpt lat="45.88530928616283" lon="12.215063733745332"><ele>187.0</ele><time>2026-04-25T13:28:33.929Z</time></trkpt><trkpt lat="45.885212790375306" lon="12.21510153702661"><ele>187.0</ele><time>2026-04-25T13:28:34.929Z</time></trkpt><trkpt lat="45.8851289581138" lon="12.215159278923739"><ele>187.0</ele><time>2026-04-25T13:28:35.929Z</time></trkpt><trkpt lat="45.88505263195447" lon="12.215248087076255"><ele>187.0</ele><time>2026-04-25T13:28:36.929Z</time></trkpt><trkpt lat="45.88498644389548" lon="12.215366727376342"><ele>185.5</ele><time>2026-04-25T13:28:37.929Z</time></trkpt><trkpt lat="45.88493159326597" lon="12.215515556545695"><ele>184.0</ele><time>2026-04-25T13:28:38.929Z</time></trkpt><trkpt lat="45.88489415580608" lon="12.215682942679749"><ele>182.5</ele><time>2026-04-25T13:28:39.929Z</time></trkpt><trkpt lat="45.884848965708684" lon="12.215847340365022"><ele>181.0</ele><time>2026-04-25T13:28:40.929Z</time></trkpt><trkpt lat="45.8847802677553" lon="12.21600796451984"><ele>179.25</ele><time>2026-04-25T13:28:41.929Z</time></trkpt><trkpt lat="45.88468857924112" lon="12.216142568572216"><ele>177.5</ele><time>2026-04-25T13:28:42.929Z</time></trkpt><trkpt lat="45.884583983920976" lon="12.216267550502645"><ele>175.75</ele><time>2026-04-25T13:28:43.929Z</time></trkpt><trkpt lat="45.8844891501624" lon="12.216380474788663"><ele>174.0</ele><time>2026-04-25T13:28:44.929Z</time></trkpt><trkpt lat="45.88440032597145" lon="12.216492770861404"><ele>173.79999999999998</ele><time>2026-04-25T13:28:45.929Z</time></trkpt><trkpt lat="45.884309446388706" lon="12.216597730650191"><ele>173.6</ele><time>2026-04-25T13:28:46.929Z</time></trkpt><trkpt lat="45.884216692687886" lon="12.216690723902854"><ele>173.4</ele><time>2026-04-25T13:28:47.929Z</time></trkpt><trkpt lat="45.88413265392883" lon="12.216774816374189"><ele>173.2</ele><time>2026-04-25T13:28:48.929Z</time></trkpt><trkpt lat="45.88404867005258" lon="12.216854684771695"><ele>173.0</ele><time>2026-04-25T13:28:49.929Z</time></trkpt><trkpt lat="45.88397008885615" lon="12.216934882851879"><ele>173.0</ele><time>2026-04-25T13:28:50.929Z</time></trkpt><trkpt lat="45.88388815297621" lon="12.217013517478984"><ele>173.0</ele><time>2026-04-25T13:28:51.929Z</time></trkpt><trkpt lat="45.88381232109928" lon="12.217079741728002"><ele>173.0</ele><time>2026-04-25T13:28:52.929Z</time></trkpt><trkpt lat="45.88372910329948" lon="12.217143395117578"><ele>173.0</ele><time>2026-04-25T13:28:53.929Z</time></trkpt><trkpt lat="45.88363391066173" lon="12.217205000244586"><ele>173.0</ele><time>2026-04-25T13:28:54.929Z</time></trkpt><trkpt lat="45.88353756533816" lon="12.217259467717222"><ele>171.5</ele><time>2026-04-25T13:28:55.929Z</time></trkpt><trkpt lat="45.88342786791775" lon="12.217299607154775"><ele>170.0</ele><time>2026-04-25T13:28:56.929Z</time></trkpt><trkpt lat="45.88331618959897" lon="12.217333170358687"><ele>168.5</ele><time>2026-04-25T13:28:57.929Z</time></trkpt><trkpt lat="45.88319471861459" lon="12.217351032657408"><ele>167.0</ele><time>2026-04-25T13:28:58.929Z</time></trkpt><trkpt lat="45.88307291456814" lon="12.217360518276967"><ele>167.0</ele><time>2026-04-25T13:28:59.928Z</time></trkpt><trkpt lat="45.882949629928866" lon="12.21736110378544"><ele>167.0</ele><time>2026-04-25T13:29:00.928Z</time></trkpt><trkpt lat="45.88283004299333" lon="12.217354153707"><ele>167.0</ele><time>2026-04-25T13:29:01.928Z</time></trkpt><trkpt lat="45.88270385103257" lon="12.217345887015679"><ele>167.0</ele><time>2026-04-25T13:29:02.928Z</time></trkpt><trkpt lat="45.882575704571344" lon="12.217334225083487"><ele>165.33333333333331</ele><time>2026-04-25T13:29:03.928Z</time></trkpt><trkpt lat="45.88246178383392" lon="12.217330075213665"><ele>163.66666666666666</ele><time>2026-04-25T13:29:04.928Z</time></trkpt><trkpt lat="45.88237846278754" lon="12.217325077507505"><ele>162.0</ele><time>2026-04-25T13:29:05.928Z</time></trkpt><trkpt lat="45.882313924878446" lon="12.217294877434707"><ele>160.33333333333334</ele><time>2026-04-25T13:29:08.928Z</time></trkpt><trkpt lat="45.88237355406606" lon="12.217337212404473"><ele>158.66666666666669</ele><time>2026-04-25T13:29:15.928Z</time></trkpt><trkpt lat="45.88245715894315" lon="12.217352570335944"><ele>157.0</ele><time>2026-04-25T13:29:25.928Z</time></trkpt><trkpt lat="45.882552989546234" lon="12.217348685514136"><ele>158.66666666666669</ele><time>2026-04-25T13:29:28.928Z</time></trkpt><trkpt lat="45.8826239630489" lon="12.217348894639269"><ele>160.33333333333334</ele><time>2026-04-25T13:29:31.928Z</time></trkpt><trkpt lat="45.88269355601289" lon="12.217353564771178"><ele>162.0</ele><time>2026-04-25T13:29:34.928Z</time></trkpt><trkpt lat="45.88276494847522" lon="12.217353424717254"><ele>163.66666666666666</ele><time>2026-04-25T13:29:37.928Z</time></trkpt><trkpt lat="45.88289249722047" lon="12.217374474965359"><ele>165.33333333333331</ele><time>2026-04-25T13:29:43.927Z</time></trkpt><trkpt lat="45.88296319584056" lon="12.217386466617878"><ele>167.0</ele><time>2026-04-25T13:29:46.927Z</time></trkpt><trkpt lat="45.8832188338411" lon="12.217381641940053"><ele>167.0</ele><time>2026-04-25T13:29:59.928Z</time></trkpt><trkpt lat="45.8832900494608" lon="12.217357582987198"><ele>167.0</ele><time>2026-04-25T13:30:03.928Z</time></trkpt><trkpt lat="45.88335743882405" lon="12.217330264985344"><ele>167.0</ele><time>2026-04-25T13:30:07.928Z</time></trkpt><trkpt lat="45.883421675307865" lon="12.217326934458612"><ele>167.0</ele><time>2026-04-25T13:30:10.928Z</time></trkpt><trkpt lat="45.88348420315676" lon="12.21729323924225"><ele>167.0</ele><time>2026-04-25T13:30:13.928Z</time></trkpt><trkpt lat="45.88354854104631" lon="12.217265379785948"><ele>167.0</ele><time>2026-04-25T13:30:16.928Z</time></trkpt><trkpt lat="45.883616499905926" lon="12.217240638272218"><ele>167.0</ele><time>2026-04-25T13:30:19.928Z</time></trkpt><trkpt lat="45.883696343683056" lon="12.217211627757603"><ele>168.0</ele><time>2026-04-25T13:30:22.928Z</time></trkpt><trkpt lat="45.883775963425485" lon="12.21715827790835"><ele>169.0</ele><time>2026-04-25T13:30:25.927Z</time></trkpt><trkpt lat="45.88383636032573" lon="12.217126350110885"><ele>170.0</ele><time>2026-04-25T13:30:28.927Z</time></trkpt><trkpt lat="45.88389428347092" lon="12.217080355390397"><ele>171.0</ele><time>2026-04-25T13:30:31.927Z</time></trkpt><trkpt lat="45.88396247949881" lon="12.21703920317179"><ele>172.0</ele><time>2026-04-25T13:30:34.927Z</time></trkpt><trkpt lat="45.88402511171159" lon="12.21696965225312"><ele>173.0</ele><time>2026-04-25T13:30:37.927Z</time></trkpt><trkpt lat="45.88408790802129" lon="12.216898154360639"><ele>173.0</ele><time>2026-04-25T13:30:40.927Z</time></trkpt><trkpt lat="45.88415033928783" lon="12.216813661635692"><ele>173.0</ele><time>2026-04-25T13:30:43.927Z</time></trkpt><trkpt lat="45.88421808575305" lon="12.216736361535617"><ele>173.0</ele><time>2026-04-25T13:30:45.927Z</time></trkpt><trkpt lat="45.88427579848028" lon="12.216670979702304"><ele>173.0</ele><time>2026-04-25T13:30:46.927Z</time></trkpt><trkpt lat="45.88433277518579" lon="12.216601967652712"><ele>173.0</ele><time>2026-04-25T13:30:47.927Z</time></trkpt><trkpt lat="45.88437837064301" lon="12.216538420562097"><ele>173.0</ele><time>2026-04-25T13:30:48.927Z</time></trkpt><trkpt lat="45.88442561519259" lon="12.216467368857185"><ele>173.16666666666666</ele><time>2026-04-25T13:30:49.927Z</time></trkpt><trkpt lat="45.88447367536067" lon="12.21639429059549"><ele>173.33333333333331</ele><time>2026-04-25T13:30:50.927Z</time></trkpt><trkpt lat="45.884524483359506" lon="12.216319252543522"><ele>173.5</ele><time>2026-04-25T13:30:51.927Z</time></trkpt><trkpt lat="45.884571325065245" lon="12.216251400534606"><ele>173.66666666666666</ele><time>2026-04-25T13:30:52.927Z</time></trkpt><trkpt lat="45.88461566037443" lon="12.216187078614343"><ele>173.83333333333334</ele><time>2026-04-25T13:30:53.927Z</time></trkpt><trkpt lat="45.88469569666748" lon="12.216028154934513"><ele>174.0</ele><time>2026-04-25T13:30:55.927Z</time></trkpt><trkpt lat="45.88473623486989" lon="12.21594285658386"><ele>174.0</ele><time>2026-04-25T13:30:56.927Z</time></trkpt><trkpt lat="45.88480855652029" lon="12.215836325095598"><ele>174.0</ele><time>2026-04-25T13:30:58.927Z</time></trkpt><trkpt lat="45.88484562586334" lon="12.215746513647403"><ele>174.0</ele><time>2026-04-25T13:31:00.927Z</time></trkpt><trkpt lat="45.88486372474276" lon="12.215642101112048"><ele>174.0</ele><time>2026-04-25T13:31:02.927Z</time></trkpt><trkpt lat="45.884934296941594" lon="12.215538475503486"><ele>174.0</ele><time>2026-04-25T13:31:05.927Z</time></trkpt><trkpt lat="45.8849766651526" lon="12.215439806210773"><ele>174.0</ele><time>2026-04-25T13:31:08.927Z</time></trkpt><trkpt lat="45.88502047550334" lon="12.215356413005244"><ele>175.39999999999998</ele><time>2026-04-25T13:31:12.927Z</time></trkpt><trkpt lat="45.88508982621763" lon="12.215272468324297"><ele>176.8</ele><time>2026-04-25T13:31:17.927Z</time></trkpt><trkpt lat="45.885147242648294" lon="12.215216214750258"><ele>178.2</ele><time>2026-04-25T13:31:20.926Z</time></trkpt><trkpt lat="45.88535522673506" lon="12.215202087246155"><ele>179.60000000000002</ele><time>2026-04-25T13:31:29.926Z</time></trkpt><trkpt lat="45.885426707583036" lon="12.215220495509458"><ele>181.0</ele><time>2026-04-25T13:31:31.926Z</time></trkpt><trkpt lat="45.88555190977953" lon="12.215225945061905"><ele>182.5</ele><time>2026-04-25T13:31:34.926Z</time></trkpt><trkpt lat="45.88563979657944" lon="12.215226720014547"><ele>184.0</ele><time>2026-04-25T13:31:36.926Z</time></trkpt><trkpt lat="45.885750121236256" lon="12.215239225087402"><ele>185.5</ele><time>2026-04-25T13:31:38.926Z</time></trkpt><trkpt lat="45.885853813858205" lon="12.215218853062048"><ele>187.0</ele><time>2026-04-25T13:31:40.926Z</time></trkpt><trkpt lat="45.88601612940374" lon="12.215202587240574"><ele>188.75</ele><time>2026-04-25T13:31:44.926Z</time></trkpt><trkpt lat="45.88613846058185" lon="12.215114312423676"><ele>190.5</ele><time>2026-04-25T13:31:46.926Z</time></trkpt><trkpt lat="45.88622883659253" lon="12.215080743452463"><ele>192.25</ele><time>2026-04-25T13:31:48.926Z</time></trkpt><trkpt lat="45.886399335458734" lon="12.215226454733838"><ele>194.0</ele><time>2026-04-25T13:31:53.926Z</time></trkpt><trkpt lat="45.88650733763448" lon="12.215285394337899"><ele>194.00000000000003</ele><time>2026-04-25T13:31:55.925Z</time></trkpt><trkpt lat="45.88658130563037" lon="12.215300369321833"><ele>194.0</ele><time>2026-04-25T13:31:56.925Z</time></trkpt><trkpt lat="45.886646697158575" lon="12.215317074947121"><ele>194.0</ele><time>2026-04-25T13:31:57.925Z</time></trkpt><trkpt lat="45.8867091929942" lon="12.215342908628845"><ele>194.0</ele><time>2026-04-25T13:31:58.926Z</time></trkpt><trkpt lat="45.886841663860864" lon="12.215398255118712"><ele>194.00000000000003</ele><time>2026-04-25T13:32:00.926Z</time></trkpt><trkpt lat="45.88690461702725" lon="12.215409352035982"><ele>194.0</ele><time>2026-04-25T13:32:01.926Z</time></trkpt><trkpt lat="45.887011999614984" lon="12.215452027958857"><ele>194.0</ele><time>2026-04-25T13:32:03.926Z</time></trkpt><trkpt lat="45.88709762950322" lon="12.215523435125705"><ele>194.0</ele><time>2026-04-25T13:32:05.926Z</time></trkpt><trkpt lat="45.88719601469264" lon="12.215650034709462"><ele>194.0</ele><time>2026-04-25T13:32:07.926Z</time></trkpt><trkpt lat="45.88722746535407" lon="12.21573975591572"><ele>194.0</ele><time>2026-04-25T13:32:08.926Z</time></trkpt><trkpt lat="45.88725848947144" lon="12.215849418865572"><ele>194.0</ele><time>2026-04-25T13:32:09.926Z</time></trkpt><trkpt lat="45.88730496524939" lon="12.215954290802104"><ele>194.00000000000003</ele><time>2026-04-25T13:32:10.926Z</time></trkpt><trkpt lat="45.88735328029377" lon="12.216070742923293"><ele>194.0</ele><time>2026-04-25T13:32:11.926Z</time></trkpt><trkpt lat="45.88739800420127" lon="12.21617241062135"><ele>194.0</ele><time>2026-04-25T13:32:12.926Z</time></trkpt><trkpt lat="45.88745796915231" lon="12.216257979320291"><ele>194.0</ele><time>2026-04-25T13:32:13.925Z</time></trkpt><trkpt lat="45.887520997046956" lon="12.216341342242455"><ele>194.00000000000003</ele><time>2026-04-25T13:32:14.925Z</time></trkpt><trkpt lat="45.88757120371724" lon="12.21644044681947"><ele>194.0</ele><time>2026-04-25T13:32:15.925Z</time></trkpt><trkpt lat="45.8875998605021" lon="12.216539614649562"><ele>196.42857142857142</ele><time>2026-04-25T13:32:16.925Z</time></trkpt><trkpt lat="45.88763203386504" lon="12.216646921104054"><ele>198.85714285714286</ele><time>2026-04-25T13:32:17.925Z</time></trkpt><trkpt lat="45.88762341489566" lon="12.2167754217818"><ele>201.28571428571428</ele><time>2026-04-25T13:32:18.925Z</time></trkpt><trkpt lat="45.88763667152772" lon="12.216877636030164"><ele>203.71428571428572</ele><time>2026-04-25T13:32:19.925Z</time></trkpt><trkpt lat="45.88764011305036" lon="12.216968251096405"><ele>206.14285714285717</ele><time>2026-04-25T13:32:20.925Z</time></trkpt><trkpt lat="45.887656613209856" lon="12.21706354238131"><ele>208.57142857142858</ele><time>2026-04-25T13:32:21.925Z</time></trkpt><trkpt lat="45.88767800711619" lon="12.217162271391148"><ele>211.0</ele><time>2026-04-25T13:32:22.925Z</time></trkpt><trkpt lat="45.88771293279914" lon="12.21725350347689"><ele>209.33333333333331</ele><time>2026-04-25T13:32:23.925Z</time></trkpt><trkpt lat="45.88774031996591" lon="12.217349142118724"><ele>207.66666666666666</ele><time>2026-04-25T13:32:24.925Z</time></trkpt><trkpt lat="45.887762606201534" lon="12.217452169112796"><ele>206.0</ele><time>2026-04-25T13:32:25.925Z</time></trkpt><trkpt lat="45.887776364010925" lon="12.217551151386349"><ele>204.33333333333331</ele><time>2026-04-25T13:32:26.925Z</time></trkpt><trkpt lat="45.887793692346946" lon="12.217655706134224"><ele>202.66666666666666</ele><time>2026-04-25T13:32:27.925Z</time></trkpt><trkpt lat="45.88781512569284" lon="12.217757373507961"><ele>201.0</ele><time>2026-04-25T13:32:28.925Z</time></trkpt><trkpt lat="45.88783235832219" lon="12.217879222474904"><ele>201.0</ele><time>2026-04-25T13:32:29.925Z</time></trkpt><trkpt lat="45.88784410861824" lon="12.21798170156262"><ele>201.0</ele><time>2026-04-25T13:32:30.925Z</time></trkpt><trkpt lat="45.88786271120176" lon="12.218081173724418"><ele>201.0</ele><time>2026-04-25T13:32:31.925Z</time></trkpt><trkpt lat="45.887886072531515" lon="12.21818046443008"><ele>201.0</ele><time>2026-04-25T13:32:32.925Z</time></trkpt><trkpt lat="45.887926416137255" lon="12.218367202618168"><ele>201.0</ele><time>2026-04-25T13:32:34.925Z</time></trkpt><trkpt lat="45.88797032869787" lon="12.218463124855232"><ele>201.0</ele><time>2026-04-25T13:32:35.925Z</time></trkpt><trkpt lat="45.88802058601284" lon="12.218554921288899"><ele>198.0</ele><time>2026-04-25T13:32:36.925Z</time></trkpt><trkpt lat="45.888077197197546" lon="12.218646909418664"><ele>195.0</ele><time>2026-04-25T13:32:37.925Z</time></trkpt><trkpt lat="45.88813598790243" lon="12.218737855564715"><ele>192.0</ele><time>2026-04-25T13:32:38.925Z</time></trkpt><trkpt lat="45.8881891430501" lon="12.218815434865139"><ele>189.0</ele><time>2026-04-25T13:32:39.925Z</time></trkpt><trkpt lat="45.88826093846231" lon="12.218941868204093"><ele>186.0</ele><time>2026-04-25T13:32:41.925Z</time></trkpt><trkpt lat="45.88828052270354" lon="12.219050877547264"><ele>183.0</ele><time>2026-04-25T13:32:43.925Z</time></trkpt><trkpt lat="45.88824534735131" lon="12.219184136629998"><ele>180.5</ele><time>2026-04-25T13:32:45.925Z</time></trkpt><trkpt lat="45.88816473610299" lon="12.219310654041053"><ele>178.0</ele><time>2026-04-25T13:32:47.925Z</time></trkpt><trkpt lat="45.88811259095084" lon="12.219363927619693"><ele>175.5</ele><time>2026-04-25T13:32:48.925Z</time></trkpt><trkpt lat="45.888017840494925" lon="12.219483276636508"><ele>173.0</ele><time>2026-04-25T13:32:50.925Z</time></trkpt><trkpt lat="45.887980208275515" lon="12.219572611820752"><ele>170.5</ele><time>2026-04-25T13:32:51.925Z</time></trkpt><trkpt lat="45.887955551505414" lon="12.219662152626544"><ele>168.0</ele><time>2026-04-25T13:32:52.925Z</time></trkpt><trkpt lat="45.88795392953508" lon="12.219764081223842"><ele>166.5</ele><time>2026-04-25T13:32:53.925Z</time></trkpt><trkpt lat="45.887945374444676" lon="12.219864877474484"><ele>165.0</ele><time>2026-04-25T13:32:54.925Z</time></trkpt><trkpt lat="45.8879343902302" lon="12.219976033840485"><ele>163.5</ele><time>2026-04-25T13:32:55.925Z</time></trkpt><trkpt lat="45.88785279323481" lon="12.220113656256503"><ele>162.0</ele><time>2026-04-25T13:32:57.925Z</time></trkpt><trkpt lat="45.8877878429606" lon="12.220169559348957"><ele>160.5</ele><time>2026-04-25T13:32:58.925Z</time></trkpt><trkpt lat="45.887721441186294" lon="12.220246145042697"><ele>159.0</ele><time>2026-04-25T13:32:59.925Z</time></trkpt><trkpt lat="45.88766565543792" lon="12.22034177888846"><ele>159.0</ele><time>2026-04-25T13:33:00.925Z</time></trkpt><trkpt lat="45.887628036516865" lon="12.220464193586547"><ele>159.0</ele><time>2026-04-25T13:33:01.925Z</time></trkpt><trkpt lat="45.88761008806807" lon="12.220600499531155"><ele>159.0</ele><time>2026-04-25T13:33:02.925Z</time></trkpt><trkpt lat="45.88756765589867" lon="12.220838188216959"><ele>159.0</ele><time>2026-04-25T13:33:04.925Z</time></trkpt><trkpt lat="45.88753278976193" lon="12.220921917709628"><ele>159.0</ele><time>2026-04-25T13:33:05.925Z</time></trkpt><trkpt lat="45.88748166019485" lon="12.22100129321422"><ele>158.5</ele><time>2026-04-25T13:33:06.925Z</time></trkpt><trkpt lat="45.88741778376698" lon="12.221076239834003"><ele>158.0</ele><time>2026-04-25T13:33:07.924Z</time></trkpt><trkpt lat="45.887349883296785" lon="12.221154857490141"><ele>157.5</ele><time>2026-04-25T13:33:08.924Z</time></trkpt><trkpt lat="45.887288412790475" lon="12.221231631257792"><ele>157.0</ele><time>2026-04-25T13:33:09.924Z</time></trkpt><trkpt lat="45.88722371935863" lon="12.22131658104964"><ele>156.5</ele><time>2026-04-25T13:33:10.924Z</time></trkpt><trkpt lat="45.887161236453984" lon="12.22139918961832"><ele>156.0</ele><time>2026-04-25T13:33:11.924Z</time></trkpt><trkpt lat="45.88711399614893" lon="12.221461887900036"><ele>154.5</ele><time>2026-04-25T13:33:12.924Z</time></trkpt><trkpt lat="45.887059293049596" lon="12.221526821060557"><ele>153.0</ele><time>2026-04-25T13:33:13.924Z</time></trkpt><trkpt lat="45.88699525061052" lon="12.221581973281252"><ele>151.5</ele><time>2026-04-25T13:33:14.924Z</time></trkpt><trkpt lat="45.88692929819643" lon="12.221635141224594"><ele>150.0</ele><time>2026-04-25T13:33:15.924Z</time></trkpt><trkpt lat="45.886857618782145" lon="12.221687515960475"><ele>148.5</ele><time>2026-04-25T13:33:16.924Z</time></trkpt><trkpt lat="45.88678237424822" lon="12.22173615442983"><ele>147.0</ele><time>2026-04-25T13:33:17.924Z</time></trkpt><trkpt lat="45.88671134644249" lon="12.221790048845032"><ele>146.85714285714286</ele><time>2026-04-25T13:33:18.924Z</time></trkpt><trkpt lat="45.886642792708784" lon="12.221849080149424"><ele>146.71428571428572</ele><time>2026-04-25T13:33:19.924Z</time></trkpt><trkpt lat="45.88657755374632" lon="12.221909594727109"><ele>146.57142857142856</ele><time>2026-04-25T13:33:20.924Z</time></trkpt><trkpt lat="45.8865169055332" lon="12.221974320810501"><ele>146.42857142857144</ele><time>2026-04-25T13:33:21.924Z</time></trkpt><trkpt lat="45.88645491593596" lon="12.22201831405259"><ele>146.28571428571428</ele><time>2026-04-25T13:33:22.924Z</time></trkpt><trkpt lat="45.88638555409409" lon="12.222052189972702"><ele>146.14285714285714</ele><time>2026-04-25T13:33:23.924Z</time></trkpt><trkpt lat="45.8863211197549" lon="12.2220763938554"><ele>146.0</ele><time>2026-04-25T13:33:24.924Z</time></trkpt><trkpt lat="45.88625922705839" lon="12.22210021211997"><ele>146.0</ele><time>2026-04-25T13:33:25.924Z</time></trkpt><trkpt lat="45.88619841487897" lon="12.222124393272889"><ele>146.0</ele><time>2026-04-25T13:33:26.924Z</time></trkpt><trkpt lat="45.8860839596485" lon="12.222177916133608"><ele>146.0</ele><time>2026-04-25T13:33:28.924Z</time></trkpt><trkpt lat="45.88598166793267" lon="12.222225453227422"><ele>146.0</ele><time>2026-04-25T13:33:30.924Z</time></trkpt><trkpt lat="45.88587859432947" lon="12.222264638358364"><ele>146.0</ele><time>2026-04-25T13:33:32.924Z</time></trkpt><trkpt lat="45.8857908060226" lon="12.2223138530291"><ele>146.14285714285714</ele><time>2026-04-25T13:33:34.924Z</time></trkpt><trkpt lat="45.885708127849895" lon="12.222345321640239"><ele>146.28571428571428</ele><time>2026-04-25T13:33:36.924Z</time></trkpt><trkpt lat="45.88563262958007" lon="12.222376336849324"><ele>146.42857142857144</ele><time>2026-04-25T13:33:38.924Z</time></trkpt><trkpt lat="45.88556174838516" lon="12.222406029878961"><ele>146.57142857142856</ele><time>2026-04-25T13:33:40.924Z</time></trkpt><trkpt lat="45.88550024103273" lon="12.222435755361513"><ele>146.71428571428572</ele><time>2026-04-25T13:33:42.924Z</time></trkpt><trkpt lat="45.88544678366581" lon="12.22248536762792"><ele>146.85714285714286</ele><time>2026-04-25T13:33:44.924Z</time></trkpt><trkpt lat="45.885381685821" lon="12.222544994403911"><ele>147.0</ele><time>2026-04-25T13:33:47.924Z</time></trkpt><trkpt lat="45.88533544192819" lon="12.222642741509361"><ele>147.0</ele><time>2026-04-25T13:33:50.924Z</time></trkpt><trkpt lat="45.88531316984623" lon="12.222743432418548"><ele>147.0</ele><time>2026-04-25T13:33:53.924Z</time></trkpt><trkpt lat="45.885296495559054" lon="12.222842668396552"><ele>147.0</ele><time>2026-04-25T13:33:55.924Z</time></trkpt><trkpt lat="45.885277576024485" lon="12.222960058448503"><ele>147.0</ele><time>2026-04-25T13:33:57.924Z</time></trkpt><trkpt lat="45.8852543649041" lon="12.223060916784608"><ele>147.0</ele><time>2026-04-25T13:34:00.924Z</time></trkpt><trkpt lat="45.88522819533556" lon="12.223144574035851"><ele>147.0</ele><time>2026-04-25T13:34:02.923Z</time></trkpt><trkpt lat="45.88525248036315" lon="12.223242470952366"><ele>147.0</ele><time>2026-04-25T13:34:04.924Z</time></trkpt><trkpt lat="45.88532578626698" lon="12.223350059353841"><ele>147.0</ele><time>2026-04-25T13:34:07.924Z</time></trkpt><trkpt lat="45.8853624861756" lon="12.223437461219714"><ele>147.0</ele><time>2026-04-25T13:34:09.923Z</time></trkpt><trkpt lat="45.885389162942786" lon="12.223542988738833"><ele>147.0</ele><time>2026-04-25T13:34:10.923Z</time></trkpt><trkpt lat="45.885414716075516" lon="12.223654518009237"><ele>147.0</ele><time>2026-04-25T13:34:11.923Z</time></trkpt><trkpt lat="45.88538903413586" lon="12.223823410896044"><ele>147.0</ele><time>2026-04-25T13:34:13.923Z</time></trkpt><trkpt lat="45.88529941565339" lon="12.223924160633393"><ele>147.0</ele><time>2026-04-25T13:34:15.923Z</time></trkpt><trkpt lat="45.88518635417727" lon="12.22397393180917"><ele>147.0</ele><time>2026-04-25T13:34:17.923Z</time></trkpt><trkpt lat="45.88507992139517" lon="12.2239844795222"><ele>147.0</ele><time>2026-04-25T13:34:19.923Z</time></trkpt><trkpt lat="45.884978659768265" lon="12.22405132184856"><ele>147.0</ele><time>2026-04-25T13:34:21.923Z</time></trkpt><trkpt lat="45.884914368327046" lon="12.224200583787846"><ele>146.83333333333334</ele><time>2026-04-25T13:34:23.923Z</time></trkpt><trkpt lat="45.88487845917938" lon="12.224377308396239"><ele>146.66666666666666</ele><time>2026-04-25T13:34:25.923Z</time></trkpt><trkpt lat="45.88485750558724" lon="12.224464714243911"><ele>146.5</ele><time>2026-04-25T13:34:26.923Z</time></trkpt><trkpt lat="45.88483361772568" lon="12.224557994178786"><ele>146.33333333333331</ele><time>2026-04-25T13:34:27.923Z</time></trkpt><trkpt lat="45.88481977133612" lon="12.224656322790327"><ele>146.16666666666666</ele><time>2026-04-25T13:34:28.923Z</time></trkpt><trkpt lat="45.88480103888106" lon="12.224755668018897"><ele>146.0</ele><time>2026-04-25T13:34:29.923Z</time></trkpt><trkpt lat="45.884783552634346" lon="12.224849536414654"><ele>146.0</ele><time>2026-04-25T13:34:30.923Z</time></trkpt><trkpt lat="45.88474822008359" lon="12.225017803170024"><ele>146.0</ele><time>2026-04-25T13:34:32.923Z</time></trkpt><trkpt lat="45.884735496900625" lon="12.22510910561083"><ele>146.0</ele><time>2026-04-25T13:34:33.923Z</time></trkpt><trkpt lat="45.88471716417301" lon="12.225197192110231"><ele>146.0</ele><time>2026-04-25T13:34:34.923Z</time></trkpt><trkpt lat="45.88468985626887" lon="12.225364781156406"><ele>146.0</ele><time>2026-04-25T13:34:36.923Z</time></trkpt><trkpt lat="45.884666288229894" lon="12.22550785477856"><ele>146.0</ele><time>2026-04-25T13:34:38.923Z</time></trkpt><trkpt lat="45.88464365855214" lon="12.225627968580858"><ele>146.0</ele><time>2026-04-25T13:34:40.923Z</time></trkpt><trkpt lat="45.8846237704089" lon="12.225732685857592"><ele>146.0</ele><time>2026-04-25T13:34:42.923Z</time></trkpt><trkpt lat="45.884602596784774" lon="12.225827198872775"><ele>146.0</ele><time>2026-04-25T13:34:44.923Z</time></trkpt><trkpt lat="45.88458760100247" lon="12.225922948049107"><ele>146.0</ele><time>2026-04-25T13:34:46.923Z</time></trkpt><trkpt lat="45.884572695561545" lon="12.22601340517323"><ele>146.0</ele><time>2026-04-25T13:34:48.923Z</time></trkpt><trkpt lat="45.88455613242367" lon="12.226113797066432"><ele>146.0</ele><time>2026-04-25T13:34:50.923Z</time></trkpt><trkpt lat="45.884533236035246" lon="12.226201620599698"><ele>145.83333333333331</ele><time>2026-04-25T13:34:52.922Z</time></trkpt><trkpt lat="45.88450999377232" lon="12.226287816849053"><ele>145.66666666666666</ele><time>2026-04-25T13:34:54.922Z</time></trkpt><trkpt lat="45.8844518442017" lon="12.2263846609777"><ele>145.5</ele><time>2026-04-25T13:34:57.922Z</time></trkpt><trkpt lat="45.88440245626519" lon="12.22644303935055"><ele>145.33333333333334</ele><time>2026-04-25T13:34:59.922Z</time></trkpt><trkpt lat="45.88432312664024" lon="12.22651602698867"><ele>145.16666666666669</ele><time>2026-04-25T13:35:02.922Z</time></trkpt><trkpt lat="45.884271840367994" lon="12.22657994414405"><ele>145.0</ele><time>2026-04-25T13:35:04.922Z</time></trkpt><trkpt lat="45.884224186506685" lon="12.226674724162798"><ele>145.66666666666669</ele><time>2026-04-25T13:35:06.922Z</time></trkpt><trkpt lat="45.884155483482004" lon="12.226749812174065"><ele>146.33333333333334</ele><time>2026-04-25T13:35:08.922Z</time></trkpt><trkpt lat="45.88406618048397" lon="12.226830816590756"><ele>147.0</ele><time>2026-04-25T13:35:10.922Z</time></trkpt><trkpt lat="45.88401180239515" lon="12.22687732536177"><ele>147.66666666666666</ele><time>2026-04-25T13:35:11.922Z</time></trkpt><trkpt lat="45.88394990476126" lon="12.226923283318456"><ele>148.33333333333331</ele><time>2026-04-25T13:35:12.922Z</time></trkpt><trkpt lat="45.88388150293588" lon="12.22695703429805"><ele>149.0</ele><time>2026-04-25T13:35:13.922Z</time></trkpt><trkpt lat="45.88381067316851" lon="12.226989217574353"><ele>149.0</ele><time>2026-04-25T13:35:14.922Z</time></trkpt><trkpt lat="45.88373692838422" lon="12.22701040358752"><ele>149.0</ele><time>2026-04-25T13:35:15.922Z</time></trkpt><trkpt lat="45.88365735214058" lon="12.227025338612528"><ele>149.0</ele><time>2026-04-25T13:35:16.922Z</time></trkpt><trkpt lat="45.88357336923919" lon="12.227036566045472"><ele>149.0</ele><time>2026-04-25T13:35:17.922Z</time></trkpt><trkpt lat="45.883481482794515" lon="12.227047828487162"><ele>149.0</ele><time>2026-04-25T13:35:18.922Z</time></trkpt><trkpt lat="45.88338467537003" lon="12.227063858950908"><ele>149.0</ele><time>2026-04-25T13:35:19.922Z</time></trkpt><trkpt lat="45.883283677172564" lon="12.227072162553483"><ele>148.2</ele><time>2026-04-25T13:35:20.922Z</time></trkpt><trkpt lat="45.883181704096366" lon="12.227087493729618"><ele>147.4</ele><time>2026-04-25T13:35:21.922Z</time></trkpt><trkpt lat="45.883081047971764" lon="12.227100373235547"><ele>146.6</ele><time>2026-04-25T13:35:22.922Z</time></trkpt><trkpt lat="45.882972935809235" lon="12.227111598623534"><ele>145.8</ele><time>2026-04-25T13:35:23.922Z</time></trkpt><trkpt lat="45.88286376849804" lon="12.227120230984697"><ele>145.0</ele><time>2026-04-25T13:35:24.922Z</time></trkpt><trkpt lat="45.882755971471056" lon="12.22712522368187"><ele>145.0</ele><time>2026-04-25T13:35:25.922Z</time></trkpt><trkpt lat="45.88266455565581" lon="12.227119329330932"><ele>145.0</ele><time>2026-04-25T13:35:26.922Z</time></trkpt><trkpt lat="45.882582652283354" lon="12.227135111098546"><ele>145.0</ele><time>2026-04-25T13:35:27.922Z</time></trkpt><trkpt lat="45.88252348581324" lon="12.227176276252097"><ele>145.0</ele><time>2026-04-25T13:35:28.922Z</time></trkpt><trkpt lat="45.8823989815027" lon="12.227252156793442"><ele>145.0</ele><time>2026-04-25T13:35:30.922Z</time></trkpt><trkpt lat="45.88232530845482" lon="12.22728332992312"><ele>142.6</ele><time>2026-04-25T13:35:31.922Z</time></trkpt><trkpt lat="45.88224502300836" lon="12.227305341689757"><ele>140.2</ele><time>2026-04-25T13:35:32.922Z</time></trkpt><trkpt lat="45.88215864689705" lon="12.227331812858512"><ele>137.8</ele><time>2026-04-25T13:35:33.922Z</time></trkpt><trkpt lat="45.88206120481301" lon="12.227353053153413"><ele>135.4</ele><time>2026-04-25T13:35:34.922Z</time></trkpt><trkpt lat="45.881959825061934" lon="12.227373268608455"><ele>133.0</ele><time>2026-04-25T13:35:35.922Z</time></trkpt><trkpt lat="45.88185080109929" lon="12.227401407900862"><ele>130.4</ele><time>2026-04-25T13:35:36.922Z</time></trkpt><trkpt lat="45.88174697899357" lon="12.22742102750696"><ele>127.80000000000001</ele><time>2026-04-25T13:35:37.922Z</time></trkpt><trkpt lat="45.881636931299894" lon="12.227446910109697"><ele>125.2</ele><time>2026-04-25T13:35:38.922Z</time></trkpt><trkpt lat="45.8815256154445" lon="12.227467806628104"><ele>122.6</ele><time>2026-04-25T13:35:39.922Z</time></trkpt><trkpt lat="45.88142623306181" lon="12.227491804850949"><ele>120.0</ele><time>2026-04-25T13:35:40.922Z</time></trkpt><trkpt lat="45.881332403024174" lon="12.227518413088518"><ele>120.0</ele><time>2026-04-25T13:35:41.922Z</time></trkpt><trkpt lat="45.88124155155537" lon="12.227557247222038"><ele>120.0</ele><time>2026-04-25T13:35:42.922Z</time></trkpt><trkpt lat="45.88114881008516" lon="12.227629429066237"><ele>120.0</ele><time>2026-04-25T13:35:43.922Z</time></trkpt><trkpt lat="45.881060778613836" lon="12.227731688178908"><ele>120.0</ele><time>2026-04-25T13:35:44.922Z</time></trkpt><trkpt lat="45.88097950172276" lon="12.227841267801285"><ele>120.0</ele><time>2026-04-25T13:35:45.921Z</time></trkpt><trkpt lat="45.88090630919416" lon="12.22794464509239"><ele>118.2</ele><time>2026-04-25T13:35:46.921Z</time></trkpt><trkpt lat="45.880847940955704" lon="12.228026145564314"><ele>116.4</ele><time>2026-04-25T13:35:47.921Z</time></trkpt><trkpt lat="45.88079147527968" lon="12.228112377964422"><ele>114.6</ele><time>2026-04-25T13:35:48.921Z</time></trkpt><trkpt lat="45.88073596146822" lon="12.228219130531786"><ele>112.8</ele><time>2026-04-25T13:35:49.921Z</time></trkpt><trkpt lat="45.88069005393142" lon="12.22834302000483"><ele>111.0</ele><time>2026-04-25T13:35:50.921Z</time></trkpt><trkpt lat="45.88065986842379" lon="12.228476773036594"><ele>110.5</ele><time>2026-04-25T13:35:51.921Z</time></trkpt><trkpt lat="45.88062935609631" lon="12.22861098995856"><ele>110.0</ele><time>2026-04-25T13:35:52.921Z</time></trkpt><trkpt lat="45.88060068623994" lon="12.228741169830377"><ele>109.5</ele><time>2026-04-25T13:35:53.921Z</time></trkpt><trkpt lat="45.88058610128957" lon="12.228857784853163"><ele>109.0</ele><time>2026-04-25T13:35:54.921Z</time></trkpt><trkpt lat="45.880588477887834" lon="12.228970986292"><ele>108.5</ele><time>2026-04-25T13:35:55.921Z</time></trkpt><trkpt lat="45.880610366154755" lon="12.229091804682799"><ele>108.0</ele><time>2026-04-25T13:35:56.921Z</time></trkpt><trkpt lat="45.88064694314107" lon="12.229221641418809"><ele>107.0</ele><time>2026-04-25T13:35:57.921Z</time></trkpt><trkpt lat="45.88067843999157" lon="12.229358333025631"><ele>106.0</ele><time>2026-04-25T13:35:58.921Z</time></trkpt><trkpt lat="45.880704153949246" lon="12.229493920600929"><ele>105.0</ele><time>2026-04-25T13:35:59.921Z</time></trkpt><trkpt lat="45.880725971409504" lon="12.229618615860215"><ele>104.0</ele><time>2026-04-25T13:36:00.921Z</time></trkpt><trkpt lat="45.88074052231084" lon="12.22972718398693"><ele>103.0</ele><time>2026-04-25T13:36:01.922Z</time></trkpt><trkpt lat="45.880751358182586" lon="12.22983820469969"><ele>102.0</ele><time>2026-04-25T13:36:02.922Z</time></trkpt><trkpt lat="45.88076393383356" lon="12.229948179816208"><ele>101.5</ele><time>2026-04-25T13:36:03.922Z</time></trkpt><trkpt lat="45.88077999829922" lon="12.230052447971163"><ele>101.0</ele><time>2026-04-25T13:36:04.922Z</time></trkpt><trkpt lat="45.88079540736138" lon="12.230147205761666"><ele>100.5</ele><time>2026-04-25T13:36:05.922Z</time></trkpt><trkpt lat="45.88081318529662" lon="12.230240091494311"><ele>100.0</ele><time>2026-04-25T13:36:06.922Z</time></trkpt><trkpt lat="45.88083851694948" lon="12.230328145552297"><ele>99.5</ele><time>2026-04-25T13:36:07.922Z</time></trkpt><trkpt lat="45.880866338788195" lon="12.230491184103606"><ele>99.0</ele><time>2026-04-25T13:36:09.922Z</time></trkpt><trkpt lat="45.88085795343535" lon="12.230596130384338"><ele>97.5</ele><time>2026-04-25T13:36:10.922Z</time></trkpt><trkpt lat="45.880831002706564" lon="12.230706111329585"><ele>96.0</ele><time>2026-04-25T13:36:11.922Z</time></trkpt><trkpt lat="45.88081528420381" lon="12.230795663394735"><ele>94.5</ele><time>2026-04-25T13:36:12.922Z</time></trkpt><trkpt lat="45.88080163566262" lon="12.230925045471478"><ele>93.0</ele><time>2026-04-25T13:36:14.922Z</time></trkpt><trkpt lat="45.88075823866551" lon="12.23103354170469"><ele>91.5</ele><time>2026-04-25T13:36:16.922Z</time></trkpt><trkpt lat="45.880654921138905" lon="12.231107434696325"><ele>90.0</ele><time>2026-04-25T13:36:18.922Z</time></trkpt><trkpt lat="45.880592351690794" lon="12.231135132502967"><ele>90.0</ele><time>2026-04-25T13:36:19.922Z</time></trkpt><trkpt lat="45.88052833937753" lon="12.231167640201559"><ele>90.0</ele><time>2026-04-25T13:36:20.922Z</time></trkpt><trkpt lat="45.88046679146168" lon="12.231202998848538"><ele>90.0</ele><time>2026-04-25T13:36:21.922Z</time></trkpt><trkpt lat="45.88037818027869" lon="12.231270473269769"><ele>90.0</ele><time>2026-04-25T13:36:23.922Z</time></trkpt><trkpt lat="45.880346734711374" lon="12.231383192617988"><ele>90.0</ele><time>2026-04-25T13:36:26.922Z</time></trkpt><trkpt lat="45.88040162908636" lon="12.231438861454892"><ele>90.0</ele><time>2026-04-25T13:36:28.922Z</time></trkpt><trkpt lat="45.88048290063729" lon="12.23140730255015"><ele>90.0</ele><time>2026-04-25T13:36:30.922Z</time></trkpt><trkpt lat="45.880555710374026" lon="12.23136433592609"><ele>90.0</ele><time>2026-04-25T13:36:32.922Z</time></trkpt><trkpt lat="45.88068633820004" lon="12.231295579872471"><ele>90.0</ele><time>2026-04-25T13:36:35.922Z</time></trkpt><trkpt lat="45.88078615918974" lon="12.231243832231344"><ele>90.0</ele><time>2026-04-25T13:36:37.922Z</time></trkpt><trkpt lat="45.88088428615204" lon="12.2311972211476"><ele>90.0</ele><time>2026-04-25T13:36:39.922Z</time></trkpt><trkpt lat="45.88099258221982" lon="12.231143669289276"><ele>89.66666666666667</ele><time>2026-04-25T13:36:41.922Z</time></trkpt><trkpt lat="45.88110800622352" lon="12.231092449106814"><ele>89.33333333333333</ele><time>2026-04-25T13:36:43.922Z</time></trkpt><trkpt lat="45.88116753323152" lon="12.23105687659378"><ele>89.0</ele><time>2026-04-25T13:36:44.922Z</time></trkpt><trkpt lat="45.88122987171113" lon="12.23102339395753"><ele>88.66666666666666</ele><time>2026-04-25T13:36:45.922Z</time></trkpt><trkpt lat="45.881350453963236" lon="12.23096556763969"><ele>88.33333333333333</ele><time>2026-04-25T13:36:47.922Z</time></trkpt><trkpt lat="45.881413724216564" lon="12.230935932413098"><ele>88.0</ele><time>2026-04-25T13:36:48.922Z</time></trkpt><trkpt lat="45.88147880848679" lon="12.230899146961432"><ele>88.0</ele><time>2026-04-25T13:36:49.922Z</time></trkpt><trkpt lat="45.88154569768973" lon="12.230862653609949"><ele>88.0</ele><time>2026-04-25T13:36:50.922Z</time></trkpt><trkpt lat="45.88160927594354" lon="12.23083559531031"><ele>88.0</ele><time>2026-04-25T13:36:51.922Z</time></trkpt><trkpt lat="45.88166994318705" lon="12.230802633811297"><ele>88.0</ele><time>2026-04-25T13:36:52.922Z</time></trkpt><trkpt lat="45.88173375830666" lon="12.230770875269823"><ele>88.0</ele><time>2026-04-25T13:36:53.922Z</time></trkpt><trkpt lat="45.881799514891945" lon="12.230736192040297"><ele>88.0</ele><time>2026-04-25T13:36:54.922Z</time></trkpt><trkpt lat="45.88192000778818" lon="12.230673627986961"><ele>89.16666666666666</ele><time>2026-04-25T13:36:56.922Z</time></trkpt><trkpt lat="45.881984303312024" lon="12.230637896190093"><ele>90.33333333333333</ele><time>2026-04-25T13:36:57.922Z</time></trkpt><trkpt lat="45.882047465506055" lon="12.230608163284966"><ele>91.5</ele><time>2026-04-25T13:36:58.922Z</time></trkpt><trkpt lat="45.8821151724411" lon="12.23057618743734"><ele>92.66666666666667</ele><time>2026-04-25T13:36:59.922Z</time></trkpt><trkpt lat="45.88217538047044" lon="12.23054811029644"><ele>93.83333333333334</ele><time>2026-04-25T13:37:00.922Z</time></trkpt><trkpt lat="45.88224114283108" lon="12.230510643842981"><ele>95.0</ele><time>2026-04-25T13:37:01.922Z</time></trkpt><trkpt lat="45.882359466962015" lon="12.230458675637578"><ele>95.0</ele><time>2026-04-25T13:37:03.922Z</time></trkpt><trkpt lat="45.8824286283054" lon="12.230423698795722"><ele>95.0</ele><time>2026-04-25T13:37:04.922Z</time></trkpt><trkpt lat="45.88249150014475" lon="12.230392531848354"><ele>95.0</ele><time>2026-04-25T13:37:05.921Z</time></trkpt><trkpt lat="45.88255538440026" lon="12.230359638820099"><ele>95.0</ele><time>2026-04-25T13:37:06.921Z</time></trkpt><trkpt lat="45.8826150692944" lon="12.230327773995098"><ele>95.0</ele><time>2026-04-25T13:37:07.921Z</time></trkpt><trkpt lat="45.88267863314886" lon="12.230295875602108"><ele>95.0</ele><time>2026-04-25T13:37:08.921Z</time></trkpt><trkpt lat="45.882744268605066" lon="12.230263619402798"><ele>95.0</ele><time>2026-04-25T13:37:09.921Z</time></trkpt><trkpt lat="45.882809713227466" lon="12.230228512191534"><ele>94.14285714285714</ele><time>2026-04-25T13:37:10.921Z</time></trkpt><trkpt lat="45.88287641538168" lon="12.230198429678204"><ele>93.28571428571429</ele><time>2026-04-25T13:37:11.921Z</time></trkpt><trkpt lat="45.882944535740144" lon="12.230160634906419"><ele>92.42857142857142</ele><time>2026-04-25T13:37:12.921Z</time></trkpt><trkpt lat="45.88301123142844" lon="12.230129777385002"><ele>91.57142857142857</ele><time>2026-04-25T13:37:13.921Z</time></trkpt><trkpt lat="45.88307620059319" lon="12.23009648795607"><ele>90.71428571428571</ele><time>2026-04-25T13:37:14.921Z</time></trkpt><trkpt lat="45.88314204435943" lon="12.230063993179431"><ele>89.85714285714285</ele><time>2026-04-25T13:37:15.921Z</time></trkpt><trkpt lat="45.883207377528606" lon="12.230035546475163"><ele>89.0</ele><time>2026-04-25T13:37:16.921Z</time></trkpt><trkpt lat="45.883268710733894" lon="12.230003619986745"><ele>88.99999999999999</ele><time>2026-04-25T13:37:17.921Z</time></trkpt><trkpt lat="45.88333894643605" lon="12.229959214970405"><ele>89.0</ele><time>2026-04-25T13:37:18.921Z</time></trkpt><trkpt lat="45.88340525265913" lon="12.229927715557062"><ele>89.0</ele><time>2026-04-25T13:37:19.921Z</time></trkpt><trkpt lat="45.88347209914038" lon="12.229888524817667"><ele>89.0</ele><time>2026-04-25T13:37:20.921Z</time></trkpt><trkpt lat="45.883533473772985" lon="12.229858659619811"><ele>89.0</ele><time>2026-04-25T13:37:21.921Z</time></trkpt><trkpt lat="45.883596472159425" lon="12.229823160577618"><ele>88.99999999999999</ele><time>2026-04-25T13:37:22.921Z</time></trkpt><trkpt lat="45.883661832217015" lon="12.229788957316114"><ele>89.0</ele><time>2026-04-25T13:37:23.921Z</time></trkpt><trkpt lat="45.88373213764169" lon="12.229752803595286"><ele>89.99999999999999</ele><time>2026-04-25T13:37:24.921Z</time></trkpt><trkpt lat="45.88379826824206" lon="12.229721636044783"><ele>91.0</ele><time>2026-04-25T13:37:25.921Z</time></trkpt><trkpt lat="45.883865143512736" lon="12.229686958717004"><ele>92.0</ele><time>2026-04-25T13:37:26.921Z</time></trkpt><trkpt lat="45.88392875404981" lon="12.229652264335126"><ele>93.0</ele><time>2026-04-25T13:37:27.921Z</time></trkpt><trkpt lat="45.8839980722239" lon="12.229617580515372"><ele>94.0</ele><time>2026-04-25T13:37:28.921Z</time></trkpt><trkpt lat="45.88406814190111" lon="12.229579379417242"><ele>94.99999999999999</ele><time>2026-04-25T13:37:29.921Z</time></trkpt><trkpt lat="45.884134086816175" lon="12.229547172883453"><ele>96.0</ele><time>2026-04-25T13:37:30.921Z</time></trkpt><trkpt lat="45.884200663967725" lon="12.229512012245188"><ele>94.99999999999999</ele><time>2026-04-25T13:37:31.921Z</time></trkpt><trkpt lat="45.884272108820824" lon="12.229474206792752"><ele>94.0</ele><time>2026-04-25T13:37:32.921Z</time></trkpt><trkpt lat="45.8843369237815" lon="12.229445727884169"><ele>93.0</ele><time>2026-04-25T13:37:33.921Z</time></trkpt><trkpt lat="45.884407970359746" lon="12.229406050338355"><ele>92.0</ele><time>2026-04-25T13:37:34.921Z</time></trkpt><trkpt lat="45.8844747720698" lon="12.229370938985062"><ele>91.0</ele><time>2026-04-25T13:37:35.921Z</time></trkpt><trkpt lat="45.88454159951652" lon="12.229336564505886"><ele>89.99999999999999</ele><time>2026-04-25T13:37:36.921Z</time></trkpt><trkpt lat="45.884610075973505" lon="12.229303342224027"><ele>89.0</ele><time>2026-04-25T13:37:37.921Z</time></trkpt><trkpt lat="45.88467666617999" lon="12.229270838323819"><ele>88.99999999999999</ele><time>2026-04-25T13:37:38.921Z</time></trkpt><trkpt lat="45.884746950829985" lon="12.229235842710006"><ele>89.0</ele><time>2026-04-25T13:37:39.921Z</time></trkpt><trkpt lat="45.884817028244164" lon="12.229197671469016"><ele>89.0</ele><time>2026-04-25T13:37:40.921Z</time></trkpt><trkpt lat="45.884884905640824" lon="12.229161432724792"><ele>89.0</ele><time>2026-04-25T13:37:41.921Z</time></trkpt><trkpt lat="45.88495601782651" lon="12.229127561569094"><ele>89.0</ele><time>2026-04-25T13:37:42.921Z</time></trkpt><trkpt lat="45.885029635205946" lon="12.229094523137949"><ele>88.99999999999999</ele><time>2026-04-25T13:37:43.921Z</time></trkpt><trkpt lat="45.88509969422064" lon="12.229062760195653"><ele>89.0</ele><time>2026-04-25T13:37:44.921Z</time></trkpt><trkpt lat="45.88516814348821" lon="12.229033559819243"><ele>88.85714285714285</ele><time>2026-04-25T13:37:45.921Z</time></trkpt><trkpt lat="45.88524124708219" lon="12.229003765174546"><ele>88.71428571428571</ele><time>2026-04-25T13:37:46.921Z</time></trkpt><trkpt lat="45.88531406874639" lon="12.228973918233331"><ele>88.57142857142857</ele><time>2026-04-25T13:37:47.921Z</time></trkpt><trkpt lat="45.885385091846494" lon="12.22895045715226"><ele>88.42857142857142</ele><time>2026-04-25T13:37:48.921Z</time></trkpt><trkpt lat="45.88545613534943" lon="12.228933767535201"><ele>88.28571428571428</ele><time>2026-04-25T13:37:49.921Z</time></trkpt><trkpt lat="45.88552539674011" lon="12.228919985645716"><ele>88.14285714285714</ele><time>2026-04-25T13:37:50.921Z</time></trkpt><trkpt lat="45.88559542002642" lon="12.228898875810074"><ele>88.0</ele><time>2026-04-25T13:37:51.921Z</time></trkpt><trkpt lat="45.88566473907938" lon="12.22887958072661"><ele>89.57142857142857</ele><time>2026-04-25T13:37:52.921Z</time></trkpt><trkpt lat="45.88573236086974" lon="12.228871712275435"><ele>91.14285714285714</ele><time>2026-04-25T13:37:53.921Z</time></trkpt><trkpt lat="45.885802768848414" lon="12.228862644557601"><ele>92.71428571428572</ele><time>2026-04-25T13:37:54.921Z</time></trkpt><trkpt lat="45.88587196328293" lon="12.228853884700722"><ele>94.28571428571428</ele><time>2026-04-25T13:37:55.921Z</time></trkpt><trkpt lat="45.88594051984482" lon="12.22885009378979"><ele>95.85714285714285</ele><time>2026-04-25T13:37:56.921Z</time></trkpt><trkpt lat="45.88600947401115" lon="12.228843424165449"><ele>97.42857142857143</ele><time>2026-04-25T13:37:57.921Z</time></trkpt><trkpt lat="45.88607436296864" lon="12.228840771874475"><ele>99.0</ele><time>2026-04-25T13:37:58.921Z</time></trkpt><trkpt lat="45.886140873298366" lon="12.228832533760896"><ele>99.0</ele><time>2026-04-25T13:37:59.92Z</time></trkpt><trkpt lat="45.8862647910731" lon="12.228818194078197"><ele>99.0</ele><time>2026-04-25T13:38:01.92Z</time></trkpt><trkpt lat="45.88638658691757" lon="12.22880301321361"><ele>99.0</ele><time>2026-04-25T13:38:03.92Z</time></trkpt><trkpt lat="45.88644681684587" lon="12.228875545952945"><ele>99.0</ele><time>2026-04-25T13:38:05.92Z</time></trkpt><trkpt lat="45.88647109797607" lon="12.22898490291011"><ele>99.0</ele><time>2026-04-25T13:38:07.92Z</time></trkpt><trkpt lat="45.88648926458299" lon="12.229090437846354"><ele>96.6</ele><time>2026-04-25T13:38:10.921Z</time></trkpt><trkpt lat="45.886551122185296" lon="12.22919832054487"><ele>94.2</ele><time>2026-04-25T13:38:13.92Z</time></trkpt><trkpt lat="45.88660669968195" lon="12.229280900458187"><ele>91.8</ele><time>2026-04-25T13:38:15.92Z</time></trkpt><trkpt lat="45.88668307140939" lon="12.229397789619705"><ele>89.39999999999999</ele><time>2026-04-25T13:38:17.92Z</time></trkpt><trkpt lat="45.88674392962216" lon="12.229516525456988"><ele>87.0</ele><time>2026-04-25T13:38:19.92Z</time></trkpt><trkpt lat="45.88680832210935" lon="12.229632768134616"><ele>86.8</ele><time>2026-04-25T13:38:21.92Z</time></trkpt><trkpt lat="45.88687647866876" lon="12.229757154662115"><ele>86.6</ele><time>2026-04-25T13:38:23.92Z</time></trkpt><trkpt lat="45.8869517703041" lon="12.229870575786828"><ele>86.39999999999999</ele><time>2026-04-25T13:38:25.92Z</time></trkpt><trkpt lat="45.88702832227637" lon="12.229974186162721"><ele>86.19999999999999</ele><time>2026-04-25T13:38:27.92Z</time></trkpt><trkpt lat="45.887108705025405" lon="12.230062342048699"><ele>86.0</ele><time>2026-04-25T13:38:29.92Z</time></trkpt><trkpt lat="45.8872127882539" lon="12.230074235485969"><ele>86.0</ele><time>2026-04-25T13:38:31.92Z</time></trkpt><trkpt lat="45.887327881945986" lon="12.230050547752832"><ele>86.0</ele><time>2026-04-25T13:38:33.92Z</time></trkpt><trkpt lat="45.88739212327687" lon="12.230033517369947"><ele>86.0</ele><time>2026-04-25T13:38:34.92Z</time></trkpt><trkpt lat="45.88745920455725" lon="12.230022182077139"><ele>86.0</ele><time>2026-04-25T13:38:35.92Z</time></trkpt><trkpt lat="45.88752985990885" lon="12.230029645185143"><ele>86.0</ele><time>2026-04-25T13:38:36.92Z</time></trkpt><trkpt lat="45.88759733645707" lon="12.2300571804243"><ele>86.0</ele><time>2026-04-25T13:38:37.92Z</time></trkpt><trkpt lat="45.887654705280625" lon="12.23010879427735"><ele>86.0</ele><time>2026-04-25T13:38:38.92Z</time></trkpt><trkpt lat="45.88769994970391" lon="12.230177222278083"><ele>86.0</ele><time>2026-04-25T13:38:39.92Z</time></trkpt><trkpt lat="45.88778827671913" lon="12.230292476128009"><ele>86.0</ele><time>2026-04-25T13:38:41.92Z</time></trkpt><trkpt lat="45.88787528793024" lon="12.230378584962855"><ele>86.0</ele><time>2026-04-25T13:38:43.92Z</time></trkpt><trkpt lat="45.88789717193961" lon="12.230281736983754"><ele>86.0</ele><time>2026-04-25T13:41:38.917Z</time></trkpt><trkpt lat="45.88797997198268" lon="12.230228023082457"><ele>86.0</ele><time>2026-04-25T13:41:41.917Z</time></trkpt><trkpt lat="45.88806586088543" lon="12.230187181328676"><ele>86.0</ele><time>2026-04-25T13:41:43.917Z</time></trkpt><trkpt lat="45.88814236164043" lon="12.230159615807606"><ele>86.0</ele><time>2026-04-25T13:41:45.917Z</time></trkpt><trkpt lat="45.88821375038515" lon="12.230132573386582"><ele>86.0</ele><time>2026-04-25T13:41:47.917Z</time></trkpt><trkpt lat="45.888284098997346" lon="12.230109244620847"><ele>86.0</ele><time>2026-04-25T13:41:49.917Z</time></trkpt><trkpt lat="45.88836103554105" lon="12.230072650500674"><ele>86.0</ele><time>2026-04-25T13:41:51.917Z</time></trkpt><trkpt lat="45.88844180960728" lon="12.230054952620993"><ele>86.5</ele><time>2026-04-25T13:41:53.917Z</time></trkpt><trkpt lat="45.88852738740108" lon="12.230018060824989"><ele>87.0</ele><time>2026-04-25T13:41:55.917Z</time></trkpt><trkpt lat="45.888613493567576" lon="12.229975588916764"><ele>87.5</ele><time>2026-04-25T13:41:57.917Z</time></trkpt><trkpt lat="45.888693810737514" lon="12.22994241885162"><ele>88.0</ele><time>2026-04-25T13:41:59.917Z</time></trkpt><trkpt lat="45.88877618347884" lon="12.229912338797071"><ele>88.5</ele><time>2026-04-25T13:42:01.917Z</time></trkpt><trkpt lat="45.88885495564163" lon="12.229888654847333"><ele>89.0</ele><time>2026-04-25T13:42:03.917Z</time></trkpt><trkpt lat="45.88893660934468" lon="12.229869874346454"><ele>89.0</ele><time>2026-04-25T13:42:05.917Z</time></trkpt><trkpt lat="45.88904819662986" lon="12.229834073960573"><ele>89.0</ele><time>2026-04-25T13:42:08.917Z</time></trkpt><trkpt lat="45.889134610893535" lon="12.229798167052325"><ele>89.0</ele><time>2026-04-25T13:42:10.917Z</time></trkpt><trkpt lat="45.88921533707647" lon="12.229760103163702"><ele>89.0</ele><time>2026-04-25T13:42:12.917Z</time></trkpt><trkpt lat="45.88929520272746" lon="12.229733266392754"><ele>89.0</ele><time>2026-04-25T13:42:14.917Z</time></trkpt><trkpt lat="45.88937147874599" lon="12.229709984090565"><ele>89.0</ele><time>2026-04-25T13:42:16.917Z</time></trkpt><trkpt lat="45.88945785591751" lon="12.229674243236433"><ele>89.57142857142857</ele><time>2026-04-25T13:42:18.917Z</time></trkpt><trkpt lat="45.88953418984279" lon="12.229651709991723"><ele>90.14285714285714</ele><time>2026-04-25T13:42:20.917Z</time></trkpt><trkpt lat="45.88960662855026" lon="12.229618221703879"><ele>90.71428571428572</ele><time>2026-04-25T13:42:22.917Z</time></trkpt><trkpt lat="45.889676856553635" lon="12.229590013797488"><ele>91.28571428571428</ele><time>2026-04-25T13:42:24.917Z</time></trkpt><trkpt lat="45.88974141064684" lon="12.229561357219996"><ele>91.85714285714286</ele><time>2026-04-25T13:42:26.916Z</time></trkpt><trkpt lat="45.88981603749294" lon="12.229575132091961"><ele>92.42857142857143</ele><time>2026-04-25T13:42:29.917Z</time></trkpt><trkpt lat="45.889877416905684" lon="12.229599499137802"><ele>93.0</ele><time>2026-04-25T13:42:32.917Z</time></trkpt><trkpt lat="45.88994349178978" lon="12.229673576094902"><ele>93.00000000000001</ele><time>2026-04-25T13:42:36.917Z</time></trkpt><trkpt lat="45.88999526353686" lon="12.229731864504679"><ele>93.0</ele><time>2026-04-25T13:42:39.917Z</time></trkpt><trkpt lat="45.89004191463124" lon="12.229802718758135"><ele>93.0</ele><time>2026-04-25T13:42:42.917Z</time></trkpt><trkpt lat="45.89010713350948" lon="12.22986463722012"><ele>93.0</ele><time>2026-04-25T13:42:46.916Z</time></trkpt><trkpt lat="45.890160059234134" lon="12.229934775552984"><ele>93.0</ele><time>2026-04-25T13:42:51.916Z</time></trkpt><trkpt lat="45.89022055305436" lon="12.22998529357813"><ele>93.00000000000001</ele><time>2026-04-25T13:42:56.916Z</time></trkpt><trkpt lat="45.890266830329494" lon="12.230062299259545"><ele>93.0</ele><time>2026-04-25T13:43:01.916Z</time></trkpt><trkpt lat="45.89030680678371" lon="12.230134882727738"><ele>95.57142857142858</ele><time>2026-04-25T13:43:06.916Z</time></trkpt><trkpt lat="45.89035666619412" lon="12.230212088556733"><ele>98.14285714285714</ele><time>2026-04-25T13:43:12.916Z</time></trkpt><trkpt lat="45.89039427481019" lon="12.230295500517718"><ele>100.71428571428572</ele><time>2026-04-25T13:43:17.916Z</time></trkpt><trkpt lat="45.890431505929456" lon="12.230370492732687"><ele>103.28571428571429</ele><time>2026-04-25T13:43:23.916Z</time></trkpt><trkpt lat="45.89047748586006" lon="12.230442587955693"><ele>105.85714285714286</ele><time>2026-04-25T13:43:29.916Z</time></trkpt><trkpt lat="45.8905374316568" lon="12.230402592203827"><ele>108.42857142857143</ele><time>2026-04-25T13:43:43.915Z</time></trkpt><trkpt lat="45.8905951535921" lon="12.230338975411108"><ele>111.0</ele><time>2026-04-25T13:43:48.915Z</time></trkpt><trkpt lat="45.890659857699966" lon="12.230296601523124"><ele>111.0</ele><time>2026-04-25T13:43:54.915Z</time></trkpt><trkpt lat="45.89070986793933" lon="12.230229117443722"><ele>111.0</ele><time>2026-04-25T13:43:59.915Z</time></trkpt><trkpt lat="45.890764641488595" lon="12.230177116145066"><ele>111.0</ele><time>2026-04-25T13:44:04.915Z</time></trkpt><trkpt lat="45.89082921829064" lon="12.230134999196803"><ele>111.0</ele><time>2026-04-25T13:44:09.915Z</time></trkpt><trkpt lat="45.8908957384424" lon="12.230094325350795"><ele>111.0</ele><time>2026-04-25T13:44:15.915Z</time></trkpt><trkpt lat="45.89095694244007" lon="12.23006542574932"><ele>111.0</ele><time>2026-04-25T13:44:20.915Z</time></trkpt><trkpt lat="45.89102010762027" lon="12.23002958655743"><ele>111.0</ele><time>2026-04-25T13:44:25.915Z</time></trkpt><trkpt lat="45.891098858379465" lon="12.229994064509599"><ele>113.28571428571428</ele><time>2026-04-25T13:44:31.915Z</time></trkpt><trkpt lat="45.89116552561677" lon="12.229955857889074"><ele>115.57142857142858</ele><time>2026-04-25T13:44:37.916Z</time></trkpt><trkpt lat="45.891238755627235" lon="12.229937971746708"><ele>117.85714285714286</ele><time>2026-04-25T13:44:43.915Z</time></trkpt><trkpt lat="45.89130626883466" lon="12.229943663154438"><ele>120.14285714285714</ele><time>2026-04-25T13:44:48.915Z</time></trkpt><trkpt lat="45.89137055412906" lon="12.229976427789449"><ele>122.42857142857142</ele><time>2026-04-25T13:44:53.915Z</time></trkpt><trkpt lat="45.891434296983576" lon="12.230007102431108"><ele>124.71428571428572</ele><time>2026-04-25T13:44:58.915Z</time></trkpt><trkpt lat="45.891496322618984" lon="12.230035509961896"><ele>127.0</ele><time>2026-04-25T13:45:03.912Z</time></trkpt><trkpt lat="45.891566565351965" lon="12.230066930227395"><ele>127.0</ele><time>2026-04-25T13:45:08.908Z</time></trkpt><trkpt lat="45.89163054940871" lon="12.230098765115647"><ele>127.0</ele><time>2026-04-25T13:45:13.904Z</time></trkpt><trkpt lat="45.89169572005967" lon="12.230152172360173"><ele>127.0</ele><time>2026-04-25T13:45:19.902Z</time></trkpt><trkpt lat="45.89176628921958" lon="12.230186517272127"><ele>127.0</ele><time>2026-04-25T13:45:24.9Z</time></trkpt><trkpt lat="45.89182810343" lon="12.230216713448161"><ele>127.0</ele><time>2026-04-25T13:45:29.899Z</time></trkpt><trkpt lat="45.89189597524225" lon="12.230248041406982"><ele>127.0</ele><time>2026-04-25T13:45:34.898Z</time></trkpt><trkpt lat="45.89196331936748" lon="12.230277716442258"><ele>127.0</ele><time>2026-04-25T13:45:40.897Z</time></trkpt><trkpt lat="45.89203286007042" lon="12.230279689411004"><ele>128.57142857142858</ele><time>2026-04-25T13:45:45.896Z</time></trkpt><trkpt lat="45.89210073252282" lon="12.230318168638224"><ele>130.14285714285714</ele><time>2026-04-25T13:45:52.896Z</time></trkpt><trkpt lat="45.89217559105401" lon="12.23032953519435"><ele>131.71428571428572</ele><time>2026-04-25T13:45:58.896Z</time></trkpt><trkpt lat="45.892240843284846" lon="12.230330597345386"><ele>133.28571428571428</ele><time>2026-04-25T13:46:04.895Z</time></trkpt><trkpt lat="45.89231268072406" lon="12.230340872752132"><ele>134.85714285714286</ele><time>2026-04-25T13:46:11.895Z</time></trkpt><trkpt lat="45.892392006233365" lon="12.23036373295692"><ele>136.42857142857144</ele><time>2026-04-25T13:46:18.895Z</time></trkpt><trkpt lat="45.89245276179234" lon="12.230387464937927"><ele>138.0</ele><time>2026-04-25T13:46:23.895Z</time></trkpt><trkpt lat="45.89251969124769" lon="12.230413112418287"><ele>138.0</ele><time>2026-04-25T13:46:28.894Z</time></trkpt><trkpt lat="45.892582922778914" lon="12.230453034728827"><ele>138.0</ele><time>2026-04-25T13:46:34.894Z</time></trkpt><trkpt lat="45.892655862021" lon="12.230484795384617"><ele>138.0</ele><time>2026-04-25T13:46:40.895Z</time></trkpt><trkpt lat="45.89271721817658" lon="12.230505774273576"><ele>138.0</ele><time>2026-04-25T13:46:45.894Z</time></trkpt><trkpt lat="45.8927722279609" lon="12.230550780732642"><ele>138.0</ele><time>2026-04-25T13:46:51.894Z</time></trkpt><trkpt lat="45.89285180728456" lon="12.230587648349958"><ele>138.0</ele><time>2026-04-25T13:46:58.894Z</time></trkpt><trkpt lat="45.89292195931789" lon="12.230622658915122"><ele>138.0</ele><time>2026-04-25T13:47:04.894Z</time></trkpt><trkpt lat="45.89299121980746" lon="12.230630679776606"><ele>139.71428571428572</ele><time>2026-04-25T13:47:08.894Z</time></trkpt><trkpt lat="45.89304877989691" lon="12.23068573250487"><ele>141.42857142857144</ele><time>2026-04-25T13:47:13.893Z</time></trkpt><trkpt lat="45.89311884115322" lon="12.230722836294865"><ele>143.14285714285714</ele><time>2026-04-25T13:47:18.893Z</time></trkpt><trkpt lat="45.893195977462845" lon="12.23069804741874"><ele>144.85714285714286</ele><time>2026-04-25T13:47:23.893Z</time></trkpt><trkpt lat="45.89324864654016" lon="12.23063793600873"><ele>146.57142857142856</ele><time>2026-04-25T13:47:27.893Z</time></trkpt><trkpt lat="45.89331376478896" lon="12.230573665521002"><ele>148.28571428571428</ele><time>2026-04-25T13:47:31.893Z</time></trkpt><trkpt lat="45.89339020573484" lon="12.230539928255899"><ele>150.0</ele><time>2026-04-25T13:47:35.893Z</time></trkpt><trkpt lat="45.89346363690815" lon="12.230473578011827"><ele>150.83333333333334</ele><time>2026-04-25T13:47:38.893Z</time></trkpt><trkpt lat="45.89355234449027" lon="12.230424862309254"><ele>151.66666666666666</ele><time>2026-04-25T13:47:40.893Z</time></trkpt><trkpt lat="45.89363201537522" lon="12.230389205801309"><ele>152.5</ele><time>2026-04-25T13:47:42.893Z</time></trkpt><trkpt lat="45.89370969070929" lon="12.230358195561665"><ele>153.33333333333331</ele><time>2026-04-25T13:47:44.893Z</time></trkpt><trkpt lat="45.89378571635269" lon="12.230336719238142"><ele>154.16666666666666</ele><time>2026-04-25T13:47:46.893Z</time></trkpt><trkpt lat="45.89384770621021" lon="12.23031113000839"><ele>155.0</ele><time>2026-04-25T13:47:48.893Z</time></trkpt><trkpt lat="45.893915094248065" lon="12.230305872646591"><ele>155.0</ele><time>2026-04-25T13:47:50.893Z</time></trkpt><trkpt lat="45.89399692162098" lon="12.2303166195254"><ele>155.0</ele><time>2026-04-25T13:47:52.893Z</time></trkpt><trkpt lat="45.894077030850724" lon="12.230330822762388"><ele>155.0</ele><time>2026-04-25T13:47:54.893Z</time></trkpt><trkpt lat="45.89414739426793" lon="12.230339347413722"><ele>155.0</ele><time>2026-04-25T13:47:56.892Z</time></trkpt><trkpt lat="45.89423465511114" lon="12.230346029206702"><ele>155.0</ele><time>2026-04-25T13:47:59.892Z</time></trkpt><trkpt lat="45.89430761010045" lon="12.230363837091312"><ele>155.0</ele><time>2026-04-25T13:48:01.892Z</time></trkpt><trkpt lat="45.89437551931893" lon="12.230390248199535"><ele>154.66666666666666</ele><time>2026-04-25T13:48:04.892Z</time></trkpt><trkpt lat="45.89444739808036" lon="12.230437892384828"><ele>154.33333333333331</ele><time>2026-04-25T13:48:07.892Z</time></trkpt><trkpt lat="45.894530293817866" lon="12.230460627677857"><ele>154.0</ele><time>2026-04-25T13:48:10.892Z</time></trkpt><trkpt lat="45.89461038153418" lon="12.230504073713172"><ele>153.66666666666666</ele><time>2026-04-25T13:48:13.892Z</time></trkpt><trkpt lat="45.89468472521097" lon="12.230535850988002"><ele>153.33333333333334</ele><time>2026-04-25T13:48:15.892Z</time></trkpt><trkpt lat="45.89476379232419" lon="12.230543347912649"><ele>153.0</ele><time>2026-04-25T13:48:17.892Z</time></trkpt><trkpt lat="45.89482950152581" lon="12.230571530828083"><ele>153.0</ele><time>2026-04-25T13:48:19.892Z</time></trkpt><trkpt lat="45.894894979580044" lon="12.230599615556478"><ele>153.0</ele><time>2026-04-25T13:48:21.892Z</time></trkpt><trkpt lat="45.89496326714349" lon="12.230630558367357"><ele>153.0</ele><time>2026-04-25T13:48:23.892Z</time></trkpt><trkpt lat="45.895041612427015" lon="12.230681486680893"><ele>153.0</ele><time>2026-04-25T13:48:26.892Z</time></trkpt><trkpt lat="45.895087136674434" lon="12.230749638911934"><ele>153.0</ele><time>2026-04-25T13:48:28.892Z</time></trkpt><trkpt lat="45.89512818032119" lon="12.230842580021447"><ele>153.0</ele><time>2026-04-25T13:48:32.892Z</time></trkpt><trkpt lat="45.89513795787266" lon="12.2309424569095"><ele>153.0</ele><time>2026-04-25T13:48:35.892Z</time></trkpt><trkpt lat="45.89513284087568" lon="12.231064766770743"><ele>155.28571428571428</ele><time>2026-04-25T13:48:39.893Z</time></trkpt><trkpt lat="45.895128034970845" lon="12.231156815971147"><ele>157.57142857142858</ele><time>2026-04-25T13:48:42.893Z</time></trkpt><trkpt lat="45.895124437313285" lon="12.231273175964455"><ele>159.85714285714286</ele><time>2026-04-25T13:48:45.892Z</time></trkpt><trkpt lat="45.895121657399315" lon="12.231392015283678"><ele>162.14285714285714</ele><time>2026-04-25T13:48:48.893Z</time></trkpt><trkpt lat="45.89512819372798" lon="12.231502256865328"><ele>164.42857142857142</ele><time>2026-04-25T13:48:51.892Z</time></trkpt><trkpt lat="45.895135022691306" lon="12.231602448442228"><ele>166.71428571428572</ele><time>2026-04-25T13:48:54.892Z</time></trkpt><trkpt lat="45.89514969586414" lon="12.231692448346422"><ele>169.0</ele><time>2026-04-25T13:48:57.892Z</time></trkpt><trkpt lat="45.89517753085244" lon="12.231806796837027"><ele>169.39999999999998</ele><time>2026-04-25T13:49:00.892Z</time></trkpt><trkpt lat="45.89522425697921" lon="12.23194090591791"><ele>169.8</ele><time>2026-04-25T13:49:02.892Z</time></trkpt><trkpt lat="45.89527097258594" lon="12.232054444746906"><ele>170.2</ele><time>2026-04-25T13:49:04.892Z</time></trkpt><trkpt lat="45.89532837235881" lon="12.232157626384776"><ele>170.60000000000002</ele><time>2026-04-25T13:49:06.892Z</time></trkpt><trkpt lat="45.895393413118576" lon="12.232249938019622"><ele>171.0</ele><time>2026-04-25T13:49:08.892Z</time></trkpt><trkpt lat="45.89544313530051" lon="12.232337277904438"><ele>171.0</ele><time>2026-04-25T13:49:10.892Z</time></trkpt><trkpt lat="45.895507859069035" lon="12.23240862160776"><ele>171.0</ele><time>2026-04-25T13:49:12.892Z</time></trkpt><trkpt lat="45.8955807719612" lon="12.232499371169547"><ele>171.0</ele><time>2026-04-25T13:49:14.892Z</time></trkpt><trkpt lat="45.89563994006602" lon="12.232583766654628"><ele>171.0</ele><time>2026-04-25T13:49:16.892Z</time></trkpt><trkpt lat="45.89569465804181" lon="12.232658314159382"><ele>171.0</ele><time>2026-04-25T13:49:18.892Z</time></trkpt><trkpt lat="45.89575614064411" lon="12.232734920070879"><ele>171.0</ele><time>2026-04-25T13:49:20.892Z</time></trkpt><trkpt lat="45.895825453326765" lon="12.232809974146697"><ele>171.0</ele><time>2026-04-25T13:49:22.892Z</time></trkpt><trkpt lat="45.89589644960607" lon="12.23288785034135"><ele>171.0</ele><time>2026-04-25T13:49:24.892Z</time></trkpt><trkpt lat="45.895972522437134" lon="12.23296990245252"><ele>171.0</ele><time>2026-04-25T13:49:26.892Z</time></trkpt><trkpt lat="45.896048419559975" lon="12.233048589067593"><ele>171.0</ele><time>2026-04-25T13:49:28.891Z</time></trkpt><trkpt lat="45.8961228685636" lon="12.233131413957313"><ele>171.0</ele><time>2026-04-25T13:49:30.891Z</time></trkpt><trkpt lat="45.89619650336827" lon="12.233223383090785"><ele>171.0</ele><time>2026-04-25T13:49:32.891Z</time></trkpt><trkpt lat="45.89627582933663" lon="12.233320481394415"><ele>171.0</ele><time>2026-04-25T13:49:34.891Z</time></trkpt><trkpt lat="45.896361432862655" lon="12.233416426032145"><ele>171.0</ele><time>2026-04-25T13:49:36.891Z</time></trkpt><trkpt lat="45.89642655366327" lon="12.233499205887492"><ele>171.0</ele><time>2026-04-25T13:49:38.891Z</time></trkpt><trkpt lat="45.89649573313956" lon="12.233595412439566"><ele>171.0</ele><time>2026-04-25T13:49:40.891Z</time></trkpt><trkpt lat="45.896557847958476" lon="12.233677741844739"><ele>171.0</ele><time>2026-04-25T13:49:42.891Z</time></trkpt><trkpt lat="45.89662207007136" lon="12.233763106996467"><ele>171.0</ele><time>2026-04-25T13:49:44.891Z</time></trkpt><trkpt lat="45.89668441587682" lon="12.233852429738437"><ele>171.0</ele><time>2026-04-25T13:49:46.891Z</time></trkpt><trkpt lat="45.89674371456387" lon="12.233927031428893"><ele>171.0</ele><time>2026-04-25T13:49:48.891Z</time></trkpt><trkpt lat="45.89680053503424" lon="12.234002693116615"><ele>171.0</ele><time>2026-04-25T13:49:50.891Z</time></trkpt><trkpt lat="45.89685630755794" lon="12.23406814453637"><ele>171.0</ele><time>2026-04-25T13:49:52.891Z</time></trkpt><trkpt lat="45.89692306204078" lon="12.234154432380281"><ele>172.16666666666666</ele><time>2026-04-25T13:49:55.891Z</time></trkpt><trkpt lat="45.896985604032686" lon="12.234233876696546"><ele>173.33333333333334</ele><time>2026-04-25T13:49:58.891Z</time></trkpt><trkpt lat="45.89702976647706" lon="12.234331624048611"><ele>174.5</ele><time>2026-04-25T13:50:01.891Z</time></trkpt><trkpt lat="45.89706864933862" lon="12.234412691784613"><ele>175.66666666666669</ele><time>2026-04-25T13:50:04.891Z</time></trkpt><trkpt lat="45.89711757997365" lon="12.234480121739903"><ele>176.83333333333334</ele><time>2026-04-25T13:50:07.891Z</time></trkpt><trkpt lat="45.897161664121796" lon="12.234548248755015"><ele>178.0</ele><time>2026-04-25T13:50:10.891Z</time></trkpt><trkpt lat="45.89722030070614" lon="12.234638495372455"><ele>178.0</ele><time>2026-04-25T13:50:13.89Z</time></trkpt><trkpt lat="45.89727249217076" lon="12.234731465077132"><ele>178.0</ele><time>2026-04-25T13:50:15.89Z</time></trkpt><trkpt lat="45.897356860200524" lon="12.234826661403638"><ele>178.0</ele><time>2026-04-25T13:50:17.89Z</time></trkpt><trkpt lat="45.89742598521052" lon="12.234908080103454"><ele>178.0</ele><time>2026-04-25T13:50:19.89Z</time></trkpt><trkpt lat="45.89751172621257" lon="12.234972382991279"><ele>178.0</ele><time>2026-04-25T13:50:21.89Z</time></trkpt><trkpt lat="45.89758488146917" lon="12.235067691459859"><ele>178.16666666666669</ele><time>2026-04-25T13:50:23.89Z</time></trkpt><trkpt lat="45.89764143808082" lon="12.235186824995962"><ele>178.33333333333334</ele><time>2026-04-25T13:50:25.89Z</time></trkpt><trkpt lat="45.89764361839827" lon="12.235277504010167"><ele>178.5</ele><time>2026-04-25T13:50:27.89Z</time></trkpt><trkpt lat="45.897592105939395" lon="12.23537434013348"><ele>178.66666666666666</ele><time>2026-04-25T13:50:30.89Z</time></trkpt><trkpt lat="45.89754529367522" lon="12.235455739800143"><ele>178.83333333333331</ele><time>2026-04-25T13:50:33.89Z</time></trkpt><trkpt lat="45.897477432967854" lon="12.235536197565834"><ele>179.0</ele><time>2026-04-25T13:50:35.89Z</time></trkpt><trkpt lat="45.89742033517995" lon="12.23560169615538"><ele>179.0</ele><time>2026-04-25T13:50:37.89Z</time></trkpt><trkpt lat="45.89734938482271" lon="12.235689802677674"><ele>179.0</ele><time>2026-04-25T13:50:39.89Z</time></trkpt><trkpt lat="45.897279661678205" lon="12.235840481485681"><ele>179.0</ele><time>2026-04-25T13:50:41.89Z</time></trkpt><trkpt lat="45.89720642736795" lon="12.235923427634658"><ele>179.0</ele><time>2026-04-25T13:50:42.89Z</time></trkpt><trkpt lat="45.897144493272066" lon="12.235992107841662"><ele>179.0</ele><time>2026-04-25T13:50:43.89Z</time></trkpt><trkpt lat="45.89708631731124" lon="12.236049930385018"><ele>179.0</ele><time>2026-04-25T13:50:44.89Z</time></trkpt><trkpt lat="45.897014065150884" lon="12.23610716586382"><ele>179.0</ele><time>2026-04-25T13:50:45.89Z</time></trkpt><trkpt lat="45.89691233411773" lon="12.236208691569338"><ele>179.0</ele><time>2026-04-25T13:50:47.891Z</time></trkpt><trkpt lat="45.89685565538556" lon="12.236272870164312"><ele>179.0</ele><time>2026-04-25T13:50:48.891Z</time></trkpt><trkpt lat="45.89679176261132" lon="12.236339810984589"><ele>179.0</ele><time>2026-04-25T13:50:49.89Z</time></trkpt><trkpt lat="45.89672249622019" lon="12.236397107416845"><ele>179.0</ele><time>2026-04-25T13:50:50.891Z</time></trkpt><trkpt lat="45.89666030298775" lon="12.236473005055776"><ele>178.83333333333331</ele><time>2026-04-25T13:50:51.891Z</time></trkpt><trkpt lat="45.896594207994255" lon="12.236542943554465"><ele>178.66666666666666</ele><time>2026-04-25T13:50:52.89Z</time></trkpt><trkpt lat="45.89651873079391" lon="12.2366022462839"><ele>178.5</ele><time>2026-04-25T13:50:53.89Z</time></trkpt><trkpt lat="45.896450253063264" lon="12.236659973313076"><ele>178.33333333333334</ele><time>2026-04-25T13:50:54.89Z</time></trkpt><trkpt lat="45.896384462565564" lon="12.236726295060889"><ele>178.16666666666669</ele><time>2026-04-25T13:50:55.89Z</time></trkpt><trkpt lat="45.896321009705495" lon="12.236791163947386"><ele>178.0</ele><time>2026-04-25T13:50:56.89Z</time></trkpt><trkpt lat="45.8962587850626" lon="12.236852151704394"><ele>178.0</ele><time>2026-04-25T13:50:57.89Z</time></trkpt><trkpt lat="45.89619914121557" lon="12.236905083658831"><ele>178.0</ele><time>2026-04-25T13:50:58.89Z</time></trkpt><trkpt lat="45.896137094079975" lon="12.236963902746517"><ele>178.0</ele><time>2026-04-25T13:50:59.89Z</time></trkpt><trkpt lat="45.89607127496304" lon="12.237022593042747"><ele>178.0</ele><time>2026-04-25T13:51:00.89Z</time></trkpt><trkpt lat="45.89600228736333" lon="12.23707942853428"><ele>178.0</ele><time>2026-04-25T13:51:01.89Z</time></trkpt><trkpt lat="45.8959393472353" lon="12.23713397044333"><ele>178.0</ele><time>2026-04-25T13:51:02.89Z</time></trkpt><trkpt lat="45.89587195167464" lon="12.237200080549576"><ele>177.5</ele><time>2026-04-25T13:51:03.89Z</time></trkpt><trkpt lat="45.89580467536875" lon="12.237262504185942"><ele>177.0</ele><time>2026-04-25T13:51:04.89Z</time></trkpt><trkpt lat="45.89573165343177" lon="12.23733287167951"><ele>176.5</ele><time>2026-04-25T13:51:05.89Z</time></trkpt><trkpt lat="45.895665510782266" lon="12.237389124867684"><ele>176.0</ele><time>2026-04-25T13:51:06.889Z</time></trkpt><trkpt lat="45.89560500875452" lon="12.237452119709346"><ele>175.5</ele><time>2026-04-25T13:51:07.889Z</time></trkpt><trkpt lat="45.89554251846023" lon="12.237512338247551"><ele>175.0</ele><time>2026-04-25T13:51:08.889Z</time></trkpt><trkpt lat="45.89547525187749" lon="12.237585356523152"><ele>175.0</ele><time>2026-04-25T13:51:09.889Z</time></trkpt><trkpt lat="45.895414652980854" lon="12.237644874916505"><ele>175.0</ele><time>2026-04-25T13:51:10.889Z</time></trkpt><trkpt lat="45.895351963402256" lon="12.237689359902111"><ele>175.0</ele><time>2026-04-25T13:51:11.889Z</time></trkpt><trkpt lat="45.895285117931735" lon="12.237745953153818"><ele>175.0</ele><time>2026-04-25T13:51:12.889Z</time></trkpt><trkpt lat="45.89522418549151" lon="12.237809378919792"><ele>175.0</ele><time>2026-04-25T13:51:13.889Z</time></trkpt><trkpt lat="45.89515982361899" lon="12.237860411138058"><ele>175.0</ele><time>2026-04-25T13:51:14.889Z</time></trkpt><trkpt lat="45.8950959950616" lon="12.237922474147233"><ele>175.0</ele><time>2026-04-25T13:51:15.889Z</time></trkpt><trkpt lat="45.89503825124277" lon="12.237992226705087"><ele>174.5</ele><time>2026-04-25T13:51:16.889Z</time></trkpt><trkpt lat="45.89498123897331" lon="12.238070210250966"><ele>174.0</ele><time>2026-04-25T13:51:17.889Z</time></trkpt><trkpt lat="45.89492880112381" lon="12.238144196847893"><ele>173.5</ele><time>2026-04-25T13:51:18.889Z</time></trkpt><trkpt lat="45.89487489652521" lon="12.238230092806809"><ele>173.0</ele><time>2026-04-25T13:51:19.889Z</time></trkpt><trkpt lat="45.89482693374567" lon="12.23831111181081"><ele>172.5</ele><time>2026-04-25T13:51:20.889Z</time></trkpt><trkpt lat="45.89477616419273" lon="12.238401064953324"><ele>172.0</ele><time>2026-04-25T13:51:21.889Z</time></trkpt><trkpt lat="45.894728755959285" lon="12.238488655622135"><ele>172.0</ele><time>2026-04-25T13:51:22.889Z</time></trkpt><trkpt lat="45.894678733800504" lon="12.23857323956072"><ele>172.0</ele><time>2026-04-25T13:51:23.889Z</time></trkpt><trkpt lat="45.89463052394576" lon="12.23865017224738"><ele>172.0</ele><time>2026-04-25T13:51:24.889Z</time></trkpt><trkpt lat="45.89457763296569" lon="12.238733643288496"><ele>172.0</ele><time>2026-04-25T13:51:25.889Z</time></trkpt><trkpt lat="45.89452553950184" lon="12.238817396019108"><ele>172.0</ele><time>2026-04-25T13:51:26.889Z</time></trkpt><trkpt lat="45.894466247385665" lon="12.238914534773931"><ele>172.0</ele><time>2026-04-25T13:51:27.889Z</time></trkpt><trkpt lat="45.89441038254978" lon="12.23899785242056"><ele>171.66666666666669</ele><time>2026-04-25T13:51:28.889Z</time></trkpt><trkpt lat="45.89435055224286" lon="12.23908380298392"><ele>171.33333333333334</ele><time>2026-04-25T13:51:29.889Z</time></trkpt><trkpt lat="45.894285787069045" lon="12.239158423925907"><ele>171.0</ele><time>2026-04-25T13:51:30.889Z</time></trkpt><trkpt lat="45.89422098509538" lon="12.239232632238947"><ele>170.66666666666666</ele><time>2026-04-25T13:51:31.889Z</time></trkpt><trkpt lat="45.89415034906752" lon="12.239309149834222"><ele>170.33333333333331</ele><time>2026-04-25T13:51:32.889Z</time></trkpt><trkpt lat="45.89408220264823" lon="12.239383071349984"><ele>170.0</ele><time>2026-04-25T13:51:33.889Z</time></trkpt><trkpt lat="45.894012447348445" lon="12.239454692347108"><ele>169.83333333333331</ele><time>2026-04-25T13:51:34.889Z</time></trkpt><trkpt lat="45.893937975778634" lon="12.23951737307834"><ele>169.66666666666666</ele><time>2026-04-25T13:51:35.889Z</time></trkpt><trkpt lat="45.893864471369454" lon="12.239581927200847"><ele>169.5</ele><time>2026-04-25T13:51:36.889Z</time></trkpt><trkpt lat="45.89379317542402" lon="12.23965439630603"><ele>169.33333333333334</ele><time>2026-04-25T13:51:37.889Z</time></trkpt><trkpt lat="45.893724685545" lon="12.239725546080901"><ele>169.16666666666669</ele><time>2026-04-25T13:51:38.889Z</time></trkpt><trkpt lat="45.89365255089373" lon="12.23978349141859"><ele>169.0</ele><time>2026-04-25T13:51:39.889Z</time></trkpt><trkpt lat="45.893579689145525" lon="12.239848322416035"><ele>168.33333333333334</ele><time>2026-04-25T13:51:40.889Z</time></trkpt><trkpt lat="45.89350435257461" lon="12.23991728907338"><ele>167.66666666666669</ele><time>2026-04-25T13:51:41.889Z</time></trkpt><trkpt lat="45.893429812513475" lon="12.239986618668311"><ele>167.0</ele><time>2026-04-25T13:51:42.889Z</time></trkpt><trkpt lat="45.89335738551201" lon="12.240059057013191"><ele>166.33333333333334</ele><time>2026-04-25T13:51:43.889Z</time></trkpt><trkpt lat="45.893286320760964" lon="12.240127146037405"><ele>165.66666666666666</ele><time>2026-04-25T13:51:44.889Z</time></trkpt><trkpt lat="45.893213813661674" lon="12.240194647318505"><ele>165.0</ele><time>2026-04-25T13:51:45.889Z</time></trkpt><trkpt lat="45.89314132281369" lon="12.240261887250158"><ele>165.0</ele><time>2026-04-25T13:51:46.889Z</time></trkpt><trkpt lat="45.893068892053044" lon="12.24032743686942"><ele>165.0</ele><time>2026-04-25T13:51:47.889Z</time></trkpt><trkpt lat="45.892996540496284" lon="12.240397779583454"><ele>165.0</ele><time>2026-04-25T13:51:48.889Z</time></trkpt><trkpt lat="45.89292480150065" lon="12.24046146675306"><ele>165.0</ele><time>2026-04-25T13:51:49.889Z</time></trkpt><trkpt lat="45.892852539846054" lon="12.24052655719999"><ele>165.0</ele><time>2026-04-25T13:51:50.889Z</time></trkpt><trkpt lat="45.89278274899405" lon="12.240587922050759"><ele>165.0</ele><time>2026-04-25T13:51:51.889Z</time></trkpt><trkpt lat="45.89271446413903" lon="12.24065192677179"><ele>165.0</ele><time>2026-04-25T13:51:52.888Z</time></trkpt><trkpt lat="45.89265104233434" lon="12.240719839692968"><ele>165.0</ele><time>2026-04-25T13:51:53.888Z</time></trkpt><trkpt lat="45.892581472834834" lon="12.240786534115795"><ele>165.0</ele><time>2026-04-25T13:51:54.888Z</time></trkpt><trkpt lat="45.8925090871416" lon="12.240852362906145"><ele>165.0</ele><time>2026-04-25T13:51:55.888Z</time></trkpt><trkpt lat="45.89244127847217" lon="12.240911324654277"><ele>165.0</ele><time>2026-04-25T13:51:56.888Z</time></trkpt><trkpt lat="45.892369716029265" lon="12.240981205954089"><ele>165.0</ele><time>2026-04-25T13:51:57.888Z</time></trkpt><trkpt lat="45.89229852035347" lon="12.241044668344898"><ele>164.66666666666666</ele><time>2026-04-25T13:51:58.888Z</time></trkpt><trkpt lat="45.89222481965948" lon="12.241110333868225"><ele>164.33333333333334</ele><time>2026-04-25T13:51:59.888Z</time></trkpt><trkpt lat="45.8921590074074" lon="12.241174452891071"><ele>164.0</ele><time>2026-04-25T13:52:00.888Z</time></trkpt><trkpt lat="45.8920935434169" lon="12.241240173849501"><ele>163.66666666666669</ele><time>2026-04-25T13:52:01.888Z</time></trkpt><trkpt lat="45.8920260793452" lon="12.241306977036581"><ele>163.33333333333334</ele><time>2026-04-25T13:52:02.888Z</time></trkpt><trkpt lat="45.89196453626962" lon="12.241355925735311"><ele>163.0</ele><time>2026-04-25T13:52:03.888Z</time></trkpt><trkpt lat="45.891899802214" lon="12.24140912935671"><ele>163.14285714285714</ele><time>2026-04-25T13:52:04.888Z</time></trkpt><trkpt lat="45.89183537403308" lon="12.241469286188268"><ele>163.28571428571428</ele><time>2026-04-25T13:52:05.888Z</time></trkpt><trkpt lat="45.89177162418254" lon="12.24152586512061"><ele>163.42857142857142</ele><time>2026-04-25T13:52:06.888Z</time></trkpt><trkpt lat="45.89170790542926" lon="12.241587157476507"><ele>163.57142857142856</ele><time>2026-04-25T13:52:07.888Z</time></trkpt><trkpt lat="45.89164495016335" lon="12.241646955756378"><ele>163.71428571428572</ele><time>2026-04-25T13:52:08.888Z</time></trkpt><trkpt lat="45.89158865882151" lon="12.241701718380236"><ele>163.85714285714283</ele><time>2026-04-25T13:52:09.888Z</time></trkpt><trkpt lat="45.891528343148074" lon="12.241755211404879"><ele>164.0</ele><time>2026-04-25T13:52:10.888Z</time></trkpt><trkpt lat="45.891472028756354" lon="12.241797193458156"><ele>164.0</ele><time>2026-04-25T13:52:11.888Z</time></trkpt><trkpt lat="45.89141871758811" lon="12.241855195320337"><ele>164.0</ele><time>2026-04-25T13:52:12.888Z</time></trkpt><trkpt lat="45.891319274380024" lon="12.241941424437302"><ele>164.0</ele><time>2026-04-25T13:52:14.888Z</time></trkpt><trkpt lat="45.89126711115777" lon="12.242002812667167"><ele>164.0</ele><time>2026-04-25T13:52:15.888Z</time></trkpt><trkpt lat="45.89121558820669" lon="12.242058682598316"><ele>164.0</ele><time>2026-04-25T13:52:16.888Z</time></trkpt><trkpt lat="45.89112283860497" lon="12.242142128177017"><ele>164.0</ele><time>2026-04-25T13:52:18.888Z</time></trkpt><trkpt lat="45.89102037742284" lon="12.242230369559065"><ele>163.79999999999998</ele><time>2026-04-25T13:52:20.888Z</time></trkpt><trkpt lat="45.89092888952682" lon="12.242333605837654"><ele>163.6</ele><time>2026-04-25T13:52:22.888Z</time></trkpt><trkpt lat="45.89084483915483" lon="12.242429596252672"><ele>163.4</ele><time>2026-04-25T13:52:24.888Z</time></trkpt><trkpt lat="45.89076415619676" lon="12.242542578195453"><ele>163.2</ele><time>2026-04-25T13:52:26.888Z</time></trkpt><trkpt lat="45.89068425929293" lon="12.242644718185822"><ele>163.0</ele><time>2026-04-25T13:52:28.888Z</time></trkpt><trkpt lat="45.890590851874194" lon="12.242780719312186"><ele>163.0</ele><time>2026-04-25T13:52:30.888Z</time></trkpt><trkpt lat="45.89050662192456" lon="12.242899883959845"><ele>163.0</ele><time>2026-04-25T13:52:32.888Z</time></trkpt><trkpt lat="45.89045803635226" lon="12.242963796259096"><ele>163.0</ele><time>2026-04-25T13:52:33.888Z</time></trkpt><trkpt lat="45.890405966786034" lon="12.243023601004674"><ele>163.0</ele><time>2026-04-25T13:52:34.888Z</time></trkpt><trkpt lat="45.89035247490166" lon="12.243073504216305"><ele>163.0</ele><time>2026-04-25T13:52:35.888Z</time></trkpt><trkpt lat="45.89029409403744" lon="12.243134520695262"><ele>163.0</ele><time>2026-04-25T13:52:36.888Z</time></trkpt><trkpt lat="45.89023051354182" lon="12.243198163701521"><ele>162.57142857142858</ele><time>2026-04-25T13:52:37.888Z</time></trkpt><trkpt lat="45.8901731891679" lon="12.243258943794944"><ele>162.14285714285714</ele><time>2026-04-25T13:52:38.887Z</time></trkpt><trkpt lat="45.89011597703408" lon="12.243317841684247"><ele>161.71428571428572</ele><time>2026-04-25T13:52:39.887Z</time></trkpt><trkpt lat="45.890054983184605" lon="12.243377485469075"><ele>161.28571428571428</ele><time>2026-04-25T13:52:40.887Z</time></trkpt><trkpt lat="45.88998813838578" lon="12.243439255248372"><ele>160.85714285714286</ele><time>2026-04-25T13:52:41.887Z</time></trkpt><trkpt lat="45.889931956146356" lon="12.243486248257486"><ele>160.42857142857142</ele><time>2026-04-25T13:52:42.887Z</time></trkpt><trkpt lat="45.88986612929572" lon="12.24354706948208"><ele>160.0</ele><time>2026-04-25T13:52:43.887Z</time></trkpt><trkpt lat="45.88980647296408" lon="12.243609549503606"><ele>160.0</ele><time>2026-04-25T13:52:44.887Z</time></trkpt><trkpt lat="45.88974320640771" lon="12.24367358610724"><ele>160.0</ele><time>2026-04-25T13:52:45.887Z</time></trkpt><trkpt lat="45.88968507413453" lon="12.243731299647497"><ele>160.0</ele><time>2026-04-25T13:52:46.887Z</time></trkpt><trkpt lat="45.8896240753917" lon="12.243788993877134"><ele>160.0</ele><time>2026-04-25T13:52:47.887Z</time></trkpt><trkpt lat="45.889558968493006" lon="12.24384848732765"><ele>160.0</ele><time>2026-04-25T13:52:48.887Z</time></trkpt><trkpt lat="45.88949415209629" lon="12.243899416874628"><ele>160.0</ele><time>2026-04-25T13:52:49.888Z</time></trkpt><trkpt lat="45.88942910493587" lon="12.243948411845764"><ele>160.0</ele><time>2026-04-25T13:52:50.888Z</time></trkpt><trkpt lat="45.889365241035264" lon="12.243997350758262"><ele>159.2</ele><time>2026-04-25T13:52:51.888Z</time></trkpt><trkpt lat="45.88930297429261" lon="12.244041464342274"><ele>158.4</ele><time>2026-04-25T13:52:52.888Z</time></trkpt><trkpt lat="45.8891984545578" lon="12.24411959312347"><ele>157.6</ele><time>2026-04-25T13:52:54.888Z</time></trkpt><trkpt lat="45.88907315314323" lon="12.244157804782164"><ele>156.8</ele><time>2026-04-25T13:52:56.888Z</time></trkpt><trkpt lat="45.88896274754395" lon="12.244212637063697"><ele>156.0</ele><time>2026-04-25T13:52:58.888Z</time></trkpt><trkpt lat="45.88886786525478" lon="12.24428276833124"><ele>156.0</ele><time>2026-04-25T13:53:00.888Z</time></trkpt><trkpt lat="45.88882520554202" lon="12.244398545109243"><ele>156.0</ele><time>2026-04-25T13:53:02.888Z</time></trkpt><trkpt lat="45.88884052390183" lon="12.244548869371728"><ele>156.0</ele><time>2026-04-25T13:53:04.888Z</time></trkpt><trkpt lat="45.888837410887746" lon="12.244644340356976"><ele>156.0</ele><time>2026-04-25T13:53:05.888Z</time></trkpt><trkpt lat="45.88882005495593" lon="12.244758618473394"><ele>156.0</ele><time>2026-04-25T13:53:06.888Z</time></trkpt><trkpt lat="45.88879585196784" lon="12.24487149265727"><ele>156.0</ele><time>2026-04-25T13:53:07.888Z</time></trkpt><trkpt lat="45.8887726303678" lon="12.244972306977752"><ele>154.66666666666666</ele><time>2026-04-25T13:53:08.887Z</time></trkpt><trkpt lat="45.8887597823989" lon="12.245061956078738"><ele>153.33333333333334</ele><time>2026-04-25T13:53:09.887Z</time></trkpt><trkpt lat="45.8887668086629" lon="12.245170388996168"><ele>152.0</ele><time>2026-04-25T13:53:10.887Z</time></trkpt><trkpt lat="45.88878905223478" lon="12.245292952017087"><ele>150.66666666666669</ele><time>2026-04-25T13:53:11.887Z</time></trkpt><trkpt lat="45.88882363483686" lon="12.24541232636886"><ele>149.33333333333334</ele><time>2026-04-25T13:53:12.887Z</time></trkpt><trkpt lat="45.88885878828542" lon="12.24553108259581"><ele>148.0</ele><time>2026-04-25T13:53:13.887Z</time></trkpt><trkpt lat="45.88889475358742" lon="12.24565358749368"><ele>145.83333333333334</ele><time>2026-04-25T13:53:14.887Z</time></trkpt><trkpt lat="45.88892780995346" lon="12.245777654227815"><ele>143.66666666666669</ele><time>2026-04-25T13:53:15.887Z</time></trkpt><trkpt lat="45.88894963531176" lon="12.245886105987088"><ele>141.5</ele><time>2026-04-25T13:53:16.887Z</time></trkpt><trkpt lat="45.888974299327224" lon="12.245995352190665"><ele>139.33333333333334</ele><time>2026-04-25T13:53:17.887Z</time></trkpt><trkpt lat="45.88899927230976" lon="12.246108409890752"><ele>137.16666666666666</ele><time>2026-04-25T13:53:18.887Z</time></trkpt><trkpt lat="45.88901787954923" lon="12.246201934629356"><ele>135.0</ele><time>2026-04-25T13:53:19.887Z</time></trkpt><trkpt lat="45.889070831602844" lon="12.246350227647165"><ele>135.0</ele><time>2026-04-25T13:53:21.887Z</time></trkpt><trkpt lat="45.889102791470854" lon="12.246434747676409"><ele>135.0</ele><time>2026-04-25T13:53:22.887Z</time></trkpt><trkpt lat="45.889146153937716" lon="12.246581987684952"><ele>135.0</ele><time>2026-04-25T13:53:24.887Z</time></trkpt><trkpt lat="45.88913201985386" lon="12.246751074427387"><ele>135.0</ele><time>2026-04-25T13:53:26.887Z</time></trkpt><trkpt lat="45.889110285870586" lon="12.246839679674071"><ele>135.0</ele><time>2026-04-25T13:53:27.887Z</time></trkpt><trkpt lat="45.889073531353475" lon="12.246916987630875"><ele>135.0</ele><time>2026-04-25T13:53:28.887Z</time></trkpt><trkpt lat="45.88902703717689" lon="12.246979459941414"><ele>133.0</ele><time>2026-04-25T13:53:29.887Z</time></trkpt><trkpt lat="45.888972686782964" lon="12.247035271709448"><ele>131.0</ele><time>2026-04-25T13:53:30.887Z</time></trkpt><trkpt lat="45.88886553334108" lon="12.247121094893915"><ele>129.0</ele><time>2026-04-25T13:53:32.887Z</time></trkpt><trkpt lat="45.88876554143206" lon="12.247188596387575"><ele>127.0</ele><time>2026-04-25T13:53:34.887Z</time></trkpt><trkpt lat="45.88873437370518" lon="12.247321699621143"><ele>125.0</ele><time>2026-04-25T13:53:36.887Z</time></trkpt><trkpt lat="45.888798408602014" lon="12.247482883654397"><ele>123.57142857142857</ele><time>2026-04-25T13:53:38.887Z</time></trkpt><trkpt lat="45.888854642188306" lon="12.247551405983158"><ele>122.14285714285714</ele><time>2026-04-25T13:53:39.887Z</time></trkpt><trkpt lat="45.88890948447283" lon="12.247625458398206"><ele>120.71428571428571</ele><time>2026-04-25T13:53:40.887Z</time></trkpt><trkpt lat="45.88895238820004" lon="12.247703273415345"><ele>119.28571428571428</ele><time>2026-04-25T13:53:41.887Z</time></trkpt><trkpt lat="45.88898730901036" lon="12.247781827708163"><ele>117.85714285714286</ele><time>2026-04-25T13:53:42.887Z</time></trkpt><trkpt lat="45.88901296356943" lon="12.247866482242953"><ele>116.42857142857142</ele><time>2026-04-25T13:53:43.887Z</time></trkpt><trkpt lat="45.889033277641424" lon="12.247979001089616"><ele>114.99999999999999</ele><time>2026-04-25T13:53:44.887Z</time></trkpt><trkpt lat="45.88905297424564" lon="12.24809594639866"><ele>113.00000000000001</ele><time>2026-04-25T13:53:45.887Z</time></trkpt><trkpt lat="45.889076472272556" lon="12.248209517364277"><ele>111.0</ele><time>2026-04-25T13:53:46.887Z</time></trkpt><trkpt lat="45.88909305898115" lon="12.248308168758077"><ele>109.0</ele><time>2026-04-25T13:53:47.887Z</time></trkpt><trkpt lat="45.88909982123214" lon="12.248405796483313"><ele>107.0</ele><time>2026-04-25T13:53:48.887Z</time></trkpt><trkpt lat="45.88908361566653" lon="12.248558689089235"><ele>105.00000000000001</ele><time>2026-04-25T13:53:50.887Z</time></trkpt><trkpt lat="45.8890190873109" lon="12.248671052206628"><ele>103.0</ele><time>2026-04-25T13:53:52.887Z</time></trkpt><trkpt lat="45.88898081200748" lon="12.248762313153671"><ele>103.0</ele><time>2026-04-25T13:53:54.886Z</time></trkpt><trkpt lat="45.8889723773869" lon="12.248896346200512"><ele>103.0</ele><time>2026-04-25T13:53:56.886Z</time></trkpt><trkpt lat="45.88895822192093" lon="12.249031123663121"><ele>103.0</ele><time>2026-04-25T13:53:58.886Z</time></trkpt><trkpt lat="45.888934302989576" lon="12.249130161057774"><ele>103.0</ele><time>2026-04-25T13:54:00.886Z</time></trkpt><trkpt lat="45.88889402565024" lon="12.249253542039767"><ele>103.0</ele><time>2026-04-25T13:54:02.886Z</time></trkpt><trkpt lat="45.888857104087414" lon="12.249434608333274"><ele>101.33333333333334</ele><time>2026-04-25T13:54:04.886Z</time></trkpt><trkpt lat="45.888834688334086" lon="12.249521489766792"><ele>99.66666666666667</ele><time>2026-04-25T13:54:05.886Z</time></trkpt><trkpt lat="45.888797045325205" lon="12.249601352167428"><ele>98.0</ele><time>2026-04-25T13:54:06.886Z</time></trkpt><trkpt lat="45.888733543099214" lon="12.249706956601303"><ele>96.33333333333334</ele><time>2026-04-25T13:54:08.886Z</time></trkpt><trkpt lat="45.888660656645804" lon="12.24975103684109"><ele>94.66666666666667</ele><time>2026-04-25T13:54:10.886Z</time></trkpt><trkpt lat="45.88860008290548" lon="12.249808229043946"><ele>93.0</ele><time>2026-04-25T13:54:12.886Z</time></trkpt><trkpt lat="45.88861706537037" lon="12.24990946984236"><ele>92.16666666666667</ele><time>2026-04-25T13:54:14.886Z</time></trkpt><trkpt lat="45.888693894358234" lon="12.250005427660147"><ele>91.33333333333333</ele><time>2026-04-25T13:54:16.886Z</time></trkpt><trkpt lat="45.88878644789954" lon="12.25010815759788"><ele>90.5</ele><time>2026-04-25T13:54:18.886Z</time></trkpt><trkpt lat="45.888831309703576" lon="12.250174454597362"><ele>89.66666666666666</ele><time>2026-04-25T13:54:19.886Z</time></trkpt><trkpt lat="45.88887409543474" lon="12.250242878678629"><ele>88.83333333333333</ele><time>2026-04-25T13:54:20.886Z</time></trkpt><trkpt lat="45.88891821269883" lon="12.250312865085492"><ele>88.0</ele><time>2026-04-25T13:54:21.886Z</time></trkpt><trkpt lat="45.88896449502624" lon="12.250382353208424"><ele>88.0</ele><time>2026-04-25T13:54:22.886Z</time></trkpt><trkpt lat="45.88901086793215" lon="12.250449070699007"><ele>88.0</ele><time>2026-04-25T13:54:23.886Z</time></trkpt><trkpt lat="45.889077212236366" lon="12.250579894018369"><ele>88.0</ele><time>2026-04-25T13:54:25.886Z</time></trkpt><trkpt lat="45.88908051817471" lon="12.25071866197363"><ele>88.0</ele><time>2026-04-25T13:54:27.886Z</time></trkpt><trkpt lat="45.88903129339935" lon="12.25085044791313"><ele>88.0</ele><time>2026-04-25T13:54:29.886Z</time></trkpt><trkpt lat="45.88895735214374" lon="12.250970241783724"><ele>87.60000000000001</ele><time>2026-04-25T13:54:31.886Z</time></trkpt><trkpt lat="45.88888275580777" lon="12.251102309303821"><ele>87.2</ele><time>2026-04-25T13:54:33.886Z</time></trkpt><trkpt lat="45.88882205988715" lon="12.251263394602343"><ele>86.8</ele><time>2026-04-25T13:54:35.886Z</time></trkpt><trkpt lat="45.88875572388429" lon="12.251421198725835"><ele>86.4</ele><time>2026-04-25T13:54:37.886Z</time></trkpt><trkpt lat="45.8887149443593" lon="12.251494345760094"><ele>86.0</ele><time>2026-04-25T13:54:38.886Z</time></trkpt><trkpt lat="45.88862045964313" lon="12.251611694513429"><ele>86.28571428571429</ele><time>2026-04-25T13:54:40.885Z</time></trkpt><trkpt lat="45.88856164787496" lon="12.251671527895576"><ele>86.57142857142857</ele><time>2026-04-25T13:54:41.885Z</time></trkpt><trkpt lat="45.88850362822801" lon="12.2517114460056"><ele>86.85714285714286</ele><time>2026-04-25T13:54:42.885Z</time></trkpt><trkpt lat="45.888444065854486" lon="12.251747610079164"><ele>87.14285714285714</ele><time>2026-04-25T13:54:43.885Z</time></trkpt><trkpt lat="45.888378694376776" lon="12.251773925653962"><ele>87.42857142857143</ele><time>2026-04-25T13:54:44.885Z</time></trkpt><trkpt lat="45.88831407249485" lon="12.251790711938563"><ele>87.71428571428572</ele><time>2026-04-25T13:54:45.885Z</time></trkpt><trkpt lat="45.888248777706316" lon="12.251804201736732"><ele>88.0</ele><time>2026-04-25T13:54:46.885Z</time></trkpt><trkpt lat="45.88818433634217" lon="12.251813480084948"><ele>88.0</ele><time>2026-04-25T13:54:47.885Z</time></trkpt><trkpt lat="45.888122360334094" lon="12.251833689823355"><ele>88.0</ele><time>2026-04-25T13:54:48.885Z</time></trkpt><trkpt lat="45.88806075321707" lon="12.25186344012464"><ele>88.0</ele><time>2026-04-25T13:54:49.885Z</time></trkpt><trkpt lat="45.887948170288425" lon="12.251919697286759"><ele>88.0</ele><time>2026-04-25T13:54:51.885Z</time></trkpt><trkpt lat="45.88785432613554" lon="12.252017869646062"><ele>88.0</ele><time>2026-04-25T13:54:53.885Z</time></trkpt><trkpt lat="45.88779107195322" lon="12.252151628708358"><ele>88.0</ele><time>2026-04-25T13:54:55.886Z</time></trkpt><trkpt lat="45.88775948323658" lon="12.252232565468894"><ele>88.0</ele><time>2026-04-25T13:54:56.885Z</time></trkpt><trkpt lat="45.887709596736094" lon="12.252378959199243"><ele>88.0</ele><time>2026-04-25T13:54:58.885Z</time></trkpt><trkpt lat="45.887646809916625" lon="12.252515146855353"><ele>88.0</ele><time>2026-04-25T13:55:00.886Z</time></trkpt><trkpt lat="45.887549725263455" lon="12.252604158167372"><ele>88.0</ele><time>2026-04-25T13:55:02.886Z</time></trkpt><trkpt lat="45.88743320640559" lon="12.252644335276873"><ele>87.0</ele><time>2026-04-25T13:55:04.885Z</time></trkpt><trkpt lat="45.887316298681625" lon="12.252642191844531"><ele>86.0</ele><time>2026-04-25T13:55:06.886Z</time></trkpt><trkpt lat="45.887204099251065" lon="12.252606957413692"><ele>85.0</ele><time>2026-04-25T13:55:08.885Z</time></trkpt><trkpt lat="45.88711981820758" lon="12.252603551709974"><ele>84.0</ele><time>2026-04-25T13:55:10.885Z</time></trkpt><trkpt lat="45.88707085157159" lon="12.252673974549468"><ele>83.0</ele><time>2026-04-25T13:55:12.885Z</time></trkpt><trkpt lat="45.887074070741605" lon="12.252784253129239"><ele>83.0</ele><time>2026-04-25T13:55:15.885Z</time></trkpt><trkpt lat="45.88708680665884" lon="12.252890698668413"><ele>83.0</ele><time>2026-04-25T13:55:17.885Z</time></trkpt><trkpt lat="45.88709773053494" lon="12.252980836698669"><ele>83.0</ele><time>2026-04-25T13:55:19.885Z</time></trkpt><trkpt lat="45.88709068444169" lon="12.252871802406087"><ele>83.0</ele><time>2026-04-25T13:55:29.885Z</time></trkpt><trkpt lat="45.88719080936512" lon="12.252868122656222"><ele>83.0</ele><time>2026-04-25T13:55:32.885Z</time></trkpt><trkpt lat="45.887273435392935" lon="12.252898006914734"><ele>83.0</ele><time>2026-04-25T13:55:34.885Z</time></trkpt><trkpt lat="45.88735659284929" lon="12.252969654843907"><ele>83.0</ele><time>2026-04-25T13:55:36.885Z</time></trkpt><trkpt lat="45.887421750236" lon="12.253059376208666"><ele>83.0</ele><time>2026-04-25T13:55:38.885Z</time></trkpt><trkpt lat="45.88749244414727" lon="12.253136889059556"><ele>83.0</ele><time>2026-04-25T13:55:40.885Z</time></trkpt><trkpt lat="45.88756269626385" lon="12.253192847649382"><ele>83.0</ele><time>2026-04-25T13:55:42.885Z</time></trkpt><trkpt lat="45.887627367515265" lon="12.253246725492872"><ele>83.0</ele><time>2026-04-25T13:55:44.885Z</time></trkpt><trkpt lat="45.88769815254062" lon="12.253292781172604"><ele>83.0</ele><time>2026-04-25T13:55:46.884Z</time></trkpt><trkpt lat="45.887762327870995" lon="12.253344008170309"><ele>83.0</ele><time>2026-04-25T13:55:48.884Z</time></trkpt><trkpt lat="45.88781244912159" lon="12.253414894215435"><ele>83.0</ele><time>2026-04-25T13:55:51.884Z</time></trkpt><trkpt lat="45.887743416219784" lon="12.253334548114813"><ele>83.0</ele><time>2026-04-25T13:55:57.884Z</time></trkpt><trkpt lat="45.887668806365305" lon="12.253291470397478"><ele>83.0</ele><time>2026-04-25T13:56:00.884Z</time></trkpt><trkpt lat="45.88759637646213" lon="12.253217062046746"><ele>83.0</ele><time>2026-04-25T13:56:03.884Z</time></trkpt><trkpt lat="45.88751278484461" lon="12.253157960085309"><ele>83.0</ele><time>2026-04-25T13:56:06.884Z</time></trkpt><trkpt lat="45.887443695456774" lon="12.253100675737"><ele>83.0</ele><time>2026-04-25T13:56:09.884Z</time></trkpt><trkpt lat="45.88740229505164" lon="12.253018334188996"><ele>83.0</ele><time>2026-04-25T13:56:18.884Z</time></trkpt><trkpt lat="45.88734861498952" lon="12.252963156771516"><ele>83.0</ele><time>2026-04-25T13:56:21.884Z</time></trkpt><trkpt lat="45.88729347312516" lon="12.252905046465095"><ele>83.0</ele><time>2026-04-25T13:56:24.884Z</time></trkpt><trkpt lat="45.887224172107665" lon="12.252873952142863"><ele>83.0</ele><time>2026-04-25T13:56:27.884Z</time></trkpt><trkpt lat="45.88715474332469" lon="12.252882626014738"><ele>83.0</ele><time>2026-04-25T13:56:30.884Z</time></trkpt><trkpt lat="45.88708560489077" lon="12.252822948941368"><ele>83.0</ele><time>2026-04-25T13:56:34.883Z</time></trkpt><trkpt lat="45.887094873683836" lon="12.252716091957055"><ele>83.0</ele><time>2026-04-25T13:56:37.883Z</time></trkpt><trkpt lat="45.88713662587954" lon="12.252603060408063"><ele>83.0</ele><time>2026-04-25T13:56:40.883Z</time></trkpt><trkpt lat="45.887211309639596" lon="12.252581036933696"><ele>83.0</ele><time>2026-04-25T13:56:42.883Z</time></trkpt><trkpt lat="45.88728922953093" lon="12.252599476474769"><ele>83.0</ele><time>2026-04-25T13:56:44.883Z</time></trkpt><trkpt lat="45.88736655293404" lon="12.252637400097967"><ele>83.0</ele><time>2026-04-25T13:56:46.883Z</time></trkpt><trkpt lat="45.88744100387209" lon="12.252620488087237"><ele>83.0</ele><time>2026-04-25T13:56:50.883Z</time></trkpt><trkpt lat="45.88754893697583" lon="12.252577927423769"><ele>84.0</ele><time>2026-04-25T13:56:52.883Z</time></trkpt><trkpt lat="45.887616425902046" lon="12.25249961940394"><ele>85.0</ele><time>2026-04-25T13:56:54.883Z</time></trkpt><trkpt lat="45.887667518339306" lon="12.252393557960403"><ele>86.0</ele><time>2026-04-25T13:56:56.883Z</time></trkpt><trkpt lat="45.88770525602315" lon="12.252274701730226"><ele>87.0</ele><time>2026-04-25T13:56:58.883Z</time></trkpt><trkpt lat="45.887752401288616" lon="12.25215962695362"><ele>88.0</ele><time>2026-04-25T13:57:00.883Z</time></trkpt><trkpt lat="45.88781831420987" lon="12.252068061525678"><ele>88.0</ele><time>2026-04-25T13:57:02.884Z</time></trkpt><trkpt lat="45.88790263416936" lon="12.251983631212306"><ele>88.0</ele><time>2026-04-25T13:57:04.883Z</time></trkpt><trkpt lat="45.887989045457005" lon="12.251914756774786"><ele>88.0</ele><time>2026-04-25T13:57:06.883Z</time></trkpt><trkpt lat="45.88808545802805" lon="12.25187550129371"><ele>88.0</ele><time>2026-04-25T13:57:08.883Z</time></trkpt><trkpt lat="45.888180448225654" lon="12.25184867705404"><ele>88.0</ele><time>2026-04-25T13:57:10.883Z</time></trkpt><trkpt lat="45.888281230663715" lon="12.251821439005278"><ele>88.0</ele><time>2026-04-25T13:57:12.883Z</time></trkpt><trkpt lat="45.888377766089945" lon="12.251801475657212"><ele>88.0</ele><time>2026-04-25T13:57:14.883Z</time></trkpt><trkpt lat="45.8884736199673" lon="12.251760490618055"><ele>88.0</ele><time>2026-04-25T13:57:16.883Z</time></trkpt><trkpt lat="45.888560546975434" lon="12.251697907870971"><ele>88.0</ele><time>2026-04-25T13:57:18.883Z</time></trkpt><trkpt lat="45.88864030233095" lon="12.25162430300405"><ele>88.0</ele><time>2026-04-25T13:57:20.883Z</time></trkpt><trkpt lat="45.888706155409785" lon="12.251545717290648"><ele>87.66666666666666</ele><time>2026-04-25T13:57:22.883Z</time></trkpt><trkpt lat="45.88876840714191" lon="12.251456511002017"><ele>87.33333333333333</ele><time>2026-04-25T13:57:24.883Z</time></trkpt><trkpt lat="45.88881810424122" lon="12.251344065688825"><ele>87.0</ele><time>2026-04-25T13:57:26.883Z</time></trkpt><trkpt lat="45.88886304804232" lon="12.251231728362585"><ele>86.66666666666667</ele><time>2026-04-25T13:57:28.882Z</time></trkpt><trkpt lat="45.88890674681742" lon="12.251121468005534"><ele>86.33333333333334</ele><time>2026-04-25T13:57:30.882Z</time></trkpt><trkpt lat="45.888952254381586" lon="12.251030573980513"><ele>86.0</ele><time>2026-04-25T13:57:32.882Z</time></trkpt><trkpt lat="45.88899288702537" lon="12.250946437019653"><ele>86.0</ele><time>2026-04-25T13:57:34.882Z</time></trkpt><trkpt lat="45.88904448092797" lon="12.250874301811276"><ele>86.0</ele><time>2026-04-25T13:57:36.882Z</time></trkpt><trkpt lat="45.88911370674124" lon="12.250827489396084"><ele>86.0</ele><time>2026-04-25T13:57:38.882Z</time></trkpt><trkpt lat="45.889198072250345" lon="12.250737672158813"><ele>86.0</ele><time>2026-04-25T13:57:40.882Z</time></trkpt><trkpt lat="45.88929540792079" lon="12.250662781090034"><ele>86.0</ele><time>2026-04-25T13:57:42.882Z</time></trkpt><trkpt lat="45.88935933805988" lon="12.25062334287076"><ele>86.0</ele><time>2026-04-25T13:57:44.882Z</time></trkpt><trkpt lat="45.889332907964786" lon="12.250712405902906"><ele>86.0</ele><time>2026-04-25T13:57:50.882Z</time></trkpt><trkpt lat="45.88928085495797" lon="12.2507837331994"><ele>86.0</ele><time>2026-04-25T13:57:52.882Z</time></trkpt><trkpt lat="45.8892272512758" lon="12.250877058097686"><ele>86.0</ele><time>2026-04-25T13:57:54.882Z</time></trkpt><trkpt lat="45.88916398221465" lon="12.250964657126724"><ele>86.0</ele><time>2026-04-25T13:57:56.882Z</time></trkpt><trkpt lat="45.88909298389516" lon="12.25106904827962"><ele>86.0</ele><time>2026-04-25T13:57:58.882Z</time></trkpt><trkpt lat="45.889024592124336" lon="12.25116152905887"><ele>86.0</ele><time>2026-04-25T13:58:00.882Z</time></trkpt><trkpt lat="45.88897725883442" lon="12.251290474229748"><ele>86.0</ele><time>2026-04-25T13:58:02.882Z</time></trkpt><trkpt lat="45.88893266182033" lon="12.25140513206513"><ele>86.0</ele><time>2026-04-25T13:58:04.882Z</time></trkpt><trkpt lat="45.888887240470254" lon="12.251525030135996"><ele>86.0</ele><time>2026-04-25T13:58:06.882Z</time></trkpt><trkpt lat="45.88882519442261" lon="12.251632155777454"><ele>86.0</ele><time>2026-04-25T13:58:08.882Z</time></trkpt><trkpt lat="45.8887540180329" lon="12.251723405832902"><ele>86.0</ele><time>2026-04-25T13:58:10.882Z</time></trkpt><trkpt lat="45.8886637937059" lon="12.251794095062781"><ele>86.4</ele><time>2026-04-25T13:58:12.882Z</time></trkpt><trkpt lat="45.8885691566286" lon="12.251849861865951"><ele>86.8</ele><time>2026-04-25T13:58:14.881Z</time></trkpt><trkpt lat="45.88847099424528" lon="12.251887778930909"><ele>87.2</ele><time>2026-04-25T13:58:16.881Z</time></trkpt><trkpt lat="45.88836716912596" lon="12.251923599408192"><ele>87.60000000000001</ele><time>2026-04-25T13:58:18.881Z</time></trkpt><trkpt lat="45.88826214000526" lon="12.251953492311063"><ele>88.0</ele><time>2026-04-25T13:58:20.881Z</time></trkpt><trkpt lat="45.888161210088306" lon="12.251979145521688"><ele>88.0</ele><time>2026-04-25T13:58:22.881Z</time></trkpt><trkpt lat="45.88805727664997" lon="12.252026326463143"><ele>88.0</ele><time>2026-04-25T13:58:24.881Z</time></trkpt><trkpt lat="45.887975332283105" lon="12.252094829401225"><ele>88.0</ele><time>2026-04-25T13:58:26.881Z</time></trkpt><trkpt lat="45.88791100123694" lon="12.252201703795219"><ele>88.0</ele><time>2026-04-25T13:58:28.881Z</time></trkpt><trkpt lat="45.88786823457256" lon="12.25233124176126"><ele>88.0</ele><time>2026-04-25T13:58:30.881Z</time></trkpt><trkpt lat="45.88783546489864" lon="12.252469149910542"><ele>89.33333333333333</ele><time>2026-04-25T13:58:32.881Z</time></trkpt><trkpt lat="45.88780194500219" lon="12.25257837684982"><ele>90.66666666666666</ele><time>2026-04-25T13:58:34.881Z</time></trkpt><trkpt lat="45.887763096162196" lon="12.252665807137928"><ele>92.0</ele><time>2026-04-25T13:58:36.881Z</time></trkpt><trkpt lat="45.887739397958896" lon="12.252752223007354"><ele>93.33333333333333</ele><time>2026-04-25T13:58:38.881Z</time></trkpt><trkpt lat="45.88778161366066" lon="12.252835562834356"><ele>94.66666666666667</ele><time>2026-04-25T13:58:41.881Z</time></trkpt><trkpt lat="45.887864000996004" lon="12.252880843607837"><ele>96.0</ele><time>2026-04-25T13:58:44.881Z</time></trkpt><trkpt lat="45.88794200616849" lon="12.25294542863652"><ele>95.99999999999999</ele><time>2026-04-25T13:58:47.881Z</time></trkpt><trkpt lat="45.88799953042204" lon="12.253002942597599"><ele>96.0</ele><time>2026-04-25T13:58:50.881Z</time></trkpt><trkpt lat="45.888058074838895" lon="12.253051124013652"><ele>96.0</ele><time>2026-04-25T13:58:53.881Z</time></trkpt><trkpt lat="45.88813522272303" lon="12.253088794263874"><ele>96.0</ele><time>2026-04-25T13:58:57.881Z</time></trkpt><trkpt lat="45.88820641563231" lon="12.253111546298003"><ele>96.0</ele><time>2026-04-25T13:59:00.88Z</time></trkpt><trkpt lat="45.888274165329804" lon="12.253144589654525"><ele>95.99999999999999</ele><time>2026-04-25T13:59:03.88Z</time></trkpt><trkpt lat="45.888339937476616" lon="12.253177146792337"><ele>96.0</ele><time>2026-04-25T13:59:07.881Z</time></trkpt><trkpt lat="45.888414805195" lon="12.25317511051819"><ele>95.66666666666667</ele><time>2026-04-25T13:59:11.881Z</time></trkpt><trkpt lat="45.88849377710333" lon="12.253171890749888"><ele>95.33333333333333</ele><time>2026-04-25T13:59:15.881Z</time></trkpt><trkpt lat="45.88857586099533" lon="12.253166030224644"><ele>95.0</ele><time>2026-04-25T13:59:19.881Z</time></trkpt><trkpt lat="45.88866193255531" lon="12.25316224831286"><ele>94.66666666666666</ele><time>2026-04-25T13:59:23.881Z</time></trkpt><trkpt lat="45.888742114380086" lon="12.25314837592672"><ele>94.33333333333333</ele><time>2026-04-25T13:59:27.881Z</time></trkpt><trkpt lat="45.888821256610946" lon="12.253112093352657"><ele>94.0</ele><time>2026-04-25T13:59:31.881Z</time></trkpt><trkpt lat="45.88887461488793" lon="12.253037033350676"><ele>95.14285714285714</ele><time>2026-04-25T13:59:36.881Z</time></trkpt><trkpt lat="45.88888085884758" lon="12.252946503133442"><ele>96.28571428571428</ele><time>2026-04-25T13:59:40.881Z</time></trkpt><trkpt lat="45.88882821362537" lon="12.252891182722651"><ele>97.42857142857143</ele><time>2026-04-25T13:59:44.88Z</time></trkpt><trkpt lat="45.88875163743288" lon="12.252863317953228"><ele>98.57142857142857</ele><time>2026-04-25T13:59:49.88Z</time></trkpt><trkpt lat="45.88867225044901" lon="12.252826507072719"><ele>99.71428571428572</ele><time>2026-04-25T13:59:54.88Z</time></trkpt><trkpt lat="45.88860509091467" lon="12.252793350528158"><ele>100.85714285714286</ele><time>2026-04-25T13:59:58.88Z</time></trkpt><trkpt lat="45.888526149548845" lon="12.252753252142103"><ele>102.0</ele><time>2026-04-25T14:00:02.88Z</time></trkpt><trkpt lat="45.88847824861466" lon="12.252645419572229"><ele>102.0</ele><time>2026-04-25T14:00:06.88Z</time></trkpt><trkpt lat="45.88852272813005" lon="12.25255011251332"><ele>102.0</ele><time>2026-04-25T14:00:11.88Z</time></trkpt><trkpt lat="45.88859003723047" lon="12.252487081560355"><ele>102.0</ele><time>2026-04-25T14:00:16.88Z</time></trkpt><trkpt lat="45.888660167894905" lon="12.25243028880987"><ele>102.0</ele><time>2026-04-25T14:00:20.88Z</time></trkpt><trkpt lat="45.88873134301657" lon="12.252387015257113"><ele>102.0</ele><time>2026-04-25T14:00:24.88Z</time></trkpt><trkpt lat="45.888815255002726" lon="12.252335772016988"><ele>102.0</ele><time>2026-04-25T14:00:28.879Z</time></trkpt><trkpt lat="45.888898070139525" lon="12.252286066360723"><ele>102.33333333333333</ele><time>2026-04-25T14:00:32.879Z</time></trkpt><trkpt lat="45.88900342538603" lon="12.25225972621489"><ele>102.66666666666666</ele><time>2026-04-25T14:00:36.879Z</time></trkpt><trkpt lat="45.88907176061131" lon="12.252215270477228"><ele>103.0</ele><time>2026-04-25T14:00:40.879Z</time></trkpt><trkpt lat="45.88913115272409" lon="12.252258927872534"><ele>103.33333333333333</ele><time>2026-04-25T14:00:43.879Z</time></trkpt><trkpt lat="45.88920199712037" lon="12.252252513318775"><ele>103.66666666666666</ele><time>2026-04-25T14:00:46.879Z</time></trkpt><trkpt lat="45.88928012106971" lon="12.252232267697016"><ele>104.0</ele><time>2026-04-25T14:00:49.879Z</time></trkpt><trkpt lat="45.88934423428625" lon="12.252198707265839"><ele>103.99999999999999</ele><time>2026-04-25T14:00:51.879Z</time></trkpt><trkpt lat="45.88941132620981" lon="12.252185183241837"><ele>104.0</ele><time>2026-04-25T14:00:53.879Z</time></trkpt><trkpt lat="45.88947913462393" lon="12.252159211225443"><ele>104.0</ele><time>2026-04-25T14:00:55.879Z</time></trkpt><trkpt lat="45.889578055625734" lon="12.252133423246894"><ele>104.0</ele><time>2026-04-25T14:00:58.879Z</time></trkpt><trkpt lat="45.88965302865573" lon="12.25210296831017"><ele>103.99999999999999</ele><time>2026-04-25T14:01:01.879Z</time></trkpt><trkpt lat="45.88975276916849" lon="12.25206950220786"><ele>104.0</ele><time>2026-04-25T14:01:04.879Z</time></trkpt><trkpt lat="45.88984948063545" lon="12.252040291860407"><ele>103.99999999999999</ele><time>2026-04-25T14:01:08.879Z</time></trkpt><trkpt lat="45.889919053631495" lon="12.251984562472531"><ele>104.0</ele><time>2026-04-25T14:01:11.879Z</time></trkpt><trkpt lat="45.89001121951891" lon="12.25194584302172"><ele>104.0</ele><time>2026-04-25T14:01:13.879Z</time></trkpt><trkpt lat="45.89008121264642" lon="12.25191579825457"><ele>104.0</ele><time>2026-04-25T14:01:16.878Z</time></trkpt><trkpt lat="45.89017653876449" lon="12.251873950177368"><ele>103.99999999999999</ele><time>2026-04-25T14:01:19.879Z</time></trkpt><trkpt lat="45.89025009076086" lon="12.251848429322834"><ele>104.0</ele><time>2026-04-25T14:01:22.879Z</time></trkpt><trkpt lat="45.89032391217723" lon="12.251823718686182"><ele>105.71428571428571</ele><time>2026-04-25T14:01:25.878Z</time></trkpt><trkpt lat="45.89040352622876" lon="12.251798858377315"><ele>107.42857142857144</ele><time>2026-04-25T14:01:28.878Z</time></trkpt><trkpt lat="45.89046828085751" lon="12.251761493269495"><ele>109.14285714285715</ele><time>2026-04-25T14:01:31.878Z</time></trkpt><trkpt lat="45.89053356987598" lon="12.251733477973424"><ele>110.85714285714286</ele><time>2026-04-25T14:01:34.878Z</time></trkpt><trkpt lat="45.890605690163376" lon="12.251700490675441"><ele>112.57142857142858</ele><time>2026-04-25T14:01:37.878Z</time></trkpt><trkpt lat="45.890684591527474" lon="12.251676173298579"><ele>114.2857142857143</ele><time>2026-04-25T14:01:40.878Z</time></trkpt><trkpt lat="45.890747599434484" lon="12.251656148439675"><ele>116.00000000000001</ele><time>2026-04-25T14:01:43.878Z</time></trkpt><trkpt lat="45.89081961360699" lon="12.251628812644322"><ele>116.00000000000001</ele><time>2026-04-25T14:01:46.878Z</time></trkpt><trkpt lat="45.890891973880244" lon="12.251623898031815"><ele>116.0</ele><time>2026-04-25T14:01:49.878Z</time></trkpt><trkpt lat="45.89095673420774" lon="12.251613006804027"><ele>116.00000000000001</ele><time>2026-04-25T14:01:52.878Z</time></trkpt><trkpt lat="45.89102386335366" lon="12.251598403780314"><ele>116.00000000000001</ele><time>2026-04-25T14:01:55.878Z</time></trkpt><trkpt lat="45.89108486989075" lon="12.251569367415032"><ele>116.0</ele><time>2026-04-25T14:01:59.878Z</time></trkpt><trkpt lat="45.89117948776865" lon="12.251551122686093"><ele>116.00000000000001</ele><time>2026-04-25T14:02:03.877Z</time></trkpt><trkpt lat="45.89124711376936" lon="12.251538107286228"><ele>116.00000000000001</ele><time>2026-04-25T14:02:05.877Z</time></trkpt><trkpt lat="45.891320479262724" lon="12.251541330092712"><ele>116.42857142857144</ele><time>2026-04-25T14:02:09.877Z</time></trkpt><trkpt lat="45.89140118593294" lon="12.251534101520033"><ele>116.85714285714286</ele><time>2026-04-25T14:02:12.877Z</time></trkpt><trkpt lat="45.891476234753746" lon="12.251511369790109"><ele>117.28571428571429</ele><time>2026-04-25T14:02:15.877Z</time></trkpt><trkpt lat="45.89155383500741" lon="12.251484552221918"><ele>117.71428571428572</ele><time>2026-04-25T14:02:18.877Z</time></trkpt><trkpt lat="45.8916195471695" lon="12.251468532897604"><ele>118.14285714285714</ele><time>2026-04-25T14:02:21.877Z</time></trkpt><trkpt lat="45.891683169873104" lon="12.251460119863589"><ele>118.57142857142857</ele><time>2026-04-25T14:02:24.877Z</time></trkpt><trkpt lat="45.891762727322224" lon="12.25146412223448"><ele>119.0</ele><time>2026-04-25T14:02:28.877Z</time></trkpt><trkpt lat="45.89186518414872" lon="12.251443995910346"><ele>119.80000000000001</ele><time>2026-04-25T14:02:32.877Z</time></trkpt><trkpt lat="45.891953236666616" lon="12.251432293393902"><ele>120.60000000000001</ele><time>2026-04-25T14:02:36.877Z</time></trkpt><trkpt lat="45.89204123455975" lon="12.251407747818638"><ele>121.4</ele><time>2026-04-25T14:02:40.877Z</time></trkpt><trkpt lat="45.89215049651085" lon="12.251382915551103"><ele>122.2</ele><time>2026-04-25T14:02:44.877Z</time></trkpt><trkpt lat="45.892229836456345" lon="12.251377275347249"><ele>123.0</ele><time>2026-04-25T14:02:47.877Z</time></trkpt><trkpt lat="45.89233049556492" lon="12.25132999121143"><ele>123.0</ele><time>2026-04-25T14:02:50.876Z</time></trkpt><trkpt lat="45.89239129821986" lon="12.251256168599522"><ele>123.0</ele><time>2026-04-25T14:02:53.876Z</time></trkpt><trkpt lat="45.89246452353424" lon="12.251206917982712"><ele>123.0</ele><time>2026-04-25T14:02:55.876Z</time></trkpt><trkpt lat="45.89254216213475" lon="12.251165942459462"><ele>123.0</ele><time>2026-04-25T14:02:57.876Z</time></trkpt><trkpt lat="45.89263071564139" lon="12.251095873391247"><ele>123.0</ele><time>2026-04-25T14:02:58.876Z</time></trkpt><trkpt lat="45.892706810825196" lon="12.2510436973824"><ele>123.0</ele><time>2026-04-25T14:02:59.876Z</time></trkpt><trkpt lat="45.89278737327714" lon="12.251013345583035"><ele>123.16666666666667</ele><time>2026-04-25T14:03:00.876Z</time></trkpt><trkpt lat="45.89286293425376" lon="12.250993462199462"><ele>123.33333333333334</ele><time>2026-04-25T14:03:01.876Z</time></trkpt><trkpt lat="45.89294061253736" lon="12.250981271677519"><ele>123.5</ele><time>2026-04-25T14:03:02.876Z</time></trkpt><trkpt lat="45.8930272925295" lon="12.250982664454078"><ele>123.66666666666667</ele><time>2026-04-25T14:03:03.876Z</time></trkpt><trkpt lat="45.89311523183135" lon="12.250983857915507"><ele>123.83333333333334</ele><time>2026-04-25T14:03:04.876Z</time></trkpt><trkpt lat="45.89319661462065" lon="12.250992624058844"><ele>124.0</ele><time>2026-04-25T14:03:05.876Z</time></trkpt><trkpt lat="45.89327803297145" lon="12.251004130849173"><ele>124.0</ele><time>2026-04-25T14:03:06.876Z</time></trkpt><trkpt lat="45.893358666772485" lon="12.250990320825586"><ele>124.0</ele><time>2026-04-25T14:03:07.876Z</time></trkpt><trkpt lat="45.89346157396235" lon="12.250963761654122"><ele>124.0</ele><time>2026-04-25T14:03:08.876Z</time></trkpt><trkpt lat="45.893558319137725" lon="12.250933593657079"><ele>124.0</ele><time>2026-04-25T14:03:09.876Z</time></trkpt><trkpt lat="45.89364526751325" lon="12.250917642402582"><ele>124.0</ele><time>2026-04-25T14:03:10.876Z</time></trkpt><trkpt lat="45.893726984628735" lon="12.25091471124051"><ele>123.71428571428572</ele><time>2026-04-25T14:03:11.876Z</time></trkpt><trkpt lat="45.893802233375474" lon="12.250919654756487"><ele>123.42857142857144</ele><time>2026-04-25T14:03:12.876Z</time></trkpt><trkpt lat="45.89387271608073" lon="12.250930617893278"><ele>123.14285714285714</ele><time>2026-04-25T14:03:13.876Z</time></trkpt><trkpt lat="45.89393831289393" lon="12.250957605163716"><ele>122.85714285714286</ele><time>2026-04-25T14:03:14.876Z</time></trkpt><trkpt lat="45.894000814985304" lon="12.250982001285207"><ele>122.57142857142857</ele><time>2026-04-25T14:03:15.876Z</time></trkpt><trkpt lat="45.894062368910504" lon="12.25100788886691"><ele>122.28571428571428</ele><time>2026-04-25T14:03:16.876Z</time></trkpt><trkpt lat="45.8941223762826" lon="12.251036810354762"><ele>121.99999999999999</ele><time>2026-04-25T14:03:17.876Z</time></trkpt><trkpt lat="45.89423374657589" lon="12.2510966390538"><ele>122.0</ele><time>2026-04-25T14:03:19.875Z</time></trkpt><trkpt lat="45.89431971977204" lon="12.251213619758925"><ele>121.99999999999999</ele><time>2026-04-25T14:03:21.875Z</time></trkpt><trkpt lat="45.89434810330452" lon="12.251295839102266"><ele>121.99999999999999</ele><time>2026-04-25T14:03:22.876Z</time></trkpt><trkpt lat="45.89437552294271" lon="12.251378438104203"><ele>122.0</ele><time>2026-04-25T14:03:23.876Z</time></trkpt><trkpt lat="45.894424640766346" lon="12.25153699269884"><ele>122.0</ele><time>2026-04-25T14:03:25.875Z</time></trkpt><trkpt lat="45.894494712214694" lon="12.251683323165942"><ele>122.8</ele><time>2026-04-25T14:03:27.876Z</time></trkpt><trkpt lat="45.89453330006617" lon="12.251755416244949"><ele>123.6</ele><time>2026-04-25T14:03:28.876Z</time></trkpt><trkpt lat="45.89461346389761" lon="12.251890466511096"><ele>124.39999999999999</ele><time>2026-04-25T14:03:30.875Z</time></trkpt><trkpt lat="45.89465744824297" lon="12.251961412549166"><ele>125.19999999999999</ele><time>2026-04-25T14:03:31.875Z</time></trkpt><trkpt lat="45.89473452799748" lon="12.252087028517211"><ele>126.0</ele><time>2026-04-25T14:03:33.876Z</time></trkpt><trkpt lat="45.89479166940663" lon="12.252195048839553"><ele>125.6</ele><time>2026-04-25T14:03:35.876Z</time></trkpt><trkpt lat="45.894861193384344" lon="12.252295517147372"><ele>125.19999999999999</ele><time>2026-04-25T14:03:37.875Z</time></trkpt><trkpt lat="45.89493504584867" lon="12.2523887142463"><ele>124.80000000000001</ele><time>2026-04-25T14:03:39.875Z</time></trkpt><trkpt lat="45.89501714201174" lon="12.2524530148869"><ele>124.4</ele><time>2026-04-25T14:03:41.875Z</time></trkpt><trkpt lat="45.89511593220318" lon="12.252451786629509"><ele>124.0</ele><time>2026-04-25T14:03:43.875Z</time></trkpt><trkpt lat="45.89520207354835" lon="12.252429228799482"><ele>124.0</ele><time>2026-04-25T14:03:44.875Z</time></trkpt><trkpt lat="45.895322042347566" lon="12.252399135124394"><ele>124.0</ele><time>2026-04-25T14:03:46.875Z</time></trkpt><trkpt lat="45.89544746678729" lon="12.25237299608814"><ele>124.0</ele><time>2026-04-25T14:03:48.875Z</time></trkpt><trkpt lat="45.89551373429346" lon="12.252363810390872"><ele>124.0</ele><time>2026-04-25T14:03:49.875Z</time></trkpt><trkpt lat="45.895634758253905" lon="12.252324412744132"><ele>124.0</ele><time>2026-04-25T14:03:51.875Z</time></trkpt><trkpt lat="45.8957580591802" lon="12.252306516769222"><ele>124.0</ele><time>2026-04-25T14:03:53.875Z</time></trkpt><trkpt lat="45.89588051824327" lon="12.252322120864655"><ele>124.0</ele><time>2026-04-25T14:03:55.875Z</time></trkpt><trkpt lat="45.8959915306093" lon="12.252367221250873"><ele>124.0</ele><time>2026-04-25T14:03:57.875Z</time></trkpt><trkpt lat="45.8960875114211" lon="12.252410043818182"><ele>124.0</ele><time>2026-04-25T14:03:59.875Z</time></trkpt><trkpt lat="45.896169900822805" lon="12.252481001736463"><ele>124.0</ele><time>2026-04-25T14:04:01.875Z</time></trkpt><trkpt lat="45.89625747175396" lon="12.252540028689515"><ele>124.0</ele><time>2026-04-25T14:04:03.875Z</time></trkpt><trkpt lat="45.89634267835795" lon="12.252613018853415"><ele>124.0</ele><time>2026-04-25T14:04:05.875Z</time></trkpt><trkpt lat="45.89642618443403" lon="12.25268407549413"><ele>124.0</ele><time>2026-04-25T14:04:07.875Z</time></trkpt><trkpt lat="45.896517378679405" lon="12.252730406839708"><ele>124.0</ele><time>2026-04-25T14:04:09.875Z</time></trkpt><trkpt lat="45.896616014608334" lon="12.252754826626978"><ele>124.0</ele><time>2026-04-25T14:04:11.875Z</time></trkpt><trkpt lat="45.89671834526119" lon="12.25273981397293"><ele>124.4</ele><time>2026-04-25T14:04:13.875Z</time></trkpt><trkpt lat="45.89681013016068" lon="12.252709490916065"><ele>124.80000000000001</ele><time>2026-04-25T14:04:15.875Z</time></trkpt><trkpt lat="45.89690039261667" lon="12.252673254529597"><ele>125.19999999999999</ele><time>2026-04-25T14:04:17.875Z</time></trkpt><trkpt lat="45.896995275754946" lon="12.252641847588057"><ele>125.6</ele><time>2026-04-25T14:04:19.875Z</time></trkpt><trkpt lat="45.897090553975865" lon="12.252603737313908"><ele>126.0</ele><time>2026-04-25T14:04:21.875Z</time></trkpt><trkpt lat="45.89717607472033" lon="12.252585920907986"><ele>126.0</ele><time>2026-04-25T14:04:23.874Z</time></trkpt><trkpt lat="45.89724278085754" lon="12.252572398753271"><ele>126.0</ele><time>2026-04-25T14:04:25.874Z</time></trkpt><trkpt lat="45.89730690834277" lon="12.252579045964914"><ele>126.0</ele><time>2026-04-25T14:04:27.874Z</time></trkpt><trkpt lat="45.897370090127225" lon="12.25258940449575"><ele>126.0</ele><time>2026-04-25T14:04:29.874Z</time></trkpt><trkpt lat="45.897440874744866" lon="12.252609777632692"><ele>126.0</ele><time>2026-04-25T14:04:31.874Z</time></trkpt><trkpt lat="45.89751466064076" lon="12.252620965336163"><ele>126.0</ele><time>2026-04-25T14:04:33.874Z</time></trkpt><trkpt lat="45.897607532841725" lon="12.25263596701566"><ele>126.0</ele><time>2026-04-25T14:04:35.874Z</time></trkpt><trkpt lat="45.89770056449111" lon="12.252655823927379"><ele>126.0</ele><time>2026-04-25T14:04:37.874Z</time></trkpt><trkpt lat="45.89779877806801" lon="12.252682625514899"><ele>126.0</ele><time>2026-04-25T14:04:39.874Z</time></trkpt><trkpt lat="45.89789593951581" lon="12.252702589913687"><ele>126.0</ele><time>2026-04-25T14:04:41.874Z</time></trkpt><trkpt lat="45.8979968306234" lon="12.25272147767111"><ele>126.0</ele><time>2026-04-25T14:04:43.874Z</time></trkpt><trkpt lat="45.89809969856321" lon="12.252735215769016"><ele>126.0</ele><time>2026-04-25T14:04:45.874Z</time></trkpt><trkpt lat="45.898190578077134" lon="12.252755155751514"><ele>126.0</ele><time>2026-04-25T14:04:47.874Z</time></trkpt><trkpt lat="45.89827814764537" lon="12.252781669279686"><ele>126.0</ele><time>2026-04-25T14:04:49.874Z</time></trkpt><trkpt lat="45.8983646144758" lon="12.25282615555192"><ele>126.0</ele><time>2026-04-25T14:04:51.874Z</time></trkpt><trkpt lat="45.898458153002075" lon="12.252855103618217"><ele>126.0</ele><time>2026-04-25T14:04:53.874Z</time></trkpt><trkpt lat="45.898551390004954" lon="12.25289847646164"><ele>126.0</ele><time>2026-04-25T14:04:55.874Z</time></trkpt><trkpt lat="45.8986366744919" lon="12.252967520504223"><ele>126.19999999999999</ele><time>2026-04-25T14:04:57.874Z</time></trkpt><trkpt lat="45.89871563571864" lon="12.253047025378404"><ele>126.39999999999999</ele><time>2026-04-25T14:04:59.874Z</time></trkpt><trkpt lat="45.8987885580833" lon="12.253150815627407"><ele>126.6</ele><time>2026-04-25T14:05:01.874Z</time></trkpt><trkpt lat="45.898848892773806" lon="12.253264168714983"><ele>126.8</ele><time>2026-04-25T14:05:03.874Z</time></trkpt><trkpt lat="45.8988994745787" lon="12.2533902027287"><ele>127.0</ele><time>2026-04-25T14:05:05.874Z</time></trkpt><trkpt lat="45.8989451895485" lon="12.253528221955715"><ele>127.0</ele><time>2026-04-25T14:05:07.873Z</time></trkpt><trkpt lat="45.89898881560427" lon="12.2536599032729"><ele>126.99999999999999</ele><time>2026-04-25T14:05:09.873Z</time></trkpt><trkpt lat="45.899037705741314" lon="12.253789580688668"><ele>126.99999999999999</ele><time>2026-04-25T14:05:11.873Z</time></trkpt><trkpt lat="45.89909709012909" lon="12.253914935693354"><ele>127.0</ele><time>2026-04-25T14:05:13.873Z</time></trkpt><trkpt lat="45.89916016878443" lon="12.254042178000882"><ele>127.0</ele><time>2026-04-25T14:05:15.873Z</time></trkpt><trkpt lat="45.89923117103087" lon="12.25414724591143"><ele>127.8</ele><time>2026-04-25T14:05:17.873Z</time></trkpt><trkpt lat="45.89930728091706" lon="12.254234912379752"><ele>128.6</ele><time>2026-04-25T14:05:19.873Z</time></trkpt><trkpt lat="45.89939641709144" lon="12.254294566314794"><ele>129.39999999999998</ele><time>2026-04-25T14:05:21.873Z</time></trkpt><trkpt lat="45.89949747362626" lon="12.254322310309059"><ele>130.2</ele><time>2026-04-25T14:05:23.873Z</time></trkpt><trkpt lat="45.899606020408136" lon="12.254319786146613"><ele>131.0</ele><time>2026-04-25T14:05:25.873Z</time></trkpt><trkpt lat="45.89970555946135" lon="12.254325573686588"><ele>131.0</ele><time>2026-04-25T14:05:27.873Z</time></trkpt><trkpt lat="45.89980911950283" lon="12.254323210207135"><ele>131.0</ele><time>2026-04-25T14:05:29.873Z</time></trkpt><trkpt lat="45.89990691589826" lon="12.254320048019643"><ele>131.0</ele><time>2026-04-25T14:05:31.873Z</time></trkpt><trkpt lat="45.89999980672317" lon="12.2543257428384"><ele>131.0</ele><time>2026-04-25T14:05:33.873Z</time></trkpt><trkpt lat="45.90009649790706" lon="12.254321289121073"><ele>131.0</ele><time>2026-04-25T14:05:35.873Z</time></trkpt><trkpt lat="45.900188329093545" lon="12.254312316450672"><ele>132.66666666666666</ele><time>2026-04-25T14:05:37.873Z</time></trkpt><trkpt lat="45.90027805773374" lon="12.25431303656686"><ele>134.33333333333331</ele><time>2026-04-25T14:05:39.873Z</time></trkpt><trkpt lat="45.90036882503044" lon="12.254306964568324"><ele>136.0</ele><time>2026-04-25T14:05:41.873Z</time></trkpt><trkpt lat="45.90045365329509" lon="12.25430558478852"><ele>137.66666666666666</ele><time>2026-04-25T14:05:43.873Z</time></trkpt><trkpt lat="45.900541738159916" lon="12.254300502163778"><ele>139.33333333333334</ele><time>2026-04-25T14:05:45.873Z</time></trkpt><trkpt lat="45.900627376302495" lon="12.254289434877078"><ele>141.0</ele><time>2026-04-25T14:05:47.873Z</time></trkpt><trkpt lat="45.90070879528388" lon="12.254293971988075"><ele>141.0</ele><time>2026-04-25T14:05:49.873Z</time></trkpt><trkpt lat="45.90079099649694" lon="12.254287938490947"><ele>141.0</ele><time>2026-04-25T14:05:51.873Z</time></trkpt><trkpt lat="45.90086460434625" lon="12.254292201404096"><ele>141.0</ele><time>2026-04-25T14:05:53.873Z</time></trkpt><trkpt lat="45.90094200242557" lon="12.254283359388188"><ele>141.0</ele><time>2026-04-25T14:05:55.873Z</time></trkpt><trkpt lat="45.90101318328344" lon="12.254290430673842"><ele>141.0</ele><time>2026-04-25T14:05:57.873Z</time></trkpt><trkpt lat="45.90107857848113" lon="12.254299730880797"><ele>141.0</ele><time>2026-04-25T14:05:59.873Z</time></trkpt><trkpt lat="45.90115236211576" lon="12.254301569564374"><ele>141.0</ele><time>2026-04-25T14:06:01.873Z</time></trkpt><trkpt lat="45.901231144237386" lon="12.254288672550011"><ele>142.0</ele><time>2026-04-25T14:06:03.873Z</time></trkpt><trkpt lat="45.90129883733811" lon="12.254280704047305"><ele>143.0</ele><time>2026-04-25T14:06:05.873Z</time></trkpt><trkpt lat="45.90136392049494" lon="12.25427977191385"><ele>144.0</ele><time>2026-04-25T14:06:07.872Z</time></trkpt><trkpt lat="45.90144897726802" lon="12.254288435802568"><ele>145.0</ele><time>2026-04-25T14:06:10.872Z</time></trkpt><trkpt lat="45.901512912163724" lon="12.254261979708955"><ele>146.0</ele><time>2026-04-25T14:06:12.872Z</time></trkpt><trkpt lat="45.90159084515994" lon="12.2542396336583"><ele>147.0</ele><time>2026-04-25T14:06:15.872Z</time></trkpt><trkpt lat="45.901661566030256" lon="12.254238198898731"><ele>148.0</ele><time>2026-04-25T14:06:18.872Z</time></trkpt><trkpt lat="45.90172460219109" lon="12.254215778844978"><ele>148.57142857142858</ele><time>2026-04-25T14:06:21.872Z</time></trkpt><trkpt lat="45.9018012814745" lon="12.254187584209486"><ele>149.14285714285714</ele><time>2026-04-25T14:06:25.872Z</time></trkpt><trkpt lat="45.90187782411359" lon="12.254168775251598"><ele>149.71428571428572</ele><time>2026-04-25T14:06:29.872Z</time></trkpt><trkpt lat="45.90194200982173" lon="12.254153287879008"><ele>150.28571428571428</ele><time>2026-04-25T14:06:32.872Z</time></trkpt><trkpt lat="45.90201576001045" lon="12.25415200321867"><ele>150.85714285714286</ele><time>2026-04-25T14:06:38.872Z</time></trkpt><trkpt lat="45.902086489997885" lon="12.254158140732091"><ele>151.42857142857142</ele><time>2026-04-25T14:06:42.872Z</time></trkpt><trkpt lat="45.90215190049349" lon="12.254152342554363"><ele>152.0</ele><time>2026-04-25T14:06:46.872Z</time></trkpt><trkpt lat="45.90221701217331" lon="12.254137751102864"><ele>152.0</ele><time>2026-04-25T14:06:50.872Z</time></trkpt><trkpt lat="45.90228236238387" lon="12.254117506697675"><ele>152.0</ele><time>2026-04-25T14:06:53.871Z</time></trkpt><trkpt lat="45.9023561286342" lon="12.254092794767038"><ele>152.0</ele><time>2026-04-25T14:06:57.871Z</time></trkpt><trkpt lat="45.902427900850256" lon="12.254075794874318"><ele>152.0</ele><time>2026-04-25T14:07:01.871Z</time></trkpt><trkpt lat="45.90249924992" lon="12.254057437910548"><ele>152.0</ele><time>2026-04-25T14:07:05.871Z</time></trkpt><trkpt lat="45.902563575499755" lon="12.254050944498449"><ele>152.0</ele><time>2026-04-25T14:07:09.871Z</time></trkpt><trkpt lat="45.90263358130117" lon="12.254024953237083"><ele>152.0</ele><time>2026-04-25T14:07:13.871Z</time></trkpt><trkpt lat="45.902710509747465" lon="12.25401905045477"><ele>154.83333333333331</ele><time>2026-04-25T14:07:17.871Z</time></trkpt><trkpt lat="45.90278749766881" lon="12.254055993304561"><ele>157.66666666666666</ele><time>2026-04-25T14:07:22.871Z</time></trkpt><trkpt lat="45.90286195063911" lon="12.254095665922373"><ele>160.5</ele><time>2026-04-25T14:07:27.871Z</time></trkpt><trkpt lat="45.90292970748148" lon="12.254155368199665"><ele>163.33333333333334</ele><time>2026-04-25T14:07:32.871Z</time></trkpt><trkpt lat="45.902982053814696" lon="12.254238054165482"><ele>166.16666666666669</ele><time>2026-04-25T14:07:36.871Z</time></trkpt><trkpt lat="45.90302376332353" lon="12.254307867375719"><ele>169.0</ele><time>2026-04-25T14:07:40.87Z</time></trkpt><trkpt lat="45.903080334197774" lon="12.254379023970392"><ele>169.0</ele><time>2026-04-25T14:07:44.87Z</time></trkpt><trkpt lat="45.90312651282778" lon="12.254448045656602"><ele>169.0</ele><time>2026-04-25T14:07:47.87Z</time></trkpt><trkpt lat="45.90317279854257" lon="12.254552405773813"><ele>169.0</ele><time>2026-04-25T14:07:50.87Z</time></trkpt><trkpt lat="45.90323791293005" lon="12.254645866561498"><ele>169.0</ele><time>2026-04-25T14:07:53.87Z</time></trkpt><trkpt lat="45.90327334573421" lon="12.254722648662531"><ele>169.0</ele><time>2026-04-25T14:07:56.87Z</time></trkpt><trkpt lat="45.903308791109275" lon="12.25480643413636"><ele>169.0</ele><time>2026-04-25T14:07:58.87Z</time></trkpt><trkpt lat="45.903360013947655" lon="12.254900982759848"><ele>169.0</ele><time>2026-04-25T14:08:00.87Z</time></trkpt><trkpt lat="45.90339326606614" lon="12.255002242894019"><ele>169.0</ele><time>2026-04-25T14:08:02.87Z</time></trkpt><trkpt lat="45.903434675000305" lon="12.255115490817559"><ele>169.0</ele><time>2026-04-25T14:08:03.87Z</time></trkpt><trkpt lat="45.90345781106076" lon="12.255225990234612"><ele>169.0</ele><time>2026-04-25T14:08:04.87Z</time></trkpt><trkpt lat="45.90347647600112" lon="12.255320899944195"><ele>169.0</ele><time>2026-04-25T14:08:05.87Z</time></trkpt><trkpt lat="45.90349659776352" lon="12.255426014224035"><ele>169.0</ele><time>2026-04-25T14:08:06.87Z</time></trkpt><trkpt lat="45.90350548232643" lon="12.255537692979722"><ele>168.66666666666669</ele><time>2026-04-25T14:08:07.869Z</time></trkpt><trkpt lat="45.903505634418515" lon="12.255645975960494"><ele>168.33333333333334</ele><time>2026-04-25T14:08:08.869Z</time></trkpt><trkpt lat="45.90350732011837" lon="12.255742707024236"><ele>168.0</ele><time>2026-04-25T14:08:09.869Z</time></trkpt><trkpt lat="45.90350153569284" lon="12.255866972671894"><ele>167.66666666666666</ele><time>2026-04-25T14:08:10.869Z</time></trkpt><trkpt lat="45.90349758237344" lon="12.255990085747305"><ele>167.33333333333331</ele><time>2026-04-25T14:08:11.869Z</time></trkpt><trkpt lat="45.903515181756475" lon="12.256129838008876"><ele>167.0</ele><time>2026-04-25T14:08:12.869Z</time></trkpt><trkpt lat="45.90355938758918" lon="12.256274853194807"><ele>167.0</ele><time>2026-04-25T14:08:13.869Z</time></trkpt><trkpt lat="45.90361478290953" lon="12.256408592560591"><ele>167.0</ele><time>2026-04-25T14:08:14.869Z</time></trkpt><trkpt lat="45.90368708133939" lon="12.256515717383941"><ele>167.0</ele><time>2026-04-25T14:08:15.869Z</time></trkpt><trkpt lat="45.903764806344086" lon="12.256591583390577"><ele>167.0</ele><time>2026-04-25T14:08:16.869Z</time></trkpt><trkpt lat="45.90385235171905" lon="12.256626638434925"><ele>167.0</ele><time>2026-04-25T14:08:17.869Z</time></trkpt><trkpt lat="45.903929185207566" lon="12.256644393870626"><ele>165.0</ele><time>2026-04-25T14:08:18.869Z</time></trkpt><trkpt lat="45.904010958865555" lon="12.256641440207638"><ele>163.0</ele><time>2026-04-25T14:08:19.869Z</time></trkpt><trkpt lat="45.90408556818151" lon="12.256637435211742"><ele>161.0</ele><time>2026-04-25T14:08:20.869Z</time></trkpt><trkpt lat="45.90415928935393" lon="12.256614982713733"><ele>159.0</ele><time>2026-04-25T14:08:21.869Z</time></trkpt><trkpt lat="45.904231811839075" lon="12.256594742667673"><ele>157.0</ele><time>2026-04-25T14:08:22.869Z</time></trkpt><trkpt lat="45.904306447935795" lon="12.256574788944773"><ele>155.0</ele><time>2026-04-25T14:08:23.869Z</time></trkpt><trkpt lat="45.90438681877907" lon="12.256553765321247"><ele>154.83333333333331</ele><time>2026-04-25T14:08:24.869Z</time></trkpt><trkpt lat="45.904470962161426" lon="12.256536792228209"><ele>154.66666666666666</ele><time>2026-04-25T14:08:25.869Z</time></trkpt><trkpt lat="45.904547860138806" lon="12.256545646405074"><ele>154.5</ele><time>2026-04-25T14:08:26.869Z</time></trkpt><trkpt lat="45.904628983399114" lon="12.256551885377037"><ele>154.33333333333334</ele><time>2026-04-25T14:08:27.869Z</time></trkpt><trkpt lat="45.90470665320366" lon="12.256574180949555"><ele>154.16666666666669</ele><time>2026-04-25T14:08:28.869Z</time></trkpt><trkpt lat="45.90478150027867" lon="12.256619593246317"><ele>154.0</ele><time>2026-04-25T14:08:29.869Z</time></trkpt><trkpt lat="45.90485454455149" lon="12.256659694760053"><ele>154.0</ele><time>2026-04-25T14:08:30.869Z</time></trkpt><trkpt lat="45.90492209132552" lon="12.256716444250294"><ele>154.0</ele><time>2026-04-25T14:08:31.869Z</time></trkpt><trkpt lat="45.90498750613548" lon="12.25676251676757"><ele>154.0</ele><time>2026-04-25T14:08:32.869Z</time></trkpt><trkpt lat="45.90505285688319" lon="12.25681324949772"><ele>154.0</ele><time>2026-04-25T14:08:33.869Z</time></trkpt><trkpt lat="45.905116768828556" lon="12.256870332328655"><ele>154.0</ele><time>2026-04-25T14:08:34.869Z</time></trkpt><trkpt lat="45.90517460784716" lon="12.256932407147373"><ele>154.0</ele><time>2026-04-25T14:08:35.869Z</time></trkpt><trkpt lat="45.90522916509909" lon="12.2569968688589"><ele>154.0</ele><time>2026-04-25T14:08:36.869Z</time></trkpt><trkpt lat="45.90528520273978" lon="12.257060010475683"><ele>154.0</ele><time>2026-04-25T14:08:37.869Z</time></trkpt><trkpt lat="45.90533550189633" lon="12.25712497908851"><ele>154.0</ele><time>2026-04-25T14:08:38.869Z</time></trkpt><trkpt lat="45.905381219104086" lon="12.25719718826911"><ele>154.0</ele><time>2026-04-25T14:08:39.869Z</time></trkpt><trkpt lat="45.90541998080217" lon="12.25726992429669"><ele>154.0</ele><time>2026-04-25T14:08:40.869Z</time></trkpt><trkpt lat="45.905457898744444" lon="12.257351326320794"><ele>154.0</ele><time>2026-04-25T14:08:41.869Z</time></trkpt><trkpt lat="45.905485821169" lon="12.257435415114568"><ele>154.0</ele><time>2026-04-25T14:08:42.869Z</time></trkpt><trkpt lat="45.90553332247695" lon="12.257592043162067"><ele>154.0</ele><time>2026-04-25T14:08:44.869Z</time></trkpt><trkpt lat="45.905577588058094" lon="12.257741195774482"><ele>154.0</ele><time>2026-04-25T14:08:46.869Z</time></trkpt><trkpt lat="45.9056030951471" lon="12.257893510897953"><ele>154.0</ele><time>2026-04-25T14:08:48.869Z</time></trkpt><trkpt lat="45.90563115311472" lon="12.258047537642462"><ele>154.0</ele><time>2026-04-25T14:08:50.869Z</time></trkpt><trkpt lat="45.905640277504105" lon="12.258198528576587"><ele>154.0</ele><time>2026-04-25T14:08:52.869Z</time></trkpt><trkpt lat="45.905638905599666" lon="12.258343258059382"><ele>155.33333333333334</ele><time>2026-04-25T14:08:54.868Z</time></trkpt><trkpt lat="45.90561992446194" lon="12.258475474942742"><ele>156.66666666666669</ele><time>2026-04-25T14:08:56.868Z</time></trkpt><trkpt lat="45.90561152266198" lon="12.258609783059448"><ele>158.0</ele><time>2026-04-25T14:08:58.868Z</time></trkpt><trkpt lat="45.90559604246464" lon="12.258738057904521"><ele>159.33333333333334</ele><time>2026-04-25T14:09:00.868Z</time></trkpt><trkpt lat="45.90557040162805" lon="12.258859126855388"><ele>160.66666666666666</ele><time>2026-04-25T14:09:02.868Z</time></trkpt><trkpt lat="45.9055462116004" lon="12.258970019558925"><ele>162.0</ele><time>2026-04-25T14:09:04.868Z</time></trkpt><trkpt lat="45.90552887359989" lon="12.25908507543586"><ele>162.83333333333334</ele><time>2026-04-25T14:09:06.868Z</time></trkpt><trkpt lat="45.90551184143582" lon="12.259205520094701"><ele>163.66666666666666</ele><time>2026-04-25T14:09:08.868Z</time></trkpt><trkpt lat="45.90548984447408" lon="12.259291707893054"><ele>164.5</ele><time>2026-04-25T14:09:10.868Z</time></trkpt><trkpt lat="45.90547281909141" lon="12.259402667356063"><ele>165.33333333333331</ele><time>2026-04-25T14:09:12.868Z</time></trkpt><trkpt lat="45.90545472131872" lon="12.259513262539476"><ele>166.16666666666666</ele><time>2026-04-25T14:09:14.868Z</time></trkpt><trkpt lat="45.90543634394066" lon="12.259622960710896"><ele>167.0</ele><time>2026-04-25T14:09:16.868Z</time></trkpt><trkpt lat="45.90542320984965" lon="12.259733863568364"><ele>167.85714285714286</ele><time>2026-04-25T14:09:18.868Z</time></trkpt><trkpt lat="45.90540026215541" lon="12.259831295655907"><ele>168.71428571428572</ele><time>2026-04-25T14:09:20.868Z</time></trkpt><trkpt lat="45.90538732930296" lon="12.259940301631078"><ele>169.57142857142856</ele><time>2026-04-25T14:09:22.868Z</time></trkpt><trkpt lat="45.905383690735896" lon="12.260044361777226"><ele>170.42857142857144</ele><time>2026-04-25T14:09:24.868Z</time></trkpt><trkpt lat="45.90536596717277" lon="12.260134118489365"><ele>171.2857142857143</ele><time>2026-04-25T14:09:26.868Z</time></trkpt><trkpt lat="45.90534566004418" lon="12.26023598170217"><ele>172.14285714285714</ele><time>2026-04-25T14:09:28.868Z</time></trkpt><trkpt lat="45.90533503833662" lon="12.26033572558861"><ele>173.0</ele><time>2026-04-25T14:09:30.868Z</time></trkpt><trkpt lat="45.905318699474115" lon="12.260445459316516"><ele>173.0</ele><time>2026-04-25T14:09:32.868Z</time></trkpt><trkpt lat="45.9053062517563" lon="12.260573263687773"><ele>173.0</ele><time>2026-04-25T14:09:34.868Z</time></trkpt><trkpt lat="45.90528985938985" lon="12.260703046614513"><ele>173.0</ele><time>2026-04-25T14:09:36.868Z</time></trkpt><trkpt lat="45.90526650607314" lon="12.260842408411863"><ele>173.0</ele><time>2026-04-25T14:09:38.868Z</time></trkpt><trkpt lat="45.90523697987108" lon="12.260967895577927"><ele>173.0</ele><time>2026-04-25T14:09:40.868Z</time></trkpt><trkpt lat="45.9052124509195" lon="12.26109443745108"><ele>172.66666666666666</ele><time>2026-04-25T14:09:42.868Z</time></trkpt><trkpt lat="45.90516406673908" lon="12.261204125507177"><ele>172.33333333333331</ele><time>2026-04-25T14:09:44.868Z</time></trkpt><trkpt lat="45.90512857833903" lon="12.2612920805506"><ele>172.0</ele><time>2026-04-25T14:09:46.868Z</time></trkpt><trkpt lat="45.90509356710741" lon="12.261402880465866"><ele>171.66666666666666</ele><time>2026-04-25T14:09:48.868Z</time></trkpt><trkpt lat="45.9050474856748" lon="12.26149824182278"><ele>171.33333333333334</ele><time>2026-04-25T14:09:50.868Z</time></trkpt><trkpt lat="45.905011143410654" lon="12.26160583083167"><ele>171.0</ele><time>2026-04-25T14:09:52.868Z</time></trkpt><trkpt lat="45.904968580477814" lon="12.261701408275652"><ele>171.0</ele><time>2026-04-25T14:09:54.868Z</time></trkpt><trkpt lat="45.90491996806449" lon="12.261790770614674"><ele>171.0</ele><time>2026-04-25T14:09:56.868Z</time></trkpt><trkpt lat="45.904875484852525" lon="12.261864140848154"><ele>171.0</ele><time>2026-04-25T14:09:58.868Z</time></trkpt><trkpt lat="45.90483611372631" lon="12.261963937791604"><ele>171.0</ele><time>2026-04-25T14:10:00.868Z</time></trkpt><trkpt lat="45.90478753815199" lon="12.262048895845378"><ele>171.0</ele><time>2026-04-25T14:10:02.868Z</time></trkpt><trkpt lat="45.90473726604508" lon="12.262135110585055"><ele>171.0</ele><time>2026-04-25T14:10:04.868Z</time></trkpt><trkpt lat="45.904681113122884" lon="12.262220202550136"><ele>171.99999999999997</ele><time>2026-04-25T14:10:06.868Z</time></trkpt><trkpt lat="45.90463534088221" lon="12.262295060889851"><ele>173.0</ele><time>2026-04-25T14:10:08.868Z</time></trkpt><trkpt lat="45.904584124575806" lon="12.26235352477672"><ele>174.0</ele><time>2026-04-25T14:10:10.868Z</time></trkpt><trkpt lat="45.904531689371844" lon="12.26242605892285"><ele>175.0</ele><time>2026-04-25T14:10:12.868Z</time></trkpt><trkpt lat="45.904484855795" lon="12.262495076234933"><ele>176.0</ele><time>2026-04-25T14:10:14.868Z</time></trkpt><trkpt lat="45.90443173500477" lon="12.26256451744905"><ele>176.99999999999997</ele><time>2026-04-25T14:10:16.868Z</time></trkpt><trkpt lat="45.904365052541" lon="12.26263320956374"><ele>178.0</ele><time>2026-04-25T14:10:18.868Z</time></trkpt><trkpt lat="45.90428741678958" lon="12.262724916899312"><ele>176.4</ele><time>2026-04-25T14:10:20.867Z</time></trkpt><trkpt lat="45.90422535044527" lon="12.26279414288565"><ele>174.8</ele><time>2026-04-25T14:10:22.867Z</time></trkpt><trkpt lat="45.90413482443086" lon="12.262823726108753"><ele>173.2</ele><time>2026-04-25T14:10:25.867Z</time></trkpt><trkpt lat="45.90404850956761" lon="12.262817860812811"><ele>171.6</ele><time>2026-04-25T14:10:27.867Z</time></trkpt><trkpt lat="45.903941278449146" lon="12.262798885655455"><ele>170.0</ele><time>2026-04-25T14:10:29.867Z</time></trkpt><trkpt lat="45.90382531564466" lon="12.262786452795165"><ele>170.0</ele><time>2026-04-25T14:10:31.867Z</time></trkpt><trkpt lat="45.903706364852205" lon="12.262761662255265"><ele>170.0</ele><time>2026-04-25T14:10:33.867Z</time></trkpt><trkpt lat="45.903589530550725" lon="12.262736138995338"><ele>170.0</ele><time>2026-04-25T14:10:35.867Z</time></trkpt><trkpt lat="45.90346478166583" lon="12.262723300376107"><ele>170.0</ele><time>2026-04-25T14:10:37.867Z</time></trkpt><trkpt lat="45.90334179816232" lon="12.26271175435506"><ele>169.85714285714286</ele><time>2026-04-25T14:10:39.867Z</time></trkpt><trkpt lat="45.90327525676558" lon="12.26269783318457"><ele>169.7142857142857</ele><time>2026-04-25T14:10:40.867Z</time></trkpt><trkpt lat="45.90320532621194" lon="12.262689267160745"><ele>169.57142857142856</ele><time>2026-04-25T14:10:41.867Z</time></trkpt><trkpt lat="45.90313451053194" lon="12.262673905028104"><ele>169.42857142857144</ele><time>2026-04-25T14:10:42.867Z</time></trkpt><trkpt lat="45.90306750079082" lon="12.262662418022515"><ele>169.28571428571428</ele><time>2026-04-25T14:10:43.867Z</time></trkpt><trkpt lat="45.90299840551557" lon="12.262645382466607"><ele>169.14285714285714</ele><time>2026-04-25T14:10:44.867Z</time></trkpt><trkpt lat="45.902915636436774" lon="12.26263446721492"><ele>169.0</ele><time>2026-04-25T14:10:45.867Z</time></trkpt><trkpt lat="45.90283168857536" lon="12.262625047038595"><ele>169.0</ele><time>2026-04-25T14:10:46.867Z</time></trkpt><trkpt lat="45.90274453211707" lon="12.262612311298728"><ele>169.0</ele><time>2026-04-25T14:10:47.867Z</time></trkpt><trkpt lat="45.902645845965196" lon="12.262604440528621"><ele>169.0</ele><time>2026-04-25T14:10:48.867Z</time></trkpt><trkpt lat="45.90255068941337" lon="12.26260240276223"><ele>169.0</ele><time>2026-04-25T14:10:49.867Z</time></trkpt><trkpt lat="45.90245236072401" lon="12.262597468210219"><ele>169.0</ele><time>2026-04-25T14:10:50.867Z</time></trkpt><trkpt lat="45.902347447924946" lon="12.262583668685329"><ele>166.5</ele><time>2026-04-25T14:10:51.867Z</time></trkpt><trkpt lat="45.90223773749371" lon="12.262566290027506"><ele>164.0</ele><time>2026-04-25T14:10:52.867Z</time></trkpt><trkpt lat="45.902122369344255" lon="12.262558272205567"><ele>161.5</ele><time>2026-04-25T14:10:53.867Z</time></trkpt><trkpt lat="45.90199937403081" lon="12.262556550795493"><ele>159.0</ele><time>2026-04-25T14:10:54.867Z</time></trkpt><trkpt lat="45.9018771235433" lon="12.262571108827535"><ele>159.0</ele><time>2026-04-25T14:10:55.867Z</time></trkpt><trkpt lat="45.901751151499376" lon="12.26257934632062"><ele>159.0</ele><time>2026-04-25T14:10:56.867Z</time></trkpt><trkpt lat="45.901614731102576" lon="12.262568485371037"><ele>159.0</ele><time>2026-04-25T14:10:57.867Z</time></trkpt><trkpt lat="45.901477464270144" lon="12.262537809468487"><ele>159.0</ele><time>2026-04-25T14:10:58.867Z</time></trkpt><trkpt lat="45.90134235773029" lon="12.262511469010239"><ele>155.75</ele><time>2026-04-25T14:10:59.867Z</time></trkpt><trkpt lat="45.9012100623727" lon="12.26250522939297"><ele>152.5</ele><time>2026-04-25T14:11:00.867Z</time></trkpt><trkpt lat="45.90107820138014" lon="12.262527732720223"><ele>149.25</ele><time>2026-04-25T14:11:01.867Z</time></trkpt><trkpt lat="45.90093826600873" lon="12.262578572137844"><ele>146.0</ele><time>2026-04-25T14:11:02.867Z</time></trkpt><trkpt lat="45.90080221025741" lon="12.262652644148357"><ele>143.25</ele><time>2026-04-25T14:11:03.867Z</time></trkpt><trkpt lat="45.90067325826431" lon="12.26273212021292"><ele>140.5</ele><time>2026-04-25T14:11:04.867Z</time></trkpt><trkpt lat="45.9005466211147" lon="12.262812978394598"><ele>137.75</ele><time>2026-04-25T14:11:05.867Z</time></trkpt><trkpt lat="45.900422089711974" lon="12.26289012298755"><ele>135.0</ele><time>2026-04-25T14:11:06.866Z</time></trkpt><trkpt lat="45.900303384853736" lon="12.262945523545941"><ele>135.0</ele><time>2026-04-25T14:11:07.866Z</time></trkpt><trkpt lat="45.90018011346599" lon="12.26299769901605"><ele>135.0</ele><time>2026-04-25T14:11:08.866Z</time></trkpt><trkpt lat="45.900057723149864" lon="12.2630156559925"><ele>135.0</ele><time>2026-04-25T14:11:09.866Z</time></trkpt><trkpt lat="45.89993219021568" lon="12.263021023608188"><ele>135.0</ele><time>2026-04-25T14:11:10.866Z</time></trkpt><trkpt lat="45.89980804244242" lon="12.263013236513972"><ele>134.2</ele><time>2026-04-25T14:11:11.866Z</time></trkpt><trkpt lat="45.89969138373052" lon="12.263009437447757"><ele>133.4</ele><time>2026-04-25T14:11:12.866Z</time></trkpt><trkpt lat="45.899577697895204" lon="12.26303475780937"><ele>132.6</ele><time>2026-04-25T14:11:13.866Z</time></trkpt><trkpt lat="45.89948022225331" lon="12.263069078533501"><ele>131.8</ele><time>2026-04-25T14:11:14.866Z</time></trkpt><trkpt lat="45.89938936531487" lon="12.263107965801359"><ele>131.0</ele><time>2026-04-25T14:11:15.866Z</time></trkpt><trkpt lat="45.8993060881011" lon="12.263143876977999"><ele>131.0</ele><time>2026-04-25T14:11:16.866Z</time></trkpt><trkpt lat="45.89923283081527" lon="12.263171996001937"><ele>131.0</ele><time>2026-04-25T14:11:17.866Z</time></trkpt><trkpt lat="45.89915817497658" lon="12.263206587610457"><ele>131.0</ele><time>2026-04-25T14:11:18.866Z</time></trkpt><trkpt lat="45.89908697811249" lon="12.263228028308962"><ele>131.0</ele><time>2026-04-25T14:11:19.866Z</time></trkpt><trkpt lat="45.899014588406985" lon="12.263259009805422"><ele>131.0</ele><time>2026-04-25T14:11:20.866Z</time></trkpt><trkpt lat="45.898951001898574" lon="12.263284578533266"><ele>131.0</ele><time>2026-04-25T14:11:21.866Z</time></trkpt><trkpt lat="45.89888696535206" lon="12.263325509168196"><ele>131.0</ele><time>2026-04-25T14:11:22.866Z</time></trkpt><trkpt lat="45.89882234845849" lon="12.263364586002082"><ele>131.0</ele><time>2026-04-25T14:11:23.866Z</time></trkpt><trkpt lat="45.898748646996985" lon="12.263397822961794"><ele>131.0</ele><time>2026-04-25T14:11:24.866Z</time></trkpt><trkpt lat="45.898681956550455" lon="12.263430863047349"><ele>131.0</ele><time>2026-04-25T14:11:25.866Z</time></trkpt><trkpt lat="45.8986116184831" lon="12.263472006777652"><ele>131.0</ele><time>2026-04-25T14:11:26.866Z</time></trkpt><trkpt lat="45.89854777448084" lon="12.263515743101223"><ele>131.0</ele><time>2026-04-25T14:11:27.866Z</time></trkpt><trkpt lat="45.89848209533846" lon="12.263565600756658"><ele>131.0</ele><time>2026-04-25T14:11:28.866Z</time></trkpt><trkpt lat="45.89841378646183" lon="12.263615279337671"><ele>131.0</ele><time>2026-04-25T14:11:29.866Z</time></trkpt><trkpt lat="45.89834059748941" lon="12.263666177063852"><ele>131.16666666666666</ele><time>2026-04-25T14:11:30.866Z</time></trkpt><trkpt lat="45.89826734250394" lon="12.263685333226496"><ele>131.33333333333331</ele><time>2026-04-25T14:11:31.866Z</time></trkpt><trkpt lat="45.89818839541069" lon="12.263677565711152"><ele>131.5</ele><time>2026-04-25T14:11:32.866Z</time></trkpt><trkpt lat="45.89811209479517" lon="12.26364120653026"><ele>131.66666666666666</ele><time>2026-04-25T14:11:33.866Z</time></trkpt><trkpt lat="45.8980464675265" lon="12.26359314413346"><ele>131.83333333333334</ele><time>2026-04-25T14:11:34.866Z</time></trkpt><trkpt lat="45.897971721949375" lon="12.263557468502386"><ele>132.0</ele><time>2026-04-25T14:11:35.866Z</time></trkpt><trkpt lat="45.8979028905799" lon="12.2635313325"><ele>132.0</ele><time>2026-04-25T14:11:36.866Z</time></trkpt><trkpt lat="45.897835090506184" lon="12.263506911256412"><ele>132.0</ele><time>2026-04-25T14:11:37.866Z</time></trkpt><trkpt lat="45.89776419415001" lon="12.263483546671395"><ele>132.0</ele><time>2026-04-25T14:11:38.866Z</time></trkpt><trkpt lat="45.897697465444566" lon="12.26346025068126"><ele>132.0</ele><time>2026-04-25T14:11:39.866Z</time></trkpt><trkpt lat="45.897623587435824" lon="12.263441381171422"><ele>132.0</ele><time>2026-04-25T14:11:40.866Z</time></trkpt><trkpt lat="45.89754540726924" lon="12.263424762497786"><ele>132.0</ele><time>2026-04-25T14:11:41.866Z</time></trkpt><trkpt lat="45.89746516692667" lon="12.263408356658822"><ele>132.0</ele><time>2026-04-25T14:11:42.866Z</time></trkpt><trkpt lat="45.89738405628032" lon="12.263390571547008"><ele>132.0</ele><time>2026-04-25T14:11:43.866Z</time></trkpt><trkpt lat="45.89729091848498" lon="12.26336478442386"><ele>132.0</ele><time>2026-04-25T14:11:44.865Z</time></trkpt><trkpt lat="45.89719904859517" lon="12.263346986479633"><ele>132.0</ele><time>2026-04-25T14:11:45.865Z</time></trkpt><trkpt lat="45.89710614335991" lon="12.263325810064874"><ele>132.0</ele><time>2026-04-25T14:11:46.866Z</time></trkpt><trkpt lat="45.89701659715411" lon="12.263307437532744"><ele>132.0</ele><time>2026-04-25T14:11:47.865Z</time></trkpt><trkpt lat="45.89691881555416" lon="12.263296373986043"><ele>132.0</ele><time>2026-04-25T14:11:48.865Z</time></trkpt><trkpt lat="45.89682423055385" lon="12.26327446733307"><ele>132.0</ele><time>2026-04-25T14:11:49.865Z</time></trkpt><trkpt lat="45.89673619658344" lon="12.263245112885045"><ele>132.0</ele><time>2026-04-25T14:11:50.865Z</time></trkpt><trkpt lat="45.896645601136825" lon="12.263219103327211"><ele>132.0</ele><time>2026-04-25T14:11:51.865Z</time></trkpt><trkpt lat="45.89655573107358" lon="12.263191773294773"><ele>132.0</ele><time>2026-04-25T14:11:52.865Z</time></trkpt><trkpt lat="45.896462779129415" lon="12.263167810423075"><ele>131.0</ele><time>2026-04-25T14:11:53.865Z</time></trkpt><trkpt lat="45.89637486164114" lon="12.2631488312435"><ele>130.0</ele><time>2026-04-25T14:11:54.865Z</time></trkpt><trkpt lat="45.8962823362803" lon="12.26313114635252"><ele>129.0</ele><time>2026-04-25T14:11:55.865Z</time></trkpt><trkpt lat="45.896194394371506" lon="12.26311624718426"><ele>128.0</ele><time>2026-04-25T14:11:56.865Z</time></trkpt><trkpt lat="45.89611043235084" lon="12.26309758109849"><ele>127.0</ele><time>2026-04-25T14:11:57.865Z</time></trkpt><trkpt lat="45.89603072082038" lon="12.263077393705984"><ele>126.0</ele><time>2026-04-25T14:11:58.865Z</time></trkpt><trkpt lat="45.89595477474334" lon="12.263054382674161"><ele>124.6</ele><time>2026-04-25T14:11:59.865Z</time></trkpt><trkpt lat="45.89588100069776" lon="12.263031358618937"><ele>123.19999999999999</ele><time>2026-04-25T14:12:00.865Z</time></trkpt><trkpt lat="45.895805503603825" lon="12.263011146785697"><ele>121.80000000000001</ele><time>2026-04-25T14:12:01.865Z</time></trkpt><trkpt lat="45.895732137344154" lon="12.263002040950628"><ele>120.4</ele><time>2026-04-25T14:12:02.865Z</time></trkpt><trkpt lat="45.89560623607534" lon="12.262973821015567"><ele>119.0</ele><time>2026-04-25T14:12:04.865Z</time></trkpt><trkpt lat="45.89548900624136" lon="12.262951577524118"><ele>119.0</ele><time>2026-04-25T14:12:06.865Z</time></trkpt><trkpt lat="45.89538794686957" lon="12.2629205193569"><ele>119.0</ele><time>2026-04-25T14:12:08.864Z</time></trkpt><trkpt lat="45.89535238967928" lon="12.26280809212133"><ele>119.0</ele><time>2026-04-25T14:12:10.864Z</time></trkpt><trkpt lat="45.895376027530986" lon="12.262626467672755"><ele>119.0</ele><time>2026-04-25T14:12:12.864Z</time></trkpt><trkpt lat="45.89538800489553" lon="12.262523299351848"><ele>119.0</ele><time>2026-04-25T14:12:13.864Z</time></trkpt><trkpt lat="45.89539126606942" lon="12.262401116958335"><ele>118.16666666666666</ele><time>2026-04-25T14:12:14.864Z</time></trkpt><trkpt lat="45.89539154616387" lon="12.262277693284325"><ele>117.33333333333333</ele><time>2026-04-25T14:12:15.864Z</time></trkpt><trkpt lat="45.89539622239231" lon="12.262168804939456"><ele>116.5</ele><time>2026-04-25T14:12:16.864Z</time></trkpt><trkpt lat="45.895403733961345" lon="12.26207814139899"><ele>115.66666666666666</ele><time>2026-04-25T14:12:17.864Z</time></trkpt><trkpt lat="45.89544456169809" lon="12.261950853274627"><ele>114.83333333333333</ele><time>2026-04-25T14:12:19.864Z</time></trkpt><trkpt lat="45.895543576708064" lon="12.261910969299143"><ele>114.0</ele><time>2026-04-25T14:12:21.864Z</time></trkpt><trkpt lat="45.8956066524262" lon="12.261936757614096"><ele>114.0</ele><time>2026-04-25T14:12:22.864Z</time></trkpt><trkpt lat="45.895702698241394" lon="12.261928501492614"><ele>114.0</ele><time>2026-04-25T14:12:24.864Z</time></trkpt><trkpt lat="45.895733283333115" lon="12.261759714196574"><ele>114.0</ele><time>2026-04-25T14:12:26.864Z</time></trkpt><trkpt lat="45.89572192811057" lon="12.261632803412438"><ele>114.0</ele><time>2026-04-25T14:12:27.864Z</time></trkpt><trkpt lat="45.89572621043155" lon="12.26149880064976"><ele>114.0</ele><time>2026-04-25T14:12:28.864Z</time></trkpt><trkpt lat="45.89575491102262" lon="12.261367444779708"><ele>113.80000000000001</ele><time>2026-04-25T14:12:29.864Z</time></trkpt><trkpt lat="45.89578282503637" lon="12.261227934449984"><ele>113.60000000000001</ele><time>2026-04-25T14:12:30.864Z</time></trkpt><trkpt lat="45.8958197359981" lon="12.26109893537071"><ele>113.4</ele><time>2026-04-25T14:12:31.864Z</time></trkpt><trkpt lat="45.895864417799" lon="12.260975800653327"><ele>113.2</ele><time>2026-04-25T14:12:32.864Z</time></trkpt><trkpt lat="45.89591719885734" lon="12.260877048008469"><ele>113.0</ele><time>2026-04-25T14:12:33.864Z</time></trkpt><trkpt lat="45.89597746838531" lon="12.260793730278682"><ele>114.16666666666666</ele><time>2026-04-25T14:12:34.864Z</time></trkpt><trkpt lat="45.896033427751675" lon="12.260730250990894"><ele>115.33333333333333</ele><time>2026-04-25T14:12:35.864Z</time></trkpt><trkpt lat="45.896086658271685" lon="12.260671783571276"><ele>116.5</ele><time>2026-04-25T14:12:36.864Z</time></trkpt><trkpt lat="45.89617934172001" lon="12.260574703993841"><ele>117.66666666666666</ele><time>2026-04-25T14:12:38.864Z</time></trkpt><trkpt lat="45.89625392627444" lon="12.260488962906722"><ele>118.83333333333333</ele><time>2026-04-25T14:12:40.864Z</time></trkpt><trkpt lat="45.89631546350569" lon="12.260405800044214"><ele>120.0</ele><time>2026-04-25T14:12:42.864Z</time></trkpt><trkpt lat="45.89636180401854" lon="12.26034055357285"><ele>120.5</ele><time>2026-04-25T14:12:44.864Z</time></trkpt><trkpt lat="45.896423107732176" lon="12.26025004470838"><ele>121.0</ele><time>2026-04-25T14:12:47.864Z</time></trkpt><trkpt lat="45.89647641979392" lon="12.26016494995416"><ele>121.5</ele><time>2026-04-25T14:12:50.864Z</time></trkpt><trkpt lat="45.89651663233262" lon="12.260070534564393"><ele>122.0</ele><time>2026-04-25T14:12:53.863Z</time></trkpt><trkpt lat="45.89656391392723" lon="12.259990286635071"><ele>122.5</ele><time>2026-04-25T14:12:56.863Z</time></trkpt><trkpt lat="45.896633421135334" lon="12.259959670209048"><ele>123.0</ele><time>2026-04-25T14:12:59.863Z</time></trkpt><trkpt lat="45.89669794510245" lon="12.259971654665948"><ele>123.0</ele><time>2026-04-25T14:13:02.863Z</time></trkpt><trkpt lat="45.896728875017175" lon="12.26006483578674"><ele>123.0</ele><time>2026-04-25T14:13:06.863Z</time></trkpt><trkpt lat="45.896723601033344" lon="12.260156543343275"><ele>123.0</ele><time>2026-04-25T14:13:10.863Z</time></trkpt><trkpt lat="45.89672149539302" lon="12.260279907164827"><ele>123.0</ele><time>2026-04-25T14:13:15.863Z</time></trkpt><trkpt lat="45.896718829589545" lon="12.260392173766496"><ele>123.0</ele><time>2026-04-25T14:13:20.863Z</time></trkpt><trkpt lat="45.89674701345935" lon="12.260487668997216"><ele>123.0</ele><time>2026-04-25T14:13:24.863Z</time></trkpt><trkpt lat="45.896817261090575" lon="12.260546605357684"><ele>123.85714285714288</ele><time>2026-04-25T14:13:28.863Z</time></trkpt><trkpt lat="45.896883334689605" lon="12.260533035678057"><ele>124.71428571428572</ele><time>2026-04-25T14:13:31.863Z</time></trkpt><trkpt lat="45.89692402667039" lon="12.260442138559581"><ele>125.57142857142857</ele><time>2026-04-25T14:13:35.863Z</time></trkpt><trkpt lat="45.89695255081768" lon="12.260354915231233"><ele>126.42857142857143</ele><time>2026-04-25T14:13:38.863Z</time></trkpt><trkpt lat="45.897001261884654" lon="12.260251280533165"><ele>127.28571428571428</ele><time>2026-04-25T14:13:42.862Z</time></trkpt><trkpt lat="45.89707888309218" lon="12.260236985116196"><ele>128.14285714285714</ele><time>2026-04-25T14:13:45.862Z</time></trkpt><trkpt lat="45.89712022768478" lon="12.260165728408627"><ele>129.0</ele><time>2026-04-25T14:13:47.862Z</time></trkpt><trkpt lat="45.89715787119936" lon="12.260070591743213"><ele>128.99999999999997</ele><time>2026-04-25T14:13:50Z</time></trkpt><trkpt lat="45.8971697341632" lon="12.259977178588015"><ele>129.0</ele><time>2026-04-25T14:13:52Z</time></trkpt><trkpt lat="45.897184593576945" lon="12.25987966113277"><ele>129.0</ele><time>2026-04-25T14:13:54Z</time></trkpt><trkpt lat="45.89721661584767" lon="12.259799558194771"><ele>129.0</ele><time>2026-04-25T14:13:56Z</time></trkpt><trkpt lat="45.897232596837284" lon="12.259708330858098"><ele>129.0</ele><time>2026-04-25T14:13:58Z</time></trkpt><trkpt lat="45.897253471316624" lon="12.259580409247341"><ele>128.99999999999997</ele><time>2026-04-25T14:14:01Z</time></trkpt><trkpt lat="45.897263328825815" lon="12.259479291383746"><ele>129.0</ele><time>2026-04-25T14:14:04Z</time></trkpt><trkpt lat="45.89720483703964" lon="12.259417424027443"><ele>129.0</ele><time>2026-04-25T14:14:06Z</time></trkpt><trkpt lat="45.89710401345774" lon="12.25936431919076"><ele>129.0</ele><time>2026-04-25T14:14:08Z</time></trkpt><trkpt lat="45.89701597111129" lon="12.25932869509413"><ele>129.0</ele><time>2026-04-25T14:14:10Z</time></trkpt><trkpt lat="45.89693489722107" lon="12.25926646075306"><ele>129.0</ele><time>2026-04-25T14:14:13Z</time></trkpt><trkpt lat="45.89687406698211" lon="12.25923506634763"><ele>129.0</ele><time>2026-04-25T14:14:14Z</time></trkpt><trkpt lat="45.896799094724386" lon="12.259202676429934"><ele>129.0</ele><time>2026-04-25T14:14:15Z</time></trkpt><trkpt lat="45.89673623927418" lon="12.259171004505356"><ele>128.85714285714283</ele><time>2026-04-25T14:14:16Z</time></trkpt><trkpt lat="45.896667667961765" lon="12.25914847784208"><ele>128.71428571428572</ele><time>2026-04-25T14:14:17Z</time></trkpt><trkpt lat="45.896605249871406" lon="12.259122817293864"><ele>128.57142857142856</ele><time>2026-04-25T14:14:18Z</time></trkpt><trkpt lat="45.89653697358658" lon="12.259103749960131"><ele>128.42857142857142</ele><time>2026-04-25T14:14:19Z</time></trkpt><trkpt lat="45.89647525825909" lon="12.259077054563528"><ele>128.28571428571428</ele><time>2026-04-25T14:14:20Z</time></trkpt><trkpt lat="45.8964032897833" lon="12.259046163823287"><ele>128.14285714285714</ele><time>2026-04-25T14:14:21Z</time></trkpt><trkpt lat="45.896327874268245" lon="12.259028694732097"><ele>128.0</ele><time>2026-04-25T14:14:22Z</time></trkpt><trkpt lat="45.896260767216276" lon="12.259004329473623"><ele>128.0</ele><time>2026-04-25T14:14:23Z</time></trkpt><trkpt lat="45.89619215893004" lon="12.258981238537679"><ele>127.99999999999999</ele><time>2026-04-25T14:14:24Z</time></trkpt><trkpt lat="45.89612454379339" lon="12.258953583847278"><ele>128.0</ele><time>2026-04-25T14:14:25Z</time></trkpt><trkpt lat="45.89606454964516" lon="12.258917641766283"><ele>128.0</ele><time>2026-04-25T14:14:26Z</time></trkpt><trkpt lat="45.8960023696621" lon="12.258886579595298"><ele>127.99999999999999</ele><time>2026-04-25T14:14:27Z</time></trkpt><trkpt lat="45.89593948975019" lon="12.258845009543771"><ele>128.0</ele><time>2026-04-25T14:14:28Z</time></trkpt><trkpt lat="45.89588029927988" lon="12.258801084718929"><ele>128.0</ele><time>2026-04-25T14:14:29Z</time></trkpt><trkpt lat="45.89582149152925" lon="12.258759949733992"><ele>127.49999999999999</ele><time>2026-04-25T14:14:30Z</time></trkpt><trkpt lat="45.895705627566485" lon="12.258676936143662"><ele>127.0</ele><time>2026-04-25T14:14:32Z</time></trkpt><trkpt lat="45.8956495811335" lon="12.25863552171575"><ele>126.5</ele><time>2026-04-25T14:14:33Z</time></trkpt><trkpt lat="45.89558772562824" lon="12.258593435777573"><ele>126.0</ele><time>2026-04-25T14:14:34Z</time></trkpt><trkpt lat="45.89552703709957" lon="12.258550417518682"><ele>125.49999999999999</ele><time>2026-04-25T14:14:35Z</time></trkpt><trkpt lat="45.89546874733476" lon="12.258516000586317"><ele>125.0</ele><time>2026-04-25T14:14:36Z</time></trkpt><trkpt lat="45.89539964318925" lon="12.258487648456828"><ele>124.99999999999999</ele><time>2026-04-25T14:14:37Z</time></trkpt><trkpt lat="45.89533549583782" lon="12.25845789876821"><ele>125.0</ele><time>2026-04-25T14:14:38Z</time></trkpt><trkpt lat="45.89519956416554" lon="12.258422351971445"><ele>125.0</ele><time>2026-04-25T14:14:40Z</time></trkpt><trkpt lat="45.895131089593576" lon="12.258398678244182"><ele>125.0</ele><time>2026-04-25T14:14:41Z</time></trkpt><trkpt lat="45.89506548812101" lon="12.25837975351526"><ele>124.99999999999999</ele><time>2026-04-25T14:14:42Z</time></trkpt><trkpt lat="45.894999798692474" lon="12.25836382175287"><ele>125.0</ele><time>2026-04-25T14:14:43Z</time></trkpt><trkpt lat="45.894929694168" lon="12.258347964734295"><ele>124.66666666666666</ele><time>2026-04-25T14:14:44Z</time></trkpt><trkpt lat="45.89485935326878" lon="12.258329198558549"><ele>124.33333333333333</ele><time>2026-04-25T14:14:45Z</time></trkpt><trkpt lat="45.89478469583519" lon="12.258307924562507"><ele>124.0</ele><time>2026-04-25T14:14:46Z</time></trkpt><trkpt lat="45.89471156679245" lon="12.258284019035228"><ele>123.66666666666666</ele><time>2026-04-25T14:14:47Z</time></trkpt><trkpt lat="45.894636346909124" lon="12.258250776412174"><ele>123.33333333333333</ele><time>2026-04-25T14:14:48Z</time></trkpt><trkpt lat="45.894560482943064" lon="12.258217258835622"><ele>123.0</ele><time>2026-04-25T14:14:49Z</time></trkpt><trkpt lat="45.89447662459348" lon="12.25817998833021"><ele>123.0</ele><time>2026-04-25T14:14:50Z</time></trkpt><trkpt lat="45.89439617338055" lon="12.25813724317532"><ele>123.0</ele><time>2026-04-25T14:14:51Z</time></trkpt><trkpt lat="45.89431766513466" lon="12.258095545433408"><ele>123.0</ele><time>2026-04-25T14:14:52Z</time></trkpt><trkpt lat="45.89424115286166" lon="12.258059316822779"><ele>123.0</ele><time>2026-04-25T14:14:53Z</time></trkpt><trkpt lat="45.89416785166459" lon="12.258020325182855"><ele>123.0</ele><time>2026-04-25T14:14:54Z</time></trkpt><trkpt lat="45.89409385052946" lon="12.2579824045668"><ele>123.0</ele><time>2026-04-25T14:14:55Z</time></trkpt><trkpt lat="45.89401800755606" lon="12.257954548609163"><ele>121.4</ele><time>2026-04-25T14:14:56Z</time></trkpt><trkpt lat="45.8939471933923" lon="12.257941383469054"><ele>119.80000000000001</ele><time>2026-04-25T14:14:57Z</time></trkpt><trkpt lat="45.89387870048748" lon="12.257937927061379"><ele>118.2</ele><time>2026-04-25T14:14:58Z</time></trkpt><trkpt lat="45.89380263309761" lon="12.25793931465046"><ele>116.6</ele><time>2026-04-25T14:14:59Z</time></trkpt><trkpt lat="45.89368414448799" lon="12.257931794469672"><ele>115.0</ele><time>2026-04-25T14:15:01Z</time></trkpt><trkpt lat="45.89355758715606" lon="12.257924640767019"><ele>115.00000000000001</ele><time>2026-04-25T14:15:03Z</time></trkpt><trkpt lat="45.89343561892246" lon="12.257929916626289"><ele>115.0</ele><time>2026-04-25T14:15:05Z</time></trkpt><trkpt lat="45.89332169621956" lon="12.257951751144859"><ele>115.0</ele><time>2026-04-25T14:15:07Z</time></trkpt><trkpt lat="45.89325797661182" lon="12.257967109791327"><ele>115.0</ele><time>2026-04-25T14:15:08Z</time></trkpt><trkpt lat="45.89318865850739" lon="12.257989108179512"><ele>115.00000000000001</ele><time>2026-04-25T14:15:09Z</time></trkpt><trkpt lat="45.89312313373547" lon="12.25798825898783"><ele>115.0</ele><time>2026-04-25T14:15:10Z</time></trkpt><trkpt lat="45.89305104635842" lon="12.258006252079287"><ele>115.16666666666667</ele><time>2026-04-25T14:15:11Z</time></trkpt><trkpt lat="45.89298329998413" lon="12.258019184902471"><ele>115.33333333333334</ele><time>2026-04-25T14:15:12Z</time></trkpt><trkpt lat="45.8929157267914" lon="12.258029682133937"><ele>115.5</ele><time>2026-04-25T14:15:13Z</time></trkpt><trkpt lat="45.89284530958993" lon="12.258041614141343"><ele>115.66666666666666</ele><time>2026-04-25T14:15:14Z</time></trkpt><trkpt lat="45.892715948982286" lon="12.258064704072746"><ele>115.83333333333333</ele><time>2026-04-25T14:15:16Z</time></trkpt><trkpt lat="45.892642342510946" lon="12.258080594061278"><ele>116.0</ele><time>2026-04-25T14:15:17Z</time></trkpt><trkpt lat="45.892570228818634" lon="12.258089414907111"><ele>116.14285714285717</ele><time>2026-04-25T14:15:18Z</time></trkpt><trkpt lat="45.89250164988502" lon="12.25809433631374"><ele>116.28571428571429</ele><time>2026-04-25T14:15:19Z</time></trkpt><trkpt lat="45.89243248655776" lon="12.258104289455428"><ele>116.42857142857144</ele><time>2026-04-25T14:15:20Z</time></trkpt><trkpt lat="45.89236472355543" lon="12.258114497334175"><ele>116.57142857142858</ele><time>2026-04-25T14:15:21Z</time></trkpt><trkpt lat="45.892293404522384" lon="12.258126561052817"><ele>116.71428571428572</ele><time>2026-04-25T14:15:22Z</time></trkpt><trkpt lat="45.89222191509734" lon="12.25813791939898"><ele>116.85714285714286</ele><time>2026-04-25T14:15:23Z</time></trkpt><trkpt lat="45.89214917953049" lon="12.258151269678809"><ele>117.0</ele><time>2026-04-25T14:15:24Z</time></trkpt><trkpt lat="45.89207776870549" lon="12.258159219293708"><ele>117.14285714285715</ele><time>2026-04-25T14:15:25Z</time></trkpt><trkpt lat="45.8920075644579" lon="12.258166649168935"><ele>117.2857142857143</ele><time>2026-04-25T14:15:26Z</time></trkpt><trkpt lat="45.89193661415676" lon="12.258173096395097"><ele>117.42857142857143</ele><time>2026-04-25T14:15:27Z</time></trkpt><trkpt lat="45.89186553978088" lon="12.258169169818645"><ele>117.57142857142858</ele><time>2026-04-25T14:15:28Z</time></trkpt><trkpt lat="45.89179613257062" lon="12.258148848536374"><ele>117.71428571428572</ele><time>2026-04-25T14:15:29Z</time></trkpt><trkpt lat="45.89172722659801" lon="12.258130168044106"><ele>117.85714285714286</ele><time>2026-04-25T14:15:30Z</time></trkpt><trkpt lat="45.89165709946482" lon="12.258105826847345"><ele>118.0</ele><time>2026-04-25T14:15:31Z</time></trkpt><trkpt lat="45.891590041509765" lon="12.258077023837481"><ele>117.33333333333334</ele><time>2026-04-25T14:15:32Z</time></trkpt><trkpt lat="45.89151798384152" lon="12.258053552715799"><ele>116.66666666666667</ele><time>2026-04-25T14:15:33Z</time></trkpt><trkpt lat="45.89145839936245" lon="12.258021718021215"><ele>116.0</ele><time>2026-04-25T14:15:34Z</time></trkpt><trkpt lat="45.891397355798986" lon="12.257987371658718"><ele>115.33333333333334</ele><time>2026-04-25T14:15:35Z</time></trkpt><trkpt lat="45.89133662798135" lon="12.257951114425131"><ele>114.66666666666667</ele><time>2026-04-25T14:15:36Z</time></trkpt><trkpt lat="45.89127557826852" lon="12.257921461224466"><ele>114.0</ele><time>2026-04-25T14:15:37Z</time></trkpt><trkpt lat="45.89116710013086" lon="12.257854618103506"><ele>114.0</ele><time>2026-04-25T14:15:39Z</time></trkpt><trkpt lat="45.891070415017595" lon="12.257785836771028"><ele>114.0</ele><time>2026-04-25T14:15:41Z</time></trkpt><trkpt lat="45.89098723764874" lon="12.257735397798843"><ele>114.0</ele><time>2026-04-25T14:15:43Z</time></trkpt><trkpt lat="45.89089779121596" lon="12.25772082078341"><ele>114.0</ele><time>2026-04-25T14:15:45Z</time></trkpt><trkpt lat="45.8908243228037" lon="12.25771888320858"><ele>114.0</ele><time>2026-04-25T14:15:47Z</time></trkpt><trkpt lat="45.89076037913798" lon="12.257722861859476"><ele>114.0</ele><time>2026-04-25T14:15:49Z</time></trkpt><trkpt lat="45.89069513740283" lon="12.257732125996316"><ele>114.85714285714285</ele><time>2026-04-25T14:15:51Z</time></trkpt><trkpt lat="45.89063247567031" lon="12.257765684342797"><ele>115.7142857142857</ele><time>2026-04-25T14:15:53Z</time></trkpt><trkpt lat="45.890569785123546" lon="12.257784299869083"><ele>116.57142857142857</ele><time>2026-04-25T14:15:55Z</time></trkpt><trkpt lat="45.89048366571847" lon="12.257797671315751"><ele>117.42857142857142</ele><time>2026-04-25T14:15:58.001Z</time></trkpt><trkpt lat="45.89042036397458" lon="12.257810798007785"><ele>118.28571428571428</ele><time>2026-04-25T14:16:01Z</time></trkpt><trkpt lat="45.89035163312473" lon="12.257789327548553"><ele>119.14285714285714</ele><time>2026-04-25T14:16:04Z</time></trkpt><trkpt lat="45.89028849948466" lon="12.257748658073634"><ele>120.0</ele><time>2026-04-25T14:16:07Z</time></trkpt><trkpt lat="45.890218168824305" lon="12.257700959891663"><ele>120.0</ele><time>2026-04-25T14:16:10Z</time></trkpt><trkpt lat="45.89016293707483" lon="12.257640835179783"><ele>120.0</ele><time>2026-04-25T14:16:13Z</time></trkpt><trkpt lat="45.89009750744833" lon="12.257594190336278"><ele>120.0</ele><time>2026-04-25T14:16:17Z</time></trkpt><trkpt lat="45.89003591451854" lon="12.257570911499247"><ele>120.0</ele><time>2026-04-25T14:16:21Z</time></trkpt><trkpt lat="45.88995822663427" lon="12.257531708327638"><ele>120.0</ele><time>2026-04-25T14:16:25Z</time></trkpt><trkpt lat="45.889868410408845" lon="12.257525943463266"><ele>120.0</ele><time>2026-04-25T14:16:28Z</time></trkpt><trkpt lat="45.88980453877714" lon="12.257527781186011"><ele>120.0</ele><time>2026-04-25T14:16:30Z</time></trkpt><trkpt lat="45.88972081111288" lon="12.257551652626312"><ele>121.42857142857143</ele><time>2026-04-25T14:16:33Z</time></trkpt><trkpt lat="45.88965894713377" lon="12.257582146490472"><ele>122.85714285714286</ele><time>2026-04-25T14:16:36Z</time></trkpt><trkpt lat="45.88958466453362" lon="12.25760348321901"><ele>124.28571428571429</ele><time>2026-04-25T14:16:39Z</time></trkpt><trkpt lat="45.88951674288105" lon="12.257631509417429"><ele>125.71428571428572</ele><time>2026-04-25T14:16:42Z</time></trkpt><trkpt lat="45.88944900472546" lon="12.257643455245079"><ele>127.14285714285714</ele><time>2026-04-25T14:16:45Z</time></trkpt><trkpt lat="45.88938155491739" lon="12.257659134243026"><ele>128.57142857142858</ele><time>2026-04-25T14:16:49Z</time></trkpt><trkpt lat="45.88932032474932" lon="12.257681859588777"><ele>130.0</ele><time>2026-04-25T14:16:53Z</time></trkpt><trkpt lat="45.889256907401055" lon="12.257727279456892"><ele>130.5</ele><time>2026-04-25T14:16:57Z</time></trkpt><trkpt lat="45.88920474297354" lon="12.257778161491174"><ele>131.0</ele><time>2026-04-25T14:17:00Z</time></trkpt><trkpt lat="45.88913557727837" lon="12.257832103436082"><ele>131.5</ele><time>2026-04-25T14:17:03Z</time></trkpt><trkpt lat="45.889060021438375" lon="12.257857248238293"><ele>132.0</ele><time>2026-04-25T14:17:06Z</time></trkpt><trkpt lat="45.88898653116141" lon="12.257923884155176"><ele>132.5</ele><time>2026-04-25T14:17:09Z</time></trkpt><trkpt lat="45.88891463612276" lon="12.257985074525802"><ele>133.0</ele><time>2026-04-25T14:17:12Z</time></trkpt><trkpt lat="45.888842864728204" lon="12.258034025636665"><ele>133.0</ele><time>2026-04-25T14:17:15Z</time></trkpt><trkpt lat="45.88878011347529" lon="12.25806508487061"><ele>133.0</ele><time>2026-04-25T14:17:17Z</time></trkpt><trkpt lat="45.88869872283106" lon="12.25805207226034"><ele>133.0</ele><time>2026-04-25T14:17:20Z</time></trkpt><trkpt lat="45.888619851161415" lon="12.257940066190308"><ele>133.0</ele><time>2026-04-25T14:17:23Z</time></trkpt><trkpt lat="45.88850035742908" lon="12.257854019104823"><ele>133.0</ele><time>2026-04-25T14:17:24Z</time></trkpt><trkpt lat="45.888389407116215" lon="12.25778934901843"><ele>134.0</ele><time>2026-04-25T14:17:25Z</time></trkpt><trkpt lat="45.88828708158489" lon="12.257740718174603"><ele>135.0</ele><time>2026-04-25T14:17:26Z</time></trkpt><trkpt lat="45.88819121742397" lon="12.25773318992713"><ele>136.0</ele><time>2026-04-25T14:17:27Z</time></trkpt><trkpt lat="45.888093873968536" lon="12.25774650696692"><ele>137.0</ele><time>2026-04-25T14:17:28Z</time></trkpt><trkpt lat="45.88800831927345" lon="12.257778196087735"><ele>138.0</ele><time>2026-04-25T14:17:29Z</time></trkpt><trkpt lat="45.887923189929516" lon="12.257816886728682"><ele>138.0</ele><time>2026-04-25T14:17:30Z</time></trkpt><trkpt lat="45.88780146339582" lon="12.25788560035997"><ele>138.0</ele><time>2026-04-25T14:17:31Z</time></trkpt><trkpt lat="45.88766525816183" lon="12.257914026714664"><ele>138.0</ele><time>2026-04-25T14:17:32Z</time></trkpt><trkpt lat="45.88753986161854" lon="12.257937866516983"><ele>138.0</ele><time>2026-04-25T14:17:33Z</time></trkpt><trkpt lat="45.88741785264973" lon="12.257969072468727"><ele>138.6</ele><time>2026-04-25T14:17:34Z</time></trkpt><trkpt lat="45.887298633807745" lon="12.257993649329672"><ele>139.20000000000002</ele><time>2026-04-25T14:17:35Z</time></trkpt><trkpt lat="45.887186304693415" lon="12.258012820734816"><ele>139.8</ele><time>2026-04-25T14:17:36Z</time></trkpt><trkpt lat="45.887080975317005" lon="12.258022498990934"><ele>140.4</ele><time>2026-04-25T14:17:37Z</time></trkpt><trkpt lat="45.88697953533661" lon="12.2580382892069"><ele>141.0</ele><time>2026-04-25T14:17:38Z</time></trkpt><trkpt lat="45.886884274933465" lon="12.258068874244357"><ele>141.0</ele><time>2026-04-25T14:17:39Z</time></trkpt><trkpt lat="45.886795899859266" lon="12.25809560350801"><ele>141.0</ele><time>2026-04-25T14:17:40Z</time></trkpt><trkpt lat="45.886712270123354" lon="12.258128035102317"><ele>141.0</ele><time>2026-04-25T14:17:41Z</time></trkpt><trkpt lat="45.88663188723008" lon="12.258191847695405"><ele>141.0</ele><time>2026-04-25T14:17:42Z</time></trkpt><trkpt lat="45.88655729069679" lon="12.258279017668565"><ele>141.0</ele><time>2026-04-25T14:17:43Z</time></trkpt><trkpt lat="45.88648890736192" lon="12.258375800271189"><ele>138.4</ele><time>2026-04-25T14:17:44Z</time></trkpt><trkpt lat="45.88641596401791" lon="12.258477623387813"><ele>135.8</ele><time>2026-04-25T14:17:45Z</time></trkpt><trkpt lat="45.88634297384789" lon="12.258579039508211"><ele>133.20000000000002</ele><time>2026-04-25T14:17:46Z</time></trkpt><trkpt lat="45.88627223693691" lon="12.258677829712125"><ele>130.6</ele><time>2026-04-25T14:17:47Z</time></trkpt><trkpt lat="45.88619668866528" lon="12.258763604378073"><ele>128.0</ele><time>2026-04-25T14:17:48Z</time></trkpt><trkpt lat="45.88611651593791" lon="12.258846485670754"><ele>128.0</ele><time>2026-04-25T14:17:49Z</time></trkpt><trkpt lat="45.88603258119377" lon="12.258926026529755"><ele>128.0</ele><time>2026-04-25T14:17:50Z</time></trkpt><trkpt lat="45.88594596790959" lon="12.258989894610782"><ele>128.0</ele><time>2026-04-25T14:17:51Z</time></trkpt><trkpt lat="45.88585458339719" lon="12.259033899126546"><ele>128.0</ele><time>2026-04-25T14:17:52Z</time></trkpt><trkpt lat="45.885749373601776" lon="12.25903683771826"><ele>128.0</ele><time>2026-04-25T14:17:53Z</time></trkpt><trkpt lat="45.885653842629864" lon="12.259008059476507"><ele>126.4</ele><time>2026-04-25T14:17:54Z</time></trkpt><trkpt lat="45.8855571035976" lon="12.259008368504164"><ele>124.80000000000001</ele><time>2026-04-25T14:17:55Z</time></trkpt><trkpt lat="45.88546254990714" lon="12.259026740272416"><ele>123.2</ele><time>2026-04-25T14:17:56Z</time></trkpt><trkpt lat="45.885365709350474" lon="12.25906781644307"><ele>121.6</ele><time>2026-04-25T14:17:57Z</time></trkpt><trkpt lat="45.88528393541351" lon="12.259135451536228"><ele>120.0</ele><time>2026-04-25T14:17:58Z</time></trkpt><trkpt lat="45.8852014551551" lon="12.259225197626243"><ele>120.0</ele><time>2026-04-25T14:17:59Z</time></trkpt><trkpt lat="45.88512245412662" lon="12.259316881851397"><ele>120.0</ele><time>2026-04-25T14:18:00Z</time></trkpt><trkpt lat="45.885036921284055" lon="12.259407779962789"><ele>120.0</ele><time>2026-04-25T14:18:01Z</time></trkpt><trkpt lat="45.884941681769185" lon="12.259475477568786"><ele>120.0</ele><time>2026-04-25T14:18:02Z</time></trkpt><trkpt lat="45.884839175795044" lon="12.259513592863453"><ele>120.0</ele><time>2026-04-25T14:18:03Z</time></trkpt><trkpt lat="45.884722571352974" lon="12.259530246567088"><ele>118.25</ele><time>2026-04-25T14:18:04Z</time></trkpt><trkpt lat="45.88460394478501" lon="12.259523235937753"><ele>116.5</ele><time>2026-04-25T14:18:05Z</time></trkpt><trkpt lat="45.88447970747816" lon="12.25952842807451"><ele>114.75</ele><time>2026-04-25T14:18:06Z</time></trkpt><trkpt lat="45.884353483919654" lon="12.259540234748108"><ele>113.0</ele><time>2026-04-25T14:18:07Z</time></trkpt><trkpt lat="45.88421372246674" lon="12.259554582589367"><ele>109.5</ele><time>2026-04-25T14:18:08Z</time></trkpt><trkpt lat="45.88408165604167" lon="12.259551223351341"><ele>106.0</ele><time>2026-04-25T14:18:09Z</time></trkpt><trkpt lat="45.88394321532207" lon="12.259554347785631"><ele>102.5</ele><time>2026-04-25T14:18:10Z</time></trkpt><trkpt lat="45.883809528050286" lon="12.259560242655347"><ele>99.0</ele><time>2026-04-25T14:18:11Z</time></trkpt><trkpt lat="45.8836696060857" lon="12.259580904653504"><ele>99.0</ele><time>2026-04-25T14:18:12Z</time></trkpt><trkpt lat="45.8835287057543" lon="12.259593020921923"><ele>99.0</ele><time>2026-04-25T14:18:13Z</time></trkpt><trkpt lat="45.883388231532464" lon="12.259596844521983"><ele>99.0</ele><time>2026-04-25T14:18:14Z</time></trkpt><trkpt lat="45.883242922410965" lon="12.259616354614085"><ele>99.0</ele><time>2026-04-25T14:18:15Z</time></trkpt><trkpt lat="45.88309496619573" lon="12.259640162336057"><ele>97.5</ele><time>2026-04-25T14:18:16Z</time></trkpt><trkpt lat="45.88295258144322" lon="12.259656356799027"><ele>96.0</ele><time>2026-04-25T14:18:17Z</time></trkpt><trkpt lat="45.882802583201695" lon="12.25966700253475"><ele>94.5</ele><time>2026-04-25T14:18:18Z</time></trkpt><trkpt lat="45.88265506314605" lon="12.259678304809688"><ele>93.0</ele><time>2026-04-25T14:18:19Z</time></trkpt><trkpt lat="45.88250778662313" lon="12.259689895956797"><ele>91.25</ele><time>2026-04-25T14:18:20Z</time></trkpt><trkpt lat="45.88236336334188" lon="12.259701983074079"><ele>89.5</ele><time>2026-04-25T14:18:21Z</time></trkpt><trkpt lat="45.8822222012145" lon="12.259714952426734"><ele>87.75</ele><time>2026-04-25T14:18:22Z</time></trkpt><trkpt lat="45.88208657610297" lon="12.259732206185214"><ele>86.0</ele><time>2026-04-25T14:18:23Z</time></trkpt><trkpt lat="45.88195653929279" lon="12.259749633833165"><ele>86.0</ele><time>2026-04-25T14:18:24Z</time></trkpt><trkpt lat="45.88183244221445" lon="12.259741008356256"><ele>86.0</ele><time>2026-04-25T14:18:25Z</time></trkpt><trkpt lat="45.88170655229006" lon="12.259726190940755"><ele>86.0</ele><time>2026-04-25T14:18:26Z</time></trkpt><trkpt lat="45.881597310646576" lon="12.259683970229057"><ele>86.0</ele><time>2026-04-25T14:18:27Z</time></trkpt><trkpt lat="45.8815047267836" lon="12.25962137294579"><ele>84.8</ele><time>2026-04-25T14:18:28Z</time></trkpt><trkpt lat="45.881424785533284" lon="12.259527751031131"><ele>83.6</ele><time>2026-04-25T14:18:29Z</time></trkpt><trkpt lat="45.88135525658092" lon="12.259421250396983"><ele>82.4</ele><time>2026-04-25T14:18:30Z</time></trkpt><trkpt lat="45.88130156407196" lon="12.259306130895727"><ele>81.2</ele><time>2026-04-25T14:18:31Z</time></trkpt><trkpt lat="45.881240764863016" lon="12.259194408517144"><ele>80.0</ele><time>2026-04-25T14:18:32Z</time></trkpt><trkpt lat="45.881181274119726" lon="12.259083416411029"><ele>80.0</ele><time>2026-04-25T14:18:33Z</time></trkpt><trkpt lat="45.88111708832413" lon="12.258984074224044"><ele>80.0</ele><time>2026-04-25T14:18:34Z</time></trkpt><trkpt lat="45.881044539310295" lon="12.258887147710881"><ele>80.0</ele><time>2026-04-25T14:18:35Z</time></trkpt><trkpt lat="45.88096995880261" lon="12.25879245375816"><ele>80.0</ele><time>2026-04-25T14:18:36Z</time></trkpt><trkpt lat="45.88089006127825" lon="12.258712044087677"><ele>80.0</ele><time>2026-04-25T14:18:37Z</time></trkpt><trkpt lat="45.88080549709764" lon="12.258640776463768"><ele>79.2</ele><time>2026-04-25T14:18:38Z</time></trkpt><trkpt lat="45.88072256103056" lon="12.258577973168903"><ele>78.4</ele><time>2026-04-25T14:18:39Z</time></trkpt><trkpt lat="45.88062499249881" lon="12.258528222132394"><ele>77.6</ele><time>2026-04-25T14:18:40Z</time></trkpt><trkpt lat="45.88053015634653" lon="12.258488405964183"><ele>76.8</ele><time>2026-04-25T14:18:41Z</time></trkpt><trkpt lat="45.88043695588524" lon="12.25846404656653"><ele>76.0</ele><time>2026-04-25T14:18:42Z</time></trkpt><trkpt lat="45.880340180582046" lon="12.258456942764946"><ele>76.0</ele><time>2026-04-25T14:18:43Z</time></trkpt><trkpt lat="45.88024209246068" lon="12.258453100839384"><ele>76.0</ele><time>2026-04-25T14:18:44Z</time></trkpt><trkpt lat="45.88014007465915" lon="12.258454356036488"><ele>76.0</ele><time>2026-04-25T14:18:45Z</time></trkpt><trkpt lat="45.880047695866224" lon="12.25845648568075"><ele>76.0</ele><time>2026-04-25T14:18:46Z</time></trkpt><trkpt lat="45.87995467125699" lon="12.25846456741592"><ele>76.0</ele><time>2026-04-25T14:18:47Z</time></trkpt><trkpt lat="45.87986355741251" lon="12.258473848932557"><ele>75.16666666666666</ele><time>2026-04-25T14:18:48Z</time></trkpt><trkpt lat="45.87977544558694" lon="12.258479470006147"><ele>74.33333333333333</ele><time>2026-04-25T14:18:49Z</time></trkpt><trkpt lat="45.87968596051182" lon="12.258494118825832"><ele>73.5</ele><time>2026-04-25T14:18:50Z</time></trkpt><trkpt lat="45.879596379701596" lon="12.258506293775586"><ele>72.66666666666667</ele><time>2026-04-25T14:18:51Z</time></trkpt><trkpt lat="45.879506781912255" lon="12.258523533061748"><ele>71.83333333333334</ele><time>2026-04-25T14:18:52Z</time></trkpt><trkpt lat="45.87942766638491" lon="12.25852355540042"><ele>71.0</ele><time>2026-04-25T14:18:53Z</time></trkpt><trkpt lat="45.87935201519878" lon="12.258512142143502"><ele>71.0</ele><time>2026-04-25T14:18:54Z</time></trkpt><trkpt lat="45.879273500832966" lon="12.258505878077518"><ele>71.0</ele><time>2026-04-25T14:18:55Z</time></trkpt><trkpt lat="45.87919494278388" lon="12.258507016743179"><ele>71.0</ele><time>2026-04-25T14:18:56Z</time></trkpt><trkpt lat="45.879115062438316" lon="12.258509762137534"><ele>71.0</ele><time>2026-04-25T14:18:57Z</time></trkpt><trkpt lat="45.8790315091279" lon="12.258526722230751"><ele>71.0</ele><time>2026-04-25T14:18:58Z</time></trkpt><trkpt lat="45.878954613385446" lon="12.258525344163775"><ele>71.0</ele><time>2026-04-25T14:18:59Z</time></trkpt><trkpt lat="45.87887715197247" lon="12.258500092440993"><ele>70.83333333333334</ele><time>2026-04-25T14:19:00Z</time></trkpt><trkpt lat="45.878806704419546" lon="12.258451175683833"><ele>70.66666666666667</ele><time>2026-04-25T14:19:01Z</time></trkpt><trkpt lat="45.87874379708019" lon="12.258375738891246"><ele>70.5</ele><time>2026-04-25T14:19:02Z</time></trkpt><trkpt lat="45.878700188036966" lon="12.258278982665079"><ele>70.33333333333333</ele><time>2026-04-25T14:19:03Z</time></trkpt><trkpt lat="45.87867521138149" lon="12.258178537198614"><ele>70.16666666666666</ele><time>2026-04-25T14:19:04Z</time></trkpt><trkpt lat="45.87865787645392" lon="12.258083019874448"><ele>70.0</ele><time>2026-04-25T14:19:05Z</time></trkpt><trkpt lat="45.87863314914824" lon="12.257994743357985"><ele>70.0</ele><time>2026-04-25T14:19:06Z</time></trkpt><trkpt lat="45.87860003946192" lon="12.257912633225619"><ele>70.0</ele><time>2026-04-25T14:19:07Z</time></trkpt><trkpt lat="45.87856168742343" lon="12.257833989472333"><ele>70.0</ele><time>2026-04-25T14:19:08Z</time></trkpt><trkpt lat="45.878511160653005" lon="12.257771682932837"><ele>70.0</ele><time>2026-04-25T14:19:09Z</time></trkpt><trkpt lat="45.87844698455278" lon="12.25773434416632"><ele>70.0</ele><time>2026-04-25T14:19:10Z</time></trkpt><trkpt lat="45.87831614380508" lon="12.2577328336692"><ele>70.0</ele><time>2026-04-25T14:19:12Z</time></trkpt><trkpt lat="45.87820824004766" lon="12.257753798674825"><ele>70.66666666666666</ele><time>2026-04-25T14:19:14Z</time></trkpt><trkpt lat="45.87809609821952" lon="12.257777365413412"><ele>71.33333333333333</ele><time>2026-04-25T14:19:16Z</time></trkpt><trkpt lat="45.87802728175084" lon="12.25777864206936"><ele>72.0</ele><time>2026-04-25T14:19:17Z</time></trkpt><trkpt lat="45.877960910493805" lon="12.257785111843413"><ele>72.66666666666667</ele><time>2026-04-25T14:19:18Z</time></trkpt><trkpt lat="45.8778968297081" lon="12.257792973022395"><ele>73.33333333333334</ele><time>2026-04-25T14:19:19Z</time></trkpt><trkpt lat="45.87782699587138" lon="12.257804241785708"><ele>74.0</ele><time>2026-04-25T14:19:20Z</time></trkpt><trkpt lat="45.877701675424525" lon="12.257815556683015"><ele>75.2</ele><time>2026-04-25T14:19:22Z</time></trkpt><trkpt lat="45.87757644534416" lon="12.257822132284893"><ele>76.4</ele><time>2026-04-25T14:19:24Z</time></trkpt><trkpt lat="45.87745677781646" lon="12.25781777334446"><ele>77.6</ele><time>2026-04-25T14:19:26Z</time></trkpt><trkpt lat="45.877340632437935" lon="12.257808294659998"><ele>78.8</ele><time>2026-04-25T14:19:28Z</time></trkpt><trkpt lat="45.87727716713515" lon="12.257810377464379"><ele>80.0</ele><time>2026-04-25T14:19:29Z</time></trkpt><trkpt lat="45.87715902097972" lon="12.257829978201718"><ele>80.0</ele><time>2026-04-25T14:19:31Z</time></trkpt><trkpt lat="45.87709144268728" lon="12.257840556647816"><ele>80.0</ele><time>2026-04-25T14:19:32Z</time></trkpt><trkpt lat="45.877026966895244" lon="12.257861063773364"><ele>80.0</ele><time>2026-04-25T14:19:33Z</time></trkpt><trkpt lat="45.87696272906439" lon="12.257877859930561"><ele>80.0</ele><time>2026-04-25T14:19:34Z</time></trkpt><trkpt lat="45.87684404395945" lon="12.257917182663139"><ele>80.0</ele><time>2026-04-25T14:19:36Z</time></trkpt><trkpt lat="45.87673144214867" lon="12.25798351591886"><ele>80.0</ele><time>2026-04-25T14:19:38Z</time></trkpt><trkpt lat="45.87666719196944" lon="12.258018217872886"><ele>78.5</ele><time>2026-04-25T14:19:39Z</time></trkpt><trkpt lat="45.876546458517005" lon="12.258088252452755"><ele>77.0</ele><time>2026-04-25T14:19:41Z</time></trkpt><trkpt lat="45.87646212470557" lon="12.258160810947864"><ele>75.5</ele><time>2026-04-25T14:19:43Z</time></trkpt><trkpt lat="45.87635605901875" lon="12.258227048288282"><ele>74.0</ele><time>2026-04-25T14:19:45Z</time></trkpt><trkpt lat="45.87623855017256" lon="12.258282748589984"><ele>74.0</ele><time>2026-04-25T14:19:47Z</time></trkpt><trkpt lat="45.876120309473116" lon="12.258336208652825"><ele>74.0</ele><time>2026-04-25T14:19:49Z</time></trkpt><trkpt lat="45.87604994715358" lon="12.258353352528449"><ele>74.0</ele><time>2026-04-25T14:19:50Z</time></trkpt><trkpt lat="45.87594272345048" lon="12.258394102715096"><ele>74.0</ele><time>2026-04-25T14:19:52Z</time></trkpt><trkpt lat="45.875835153043056" lon="12.258421913015658"><ele>74.0</ele><time>2026-04-25T14:19:54Z</time></trkpt><trkpt lat="45.875771690447635" lon="12.258432148961012"><ele>75.4</ele><time>2026-04-25T14:19:55Z</time></trkpt><trkpt lat="45.87565258563029" lon="12.258468831389065"><ele>76.80000000000001</ele><time>2026-04-25T14:19:57Z</time></trkpt><trkpt lat="45.87558917962255" lon="12.258487045609886"><ele>78.19999999999999</ele><time>2026-04-25T14:19:58Z</time></trkpt><trkpt lat="45.875468152700805" lon="12.258535441649256"><ele>79.6</ele><time>2026-04-25T14:20:00Z</time></trkpt><trkpt lat="45.87535179022495" lon="12.258614045941886"><ele>81.0</ele><time>2026-04-25T14:20:02Z</time></trkpt><trkpt lat="45.87528381112171" lon="12.25864420021201"><ele>81.0</ele><time>2026-04-25T14:20:03Z</time></trkpt><trkpt lat="45.87521480194629" lon="12.258667765196263"><ele>81.0</ele><time>2026-04-25T14:20:04Z</time></trkpt><trkpt lat="45.87515158771468" lon="12.258691871126969"><ele>81.0</ele><time>2026-04-25T14:20:05Z</time></trkpt><trkpt lat="45.875027759600826" lon="12.258739390860834"><ele>81.0</ele><time>2026-04-25T14:20:07Z</time></trkpt><trkpt lat="45.87495508725376" lon="12.258766057492748"><ele>81.0</ele><time>2026-04-25T14:20:08Z</time></trkpt><trkpt lat="45.87489238497191" lon="12.258807736768128"><ele>81.0</ele><time>2026-04-25T14:20:09Z</time></trkpt><trkpt lat="45.874824581978466" lon="12.258843313616918"><ele>81.71428571428572</ele><time>2026-04-25T14:20:10Z</time></trkpt><trkpt lat="45.874761137033786" lon="12.258881997706695"><ele>82.42857142857143</ele><time>2026-04-25T14:20:11Z</time></trkpt><trkpt lat="45.87469347425402" lon="12.258913789305735"><ele>83.14285714285714</ele><time>2026-04-25T14:20:12Z</time></trkpt><trkpt lat="45.874631479089" lon="12.25895292817373"><ele>83.85714285714286</ele><time>2026-04-25T14:20:13Z</time></trkpt><trkpt lat="45.874563582392184" lon="12.258976515466843"><ele>84.57142857142857</ele><time>2026-04-25T14:20:14Z</time></trkpt><trkpt lat="45.87449982309225" lon="12.25899512565759"><ele>85.28571428571429</ele><time>2026-04-25T14:20:15Z</time></trkpt><trkpt lat="45.87443356344907" lon="12.258993580842276"><ele>86.0</ele><time>2026-04-25T14:20:16Z</time></trkpt><trkpt lat="45.874369386159664" lon="12.25898850716361"><ele>85.19999999999999</ele><time>2026-04-25T14:20:17Z</time></trkpt><trkpt lat="45.8743054335523" lon="12.258978891139662"><ele>84.39999999999999</ele><time>2026-04-25T14:20:18Z</time></trkpt><trkpt lat="45.87419179938147" lon="12.258957355750404"><ele>83.6</ele><time>2026-04-25T14:20:20Z</time></trkpt><trkpt lat="45.874130200436085" lon="12.258937030306058"><ele>82.8</ele><time>2026-04-25T14:20:21Z</time></trkpt><trkpt lat="45.87401939958306" lon="12.258881914463164"><ele>82.0</ele><time>2026-04-25T14:20:23Z</time></trkpt><trkpt lat="45.873918506493034" lon="12.258812055614706"><ele>82.0</ele><time>2026-04-25T14:20:25Z</time></trkpt><trkpt lat="45.87383183550857" lon="12.258735795814165"><ele>82.0</ele><time>2026-04-25T14:20:27Z</time></trkpt><trkpt lat="45.873733279930626" lon="12.258663846480768"><ele>82.0</ele><time>2026-04-25T14:20:29Z</time></trkpt><trkpt lat="45.87365441471062" lon="12.258585827167328"><ele>82.0</ele><time>2026-04-25T14:20:31Z</time></trkpt><trkpt lat="45.87358814486189" lon="12.258535449273337"><ele>82.0</ele><time>2026-04-25T14:20:33Z</time></trkpt><trkpt lat="45.87351372435723" lon="12.25850587469095"><ele>82.0</ele><time>2026-04-25T14:20:35Z</time></trkpt><trkpt lat="45.87344365307796" lon="12.258514485448847"><ele>82.0</ele><time>2026-04-25T14:20:36Z</time></trkpt><trkpt lat="45.873351736896076" lon="12.258533058759792"><ele>82.0</ele><time>2026-04-25T14:20:38Z</time></trkpt><trkpt lat="45.87327248491737" lon="12.258565042600658"><ele>82.0</ele><time>2026-04-25T14:20:40Z</time></trkpt><trkpt lat="45.87319015293952" lon="12.258568259256617"><ele>82.0</ele><time>2026-04-25T14:20:43Z</time></trkpt><trkpt lat="45.873188824079264" lon="12.258453302097745"><ele>82.0</ele><time>2026-04-25T14:20:46Z</time></trkpt><trkpt lat="45.87325013080657" lon="12.258378708691424"><ele>81.71428571428571</ele><time>2026-04-25T14:20:48Z</time></trkpt><trkpt lat="45.87329806926035" lon="12.258295938239172"><ele>81.42857142857143</ele><time>2026-04-25T14:20:50Z</time></trkpt><trkpt lat="45.873341035192574" lon="12.258207852476678"><ele>81.14285714285714</ele><time>2026-04-25T14:20:52Z</time></trkpt><trkpt lat="45.87337796044919" lon="12.258129829482991"><ele>80.85714285714286</ele><time>2026-04-25T14:20:54Z</time></trkpt><trkpt lat="45.87342127774928" lon="12.258050112130697"><ele>80.57142857142857</ele><time>2026-04-25T14:20:56Z</time></trkpt><trkpt lat="45.873462005150344" lon="12.257969010375513"><ele>80.28571428571428</ele><time>2026-04-25T14:20:58Z</time></trkpt><trkpt lat="45.8734973183363" lon="12.257880739784499"><ele>80.0</ele><time>2026-04-25T14:21:00Z</time></trkpt><trkpt lat="45.87352821341875" lon="12.257780185666029"><ele>81.71428571428571</ele><time>2026-04-25T14:21:02Z</time></trkpt><trkpt lat="45.873557981641326" lon="12.257689730663893"><ele>83.42857142857143</ele><time>2026-04-25T14:21:04Z</time></trkpt><trkpt lat="45.87359002556194" lon="12.257595858744123"><ele>85.14285714285714</ele><time>2026-04-25T14:21:06Z</time></trkpt><trkpt lat="45.87361725275909" lon="12.257505174097869"><ele>86.85714285714286</ele><time>2026-04-25T14:21:08Z</time></trkpt><trkpt lat="45.87364764328997" lon="12.257417900998401"><ele>88.57142857142857</ele><time>2026-04-25T14:21:10Z</time></trkpt><trkpt lat="45.87368067284763" lon="12.257330520735266"><ele>90.28571428571429</ele><time>2026-04-25T14:21:12Z</time></trkpt><trkpt lat="45.87371053115415" lon="12.257236468391879"><ele>92.0</ele><time>2026-04-25T14:21:14Z</time></trkpt><trkpt lat="45.873742796130635" lon="12.257147574529073"><ele>92.16666666666667</ele><time>2026-04-25T14:21:16Z</time></trkpt><trkpt lat="45.873771574595345" lon="12.257060306879625"><ele>92.33333333333334</ele><time>2026-04-25T14:21:18Z</time></trkpt><trkpt lat="45.87379508898701" lon="12.256975159574187"><ele>92.5</ele><time>2026-04-25T14:21:20Z</time></trkpt><trkpt lat="45.873819885896026" lon="12.256878437729835"><ele>92.66666666666667</ele><time>2026-04-25T14:21:22Z</time></trkpt><trkpt lat="45.873855115288464" lon="12.256751553933858"><ele>92.83333333333333</ele><time>2026-04-25T14:21:25Z</time></trkpt><trkpt lat="45.87388487754796" lon="12.256619295804176"><ele>93.0</ele><time>2026-04-25T14:21:28Z</time></trkpt><trkpt lat="45.873912631696825" lon="12.256481718446933"><ele>93.16666666666667</ele><time>2026-04-25T14:21:31Z</time></trkpt><trkpt lat="45.87392135602336" lon="12.25638609794213"><ele>93.33333333333333</ele><time>2026-04-25T14:21:33Z</time></trkpt><trkpt lat="45.87393802709154" lon="12.256256601204203"><ele>93.5</ele><time>2026-04-25T14:21:36Z</time></trkpt><trkpt lat="45.873958324537384" lon="12.25614723149859"><ele>93.66666666666666</ele><time>2026-04-25T14:21:38Z</time></trkpt><trkpt lat="45.87396470124513" lon="12.256037838486298"><ele>93.83333333333333</ele><time>2026-04-25T14:21:42Z</time></trkpt><trkpt lat="45.87397273293892" lon="12.255923680896778"><ele>94.0</ele><time>2026-04-25T14:21:46Z</time></trkpt><trkpt lat="45.873977177541704" lon="12.255785154513632"><ele>94.0</ele><time>2026-04-25T14:21:49Z</time></trkpt><trkpt lat="45.87394728527612" lon="12.25567145047654"><ele>94.0</ele><time>2026-04-25T14:21:53Z</time></trkpt><trkpt lat="45.87389236594856" lon="12.2556192404051"><ele>94.0</ele><time>2026-04-25T14:21:55Z</time></trkpt><trkpt lat="45.87380119662212" lon="12.255607563733115"><ele>94.0</ele><time>2026-04-25T14:21:58Z</time></trkpt><trkpt lat="45.87368948056459" lon="12.255602457859554"><ele>94.0</ele><time>2026-04-25T14:22:01Z</time></trkpt><trkpt lat="45.87361269435217" lon="12.255596809347947"><ele>94.0</ele><time>2026-04-25T14:22:02Z</time></trkpt><trkpt lat="45.87353225983309" lon="12.255603601133764"><ele>94.0</ele><time>2026-04-25T14:22:03Z</time></trkpt><trkpt lat="45.8734555203669" lon="12.25560253518532"><ele>94.0</ele><time>2026-04-25T14:22:04Z</time></trkpt><trkpt lat="45.873382113069034" lon="12.255591195048972"><ele>94.0</ele><time>2026-04-25T14:22:05Z</time></trkpt><trkpt lat="45.87329425421238" lon="12.255607889924073"><ele>94.0</ele><time>2026-04-25T14:22:06Z</time></trkpt><trkpt lat="45.87320410082948" lon="12.25561959010817"><ele>94.0</ele><time>2026-04-25T14:22:07Z</time></trkpt><trkpt lat="45.873112918765116" lon="12.255637749706267"><ele>94.0</ele><time>2026-04-25T14:22:08Z</time></trkpt><trkpt lat="45.87301409233226" lon="12.255654608180906"><ele>92.0</ele><time>2026-04-25T14:22:09Z</time></trkpt><trkpt lat="45.87291888647783" lon="12.255666215326558"><ele>90.0</ele><time>2026-04-25T14:22:10Z</time></trkpt><trkpt lat="45.87281864057842" lon="12.255688211966913"><ele>88.0</ele><time>2026-04-25T14:22:11Z</time></trkpt><trkpt lat="45.87272326690013" lon="12.2556945780693"><ele>86.0</ele><time>2026-04-25T14:22:12Z</time></trkpt><trkpt lat="45.87262209729192" lon="12.255709329896447"><ele>84.0</ele><time>2026-04-25T14:22:13Z</time></trkpt><trkpt lat="45.87251491848045" lon="12.255729278557688"><ele>83.0</ele><time>2026-04-25T14:22:14Z</time></trkpt><trkpt lat="45.87241128960654" lon="12.255744775021995"><ele>82.0</ele><time>2026-04-25T14:22:15Z</time></trkpt><trkpt lat="45.8723005285032" lon="12.255763700634695"><ele>81.0</ele><time>2026-04-25T14:22:16Z</time></trkpt><trkpt lat="45.87219205972463" lon="12.2557736534439"><ele>80.0</ele><time>2026-04-25T14:22:17Z</time></trkpt><trkpt lat="45.87208208098263" lon="12.255785370433562"><ele>79.0</ele><time>2026-04-25T14:22:18Z</time></trkpt><trkpt lat="45.8719701690574" lon="12.255796427081735"><ele>79.0</ele><time>2026-04-25T14:22:19Z</time></trkpt><trkpt lat="45.87185135190745" lon="12.255810853577904"><ele>79.0</ele><time>2026-04-25T14:22:20Z</time></trkpt><trkpt lat="45.87172908673641" lon="12.25583048090865"><ele>79.0</ele><time>2026-04-25T14:22:21Z</time></trkpt><trkpt lat="45.87161054732676" lon="12.25584931158727"><ele>79.0</ele><time>2026-04-25T14:22:22Z</time></trkpt><trkpt lat="45.871490828245996" lon="12.255874179946668"><ele>76.8</ele><time>2026-04-25T14:22:23Z</time></trkpt><trkpt lat="45.87137804582748" lon="12.255887414859847"><ele>74.60000000000001</ele><time>2026-04-25T14:22:24Z</time></trkpt><trkpt lat="45.871262379394" lon="12.255902446874176"><ele>72.4</ele><time>2026-04-25T14:22:25Z</time></trkpt><trkpt lat="45.87115869695647" lon="12.255913981414125"><ele>70.2</ele><time>2026-04-25T14:22:26Z</time></trkpt><trkpt lat="45.87106867523576" lon="12.255919089091194"><ele>68.0</ele><time>2026-04-25T14:22:27Z</time></trkpt><trkpt lat="45.870994201753504" lon="12.255928443314232"><ele>68.0</ele><time>2026-04-25T14:22:28Z</time></trkpt><trkpt lat="45.870885833460065" lon="12.255912303294103"><ele>68.0</ele><time>2026-04-25T14:22:30Z</time></trkpt><trkpt lat="45.87081621636539" lon="12.25586670316537"><ele>68.0</ele><time>2026-04-25T14:22:32Z</time></trkpt><trkpt lat="45.87077440450638" lon="12.255764225276247"><ele>68.0</ele><time>2026-04-25T14:22:35Z</time></trkpt><trkpt lat="45.87075781220593" lon="12.25564972133427"><ele>68.0</ele><time>2026-04-25T14:22:37Z</time></trkpt><trkpt lat="45.870771291147875" lon="12.2555131300793"><ele>68.0</ele><time>2026-04-25T14:22:39Z</time></trkpt><trkpt lat="45.870767425306916" lon="12.255371140312887"><ele>68.0</ele><time>2026-04-25T14:22:41Z</time></trkpt><trkpt lat="45.87078009927984" lon="12.255226077734067"><ele>68.0</ele><time>2026-04-25T14:22:43Z</time></trkpt><trkpt lat="45.87079883429449" lon="12.255075831871304"><ele>68.0</ele><time>2026-04-25T14:22:45Z</time></trkpt><trkpt lat="45.87086473385148" lon="12.25493921261983"><ele>68.0</ele><time>2026-04-25T14:22:47Z</time></trkpt><trkpt lat="45.87094004581382" lon="12.25482619361239"><ele>68.0</ele><time>2026-04-25T14:22:49Z</time></trkpt><trkpt lat="45.87101285971626" lon="12.25471645882735"><ele>68.4</ele><time>2026-04-25T14:22:51Z</time></trkpt><trkpt lat="45.8710954247521" lon="12.254605064360211"><ele>68.8</ele><time>2026-04-25T14:22:53Z</time></trkpt><trkpt lat="45.871168367602486" lon="12.254485537492725"><ele>69.2</ele><time>2026-04-25T14:22:55Z</time></trkpt><trkpt lat="45.8712484472917" lon="12.254367237616917"><ele>69.6</ele><time>2026-04-25T14:22:57Z</time></trkpt><trkpt lat="45.87132438412735" lon="12.25425594717233"><ele>70.0</ele><time>2026-04-25T14:22:59Z</time></trkpt><trkpt lat="45.871395102216574" lon="12.254129863218534"><ele>70.0</ele><time>2026-04-25T14:23:01Z</time></trkpt><trkpt lat="45.87143816189384" lon="12.253996121547063"><ele>70.0</ele><time>2026-04-25T14:23:03Z</time></trkpt><trkpt lat="45.871424682552686" lon="12.253836281232957"><ele>70.0</ele><time>2026-04-25T14:23:05Z</time></trkpt><trkpt lat="45.8714073740558" lon="12.253687753653422"><ele>70.0</ele><time>2026-04-25T14:23:07Z</time></trkpt><trkpt lat="45.87149965017724" lon="12.253587221897034"><ele>70.0</ele><time>2026-04-25T14:23:09Z</time></trkpt><trkpt lat="45.87155598926722" lon="12.253541631986256"><ele>70.2</ele><time>2026-04-25T14:23:10Z</time></trkpt><trkpt lat="45.87164916237526" lon="12.25345505844382"><ele>70.4</ele><time>2026-04-25T14:23:12Z</time></trkpt><trkpt lat="45.87173224111703" lon="12.253352468504588"><ele>70.6</ele><time>2026-04-25T14:23:14Z</time></trkpt><trkpt lat="45.87181194067613" lon="12.253251052631887"><ele>70.8</ele><time>2026-04-25T14:23:16Z</time></trkpt><trkpt lat="45.871892264158085" lon="12.253153808940954"><ele>71.0</ele><time>2026-04-25T14:23:18Z</time></trkpt><trkpt lat="45.87196730343115" lon="12.253058026511427"><ele>71.6</ele><time>2026-04-25T14:23:20Z</time></trkpt><trkpt lat="45.872047113484385" lon="12.252955952782816"><ele>72.19999999999999</ele><time>2026-04-25T14:23:22Z</time></trkpt><trkpt lat="45.87211583207962" lon="12.252849342819838"><ele>72.80000000000001</ele><time>2026-04-25T14:23:24Z</time></trkpt><trkpt lat="45.87218892861486" lon="12.252739920785649"><ele>73.4</ele><time>2026-04-25T14:23:26Z</time></trkpt><trkpt lat="45.87225807810908" lon="12.252632973654762"><ele>74.0</ele><time>2026-04-25T14:23:28Z</time></trkpt><trkpt lat="45.87232852363639" lon="12.252542538730337"><ele>74.0</ele><time>2026-04-25T14:23:30Z</time></trkpt><trkpt lat="45.87239486546925" lon="12.25244341834306"><ele>74.0</ele><time>2026-04-25T14:23:32Z</time></trkpt><trkpt lat="45.872448264496015" lon="12.252329952812254"><ele>74.0</ele><time>2026-04-25T14:23:34Z</time></trkpt><trkpt lat="45.872434278819476" lon="12.25221315303545"><ele>74.0</ele><time>2026-04-25T14:23:36Z</time></trkpt><trkpt lat="45.87238500741621" lon="12.252151312335984"><ele>74.0</ele><time>2026-04-25T14:23:37Z</time></trkpt><trkpt lat="45.872333807556046" lon="12.2520400812679"><ele>74.0</ele><time>2026-04-25T14:23:39Z</time></trkpt><trkpt lat="45.8722896854843" lon="12.251908181397512"><ele>74.4</ele><time>2026-04-25T14:23:41Z</time></trkpt><trkpt lat="45.8722610598181" lon="12.25177294767995"><ele>74.80000000000001</ele><time>2026-04-25T14:23:43Z</time></trkpt><trkpt lat="45.87224260961592" lon="12.251637848700248"><ele>75.19999999999999</ele><time>2026-04-25T14:23:45Z</time></trkpt><trkpt lat="45.872217002282696" lon="12.25150088801758"><ele>75.6</ele><time>2026-04-25T14:23:47Z</time></trkpt><trkpt lat="45.872188090232804" lon="12.251367807206478"><ele>76.0</ele><time>2026-04-25T14:23:49Z</time></trkpt><trkpt lat="45.872170047101285" lon="12.251222335301716"><ele>76.0</ele><time>2026-04-25T14:23:51Z</time></trkpt><trkpt lat="45.87216133052033" lon="12.25107127136758"><ele>76.0</ele><time>2026-04-25T14:23:53Z</time></trkpt><trkpt lat="45.87215100026945" lon="12.250923598816868"><ele>76.0</ele><time>2026-04-25T14:23:55Z</time></trkpt><trkpt lat="45.8721327497931" lon="12.250764939497854"><ele>76.0</ele><time>2026-04-25T14:23:57Z</time></trkpt><trkpt lat="45.87211435354002" lon="12.25064131240741"><ele>76.0</ele><time>2026-04-25T14:23:59Z</time></trkpt><trkpt lat="45.8721339324994" lon="12.250530778495122"><ele>76.0</ele><time>2026-04-25T14:24:01Z</time></trkpt><trkpt lat="45.87222413988875" lon="12.250516873789923"><ele>76.0</ele><time>2026-04-25T14:24:03Z</time></trkpt><trkpt lat="45.87231816596538" lon="12.25049114288591"><ele>76.0</ele><time>2026-04-25T14:24:05Z</time></trkpt><trkpt lat="45.8723800808703" lon="12.250436930781323"><ele>76.0</ele><time>2026-04-25T14:24:07Z</time></trkpt><trkpt lat="45.8724589386623" lon="12.250368981819863"><ele>76.0</ele><time>2026-04-25T14:24:09Z</time></trkpt><trkpt lat="45.8725236051614" lon="12.250287580547862"><ele>76.0</ele><time>2026-04-25T14:24:11Z</time></trkpt><trkpt lat="45.87259461523799" lon="12.25020321979073"><ele>76.6</ele><time>2026-04-25T14:24:13Z</time></trkpt><trkpt lat="45.87265442036645" lon="12.250116142024842"><ele>77.19999999999999</ele><time>2026-04-25T14:24:15Z</time></trkpt><trkpt lat="45.87271394514724" lon="12.250024448657053"><ele>77.80000000000001</ele><time>2026-04-25T14:24:17Z</time></trkpt><trkpt lat="45.87278016086501" lon="12.249935320114494"><ele>78.4</ele><time>2026-04-25T14:24:19Z</time></trkpt><trkpt lat="45.87283911443721" lon="12.249834525201678"><ele>79.0</ele><time>2026-04-25T14:24:21Z</time></trkpt><trkpt lat="45.87289948391878" lon="12.249723983446742"><ele>79.0</ele><time>2026-04-25T14:24:23Z</time></trkpt><trkpt lat="45.8729514879249" lon="12.249589590009897"><ele>79.0</ele><time>2026-04-25T14:24:25Z</time></trkpt><trkpt lat="45.87299613871053" lon="12.249442676028648"><ele>79.0</ele><time>2026-04-25T14:24:27Z</time></trkpt><trkpt lat="45.87302727134358" lon="12.24928902304347"><ele>79.0</ele><time>2026-04-25T14:24:29Z</time></trkpt><trkpt lat="45.87305637030053" lon="12.249122373063672"><ele>79.0</ele><time>2026-04-25T14:24:31Z</time></trkpt><trkpt lat="45.873095732103224" lon="12.248965090143303"><ele>79.0</ele><time>2026-04-25T14:24:33Z</time></trkpt><trkpt lat="45.87312558702884" lon="12.24887928375673"><ele>79.0</ele><time>2026-04-25T14:24:34Z</time></trkpt><trkpt lat="45.87315738014613" lon="12.248800451907497"><ele>79.0</ele><time>2026-04-25T14:24:35Z</time></trkpt><trkpt lat="45.8732212494489" lon="12.248648095730335"><ele>79.0</ele><time>2026-04-25T14:24:37Z</time></trkpt><trkpt lat="45.87328257243634" lon="12.248496774042234"><ele>78.60000000000001</ele><time>2026-04-25T14:24:39Z</time></trkpt><trkpt lat="45.87334758784961" lon="12.24833021582597"><ele>78.2</ele><time>2026-04-25T14:24:41Z</time></trkpt><trkpt lat="45.8733794147011" lon="12.248250416663284"><ele>77.80000000000001</ele><time>2026-04-25T14:24:42Z</time></trkpt><trkpt lat="45.87340883200188" lon="12.248169769908568"><ele>77.4</ele><time>2026-04-25T14:24:43Z</time></trkpt><trkpt lat="45.87347402027404" lon="12.248017192476818"><ele>77.0</ele><time>2026-04-25T14:24:45Z</time></trkpt><trkpt lat="45.87353460607307" lon="12.247865051609448"><ele>77.0</ele><time>2026-04-25T14:24:47Z</time></trkpt><trkpt lat="45.87356773263117" lon="12.247787529293188"><ele>77.0</ele><time>2026-04-25T14:24:48Z</time></trkpt><trkpt lat="45.87363281125882" lon="12.247630862275296"><ele>77.0</ele><time>2026-04-25T14:24:50Z</time></trkpt><trkpt lat="45.873665948548016" lon="12.247548544185065"><ele>77.0</ele><time>2026-04-25T14:24:51Z</time></trkpt><trkpt lat="45.87369789844156" lon="12.247464226708649"><ele>77.0</ele><time>2026-04-25T14:24:52Z</time></trkpt><trkpt lat="45.87373094362679" lon="12.247376783735557"><ele>77.0</ele><time>2026-04-25T14:24:53Z</time></trkpt><trkpt lat="45.87376743519058" lon="12.247288784115339"><ele>76.71428571428571</ele><time>2026-04-25T14:24:54Z</time></trkpt><trkpt lat="45.87379678040306" lon="12.247196265186135"><ele>76.42857142857143</ele><time>2026-04-25T14:24:55Z</time></trkpt><trkpt lat="45.873829436503165" lon="12.247107292980633"><ele>76.14285714285714</ele><time>2026-04-25T14:24:56Z</time></trkpt><trkpt lat="45.87385962299514" lon="12.247016742351189"><ele>75.85714285714286</ele><time>2026-04-25T14:24:57Z</time></trkpt><trkpt lat="45.87388670934928" lon="12.246916378587624"><ele>75.57142857142857</ele><time>2026-04-25T14:24:58Z</time></trkpt><trkpt lat="45.873915729535845" lon="12.246823842952681"><ele>75.28571428571428</ele><time>2026-04-25T14:24:59Z</time></trkpt><trkpt lat="45.873947817540234" lon="12.246727844316387"><ele>75.0</ele><time>2026-04-25T14:25:00Z</time></trkpt><trkpt lat="45.87397853383799" lon="12.246627973722578"><ele>74.99999999999999</ele><time>2026-04-25T14:25:01Z</time></trkpt><trkpt lat="45.874011728106936" lon="12.246536361019889"><ele>75.0</ele><time>2026-04-25T14:25:02Z</time></trkpt><trkpt lat="45.87404946575525" lon="12.246445379383632"><ele>75.0</ele><time>2026-04-25T14:25:03Z</time></trkpt><trkpt lat="45.87408875440397" lon="12.246358346456294"><ele>75.0</ele><time>2026-04-25T14:25:04Z</time></trkpt><trkpt lat="45.87413911728946" lon="12.246286971183547"><ele>75.0</ele><time>2026-04-25T14:25:05Z</time></trkpt><trkpt lat="45.874192630149516" lon="12.246226333976994"><ele>74.99999999999999</ele><time>2026-04-25T14:25:06Z</time></trkpt><trkpt lat="45.87424942232097" lon="12.246163275585305"><ele>75.0</ele><time>2026-04-25T14:25:07Z</time></trkpt><trkpt lat="45.87430291310508" lon="12.246093162877138"><ele>75.28571428571428</ele><time>2026-04-25T14:25:08Z</time></trkpt><trkpt lat="45.874357181993894" lon="12.246023348299914"><ele>75.57142857142857</ele><time>2026-04-25T14:25:09Z</time></trkpt><trkpt lat="45.87441223988006" lon="12.245958844745857"><ele>75.85714285714286</ele><time>2026-04-25T14:25:10Z</time></trkpt><trkpt lat="45.874469648606706" lon="12.245892462910053"><ele>76.14285714285714</ele><time>2026-04-25T14:25:11Z</time></trkpt><trkpt lat="45.87451905722173" lon="12.245819840505868"><ele>76.42857142857143</ele><time>2026-04-25T14:25:12Z</time></trkpt><trkpt lat="45.874570204898724" lon="12.245748645176533"><ele>76.71428571428571</ele><time>2026-04-25T14:25:13Z</time></trkpt><trkpt lat="45.87462139566095" lon="12.245686937635373"><ele>77.0</ele><time>2026-04-25T14:25:14Z</time></trkpt><trkpt lat="45.87467354507178" lon="12.245623692444944"><ele>77.0</ele><time>2026-04-25T14:25:15Z</time></trkpt><trkpt lat="45.8747232396687" lon="12.24556251705958"><ele>77.0</ele><time>2026-04-25T14:25:16Z</time></trkpt><trkpt lat="45.87477026265484" lon="12.245500852913908"><ele>77.0</ele><time>2026-04-25T14:25:17Z</time></trkpt><trkpt lat="45.87481961217482" lon="12.245438686513308"><ele>77.0</ele><time>2026-04-25T14:25:18Z</time></trkpt><trkpt lat="45.87486605347668" lon="12.245375473756772"><ele>77.0</ele><time>2026-04-25T14:25:19Z</time></trkpt><trkpt lat="45.87496080924611" lon="12.245256238563496"><ele>77.0</ele><time>2026-04-25T14:25:21Z</time></trkpt><trkpt lat="45.87500772970482" lon="12.245195339819253"><ele>77.0</ele><time>2026-04-25T14:25:22Z</time></trkpt><trkpt lat="45.875046120977935" lon="12.245122699525357"><ele>78.4</ele><time>2026-04-25T14:25:23Z</time></trkpt><trkpt lat="45.87511321831715" lon="12.244987572316479"><ele>79.80000000000001</ele><time>2026-04-25T14:25:25Z</time></trkpt><trkpt lat="45.875149482876076" lon="12.244827991770109"><ele>81.2</ele><time>2026-04-25T14:25:27Z</time></trkpt><trkpt lat="45.875145642072596" lon="12.244649956567988"><ele>82.60000000000001</ele><time>2026-04-25T14:25:29Z</time></trkpt><trkpt lat="45.875135974969176" lon="12.244556558888574"><ele>84.0</ele><time>2026-04-25T14:25:30Z</time></trkpt><trkpt lat="45.87511753253209" lon="12.244385810791528"><ele>82.66666666666667</ele><time>2026-04-25T14:25:32Z</time></trkpt><trkpt lat="45.87508472528321" lon="12.244213795165647"><ele>81.33333333333333</ele><time>2026-04-25T14:25:34Z</time></trkpt><trkpt lat="45.87506256893255" lon="12.244125998305492"><ele>80.0</ele><time>2026-04-25T14:25:35Z</time></trkpt><trkpt lat="45.87502325291398" lon="12.24404554197769"><ele>78.66666666666666</ele><time>2026-04-25T14:25:36Z</time></trkpt><trkpt lat="45.87499017711707" lon="12.24396706795881"><ele>77.33333333333333</ele><time>2026-04-25T14:25:37Z</time></trkpt><trkpt lat="45.87495710239337" lon="12.243881392237865"><ele>76.0</ele><time>2026-04-25T14:25:38Z</time></trkpt><trkpt lat="45.874919878528104" lon="12.243804378901654"><ele>76.0</ele><time>2026-04-25T14:25:39Z</time></trkpt><trkpt lat="45.874876509820325" lon="12.243737723760692"><ele>76.0</ele><time>2026-04-25T14:25:40Z</time></trkpt><trkpt lat="45.874796512340325" lon="12.243641008173055"><ele>76.0</ele><time>2026-04-25T14:25:42Z</time></trkpt><trkpt lat="45.874719197738095" lon="12.243567162056515"><ele>76.0</ele><time>2026-04-25T14:25:44Z</time></trkpt><trkpt lat="45.87467463931944" lon="12.243425468348791"><ele>76.0</ele><time>2026-04-25T14:25:46Z</time></trkpt><trkpt lat="45.874680711903714" lon="12.243331899550924"><ele>76.0</ele><time>2026-04-25T14:25:47Z</time></trkpt><trkpt lat="45.874689372022004" lon="12.243235270881893"><ele>76.0</ele><time>2026-04-25T14:25:48Z</time></trkpt><trkpt lat="45.8746953947098" lon="12.243139388760083"><ele>76.0</ele><time>2026-04-25T14:25:49Z</time></trkpt><trkpt lat="45.87472152886878" lon="12.242973480913957"><ele>76.0</ele><time>2026-04-25T14:25:51Z</time></trkpt><trkpt lat="45.87476484113549" lon="12.242813959184666"><ele>76.0</ele><time>2026-04-25T14:25:53Z</time></trkpt><trkpt lat="45.87481087009025" lon="12.242680681970509"><ele>76.0</ele><time>2026-04-25T14:25:55Z</time></trkpt><trkpt lat="45.87485795626685" lon="12.24254313502705"><ele>75.8</ele><time>2026-04-25T14:25:57Z</time></trkpt><trkpt lat="45.87489246240845" lon="12.242400934059301"><ele>75.6</ele><time>2026-04-25T14:25:59Z</time></trkpt><trkpt lat="45.87489984617127" lon="12.24224130858732"><ele>75.4</ele><time>2026-04-25T14:26:01Z</time></trkpt><trkpt lat="45.87485881025483" lon="12.242093998233772"><ele>75.2</ele><time>2026-04-25T14:26:03Z</time></trkpt><trkpt lat="45.8747869095058" lon="12.241965697574035"><ele>75.0</ele><time>2026-04-25T14:26:05Z</time></trkpt><trkpt lat="45.874714902419804" lon="12.24183820920247"><ele>75.0</ele><time>2026-04-25T14:26:07Z</time></trkpt><trkpt lat="45.874652169826504" lon="12.24171264810555"><ele>75.0</ele><time>2026-04-25T14:26:09Z</time></trkpt><trkpt lat="45.87458098711835" lon="12.241592351342026"><ele>75.0</ele><time>2026-04-25T14:26:11Z</time></trkpt><trkpt lat="45.87452761070517" lon="12.241469061057112"><ele>75.0</ele><time>2026-04-25T14:26:13Z</time></trkpt><trkpt lat="45.87448231849846" lon="12.241349622206185"><ele>75.0</ele><time>2026-04-25T14:26:15Z</time></trkpt><trkpt lat="45.87443741161464" lon="12.2412132416532"><ele>75.4</ele><time>2026-04-25T14:26:17Z</time></trkpt><trkpt lat="45.87440883027295" lon="12.241067683784118"><ele>75.8</ele><time>2026-04-25T14:26:19Z</time></trkpt><trkpt lat="45.874394424334994" lon="12.240922367176122"><ele>76.2</ele><time>2026-04-25T14:26:21Z</time></trkpt><trkpt lat="45.87438817518369" lon="12.240776458859603"><ele>76.6</ele><time>2026-04-25T14:26:23Z</time></trkpt><trkpt lat="45.87438444721951" lon="12.240631111606307"><ele>77.0</ele><time>2026-04-25T14:26:25Z</time></trkpt><trkpt lat="45.87437216814791" lon="12.240492910993039"><ele>77.16666666666667</ele><time>2026-04-25T14:26:27Z</time></trkpt><trkpt lat="45.8743662904309" lon="12.240375488193651"><ele>77.33333333333334</ele><time>2026-04-25T14:26:29Z</time></trkpt><trkpt lat="45.87438768183365" lon="12.240254351776837"><ele>77.5</ele><time>2026-04-25T14:26:31Z</time></trkpt><trkpt lat="45.87442783239804" lon="12.240138332968582"><ele>77.66666666666667</ele><time>2026-04-25T14:26:33Z</time></trkpt><trkpt lat="45.874475160521165" lon="12.240036781800708"><ele>77.83333333333333</ele><time>2026-04-25T14:26:35Z</time></trkpt><trkpt lat="45.874527258234174" lon="12.239933283194098"><ele>78.0</ele><time>2026-04-25T14:26:37Z</time></trkpt><trkpt lat="45.87459479753804" lon="12.239826581200704"><ele>77.8</ele><time>2026-04-25T14:26:39Z</time></trkpt><trkpt lat="45.874624759818396" lon="12.239699256791445"><ele>77.6</ele><time>2026-04-25T14:26:41Z</time></trkpt><trkpt lat="45.87466070255332" lon="12.239588965125963"><ele>77.4</ele><time>2026-04-25T14:26:43Z</time></trkpt><trkpt lat="45.87471610243133" lon="12.239484305246009"><ele>77.2</ele><time>2026-04-25T14:26:45Z</time></trkpt><trkpt lat="45.874796664959916" lon="12.239396508348728"><ele>77.0</ele><time>2026-04-25T14:26:47Z</time></trkpt><trkpt lat="45.87485846696922" lon="12.239296462142713"><ele>77.0</ele><time>2026-04-25T14:26:49Z</time></trkpt><trkpt lat="45.87486580125282" lon="12.23914832036161"><ele>77.0</ele><time>2026-04-25T14:26:51Z</time></trkpt><trkpt lat="45.87478503725937" lon="12.23906114198989"><ele>77.0</ele><time>2026-04-25T14:26:53Z</time></trkpt><trkpt lat="45.874693987824195" lon="12.239147711130862"><ele>77.0</ele><time>2026-04-25T14:26:55Z</time></trkpt><trkpt lat="45.87465109272933" lon="12.239282606404627"><ele>77.0</ele><time>2026-04-25T14:26:57Z</time></trkpt><trkpt lat="45.87460185671528" lon="12.239401228504436"><ele>77.0</ele><time>2026-04-25T14:26:59Z</time></trkpt><trkpt lat="45.87455538175907" lon="12.239496006455798"><ele>77.0</ele><time>2026-04-25T14:27:01Z</time></trkpt><trkpt lat="45.874485612221115" lon="12.239534910210612"><ele>77.0</ele><time>2026-04-25T14:27:03Z</time></trkpt><trkpt lat="45.87443723531486" lon="12.239448976869486"><ele>77.0</ele><time>2026-04-25T14:27:06Z</time></trkpt><trkpt lat="45.87443994600795" lon="12.239329684021719"><ele>77.0</ele><time>2026-04-25T14:27:09Z</time></trkpt><trkpt lat="45.8744395682305" lon="12.239217067043885"><ele>77.0</ele><time>2026-04-25T14:27:12Z</time></trkpt><trkpt lat="45.874429528401734" lon="12.239094819101783"><ele>77.0</ele><time>2026-04-25T14:27:15Z</time></trkpt><trkpt lat="45.874422491978144" lon="12.238986082001674"><ele>77.0</ele><time>2026-04-25T14:27:18Z</time></trkpt><trkpt lat="45.87441807271389" lon="12.238873468922886"><ele>77.0</ele><time>2026-04-25T14:27:21Z</time></trkpt><trkpt lat="45.87440970660476" lon="12.238759644017218"><ele>77.0</ele><time>2026-04-25T14:27:24Z</time></trkpt><trkpt lat="45.8744034099735" lon="12.238665273567543"><ele>77.0</ele><time>2026-04-25T14:27:27Z</time></trkpt><trkpt lat="45.87439584530689" lon="12.238555733345093"><ele>77.0</ele><time>2026-04-25T14:27:30Z</time></trkpt><trkpt lat="45.874386338662184" lon="12.238453360147405"><ele>77.0</ele><time>2026-04-25T14:27:33Z</time></trkpt><trkpt lat="45.874382646264124" lon="12.23834143545132"><ele>78.0</ele><time>2026-04-25T14:27:36Z</time></trkpt><trkpt lat="45.874372026537586" lon="12.238238047072304"><ele>79.0</ele><time>2026-04-25T14:27:39Z</time></trkpt><trkpt lat="45.8743648858172" lon="12.238138438481698"><ele>80.0</ele><time>2026-04-25T14:27:42Z</time></trkpt><trkpt lat="45.874351878625" lon="12.238035451347944"><ele>81.0</ele><time>2026-04-25T14:27:45Z</time></trkpt><trkpt lat="45.87434070569391" lon="12.237930164574017"><ele>82.0</ele><time>2026-04-25T14:27:48Z</time></trkpt><trkpt lat="45.87431777575546" lon="12.237825813416604"><ele>83.0</ele><time>2026-04-25T14:27:51Z</time></trkpt><trkpt lat="45.8743221660922" lon="12.237730778084375"><ele>84.0</ele><time>2026-04-25T14:27:54Z</time></trkpt><trkpt lat="45.87431584795124" lon="12.23763200705639"><ele>85.42857142857143</ele><time>2026-04-25T14:27:57Z</time></trkpt><trkpt lat="45.87431067420045" lon="12.23753517601606"><ele>86.85714285714286</ele><time>2026-04-25T14:28:00Z</time></trkpt><trkpt lat="45.87429907333224" lon="12.237433873108616"><ele>88.28571428571428</ele><time>2026-04-25T14:28:03Z</time></trkpt><trkpt lat="45.87428758404253" lon="12.237340497828072"><ele>89.71428571428572</ele><time>2026-04-25T14:28:06Z</time></trkpt><trkpt lat="45.87427794024585" lon="12.237227472532732"><ele>91.14285714285714</ele><time>2026-04-25T14:28:10Z</time></trkpt><trkpt lat="45.87426237159092" lon="12.237127761128392"><ele>92.57142857142857</ele><time>2026-04-25T14:28:13Z</time></trkpt><trkpt lat="45.87425468957055" lon="12.237031222501201"><ele>94.0</ele><time>2026-04-25T14:28:16Z</time></trkpt><trkpt lat="45.874248184793395" lon="12.236908979699825"><ele>94.83333333333333</ele><time>2026-04-25T14:28:20Z</time></trkpt><trkpt lat="45.87423971172555" lon="12.236788056281458"><ele>95.66666666666666</ele><time>2026-04-25T14:28:23Z</time></trkpt><trkpt lat="45.874230075405315" lon="12.236673827072266"><ele>96.5</ele><time>2026-04-25T14:28:26Z</time></trkpt><trkpt lat="45.87422307262719" lon="12.23656596901245"><ele>97.33333333333333</ele><time>2026-04-25T14:28:29Z</time></trkpt><trkpt lat="45.874208923403295" lon="12.236446686153508"><ele>98.16666666666667</ele><time>2026-04-25T14:28:32Z</time></trkpt><trkpt lat="45.874208959682406" lon="12.236348739315241"><ele>99.0</ele><time>2026-04-25T14:28:36Z</time></trkpt><trkpt lat="45.87420447162219" lon="12.23624318568451"><ele>100.0</ele><time>2026-04-25T14:28:39Z</time></trkpt><trkpt lat="45.87420363712187" lon="12.23613813681577"><ele>101.0</ele><time>2026-04-25T14:28:43Z</time></trkpt><trkpt lat="45.874197131333645" lon="12.236047829129742"><ele>102.0</ele><time>2026-04-25T14:28:45Z</time></trkpt><trkpt lat="45.87418353727098" lon="12.235956955383523"><ele>103.0</ele><time>2026-04-25T14:28:47Z</time></trkpt><trkpt lat="45.87418297143745" lon="12.235854179407337"><ele>104.0</ele><time>2026-04-25T14:28:51Z</time></trkpt><trkpt lat="45.87417357366476" lon="12.235740329977746"><ele>105.0</ele><time>2026-04-25T14:28:55Z</time></trkpt><trkpt lat="45.874192571533065" lon="12.235609530029205"><ele>106.0</ele><time>2026-04-25T14:28:59Z</time></trkpt><trkpt lat="45.87419137299759" lon="12.235470968021199"><ele>106.83333333333334</ele><time>2026-04-25T14:29:03Z</time></trkpt><trkpt lat="45.87416585815573" lon="12.235355887053462"><ele>107.66666666666667</ele><time>2026-04-25T14:29:05.999Z</time></trkpt><trkpt lat="45.8741553277034" lon="12.235260171333804"><ele>108.5</ele><time>2026-04-25T14:29:07.999Z</time></trkpt><trkpt lat="45.87413100739205" lon="12.235134129920276"><ele>109.33333333333334</ele><time>2026-04-25T14:29:09.999Z</time></trkpt><trkpt lat="45.87412295187222" lon="12.235028134082608"><ele>110.16666666666667</ele><time>2026-04-25T14:29:11.999Z</time></trkpt><trkpt lat="45.874105794227994" lon="12.234891542005707"><ele>111.0</ele><time>2026-04-25T14:29:14.999Z</time></trkpt><trkpt lat="45.874101551778075" lon="12.234798370745857"><ele>111.66666666666667</ele><time>2026-04-25T14:29:16.999Z</time></trkpt><trkpt lat="45.874105842994496" lon="12.234698554177536"><ele>112.33333333333334</ele><time>2026-04-25T14:29:18.999Z</time></trkpt><trkpt lat="45.87411869971279" lon="12.234560107809964"><ele>113.0</ele><time>2026-04-25T14:29:21.999Z</time></trkpt><trkpt lat="45.87412268439723" lon="12.234469023516922"><ele>113.66666666666667</ele><time>2026-04-25T14:29:23.999Z</time></trkpt><trkpt lat="45.87413337841617" lon="12.234330910758015"><ele>114.33333333333334</ele><time>2026-04-25T14:29:26.999Z</time></trkpt><trkpt lat="45.874147672523435" lon="12.23419842610914"><ele>115.0</ele><time>2026-04-25T14:29:28.999Z</time></trkpt><trkpt lat="45.874170521430266" lon="12.234076259417149"><ele>115.00000000000001</ele><time>2026-04-25T14:29:30.999Z</time></trkpt><trkpt lat="45.87417114766367" lon="12.233973782245128"><ele>115.0</ele><time>2026-04-25T14:29:32.999Z</time></trkpt><trkpt lat="45.87415657468964" lon="12.233857682329702"><ele>115.0</ele><time>2026-04-25T14:29:34.999Z</time></trkpt><trkpt lat="45.874126742981986" lon="12.233751583126354"><ele>115.0</ele><time>2026-04-25T14:29:36.999Z</time></trkpt><trkpt lat="45.87410225807121" lon="12.233633022246401"><ele>115.00000000000001</ele><time>2026-04-25T14:29:38.999Z</time></trkpt><trkpt lat="45.87407138773474" lon="12.23351828527767"><ele>115.0</ele><time>2026-04-25T14:29:40.999Z</time></trkpt><trkpt lat="45.87403580307914" lon="12.233427536279118"><ele>115.16666666666667</ele><time>2026-04-25T14:29:42.999Z</time></trkpt><trkpt lat="45.87400026351095" lon="12.233317704146657"><ele>115.33333333333334</ele><time>2026-04-25T14:29:44.999Z</time></trkpt><trkpt lat="45.87397175049555" lon="12.233196163358906"><ele>115.5</ele><time>2026-04-25T14:29:46.999Z</time></trkpt><trkpt lat="45.87396261251776" lon="12.233076538618096"><ele>115.66666666666666</ele><time>2026-04-25T14:29:48.999Z</time></trkpt><trkpt lat="45.873965596190644" lon="12.232966958495961"><ele>115.83333333333333</ele><time>2026-04-25T14:29:50.999Z</time></trkpt><trkpt lat="45.87397576729999" lon="12.232866248636057"><ele>116.0</ele><time>2026-04-25T14:29:52.999Z</time></trkpt><trkpt lat="45.87400008573506" lon="12.23277403244261"><ele>116.2857142857143</ele><time>2026-04-25T14:29:54.999Z</time></trkpt><trkpt lat="45.87402961932773" lon="12.232692201251524"><ele>116.57142857142858</ele><time>2026-04-25T14:29:56.999Z</time></trkpt><trkpt lat="45.8740634507304" lon="12.23258771247422"><ele>116.85714285714286</ele><time>2026-04-25T14:29:59.999Z</time></trkpt><trkpt lat="45.87410092777261" lon="12.232488930917306"><ele>117.14285714285715</ele><time>2026-04-25T14:30:02.999Z</time></trkpt><trkpt lat="45.874133512638025" lon="12.232397610177875"><ele>117.42857142857144</ele><time>2026-04-25T14:30:05.999Z</time></trkpt><trkpt lat="45.87417456861928" lon="12.232302598319865"><ele>117.71428571428571</ele><time>2026-04-25T14:30:08.999Z</time></trkpt><trkpt lat="45.874210370293234" lon="12.232213137947339"><ele>118.0</ele><time>2026-04-25T14:30:11.999Z</time></trkpt><trkpt lat="45.87424438435858" lon="12.232113682965323"><ele>118.83333333333334</ele><time>2026-04-25T14:30:14.999Z</time></trkpt><trkpt lat="45.87426840253864" lon="12.232026028506723"><ele>119.66666666666667</ele><time>2026-04-25T14:30:17.999Z</time></trkpt><trkpt lat="45.87431366219511" lon="12.231923076369522"><ele>120.5</ele><time>2026-04-25T14:30:21.999Z</time></trkpt><trkpt lat="45.87435369936508" lon="12.231816135737452"><ele>121.33333333333334</ele><time>2026-04-25T14:30:25.999Z</time></trkpt><trkpt lat="45.87439426927545" lon="12.231740583386816"><ele>122.16666666666667</ele><time>2026-04-25T14:30:29.999Z</time></trkpt><trkpt lat="45.87442178819729" lon="12.231625540371441"><ele>123.0</ele><time>2026-04-25T14:30:34.999Z</time></trkpt><trkpt lat="45.87445223904377" lon="12.231533427002278"><ele>124.85714285714288</ele><time>2026-04-25T14:30:39.999Z</time></trkpt><trkpt lat="45.87450195561329" lon="12.231428747428248"><ele>126.71428571428572</ele><time>2026-04-25T14:30:43.999Z</time></trkpt><trkpt lat="45.87455322534426" lon="12.231349868637336"><ele>128.57142857142856</ele><time>2026-04-25T14:30:47.999Z</time></trkpt><trkpt lat="45.87457872146772" lon="12.231249988566594"><ele>130.42857142857144</ele><time>2026-04-25T14:30:51.999Z</time></trkpt><trkpt lat="45.874610995380635" lon="12.231154316886531"><ele>132.28571428571428</ele><time>2026-04-25T14:30:55.999Z</time></trkpt><trkpt lat="45.87464924636235" lon="12.231081269107978"><ele>134.14285714285714</ele><time>2026-04-25T14:30:58.999Z</time></trkpt><trkpt lat="45.87469646142749" lon="12.231002575379659"><ele>136.0</ele><time>2026-04-25T14:31:02.999Z</time></trkpt><trkpt lat="45.874751710456195" lon="12.230945098919932"><ele>135.99999999999997</ele><time>2026-04-25T14:31:06.999Z</time></trkpt><trkpt lat="45.874816160344004" lon="12.230900111459718"><ele>136.0</ele><time>2026-04-25T14:31:10.999Z</time></trkpt><trkpt lat="45.87488086991505" lon="12.230862615413544"><ele>136.0</ele><time>2026-04-25T14:31:14.999Z</time></trkpt><trkpt lat="45.87495512258811" lon="12.23082071928343"><ele>136.0</ele><time>2026-04-25T14:31:19.999Z</time></trkpt><trkpt lat="45.87502087943288" lon="12.230774373280239"><ele>136.0</ele><time>2026-04-25T14:31:23.999Z</time></trkpt><trkpt lat="45.87508473174629" lon="12.230723060907698"><ele>135.99999999999997</ele><time>2026-04-25T14:31:27.999Z</time></trkpt><trkpt lat="45.875141627605736" lon="12.230682004996144"><ele>136.0</ele><time>2026-04-25T14:31:31.999Z</time></trkpt><trkpt lat="45.875201833387145" lon="12.230648636169521"><ele>136.42857142857142</ele><time>2026-04-25T14:31:35.999Z</time></trkpt><trkpt lat="45.87525999413881" lon="12.230593570836861"><ele>136.85714285714286</ele><time>2026-04-25T14:31:39.999Z</time></trkpt><trkpt lat="45.87530821688153" lon="12.230534025745005"><ele>137.28571428571428</ele><time>2026-04-25T14:31:43.999Z</time></trkpt><trkpt lat="45.875358255130145" lon="12.230462820731963"><ele>137.71428571428572</ele><time>2026-04-25T14:31:47.999Z</time></trkpt><trkpt lat="45.875410160207956" lon="12.230405815264813"><ele>138.14285714285714</ele><time>2026-04-25T14:31:51.999Z</time></trkpt><trkpt lat="45.87546217530406" lon="12.230342068459079"><ele>138.57142857142856</ele><time>2026-04-25T14:31:55.999Z</time></trkpt><trkpt lat="45.875499173314644" lon="12.230247975773052"><ele>139.0</ele><time>2026-04-25T14:31:59.999Z</time></trkpt><trkpt lat="45.8755364882669" lon="12.230155716652439"><ele>139.0</ele><time>2026-04-25T14:32:03.999Z</time></trkpt><trkpt lat="45.875572522435235" lon="12.230071046816475"><ele>139.0</ele><time>2026-04-25T14:32:07.999Z</time></trkpt><trkpt lat="45.87560775581708" lon="12.229967624363132"><ele>139.0</ele><time>2026-04-25T14:32:11.999Z</time></trkpt><trkpt lat="45.875639456716904" lon="12.229863568562152"><ele>139.0</ele><time>2026-04-25T14:32:14.999Z</time></trkpt><trkpt lat="45.87565631496867" lon="12.229747914699626"><ele>139.0</ele><time>2026-04-25T14:32:17.999Z</time></trkpt><trkpt lat="45.8756743496834" lon="12.229638599780962"><ele>139.0</ele><time>2026-04-25T14:32:21.999Z</time></trkpt><trkpt lat="45.8756855752586" lon="12.229531136814469"><ele>140.16666666666669</ele><time>2026-04-25T14:32:24.999Z</time></trkpt><trkpt lat="45.875674688032944" lon="12.229414522181505"><ele>141.33333333333334</ele><time>2026-04-25T14:32:27.999Z</time></trkpt><trkpt lat="45.8756959286196" lon="12.229312179994473"><ele>142.5</ele><time>2026-04-25T14:32:30.999Z</time></trkpt><trkpt lat="45.875713845534996" lon="12.22921563472722"><ele>143.66666666666666</ele><time>2026-04-25T14:32:33.999Z</time></trkpt><trkpt lat="45.87573295252777" lon="12.229118952708395"><ele>144.83333333333331</ele><time>2026-04-25T14:32:36.999Z</time></trkpt><trkpt lat="45.87575064858497" lon="12.229009504611545"><ele>146.0</ele><time>2026-04-25T14:32:39.999Z</time></trkpt><trkpt lat="45.875774349712096" lon="12.228892206882568"><ele>146.0</ele><time>2026-04-25T14:32:42.999Z</time></trkpt><trkpt lat="45.8757829875828" lon="12.228729377977103"><ele>146.0</ele><time>2026-04-25T14:32:45.999Z</time></trkpt><trkpt lat="45.875809551384435" lon="12.228579599442176"><ele>146.0</ele><time>2026-04-25T14:32:47.999Z</time></trkpt><trkpt lat="45.87583337267381" lon="12.22847004589908"><ele>146.0</ele><time>2026-04-25T14:32:49.999Z</time></trkpt><trkpt lat="45.87586802326251" lon="12.228159049173426"><ele>144.0</ele><time>2026-04-25T14:32:51.999Z</time></trkpt><trkpt lat="45.87581938472033" lon="12.227907040094683"><ele>142.0</ele><time>2026-04-25T14:32:52.999Z</time></trkpt><trkpt lat="45.87576237087584" lon="12.227712535361748"><ele>140.0</ele><time>2026-04-25T14:32:53.999Z</time></trkpt><trkpt lat="45.87572201132519" lon="12.227551431432422"><ele>138.0</ele><time>2026-04-25T14:32:54.999Z</time></trkpt><trkpt lat="45.875698343415415" lon="12.227398121368763"><ele>137.6</ele><time>2026-04-25T14:32:55.999Z</time></trkpt><trkpt lat="45.875686660859884" lon="12.227233033527197"><ele>137.20000000000002</ele><time>2026-04-25T14:32:56.999Z</time></trkpt><trkpt lat="45.875697719986505" lon="12.22707247378027"><ele>136.8</ele><time>2026-04-25T14:32:57.999Z</time></trkpt><trkpt lat="45.87568338127699" lon="12.2269247664421"><ele>136.4</ele><time>2026-04-25T14:32:58.999Z</time></trkpt><trkpt lat="45.87564859273514" lon="12.226773193459538"><ele>136.0</ele><time>2026-04-25T14:32:59.999Z</time></trkpt><trkpt lat="45.875648286124395" lon="12.226658775556116"><ele>136.0</ele><time>2026-04-25T14:33:00.999Z</time></trkpt><trkpt lat="45.87567566798406" lon="12.226537753541862"><ele>136.0</ele><time>2026-04-25T14:33:02.999Z</time></trkpt><trkpt lat="45.875734165922005" lon="12.226408576346005"><ele>136.0</ele><time>2026-04-25T14:33:04.999Z</time></trkpt><trkpt lat="45.875810513301424" lon="12.226316574923692"><ele>136.0</ele><time>2026-04-25T14:33:06.999Z</time></trkpt><trkpt lat="45.875885827198154" lon="12.226234350231746"><ele>136.0</ele><time>2026-04-25T14:33:09.999Z</time></trkpt><trkpt lat="45.87596862388141" lon="12.226200737345964"><ele>137.42857142857142</ele><time>2026-04-25T14:33:13.999Z</time></trkpt><trkpt lat="45.87603203596388" lon="12.226153825130307"><ele>138.85714285714286</ele><time>2026-04-25T14:33:16.999Z</time></trkpt><trkpt lat="45.87609237271863" lon="12.226127789372438"><ele>140.28571428571428</ele><time>2026-04-25T14:33:21.999Z</time></trkpt><trkpt lat="45.8761653659157" lon="12.22611261813168"><ele>141.71428571428572</ele><time>2026-04-25T14:33:25.999Z</time></trkpt><trkpt lat="45.87624930264162" lon="12.226074365541127"><ele>143.14285714285714</ele><time>2026-04-25T14:33:30.999Z</time></trkpt><trkpt lat="45.876310087541675" lon="12.226011166180296"><ele>144.57142857142856</ele><time>2026-04-25T14:33:35.999Z</time></trkpt><trkpt lat="45.876356154815056" lon="12.225935455515222"><ele>146.0</ele><time>2026-04-25T14:33:40.999Z</time></trkpt><trkpt lat="45.87638933971644" lon="12.225854155677187"><ele>146.0</ele><time>2026-04-25T14:33:43.999Z</time></trkpt><trkpt lat="45.876418390178884" lon="12.22575430340753"><ele>146.0</ele><time>2026-04-25T14:33:47.999Z</time></trkpt><trkpt lat="45.87646415916455" lon="12.225659300391138"><ele>146.0</ele><time>2026-04-25T14:33:51.999Z</time></trkpt><trkpt lat="45.876511890198536" lon="12.225564791868205"><ele>146.0</ele><time>2026-04-25T14:33:55.999Z</time></trkpt><trkpt lat="45.876570859864124" lon="12.22547184385751"><ele>146.0</ele><time>2026-04-25T14:34:00.999Z</time></trkpt><trkpt lat="45.87663537272422" lon="12.225428966484706"><ele>146.0</ele><time>2026-04-25T14:34:05.999Z</time></trkpt><trkpt lat="45.87669996639688" lon="12.225384910785213"><ele>147.71428571428572</ele><time>2026-04-25T14:34:11.999Z</time></trkpt><trkpt lat="45.876755951447855" lon="12.225336762630812"><ele>149.42857142857144</ele><time>2026-04-25T14:34:15.999Z</time></trkpt><trkpt lat="45.87680445736262" lon="12.225266875996567"><ele>151.14285714285717</ele><time>2026-04-25T14:34:20.999Z</time></trkpt><trkpt lat="45.87680473767426" lon="12.225158537952451"><ele>152.85714285714286</ele><time>2026-04-25T14:34:25.999Z</time></trkpt><trkpt lat="45.87676466572882" lon="12.225075868935143"><ele>154.57142857142858</ele><time>2026-04-25T14:34:30.999Z</time></trkpt><trkpt lat="45.87672106147303" lon="12.224999865289275"><ele>156.2857142857143</ele><time>2026-04-25T14:34:34.999Z</time></trkpt><trkpt lat="45.87666879201945" lon="12.224930950712139"><ele>158.0</ele><time>2026-04-25T14:34:40.999Z</time></trkpt><trkpt lat="45.876618442364844" lon="12.224875220499587"><ele>158.0</ele><time>2026-04-25T14:34:44.999Z</time></trkpt><trkpt lat="45.87655386610878" lon="12.224817280099648"><ele>158.0</ele><time>2026-04-25T14:34:49.999Z</time></trkpt><trkpt lat="45.87648554770265" lon="12.224758987792956"><ele>158.0</ele><time>2026-04-25T14:34:53.999Z</time></trkpt><trkpt lat="45.87643904743592" lon="12.224692105616615"><ele>158.0</ele><time>2026-04-25T14:34:57.999Z</time></trkpt><trkpt lat="45.87638578863515" lon="12.224621548160725"><ele>158.0</ele><time>2026-04-25T14:35:01.999Z</time></trkpt><trkpt lat="45.87631962231376" lon="12.224572921342093"><ele>158.0</ele><time>2026-04-25T14:35:04.999Z</time></trkpt><trkpt lat="45.87625134223938" lon="12.224471921892079"><ele>157.66666666666666</ele><time>2026-04-25T14:35:08.999Z</time></trkpt><trkpt lat="45.876208299829884" lon="12.224371477202274"><ele>157.33333333333331</ele><time>2026-04-25T14:35:12.999Z</time></trkpt><trkpt lat="45.8761567964746" lon="12.224268108867538"><ele>157.0</ele><time>2026-04-25T14:35:15.999Z</time></trkpt><trkpt lat="45.87610673428967" lon="12.224179002813008"><ele>156.66666666666666</ele><time>2026-04-25T14:35:18.999Z</time></trkpt><trkpt lat="45.876075498832" lon="12.22409749376205"><ele>156.33333333333334</ele><time>2026-04-25T14:35:20.999Z</time></trkpt><trkpt lat="45.87603358210621" lon="12.2240149417039"><ele>156.0</ele><time>2026-04-25T14:35:23.999Z</time></trkpt><trkpt lat="45.87600528016988" lon="12.22391885300886"><ele>155.66666666666666</ele><time>2026-04-25T14:35:26.999Z</time></trkpt><trkpt lat="45.87599628329531" lon="12.223825112208026"><ele>155.33333333333334</ele><time>2026-04-25T14:35:29.999Z</time></trkpt><trkpt lat="45.87600317042961" lon="12.223701334860372"><ele>155.0</ele><time>2026-04-25T14:35:33.999Z</time></trkpt><trkpt lat="45.876000984720356" lon="12.223593334298172"><ele>154.66666666666669</ele><time>2026-04-25T14:35:36.999Z</time></trkpt><trkpt lat="45.87599999667042" lon="12.223456221218678"><ele>154.33333333333334</ele><time>2026-04-25T14:35:39.999Z</time></trkpt><trkpt lat="45.87599267004008" lon="12.223365482784299"><ele>154.0</ele><time>2026-04-25T14:35:41.999Z</time></trkpt><trkpt lat="45.876002155227326" lon="12.223264470449891"><ele>155.5</ele><time>2026-04-25T14:35:44.999Z</time></trkpt><trkpt lat="45.87600399508509" lon="12.223127211530405"><ele>157.0</ele><time>2026-04-25T14:35:47.999Z</time></trkpt><trkpt lat="45.87601175344214" lon="12.223007696913825"><ele>158.5</ele><time>2026-04-25T14:35:50.999Z</time></trkpt><trkpt lat="45.87601416185435" lon="12.222904430685968"><ele>160.0</ele><time>2026-04-25T14:35:52.999Z</time></trkpt><trkpt lat="45.8760198346389" lon="12.222789706710287"><ele>161.5</ele><time>2026-04-25T14:35:55.999Z</time></trkpt><trkpt lat="45.876031031600235" lon="12.222639857896086"><ele>163.0</ele><time>2026-04-25T14:35:58.999Z</time></trkpt><trkpt lat="45.87603913956243" lon="12.22251248916311"><ele>163.0</ele><time>2026-04-25T14:36:02.999Z</time></trkpt><trkpt lat="45.87604113201722" lon="12.222381804293022"><ele>163.0</ele><time>2026-04-25T14:36:06.999Z</time></trkpt><trkpt lat="45.87604017304466" lon="12.222265148519332"><ele>163.0</ele><time>2026-04-25T14:36:09.004Z</time></trkpt><trkpt lat="45.87605289938124" lon="12.222176328719673"><ele>163.0</ele><time>2026-04-25T14:36:13.004Z</time></trkpt><trkpt lat="45.87604356605945" lon="12.222044282102315"><ele>163.0</ele><time>2026-04-25T14:36:16.004Z</time></trkpt><trkpt lat="45.875981525516664" lon="12.221972438052251"><ele>163.0</ele><time>2026-04-25T14:36:19.004Z</time></trkpt><trkpt lat="45.8759130350525" lon="12.222015758313944"><ele>165.85714285714286</ele><time>2026-04-25T14:36:27.004Z</time></trkpt><trkpt lat="45.875863353127635" lon="12.222074475333171"><ele>168.7142857142857</ele><time>2026-04-25T14:36:32.004Z</time></trkpt><trkpt lat="45.87580965206069" lon="12.22213232534746"><ele>171.57142857142856</ele><time>2026-04-25T14:36:37.004Z</time></trkpt><trkpt lat="45.87576705244178" lon="12.222201634137397"><ele>174.42857142857144</ele><time>2026-04-25T14:36:40.004Z</time></trkpt><trkpt lat="45.87570904235134" lon="12.222249469517381"><ele>177.28571428571428</ele><time>2026-04-25T14:36:45.004Z</time></trkpt><trkpt lat="45.87565563420171" lon="12.222308103170745"><ele>180.14285714285714</ele><time>2026-04-25T14:36:49.004Z</time></trkpt><trkpt lat="45.87559503189843" lon="12.222373216994844"><ele>183.0</ele><time>2026-04-25T14:36:54.004Z</time></trkpt><trkpt lat="45.87553110090425" lon="12.2224208947111"><ele>183.0</ele><time>2026-04-25T14:37:00.005Z</time></trkpt><trkpt lat="45.875469882284065" lon="12.222479786489265"><ele>183.0</ele><time>2026-04-25T14:37:04.004Z</time></trkpt><trkpt lat="45.875392623814214" lon="12.222510583137579"><ele>183.0</ele><time>2026-04-25T14:37:09.005Z</time></trkpt><trkpt lat="45.87531463615504" lon="12.222508615066825"><ele>183.0</ele><time>2026-04-25T14:37:15.005Z</time></trkpt><trkpt lat="45.875242666648916" lon="12.222434872055311"><ele>183.0</ele><time>2026-04-25T14:37:21.005Z</time></trkpt><trkpt lat="45.87519505665063" lon="12.222353428263789"><ele>183.0</ele><time>2026-04-25T14:37:26.005Z</time></trkpt><trkpt lat="45.87518218732075" lon="12.222259132382394"><ele>183.0</ele><time>2026-04-25T14:37:30.005Z</time></trkpt><trkpt lat="45.875148097371216" lon="12.222175289399827"><ele>183.0</ele><time>2026-04-25T14:37:34.005Z</time></trkpt><trkpt lat="45.87509648879052" lon="12.22207629973906"><ele>183.0</ele><time>2026-04-25T14:37:37.005Z</time></trkpt><trkpt lat="45.87503432402138" lon="12.22201431052684"><ele>183.0</ele><time>2026-04-25T14:37:39.005Z</time></trkpt><trkpt lat="45.87496659018902" lon="12.221929631140728"><ele>183.0</ele><time>2026-04-25T14:37:43.005Z</time></trkpt><trkpt lat="45.87490680306902" lon="12.221860165529026"><ele>183.0</ele><time>2026-04-25T14:37:46.005Z</time></trkpt><trkpt lat="45.87482354458262" lon="12.22179601990708"><ele>184.66666666666666</ele><time>2026-04-25T14:37:48.005Z</time></trkpt><trkpt lat="45.87473787383729" lon="12.221748632997425"><ele>186.33333333333331</ele><time>2026-04-25T14:37:50.005Z</time></trkpt><trkpt lat="45.87465997080613" lon="12.22170490814191"><ele>188.0</ele><time>2026-04-25T14:37:52.005Z</time></trkpt><trkpt lat="45.87458621026036" lon="12.221658725816456"><ele>189.66666666666666</ele><time>2026-04-25T14:37:54.005Z</time></trkpt><trkpt lat="45.87451070342363" lon="12.221628663312222"><ele>191.33333333333331</ele><time>2026-04-25T14:37:56.005Z</time></trkpt><trkpt lat="45.87444336199405" lon="12.221599824545843"><ele>193.0</ele><time>2026-04-25T14:37:58.005Z</time></trkpt><trkpt lat="45.87438192455153" lon="12.221577616197402"><ele>193.00000000000003</ele><time>2026-04-25T14:38:00.005Z</time></trkpt><trkpt lat="45.87429493633125" lon="12.221542511693368"><ele>193.0</ele><time>2026-04-25T14:38:02.005Z</time></trkpt><trkpt lat="45.87421920218725" lon="12.221522132401182"><ele>193.0</ele><time>2026-04-25T14:38:04.005Z</time></trkpt><trkpt lat="45.874153998429975" lon="12.221505065104372"><ele>193.0</ele><time>2026-04-25T14:38:06.005Z</time></trkpt><trkpt lat="45.87408820375691" lon="12.221457080973506"><ele>193.0</ele><time>2026-04-25T14:38:08.005Z</time></trkpt><trkpt lat="45.874024653125154" lon="12.221412885563074"><ele>193.00000000000003</ele><time>2026-04-25T14:38:10.005Z</time></trkpt><trkpt lat="45.8739680232417" lon="12.221361551639063"><ele>193.0</ele><time>2026-04-25T14:38:12.005Z</time></trkpt><trkpt lat="45.87388531478381" lon="12.221294296490962"><ele>192.49999999999997</ele><time>2026-04-25T14:38:14.005Z</time></trkpt><trkpt lat="45.873786785183924" lon="12.221240806992283"><ele>192.0</ele><time>2026-04-25T14:38:16.005Z</time></trkpt><trkpt lat="45.87370751058596" lon="12.221205656761073"><ele>191.5</ele><time>2026-04-25T14:38:17.005Z</time></trkpt><trkpt lat="45.87364222230776" lon="12.2211678279583"><ele>191.0</ele><time>2026-04-25T14:38:18.005Z</time></trkpt><trkpt lat="45.87357286090084" lon="12.22112257481983"><ele>190.5</ele><time>2026-04-25T14:38:19.005Z</time></trkpt><trkpt lat="45.87351053917468" lon="12.221069506235292"><ele>190.0</ele><time>2026-04-25T14:38:20.005Z</time></trkpt><trkpt lat="45.87345942078747" lon="12.221013091003023"><ele>192.6</ele><time>2026-04-25T14:38:21.005Z</time></trkpt><trkpt lat="45.87336852053152" lon="12.220905577339146"><ele>195.2</ele><time>2026-04-25T14:38:23.005Z</time></trkpt><trkpt lat="45.87330543286614" lon="12.220828471307147"><ele>197.8</ele><time>2026-04-25T14:38:25.005Z</time></trkpt><trkpt lat="45.873245617716606" lon="12.220748455314103"><ele>200.4</ele><time>2026-04-25T14:38:28.005Z</time></trkpt><trkpt lat="45.87319054120095" lon="12.220697673697494"><ele>203.0</ele><time>2026-04-25T14:38:31.005Z</time></trkpt><trkpt lat="45.87310239888332" lon="12.220777724535838"><ele>203.0</ele><time>2026-04-25T14:38:35.005Z</time></trkpt><trkpt lat="45.873040138549584" lon="12.220863877933663"><ele>203.0</ele><time>2026-04-25T14:38:37.005Z</time></trkpt><trkpt lat="45.87299495523672" lon="12.221026941265267"><ele>203.0</ele><time>2026-04-25T14:38:39.005Z</time></trkpt><trkpt lat="45.87294590501773" lon="12.221171416427415"><ele>203.0</ele><time>2026-04-25T14:38:41.005Z</time></trkpt><trkpt lat="45.8729055884061" lon="12.221315372379237"><ele>203.0</ele><time>2026-04-25T14:38:43.005Z</time></trkpt><trkpt lat="45.87288896138245" lon="12.22141093444656"><ele>205.0</ele><time>2026-04-25T14:38:44.005Z</time></trkpt><trkpt lat="45.87287770353506" lon="12.221576944208264"><ele>207.0</ele><time>2026-04-25T14:38:46.005Z</time></trkpt><trkpt lat="45.872896625800536" lon="12.221772059350736"><ele>209.0</ele><time>2026-04-25T14:38:48.005Z</time></trkpt><trkpt lat="45.87292574677065" lon="12.221869704210187"><ele>211.0</ele><time>2026-04-25T14:38:49.005Z</time></trkpt><trkpt lat="45.87292388496112" lon="12.221963552586919"><ele>213.0</ele><time>2026-04-25T14:38:50.005Z</time></trkpt><trkpt lat="45.87289695869372" lon="12.222123870511632"><ele>212.99999999999997</ele><time>2026-04-25T14:38:52.005Z</time></trkpt><trkpt lat="45.87289076404208" lon="12.22221479805299"><ele>213.0</ele><time>2026-04-25T14:38:53.005Z</time></trkpt><trkpt lat="45.872890312573034" lon="12.222312718911843"><ele>213.0</ele><time>2026-04-25T14:38:54.005Z</time></trkpt><trkpt lat="45.87287875434941" lon="12.222407178933866"><ele>213.0</ele><time>2026-04-25T14:38:55.005Z</time></trkpt><trkpt lat="45.87287668653105" lon="12.222504509038922"><ele>213.0</ele><time>2026-04-25T14:38:56.005Z</time></trkpt><trkpt lat="45.87288479894651" lon="12.222608901143689"><ele>212.99999999999997</ele><time>2026-04-25T14:38:57.005Z</time></trkpt><trkpt lat="45.87289038127109" lon="12.22271864720292"><ele>213.0</ele><time>2026-04-25T14:38:58.005Z</time></trkpt><trkpt lat="45.87289112855351" lon="12.222826039652633"><ele>213.33333333333334</ele><time>2026-04-25T14:38:59.005Z</time></trkpt><trkpt lat="45.872887372261964" lon="12.222924371281467"><ele>213.66666666666669</ele><time>2026-04-25T14:39:00.005Z</time></trkpt><trkpt lat="45.87286945699479" lon="12.223015717892839"><ele>214.0</ele><time>2026-04-25T14:39:01.005Z</time></trkpt><trkpt lat="45.87286706119369" lon="12.223135970184002"><ele>214.33333333333334</ele><time>2026-04-25T14:39:02.004Z</time></trkpt><trkpt lat="45.872861735499384" lon="12.223252255781928"><ele>214.66666666666669</ele><time>2026-04-25T14:39:03.005Z</time></trkpt><trkpt lat="45.87284095908202" lon="12.2233639639937"><ele>215.0</ele><time>2026-04-25T14:39:04.005Z</time></trkpt><trkpt lat="45.872819333370636" lon="12.223473377745284"><ele>215.00000000000003</ele><time>2026-04-25T14:39:05.004Z</time></trkpt><trkpt lat="45.872785838823766" lon="12.22358063147154"><ele>215.0</ele><time>2026-04-25T14:39:06.004Z</time></trkpt><trkpt lat="45.87274485527301" lon="12.223677216607374"><ele>215.0</ele><time>2026-04-25T14:39:07.004Z</time></trkpt><trkpt lat="45.87270291969971" lon="12.223772498973638"><ele>215.0</ele><time>2026-04-25T14:39:08.005Z</time></trkpt><trkpt lat="45.87263815899715" lon="12.223850501643648"><ele>215.00000000000003</ele><time>2026-04-25T14:39:09.005Z</time></trkpt><trkpt lat="45.87256705877604" lon="12.22391223039841"><ele>215.0</ele><time>2026-04-25T14:39:10.005Z</time></trkpt><trkpt lat="45.872496385451605" lon="12.223961269867859"><ele>213.33333333333334</ele><time>2026-04-25T14:39:11.005Z</time></trkpt><trkpt lat="45.87242307356455" lon="12.224006285527542"><ele>211.66666666666669</ele><time>2026-04-25T14:39:12.005Z</time></trkpt><trkpt lat="45.8723469360393" lon="12.224028708694595"><ele>210.0</ele><time>2026-04-25T14:39:13.005Z</time></trkpt><trkpt lat="45.872264450913775" lon="12.224042314211667"><ele>208.33333333333331</ele><time>2026-04-25T14:39:14.004Z</time></trkpt><trkpt lat="45.87218373627735" lon="12.224044400658023"><ele>206.66666666666666</ele><time>2026-04-25T14:39:15.005Z</time></trkpt><trkpt lat="45.87210691231244" lon="12.224037807909106"><ele>205.0</ele><time>2026-04-25T14:39:16.005Z</time></trkpt><trkpt lat="45.87202495309274" lon="12.22402405835799"><ele>204.99999999999997</ele><time>2026-04-25T14:39:17.005Z</time></trkpt><trkpt lat="45.87194487838587" lon="12.224016853080427"><ele>205.0</ele><time>2026-04-25T14:39:18.005Z</time></trkpt><trkpt lat="45.87186099211843" lon="12.224028748091838"><ele>205.0</ele><time>2026-04-25T14:39:19.005Z</time></trkpt><trkpt lat="45.87178984856389" lon="12.224044980470097"><ele>205.0</ele><time>2026-04-25T14:39:20.005Z</time></trkpt><trkpt lat="45.87171069890146" lon="12.22409036667416"><ele>204.99999999999997</ele><time>2026-04-25T14:39:21.005Z</time></trkpt><trkpt lat="45.87163177543817" lon="12.22415911453329"><ele>205.0</ele><time>2026-04-25T14:39:22.005Z</time></trkpt><trkpt lat="45.87156531298357" lon="12.22423355589821"><ele>203.33333333333331</ele><time>2026-04-25T14:39:23.005Z</time></trkpt><trkpt lat="45.871499838357" lon="12.224320551702471"><ele>201.66666666666666</ele><time>2026-04-25T14:39:24.005Z</time></trkpt><trkpt lat="45.87143515574522" lon="12.224404454983944"><ele>200.0</ele><time>2026-04-25T14:39:25.005Z</time></trkpt><trkpt lat="45.871366827493745" lon="12.224481032875499"><ele>198.33333333333331</ele><time>2026-04-25T14:39:26.005Z</time></trkpt><trkpt lat="45.87128905549011" lon="12.224543930543918"><ele>196.66666666666666</ele><time>2026-04-25T14:39:27.005Z</time></trkpt><trkpt lat="45.87120618085033" lon="12.224591291619618"><ele>195.0</ele><time>2026-04-25T14:39:28.005Z</time></trkpt><trkpt lat="45.871112385143874" lon="12.224616033736803"><ele>195.0</ele><time>2026-04-25T14:39:29.005Z</time></trkpt><trkpt lat="45.87102771327134" lon="12.22461184110047"><ele>195.0</ele><time>2026-04-25T14:39:30.005Z</time></trkpt><trkpt lat="45.87093980699394" lon="12.224589858403867"><ele>195.0</ele><time>2026-04-25T14:39:31.005Z</time></trkpt><trkpt lat="45.87085562147206" lon="12.22455371067341"><ele>195.0</ele><time>2026-04-25T14:39:32.005Z</time></trkpt><trkpt lat="45.870780817171685" lon="12.22450493032911"><ele>195.0</ele><time>2026-04-25T14:39:33.005Z</time></trkpt><trkpt lat="45.87071074739336" lon="12.224468180104722"><ele>195.0</ele><time>2026-04-25T14:39:34.005Z</time></trkpt><trkpt lat="45.87063377345414" lon="12.22443065481938"><ele>193.33333333333334</ele><time>2026-04-25T14:39:35.005Z</time></trkpt><trkpt lat="45.87056465595553" lon="12.224397335436487"><ele>191.66666666666666</ele><time>2026-04-25T14:39:36.005Z</time></trkpt><trkpt lat="45.870490063410735" lon="12.224394852988393"><ele>190.0</ele><time>2026-04-25T14:39:37.005Z</time></trkpt><trkpt lat="45.87041958735556" lon="12.224412255805907"><ele>188.33333333333331</ele><time>2026-04-25T14:39:38.005Z</time></trkpt><trkpt lat="45.870349170693785" lon="12.224475082351125"><ele>186.66666666666666</ele><time>2026-04-25T14:39:39.005Z</time></trkpt><trkpt lat="45.87029605345582" lon="12.224574268851807"><ele>185.0</ele><time>2026-04-25T14:39:40.005Z</time></trkpt><trkpt lat="45.87026020358797" lon="12.224678041124308"><ele>185.0</ele><time>2026-04-25T14:39:41.005Z</time></trkpt><trkpt lat="45.87023289355211" lon="12.22479828862753"><ele>185.0</ele><time>2026-04-25T14:39:42.005Z</time></trkpt><trkpt lat="45.870208684880346" lon="12.22491347485698"><ele>185.0</ele><time>2026-04-25T14:39:43.005Z</time></trkpt><trkpt lat="45.87017881613913" lon="12.225031204029921"><ele>185.0</ele><time>2026-04-25T14:39:44.005Z</time></trkpt><trkpt lat="45.87013823383298" lon="12.225152082475423"><ele>185.0</ele><time>2026-04-25T14:39:45.005Z</time></trkpt><trkpt lat="45.87008759295737" lon="12.22527398598632"><ele>184.6</ele><time>2026-04-25T14:39:46.005Z</time></trkpt><trkpt lat="45.87002721561294" lon="12.225402490988719"><ele>184.2</ele><time>2026-04-25T14:39:47.005Z</time></trkpt><trkpt lat="45.869956190411" lon="12.225517735242056"><ele>183.8</ele><time>2026-04-25T14:39:48.005Z</time></trkpt><trkpt lat="45.8698777100279" lon="12.225633232848768"><ele>183.4</ele><time>2026-04-25T14:39:49.005Z</time></trkpt><trkpt lat="45.86979841587936" lon="12.225738224222342"><ele>183.0</ele><time>2026-04-25T14:39:50.005Z</time></trkpt><trkpt lat="45.869714146317605" lon="12.225841386418079"><ele>184.75</ele><time>2026-04-25T14:39:51.005Z</time></trkpt><trkpt lat="45.869627669482284" lon="12.225953093247732"><ele>186.5</ele><time>2026-04-25T14:39:52.005Z</time></trkpt><trkpt lat="45.8695411095121" lon="12.226059228563363"><ele>188.25</ele><time>2026-04-25T14:39:53.005Z</time></trkpt><trkpt lat="45.86945050261229" lon="12.226178981177986"><ele>190.0</ele><time>2026-04-25T14:39:54.005Z</time></trkpt><trkpt lat="45.869357502131834" lon="12.226304071551755"><ele>188.2</ele><time>2026-04-25T14:39:55.005Z</time></trkpt><trkpt lat="45.869269952959584" lon="12.226412241217789"><ele>186.4</ele><time>2026-04-25T14:39:56.005Z</time></trkpt><trkpt lat="45.8691878157659" lon="12.226510148496349"><ele>184.60000000000002</ele><time>2026-04-25T14:39:57.005Z</time></trkpt><trkpt lat="45.86911215692042" lon="12.226608069602914"><ele>182.8</ele><time>2026-04-25T14:39:58.005Z</time></trkpt><trkpt lat="45.86905154893346" lon="12.226711527312592"><ele>181.0</ele><time>2026-04-25T14:39:59.005Z</time></trkpt><trkpt lat="45.86901547775271" lon="12.226840736888796"><ele>181.0</ele><time>2026-04-25T14:40:00.005Z</time></trkpt><trkpt lat="45.86900370247488" lon="12.226985054215074"><ele>181.0</ele><time>2026-04-25T14:40:01.005Z</time></trkpt><trkpt lat="45.86900911096054" lon="12.227131822390774"><ele>181.0</ele><time>2026-04-25T14:40:02.005Z</time></trkpt><trkpt lat="45.86903051848363" lon="12.227296047509215"><ele>181.0</ele><time>2026-04-25T14:40:03.005Z</time></trkpt><trkpt lat="45.86904970090608" lon="12.227459625938845"><ele>181.0</ele><time>2026-04-25T14:40:04.005Z</time></trkpt><trkpt lat="45.869053351781886" lon="12.227619727297897"><ele>179.5</ele><time>2026-04-25T14:40:05.005Z</time></trkpt><trkpt lat="45.8690558750997" lon="12.227789425060099"><ele>178.0</ele><time>2026-04-25T14:40:06.005Z</time></trkpt><trkpt lat="45.86906705988717" lon="12.227964351591293"><ele>176.5</ele><time>2026-04-25T14:40:07.005Z</time></trkpt><trkpt lat="45.86907775492434" lon="12.228146173599047"><ele>175.0</ele><time>2026-04-25T14:40:08.005Z</time></trkpt><trkpt lat="45.86909775965541" lon="12.22833460394737"><ele>172.25</ele><time>2026-04-25T14:40:09.005Z</time></trkpt><trkpt lat="45.86910429810822" lon="12.228516862468567"><ele>169.5</ele><time>2026-04-25T14:40:10.005Z</time></trkpt><trkpt lat="45.869121049768815" lon="12.228704544479458"><ele>166.75</ele><time>2026-04-25T14:40:11.005Z</time></trkpt><trkpt lat="45.86912666546055" lon="12.22889337216029"><ele>164.0</ele><time>2026-04-25T14:40:12.005Z</time></trkpt><trkpt lat="45.86911565963659" lon="12.229081192164974"><ele>163.0</ele><time>2026-04-25T14:40:13.005Z</time></trkpt><trkpt lat="45.8690965576938" lon="12.229271050922668"><ele>162.0</ele><time>2026-04-25T14:40:14.005Z</time></trkpt><trkpt lat="45.86907030554308" lon="12.229451719373563"><ele>161.0</ele><time>2026-04-25T14:40:15.005Z</time></trkpt><trkpt lat="45.869055034135485" lon="12.229636324248045"><ele>160.0</ele><time>2026-04-25T14:40:16.005Z</time></trkpt><trkpt lat="45.86903204821901" lon="12.229802775430386"><ele>160.2</ele><time>2026-04-25T14:40:17.005Z</time></trkpt><trkpt lat="45.86901338333797" lon="12.229964346557509"><ele>160.4</ele><time>2026-04-25T14:40:18.005Z</time></trkpt><trkpt lat="45.86898685036184" lon="12.230107027341848"><ele>160.60000000000002</ele><time>2026-04-25T14:40:19.005Z</time></trkpt><trkpt lat="45.8689454259193" lon="12.230221875238996"><ele>160.8</ele><time>2026-04-25T14:40:20.005Z</time></trkpt><trkpt lat="45.8688928136546" lon="12.23032113112062"><ele>161.0</ele><time>2026-04-25T14:40:21.005Z</time></trkpt><trkpt lat="45.86883870201664" lon="12.230403592375401"><ele>161.0</ele><time>2026-04-25T14:40:22.005Z</time></trkpt><trkpt lat="45.868786151041526" lon="12.23048207854936"><ele>161.0</ele><time>2026-04-25T14:40:23.005Z</time></trkpt><trkpt lat="45.868706756754804" lon="12.23055459072604"><ele>161.0</ele><time>2026-04-25T14:40:25.005Z</time></trkpt><trkpt lat="45.86862805652438" lon="12.230676081304342"><ele>161.0</ele><time>2026-04-25T14:40:27.005Z</time></trkpt><trkpt lat="45.86856723283155" lon="12.23077548539001"><ele>161.0</ele><time>2026-04-25T14:40:29.005Z</time></trkpt><trkpt lat="45.86849903865223" lon="12.230878529326814"><ele>162.5</ele><time>2026-04-25T14:40:31.005Z</time></trkpt><trkpt lat="45.86843345532364" lon="12.2309746178821"><ele>164.0</ele><time>2026-04-25T14:40:33.005Z</time></trkpt><trkpt lat="45.868353035268825" lon="12.2309805306018"><ele>165.5</ele><time>2026-04-25T14:40:35.005Z</time></trkpt><trkpt lat="45.86826480883333" lon="12.23101302945443"><ele>167.0</ele><time>2026-04-25T14:40:37.005Z</time></trkpt><trkpt lat="45.86820104548361" lon="12.231025701558204"><ele>168.5</ele><time>2026-04-25T14:40:39.005Z</time></trkpt><trkpt lat="45.86813434820966" lon="12.231033483129865"><ele>170.0</ele><time>2026-04-25T14:40:41.005Z</time></trkpt><trkpt lat="45.86806604733138" lon="12.231055847220937"><ele>170.0</ele><time>2026-04-25T14:40:43.005Z</time></trkpt><trkpt lat="45.86799703824838" lon="12.231067061517209"><ele>170.0</ele><time>2026-04-25T14:40:45.005Z</time></trkpt><trkpt lat="45.867907669876764" lon="12.231073211636662"><ele>170.0</ele><time>2026-04-25T14:40:48.005Z</time></trkpt><trkpt lat="45.867833852018734" lon="12.2310965249377"><ele>170.0</ele><time>2026-04-25T14:40:50.005Z</time></trkpt><trkpt lat="45.867765406408466" lon="12.231118267897841"><ele>170.0</ele><time>2026-04-25T14:40:52.005Z</time></trkpt><trkpt lat="45.867703417373214" lon="12.231189446759334"><ele>170.0</ele><time>2026-04-25T14:40:54.005Z</time></trkpt><trkpt lat="45.86764033726104" lon="12.231298110609648"><ele>171.2</ele><time>2026-04-25T14:40:56.005Z</time></trkpt><trkpt lat="45.86758560927761" lon="12.231417222997221"><ele>172.4</ele><time>2026-04-25T14:40:58.005Z</time></trkpt><trkpt lat="45.867544577195936" lon="12.231538768248935"><ele>173.60000000000002</ele><time>2026-04-25T14:41:00.005Z</time></trkpt><trkpt lat="45.86750668563535" lon="12.23165400517928"><ele>174.8</ele><time>2026-04-25T14:41:02.005Z</time></trkpt><trkpt lat="45.86746300326954" lon="12.231750228532686"><ele>176.0</ele><time>2026-04-25T14:41:04.005Z</time></trkpt><trkpt lat="45.86741446238846" lon="12.23186421032389"><ele>176.0</ele><time>2026-04-25T14:41:06.005Z</time></trkpt><trkpt lat="45.867362719580626" lon="12.231954634414947"><ele>176.0</ele><time>2026-04-25T14:41:08.005Z</time></trkpt><trkpt lat="45.86729319883124" lon="12.232025924976263"><ele>176.0</ele><time>2026-04-25T14:41:10.004Z</time></trkpt><trkpt lat="45.867226864655706" lon="12.232106721154054"><ele>176.0</ele><time>2026-04-25T14:41:12.005Z</time></trkpt><trkpt lat="45.86715921467223" lon="12.232164752037903"><ele>176.0</ele><time>2026-04-25T14:41:14.005Z</time></trkpt><trkpt lat="45.867096070241" lon="12.232235723537684"><ele>176.0</ele><time>2026-04-25T14:41:16.005Z</time></trkpt><trkpt lat="45.8670329936136" lon="12.232294118364255"><ele>176.20000000000002</ele><time>2026-04-25T14:41:18.005Z</time></trkpt><trkpt lat="45.86696511326943" lon="12.232369765045686"><ele>176.4</ele><time>2026-04-25T14:41:20.005Z</time></trkpt><trkpt lat="45.866887914855916" lon="12.232453983397566"><ele>176.6</ele><time>2026-04-25T14:41:22.005Z</time></trkpt><trkpt lat="45.86680791727073" lon="12.232529236550727"><ele>176.8</ele><time>2026-04-25T14:41:24.005Z</time></trkpt><trkpt lat="45.866714663052086" lon="12.232611970281138"><ele>177.0</ele><time>2026-04-25T14:41:26.005Z</time></trkpt><trkpt lat="45.86661131050986" lon="12.232692992095354"><ele>177.0</ele><time>2026-04-25T14:41:28.005Z</time></trkpt><trkpt lat="45.86655642180342" lon="12.232737711213026"><ele>177.0</ele><time>2026-04-25T14:41:29.005Z</time></trkpt><trkpt lat="45.866496356934455" lon="12.232783143554354"><ele>177.0</ele><time>2026-04-25T14:41:30.005Z</time></trkpt><trkpt lat="45.86643348783801" lon="12.2328430166835"><ele>177.0</ele><time>2026-04-25T14:41:31.005Z</time></trkpt><trkpt lat="45.86637111924066" lon="12.232882499778277"><ele>177.0</ele><time>2026-04-25T14:41:32.005Z</time></trkpt><trkpt lat="45.866304947858275" lon="12.232942563014106"><ele>177.0</ele><time>2026-04-25T14:41:33.005Z</time></trkpt><trkpt lat="45.8662385530251" lon="12.232999783849582"><ele>177.0</ele><time>2026-04-25T14:41:34.005Z</time></trkpt><trkpt lat="45.866170529976124" lon="12.233058760945411"><ele>177.0</ele><time>2026-04-25T14:41:35.005Z</time></trkpt><trkpt lat="45.866100138346226" lon="12.233117968125145"><ele>177.0</ele><time>2026-04-25T14:41:36.005Z</time></trkpt><trkpt lat="45.86603106534105" lon="12.23317886351676"><ele>177.0</ele><time>2026-04-25T14:41:37.005Z</time></trkpt><trkpt lat="45.865960374592866" lon="12.233233869432736"><ele>177.0</ele><time>2026-04-25T14:41:38.005Z</time></trkpt><trkpt lat="45.86589259443187" lon="12.23328902101662"><ele>177.0</ele><time>2026-04-25T14:41:39.005Z</time></trkpt><trkpt lat="45.86582513509375" lon="12.23334834084846"><ele>177.0</ele><time>2026-04-25T14:41:40.005Z</time></trkpt><trkpt lat="45.86575733274087" lon="12.233407440033249"><ele>177.33333333333334</ele><time>2026-04-25T14:41:41.005Z</time></trkpt><trkpt lat="45.86569822199332" lon="12.233465823313253"><ele>177.66666666666666</ele><time>2026-04-25T14:41:42.005Z</time></trkpt><trkpt lat="45.86563587399559" lon="12.233522344548035"><ele>178.0</ele><time>2026-04-25T14:41:43.005Z</time></trkpt><trkpt lat="45.865576212526626" lon="12.233590214764302"><ele>178.33333333333331</ele><time>2026-04-25T14:41:44.005Z</time></trkpt><trkpt lat="45.8655248261802" lon="12.233671173288773"><ele>178.66666666666666</ele><time>2026-04-25T14:41:45.005Z</time></trkpt><trkpt lat="45.86548563410878" lon="12.233791193079146"><ele>179.0</ele><time>2026-04-25T14:41:46.005Z</time></trkpt><trkpt lat="45.865459470568716" lon="12.233888670549145"><ele>179.0</ele><time>2026-04-25T14:41:47.005Z</time></trkpt><trkpt lat="45.86542194621409" lon="12.233966461416237"><ele>179.0</ele><time>2026-04-25T14:41:48.005Z</time></trkpt><trkpt lat="45.86542005612643" lon="12.234106600249792"><ele>179.0</ele><time>2026-04-25T14:41:49.005Z</time></trkpt><trkpt lat="45.86540002944069" lon="12.234255470093794"><ele>179.0</ele><time>2026-04-25T14:41:50.005Z</time></trkpt><trkpt lat="45.86537887992499" lon="12.23438921913387"><ele>179.0</ele><time>2026-04-25T14:41:51.005Z</time></trkpt><trkpt lat="45.86535643489239" lon="12.234515670056567"><ele>176.79999999999998</ele><time>2026-04-25T14:41:52.005Z</time></trkpt><trkpt lat="45.86533469960894" lon="12.23464716641296"><ele>174.6</ele><time>2026-04-25T14:41:53.005Z</time></trkpt><trkpt lat="45.86530296158328" lon="12.234778963149893"><ele>172.4</ele><time>2026-04-25T14:41:54.005Z</time></trkpt><trkpt lat="45.86528296587608" lon="12.234915776914201"><ele>170.2</ele><time>2026-04-25T14:41:55.005Z</time></trkpt><trkpt lat="45.86526478661761" lon="12.235062514070833"><ele>168.0</ele><time>2026-04-25T14:41:56.005Z</time></trkpt><trkpt lat="45.86525060763417" lon="12.235193071181477"><ele>167.60000000000002</ele><time>2026-04-25T14:41:57.005Z</time></trkpt><trkpt lat="45.86523538584984" lon="12.23531770081396"><ele>167.20000000000002</ele><time>2026-04-25T14:41:58.005Z</time></trkpt><trkpt lat="45.86521805441715" lon="12.235410016787798"><ele>166.8</ele><time>2026-04-25T14:41:59.005Z</time></trkpt><trkpt lat="45.865168804379465" lon="12.235484815672752"><ele>166.4</ele><time>2026-04-25T14:42:01.005Z</time></trkpt><trkpt lat="45.86509577283186" lon="12.235576742812704"><ele>166.0</ele><time>2026-04-25T14:42:03.005Z</time></trkpt><trkpt lat="45.86505040534037" lon="12.235749801635361"><ele>166.0</ele><time>2026-04-25T14:42:05.005Z</time></trkpt><trkpt lat="45.86503350892249" lon="12.235839471465408"><ele>166.0</ele><time>2026-04-25T14:42:06.005Z</time></trkpt><trkpt lat="45.86501799377365" lon="12.235940868797456"><ele>166.0</ele><time>2026-04-25T14:42:07.005Z</time></trkpt><trkpt lat="45.8649932629673" lon="12.236035652899428"><ele>166.0</ele><time>2026-04-25T14:42:08.005Z</time></trkpt><trkpt lat="45.86496131951057" lon="12.236135788127491"><ele>166.0</ele><time>2026-04-25T14:42:09.005Z</time></trkpt><trkpt lat="45.864936139879184" lon="12.236243992465324"><ele>166.0</ele><time>2026-04-25T14:42:10.005Z</time></trkpt><trkpt lat="45.8649119699952" lon="12.23635184364065"><ele>166.0</ele><time>2026-04-25T14:42:11.005Z</time></trkpt><trkpt lat="45.8648914386734" lon="12.236448903623593"><ele>166.0</ele><time>2026-04-25T14:42:12.005Z</time></trkpt><trkpt lat="45.86488143304683" lon="12.236541410398676"><ele>166.0</ele><time>2026-04-25T14:42:13.005Z</time></trkpt><trkpt lat="45.8648394125833" lon="12.23663183767918"><ele>166.0</ele><time>2026-04-25T14:42:15.005Z</time></trkpt><trkpt lat="45.86473543301133" lon="12.23663240564975"><ele>166.0</ele><time>2026-04-25T14:42:18.005Z</time></trkpt><trkpt lat="45.86464306698432" lon="12.236560316351905"><ele>166.0</ele><time>2026-04-25T14:42:20.005Z</time></trkpt><trkpt lat="45.86454811184176" lon="12.236454160277196"><ele>166.0</ele><time>2026-04-25T14:42:22.005Z</time></trkpt><trkpt lat="45.86448976961527" lon="12.236401544232566"><ele>166.0</ele><time>2026-04-25T14:42:23.005Z</time></trkpt><trkpt lat="45.86442688706911" lon="12.236347307641928"><ele>166.0</ele><time>2026-04-25T14:42:24.005Z</time></trkpt><trkpt lat="45.8643670032653" lon="12.236292225369699"><ele>166.0</ele><time>2026-04-25T14:42:25.005Z</time></trkpt><trkpt lat="45.8643034714761" lon="12.236231965650573"><ele>166.0</ele><time>2026-04-25T14:42:26.005Z</time></trkpt><trkpt lat="45.86423814780938" lon="12.236176801261227"><ele>166.0</ele><time>2026-04-25T14:42:27.005Z</time></trkpt><trkpt lat="45.86417698800486" lon="12.236115143835324"><ele>166.0</ele><time>2026-04-25T14:42:28.005Z</time></trkpt><trkpt lat="45.864114542046146" lon="12.23606085650965"><ele>164.83333333333334</ele><time>2026-04-25T14:42:29.005Z</time></trkpt><trkpt lat="45.86405124884839" lon="12.236002265806013"><ele>163.66666666666669</ele><time>2026-04-25T14:42:30.005Z</time></trkpt><trkpt lat="45.86398748811271" lon="12.235944806345238"><ele>162.5</ele><time>2026-04-25T14:42:31.005Z</time></trkpt><trkpt lat="45.86392989860616" lon="12.235890274976883"><ele>161.33333333333334</ele><time>2026-04-25T14:42:32.005Z</time></trkpt><trkpt lat="45.863868875081614" lon="12.23583786692566"><ele>160.16666666666666</ele><time>2026-04-25T14:42:33.005Z</time></trkpt><trkpt lat="45.86380826150806" lon="12.23578456568642"><ele>159.0</ele><time>2026-04-25T14:42:34.005Z</time></trkpt><trkpt lat="45.86372226306944" lon="12.235726759928609"><ele>159.0</ele><time>2026-04-25T14:42:36.005Z</time></trkpt><trkpt lat="45.86364240717535" lon="12.235785451682727"><ele>159.0</ele><time>2026-04-25T14:42:38.005Z</time></trkpt><trkpt lat="45.863589908864256" lon="12.235878217552356"><ele>159.0</ele><time>2026-04-25T14:42:40.005Z</time></trkpt><trkpt lat="45.86351231537641" lon="12.235884693154313"><ele>159.0</ele><time>2026-04-25T14:42:42.005Z</time></trkpt><trkpt lat="45.86341483259607" lon="12.235800332461805"><ele>159.0</ele><time>2026-04-25T14:42:44.005Z</time></trkpt><trkpt lat="45.86332963352592" lon="12.235696101611461"><ele>159.2</ele><time>2026-04-25T14:42:46.005Z</time></trkpt><trkpt lat="45.86324023069058" lon="12.235588411004766"><ele>159.4</ele><time>2026-04-25T14:42:48.005Z</time></trkpt><trkpt lat="45.86315111942441" lon="12.235546398960032"><ele>159.6</ele><time>2026-04-25T14:42:50.005Z</time></trkpt><trkpt lat="45.863057006890855" lon="12.2355675622732"><ele>159.8</ele><time>2026-04-25T14:42:52.005Z</time></trkpt><trkpt lat="45.86293898253697" lon="12.235652697962959"><ele>160.0</ele><time>2026-04-25T14:42:54.005Z</time></trkpt><trkpt lat="45.86286921684897" lon="12.235687231815529"><ele>159.0</ele><time>2026-04-25T14:42:55.005Z</time></trkpt><trkpt lat="45.862790294200856" lon="12.235698696670726"><ele>158.0</ele><time>2026-04-25T14:42:56.005Z</time></trkpt><trkpt lat="45.86271861762137" lon="12.23570023047439"><ele>157.0</ele><time>2026-04-25T14:42:57.005Z</time></trkpt><trkpt lat="45.86259104579068" lon="12.23569746128478"><ele>156.0</ele><time>2026-04-25T14:42:59.005Z</time></trkpt><trkpt lat="45.862527753413204" lon="12.235700179702171"><ele>155.0</ele><time>2026-04-25T14:43:00.005Z</time></trkpt><trkpt lat="45.86241715614943" lon="12.235720036743729"><ele>153.0</ele><time>2026-04-25T14:43:02.005Z</time></trkpt><trkpt lat="45.86230105314937" lon="12.235732539728858"><ele>151.0</ele><time>2026-04-25T14:43:04.005Z</time></trkpt><trkpt lat="45.86219800147521" lon="12.235728584872184"><ele>149.0</ele><time>2026-04-25T14:43:06.005Z</time></trkpt><trkpt lat="45.86208809372712" lon="12.235753203921869"><ele>147.0</ele><time>2026-04-25T14:43:08.005Z</time></trkpt><trkpt lat="45.86202948941059" lon="12.235794305245328"><ele>145.0</ele><time>2026-04-25T14:43:09.005Z</time></trkpt><trkpt lat="45.86197272027496" lon="12.235858339655437"><ele>145.0</ele><time>2026-04-25T14:43:10.005Z</time></trkpt><trkpt lat="45.861912649277414" lon="12.23591675806482"><ele>145.0</ele><time>2026-04-25T14:43:11.005Z</time></trkpt><trkpt lat="45.86185307467148" lon="12.23598167617144"><ele>145.0</ele><time>2026-04-25T14:43:12.005Z</time></trkpt><trkpt lat="45.8617857527883" lon="12.236044457886244"><ele>145.0</ele><time>2026-04-25T14:43:13.005Z</time></trkpt><trkpt lat="45.86172039135517" lon="12.236127735533293"><ele>145.0</ele><time>2026-04-25T14:43:14.005Z</time></trkpt><trkpt lat="45.86164770616482" lon="12.23618391975108"><ele>145.0</ele><time>2026-04-25T14:43:15.005Z</time></trkpt><trkpt lat="45.86157590707139" lon="12.236251540893402"><ele>143.66666666666669</ele><time>2026-04-25T14:43:16.005Z</time></trkpt><trkpt lat="45.861505736099176" lon="12.236313066568192"><ele>142.33333333333334</ele><time>2026-04-25T14:43:17.005Z</time></trkpt><trkpt lat="45.86143571560198" lon="12.236388226888057"><ele>141.0</ele><time>2026-04-25T14:43:18.005Z</time></trkpt><trkpt lat="45.86136206809859" lon="12.236456857524686"><ele>139.66666666666666</ele><time>2026-04-25T14:43:19.005Z</time></trkpt><trkpt lat="45.86129274581485" lon="12.236519033207411"><ele>138.33333333333331</ele><time>2026-04-25T14:43:20.006Z</time></trkpt><trkpt lat="45.86122852396705" lon="12.236575385993017"><ele>137.0</ele><time>2026-04-25T14:43:21.005Z</time></trkpt><trkpt lat="45.861164199835585" lon="12.236641730456496"><ele>137.0</ele><time>2026-04-25T14:43:22.005Z</time></trkpt><trkpt lat="45.86109748270979" lon="12.236707561694766"><ele>137.0</ele><time>2026-04-25T14:43:23.005Z</time></trkpt><trkpt lat="45.861035201838575" lon="12.23676583288991"><ele>137.0</ele><time>2026-04-25T14:43:24.005Z</time></trkpt><trkpt lat="45.860975913912995" lon="12.236813385348423"><ele>137.0</ele><time>2026-04-25T14:43:25.005Z</time></trkpt><trkpt lat="45.86086607851803" lon="12.236910068123597"><ele>137.0</ele><time>2026-04-25T14:43:27.005Z</time></trkpt><trkpt lat="45.860807242086274" lon="12.236976815832284"><ele>137.0</ele><time>2026-04-25T14:43:28.005Z</time></trkpt><trkpt lat="45.86074304187585" lon="12.2370505209126"><ele>135.79999999999998</ele><time>2026-04-25T14:43:29.005Z</time></trkpt><trkpt lat="45.86068069855624" lon="12.237132139130816"><ele>134.6</ele><time>2026-04-25T14:43:30.005Z</time></trkpt><trkpt lat="45.86060507193863" lon="12.237201467571138"><ele>133.39999999999998</ele><time>2026-04-25T14:43:31.005Z</time></trkpt><trkpt lat="45.860516659389624" lon="12.237261126190791"><ele>132.2</ele><time>2026-04-25T14:43:32.005Z</time></trkpt><trkpt lat="45.86043048804026" lon="12.237331344704488"><ele>131.0</ele><time>2026-04-25T14:43:33.005Z</time></trkpt><trkpt lat="45.86034310740468" lon="12.237408202082047"><ele>130.6</ele><time>2026-04-25T14:43:34.005Z</time></trkpt><trkpt lat="45.86025309303975" lon="12.23748058630387"><ele>130.2</ele><time>2026-04-25T14:43:35.005Z</time></trkpt><trkpt lat="45.86016344170114" lon="12.237557031744856"><ele>129.8</ele><time>2026-04-25T14:43:36.005Z</time></trkpt><trkpt lat="45.86008072054487" lon="12.237636943386814"><ele>129.4</ele><time>2026-04-25T14:43:37.005Z</time></trkpt><trkpt lat="45.85999521384954" lon="12.237707414196988"><ele>129.0</ele><time>2026-04-25T14:43:38.005Z</time></trkpt><trkpt lat="45.859912855180625" lon="12.237780911318584"><ele>128.0</ele><time>2026-04-25T14:43:39.005Z</time></trkpt><trkpt lat="45.8598327687509" lon="12.237855325374012"><ele>127.0</ele><time>2026-04-25T14:43:40.005Z</time></trkpt><trkpt lat="45.859748487820774" lon="12.23792841205899"><ele>126.0</ele><time>2026-04-25T14:43:41.005Z</time></trkpt><trkpt lat="45.85966486639009" lon="12.238000074610197"><ele>125.0</ele><time>2026-04-25T14:43:42.005Z</time></trkpt><trkpt lat="45.85958329574032" lon="12.238078580204403"><ele>124.0</ele><time>2026-04-25T14:43:43.005Z</time></trkpt><trkpt lat="45.85950092079014" lon="12.238146229303313"><ele>124.00000000000001</ele><time>2026-04-25T14:43:44.005Z</time></trkpt><trkpt lat="45.85941637913966" lon="12.238211205176826"><ele>124.0</ele><time>2026-04-25T14:43:45.005Z</time></trkpt><trkpt lat="45.85933476139787" lon="12.238264114992718"><ele>124.0</ele><time>2026-04-25T14:43:46.005Z</time></trkpt><trkpt lat="45.85925276134864" lon="12.238313107643634"><ele>124.0</ele><time>2026-04-25T14:43:47.005Z</time></trkpt><trkpt lat="45.859173747772694" lon="12.238373988376765"><ele>124.00000000000001</ele><time>2026-04-25T14:43:48.005Z</time></trkpt><trkpt lat="45.85909868032629" lon="12.238430706987943"><ele>124.0</ele><time>2026-04-25T14:43:49.005Z</time></trkpt><trkpt lat="45.85903340792799" lon="12.238474932414677"><ele>123.16666666666667</ele><time>2026-04-25T14:43:50.005Z</time></trkpt><trkpt lat="45.85897759226834" lon="12.238517258398618"><ele>122.33333333333334</ele><time>2026-04-25T14:43:51.005Z</time></trkpt><trkpt lat="45.858888718116425" lon="12.238540406379132"><ele>121.5</ele><time>2026-04-25T14:43:53.005Z</time></trkpt><trkpt lat="45.85882185553603" lon="12.238523018066086"><ele>120.66666666666666</ele><time>2026-04-25T14:43:55.005Z</time></trkpt><trkpt lat="45.85875225476118" lon="12.238526608624188"><ele>119.83333333333333</ele><time>2026-04-25T14:44:06.005Z</time></trkpt><trkpt lat="45.85868955631358" lon="12.238558237977035"><ele>119.0</ele><time>2026-04-25T14:44:08.005Z</time></trkpt><trkpt lat="45.85861109503497" lon="12.23863312010445"><ele>118.99999999999999</ele><time>2026-04-25T14:44:10.005Z</time></trkpt><trkpt lat="45.85853147317665" lon="12.238706177080132"><ele>119.0</ele><time>2026-04-25T14:44:12.005Z</time></trkpt><trkpt lat="45.85847367463275" lon="12.238764475778003"><ele>119.0</ele><time>2026-04-25T14:44:14.005Z</time></trkpt><trkpt lat="45.85842285521125" lon="12.238822072510109"><ele>119.0</ele><time>2026-04-25T14:44:16.005Z</time></trkpt><trkpt lat="45.8583525137311" lon="12.238881858621351"><ele>118.99999999999999</ele><time>2026-04-25T14:44:18.005Z</time></trkpt><trkpt lat="45.85825750755907" lon="12.238967375317774"><ele>119.0</ele><time>2026-04-25T14:44:20.005Z</time></trkpt><trkpt lat="45.85815146433711" lon="12.239050915289674"><ele>118.33333333333333</ele><time>2026-04-25T14:44:22.005Z</time></trkpt><trkpt lat="45.858037086775816" lon="12.239133445920771"><ele>117.66666666666666</ele><time>2026-04-25T14:44:24.005Z</time></trkpt><trkpt lat="45.857974043869824" lon="12.239182422630524"><ele>117.0</ele><time>2026-04-25T14:44:25.005Z</time></trkpt><trkpt lat="45.85791100775163" lon="12.23923269605846"><ele>116.33333333333334</ele><time>2026-04-25T14:44:26.005Z</time></trkpt><trkpt lat="45.85784472396444" lon="12.239280396432775"><ele>115.66666666666667</ele><time>2026-04-25T14:44:27.005Z</time></trkpt><trkpt lat="45.857776210513926" lon="12.239328195489305"><ele>115.0</ele><time>2026-04-25T14:44:28.005Z</time></trkpt><trkpt lat="45.8577081109326" lon="12.239383903629935"><ele>115.00000000000001</ele><time>2026-04-25T14:44:29.005Z</time></trkpt><trkpt lat="45.85763496594555" lon="12.239434242537568"><ele>115.0</ele><time>2026-04-25T14:44:30.005Z</time></trkpt><trkpt lat="45.85756028918877" lon="12.239479523231953"><ele>115.0</ele><time>2026-04-25T14:44:31.005Z</time></trkpt><trkpt lat="45.857487035784445" lon="12.239531537421879"><ele>115.0</ele><time>2026-04-25T14:44:32.005Z</time></trkpt><trkpt lat="45.857415066928475" lon="12.239592060443796"><ele>115.00000000000001</ele><time>2026-04-25T14:44:33.005Z</time></trkpt><trkpt lat="45.85734406845056" lon="12.239645661403264"><ele>115.0</ele><time>2026-04-25T14:44:34.005Z</time></trkpt><trkpt lat="45.85727188636203" lon="12.239697632772941"><ele>113.6</ele><time>2026-04-25T14:44:35.005Z</time></trkpt><trkpt lat="45.85720039969648" lon="12.239741114959363"><ele>112.2</ele><time>2026-04-25T14:44:36.005Z</time></trkpt><trkpt lat="45.8571325255512" lon="12.239768283970792"><ele>110.80000000000001</ele><time>2026-04-25T14:44:37.005Z</time></trkpt><trkpt lat="45.85702354413506" lon="12.239738277862182"><ele>109.4</ele><time>2026-04-25T14:44:39.005Z</time></trkpt><trkpt lat="45.856955288835" lon="12.23962395937872"><ele>108.0</ele><time>2026-04-25T14:44:41.005Z</time></trkpt><trkpt lat="45.85693096857298" lon="12.239473528267439"><ele>108.0</ele><time>2026-04-25T14:44:43.005Z</time></trkpt><trkpt lat="45.85690591395766" lon="12.239317402992151"><ele>108.0</ele><time>2026-04-25T14:44:45.005Z</time></trkpt><trkpt lat="45.856856142075905" lon="12.239148363564167"><ele>108.0</ele><time>2026-04-25T14:44:47.005Z</time></trkpt><trkpt lat="45.856837797855704" lon="12.239058620292246"><ele>108.0</ele><time>2026-04-25T14:44:48.005Z</time></trkpt><trkpt lat="45.856815153296736" lon="12.238971078727747"><ele>108.0</ele><time>2026-04-25T14:44:49.005Z</time></trkpt><trkpt lat="45.85679331751343" lon="12.238882787459215"><ele>108.0</ele><time>2026-04-25T14:44:50.005Z</time></trkpt><trkpt lat="45.85676711573527" lon="12.23879794844714"><ele>107.0</ele><time>2026-04-25T14:44:51.005Z</time></trkpt><trkpt lat="45.8567218189805" lon="12.238631328248132"><ele>106.0</ele><time>2026-04-25T14:44:53.005Z</time></trkpt><trkpt lat="45.85667026294716" lon="12.238468744280429"><ele>105.0</ele><time>2026-04-25T14:44:55.005Z</time></trkpt><trkpt lat="45.85659590723992" lon="12.238326028296914"><ele>104.0</ele><time>2026-04-25T14:44:57.005Z</time></trkpt><trkpt lat="45.85648928853951" lon="12.23823684168487"><ele>104.0</ele><time>2026-04-25T14:44:59.005Z</time></trkpt><trkpt lat="45.85637564061511" lon="12.238189855810335"><ele>104.0</ele><time>2026-04-25T14:45:01.005Z</time></trkpt><trkpt lat="45.85626873045251" lon="12.238133528022153"><ele>104.0</ele><time>2026-04-25T14:45:03.005Z</time></trkpt><trkpt lat="45.85616587860069" lon="12.238076011344818"><ele>104.0</ele><time>2026-04-25T14:45:05.005Z</time></trkpt><trkpt lat="45.85607575838149" lon="12.238015475189352"><ele>104.0</ele><time>2026-04-25T14:45:07.005Z</time></trkpt><trkpt lat="45.85599255444479" lon="12.237931961920074"><ele>103.99999999999999</ele><time>2026-04-25T14:45:09.005Z</time></trkpt><trkpt lat="45.85599739298066" lon="12.237787250454444"><ele>104.0</ele><time>2026-04-25T14:45:11.005Z</time></trkpt><trkpt lat="45.85603717437363" lon="12.237664821287561"><ele>104.0</ele><time>2026-04-25T14:45:13.005Z</time></trkpt><trkpt lat="45.85606183302473" lon="12.237554669836223"><ele>104.0</ele><time>2026-04-25T14:45:15.005Z</time></trkpt><trkpt lat="45.85607275513346" lon="12.237438283873438"><ele>103.99999999999999</ele><time>2026-04-25T14:45:17.005Z</time></trkpt><trkpt lat="45.8560863824361" lon="12.237313990383667"><ele>104.0</ele><time>2026-04-25T14:45:19.005Z</time></trkpt><trkpt lat="45.8560608139932" lon="12.237187236641457"><ele>103.0</ele><time>2026-04-25T14:45:21.005Z</time></trkpt><trkpt lat="45.855998294410774" lon="12.237118708039556"><ele>102.0</ele><time>2026-04-25T14:45:23.005Z</time></trkpt><trkpt lat="45.85591800493961" lon="12.237124761490076"><ele>101.0</ele><time>2026-04-25T14:45:25.005Z</time></trkpt><trkpt lat="45.8558382636772" lon="12.237168422687112"><ele>100.0</ele><time>2026-04-25T14:45:27.006Z</time></trkpt><trkpt lat="45.85573206508087" lon="12.23721426179934"><ele>99.0</ele><time>2026-04-25T14:45:29.005Z</time></trkpt><trkpt lat="45.855603197864234" lon="12.237262951976327"><ele>98.66666666666667</ele><time>2026-04-25T14:45:31.006Z</time></trkpt><trkpt lat="45.85553124665164" lon="12.237285831751036"><ele>98.33333333333334</ele><time>2026-04-25T14:45:32.006Z</time></trkpt><trkpt lat="45.85542258881042" lon="12.23732617042623"><ele>98.0</ele><time>2026-04-25T14:45:34.006Z</time></trkpt><trkpt lat="45.85533491435467" lon="12.23736905459293"><ele>97.66666666666667</ele><time>2026-04-25T14:45:36.006Z</time></trkpt><trkpt lat="45.85526405243925" lon="12.23738553865315"><ele>97.33333333333334</ele><time>2026-04-25T14:45:39.006Z</time></trkpt><trkpt lat="45.85518569701437" lon="12.237406557358936"><ele>97.0</ele><time>2026-04-25T14:45:41.006Z</time></trkpt><trkpt lat="45.85508187775588" lon="12.23747184695964"><ele>96.42857142857143</ele><time>2026-04-25T14:45:43.006Z</time></trkpt><trkpt lat="45.85501914126793" lon="12.237493411382195"><ele>95.85714285714286</ele><time>2026-04-25T14:45:44.006Z</time></trkpt><trkpt lat="45.854951256607436" lon="12.23752498739212"><ele>95.28571428571429</ele><time>2026-04-25T14:45:45.006Z</time></trkpt><trkpt lat="45.854881075399184" lon="12.237574617750086"><ele>94.71428571428572</ele><time>2026-04-25T14:45:46.006Z</time></trkpt><trkpt lat="45.854812059989875" lon="12.237622029836478"><ele>94.14285714285714</ele><time>2026-04-25T14:45:47.006Z</time></trkpt><trkpt lat="45.854738153153974" lon="12.237648854609159"><ele>93.57142857142858</ele><time>2026-04-25T14:45:48.006Z</time></trkpt><trkpt lat="45.85466438167482" lon="12.237656877413455"><ele>93.0</ele><time>2026-04-25T14:45:49.006Z</time></trkpt><trkpt lat="45.854583429108295" lon="12.237649625898676"><ele>93.0</ele><time>2026-04-25T14:45:50.006Z</time></trkpt><trkpt lat="45.85449773004395" lon="12.237646200241318"><ele>93.0</ele><time>2026-04-25T14:45:51.006Z</time></trkpt><trkpt lat="45.854413225038876" lon="12.237654352362183"><ele>93.0</ele><time>2026-04-25T14:45:52.006Z</time></trkpt><trkpt lat="45.854329624282435" lon="12.237655093095325"><ele>93.0</ele><time>2026-04-25T14:45:53.006Z</time></trkpt><trkpt lat="45.854243348420034" lon="12.237654127096146"><ele>93.0</ele><time>2026-04-25T14:45:54.006Z</time></trkpt><trkpt lat="45.854159205761356" lon="12.237657714882559"><ele>93.0</ele><time>2026-04-25T14:45:55.006Z</time></trkpt><trkpt lat="45.854065176314684" lon="12.23765470377062"><ele>92.0</ele><time>2026-04-25T14:45:56.006Z</time></trkpt><trkpt lat="45.85397365301894" lon="12.237642957271799"><ele>91.0</ele><time>2026-04-25T14:45:57.006Z</time></trkpt><trkpt lat="45.85388161830695" lon="12.23763395232182"><ele>90.0</ele><time>2026-04-25T14:45:58.006Z</time></trkpt><trkpt lat="45.85378919446683" lon="12.237632492740095"><ele>89.0</ele><time>2026-04-25T14:45:59.006Z</time></trkpt><trkpt lat="45.853706355046874" lon="12.237632828125367"><ele>88.0</ele><time>2026-04-25T14:46:00.006Z</time></trkpt><trkpt lat="45.85359553402944" lon="12.237649856683955"><ele>88.0</ele><time>2026-04-25T14:46:01.006Z</time></trkpt><trkpt lat="45.853496676491694" lon="12.23765713612759"><ele>88.0</ele><time>2026-04-25T14:46:02.006Z</time></trkpt><trkpt lat="45.853394539017856" lon="12.237679320642652"><ele>88.0</ele><time>2026-04-25T14:46:03.006Z</time></trkpt><trkpt lat="45.85329800803784" lon="12.237679754869145"><ele>88.0</ele><time>2026-04-25T14:46:04.006Z</time></trkpt><trkpt lat="45.85321834059023" lon="12.23768485622425"><ele>88.0</ele><time>2026-04-25T14:46:05.006Z</time></trkpt><trkpt lat="45.85315027618329" lon="12.237676738025428"><ele>88.0</ele><time>2026-04-25T14:46:06.006Z</time></trkpt><trkpt lat="45.853056027834775" lon="12.23762376698619"><ele>87.66666666666666</ele><time>2026-04-25T14:46:08.006Z</time></trkpt><trkpt lat="45.85299865465989" lon="12.237554993590269"><ele>87.33333333333333</ele><time>2026-04-25T14:46:10.006Z</time></trkpt><trkpt lat="45.8529946734505" lon="12.237456414983052"><ele>87.0</ele><time>2026-04-25T14:46:12.006Z</time></trkpt><trkpt lat="45.853031512666455" lon="12.237337457467632"><ele>86.66666666666667</ele><time>2026-04-25T14:46:14.006Z</time></trkpt><trkpt lat="45.85305544434913" lon="12.237235183848851"><ele>86.33333333333334</ele><time>2026-04-25T14:46:16.006Z</time></trkpt><trkpt lat="45.85309921652502" lon="12.237079888795236"><ele>86.0</ele><time>2026-04-25T14:46:18.006Z</time></trkpt><trkpt lat="45.8531383137637" lon="12.236919295580444"><ele>86.0</ele><time>2026-04-25T14:46:20.006Z</time></trkpt><trkpt lat="45.85316611356812" lon="12.236767340536042"><ele>86.0</ele><time>2026-04-25T14:46:22.006Z</time></trkpt><trkpt lat="45.853217730848826" lon="12.236616587707347"><ele>86.0</ele><time>2026-04-25T14:46:24.006Z</time></trkpt><trkpt lat="45.85325886875097" lon="12.236479840290606"><ele>86.0</ele><time>2026-04-25T14:46:26.006Z</time></trkpt><trkpt lat="45.853299940627345" lon="12.236316858661054"><ele>86.0</ele><time>2026-04-25T14:46:28.006Z</time></trkpt><trkpt lat="45.853341932377425" lon="12.23617760100736"><ele>86.0</ele><time>2026-04-25T14:46:30.006Z</time></trkpt><trkpt lat="45.85339477368762" lon="12.23603928408115"><ele>86.0</ele><time>2026-04-25T14:46:32.006Z</time></trkpt><trkpt lat="45.85341810566405" lon="12.23587401696087"><ele>86.0</ele><time>2026-04-25T14:46:34.006Z</time></trkpt><trkpt lat="45.853450611454214" lon="12.235719963531459"><ele>86.0</ele><time>2026-04-25T14:46:36.006Z</time></trkpt><trkpt lat="45.85348283542424" lon="12.235565800720067"><ele>86.0</ele><time>2026-04-25T14:46:38.006Z</time></trkpt><trkpt lat="45.853519471840016" lon="12.235425768762186"><ele>86.0</ele><time>2026-04-25T14:46:40.005Z</time></trkpt><trkpt lat="45.85353906157451" lon="12.235258375701092"><ele>86.0</ele><time>2026-04-25T14:46:42.005Z</time></trkpt><trkpt lat="45.85356799957357" lon="12.235100056431515"><ele>86.0</ele><time>2026-04-25T14:46:44.005Z</time></trkpt><trkpt lat="45.853617783751254" lon="12.2349638894351"><ele>86.0</ele><time>2026-04-25T14:46:46.005Z</time></trkpt><trkpt lat="45.85365947164795" lon="12.234802385034774"><ele>86.6</ele><time>2026-04-25T14:46:48.005Z</time></trkpt><trkpt lat="45.8537021744428" lon="12.234666433799081"><ele>87.19999999999999</ele><time>2026-04-25T14:46:50.005Z</time></trkpt><trkpt lat="45.85373428637865" lon="12.234521453087396"><ele>87.80000000000001</ele><time>2026-04-25T14:46:52.005Z</time></trkpt><trkpt lat="45.853778712420315" lon="12.23436946218252"><ele>88.4</ele><time>2026-04-25T14:46:54.005Z</time></trkpt><trkpt lat="45.85381289008905" lon="12.234225113004092"><ele>89.0</ele><time>2026-04-25T14:46:56.005Z</time></trkpt><trkpt lat="45.85382720256291" lon="12.23408744212811"><ele>89.2</ele><time>2026-04-25T14:46:58.005Z</time></trkpt><trkpt lat="45.8538243739227" lon="12.233908056738388"><ele>89.4</ele><time>2026-04-25T14:47:00.005Z</time></trkpt><trkpt lat="45.85382602430085" lon="12.233816176476218"><ele>89.6</ele><time>2026-04-25T14:47:01.005Z</time></trkpt><trkpt lat="45.85380851659689" lon="12.233669095609866"><ele>89.8</ele><time>2026-04-25T14:47:03.005Z</time></trkpt><trkpt lat="45.85380544346199" lon="12.23352204528809"><ele>90.0</ele><time>2026-04-25T14:47:05.005Z</time></trkpt><trkpt lat="45.85378580421723" lon="12.23336854082837"><ele>90.0</ele><time>2026-04-25T14:47:07.005Z</time></trkpt><trkpt lat="45.85377441584231" lon="12.233277658913888"><ele>90.0</ele><time>2026-04-25T14:47:08.005Z</time></trkpt><trkpt lat="45.853761677572024" lon="12.233133241171672"><ele>90.0</ele><time>2026-04-25T14:47:10.005Z</time></trkpt><trkpt lat="45.853750391617936" lon="12.233038048240225"><ele>90.0</ele><time>2026-04-25T14:47:11.005Z</time></trkpt><trkpt lat="45.85372976557047" lon="12.232882922003094"><ele>90.0</ele><time>2026-04-25T14:47:13.005Z</time></trkpt><trkpt lat="45.85369524407619" lon="12.232730471854426"><ele>90.0</ele><time>2026-04-25T14:47:15.005Z</time></trkpt><trkpt lat="45.85367648780237" lon="12.232633515799597"><ele>90.0</ele><time>2026-04-25T14:47:16.005Z</time></trkpt><trkpt lat="45.853641160833995" lon="12.232461721179343"><ele>90.0</ele><time>2026-04-25T14:47:18.005Z</time></trkpt><trkpt lat="45.8536301041955" lon="12.232325681803593"><ele>90.0</ele><time>2026-04-25T14:47:20.005Z</time></trkpt><trkpt lat="45.85361080424767" lon="12.23217285036378"><ele>90.0</ele><time>2026-04-25T14:47:22.005Z</time></trkpt><trkpt lat="45.85358466743094" lon="12.232034696157378"><ele>90.2</ele><time>2026-04-25T14:47:24.005Z</time></trkpt><trkpt lat="45.85357415756444" lon="12.231927292225716"><ele>90.4</ele><time>2026-04-25T14:47:26.006Z</time></trkpt><trkpt lat="45.85355281684741" lon="12.231769807353032"><ele>90.6</ele><time>2026-04-25T14:47:28.006Z</time></trkpt><trkpt lat="45.853537393567564" lon="12.231678659418503"><ele>90.8</ele><time>2026-04-25T14:47:29.006Z</time></trkpt><trkpt lat="45.8535056348505" lon="12.231519135340186"><ele>91.0</ele><time>2026-04-25T14:47:31.006Z</time></trkpt><trkpt lat="45.853475617920026" lon="12.2313673226998"><ele>91.4</ele><time>2026-04-25T14:47:33.006Z</time></trkpt><trkpt lat="45.85344865905517" lon="12.23120812977667"><ele>91.8</ele><time>2026-04-25T14:47:35.006Z</time></trkpt><trkpt lat="45.853394521754815" lon="12.23106470531613"><ele>92.2</ele><time>2026-04-25T14:47:37.005Z</time></trkpt><trkpt lat="45.853341203105835" lon="12.230922395145816"><ele>92.60000000000001</ele><time>2026-04-25T14:47:39.006Z</time></trkpt><trkpt lat="45.853319176027036" lon="12.23078891488655"><ele>93.0</ele><time>2026-04-25T14:47:41.006Z</time></trkpt><trkpt lat="45.85328045062645" lon="12.23068793135006"><ele>93.0</ele><time>2026-04-25T14:47:43.006Z</time></trkpt><trkpt lat="45.85321506072459" lon="12.23060263794718"><ele>93.0</ele><time>2026-04-25T14:47:45.006Z</time></trkpt><trkpt lat="45.85312292928223" lon="12.23057667496563"><ele>93.0</ele><time>2026-04-25T14:47:47.006Z</time></trkpt><trkpt lat="45.85304764796264" lon="12.23061386092078"><ele>93.0</ele><time>2026-04-25T14:47:50.006Z</time></trkpt><trkpt lat="45.85296760927013" lon="12.230675044803833"><ele>93.0</ele><time>2026-04-25T14:47:54.006Z</time></trkpt><trkpt lat="45.85288268004927" lon="12.230728412065776"><ele>93.0</ele><time>2026-04-25T14:47:57.006Z</time></trkpt><trkpt lat="45.852829638518514" lon="12.230785137746624"><ele>93.00000000000001</ele><time>2026-04-25T14:48:00.006Z</time></trkpt><trkpt lat="45.85275428290208" lon="12.230842877477247"><ele>93.0</ele><time>2026-04-25T14:48:03.006Z</time></trkpt><trkpt lat="45.85270516240402" lon="12.230908862479653"><ele>93.0</ele><time>2026-04-25T14:48:06.006Z</time></trkpt><trkpt lat="45.852683107589975" lon="12.230995475516684"><ele>93.0</ele><time>2026-04-25T14:48:11.006Z</time></trkpt><trkpt lat="45.85264889336091" lon="12.231087585436258"><ele>93.0</ele><time>2026-04-25T14:48:15.006Z</time></trkpt><trkpt lat="45.85259351379113" lon="12.231179519155077"><ele>93.00000000000001</ele><time>2026-04-25T14:48:19.006Z</time></trkpt><trkpt lat="45.85254908759498" lon="12.231266589679864"><ele>93.0</ele><time>2026-04-25T14:48:23.006Z</time></trkpt><trkpt lat="45.852500352475055" lon="12.231339409392108"><ele>95.71428571428572</ele><time>2026-04-25T14:48:27.006Z</time></trkpt><trkpt lat="45.852451606240734" lon="12.231421458061694"><ele>98.42857142857143</ele><time>2026-04-25T14:48:31.006Z</time></trkpt><trkpt lat="45.85242105233483" lon="12.231500628621275"><ele>101.14285714285714</ele><time>2026-04-25T14:48:36.006Z</time></trkpt><trkpt lat="45.85237236498928" lon="12.231567566508962"><ele>103.85714285714286</ele><time>2026-04-25T14:48:41.006Z</time></trkpt><trkpt lat="45.85230161199287" lon="12.231630523339861"><ele>106.57142857142857</ele><time>2026-04-25T14:48:47.006Z</time></trkpt><trkpt lat="45.85223831684254" lon="12.231676522384394"><ele>109.28571428571429</ele><time>2026-04-25T14:48:52.006Z</time></trkpt><trkpt lat="45.85217485559972" lon="12.231688434092991"><ele>112.0</ele><time>2026-04-25T14:48:55.006Z</time></trkpt><trkpt lat="45.85212047934734" lon="12.23176113464122"><ele>112.00000000000001</ele><time>2026-04-25T14:49:00.006Z</time></trkpt><trkpt lat="45.85205276216964" lon="12.231848669135083"><ele>112.0</ele><time>2026-04-25T14:49:05.006Z</time></trkpt><trkpt lat="45.85199640440237" lon="12.231911193791662"><ele>112.0</ele><time>2026-04-25T14:49:09.006Z</time></trkpt><trkpt lat="45.851925115949605" lon="12.231947695997215"><ele>112.0</ele><time>2026-04-25T14:49:13.006Z</time></trkpt><trkpt lat="45.851851795536454" lon="12.23197379276958"><ele>112.00000000000001</ele><time>2026-04-25T14:49:16.006Z</time></trkpt><trkpt lat="45.85179903801166" lon="12.232039640990765"><ele>112.0</ele><time>2026-04-25T14:49:20.006Z</time></trkpt><trkpt lat="45.85172661134436" lon="12.232082198240699"><ele>114.33333333333334</ele><time>2026-04-25T14:49:23.006Z</time></trkpt><trkpt lat="45.851649306718386" lon="12.232106209921858"><ele>116.66666666666667</ele><time>2026-04-25T14:49:27.006Z</time></trkpt><trkpt lat="45.851564010338926" lon="12.232066060546828"><ele>119.0</ele><time>2026-04-25T14:49:32.006Z</time></trkpt><trkpt lat="45.85149958065328" lon="12.231973644563574"><ele>121.33333333333334</ele><time>2026-04-25T14:49:35.007Z</time></trkpt><trkpt lat="45.85142839383228" lon="12.23188923722017"><ele>123.66666666666667</ele><time>2026-04-25T14:49:38.006Z</time></trkpt><trkpt lat="45.8513783977378" lon="12.231834237023028"><ele>126.0</ele><time>2026-04-25T14:49:40.007Z</time></trkpt><trkpt lat="45.851314978796935" lon="12.231783926757954"><ele>126.0</ele><time>2026-04-25T14:49:42.007Z</time></trkpt><trkpt lat="45.85121786878882" lon="12.231738644464055"><ele>126.0</ele><time>2026-04-25T14:49:45.006Z</time></trkpt><trkpt lat="45.85109926878482" lon="12.231765393206102"><ele>126.0</ele><time>2026-04-25T14:49:47.006Z</time></trkpt><trkpt lat="45.85103642820763" lon="12.231826582650205"><ele>126.0</ele><time>2026-04-25T14:49:48.006Z</time></trkpt><trkpt lat="45.850943028089596" lon="12.23191545899667"><ele>126.0</ele><time>2026-04-25T14:49:50.006Z</time></trkpt><trkpt lat="45.85084063138273" lon="12.231954818967239"><ele>125.66666666666667</ele><time>2026-04-25T14:49:52.006Z</time></trkpt><trkpt lat="45.85074273818954" lon="12.232046306390258"><ele>125.33333333333334</ele><time>2026-04-25T14:49:54.006Z</time></trkpt><trkpt lat="45.85064300833288" lon="12.232131972633875"><ele>125.0</ele><time>2026-04-25T14:49:56.006Z</time></trkpt><trkpt lat="45.85058212875206" lon="12.23217853697714"><ele>124.66666666666667</ele><time>2026-04-25T14:49:57.006Z</time></trkpt><trkpt lat="45.85051634033481" lon="12.232221128164797"><ele>124.33333333333334</ele><time>2026-04-25T14:49:58.006Z</time></trkpt><trkpt lat="45.85044901507807" lon="12.232265220227639"><ele>124.0</ele><time>2026-04-25T14:49:59.006Z</time></trkpt><trkpt lat="45.8503778804773" lon="12.232313778964452"><ele>124.0</ele><time>2026-04-25T14:50:00.006Z</time></trkpt><trkpt lat="45.85031383115211" lon="12.232367063416262"><ele>124.00000000000001</ele><time>2026-04-25T14:50:01.006Z</time></trkpt><trkpt lat="45.85024940840823" lon="12.232429664094251"><ele>124.0</ele><time>2026-04-25T14:50:02.006Z</time></trkpt><trkpt lat="45.85018922898482" lon="12.232492638858254"><ele>124.0</ele><time>2026-04-25T14:50:03.006Z</time></trkpt><trkpt lat="45.85012990798111" lon="12.232555672197547"><ele>124.00000000000001</ele><time>2026-04-25T14:50:04.006Z</time></trkpt><trkpt lat="45.850076044601735" lon="12.23262021819372"><ele>124.0</ele><time>2026-04-25T14:50:05.006Z</time></trkpt><trkpt lat="45.85002828342704" lon="12.232707632742123"><ele>124.0</ele><time>2026-04-25T14:50:06.006Z</time></trkpt><trkpt lat="45.84997478058054" lon="12.23278168282443"><ele>123.71428571428572</ele><time>2026-04-25T14:50:07.006Z</time></trkpt><trkpt lat="45.84992612151196" lon="12.2328489144706"><ele>123.42857142857144</ele><time>2026-04-25T14:50:08.006Z</time></trkpt><trkpt lat="45.84988460598244" lon="12.232940576378247"><ele>123.14285714285714</ele><time>2026-04-25T14:50:09.006Z</time></trkpt><trkpt lat="45.849848903291374" lon="12.233042324172592"><ele>122.85714285714286</ele><time>2026-04-25T14:50:10.006Z</time></trkpt><trkpt lat="45.84981995022294" lon="12.233139748671078"><ele>122.57142857142857</ele><time>2026-04-25T14:50:11.006Z</time></trkpt><trkpt lat="45.849788899187125" lon="12.233228131563969"><ele>122.28571428571428</ele><time>2026-04-25T14:50:12.006Z</time></trkpt><trkpt lat="45.84975466530379" lon="12.233323685467926"><ele>121.99999999999999</ele><time>2026-04-25T14:50:13.006Z</time></trkpt><trkpt lat="45.84971482996232" lon="12.233397205927023"><ele>122.0</ele><time>2026-04-25T14:50:14.006Z</time></trkpt><trkpt lat="45.84968319705738" lon="12.233487128818524"><ele>121.99999999999999</ele><time>2026-04-25T14:50:15.006Z</time></trkpt><trkpt lat="45.849612309293974" lon="12.233603340312943"><ele>121.99999999999999</ele><time>2026-04-25T14:50:17.006Z</time></trkpt><trkpt lat="45.849536286584126" lon="12.233709075611447"><ele>122.0</ele><time>2026-04-25T14:50:19.006Z</time></trkpt><trkpt lat="45.849466019114395" lon="12.233801084766919"><ele>122.0</ele><time>2026-04-25T14:50:21.006Z</time></trkpt><trkpt lat="45.84939502504463" lon="12.233901503506441"><ele>121.6</ele><time>2026-04-25T14:50:23.006Z</time></trkpt><trkpt lat="45.8493264841502" lon="12.234036071695035"><ele>121.19999999999999</ele><time>2026-04-25T14:50:25.006Z</time></trkpt><trkpt lat="45.849255550489254" lon="12.23414427488794"><ele>120.8</ele><time>2026-04-25T14:50:27.006Z</time></trkpt><trkpt lat="45.849193572618994" lon="12.234247795894353"><ele>120.4</ele><time>2026-04-25T14:50:29.006Z</time></trkpt><trkpt lat="45.84913399148264" lon="12.234362392774115"><ele>120.0</ele><time>2026-04-25T14:50:31.006Z</time></trkpt><trkpt lat="45.84907479867069" lon="12.234462275493307"><ele>120.0</ele><time>2026-04-25T14:50:33.006Z</time></trkpt><trkpt lat="45.84900792668168" lon="12.234543847344508"><ele>120.0</ele><time>2026-04-25T14:50:35.006Z</time></trkpt><trkpt lat="45.84895270116221" lon="12.234661716496085"><ele>120.0</ele><time>2026-04-25T14:50:37.006Z</time></trkpt><trkpt lat="45.848904186144686" lon="12.23474263768472"><ele>120.0</ele><time>2026-04-25T14:50:39.006Z</time></trkpt><trkpt lat="45.848839741765325" lon="12.234818544425467"><ele>120.0</ele><time>2026-04-25T14:50:43.006Z</time></trkpt><trkpt lat="45.848797485820874" lon="12.234926603442569"><ele>120.0</ele><time>2026-04-25T14:50:46.006Z</time></trkpt><trkpt lat="45.84878419190183" lon="12.235035012949059"><ele>122.0</ele><time>2026-04-25T14:50:49.006Z</time></trkpt><trkpt lat="45.84879731950232" lon="12.23515984771831"><ele>124.0</ele><time>2026-04-25T14:50:52.006Z</time></trkpt><trkpt lat="45.84881843106621" lon="12.235257402616128"><ele>126.0</ele><time>2026-04-25T14:50:54.006Z</time></trkpt><trkpt lat="45.848887912209484" lon="12.235367406567443"><ele>128.0</ele><time>2026-04-25T14:50:57.006Z</time></trkpt><trkpt lat="45.84895624339405" lon="12.235405496775364"><ele>130.0</ele><time>2026-04-25T14:50:59.006Z</time></trkpt><trkpt lat="45.84904475907207" lon="12.23542401729174"><ele>132.0</ele><time>2026-04-25T14:51:01.006Z</time></trkpt><trkpt lat="45.84912563550677" lon="12.235437891445331"><ele>132.0</ele><time>2026-04-25T14:51:03.006Z</time></trkpt><trkpt lat="45.849226771975054" lon="12.235432830017482"><ele>132.0</ele><time>2026-04-25T14:51:06.006Z</time></trkpt><trkpt lat="45.849302988902096" lon="12.23543203272294"><ele>132.0</ele><time>2026-04-25T14:51:07.006Z</time></trkpt><trkpt lat="45.849419720880555" lon="12.235455166603828"><ele>132.0</ele><time>2026-04-25T14:51:09.006Z</time></trkpt><trkpt lat="45.84950270341568" lon="12.23551604063677"><ele>132.0</ele><time>2026-04-25T14:51:11.006Z</time></trkpt><trkpt lat="45.84960145906719" lon="12.235561479198527"><ele>132.83333333333334</ele><time>2026-04-25T14:51:13.006Z</time></trkpt><trkpt lat="45.84968795152533" lon="12.235633808279697"><ele>133.66666666666666</ele><time>2026-04-25T14:51:15.006Z</time></trkpt><trkpt lat="45.849775401503244" lon="12.23570770659464"><ele>134.5</ele><time>2026-04-25T14:51:17.006Z</time></trkpt><trkpt lat="45.84983425544821" lon="12.235761952743038"><ele>135.33333333333331</ele><time>2026-04-25T14:51:20.006Z</time></trkpt><trkpt lat="45.84991097651724" lon="12.235823456788511"><ele>136.16666666666666</ele><time>2026-04-25T14:51:23.006Z</time></trkpt><trkpt lat="45.849971512138346" lon="12.235901420516708"><ele>137.0</ele><time>2026-04-25T14:51:26.006Z</time></trkpt><trkpt lat="45.850012042667" lon="12.23599672724945"><ele>137.0</ele><time>2026-04-25T14:51:29.006Z</time></trkpt><trkpt lat="45.8500141424454" lon="12.236102293808822"><ele>137.0</ele><time>2026-04-25T14:51:31.006Z</time></trkpt><trkpt lat="45.8500279666281" lon="12.236198040121781"><ele>137.0</ele><time>2026-04-25T14:51:33.006Z</time></trkpt><trkpt lat="45.85002185936122" lon="12.236332728378844"><ele>137.0</ele><time>2026-04-25T14:51:36.006Z</time></trkpt><trkpt lat="45.84999617419045" lon="12.236458522125861"><ele>137.0</ele><time>2026-04-25T14:51:38.007Z</time></trkpt><trkpt lat="45.849970232075904" lon="12.236648425537256"><ele>136.33333333333331</ele><time>2026-04-25T14:51:40.007Z</time></trkpt><trkpt lat="45.84995217269027" lon="12.236790702326347"><ele>135.66666666666666</ele><time>2026-04-25T14:51:41.007Z</time></trkpt><trkpt lat="45.84993623171092" lon="12.236907277714062"><ele>135.0</ele><time>2026-04-25T14:51:42.006Z</time></trkpt><trkpt lat="45.849932422320755" lon="12.237027084703197"><ele>134.33333333333334</ele><time>2026-04-25T14:51:43.006Z</time></trkpt><trkpt lat="45.849947221424145" lon="12.237143618362364"><ele>133.66666666666669</ele><time>2026-04-25T14:51:44.006Z</time></trkpt><trkpt lat="45.8499739175616" lon="12.237253880252183"><ele>133.0</ele><time>2026-04-25T14:51:45.007Z</time></trkpt><trkpt lat="45.850014529172256" lon="12.237339926428046"><ele>132.4</ele><time>2026-04-25T14:51:46.007Z</time></trkpt><trkpt lat="45.850106876455094" lon="12.237461521996188"><ele>131.8</ele><time>2026-04-25T14:51:47.007Z</time></trkpt><trkpt lat="45.850174762131424" lon="12.23753271388011"><ele>131.2</ele><time>2026-04-25T14:51:48.006Z</time></trkpt><trkpt lat="45.850238870749656" lon="12.237587689818332"><ele>130.6</ele><time>2026-04-25T14:51:49.006Z</time></trkpt><trkpt lat="45.85034184393181" lon="12.237672309160013"><ele>130.0</ele><time>2026-04-25T14:51:51.007Z</time></trkpt><trkpt lat="45.85042414688803" lon="12.23774570171107"><ele>129.8</ele><time>2026-04-25T14:51:53.007Z</time></trkpt><trkpt lat="45.850506342970014" lon="12.23780146244311"><ele>129.6</ele><time>2026-04-25T14:51:55.007Z</time></trkpt><trkpt lat="45.85058043914832" lon="12.237846456499623"><ele>129.4</ele><time>2026-04-25T14:51:57.007Z</time></trkpt><trkpt lat="45.85067615906327" lon="12.23793094632673"><ele>129.2</ele><time>2026-04-25T14:51:59.007Z</time></trkpt><trkpt lat="45.850736370118405" lon="12.238089082055689"><ele>129.0</ele><time>2026-04-25T14:52:01.007Z</time></trkpt><trkpt lat="45.850737036731935" lon="12.238263832616314"><ele>129.0</ele><time>2026-04-25T14:52:03.007Z</time></trkpt><trkpt lat="45.85071048359587" lon="12.23844819962632"><ele>129.0</ele><time>2026-04-25T14:52:05.007Z</time></trkpt><trkpt lat="45.850693773064265" lon="12.23855509147788"><ele>129.0</ele><time>2026-04-25T14:52:06.007Z</time></trkpt><trkpt lat="45.850662723506304" lon="12.238667391593786"><ele>129.0</ele><time>2026-04-25T14:52:07.007Z</time></trkpt><trkpt lat="45.850628717426076" lon="12.238765758650857"><ele>129.0</ele><time>2026-04-25T14:52:08.007Z</time></trkpt><trkpt lat="45.85059450317442" lon="12.238849729229734"><ele>129.0</ele><time>2026-04-25T14:52:09.007Z</time></trkpt><trkpt lat="45.85055646209926" lon="12.238941432312513"><ele>128.0</ele><time>2026-04-25T14:52:10.007Z</time></trkpt><trkpt lat="45.85051883314924" lon="12.239083176355729"><ele>127.0</ele><time>2026-04-25T14:52:11.007Z</time></trkpt><trkpt lat="45.850492179591186" lon="12.239216959068836"><ele>126.0</ele><time>2026-04-25T14:52:12.007Z</time></trkpt><trkpt lat="45.85047627179917" lon="12.239360792773471"><ele>125.0</ele><time>2026-04-25T14:52:13.007Z</time></trkpt><trkpt lat="45.85046161517328" lon="12.239509403952"><ele>124.0</ele><time>2026-04-25T14:52:14.007Z</time></trkpt><trkpt lat="45.85046201081449" lon="12.239661777121642"><ele>123.0</ele><time>2026-04-25T14:52:15.007Z</time></trkpt><trkpt lat="45.850461433385604" lon="12.239813186674745"><ele>122.0</ele><time>2026-04-25T14:52:16.007Z</time></trkpt><trkpt lat="45.85047965906083" lon="12.239971399716609"><ele>121.0</ele><time>2026-04-25T14:52:17.007Z</time></trkpt><trkpt lat="45.85049015718555" lon="12.240125826589791"><ele>120.0</ele><time>2026-04-25T14:52:18.007Z</time></trkpt><trkpt lat="45.85050499085635" lon="12.240289116384151"><ele>119.0</ele><time>2026-04-25T14:52:19.007Z</time></trkpt><trkpt lat="45.85051977307" lon="12.240451961999206"><ele>119.0</ele><time>2026-04-25T14:52:20.007Z</time></trkpt><trkpt lat="45.85053088747509" lon="12.240614235592833"><ele>119.0</ele><time>2026-04-25T14:52:21.007Z</time></trkpt><trkpt lat="45.85054465030708" lon="12.2407831177125"><ele>119.0</ele><time>2026-04-25T14:52:22.007Z</time></trkpt><trkpt lat="45.85055594250403" lon="12.240933981006716"><ele>119.0</ele><time>2026-04-25T14:52:23.007Z</time></trkpt><trkpt lat="45.850566038877794" lon="12.241072800987979"><ele>119.0</ele><time>2026-04-25T14:52:24.007Z</time></trkpt><trkpt lat="45.8505750680702" lon="12.241228534602532"><ele>117.0</ele><time>2026-04-25T14:52:25.007Z</time></trkpt><trkpt lat="45.85054945436297" lon="12.241383737977618"><ele>115.0</ele><time>2026-04-25T14:52:26.007Z</time></trkpt><trkpt lat="45.85052378096404" lon="12.241545114592224"><ele>113.0</ele><time>2026-04-25T14:52:27.007Z</time></trkpt><trkpt lat="45.85048646024314" lon="12.241724677021272"><ele>111.0</ele><time>2026-04-25T14:52:28.007Z</time></trkpt><trkpt lat="45.85045050611151" lon="12.241896405136549"><ele>108.0</ele><time>2026-04-25T14:52:29.007Z</time></trkpt><trkpt lat="45.85041046527655" lon="12.242085095575163"><ele>105.0</ele><time>2026-04-25T14:52:30.007Z</time></trkpt><trkpt lat="45.850373576120695" lon="12.242275765600041"><ele>102.0</ele><time>2026-04-25T14:52:31.007Z</time></trkpt><trkpt lat="45.850342868512755" lon="12.242467136703745"><ele>99.0</ele><time>2026-04-25T14:52:32.007Z</time></trkpt><trkpt lat="45.850317133247046" lon="12.242654744803948"><ele>95.75</ele><time>2026-04-25T14:52:33.007Z</time></trkpt><trkpt lat="45.85029888995945" lon="12.242825976158072"><ele>92.5</ele><time>2026-04-25T14:52:34.007Z</time></trkpt><trkpt lat="45.85027530301551" lon="12.242994170570286"><ele>89.25</ele><time>2026-04-25T14:52:35.007Z</time></trkpt><trkpt lat="45.85025524611393" lon="12.243153109456554"><ele>86.0</ele><time>2026-04-25T14:52:36.007Z</time></trkpt><trkpt lat="45.85023488461011" lon="12.243314058387789"><ele>86.19999999999999</ele><time>2026-04-25T14:52:37.007Z</time></trkpt><trkpt lat="45.85021646064402" lon="12.243476744812266"><ele>86.39999999999999</ele><time>2026-04-25T14:52:38.007Z</time></trkpt><trkpt lat="45.8501849921171" lon="12.243624134725833"><ele>86.6</ele><time>2026-04-25T14:52:39.007Z</time></trkpt><trkpt lat="45.850137584601235" lon="12.24377582223396"><ele>86.8</ele><time>2026-04-25T14:52:40.007Z</time></trkpt><trkpt lat="45.85007962760708" lon="12.243910849906172"><ele>87.0</ele><time>2026-04-25T14:52:41.007Z</time></trkpt><trkpt lat="45.850012727255816" lon="12.244039150774054"><ele>85.8</ele><time>2026-04-25T14:52:42.007Z</time></trkpt><trkpt lat="45.849941076359016" lon="12.244165684397212"><ele>84.6</ele><time>2026-04-25T14:52:43.007Z</time></trkpt><trkpt lat="45.849886214977154" lon="12.24429714311213"><ele>83.39999999999999</ele><time>2026-04-25T14:52:44.007Z</time></trkpt><trkpt lat="45.84984783595447" lon="12.244437731265414"><ele>82.19999999999999</ele><time>2026-04-25T14:52:45.007Z</time></trkpt><trkpt lat="45.84983141853089" lon="12.244593992368461"><ele>81.0</ele><time>2026-04-25T14:52:46.007Z</time></trkpt><trkpt lat="45.849843057640875" lon="12.244766768606144"><ele>80.25</ele><time>2026-04-25T14:52:47.007Z</time></trkpt><trkpt lat="45.84987547546374" lon="12.24494792901277"><ele>79.5</ele><time>2026-04-25T14:52:48.007Z</time></trkpt><trkpt lat="45.84993496966469" lon="12.245122724396573"><ele>78.75</ele><time>2026-04-25T14:52:49.007Z</time></trkpt><trkpt lat="45.84998166022593" lon="12.245288727730193"><ele>78.0</ele><time>2026-04-25T14:52:50.007Z</time></trkpt><trkpt lat="45.85002623560863" lon="12.245440168231411"><ele>78.0</ele><time>2026-04-25T14:52:51.007Z</time></trkpt><trkpt lat="45.850068325542566" lon="12.24559650318383"><ele>78.0</ele><time>2026-04-25T14:52:52.007Z</time></trkpt><trkpt lat="45.85009992404775" lon="12.245748199341486"><ele>78.0</ele><time>2026-04-25T14:52:53.007Z</time></trkpt><trkpt lat="45.85013059111895" lon="12.245894902089674"><ele>78.0</ele><time>2026-04-25T14:52:54.007Z</time></trkpt><trkpt lat="45.85015645189194" lon="12.24602969213326"><ele>78.0</ele><time>2026-04-25T14:52:55.007Z</time></trkpt><trkpt lat="45.85016668389649" lon="12.246160575841936"><ele>78.2</ele><time>2026-04-25T14:52:56.007Z</time></trkpt><trkpt lat="45.850150133030105" lon="12.246287120872696"><ele>78.4</ele><time>2026-04-25T14:52:57.007Z</time></trkpt><trkpt lat="45.85012078504768" lon="12.246412995038636"><ele>78.60000000000001</ele><time>2026-04-25T14:52:58.007Z</time></trkpt><trkpt lat="45.850068968487065" lon="12.24653010274869"><ele>78.8</ele><time>2026-04-25T14:52:59.007Z</time></trkpt><trkpt lat="45.85001042243403" lon="12.246632597120026"><ele>79.0</ele><time>2026-04-25T14:53:00.007Z</time></trkpt><trkpt lat="45.849942179921825" lon="12.24672212658132"><ele>79.16666666666666</ele><time>2026-04-25T14:53:01.007Z</time></trkpt><trkpt lat="45.8498681260785" lon="12.246799909565803"><ele>79.33333333333333</ele><time>2026-04-25T14:53:02.007Z</time></trkpt><trkpt lat="45.849792352907585" lon="12.246856073535431"><ele>79.5</ele><time>2026-04-25T14:53:03.007Z</time></trkpt><trkpt lat="45.849704672471695" lon="12.24690152048395"><ele>79.66666666666667</ele><time>2026-04-25T14:53:04.007Z</time></trkpt><trkpt lat="45.84961793234695" lon="12.24694845575788"><ele>79.83333333333334</ele><time>2026-04-25T14:53:05.007Z</time></trkpt><trkpt lat="45.84955054711753" lon="12.246991658987811"><ele>80.0</ele><time>2026-04-25T14:53:06.007Z</time></trkpt><trkpt lat="45.84946615363339" lon="12.24705004922138"><ele>80.0</ele><time>2026-04-25T14:53:07.007Z</time></trkpt><trkpt lat="45.84938806808821" lon="12.247102111737918"><ele>80.0</ele><time>2026-04-25T14:53:08.007Z</time></trkpt><trkpt lat="45.84931586354622" lon="12.247130514076398"><ele>80.0</ele><time>2026-04-25T14:53:09.007Z</time></trkpt><trkpt lat="45.84923698032769" lon="12.247174166385868"><ele>80.0</ele><time>2026-04-25T14:53:10.007Z</time></trkpt><trkpt lat="45.849163779879156" lon="12.247227328582065"><ele>80.0</ele><time>2026-04-25T14:53:11.007Z</time></trkpt><trkpt lat="45.84909832609807" lon="12.247272497209044"><ele>80.0</ele><time>2026-04-25T14:53:12.007Z</time></trkpt><trkpt lat="45.849017628406706" lon="12.247332755518384"><ele>79.33333333333334</ele><time>2026-04-25T14:53:13.007Z</time></trkpt><trkpt lat="45.84893588058235" lon="12.247377613139792"><ele>78.66666666666667</ele><time>2026-04-25T14:53:14.007Z</time></trkpt><trkpt lat="45.84886444022521" lon="12.24743325745448"><ele>78.0</ele><time>2026-04-25T14:53:15.007Z</time></trkpt><trkpt lat="45.84879374779395" lon="12.247489909264823"><ele>77.33333333333333</ele><time>2026-04-25T14:53:16.007Z</time></trkpt><trkpt lat="45.848728010885694" lon="12.247538936852164"><ele>76.66666666666666</ele><time>2026-04-25T14:53:17.007Z</time></trkpt><trkpt lat="45.848669128307456" lon="12.247571199073397"><ele>76.0</ele><time>2026-04-25T14:53:18.007Z</time></trkpt><trkpt lat="45.84859949810475" lon="12.247623069137545"><ele>76.0</ele><time>2026-04-25T14:53:19.007Z</time></trkpt><trkpt lat="45.84853514579415" lon="12.247673039757961"><ele>76.0</ele><time>2026-04-25T14:53:20.007Z</time></trkpt><trkpt lat="45.84847634830817" lon="12.247733144653266"><ele>76.0</ele><time>2026-04-25T14:53:21.007Z</time></trkpt><trkpt lat="45.848414725538035" lon="12.247788619939213"><ele>76.0</ele><time>2026-04-25T14:53:22.007Z</time></trkpt><trkpt lat="45.84836086975083" lon="12.247838121708826"><ele>76.0</ele><time>2026-04-25T14:53:23.007Z</time></trkpt><trkpt lat="45.84830681058278" lon="12.247886751374185"><ele>76.0</ele><time>2026-04-25T14:53:24.007Z</time></trkpt><trkpt lat="45.84825627286972" lon="12.247944829027471"><ele>76.0</ele><time>2026-04-25T14:53:25.007Z</time></trkpt><trkpt lat="45.8481920723191" lon="12.24798553843925"><ele>75.85714285714285</ele><time>2026-04-25T14:53:26.007Z</time></trkpt><trkpt lat="45.848123975936026" lon="12.24800599698318"><ele>75.71428571428572</ele><time>2026-04-25T14:53:27.007Z</time></trkpt><trkpt lat="45.8480590579306" lon="12.247998576014682"><ele>75.57142857142857</ele><time>2026-04-25T14:53:28.007Z</time></trkpt><trkpt lat="45.84799676885826" lon="12.247968907816654"><ele>75.42857142857142</ele><time>2026-04-25T14:53:29.007Z</time></trkpt><trkpt lat="45.84794038495011" lon="12.247912184103823"><ele>75.28571428571428</ele><time>2026-04-25T14:53:30.007Z</time></trkpt><trkpt lat="45.8478944041876" lon="12.247832899236474"><ele>75.14285714285714</ele><time>2026-04-25T14:53:31.007Z</time></trkpt><trkpt lat="45.84785681728576" lon="12.247746511873677"><ele>75.0</ele><time>2026-04-25T14:53:32.007Z</time></trkpt><trkpt lat="45.84782100219464" lon="12.247661680873591"><ele>74.99999999999999</ele><time>2026-04-25T14:53:33.007Z</time></trkpt><trkpt lat="45.84778428137965" lon="12.24758024155385"><ele>75.0</ele><time>2026-04-25T14:53:34.007Z</time></trkpt><trkpt lat="45.847742723260666" lon="12.247494631833193"><ele>75.0</ele><time>2026-04-25T14:53:35.007Z</time></trkpt><trkpt lat="45.84770759443341" lon="12.247413017492525"><ele>75.0</ele><time>2026-04-25T14:53:36.007Z</time></trkpt><trkpt lat="45.84766954329728" lon="12.247331819326199"><ele>75.0</ele><time>2026-04-25T14:53:37.007Z</time></trkpt><trkpt lat="45.847639541496264" lon="12.247242130835337"><ele>74.99999999999999</ele><time>2026-04-25T14:53:38.007Z</time></trkpt><trkpt lat="45.84759149793873" lon="12.247152738986802"><ele>75.0</ele><time>2026-04-25T14:53:39.007Z</time></trkpt><trkpt lat="45.84754506583902" lon="12.247062894709723"><ele>74.85714285714285</ele><time>2026-04-25T14:53:40.007Z</time></trkpt><trkpt lat="45.84749935167433" lon="12.246977253096196"><ele>74.71428571428571</ele><time>2026-04-25T14:53:41.007Z</time></trkpt><trkpt lat="45.84745928874283" lon="12.246893559673191"><ele>74.57142857142857</ele><time>2026-04-25T14:53:42.007Z</time></trkpt><trkpt lat="45.84741741803736" lon="12.246806031070731"><ele>74.42857142857142</ele><time>2026-04-25T14:53:43.007Z</time></trkpt><trkpt lat="45.84737970599303" lon="12.246716964266309"><ele>74.28571428571428</ele><time>2026-04-25T14:53:44.007Z</time></trkpt><trkpt lat="45.847333541040456" lon="12.246625402229835"><ele>74.14285714285714</ele><time>2026-04-25T14:53:45.008Z</time></trkpt><trkpt lat="45.84729679905508" lon="12.246537859020131"><ele>74.0</ele><time>2026-04-25T14:53:46.008Z</time></trkpt><trkpt lat="45.84725389435705" lon="12.246450978525514"><ele>73.85714285714286</ele><time>2026-04-25T14:53:47.007Z</time></trkpt><trkpt lat="45.8472200121878" lon="12.246363340943114"><ele>73.71428571428571</ele><time>2026-04-25T14:53:48.007Z</time></trkpt><trkpt lat="45.847174160146956" lon="12.246275792599315"><ele>73.57142857142857</ele><time>2026-04-25T14:53:49.007Z</time></trkpt><trkpt lat="45.84713770365772" lon="12.246184266526036"><ele>73.42857142857143</ele><time>2026-04-25T14:53:50.007Z</time></trkpt><trkpt lat="45.84709653250835" lon="12.24609992522965"><ele>73.28571428571429</ele><time>2026-04-25T14:53:51.008Z</time></trkpt><trkpt lat="45.84705312113989" lon="12.246015964734205"><ele>73.14285714285714</ele><time>2026-04-25T14:53:52.008Z</time></trkpt><trkpt lat="45.84701719448949" lon="12.245934908367362"><ele>73.0</ele><time>2026-04-25T14:53:53.008Z</time></trkpt><trkpt lat="45.84697844926748" lon="12.245851613938296"><ele>73.0</ele><time>2026-04-25T14:53:54.007Z</time></trkpt><trkpt lat="45.84694365055602" lon="12.245765678449825"><ele>73.0</ele><time>2026-04-25T14:53:55.007Z</time></trkpt><trkpt lat="45.84690381472987" lon="12.245682893460277"><ele>73.0</ele><time>2026-04-25T14:53:56.007Z</time></trkpt><trkpt lat="45.84686360509965" lon="12.245600804028292"><ele>73.0</ele><time>2026-04-25T14:53:57.007Z</time></trkpt><trkpt lat="45.84682418253425" lon="12.245520132720895"><ele>73.0</ele><time>2026-04-25T14:53:58.007Z</time></trkpt><trkpt lat="45.846780016559045" lon="12.24544099597537"><ele>73.0</ele><time>2026-04-25T14:53:59.007Z</time></trkpt><trkpt lat="45.84673870851454" lon="12.245359729746815"><ele>73.0</ele><time>2026-04-25T14:54:00.007Z</time></trkpt><trkpt lat="45.84669773349372" lon="12.245278216160882"><ele>72.66666666666666</ele><time>2026-04-25T14:54:01.007Z</time></trkpt><trkpt lat="45.84666057955634" lon="12.245203768679932"><ele>72.33333333333333</ele><time>2026-04-25T14:54:02.007Z</time></trkpt><trkpt lat="45.846614406267314" lon="12.245131854050165"><ele>72.0</ele><time>2026-04-25T14:54:03.007Z</time></trkpt><trkpt lat="45.84652595221562" lon="12.244999834392614"><ele>71.66666666666667</ele><time>2026-04-25T14:54:05.007Z</time></trkpt><trkpt lat="45.846475057255425" lon="12.244941963039654"><ele>71.33333333333334</ele><time>2026-04-25T14:54:06.007Z</time></trkpt><trkpt lat="45.84641952921288" lon="12.244887913998783"><ele>71.0</ele><time>2026-04-25T14:54:07.007Z</time></trkpt><trkpt lat="45.84636068868466" lon="12.244841765909419"><ele>71.0</ele><time>2026-04-25T14:54:08.007Z</time></trkpt><trkpt lat="45.846303523398824" lon="12.244797755163948"><ele>71.0</ele><time>2026-04-25T14:54:09.007Z</time></trkpt><trkpt lat="45.84620201349768" lon="12.244725764153856"><ele>71.0</ele><time>2026-04-25T14:54:11.007Z</time></trkpt><trkpt lat="45.84609944803507" lon="12.244666020614133"><ele>71.0</ele><time>2026-04-25T14:54:13.007Z</time></trkpt><trkpt lat="45.84597690632611" lon="12.244648476070484"><ele>71.0</ele><time>2026-04-25T14:54:15.007Z</time></trkpt><trkpt lat="45.845872707042155" lon="12.244721967203226"><ele>71.83333333333334</ele><time>2026-04-25T14:54:17.007Z</time></trkpt><trkpt lat="45.84581743804348" lon="12.244779908113326"><ele>72.66666666666667</ele><time>2026-04-25T14:54:18.007Z</time></trkpt><trkpt lat="45.845702686113825" lon="12.244871090914234"><ele>73.5</ele><time>2026-04-25T14:54:20.007Z</time></trkpt><trkpt lat="45.845634919565136" lon="12.244910535877635"><ele>74.33333333333333</ele><time>2026-04-25T14:54:21.007Z</time></trkpt><trkpt lat="45.84556875010415" lon="12.244951143583787"><ele>75.16666666666666</ele><time>2026-04-25T14:54:22.007Z</time></trkpt><trkpt lat="45.84550393999853" lon="12.244988612358004"><ele>76.0</ele><time>2026-04-25T14:54:23.007Z</time></trkpt><trkpt lat="45.84543717170202" lon="12.245034952580871"><ele>76.0</ele><time>2026-04-25T14:54:24.007Z</time></trkpt><trkpt lat="45.845374598967496" lon="12.24507909962515"><ele>76.0</ele><time>2026-04-25T14:54:25.007Z</time></trkpt><trkpt lat="45.845308631671834" lon="12.24512784728779"><ele>76.0</ele><time>2026-04-25T14:54:26.007Z</time></trkpt><trkpt lat="45.8452468441091" lon="12.245163784587318"><ele>76.0</ele><time>2026-04-25T14:54:27.007Z</time></trkpt><trkpt lat="45.84518509167715" lon="12.24520719279293"><ele>76.0</ele><time>2026-04-25T14:54:28.007Z</time></trkpt><trkpt lat="45.845119422327464" lon="12.245260216587647"><ele>76.0</ele><time>2026-04-25T14:54:29.007Z</time></trkpt><trkpt lat="45.845057026910425" lon="12.245293488970901"><ele>76.0</ele><time>2026-04-25T14:54:30.007Z</time></trkpt><trkpt lat="45.84499180914339" lon="12.245333087811654"><ele>75.57142857142857</ele><time>2026-04-25T14:54:31.007Z</time></trkpt><trkpt lat="45.84492566472245" lon="12.245376558972744"><ele>75.14285714285715</ele><time>2026-04-25T14:54:32.007Z</time></trkpt><trkpt lat="45.84485957847635" lon="12.245423217949412"><ele>74.71428571428572</ele><time>2026-04-25T14:54:33.007Z</time></trkpt><trkpt lat="45.844795292366044" lon="12.245472554766778"><ele>74.28571428571428</ele><time>2026-04-25T14:54:34.007Z</time></trkpt><trkpt lat="45.84473344203872" lon="12.24550828463392"><ele>73.85714285714286</ele><time>2026-04-25T14:54:35.007Z</time></trkpt><trkpt lat="45.844668084817" lon="12.245547702920046"><ele>73.42857142857143</ele><time>2026-04-25T14:54:36.007Z</time></trkpt><trkpt lat="45.84460474302637" lon="12.245584929097232"><ele>73.0</ele><time>2026-04-25T14:54:37.007Z</time></trkpt><trkpt lat="45.84454222438609" lon="12.245630734603013"><ele>72.85714285714286</ele><time>2026-04-25T14:54:38.007Z</time></trkpt><trkpt lat="45.844484305519025" lon="12.245674773449192"><ele>72.71428571428572</ele><time>2026-04-25T14:54:39.007Z</time></trkpt><trkpt lat="45.844422607890614" lon="12.245717887043451"><ele>72.57142857142858</ele><time>2026-04-25T14:54:40.007Z</time></trkpt><trkpt lat="45.84435840351003" lon="12.245764197860952"><ele>72.42857142857143</ele><time>2026-04-25T14:54:41.007Z</time></trkpt><trkpt lat="45.8442944286301" lon="12.245808427147601"><ele>72.28571428571429</ele><time>2026-04-25T14:54:42.007Z</time></trkpt><trkpt lat="45.84423133966196" lon="12.245847705910126"><ele>72.14285714285715</ele><time>2026-04-25T14:54:43.007Z</time></trkpt><trkpt lat="45.844171073393" lon="12.24589079660878"><ele>72.0</ele><time>2026-04-25T14:54:44.007Z</time></trkpt><trkpt lat="45.84410568641895" lon="12.245940181253085"><ele>72.00000000000001</ele><time>2026-04-25T14:54:45.007Z</time></trkpt><trkpt lat="45.84404150654069" lon="12.245984634096441"><ele>72.0</ele><time>2026-04-25T14:54:46.007Z</time></trkpt><trkpt lat="45.84397689628475" lon="12.246028359718967"><ele>72.0</ele><time>2026-04-25T14:54:47.007Z</time></trkpt><trkpt lat="45.84391571198751" lon="12.24607077604959"><ele>72.0</ele><time>2026-04-25T14:54:48.007Z</time></trkpt><trkpt lat="45.84384921065221" lon="12.246113352083439"><ele>72.0</ele><time>2026-04-25T14:54:49.007Z</time></trkpt><trkpt lat="45.843787583768176" lon="12.246151560755264"><ele>72.00000000000001</ele><time>2026-04-25T14:54:50.007Z</time></trkpt><trkpt lat="45.84372596108823" lon="12.246197960784833"><ele>72.0</ele><time>2026-04-25T14:54:51.007Z</time></trkpt><trkpt lat="45.84366361851876" lon="12.246241266450957"><ele>72.00000000000001</ele><time>2026-04-25T14:54:52.007Z</time></trkpt><trkpt lat="45.84360048854841" lon="12.246285946730898"><ele>72.0</ele><time>2026-04-25T14:54:53.007Z</time></trkpt><trkpt lat="45.84353961254308" lon="12.246331256156548"><ele>72.0</ele><time>2026-04-25T14:54:54.007Z</time></trkpt><trkpt lat="45.84347976820248" lon="12.246375664664887"><ele>72.0</ele><time>2026-04-25T14:54:55.007Z</time></trkpt><trkpt lat="45.84341894882063" lon="12.246422882197763"><ele>72.0</ele><time>2026-04-25T14:54:56.007Z</time></trkpt><trkpt lat="45.84335924306466" lon="12.246465245869807"><ele>72.00000000000001</ele><time>2026-04-25T14:54:57.007Z</time></trkpt><trkpt lat="45.84330082918154" lon="12.246505905244726"><ele>72.0</ele><time>2026-04-25T14:54:58.007Z</time></trkpt><trkpt lat="45.843189839265435" lon="12.246583243975905"><ele>71.71428571428572</ele><time>2026-04-25T14:55:00.007Z</time></trkpt><trkpt lat="45.84313107536109" lon="12.24662045444318"><ele>71.42857142857143</ele><time>2026-04-25T14:55:01.007Z</time></trkpt><trkpt lat="45.843073360179815" lon="12.24666180825309"><ele>71.14285714285714</ele><time>2026-04-25T14:55:02.007Z</time></trkpt><trkpt lat="45.84301103625783" lon="12.246704052964583"><ele>70.85714285714286</ele><time>2026-04-25T14:55:03.007Z</time></trkpt><trkpt lat="45.84295390473549" lon="12.246746999011904"><ele>70.57142857142857</ele><time>2026-04-25T14:55:04.007Z</time></trkpt><trkpt lat="45.842894409684114" lon="12.246792787221661"><ele>70.28571428571429</ele><time>2026-04-25T14:55:05.007Z</time></trkpt><trkpt lat="45.84283419963551" lon="12.246834052124186"><ele>70.0</ele><time>2026-04-25T14:55:06.007Z</time></trkpt><trkpt lat="45.84277179856605" lon="12.24687546989312"><ele>70.0</ele><time>2026-04-25T14:55:07.007Z</time></trkpt><trkpt lat="45.84270989033542" lon="12.246912919207253"><ele>70.0</ele><time>2026-04-25T14:55:08.007Z</time></trkpt><trkpt lat="45.84264713826868" lon="12.246956202847286"><ele>70.0</ele><time>2026-04-25T14:55:09.007Z</time></trkpt><trkpt lat="45.8425862479091" lon="12.24699631864028"><ele>70.0</ele><time>2026-04-25T14:55:10.007Z</time></trkpt><trkpt lat="45.842522055718234" lon="12.24704634991694"><ele>70.0</ele><time>2026-04-25T14:55:11.007Z</time></trkpt><trkpt lat="45.84245958222107" lon="12.247091705123834"><ele>70.0</ele><time>2026-04-25T14:55:12.007Z</time></trkpt><trkpt lat="45.842398508096984" lon="12.247130723910901"><ele>70.0</ele><time>2026-04-25T14:55:13.007Z</time></trkpt><trkpt lat="45.84233739637746" lon="12.247170044114787"><ele>69.85714285714286</ele><time>2026-04-25T14:55:14.007Z</time></trkpt><trkpt lat="45.84227478241888" lon="12.24721296172152"><ele>69.71428571428572</ele><time>2026-04-25T14:55:15.007Z</time></trkpt><trkpt lat="45.842212957378685" lon="12.2472533329363"><ele>69.57142857142857</ele><time>2026-04-25T14:55:16.007Z</time></trkpt><trkpt lat="45.84215185730268" lon="12.247294080255342"><ele>69.42857142857143</ele><time>2026-04-25T14:55:17.007Z</time></trkpt><trkpt lat="45.842094270950014" lon="12.247333922441992"><ele>69.28571428571429</ele><time>2026-04-25T14:55:18.007Z</time></trkpt><trkpt lat="45.84203357661858" lon="12.247375160485912"><ele>69.14285714285714</ele><time>2026-04-25T14:55:19.007Z</time></trkpt><trkpt lat="45.84197254497279" lon="12.247413177402414"><ele>69.0</ele><time>2026-04-25T14:55:20.007Z</time></trkpt><trkpt lat="45.84191205488031" lon="12.247452162940862"><ele>69.0</ele><time>2026-04-25T14:55:21.007Z</time></trkpt><trkpt lat="45.841853080594575" lon="12.24749603613627"><ele>69.0</ele><time>2026-04-25T14:55:22.007Z</time></trkpt><trkpt lat="45.84179508825776" lon="12.2475344464552"><ele>69.0</ele><time>2026-04-25T14:55:23.007Z</time></trkpt><trkpt lat="45.84173728485713" lon="12.247575857859925"><ele>69.0</ele><time>2026-04-25T14:55:24.007Z</time></trkpt><trkpt lat="45.84167768112688" lon="12.247611567557522"><ele>69.0</ele><time>2026-04-25T14:55:25.007Z</time></trkpt><trkpt lat="45.841565920961756" lon="12.247689994250484"><ele>69.0</ele><time>2026-04-25T14:55:27.007Z</time></trkpt><trkpt lat="45.84151088965776" lon="12.247734708813892"><ele>69.0</ele><time>2026-04-25T14:55:28.007Z</time></trkpt><trkpt lat="45.841403368545144" lon="12.247820636678378"><ele>68.8</ele><time>2026-04-25T14:55:30.007Z</time></trkpt><trkpt lat="45.84134511958782" lon="12.24786228011039"><ele>68.60000000000001</ele><time>2026-04-25T14:55:31.007Z</time></trkpt><trkpt lat="45.841234288712094" lon="12.247933485481743"><ele>68.4</ele><time>2026-04-25T14:55:33.007Z</time></trkpt><trkpt lat="45.84112069797053" lon="12.248010316062526"><ele>68.2</ele><time>2026-04-25T14:55:35.007Z</time></trkpt><trkpt lat="45.84106259468634" lon="12.248053859772622"><ele>68.0</ele><time>2026-04-25T14:55:36.007Z</time></trkpt><trkpt lat="45.84094901418053" lon="12.248134654315727"><ele>67.85714285714285</ele><time>2026-04-25T14:55:38.007Z</time></trkpt><trkpt lat="45.840888841589155" lon="12.248178478100025"><ele>67.71428571428571</ele><time>2026-04-25T14:55:39.007Z</time></trkpt><trkpt lat="45.84083015763756" lon="12.248214095953758"><ele>67.57142857142857</ele><time>2026-04-25T14:55:40.007Z</time></trkpt><trkpt lat="45.84076899444374" lon="12.248257570909466"><ele>67.42857142857142</ele><time>2026-04-25T14:55:41.007Z</time></trkpt><trkpt lat="45.840710917969915" lon="12.248304610366949"><ele>67.28571428571428</ele><time>2026-04-25T14:55:42.007Z</time></trkpt><trkpt lat="45.840650253839954" lon="12.248353461462985"><ele>67.14285714285714</ele><time>2026-04-25T14:55:43.007Z</time></trkpt><trkpt lat="45.84058913635911" lon="12.248386022715032"><ele>67.0</ele><time>2026-04-25T14:55:44.007Z</time></trkpt><trkpt lat="45.84052237648996" lon="12.248413285243073"><ele>67.0</ele><time>2026-04-25T14:55:45.007Z</time></trkpt><trkpt lat="45.840450820874516" lon="12.24844461589841"><ele>67.0</ele><time>2026-04-25T14:55:46.007Z</time></trkpt><trkpt lat="45.84038637787342" lon="12.248484518708414"><ele>67.0</ele><time>2026-04-25T14:55:47.007Z</time></trkpt><trkpt lat="45.84032510118883" lon="12.248537433185708"><ele>67.0</ele><time>2026-04-25T14:55:48.007Z</time></trkpt><trkpt lat="45.84026633775016" lon="12.248583339237982"><ele>67.0</ele><time>2026-04-25T14:55:49.007Z</time></trkpt><trkpt lat="45.84020517851239" lon="12.248628805935937"><ele>67.0</ele><time>2026-04-25T14:55:50.008Z</time></trkpt><trkpt lat="45.84014486543893" lon="12.248670075985586"><ele>67.0</ele><time>2026-04-25T14:55:51.008Z</time></trkpt><trkpt lat="45.84008539571241" lon="12.248707089175744"><ele>67.0</ele><time>2026-04-25T14:55:52.008Z</time></trkpt><trkpt lat="45.84002715620297" lon="12.2487563678274"><ele>67.0</ele><time>2026-04-25T14:55:53.008Z</time></trkpt><trkpt lat="45.8399693939747" lon="12.248797328342897"><ele>67.0</ele><time>2026-04-25T14:55:54.008Z</time></trkpt><trkpt lat="45.83990897815429" lon="12.248838252207166"><ele>67.0</ele><time>2026-04-25T14:55:55.008Z</time></trkpt><trkpt lat="45.839799378854536" lon="12.24891619676776"><ele>67.0</ele><time>2026-04-25T14:55:57.008Z</time></trkpt><trkpt lat="45.83972940543218" lon="12.248945323028439"><ele>67.0</ele><time>2026-04-25T14:55:59.007Z</time></trkpt><trkpt lat="45.83966827084837" lon="12.248989769205602"><ele>67.0</ele><time>2026-04-25T14:56:18.007Z</time></trkpt><trkpt lat="45.83958966243924" lon="12.249051810562035"><ele>67.0</ele><time>2026-04-25T14:56:21.007Z</time></trkpt><trkpt lat="45.83952278234047" lon="12.249106613143756"><ele>67.0</ele><time>2026-04-25T14:56:23.007Z</time></trkpt><trkpt lat="45.839449892666494" lon="12.249157547891263"><ele>67.0</ele><time>2026-04-25T14:56:25.007Z</time></trkpt><trkpt lat="45.83937808344797" lon="12.249205516119716"><ele>67.0</ele><time>2026-04-25T14:56:27.007Z</time></trkpt><trkpt lat="45.83928628349856" lon="12.249268849516302"><ele>67.0</ele><time>2026-04-25T14:56:29.007Z</time></trkpt><trkpt lat="45.839204303106314" lon="12.249332749784184"><ele>66.8</ele><time>2026-04-25T14:56:31.007Z</time></trkpt><trkpt lat="45.83912025885583" lon="12.249387114044685"><ele>66.6</ele><time>2026-04-25T14:56:33.007Z</time></trkpt><trkpt lat="45.83904027710777" lon="12.24944760240449"><ele>66.39999999999999</ele><time>2026-04-25T14:56:35.007Z</time></trkpt><trkpt lat="45.83895474857162" lon="12.249505841622089"><ele>66.2</ele><time>2026-04-25T14:56:37.007Z</time></trkpt><trkpt lat="45.83888053870278" lon="12.24956130818195"><ele>66.0</ele><time>2026-04-25T14:56:39.007Z</time></trkpt><trkpt lat="45.83879551448379" lon="12.249623251253357"><ele>66.0</ele><time>2026-04-25T14:56:41.007Z</time></trkpt><trkpt lat="45.83869722670199" lon="12.249689316886975"><ele>66.0</ele><time>2026-04-25T14:56:43.007Z</time></trkpt><trkpt lat="45.838613507673784" lon="12.2497441091748"><ele>66.0</ele><time>2026-04-25T14:56:45.007Z</time></trkpt><trkpt lat="45.83853023417757" lon="12.249797945055334"><ele>66.0</ele><time>2026-04-25T14:56:47.007Z</time></trkpt><trkpt lat="45.838464206228956" lon="12.249844385370329"><ele>66.0</ele><time>2026-04-25T14:56:49.007Z</time></trkpt><trkpt lat="45.83839640268731" lon="12.249887518481447"><ele>66.0</ele><time>2026-04-25T14:56:51.007Z</time></trkpt><trkpt lat="45.83833084886706" lon="12.249931774484168"><ele>65.0</ele><time>2026-04-25T14:56:53.007Z</time></trkpt><trkpt lat="45.838264681964574" lon="12.249977700704557"><ele>65.0</ele><time>2026-04-25T14:56:55.007Z</time></trkpt></trkseg></trk></gpx>